<?xml version='1.0' encoding='UTF-8'?><gpx version="1.1" creator="JPX - https://github.com/jenetics/jpx" xmlns="http://www.topografix.com/GPX/1/1"><trk><trkseg><trkpt lat="39.2653044696457" lon="16.710345756551906"><ele>978.0</ele><time>2026-03-28T11:17:33Z</time></trkpt><trkpt lat="39.26531004096823" lon="16.710447199189264"><ele>978.0</ele><time>2026-03-28T11:17:34Z</time></trkpt><trkpt lat="39.26533996510654" lon="16.71054566684937"><ele>978.0</ele><time>2026-03-28T11:17:35Z</time></trkpt><trkpt lat="39.265373776727955" lon="16.71065084288513"><ele>978.0</ele><time>2026-03-28T11:17:36Z</time></trkpt><trkpt lat="39.26539215176844" lon="16.710768755763247"><ele>978.0</ele><time>2026-03-28T11:17:37Z</time></trkpt><trkpt lat="39.265379769932665" lon="16.710892183989653"><ele>978.0</ele><time>2026-03-28T11:17:38Z</time></trkpt><trkpt lat="39.26535033296519" lon="16.711012553338318"><ele>978.0</ele><time>2026-03-28T11:17:39Z</time></trkpt><trkpt lat="39.26530859802806" lon="16.711126317419843"><ele>978.0</ele><time>2026-03-28T11:17:40Z</time></trkpt><trkpt lat="39.265249672309984" lon="16.711225899405566"><ele>978.0</ele><time>2026-03-28T11:17:41Z</time></trkpt><trkpt lat="39.265184071381384" lon="16.71131274376276"><ele>978.0</ele><time>2026-03-28T11:17:42Z</time></trkpt><trkpt lat="39.26513257164237" lon="16.71140538192917"><ele>978.0</ele><time>2026-03-28T11:17:43Z</time></trkpt><trkpt lat="39.26510379110464" lon="16.711504790242397"><ele>978.0</ele><time>2026-03-28T11:17:44Z</time></trkpt><trkpt lat="39.26508822864207" lon="16.711599067623"><ele>978.0</ele><time>2026-03-28T11:17:45Z</time></trkpt><trkpt lat="39.26509109444373" lon="16.711696153971527"><ele>978.0</ele><time>2026-03-28T11:17:46Z</time></trkpt><trkpt lat="39.26510772225763" lon="16.71179666473576"><ele>978.0</ele><time>2026-03-28T11:17:47Z</time></trkpt><trkpt lat="39.265141167113846" lon="16.71189969624954"><ele>978.0</ele><time>2026-03-28T11:17:48Z</time></trkpt><trkpt lat="39.265194013313504" lon="16.71199616644734"><ele>978.0</ele><time>2026-03-28T11:17:49Z</time></trkpt><trkpt lat="39.26526143159844" lon="16.712088017492267"><ele>976.5999999999999</ele><time>2026-03-28T11:17:50Z</time></trkpt><trkpt lat="39.26532722514015" lon="16.712186333794477"><ele>975.1999999999999</ele><time>2026-03-28T11:17:51Z</time></trkpt><trkpt lat="39.265363557419" lon="16.712300507605594"><ele>973.8</ele><time>2026-03-28T11:17:52Z</time></trkpt><trkpt lat="39.26536380872812" lon="16.71241899060843"><ele>972.4</ele><time>2026-03-28T11:17:53Z</time></trkpt><trkpt lat="39.26533237006804" lon="16.712533299433982"><ele>971.0</ele><time>2026-03-28T11:17:54Z</time></trkpt><trkpt lat="39.26528291896455" lon="16.712641533288487"><ele>971.5999999999999</ele><time>2026-03-28T11:17:55Z</time></trkpt><trkpt lat="39.265233129546296" lon="16.712755133739396"><ele>972.1999999999999</ele><time>2026-03-28T11:17:56Z</time></trkpt><trkpt lat="39.2651831175347" lon="16.712878862125912"><ele>972.8000000000001</ele><time>2026-03-28T11:17:57Z</time></trkpt><trkpt lat="39.26512963382914" lon="16.713000005569967"><ele>973.4000000000001</ele><time>2026-03-28T11:17:58Z</time></trkpt><trkpt lat="39.26507756651971" lon="16.71311337216836"><ele>974.0</ele><time>2026-03-28T11:17:59Z</time></trkpt><trkpt lat="39.2650329761309" lon="16.713224245443204"><ele>974.0</ele><time>2026-03-28T11:18:00Z</time></trkpt><trkpt lat="39.26498767986308" lon="16.713331473899895"><ele>974.0000000000001</ele><time>2026-03-28T11:18:01Z</time></trkpt><trkpt lat="39.26494249120422" lon="16.713437850803956"><ele>974.0000000000001</ele><time>2026-03-28T11:18:02Z</time></trkpt><trkpt lat="39.26489667048599" lon="16.713542591881595"><ele>974.0</ele><time>2026-03-28T11:18:03Z</time></trkpt><trkpt lat="39.264851187774255" lon="16.713653632298307"><ele>974.0</ele><time>2026-03-28T11:18:04Z</time></trkpt><trkpt lat="39.26479993072636" lon="16.71377379122192"><ele>972.5</ele><time>2026-03-28T11:18:05Z</time></trkpt><trkpt lat="39.26474467409865" lon="16.71390045906873"><ele>971.0</ele><time>2026-03-28T11:18:06Z</time></trkpt><trkpt lat="39.264684715413836" lon="16.714032866851664"><ele>969.5</ele><time>2026-03-28T11:18:07Z</time></trkpt><trkpt lat="39.26461868742981" lon="16.714185071914915"><ele>968.0</ele><time>2026-03-28T11:18:08Z</time></trkpt><trkpt lat="39.26454575828188" lon="16.714359266047005"><ele>970.6666666666667</ele><time>2026-03-28T11:18:09Z</time></trkpt><trkpt lat="39.26446656705702" lon="16.71454083503609"><ele>973.3333333333333</ele><time>2026-03-28T11:18:10Z</time></trkpt><trkpt lat="39.2643898392937" lon="16.71472495980746"><ele>976.0</ele><time>2026-03-28T11:18:11Z</time></trkpt><trkpt lat="39.264312255130655" lon="16.714905948398453"><ele>976.0</ele><time>2026-03-28T11:18:12Z</time></trkpt><trkpt lat="39.26423489888381" lon="16.715087601888673"><ele>976.0</ele><time>2026-03-28T11:18:13Z</time></trkpt><trkpt lat="39.2641625796564" lon="16.715271787290526"><ele>976.0</ele><time>2026-03-28T11:18:14Z</time></trkpt><trkpt lat="39.26408895889491" lon="16.71546658914957"><ele>976.0</ele><time>2026-03-28T11:18:15Z</time></trkpt><trkpt lat="39.26401506103528" lon="16.715673344276354"><ele>976.0</ele><time>2026-03-28T11:18:16Z</time></trkpt><trkpt lat="39.263898773753105" lon="16.715890542671282"><ele>976.0</ele><time>2026-03-28T11:18:17Z</time></trkpt><trkpt lat="39.263804391459026" lon="16.716116277512334"><ele>976.0</ele><time>2026-03-28T11:18:18Z</time></trkpt><trkpt lat="39.26371803930265" lon="16.716334976085097"><ele>976.0</ele><time>2026-03-28T11:18:19Z</time></trkpt><trkpt lat="39.26363805438687" lon="16.71652851819995"><ele>976.0</ele><time>2026-03-28T11:18:20Z</time></trkpt><trkpt lat="39.263563838297216" lon="16.71670611406773"><ele>976.0</ele><time>2026-03-28T11:18:21Z</time></trkpt><trkpt lat="39.2634957110438" lon="16.71686800485591"><ele>976.0</ele><time>2026-03-28T11:18:22Z</time></trkpt><trkpt lat="39.26342635015603" lon="16.7170122483101"><ele>976.0</ele><time>2026-03-28T11:18:23Z</time></trkpt><trkpt lat="39.26334995077592" lon="16.717142368536194"><ele>976.0</ele><time>2026-03-28T11:18:24Z</time></trkpt><trkpt lat="39.26326244410664" lon="16.717250954953492"><ele>975.5</ele><time>2026-03-28T11:18:25Z</time></trkpt><trkpt lat="39.26316015136683" lon="16.717343561290885"><ele>975.0</ele><time>2026-03-28T11:18:26Z</time></trkpt><trkpt lat="39.26305616947857" lon="16.717422340485243"><ele>974.5</ele><time>2026-03-28T11:18:27Z</time></trkpt><trkpt lat="39.262952987439995" lon="16.71748862608068"><ele>974.0</ele><time>2026-03-28T11:18:28Z</time></trkpt><trkpt lat="39.26284661539956" lon="16.717541501149213"><ele>973.75</ele><time>2026-03-28T11:18:29Z</time></trkpt><trkpt lat="39.26274017012468" lon="16.717598526812722"><ele>973.5</ele><time>2026-03-28T11:18:30Z</time></trkpt><trkpt lat="39.262635017051885" lon="16.71765889036929"><ele>973.25</ele><time>2026-03-28T11:18:31Z</time></trkpt><trkpt lat="39.26253143727165" lon="16.717720104882797"><ele>973.0</ele><time>2026-03-28T11:18:32Z</time></trkpt><trkpt lat="39.26242538444877" lon="16.717780979863026"><ele>972.75</ele><time>2026-03-28T11:18:33Z</time></trkpt><trkpt lat="39.26231833991778" lon="16.717844317023317"><ele>972.5</ele><time>2026-03-28T11:18:34Z</time></trkpt><trkpt lat="39.262211071879236" lon="16.717906105720886"><ele>972.25</ele><time>2026-03-28T11:18:35Z</time></trkpt><trkpt lat="39.262104488084034" lon="16.71796678048565"><ele>972.0</ele><time>2026-03-28T11:18:36Z</time></trkpt><trkpt lat="39.261995692451734" lon="16.718028570204293"><ele>973.6</ele><time>2026-03-28T11:18:37Z</time></trkpt><trkpt lat="39.26188977321713" lon="16.71808583557113"><ele>975.2</ele><time>2026-03-28T11:18:38Z</time></trkpt><trkpt lat="39.26179205320962" lon="16.718154628999457"><ele>976.8</ele><time>2026-03-28T11:18:39Z</time></trkpt><trkpt lat="39.26172249079462" lon="16.71823100307068"><ele>978.4</ele><time>2026-03-28T11:18:40Z</time></trkpt><trkpt lat="39.26166628093037" lon="16.71830702626735"><ele>980.0</ele><time>2026-03-28T11:18:41Z</time></trkpt><trkpt lat="39.26162244887335" lon="16.718380970655492"><ele>980.0000000000001</ele><time>2026-03-28T11:18:42Z</time></trkpt><trkpt lat="39.261581550243896" lon="16.718462691128043"><ele>980.0</ele><time>2026-03-28T11:18:44Z</time></trkpt><trkpt lat="39.2615424105327" lon="16.718533438044563"><ele>980.0</ele><time>2026-03-28T11:18:47Z</time></trkpt><trkpt lat="39.26150221014303" lon="16.718609564599046"><ele>980.0</ele><time>2026-03-28T11:18:49Z</time></trkpt><trkpt lat="39.26147075693132" lon="16.71869882300026"><ele>980.0000000000001</ele><time>2026-03-28T11:18:51Z</time></trkpt><trkpt lat="39.261348096004085" lon="16.718744650341563"><ele>980.0</ele><time>2026-03-28T11:18:53Z</time></trkpt><trkpt lat="39.26128285199289" lon="16.71881546228941"><ele>982.5000000000001</ele><time>2026-03-28T11:18:54Z</time></trkpt><trkpt lat="39.26121835818125" lon="16.718880019674124"><ele>985.0</ele><time>2026-03-28T11:18:55Z</time></trkpt><trkpt lat="39.26115088176516" lon="16.718939470311668"><ele>987.5</ele><time>2026-03-28T11:18:56Z</time></trkpt><trkpt lat="39.261074098173985" lon="16.718990577712894"><ele>990.0</ele><time>2026-03-28T11:18:57Z</time></trkpt><trkpt lat="39.261011763504314" lon="16.719019062242857"><ele>992.5000000000001</ele><time>2026-03-28T11:18:58Z</time></trkpt><trkpt lat="39.26091896681976" lon="16.719049392576547"><ele>995.0</ele><time>2026-03-28T11:19:00Z</time></trkpt><trkpt lat="39.26084233215368" lon="16.719059461434533"><ele>995.0</ele><time>2026-03-28T11:19:14Z</time></trkpt><trkpt lat="39.26077525642534" lon="16.718849558635615"><ele>995.0</ele><time>2026-03-28T11:19:18Z</time></trkpt><trkpt lat="39.2605022451558" lon="16.71925863610526"><ele>997.6666666666667</ele><time>2026-03-28T11:19:35Z</time></trkpt><trkpt lat="39.26042332135517" lon="16.719309683922194"><ele>1000.3333333333334</ele><time>2026-03-28T11:19:38Z</time></trkpt><trkpt lat="39.26036614656696" lon="16.719344588556794"><ele>1003.0</ele><time>2026-03-28T11:19:40Z</time></trkpt><trkpt lat="39.260292504944" lon="16.719362090236515"><ele>1005.6666666666667</ele><time>2026-03-28T11:19:43Z</time></trkpt><trkpt lat="39.2602135873106" lon="16.719386042940513"><ele>1008.3333333333334</ele><time>2026-03-28T11:19:46Z</time></trkpt><trkpt lat="39.26013379897281" lon="16.71940010313125"><ele>1011.0</ele><time>2026-03-28T11:19:49Z</time></trkpt><trkpt lat="39.2600480115066" lon="16.719437270957755"><ele>1012.3333333333334</ele><time>2026-03-28T11:19:52Z</time></trkpt><trkpt lat="39.259985230851804" lon="16.71945953231652"><ele>1013.6666666666667</ele><time>2026-03-28T11:19:54Z</time></trkpt><trkpt lat="39.259923775280704" lon="16.71948289515735"><ele>1015.0</ele><time>2026-03-28T11:19:56Z</time></trkpt><trkpt lat="39.2598376100075" lon="16.719496599492008"><ele>1016.3333333333334</ele><time>2026-03-28T11:19:59Z</time></trkpt><trkpt lat="39.25975219130143" lon="16.719503659564158"><ele>1017.6666666666667</ele><time>2026-03-28T11:20:02Z</time></trkpt><trkpt lat="39.25967640288789" lon="16.719518207358654"><ele>1019.0</ele><time>2026-03-28T11:20:04Z</time></trkpt><trkpt lat="39.25960177594511" lon="16.719543020890484"><ele>1021.1666666666667</ele><time>2026-03-28T11:20:06Z</time></trkpt><trkpt lat="39.25952628388484" lon="16.719577834212117"><ele>1023.3333333333334</ele><time>2026-03-28T11:20:09Z</time></trkpt><trkpt lat="39.25946405268691" lon="16.719614164095567"><ele>1025.5</ele><time>2026-03-28T11:20:13Z</time></trkpt><trkpt lat="39.259396726807616" lon="16.719628380027363"><ele>1027.6666666666667</ele><time>2026-03-28T11:20:15Z</time></trkpt><trkpt lat="39.259307193241874" lon="16.719597603469186"><ele>1029.8333333333333</ele><time>2026-03-28T11:20:17Z</time></trkpt><trkpt lat="39.25922755196259" lon="16.719578894649377"><ele>1032.0</ele><time>2026-03-28T11:20:19Z</time></trkpt><trkpt lat="39.25915192777077" lon="16.71960277836975"><ele>1032.0</ele><time>2026-03-28T11:20:21Z</time></trkpt><trkpt lat="39.25907308277971" lon="16.719667066523456"><ele>1032.0</ele><time>2026-03-28T11:20:23Z</time></trkpt><trkpt lat="39.25899192878203" lon="16.719660258443174"><ele>1032.0</ele><time>2026-03-28T11:20:25Z</time></trkpt><trkpt lat="39.25892068705036" lon="16.71968422651422"><ele>1032.0</ele><time>2026-03-28T11:20:27Z</time></trkpt><trkpt lat="39.258839506478175" lon="16.71972317518775"><ele>1032.0</ele><time>2026-03-28T11:20:29Z</time></trkpt><trkpt lat="39.258750483400895" lon="16.719732239406714"><ele>1032.0</ele><time>2026-03-28T11:20:31Z</time></trkpt><trkpt lat="39.258680865166916" lon="16.719761341344007"><ele>1033.8333333333333</ele><time>2026-03-28T11:20:34Z</time></trkpt><trkpt lat="39.258614876181156" lon="16.719773464079054"><ele>1035.6666666666667</ele><time>2026-03-28T11:20:37Z</time></trkpt><trkpt lat="39.25852751501443" lon="16.719790461288387"><ele>1037.5</ele><time>2026-03-28T11:20:42Z</time></trkpt><trkpt lat="39.25845275591239" lon="16.719844128245477"><ele>1039.3333333333335</ele><time>2026-03-28T11:20:44Z</time></trkpt><trkpt lat="39.258374864552295" lon="16.71991483355034"><ele>1041.1666666666667</ele><time>2026-03-28T11:20:46Z</time></trkpt><trkpt lat="39.2583233063102" lon="16.71998061882954"><ele>1043.0</ele><time>2026-03-28T11:20:48Z</time></trkpt><trkpt lat="39.25827499312338" lon="16.72006808644458"><ele>1043.0</ele><time>2026-03-28T11:20:50Z</time></trkpt><trkpt lat="39.25818511522722" lon="16.72018012549586"><ele>1043.0</ele><time>2026-03-28T11:20:52Z</time></trkpt><trkpt lat="39.258124295283075" lon="16.720215845110776"><ele>1043.0</ele><time>2026-03-28T11:20:53Z</time></trkpt><trkpt lat="39.25802581110478" lon="16.72024686834915"><ele>1043.0</ele><time>2026-03-28T11:20:55Z</time></trkpt><trkpt lat="39.257915663960695" lon="16.720290667723333"><ele>1043.0</ele><time>2026-03-28T11:20:58Z</time></trkpt><trkpt lat="39.257830935491825" lon="16.720318063121056"><ele>1044.3333333333335</ele><time>2026-03-28T11:21:00Z</time></trkpt><trkpt lat="39.2577230138402" lon="16.720394980603015"><ele>1045.6666666666667</ele><time>2026-03-28T11:21:02Z</time></trkpt><trkpt lat="39.25766757889933" lon="16.720448963211677"><ele>1047.0</ele><time>2026-03-28T11:21:03Z</time></trkpt><trkpt lat="39.25762980788874" lon="16.720520685770143"><ele>1048.3333333333333</ele><time>2026-03-28T11:21:04Z</time></trkpt><trkpt lat="39.25758941646651" lon="16.72059790520687"><ele>1049.6666666666665</ele><time>2026-03-28T11:21:05Z</time></trkpt><trkpt lat="39.25756006680799" lon="16.720686397273823"><ele>1051.0</ele><time>2026-03-28T11:21:06Z</time></trkpt><trkpt lat="39.257522129008414" lon="16.72077063176403"><ele>1051.0</ele><time>2026-03-28T11:21:07Z</time></trkpt><trkpt lat="39.25747755079993" lon="16.720859879822985"><ele>1051.0</ele><time>2026-03-28T11:21:08Z</time></trkpt><trkpt lat="39.25741941910793" lon="16.72094692599299"><ele>1051.0</ele><time>2026-03-28T11:21:09Z</time></trkpt><trkpt lat="39.25734598483288" lon="16.72101635465698"><ele>1051.0</ele><time>2026-03-28T11:21:10Z</time></trkpt><trkpt lat="39.25723254673036" lon="16.721078440515107"><ele>1051.0</ele><time>2026-03-28T11:21:11Z</time></trkpt><trkpt lat="39.257141079464624" lon="16.72113583310748"><ele>1051.3999999999999</ele><time>2026-03-28T11:21:12Z</time></trkpt><trkpt lat="39.25706501308816" lon="16.721198590223246"><ele>1051.8</ele><time>2026-03-28T11:21:13Z</time></trkpt><trkpt lat="39.25698870850877" lon="16.721273293053613"><ele>1052.1999999999998</ele><time>2026-03-28T11:21:14Z</time></trkpt><trkpt lat="39.25690182299486" lon="16.721339936814047"><ele>1052.6</ele><time>2026-03-28T11:21:15Z</time></trkpt><trkpt lat="39.2568271249449" lon="16.72141661561681"><ele>1053.0</ele><time>2026-03-28T11:21:16Z</time></trkpt><trkpt lat="39.256770187502234" lon="16.721512670977543"><ele>1053.0</ele><time>2026-03-28T11:21:17Z</time></trkpt><trkpt lat="39.256720011135116" lon="16.721609515184714"><ele>1053.0</ele><time>2026-03-28T11:21:18Z</time></trkpt><trkpt lat="39.25667137886018" lon="16.72169710141418"><ele>1053.0</ele><time>2026-03-28T11:21:19Z</time></trkpt><trkpt lat="39.25661064725815" lon="16.72177338199187"><ele>1053.0</ele><time>2026-03-28T11:21:20Z</time></trkpt><trkpt lat="39.25653241480182" lon="16.721843948970285"><ele>1053.0</ele><time>2026-03-28T11:21:21Z</time></trkpt><trkpt lat="39.256452659404886" lon="16.72191643750262"><ele>1052.2</ele><time>2026-03-28T11:21:22Z</time></trkpt><trkpt lat="39.25637993929724" lon="16.72199817214807"><ele>1051.4</ele><time>2026-03-28T11:21:23Z</time></trkpt><trkpt lat="39.25629960447969" lon="16.72207829910518"><ele>1050.6000000000001</ele><time>2026-03-28T11:21:24Z</time></trkpt><trkpt lat="39.25622124880496" lon="16.722155271623226"><ele>1049.8</ele><time>2026-03-28T11:21:25Z</time></trkpt><trkpt lat="39.256142144416735" lon="16.722234834624935"><ele>1049.0</ele><time>2026-03-28T11:21:26Z</time></trkpt><trkpt lat="39.25606215660195" lon="16.72231304179602"><ele>1049.0</ele><time>2026-03-28T11:21:27Z</time></trkpt><trkpt lat="39.25598178653411" lon="16.722391130717398"><ele>1049.0</ele><time>2026-03-28T11:21:28Z</time></trkpt><trkpt lat="39.25589808157612" lon="16.722463968451272"><ele>1049.0</ele><time>2026-03-28T11:21:29Z</time></trkpt><trkpt lat="39.255810173641365" lon="16.722517991310262"><ele>1049.0</ele><time>2026-03-28T11:21:30Z</time></trkpt><trkpt lat="39.25572123663439" lon="16.72256150384107"><ele>1049.0</ele><time>2026-03-28T11:21:31Z</time></trkpt><trkpt lat="39.25563465896372" lon="16.722598232468542"><ele>1048.1666666666667</ele><time>2026-03-28T11:21:32Z</time></trkpt><trkpt lat="39.25557004692894" lon="16.722658079313213"><ele>1047.3333333333335</ele><time>2026-03-28T11:21:33Z</time></trkpt><trkpt lat="39.255505830611476" lon="16.722716905261077"><ele>1046.5</ele><time>2026-03-28T11:21:34Z</time></trkpt><trkpt lat="39.25545297029391" lon="16.72277804828708"><ele>1045.6666666666667</ele><time>2026-03-28T11:21:35Z</time></trkpt><trkpt lat="39.25540549760192" lon="16.72285382641873"><ele>1044.8333333333333</ele><time>2026-03-28T11:21:36Z</time></trkpt><trkpt lat="39.25536381917538" lon="16.722937994613645"><ele>1044.0</ele><time>2026-03-28T11:21:37Z</time></trkpt><trkpt lat="39.25532052230731" lon="16.72302275455825"><ele>1044.0</ele><time>2026-03-28T11:21:38Z</time></trkpt><trkpt lat="39.25528426273171" lon="16.72311749477668"><ele>1044.0</ele><time>2026-03-28T11:21:39Z</time></trkpt><trkpt lat="39.25525570499969" lon="16.723224348682383"><ele>1044.0</ele><time>2026-03-28T11:21:40Z</time></trkpt><trkpt lat="39.25524155941999" lon="16.723337822114804"><ele>1044.0</ele><time>2026-03-28T11:21:41Z</time></trkpt><trkpt lat="39.25522640730751" lon="16.723458478013487"><ele>1044.0</ele><time>2026-03-28T11:21:42Z</time></trkpt><trkpt lat="39.25521189090943" lon="16.72358506655362"><ele>1044.25</ele><time>2026-03-28T11:21:43Z</time></trkpt><trkpt lat="39.255212318731154" lon="16.723708731594673"><ele>1044.5</ele><time>2026-03-28T11:21:44Z</time></trkpt><trkpt lat="39.25519733231262" lon="16.723843498378088"><ele>1044.75</ele><time>2026-03-28T11:21:45Z</time></trkpt><trkpt lat="39.255151251371366" lon="16.72398381879173"><ele>1045.0</ele><time>2026-03-28T11:21:46Z</time></trkpt><trkpt lat="39.255078547667885" lon="16.72414436217509"><ele>1045.0</ele><time>2026-03-28T11:21:47Z</time></trkpt><trkpt lat="39.25500136850079" lon="16.72430738118348"><ele>1045.0</ele><time>2026-03-28T11:21:48Z</time></trkpt><trkpt lat="39.254929950410876" lon="16.724434170257148"><ele>1045.0</ele><time>2026-03-28T11:21:49Z</time></trkpt><trkpt lat="39.25487845712269" lon="16.724560651856798"><ele>1045.0</ele><time>2026-03-28T11:21:50Z</time></trkpt><trkpt lat="39.254818512555715" lon="16.72465599857017"><ele>1049.4</ele><time>2026-03-28T11:21:51Z</time></trkpt><trkpt lat="39.25477779455898" lon="16.72476572854433"><ele>1053.8</ele><time>2026-03-28T11:21:52Z</time></trkpt><trkpt lat="39.254741630678275" lon="16.72486448176692"><ele>1058.2</ele><time>2026-03-28T11:21:53Z</time></trkpt><trkpt lat="39.25471420117551" lon="16.724969021888928"><ele>1062.6</ele><time>2026-03-28T11:21:55Z</time></trkpt><trkpt lat="39.25467137598615" lon="16.725084709612126"><ele>1067.0</ele><time>2026-03-28T11:21:58Z</time></trkpt><trkpt lat="39.2546186604788" lon="16.72518846506288"><ele>1067.0</ele><time>2026-03-28T11:22:00Z</time></trkpt><trkpt lat="39.25453998812307" lon="16.725299179278444"><ele>1067.0</ele><time>2026-03-28T11:22:02Z</time></trkpt><trkpt lat="39.25445931897814" lon="16.725398878504954"><ele>1067.0</ele><time>2026-03-28T11:22:04Z</time></trkpt><trkpt lat="39.25438400586338" lon="16.725484555091427"><ele>1067.0</ele><time>2026-03-28T11:22:06Z</time></trkpt><trkpt lat="39.254349008239735" lon="16.725572627571744"><ele>1067.0</ele><time>2026-03-28T11:22:08Z</time></trkpt><trkpt lat="39.254290026959694" lon="16.72563748560907"><ele>1067.0</ele><time>2026-03-28T11:22:10Z</time></trkpt><trkpt lat="39.254213133137505" lon="16.725675782405983"><ele>1067.0</ele><time>2026-03-28T11:22:12Z</time></trkpt><trkpt lat="39.25415988136176" lon="16.725742869148544"><ele>1067.0</ele><time>2026-03-28T11:22:14Z</time></trkpt><trkpt lat="39.254112391041616" lon="16.725849009100756"><ele>1067.0</ele><time>2026-03-28T11:22:18Z</time></trkpt><trkpt lat="39.25409678412694" lon="16.725973225706934"><ele>1067.0</ele><time>2026-03-28T11:22:21Z</time></trkpt><trkpt lat="39.254115150818265" lon="16.726060013180806"><ele>1067.0</ele><time>2026-03-28T11:22:23Z</time></trkpt><trkpt lat="39.25414156618478" lon="16.72616707478592"><ele>1067.4</ele><time>2026-03-28T11:22:26Z</time></trkpt><trkpt lat="39.25413469498464" lon="16.72626369223629"><ele>1067.8000000000002</ele><time>2026-03-28T11:22:28Z</time></trkpt><trkpt lat="39.254128811554196" lon="16.72637061534069"><ele>1068.2</ele><time>2026-03-28T11:22:30Z</time></trkpt><trkpt lat="39.25411742402615" lon="16.726481032997118"><ele>1068.6000000000001</ele><time>2026-03-28T11:22:32Z</time></trkpt><trkpt lat="39.25408139043738" lon="16.726603860070586"><ele>1069.0</ele><time>2026-03-28T11:22:34Z</time></trkpt><trkpt lat="39.25402823931836" lon="16.726720657407817"><ele>1069.0</ele><time>2026-03-28T11:22:36Z</time></trkpt><trkpt lat="39.2539926375935" lon="16.72685764505727"><ele>1069.0</ele><time>2026-03-28T11:22:38Z</time></trkpt><trkpt lat="39.25396659680027" lon="16.726936511808397"><ele>1069.0</ele><time>2026-03-28T11:22:39Z</time></trkpt><trkpt lat="39.253899661430125" lon="16.727075229749026"><ele>1069.0</ele><time>2026-03-28T11:22:41Z</time></trkpt><trkpt lat="39.25384593954929" lon="16.72721468600649"><ele>1069.0</ele><time>2026-03-28T11:22:43Z</time></trkpt><trkpt lat="39.25379856397276" lon="16.727356767630404"><ele>1074.6000000000001</ele><time>2026-03-28T11:22:45Z</time></trkpt><trkpt lat="39.253758335882964" lon="16.72749544316612"><ele>1080.2</ele><time>2026-03-28T11:22:47Z</time></trkpt><trkpt lat="39.25370516619203" lon="16.727616382921642"><ele>1085.8000000000002</ele><time>2026-03-28T11:22:49Z</time></trkpt><trkpt lat="39.25366634278098" lon="16.72773368422017"><ele>1091.4</ele><time>2026-03-28T11:22:51Z</time></trkpt><trkpt lat="39.25364348255402" lon="16.727839194453487"><ele>1097.0</ele><time>2026-03-28T11:22:53Z</time></trkpt><trkpt lat="39.25360035197451" lon="16.72793257110499"><ele>1098.1666666666667</ele><time>2026-03-28T11:22:55Z</time></trkpt><trkpt lat="39.253579377532894" lon="16.72803098717229"><ele>1099.3333333333335</ele><time>2026-03-28T11:22:57Z</time></trkpt><trkpt lat="39.25356291758877" lon="16.728132539213586"><ele>1100.5</ele><time>2026-03-28T11:22:59Z</time></trkpt><trkpt lat="39.25351566883919" lon="16.728221237520508"><ele>1101.6666666666667</ele><time>2026-03-28T11:23:01Z</time></trkpt><trkpt lat="39.253495716799094" lon="16.72833628166976"><ele>1102.8333333333333</ele><time>2026-03-28T11:23:03Z</time></trkpt><trkpt lat="39.253461423448194" lon="16.72843342292963"><ele>1104.0</ele><time>2026-03-28T11:23:05Z</time></trkpt><trkpt lat="39.25344423299802" lon="16.728541450730745"><ele>1104.6000000000001</ele><time>2026-03-28T11:23:07Z</time></trkpt><trkpt lat="39.253397929743436" lon="16.728658746228632"><ele>1105.2</ele><time>2026-03-28T11:23:09Z</time></trkpt><trkpt lat="39.25335472730854" lon="16.728775347362504"><ele>1105.8000000000002</ele><time>2026-03-28T11:23:11Z</time></trkpt><trkpt lat="39.253291505944524" lon="16.728874169685703"><ele>1106.4</ele><time>2026-03-28T11:23:13Z</time></trkpt><trkpt lat="39.253226394139055" lon="16.728893173704122"><ele>1107.0</ele><time>2026-03-28T11:23:14Z</time></trkpt><trkpt lat="39.25310377541274" lon="16.72893935348634"><ele>1107.6666666666667</ele><time>2026-03-28T11:23:16Z</time></trkpt><trkpt lat="39.25303688656196" lon="16.72898005628469"><ele>1108.3333333333333</ele><time>2026-03-28T11:23:17Z</time></trkpt><trkpt lat="39.252961144357315" lon="16.729016974928435"><ele>1109.0</ele><time>2026-03-28T11:23:18Z</time></trkpt><trkpt lat="39.25287457129826" lon="16.72903287833723"><ele>1109.6666666666665</ele><time>2026-03-28T11:23:19Z</time></trkpt><trkpt lat="39.25278531510405" lon="16.72902695429348"><ele>1110.3333333333333</ele><time>2026-03-28T11:23:20Z</time></trkpt><trkpt lat="39.25269720760733" lon="16.729041124169353"><ele>1111.0</ele><time>2026-03-28T11:23:21Z</time></trkpt><trkpt lat="39.252607231071586" lon="16.729081562265733"><ele>1111.0</ele><time>2026-03-28T11:23:22Z</time></trkpt><trkpt lat="39.252524590137995" lon="16.729125693369827"><ele>1111.0</ele><time>2026-03-28T11:23:23Z</time></trkpt><trkpt lat="39.252450795028395" lon="16.729170866311527"><ele>1111.0</ele><time>2026-03-28T11:23:24Z</time></trkpt><trkpt lat="39.25239902002904" lon="16.72923660362008"><ele>1111.0</ele><time>2026-03-28T11:23:25Z</time></trkpt><trkpt lat="39.25236227918444" lon="16.729335114320826"><ele>1111.0</ele><time>2026-03-28T11:23:26Z</time></trkpt><trkpt lat="39.25231447654254" lon="16.72942669232912"><ele>1111.0</ele><time>2026-03-28T11:23:27Z</time></trkpt><trkpt lat="39.25224135885099" lon="16.72947092203832"><ele>1109.1666666666665</ele><time>2026-03-28T11:23:28Z</time></trkpt><trkpt lat="39.25215824754507" lon="16.72950637661374"><ele>1107.3333333333333</ele><time>2026-03-28T11:23:29Z</time></trkpt><trkpt lat="39.25209612099794" lon="16.729538083425012"><ele>1105.5</ele><time>2026-03-28T11:23:30Z</time></trkpt><trkpt lat="39.252010531794774" lon="16.729596304579058"><ele>1103.6666666666667</ele><time>2026-03-28T11:23:32Z</time></trkpt><trkpt lat="39.25192961779523" lon="16.729647101150928"><ele>1101.8333333333335</ele><time>2026-03-28T11:23:34Z</time></trkpt><trkpt lat="39.25183516246758" lon="16.7297098747068"><ele>1100.0</ele><time>2026-03-28T11:23:36Z</time></trkpt><trkpt lat="39.25174459995075" lon="16.72977659418285"><ele>1100.0</ele><time>2026-03-28T11:23:38Z</time></trkpt><trkpt lat="39.25168952204045" lon="16.72982161264526"><ele>1100.0</ele><time>2026-03-28T11:23:40Z</time></trkpt><trkpt lat="39.251577208201404" lon="16.729900763146965"><ele>1100.0</ele><time>2026-03-28T11:23:42Z</time></trkpt><trkpt lat="39.251505933171316" lon="16.729961935026605"><ele>1100.0</ele><time>2026-03-28T11:23:43Z</time></trkpt><trkpt lat="39.25144908778553" lon="16.730013767450163"><ele>1100.0</ele><time>2026-03-28T11:23:44Z</time></trkpt><trkpt lat="39.25137129790649" lon="16.730068878151663"><ele>1100.0</ele><time>2026-03-28T11:23:45Z</time></trkpt><trkpt lat="39.25131041633982" lon="16.730140097636838"><ele>1101.0</ele><time>2026-03-28T11:23:46Z</time></trkpt><trkpt lat="39.251215967327944" lon="16.730205011021095"><ele>1102.0</ele><time>2026-03-28T11:23:48Z</time></trkpt><trkpt lat="39.251151739164264" lon="16.730284150404913"><ele>1103.0</ele><time>2026-03-28T11:23:50Z</time></trkpt><trkpt lat="39.25106306679285" lon="16.730379946643737"><ele>1104.0</ele><time>2026-03-28T11:23:52Z</time></trkpt><trkpt lat="39.25101109139455" lon="16.730437214369687"><ele>1105.0</ele><time>2026-03-28T11:23:53Z</time></trkpt><trkpt lat="39.25093761308879" lon="16.730510747706827"><ele>1105.0</ele><time>2026-03-28T11:23:54Z</time></trkpt><trkpt lat="39.250833649248456" lon="16.730612966868506"><ele>1105.0</ele><time>2026-03-28T11:23:55Z</time></trkpt><trkpt lat="39.25071939800814" lon="16.730734552084307"><ele>1105.0</ele><time>2026-03-28T11:23:56Z</time></trkpt><trkpt lat="39.25060430001223" lon="16.730851152820467"><ele>1105.0</ele><time>2026-03-28T11:23:57Z</time></trkpt><trkpt lat="39.25050474461597" lon="16.7309607440659"><ele>1104.4</ele><time>2026-03-28T11:23:58Z</time></trkpt><trkpt lat="39.250418913766005" lon="16.731064699319795"><ele>1103.8</ele><time>2026-03-28T11:23:59Z</time></trkpt><trkpt lat="39.25034707372557" lon="16.731166214154545"><ele>1103.2</ele><time>2026-03-28T11:24:00Z</time></trkpt><trkpt lat="39.25028270505741" lon="16.731262875044933"><ele>1102.6</ele><time>2026-03-28T11:24:01Z</time></trkpt><trkpt lat="39.2502167763904" lon="16.731350906198028"><ele>1102.0</ele><time>2026-03-28T11:24:02Z</time></trkpt><trkpt lat="39.250154140449325" lon="16.73143374437969"><ele>1102.0</ele><time>2026-03-28T11:24:03Z</time></trkpt><trkpt lat="39.250094454732434" lon="16.731530763731683"><ele>1102.0</ele><time>2026-03-28T11:24:04Z</time></trkpt><trkpt lat="39.25003148668691" lon="16.731643256420032"><ele>1102.0</ele><time>2026-03-28T11:24:05Z</time></trkpt><trkpt lat="39.249985278811224" lon="16.731743894226966"><ele>1102.0</ele><time>2026-03-28T11:24:06Z</time></trkpt><trkpt lat="39.24994879391021" lon="16.73184331858844"><ele>1102.0</ele><time>2026-03-28T11:24:07Z</time></trkpt><trkpt lat="39.24992198099911" lon="16.73195681270846"><ele>1102.2</ele><time>2026-03-28T11:24:08Z</time></trkpt><trkpt lat="39.249928767694314" lon="16.73210070484513"><ele>1102.4</ele><time>2026-03-28T11:24:09Z</time></trkpt><trkpt lat="39.249950876440984" lon="16.732250323391344"><ele>1102.6</ele><time>2026-03-28T11:24:10Z</time></trkpt><trkpt lat="39.24996647566009" lon="16.732363616923458"><ele>1102.8</ele><time>2026-03-28T11:24:11Z</time></trkpt><trkpt lat="39.249977595545715" lon="16.73245927653215"><ele>1103.0</ele><time>2026-03-28T11:24:12Z</time></trkpt><trkpt lat="39.25000893413525" lon="16.732578674308744"><ele>1103.0</ele><time>2026-03-28T11:24:14Z</time></trkpt><trkpt lat="39.25007911786231" lon="16.73266976312759"><ele>1103.0</ele><time>2026-03-28T11:24:16Z</time></trkpt><trkpt lat="39.2501309772422" lon="16.73276748046977"><ele>1103.0</ele><time>2026-03-28T11:24:18Z</time></trkpt><trkpt lat="39.25020518594726" lon="16.732857246889928"><ele>1103.0</ele><time>2026-03-28T11:24:20Z</time></trkpt><trkpt lat="39.250254134487854" lon="16.73292486875016"><ele>1103.0</ele><time>2026-03-28T11:24:21Z</time></trkpt><trkpt lat="39.25028230955426" lon="16.733032431161963"><ele>1103.6666666666667</ele><time>2026-03-28T11:24:22Z</time></trkpt><trkpt lat="39.250307033591" lon="16.733121186186306"><ele>1104.3333333333335</ele><time>2026-03-28T11:24:23Z</time></trkpt><trkpt lat="39.25037699270165" lon="16.733228294421387"><ele>1105.0</ele><time>2026-03-28T11:24:25Z</time></trkpt><trkpt lat="39.25039299906269" lon="16.733316658844977"><ele>1105.6666666666667</ele><time>2026-03-28T11:24:26Z</time></trkpt><trkpt lat="39.25038573153488" lon="16.733434510694888"><ele>1106.3333333333333</ele><time>2026-03-28T11:24:27Z</time></trkpt><trkpt lat="39.2503779187402" lon="16.733541301096402"><ele>1107.0</ele><time>2026-03-28T11:24:28Z</time></trkpt><trkpt lat="39.25035985596118" lon="16.733655772989504"><ele>1107.6</ele><time>2026-03-28T11:24:29Z</time></trkpt><trkpt lat="39.25033819119021" lon="16.733754710824098"><ele>1108.2</ele><time>2026-03-28T11:24:30Z</time></trkpt><trkpt lat="39.25029282414157" lon="16.733865437996748"><ele>1108.8</ele><time>2026-03-28T11:24:31Z</time></trkpt><trkpt lat="39.25025235200696" lon="16.733974593798532"><ele>1109.4</ele><time>2026-03-28T11:24:32Z</time></trkpt><trkpt lat="39.2502265545764" lon="16.73405648648686"><ele>1110.0</ele><time>2026-03-28T11:24:33Z</time></trkpt><trkpt lat="39.250161128443516" lon="16.734173711819718"><ele>1110.0</ele><time>2026-03-28T11:24:35Z</time></trkpt><trkpt lat="39.250142305733235" lon="16.734278744145744"><ele>1110.0</ele><time>2026-03-28T11:24:37Z</time></trkpt><trkpt lat="39.25004107787708" lon="16.734388204962524"><ele>1110.0</ele><time>2026-03-28T11:24:39Z</time></trkpt><trkpt lat="39.25003288752095" lon="16.734543445329304"><ele>1110.0</ele><time>2026-03-28T11:24:40Z</time></trkpt><trkpt lat="39.2500568356087" lon="16.734669029953753"><ele>1110.0</ele><time>2026-03-28T11:24:41Z</time></trkpt><trkpt lat="39.25008846058415" lon="16.734780517793613"><ele>1110.2</ele><time>2026-03-28T11:24:42Z</time></trkpt><trkpt lat="39.25013302998143" lon="16.734928265108085"><ele>1110.4</ele><time>2026-03-28T11:24:43Z</time></trkpt><trkpt lat="39.25019287230425" lon="16.735041136782602"><ele>1110.6</ele><time>2026-03-28T11:24:44Z</time></trkpt><trkpt lat="39.25024024281989" lon="16.735130729982654"><ele>1110.8</ele><time>2026-03-28T11:24:45Z</time></trkpt><trkpt lat="39.250295204602075" lon="16.73519609767086"><ele>1111.0</ele><time>2026-03-28T11:24:46Z</time></trkpt><trkpt lat="39.2503881756784" lon="16.735254705508286"><ele>1110.5</ele><time>2026-03-28T11:24:48Z</time></trkpt><trkpt lat="39.25047472832527" lon="16.735230727887505"><ele>1110.0</ele><time>2026-03-28T11:24:50Z</time></trkpt><trkpt lat="39.25055224909146" lon="16.73522459616349"><ele>1109.5</ele><time>2026-03-28T11:24:53Z</time></trkpt><trkpt lat="39.2506506955632" lon="16.735224967862585"><ele>1109.0</ele><time>2026-03-28T11:24:56Z</time></trkpt><trkpt lat="39.25076082128111" lon="16.735269195854826"><ele>1108.5</ele><time>2026-03-28T11:24:58Z</time></trkpt><trkpt lat="39.2508244890044" lon="16.73528062246055"><ele>1108.0</ele><time>2026-03-28T11:24:59Z</time></trkpt><trkpt lat="39.25088966716129" lon="16.73528412592716"><ele>1107.8</ele><time>2026-03-28T11:25:00Z</time></trkpt><trkpt lat="39.251008925022234" lon="16.735289128896305"><ele>1107.6</ele><time>2026-03-28T11:25:02Z</time></trkpt><trkpt lat="39.251103835031095" lon="16.735381753389884"><ele>1107.4</ele><time>2026-03-28T11:25:04Z</time></trkpt><trkpt lat="39.25112731328056" lon="16.735553744237816"><ele>1107.2</ele><time>2026-03-28T11:25:06Z</time></trkpt><trkpt lat="39.251142788837385" lon="16.735649587388018"><ele>1107.0</ele><time>2026-03-28T11:25:07Z</time></trkpt><trkpt lat="39.25114878189084" lon="16.73573655481345"><ele>1107.0</ele><time>2026-03-28T11:25:08Z</time></trkpt><trkpt lat="39.25115433093256" lon="16.735820883469817"><ele>1107.0</ele><time>2026-03-28T11:25:09Z</time></trkpt><trkpt lat="39.25119974210931" lon="16.73596085860587"><ele>1107.0</ele><time>2026-03-28T11:25:11Z</time></trkpt><trkpt lat="39.25128937199614" lon="16.736074378024767"><ele>1107.0</ele><time>2026-03-28T11:25:13Z</time></trkpt><trkpt lat="39.251335363951235" lon="16.73613455939857"><ele>1107.0</ele><time>2026-03-28T11:25:14Z</time></trkpt><trkpt lat="39.25138896087228" lon="16.73617867344792"><ele>1107.0</ele><time>2026-03-28T11:25:15Z</time></trkpt><trkpt lat="39.25148687241232" lon="16.736248594550716"><ele>1105.4</ele><time>2026-03-28T11:25:17Z</time></trkpt><trkpt lat="39.25156656433351" lon="16.73632893408137"><ele>1103.8000000000002</ele><time>2026-03-28T11:25:19Z</time></trkpt><trkpt lat="39.25164558795642" lon="16.73641429797058"><ele>1102.2</ele><time>2026-03-28T11:25:21Z</time></trkpt><trkpt lat="39.25168640517461" lon="16.736541662891263"><ele>1100.6000000000001</ele><time>2026-03-28T11:25:23Z</time></trkpt><trkpt lat="39.251704838867816" lon="16.736676790922814"><ele>1099.0</ele><time>2026-03-28T11:25:25Z</time></trkpt><trkpt lat="39.25173839417934" lon="16.73681860963409"><ele>1099.2</ele><time>2026-03-28T11:25:27Z</time></trkpt><trkpt lat="39.25181376138456" lon="16.736944290495774"><ele>1099.4</ele><time>2026-03-28T11:25:29Z</time></trkpt><trkpt lat="39.25184269188796" lon="16.737016802312805"><ele>1099.6</ele><time>2026-03-28T11:25:30Z</time></trkpt><trkpt lat="39.251856126958344" lon="16.737170082166536"><ele>1099.8</ele><time>2026-03-28T11:25:32Z</time></trkpt><trkpt lat="39.25184213821799" lon="16.737323255192983"><ele>1100.0</ele><time>2026-03-28T11:25:34Z</time></trkpt><trkpt lat="39.25178384124205" lon="16.73744226123219"><ele>1100.0</ele><time>2026-03-28T11:25:36Z</time></trkpt><trkpt lat="39.25173882876078" lon="16.73752689916078"><ele>1100.0</ele><time>2026-03-28T11:25:37Z</time></trkpt><trkpt lat="39.25167861602499" lon="16.737662018114158"><ele>1100.0</ele><time>2026-03-28T11:25:39Z</time></trkpt><trkpt lat="39.25161764418628" lon="16.737772879840815"><ele>1100.0</ele><time>2026-03-28T11:25:41Z</time></trkpt><trkpt lat="39.25156283749632" lon="16.73784388400272"><ele>1100.0</ele><time>2026-03-28T11:25:43Z</time></trkpt><trkpt lat="39.25150690746228" lon="16.737891829277366"><ele>1099.4</ele><time>2026-03-28T11:25:45Z</time></trkpt><trkpt lat="39.251430488727536" lon="16.73796471506208"><ele>1098.8</ele><time>2026-03-28T11:25:48Z</time></trkpt><trkpt lat="39.25134856687832" lon="16.738016242066333"><ele>1098.2</ele><time>2026-03-28T11:25:50Z</time></trkpt><trkpt lat="39.25126505563122" lon="16.73805013946721"><ele>1097.6</ele><time>2026-03-28T11:25:52Z</time></trkpt><trkpt lat="39.25116464873697" lon="16.738075787156525"><ele>1097.0</ele><time>2026-03-28T11:25:54Z</time></trkpt><trkpt lat="39.25107880557577" lon="16.73809203756242"><ele>1097.0</ele><time>2026-03-28T11:25:56Z</time></trkpt><trkpt lat="39.25099355042996" lon="16.738170375263444"><ele>1097.0</ele><time>2026-03-28T11:25:58Z</time></trkpt><trkpt lat="39.25093202538458" lon="16.738209141651183"><ele>1097.0</ele><time>2026-03-28T11:26:02Z</time></trkpt><trkpt lat="39.25091150190713" lon="16.738291611339154"><ele>1097.0</ele><time>2026-03-28T11:26:07Z</time></trkpt><trkpt lat="39.250959604285676" lon="16.738372655190165"><ele>1097.0</ele><time>2026-03-28T11:26:10Z</time></trkpt><trkpt lat="39.25103929749036" lon="16.738418472477832"><ele>1097.0</ele><time>2026-03-28T11:26:12Z</time></trkpt><trkpt lat="39.25112701772635" lon="16.73843759261766"><ele>1097.0</ele><time>2026-03-28T11:26:15Z</time></trkpt><trkpt lat="39.25121378858443" lon="16.738427240553893"><ele>1097.0</ele><time>2026-03-28T11:26:18Z</time></trkpt><trkpt lat="39.25127930979591" lon="16.7383655826771"><ele>1097.0</ele><time>2026-03-28T11:26:20Z</time></trkpt><trkpt lat="39.25134611682447" lon="16.73832795054616"><ele>1097.0</ele><time>2026-03-28T11:26:23Z</time></trkpt><trkpt lat="39.25140631637115" lon="16.73835603830833"><ele>1097.0</ele><time>2026-03-28T11:26:27Z</time></trkpt><trkpt lat="39.25146947259144" lon="16.738379677868508"><ele>1097.0</ele><time>2026-03-28T11:26:29Z</time></trkpt><trkpt lat="39.25157663192195" lon="16.73836778042245"><ele>1094.8</ele><time>2026-03-28T11:26:31Z</time></trkpt><trkpt lat="39.25168474213653" lon="16.73834761144846"><ele>1092.6</ele><time>2026-03-28T11:26:33Z</time></trkpt><trkpt lat="39.2517882477359" lon="16.7383446162936"><ele>1090.3999999999999</ele><time>2026-03-28T11:26:35Z</time></trkpt><trkpt lat="39.25187848509181" lon="16.738333115947142"><ele>1088.2</ele><time>2026-03-28T11:26:37Z</time></trkpt><trkpt lat="39.251974742078175" lon="16.73832516078988"><ele>1086.0</ele><time>2026-03-28T11:26:39Z</time></trkpt><trkpt lat="39.25207437121856" lon="16.738234182066176"><ele>1086.0</ele><time>2026-03-28T11:26:41Z</time></trkpt><trkpt lat="39.252114645920685" lon="16.738161726718356"><ele>1086.0</ele><time>2026-03-28T11:26:42Z</time></trkpt><trkpt lat="39.25216390731927" lon="16.738106658099177"><ele>1086.0</ele><time>2026-03-28T11:26:43Z</time></trkpt><trkpt lat="39.252211160888415" lon="16.738034582405213"><ele>1086.0</ele><time>2026-03-28T11:26:44Z</time></trkpt><trkpt lat="39.252233585966195" lon="16.73795342965361"><ele>1086.0</ele><time>2026-03-28T11:26:45Z</time></trkpt><trkpt lat="39.25232373332447" lon="16.737830293223436"><ele>1086.0</ele><time>2026-03-28T11:26:47Z</time></trkpt><trkpt lat="39.25239270613628" lon="16.737824882712165"><ele>1082.0</ele><time>2026-03-28T11:26:48Z</time></trkpt><trkpt lat="39.25249631047247" lon="16.737859457229614"><ele>1078.0</ele><time>2026-03-28T11:26:50Z</time></trkpt><trkpt lat="39.25259780961908" lon="16.737974885774904"><ele>1074.0</ele><time>2026-03-28T11:26:52Z</time></trkpt><trkpt lat="39.25269757375736" lon="16.738059763035775"><ele>1070.0</ele><time>2026-03-28T11:26:54Z</time></trkpt><trkpt lat="39.252805780710226" lon="16.738131336741787"><ele>1070.0</ele><time>2026-03-28T11:26:56Z</time></trkpt><trkpt lat="39.25288706621664" lon="16.738196046947305"><ele>1070.0</ele><time>2026-03-28T11:26:58Z</time></trkpt><trkpt lat="39.25297762834512" lon="16.738279885954274"><ele>1070.0</ele><time>2026-03-28T11:27:00Z</time></trkpt><trkpt lat="39.25300602283962" lon="16.73835903928201"><ele>1070.0</ele><time>2026-03-28T11:27:02Z</time></trkpt><trkpt lat="39.25292056092353" lon="16.738462106941974"><ele>1070.0</ele><time>2026-03-28T11:27:04Z</time></trkpt><trkpt lat="39.252915027857966" lon="16.738559547319166"><ele>1068.0</ele><time>2026-03-28T11:27:06Z</time></trkpt><trkpt lat="39.252927337441115" lon="16.738649504011143"><ele>1066.0</ele><time>2026-03-28T11:27:08Z</time></trkpt><trkpt lat="39.252950987982345" lon="16.738762118301747"><ele>1064.0</ele><time>2026-03-28T11:27:10Z</time></trkpt><trkpt lat="39.253022580455635" lon="16.73877732586855"><ele>1062.0</ele><time>2026-03-28T11:27:13Z</time></trkpt><trkpt lat="39.25309234386419" lon="16.738682888757577"><ele>1060.0</ele><time>2026-03-28T11:27:15Z</time></trkpt><trkpt lat="39.253145541189674" lon="16.7386358288658"><ele>1058.0</ele><time>2026-03-28T11:27:16Z</time></trkpt><trkpt lat="39.25320546630523" lon="16.738591822657497"><ele>1058.1666666666667</ele><time>2026-03-28T11:27:17Z</time></trkpt><trkpt lat="39.253274360754865" lon="16.738555304060373"><ele>1058.3333333333335</ele><time>2026-03-28T11:27:18Z</time></trkpt><trkpt lat="39.25333629073168" lon="16.738526050665904"><ele>1058.5</ele><time>2026-03-28T11:27:19Z</time></trkpt><trkpt lat="39.253422947348" lon="16.73846750403189"><ele>1058.6666666666667</ele><time>2026-03-28T11:27:21Z</time></trkpt><trkpt lat="39.25350534114093" lon="16.73840141729647"><ele>1058.8333333333333</ele><time>2026-03-28T11:27:23Z</time></trkpt><trkpt lat="39.25356880273325" lon="16.738303323249607"><ele>1059.0</ele><time>2026-03-28T11:27:25Z</time></trkpt><trkpt lat="39.253664533002535" lon="16.73826133669208"><ele>1059.0</ele><time>2026-03-28T11:27:27Z</time></trkpt><trkpt lat="39.253788742023765" lon="16.73838638314101"><ele>1059.0</ele><time>2026-03-28T11:27:29Z</time></trkpt><trkpt lat="39.25385978804321" lon="16.738482634809134"><ele>1059.0</ele><time>2026-03-28T11:27:30Z</time></trkpt><trkpt lat="39.25393224521386" lon="16.7385396441719"><ele>1059.0</ele><time>2026-03-28T11:27:31Z</time></trkpt><trkpt lat="39.253992591558955" lon="16.73859475534449"><ele>1059.0</ele><time>2026-03-28T11:27:32Z</time></trkpt><trkpt lat="39.25406075570974" lon="16.73864110775894"><ele>1058.0</ele><time>2026-03-28T11:27:33Z</time></trkpt><trkpt lat="39.25413171645137" lon="16.73866288653898"><ele>1057.0</ele><time>2026-03-28T11:27:34Z</time></trkpt><trkpt lat="39.25419592626758" lon="16.738653025062757"><ele>1056.0</ele><time>2026-03-28T11:27:35Z</time></trkpt><trkpt lat="39.25428610590619" lon="16.738596063100225"><ele>1055.0</ele><time>2026-03-28T11:27:36Z</time></trkpt><trkpt lat="39.25436954248748" lon="16.738498116402816"><ele>1054.0</ele><time>2026-03-28T11:27:37Z</time></trkpt><trkpt lat="39.254420156861066" lon="16.738396731734017"><ele>1053.0</ele><time>2026-03-28T11:27:38Z</time></trkpt><trkpt lat="39.25444691682148" lon="16.73831297780575"><ele>1053.0</ele><time>2026-03-28T11:27:39Z</time></trkpt><trkpt lat="39.25449017255373" lon="16.73824986928065"><ele>1053.0</ele><time>2026-03-28T11:27:40Z</time></trkpt><trkpt lat="39.25454866406563" lon="16.738147397961196"><ele>1053.0</ele><time>2026-03-28T11:27:42Z</time></trkpt><trkpt lat="39.25461685618859" lon="16.738009051821948"><ele>1053.0</ele><time>2026-03-28T11:27:44Z</time></trkpt><trkpt lat="39.25465791505368" lon="16.73793784844705"><ele>1053.0</ele><time>2026-03-28T11:27:45Z</time></trkpt><trkpt lat="39.25476411911603" lon="16.737947569049464"><ele>1051.4285714285713</ele><time>2026-03-28T11:27:47Z</time></trkpt><trkpt lat="39.2548138836448" lon="16.738027670190686"><ele>1049.857142857143</ele><time>2026-03-28T11:27:49Z</time></trkpt><trkpt lat="39.254848599977095" lon="16.73811135094526"><ele>1048.2857142857142</ele><time>2026-03-28T11:27:54Z</time></trkpt><trkpt lat="39.25489126702906" lon="16.738186032143854"><ele>1046.7142857142858</ele><time>2026-03-28T11:28:18Z</time></trkpt><trkpt lat="39.25493111907798" lon="16.738253472964406"><ele>1045.142857142857</ele><time>2026-03-28T11:28:22Z</time></trkpt><trkpt lat="39.254965429763004" lon="16.73832649007129"><ele>1043.5714285714284</ele><time>2026-03-28T11:28:27Z</time></trkpt><trkpt lat="39.25502835236085" lon="16.73830607587284"><ele>1042.0</ele><time>2026-03-28T11:30:06Z</time></trkpt><trkpt lat="39.25509496495381" lon="16.73826172967089"><ele>1042.0</ele><time>2026-03-28T11:30:14Z</time></trkpt><trkpt lat="39.25515005569292" lon="16.738192443774658"><ele>1042.0</ele><time>2026-03-28T11:30:18Z</time></trkpt><trkpt lat="39.255213248797325" lon="16.738160552480114"><ele>1042.0</ele><time>2026-03-28T11:30:24Z</time></trkpt><trkpt lat="39.25527844678578" lon="16.73821268857778"><ele>1042.0</ele><time>2026-03-28T11:30:31Z</time></trkpt><trkpt lat="39.25533606349697" lon="16.738267575294813"><ele>1042.0</ele><time>2026-03-28T11:30:39Z</time></trkpt><trkpt lat="39.25540414320073" lon="16.738366160963256"><ele>1042.0</ele><time>2026-03-28T11:30:50Z</time></trkpt><trkpt lat="39.2554484575096" lon="16.738458154534285"><ele>1040.0</ele><time>2026-03-28T11:30:52Z</time></trkpt><trkpt lat="39.25541196838376" lon="16.7385809030559"><ele>1038.0</ele><time>2026-03-28T11:30:54Z</time></trkpt><trkpt lat="39.25534404289291" lon="16.73870601688099"><ele>1036.0</ele><time>2026-03-28T11:30:55Z</time></trkpt><trkpt lat="39.25529689220809" lon="16.73879379649313"><ele>1034.0</ele><time>2026-03-28T11:30:56Z</time></trkpt><trkpt lat="39.25525499796399" lon="16.738877210555504"><ele>1032.0</ele><time>2026-03-28T11:30:57Z</time></trkpt><trkpt lat="39.25522532364377" lon="16.73895297533394"><ele>1030.0</ele><time>2026-03-28T11:30:58Z</time></trkpt><trkpt lat="39.25519752531623" lon="16.73902832575439"><ele>1030.0</ele><time>2026-03-28T11:30:59Z</time></trkpt><trkpt lat="39.255150785964915" lon="16.73913925877262"><ele>1030.0</ele><time>2026-03-28T11:31:01Z</time></trkpt><trkpt lat="39.255078682728524" lon="16.739275289436574"><ele>1030.0</ele><time>2026-03-28T11:31:03Z</time></trkpt><trkpt lat="39.255037419785005" lon="16.7393473004136"><ele>1030.0</ele><time>2026-03-28T11:31:04Z</time></trkpt><trkpt lat="39.25499527448152" lon="16.739421358285547"><ele>1030.0</ele><time>2026-03-28T11:31:05Z</time></trkpt><trkpt lat="39.254952623308306" lon="16.7394954508666"><ele>1030.0</ele><time>2026-03-28T11:31:06Z</time></trkpt><trkpt lat="39.25491485777061" lon="16.739566998264507"><ele>1028.4</ele><time>2026-03-28T11:31:07Z</time></trkpt><trkpt lat="39.25486741744702" lon="16.739697406887373"><ele>1026.8</ele><time>2026-03-28T11:31:09Z</time></trkpt><trkpt lat="39.25485842037193" lon="16.739841050057198"><ele>1025.2</ele><time>2026-03-28T11:31:11Z</time></trkpt><trkpt lat="39.25484708953024" lon="16.739930067609652"><ele>1023.6</ele><time>2026-03-28T11:31:12Z</time></trkpt><trkpt lat="39.25477881760177" lon="16.74003137766639"><ele>1022.0</ele><time>2026-03-28T11:31:14Z</time></trkpt><trkpt lat="39.25466835377591" lon="16.740024237111662"><ele>1022.0000000000001</ele><time>2026-03-28T11:31:16Z</time></trkpt><trkpt lat="39.254555781671606" lon="16.7400287512201"><ele>1022.0</ele><time>2026-03-28T11:31:18Z</time></trkpt><trkpt lat="39.25449317442724" lon="16.740047348598967"><ele>1022.0</ele><time>2026-03-28T11:31:19Z</time></trkpt><trkpt lat="39.254374646723804" lon="16.740064409974913"><ele>1022.0</ele><time>2026-03-28T11:31:21Z</time></trkpt><trkpt lat="39.25430994876965" lon="16.740063691575994"><ele>1022.0000000000001</ele><time>2026-03-28T11:31:22Z</time></trkpt><trkpt lat="39.25424705564125" lon="16.740056646584435"><ele>1022.0</ele><time>2026-03-28T11:31:23Z</time></trkpt><trkpt lat="39.25415480951576" lon="16.740123415097116"><ele>1017.75</ele><time>2026-03-28T11:31:25Z</time></trkpt><trkpt lat="39.254188566547064" lon="16.74029969694236"><ele>1013.5</ele><time>2026-03-28T11:31:27Z</time></trkpt><trkpt lat="39.254211257046464" lon="16.740404986743407"><ele>1009.25</ele><time>2026-03-28T11:31:28Z</time></trkpt><trkpt lat="39.25423180727645" lon="16.740551184655384"><ele>1005.0</ele><time>2026-03-28T11:31:30Z</time></trkpt><trkpt lat="39.25422557639904" lon="16.740701728432292"><ele>1005.0</ele><time>2026-03-28T11:31:32Z</time></trkpt><trkpt lat="39.254192277412486" lon="16.74077890986843"><ele>1005.0</ele><time>2026-03-28T11:31:33Z</time></trkpt><trkpt lat="39.25414645422274" lon="16.740850967418435"><ele>1005.0</ele><time>2026-03-28T11:31:34Z</time></trkpt><trkpt lat="39.25407859378928" lon="16.74089532771817"><ele>1005.0</ele><time>2026-03-28T11:31:35Z</time></trkpt><trkpt lat="39.25401131379663" lon="16.740945244504893"><ele>1005.0</ele><time>2026-03-28T11:31:36Z</time></trkpt><trkpt lat="39.25394373463859" lon="16.740999119065894"><ele>1005.0</ele><time>2026-03-28T11:31:37Z</time></trkpt><trkpt lat="39.25387619221902" lon="16.741061433399754"><ele>1006.5</ele><time>2026-03-28T11:31:38Z</time></trkpt><trkpt lat="39.25380261549247" lon="16.741124115844126"><ele>1008.0</ele><time>2026-03-28T11:31:39Z</time></trkpt><trkpt lat="39.2537387136529" lon="16.7411739737311"><ele>1009.5</ele><time>2026-03-28T11:31:40Z</time></trkpt><trkpt lat="39.253670419544754" lon="16.741201901513534"><ele>1011.0</ele><time>2026-03-28T11:31:41Z</time></trkpt><trkpt lat="39.25359893970602" lon="16.74120758110627"><ele>1012.5</ele><time>2026-03-28T11:31:42Z</time></trkpt><trkpt lat="39.25352565490327" lon="16.74120773708849"><ele>1014.0</ele><time>2026-03-28T11:31:43Z</time></trkpt><trkpt lat="39.25345113326739" lon="16.741217922091582"><ele>1014.0</ele><time>2026-03-28T11:31:44Z</time></trkpt><trkpt lat="39.25338060395201" lon="16.741257807569866"><ele>1014.0</ele><time>2026-03-28T11:31:45Z</time></trkpt><trkpt lat="39.25331887897418" lon="16.74129819073114"><ele>1014.0</ele><time>2026-03-28T11:31:46Z</time></trkpt><trkpt lat="39.25322363968453" lon="16.741346242536277"><ele>1014.0</ele><time>2026-03-28T11:31:48Z</time></trkpt><trkpt lat="39.253227291373626" lon="16.74144064817769"><ele>1014.0</ele><time>2026-03-28T11:31:50Z</time></trkpt><trkpt lat="39.25331339231451" lon="16.74148645418747"><ele>1014.0</ele><time>2026-03-28T11:31:52Z</time></trkpt><trkpt lat="39.25338493735151" lon="16.741539896966977"><ele>1014.0</ele><time>2026-03-28T11:31:54Z</time></trkpt><trkpt lat="39.253450472187765" lon="16.741662921766682"><ele>1014.0000000000001</ele><time>2026-03-28T11:31:56Z</time></trkpt><trkpt lat="39.25349743687292" lon="16.741721973686797"><ele>1014.0000000000001</ele><time>2026-03-28T11:31:57Z</time></trkpt><trkpt lat="39.25356287218504" lon="16.741762321319374"><ele>1014.0</ele><time>2026-03-28T11:31:58Z</time></trkpt><trkpt lat="39.25365650975187" lon="16.741792799057475"><ele>1014.0</ele><time>2026-03-28T11:31:59Z</time></trkpt><trkpt lat="39.25376228653034" lon="16.741851426057625"><ele>1013.8000000000001</ele><time>2026-03-28T11:32:00Z</time></trkpt><trkpt lat="39.25385218604605" lon="16.741905941839953"><ele>1013.6000000000001</ele><time>2026-03-28T11:32:01Z</time></trkpt><trkpt lat="39.25393849809467" lon="16.741981716327434"><ele>1013.4</ele><time>2026-03-28T11:32:02Z</time></trkpt><trkpt lat="39.25400674065764" lon="16.742073447793125"><ele>1013.2</ele><time>2026-03-28T11:32:03Z</time></trkpt><trkpt lat="39.25408386043017" lon="16.74217217735851"><ele>1013.0</ele><time>2026-03-28T11:32:04Z</time></trkpt><trkpt lat="39.25414815745398" lon="16.742253429247402"><ele>1009.8571428571429</ele><time>2026-03-28T11:32:05Z</time></trkpt><trkpt lat="39.25420239836849" lon="16.742327813556223"><ele>1006.7142857142858</ele><time>2026-03-28T11:32:06Z</time></trkpt><trkpt lat="39.254232941206055" lon="16.742408854945417"><ele>1003.5714285714287</ele><time>2026-03-28T11:32:07Z</time></trkpt><trkpt lat="39.25425542240679" lon="16.74250165906377"><ele>1000.4285714285716</ele><time>2026-03-28T11:32:08Z</time></trkpt><trkpt lat="39.25425547957994" lon="16.742599276026198"><ele>997.2857142857143</ele><time>2026-03-28T11:32:09Z</time></trkpt><trkpt lat="39.25424315573131" lon="16.742690658090677"><ele>994.1428571428573</ele><time>2026-03-28T11:32:10Z</time></trkpt><trkpt lat="39.25421363972246" lon="16.742776244494323"><ele>991.0000000000001</ele><time>2026-03-28T11:32:11Z</time></trkpt><trkpt lat="39.25418062986658" lon="16.742850674312432"><ele>989.9999999999999</ele><time>2026-03-28T11:32:12Z</time></trkpt><trkpt lat="39.2541414330592" lon="16.742925104505268"><ele>989.0</ele><time>2026-03-28T11:32:13Z</time></trkpt><trkpt lat="39.2541041564995" lon="16.74300478702444"><ele>988.0</ele><time>2026-03-28T11:32:14Z</time></trkpt><trkpt lat="39.2540759073911" lon="16.743096112932367"><ele>987.0</ele><time>2026-03-28T11:32:15Z</time></trkpt><trkpt lat="39.2540340134605" lon="16.743170440399567"><ele>985.9999999999999</ele><time>2026-03-28T11:32:16Z</time></trkpt><trkpt lat="39.253990254615175" lon="16.74325074591563"><ele>985.0</ele><time>2026-03-28T11:32:17Z</time></trkpt><trkpt lat="39.25396361930705" lon="16.743383882983643"><ele>984.1428571428572</ele><time>2026-03-28T11:32:19Z</time></trkpt><trkpt lat="39.2539433300491" lon="16.74346860864624"><ele>983.2857142857144</ele><time>2026-03-28T11:32:21Z</time></trkpt><trkpt lat="39.253966886856055" lon="16.743548506054136"><ele>982.4285714285714</ele><time>2026-03-28T11:32:34Z</time></trkpt><trkpt lat="39.254021074610634" lon="16.74359088760676"><ele>981.5714285714287</ele><time>2026-03-28T11:32:38Z</time></trkpt><trkpt lat="39.254088106603476" lon="16.74360890319772"><ele>980.7142857142858</ele><time>2026-03-28T11:32:43Z</time></trkpt><trkpt lat="39.25415819319315" lon="16.743602828308138"><ele>979.8571428571429</ele><time>2026-03-28T11:32:49Z</time></trkpt><trkpt lat="39.25421854676478" lon="16.743630965626696"><ele>979.0</ele><time>2026-03-28T11:32:58Z</time></trkpt><trkpt lat="39.25422006209017" lon="16.74374602462321"><ele>978.9999999999999</ele><time>2026-03-28T11:33:02Z</time></trkpt><trkpt lat="39.25418844404546" lon="16.74382948910675"><ele>979.0</ele><time>2026-03-28T11:33:04Z</time></trkpt><trkpt lat="39.25418882974445" lon="16.743935237692305"><ele>979.0</ele><time>2026-03-28T11:33:07Z</time></trkpt><trkpt lat="39.25417444483799" lon="16.744014543965392"><ele>979.0</ele><time>2026-03-28T11:33:10Z</time></trkpt><trkpt lat="39.25416554314247" lon="16.744105210586724"><ele>978.9999999999999</ele><time>2026-03-28T11:33:12Z</time></trkpt><trkpt lat="39.25422030330191" lon="16.744234299771854"><ele>979.0</ele><time>2026-03-28T11:33:14Z</time></trkpt><trkpt lat="39.25421775914938" lon="16.744338054940318"><ele>978.1428571428571</ele><time>2026-03-28T11:33:16Z</time></trkpt><trkpt lat="39.254255280719356" lon="16.744405514856346"><ele>977.2857142857143</ele><time>2026-03-28T11:33:19Z</time></trkpt><trkpt lat="39.25432039566773" lon="16.744405302810435"><ele>976.4285714285714</ele><time>2026-03-28T11:33:22Z</time></trkpt><trkpt lat="39.254347199052916" lon="16.74449273396796"><ele>975.5714285714286</ele><time>2026-03-28T11:33:24Z</time></trkpt><trkpt lat="39.25438277773806" lon="16.74458203271609"><ele>974.7142857142858</ele><time>2026-03-28T11:33:27Z</time></trkpt><trkpt lat="39.254431016800034" lon="16.74466335824622"><ele>973.8571428571429</ele><time>2026-03-28T11:33:31Z</time></trkpt><trkpt lat="39.25449284065332" lon="16.744680213542775"><ele>973.0</ele><time>2026-03-28T11:33:37Z</time></trkpt><trkpt lat="39.25446334949706" lon="16.744775415863785"><ele>972.9999999999999</ele><time>2026-03-28T11:33:41Z</time></trkpt><trkpt lat="39.254483857081034" lon="16.744887892901296"><ele>973.0</ele><time>2026-03-28T11:33:43Z</time></trkpt><trkpt lat="39.254509270191505" lon="16.7449844988907"><ele>973.0</ele><time>2026-03-28T11:33:45Z</time></trkpt><trkpt lat="39.25454905240725" lon="16.745105658666596"><ele>973.0</ele><time>2026-03-28T11:33:47Z</time></trkpt><trkpt lat="39.254586664704256" lon="16.745171232427627"><ele>972.9999999999999</ele><time>2026-03-28T11:33:48Z</time></trkpt><trkpt lat="39.2546571197011" lon="16.745248417163012"><ele>973.0</ele><time>2026-03-28T11:33:49Z</time></trkpt><trkpt lat="39.254737384948704" lon="16.74531772207354"><ele>973.8333333333333</ele><time>2026-03-28T11:33:50Z</time></trkpt><trkpt lat="39.25481636883725" lon="16.745387675676316"><ele>974.6666666666666</ele><time>2026-03-28T11:33:51Z</time></trkpt><trkpt lat="39.254897427273036" lon="16.745456988421655"><ele>975.5</ele><time>2026-03-28T11:33:52Z</time></trkpt><trkpt lat="39.25497601610958" lon="16.74552976193204"><ele>976.3333333333333</ele><time>2026-03-28T11:33:53Z</time></trkpt><trkpt lat="39.25504622045582" lon="16.745589111914946"><ele>977.1666666666666</ele><time>2026-03-28T11:33:54Z</time></trkpt><trkpt lat="39.255103652216626" lon="16.74563312559865"><ele>978.0</ele><time>2026-03-28T11:33:55Z</time></trkpt><trkpt lat="39.255165190636056" lon="16.74574059447418"><ele>978.0</ele><time>2026-03-28T11:33:57Z</time></trkpt><trkpt lat="39.25514201196493" lon="16.74588833949904"><ele>978.0</ele><time>2026-03-28T11:33:59Z</time></trkpt><trkpt lat="39.255124630124186" lon="16.746041500194174"><ele>978.0</ele><time>2026-03-28T11:34:01Z</time></trkpt><trkpt lat="39.255110798840285" lon="16.74612778911638"><ele>978.0</ele><time>2026-03-28T11:34:02Z</time></trkpt><trkpt lat="39.25509918642029" lon="16.746220158254534"><ele>978.0</ele><time>2026-03-28T11:34:03Z</time></trkpt><trkpt lat="39.25509139873769" lon="16.74631101155499"><ele>978.0</ele><time>2026-03-28T11:34:04Z</time></trkpt><trkpt lat="39.255083091539184" lon="16.746443781088182"><ele>977.8571428571429</ele><time>2026-03-28T11:34:06Z</time></trkpt><trkpt lat="39.25507249385087" lon="16.74652886128247"><ele>977.7142857142858</ele><time>2026-03-28T11:34:08Z</time></trkpt><trkpt lat="39.25505257343735" lon="16.74661352719912"><ele>977.5714285714287</ele><time>2026-03-28T11:34:11Z</time></trkpt><trkpt lat="39.255035579994036" lon="16.746704206436554"><ele>977.4285714285716</ele><time>2026-03-28T11:34:19Z</time></trkpt><trkpt lat="39.25502794424965" lon="16.746817009877223"><ele>977.2857142857143</ele><time>2026-03-28T11:34:22Z</time></trkpt><trkpt lat="39.255030304330994" lon="16.746908483980892"><ele>977.1428571428573</ele><time>2026-03-28T11:34:35Z</time></trkpt><trkpt lat="39.255026341565724" lon="16.74700630454435"><ele>977.0000000000001</ele><time>2026-03-28T11:34:39Z</time></trkpt><trkpt lat="39.255009326515314" lon="16.74711367408744"><ele>977.0</ele><time>2026-03-28T11:34:43Z</time></trkpt><trkpt lat="39.25498759601746" lon="16.74720268689342"><ele>977.0</ele><time>2026-03-28T11:34:45Z</time></trkpt><trkpt lat="39.25495381720859" lon="16.747325204761093"><ele>977.0</ele><time>2026-03-28T11:34:47Z</time></trkpt><trkpt lat="39.25496391302099" lon="16.747500962698034"><ele>977.0</ele><time>2026-03-28T11:34:49Z</time></trkpt><trkpt lat="39.25498644470039" lon="16.747636999930155"><ele>977.0</ele><time>2026-03-28T11:34:50Z</time></trkpt><trkpt lat="39.255002902007774" lon="16.747783678734443"><ele>977.25</ele><time>2026-03-28T11:34:51Z</time></trkpt><trkpt lat="39.255018503075604" lon="16.74793971422024"><ele>977.5</ele><time>2026-03-28T11:34:52Z</time></trkpt><trkpt lat="39.25504163887584" lon="16.74810744415084"><ele>977.75</ele><time>2026-03-28T11:34:53Z</time></trkpt><trkpt lat="39.25505012888821" lon="16.748272969375247"><ele>978.0</ele><time>2026-03-28T11:34:54Z</time></trkpt><trkpt lat="39.25504930043206" lon="16.74838264357778"><ele>978.0</ele><time>2026-03-28T11:34:55Z</time></trkpt><trkpt lat="39.25506518381784" lon="16.748481805717386"><ele>978.0</ele><time>2026-03-28T11:34:56Z</time></trkpt><trkpt lat="39.25507695572781" lon="16.74856404132783"><ele>978.0</ele><time>2026-03-28T11:34:57Z</time></trkpt><trkpt lat="39.25508590678" lon="16.748696153037645"><ele>978.0</ele><time>2026-03-28T11:34:59Z</time></trkpt><trkpt lat="39.255115011785556" lon="16.74885932154102"><ele>978.0</ele><time>2026-03-28T11:35:01Z</time></trkpt><trkpt lat="39.255137612946335" lon="16.748984052813654"><ele>978.0</ele><time>2026-03-28T11:35:03Z</time></trkpt><trkpt lat="39.25515844212725" lon="16.749129774515925"><ele>978.0</ele><time>2026-03-28T11:35:05Z</time></trkpt><trkpt lat="39.25519804252096" lon="16.749204776662264"><ele>978.0</ele><time>2026-03-28T11:35:06Z</time></trkpt><trkpt lat="39.25524363791082" lon="16.74926889793757"><ele>978.0</ele><time>2026-03-28T11:35:07Z</time></trkpt><trkpt lat="39.25528282427143" lon="16.74933815955122"><ele>978.0</ele><time>2026-03-28T11:35:08Z</time></trkpt><trkpt lat="39.25533101941839" lon="16.749403302029553"><ele>978.0</ele><time>2026-03-28T11:35:09Z</time></trkpt><trkpt lat="39.255389084674356" lon="16.749467413256305"><ele>978.5999999999999</ele><time>2026-03-28T11:35:10Z</time></trkpt><trkpt lat="39.25544797489379" lon="16.749533040724653"><ele>979.1999999999999</ele><time>2026-03-28T11:35:11Z</time></trkpt><trkpt lat="39.25548007486456" lon="16.74961661136264"><ele>979.8</ele><time>2026-03-28T11:35:12Z</time></trkpt><trkpt lat="39.25556698211838" lon="16.74973222494787"><ele>980.4</ele><time>2026-03-28T11:35:14Z</time></trkpt><trkpt lat="39.25561519142527" lon="16.749869872916218"><ele>981.0</ele><time>2026-03-28T11:35:16Z</time></trkpt><trkpt lat="39.25562420729927" lon="16.749997047561575"><ele>981.0</ele><time>2026-03-28T11:35:18Z</time></trkpt><trkpt lat="39.25560335794085" lon="16.750079999706017"><ele>981.0</ele><time>2026-03-28T11:35:19Z</time></trkpt><trkpt lat="39.25558904806547" lon="16.750159730708113"><ele>981.0</ele><time>2026-03-28T11:35:20Z</time></trkpt><trkpt lat="39.25558838898365" lon="16.75032325013162"><ele>981.0</ele><time>2026-03-28T11:35:22Z</time></trkpt><trkpt lat="39.255601980713294" lon="16.750410236108873"><ele>981.0</ele><time>2026-03-28T11:35:23Z</time></trkpt><trkpt lat="39.255594209406944" lon="16.750500764543457"><ele>981.0</ele><time>2026-03-28T11:35:24Z</time></trkpt><trkpt lat="39.2555787537433" lon="16.750590779042415"><ele>980.8333333333334</ele><time>2026-03-28T11:35:25Z</time></trkpt><trkpt lat="39.25557420949813" lon="16.750686867547042"><ele>980.6666666666667</ele><time>2026-03-28T11:35:26Z</time></trkpt><trkpt lat="39.25556996673287" lon="16.75077968096791"><ele>980.5</ele><time>2026-03-28T11:35:27Z</time></trkpt><trkpt lat="39.25558790835165" lon="16.75086430328032"><ele>980.3333333333334</ele><time>2026-03-28T11:35:28Z</time></trkpt><trkpt lat="39.2556379318429" lon="16.75099343607872"><ele>980.1666666666667</ele><time>2026-03-28T11:35:30Z</time></trkpt><trkpt lat="39.255667636348335" lon="16.751144424819575"><ele>980.0</ele><time>2026-03-28T11:35:32Z</time></trkpt><trkpt lat="39.25566614857617" lon="16.751294703081964"><ele>979.3333333333334</ele><time>2026-03-28T11:35:34Z</time></trkpt><trkpt lat="39.25565408403867" lon="16.751414995257367"><ele>978.6666666666667</ele><time>2026-03-28T11:35:37Z</time></trkpt><trkpt lat="39.25560870209219" lon="16.75148427587811"><ele>978.0</ele><time>2026-03-28T11:35:39Z</time></trkpt><trkpt lat="39.25553168429314" lon="16.751545766881534"><ele>977.3333333333333</ele><time>2026-03-28T11:35:41Z</time></trkpt><trkpt lat="39.255456216876055" lon="16.7515743345511"><ele>976.6666666666666</ele><time>2026-03-28T11:35:49Z</time></trkpt><trkpt lat="39.25539998005625" lon="16.751622518283604"><ele>976.0</ele><time>2026-03-28T11:35:54Z</time></trkpt><trkpt lat="39.25534024758183" lon="16.751674488197406"><ele>975.9999999999999</ele><time>2026-03-28T11:36:00Z</time></trkpt><trkpt lat="39.25530029354383" lon="16.751744532556042"><ele>976.0</ele><time>2026-03-28T11:36:06Z</time></trkpt><trkpt lat="39.255232481465164" lon="16.75177474565406"><ele>975.9999999999999</ele><time>2026-03-28T11:36:11Z</time></trkpt><trkpt lat="39.25516538813216" lon="16.7518065621807"><ele>975.9999999999999</ele><time>2026-03-28T11:36:15Z</time></trkpt><trkpt lat="39.25510745323029" lon="16.75185079009196"><ele>976.0</ele><time>2026-03-28T11:36:18Z</time></trkpt><trkpt lat="39.25504635797495" lon="16.751888526525434"><ele>975.9999999999999</ele><time>2026-03-28T11:36:21Z</time></trkpt><trkpt lat="39.25497644001925" lon="16.751905834212877"><ele>975.9999999999999</ele><time>2026-03-28T11:36:24Z</time></trkpt><trkpt lat="39.254912290243055" lon="16.751945873625008"><ele>974.8571428571427</ele><time>2026-03-28T11:36:29Z</time></trkpt><trkpt lat="39.25486512180879" lon="16.751999843476202"><ele>973.7142857142857</ele><time>2026-03-28T11:36:35Z</time></trkpt><trkpt lat="39.254832229755095" lon="16.752076695852328"><ele>972.5714285714284</ele><time>2026-03-28T11:36:41Z</time></trkpt><trkpt lat="39.25484467935215" lon="16.75215962728206"><ele>971.4285714285713</ele><time>2026-03-28T11:36:44Z</time></trkpt><trkpt lat="39.254841804280936" lon="16.75225060343629"><ele>970.2857142857142</ele><time>2026-03-28T11:36:47Z</time></trkpt><trkpt lat="39.25478822038546" lon="16.75234055940089"><ele>969.1428571428571</ele><time>2026-03-28T11:36:50Z</time></trkpt><trkpt lat="39.254740276411695" lon="16.75242917793096"><ele>968.0</ele><time>2026-03-28T11:36:53Z</time></trkpt><trkpt lat="39.2547078230068" lon="16.752532797338866"><ele>964.8333333333334</ele><time>2026-03-28T11:36:56Z</time></trkpt><trkpt lat="39.25466663872337" lon="16.752622105742205"><ele>961.6666666666667</ele><time>2026-03-28T11:36:59Z</time></trkpt><trkpt lat="39.25460775772255" lon="16.75268793749057"><ele>958.5</ele><time>2026-03-28T11:37:02Z</time></trkpt><trkpt lat="39.254540615414626" lon="16.75273060452171"><ele>955.3333333333333</ele><time>2026-03-28T11:37:05Z</time></trkpt><trkpt lat="39.25445780213982" lon="16.752727991362473"><ele>952.1666666666666</ele><time>2026-03-28T11:37:08Z</time></trkpt><trkpt lat="39.25438014510667" lon="16.752725771325064"><ele>949.0</ele><time>2026-03-28T11:37:11Z</time></trkpt><trkpt lat="39.25437442010357" lon="16.75284242465233"><ele>947.4000000000001</ele><time>2026-03-28T11:37:14Z</time></trkpt><trkpt lat="39.25444164145249" lon="16.752964454504475"><ele>945.8000000000001</ele><time>2026-03-28T11:37:16Z</time></trkpt><trkpt lat="39.254471793711126" lon="16.753039833785184"><ele>944.1999999999999</ele><time>2026-03-28T11:37:17Z</time></trkpt><trkpt lat="39.2545032001904" lon="16.753145760975396"><ele>942.5999999999999</ele><time>2026-03-28T11:37:19Z</time></trkpt><trkpt lat="39.254433712132126" lon="16.753217632152797"><ele>941.0</ele><time>2026-03-28T11:37:22Z</time></trkpt><trkpt lat="39.254340440678824" lon="16.753168736443055"><ele>941.0000000000001</ele><time>2026-03-28T11:37:24Z</time></trkpt><trkpt lat="39.254247364968556" lon="16.753088701193576"><ele>941.0</ele><time>2026-03-28T11:37:26Z</time></trkpt><trkpt lat="39.254168765065465" lon="16.753016619783413"><ele>941.0</ele><time>2026-03-28T11:37:28Z</time></trkpt><trkpt lat="39.25409518301808" lon="16.752954411343314"><ele>941.0</ele><time>2026-03-28T11:37:30Z</time></trkpt><trkpt lat="39.25402938914293" lon="16.752916597733094"><ele>941.0000000000001</ele><time>2026-03-28T11:37:32Z</time></trkpt><trkpt lat="39.253961617097396" lon="16.752871543928556"><ele>941.0</ele><time>2026-03-28T11:37:34Z</time></trkpt><trkpt lat="39.253886668598305" lon="16.752820100076203"><ele>939.2857142857142</ele><time>2026-03-28T11:37:36Z</time></trkpt><trkpt lat="39.25381826223005" lon="16.75279243531772"><ele>937.5714285714286</ele><time>2026-03-28T11:37:38Z</time></trkpt><trkpt lat="39.25373502314356" lon="16.752837528734638"><ele>935.8571428571429</ele><time>2026-03-28T11:37:41Z</time></trkpt><trkpt lat="39.25367662866812" lon="16.752876373359886"><ele>934.1428571428571</ele><time>2026-03-28T11:37:44Z</time></trkpt><trkpt lat="39.25361818203737" lon="16.752915728162872"><ele>932.4285714285716</ele><time>2026-03-28T11:37:51Z</time></trkpt><trkpt lat="39.253560533216714" lon="16.752954708854965"><ele>930.7142857142858</ele><time>2026-03-28T11:37:54Z</time></trkpt><trkpt lat="39.25349857720931" lon="16.753021687366655"><ele>929.0</ele><time>2026-03-28T11:37:58Z</time></trkpt><trkpt lat="39.2534553205067" lon="16.753082997432898"><ele>929.0</ele><time>2026-03-28T11:38:00Z</time></trkpt><trkpt lat="39.25344468307112" lon="16.75318806027909"><ele>929.0000000000001</ele><time>2026-03-28T11:38:03Z</time></trkpt><trkpt lat="39.253513829991675" lon="16.753269737639215"><ele>929.0000000000001</ele><time>2026-03-28T11:38:04Z</time></trkpt><trkpt lat="39.25357443860358" lon="16.75339126826601"><ele>929.0</ele><time>2026-03-28T11:38:05Z</time></trkpt><trkpt lat="39.25363847103361" lon="16.753487866978972"><ele>929.0</ele><time>2026-03-28T11:38:06Z</time></trkpt><trkpt lat="39.25367885060707" lon="16.753599638850915"><ele>927.8333333333334</ele><time>2026-03-28T11:38:07Z</time></trkpt><trkpt lat="39.25370529569478" lon="16.753721270770615"><ele>926.6666666666667</ele><time>2026-03-28T11:38:08Z</time></trkpt><trkpt lat="39.253726628677455" lon="16.753834898827176"><ele>925.5</ele><time>2026-03-28T11:38:09Z</time></trkpt><trkpt lat="39.253739149550455" lon="16.75394628372793"><ele>924.3333333333333</ele><time>2026-03-28T11:38:10Z</time></trkpt><trkpt lat="39.25374867366318" lon="16.754047234824974"><ele>923.1666666666666</ele><time>2026-03-28T11:38:11Z</time></trkpt><trkpt lat="39.253759415446936" lon="16.754144313597042"><ele>922.0</ele><time>2026-03-28T11:38:12Z</time></trkpt><trkpt lat="39.253760685530125" lon="16.75423234797043"><ele>922.0</ele><time>2026-03-28T11:38:13Z</time></trkpt><trkpt lat="39.25376265747876" lon="16.754318985516125"><ele>922.0000000000001</ele><time>2026-03-28T11:38:14Z</time></trkpt><trkpt lat="39.25375161783925" lon="16.75441635093394"><ele>922.0</ele><time>2026-03-28T11:38:15Z</time></trkpt><trkpt lat="39.2537367003079" lon="16.754499743548724"><ele>922.0</ele><time>2026-03-28T11:38:16Z</time></trkpt><trkpt lat="39.25372798000542" lon="16.754587741565544"><ele>922.0000000000001</ele><time>2026-03-28T11:38:17Z</time></trkpt><trkpt lat="39.253713531739585" lon="16.75470989887765"><ele>922.0</ele><time>2026-03-28T11:38:19Z</time></trkpt><trkpt lat="39.25369972765417" lon="16.75479836301003"><ele>922.0</ele><time>2026-03-28T11:38:26Z</time></trkpt><trkpt lat="39.253702420918295" lon="16.75490183523141"><ele>920.8333333333333</ele><time>2026-03-28T11:38:31Z</time></trkpt><trkpt lat="39.25370475750958" lon="16.75498958977884"><ele>919.6666666666666</ele><time>2026-03-28T11:38:35Z</time></trkpt><trkpt lat="39.25368784135712" lon="16.755108809395594"><ele>918.5</ele><time>2026-03-28T11:38:38Z</time></trkpt><trkpt lat="39.25363434364388" lon="16.75520179780133"><ele>917.3333333333333</ele><time>2026-03-28T11:38:40Z</time></trkpt><trkpt lat="39.253594944778264" lon="16.755288851579653"><ele>916.1666666666666</ele><time>2026-03-28T11:38:47Z</time></trkpt><trkpt lat="39.253575504624976" lon="16.755384851998134"><ele>915.0</ele><time>2026-03-28T11:38:53Z</time></trkpt><trkpt lat="39.25354022474076" lon="16.75547418877473"><ele>913.1666666666666</ele><time>2026-03-28T11:38:58Z</time></trkpt><trkpt lat="39.25352197161804" lon="16.755561122715388"><ele>911.3333333333333</ele><time>2026-03-28T11:39:09Z</time></trkpt><trkpt lat="39.253459984358116" lon="16.75553445539237"><ele>909.5</ele><time>2026-03-28T11:39:13Z</time></trkpt><trkpt lat="39.253382625652044" lon="16.75550359690726"><ele>907.6666666666666</ele><time>2026-03-28T11:39:20Z</time></trkpt><trkpt lat="39.253303200915" lon="16.755462980305794"><ele>905.8333333333333</ele><time>2026-03-28T11:39:23Z</time></trkpt><trkpt lat="39.2532461867519" lon="16.755514188553235"><ele>904.0</ele><time>2026-03-28T11:39:28Z</time></trkpt><trkpt lat="39.25318480789041" lon="16.755599220773377"><ele>904.0</ele><time>2026-03-28T11:39:32Z</time></trkpt><trkpt lat="39.25314490965243" lon="16.75567205600945"><ele>904.0</ele><time>2026-03-28T11:39:34Z</time></trkpt><trkpt lat="39.2530908644727" lon="16.755740042188837"><ele>904.0</ele><time>2026-03-28T11:39:36Z</time></trkpt><trkpt lat="39.25302934773623" lon="16.755778718358926"><ele>904.0</ele><time>2026-03-28T11:39:38Z</time></trkpt><trkpt lat="39.25295359176268" lon="16.755788205005747"><ele>904.0</ele><time>2026-03-28T11:39:44Z</time></trkpt><trkpt lat="39.252877974028046" lon="16.755779992424042"><ele>904.0</ele><time>2026-03-28T11:39:47Z</time></trkpt><trkpt lat="39.252799050950685" lon="16.75575174672827"><ele>904.0</ele><time>2026-03-28T11:39:52Z</time></trkpt><trkpt lat="39.25272533173845" lon="16.75579270879861"><ele>903.2</ele><time>2026-03-28T11:39:56Z</time></trkpt><trkpt lat="39.252666417011696" lon="16.755870647478996"><ele>902.4000000000001</ele><time>2026-03-28T11:39:59Z</time></trkpt><trkpt lat="39.252605283709556" lon="16.755954573221494"><ele>901.6</ele><time>2026-03-28T11:40:01Z</time></trkpt><trkpt lat="39.252559817891964" lon="16.75605649030999"><ele>900.8</ele><time>2026-03-28T11:40:03Z</time></trkpt><trkpt lat="39.252516932904776" lon="16.756175378167605"><ele>900.0</ele><time>2026-03-28T11:40:05Z</time></trkpt><trkpt lat="39.25249634700274" lon="16.756299946190993"><ele>899.2</ele><time>2026-03-28T11:40:07Z</time></trkpt><trkpt lat="39.252533203358034" lon="16.756425429597442"><ele>898.4</ele><time>2026-03-28T11:40:09Z</time></trkpt><trkpt lat="39.252574444753" lon="16.75649296834216"><ele>897.5999999999999</ele><time>2026-03-28T11:40:10Z</time></trkpt><trkpt lat="39.25260077005823" lon="16.756573139955336"><ele>896.8</ele><time>2026-03-28T11:40:11Z</time></trkpt><trkpt lat="39.25263869438812" lon="16.75671727499494"><ele>896.0</ele><time>2026-03-28T11:40:13Z</time></trkpt><trkpt lat="39.25267177606063" lon="16.756846676136714"><ele>895.0</ele><time>2026-03-28T11:40:15Z</time></trkpt><trkpt lat="39.252697924725325" lon="16.756975363079167"><ele>893.9999999999999</ele><time>2026-03-28T11:40:17Z</time></trkpt><trkpt lat="39.252684726109194" lon="16.757096878045324"><ele>892.9999999999999</ele><time>2026-03-28T11:40:19Z</time></trkpt><trkpt lat="39.25265933444606" lon="16.757222905998336"><ele>892.0</ele><time>2026-03-28T11:40:21Z</time></trkpt><trkpt lat="39.252606023288884" lon="16.757314115890814"><ele>891.0</ele><time>2026-03-28T11:40:23Z</time></trkpt><trkpt lat="39.252555352108004" lon="16.757366451206277"><ele>891.0</ele><time>2026-03-28T11:40:25Z</time></trkpt><trkpt lat="39.25249526833033" lon="16.75743046673147"><ele>891.0</ele><time>2026-03-28T11:40:27Z</time></trkpt><trkpt lat="39.25242783321315" lon="16.75747587088199"><ele>891.0</ele><time>2026-03-28T11:40:29Z</time></trkpt><trkpt lat="39.25235746955675" lon="16.757511579441044"><ele>891.0</ele><time>2026-03-28T11:40:32Z</time></trkpt><trkpt lat="39.252294639910936" lon="16.75754892866862"><ele>891.0</ele><time>2026-03-28T11:40:35Z</time></trkpt><trkpt lat="39.25222361224799" lon="16.757614395926122"><ele>891.0</ele><time>2026-03-28T11:40:38Z</time></trkpt><trkpt lat="39.25214763667954" lon="16.7576813504689"><ele>889.8333333333334</ele><time>2026-03-28T11:40:41Z</time></trkpt><trkpt lat="39.25208862106129" lon="16.757768043120723"><ele>888.6666666666667</ele><time>2026-03-28T11:40:44Z</time></trkpt><trkpt lat="39.25204867674981" lon="16.757842129593055"><ele>887.5</ele><time>2026-03-28T11:40:46Z</time></trkpt><trkpt lat="39.25200445097576" lon="16.757913219979944"><ele>886.3333333333334</ele><time>2026-03-28T11:40:48Z</time></trkpt><trkpt lat="39.25192876545543" lon="16.757980326802663"><ele>885.1666666666667</ele><time>2026-03-28T11:40:51Z</time></trkpt><trkpt lat="39.25186118903606" lon="16.758031178679218"><ele>884.0</ele><time>2026-03-28T11:40:53Z</time></trkpt><trkpt lat="39.251803426266264" lon="16.758117477493673"><ele>884.0</ele><time>2026-03-28T11:40:55Z</time></trkpt><trkpt lat="39.2517559004633" lon="16.758243078013358"><ele>884.0000000000001</ele><time>2026-03-28T11:40:57Z</time></trkpt><trkpt lat="39.25169557564557" lon="16.758358550529124"><ele>884.0000000000001</ele><time>2026-03-28T11:40:59Z</time></trkpt><trkpt lat="39.2516429024699" lon="16.75846394965743"><ele>884.0</ele><time>2026-03-28T11:41:01Z</time></trkpt><trkpt lat="39.25160935360737" lon="16.758555580669753"><ele>884.0</ele><time>2026-03-28T11:41:03Z</time></trkpt><trkpt lat="39.25157734468898" lon="16.758660859269757"><ele>882.8333333333334</ele><time>2026-03-28T11:41:05Z</time></trkpt><trkpt lat="39.25156548635057" lon="16.75876616471507"><ele>881.6666666666667</ele><time>2026-03-28T11:41:07Z</time></trkpt><trkpt lat="39.25157623491087" lon="16.7588707543815"><ele>880.5</ele><time>2026-03-28T11:41:10Z</time></trkpt><trkpt lat="39.25152635370052" lon="16.758923425676453"><ele>879.3333333333333</ele><time>2026-03-28T11:41:13Z</time></trkpt><trkpt lat="39.25147806977031" lon="16.75902533140386"><ele>878.1666666666666</ele><time>2026-03-28T11:41:16Z</time></trkpt><trkpt lat="39.25142771879266" lon="16.75913461815614"><ele>877.0</ele><time>2026-03-28T11:41:19Z</time></trkpt><trkpt lat="39.25137525596777" lon="16.759243224244646"><ele>876.9999999999999</ele><time>2026-03-28T11:41:21Z</time></trkpt><trkpt lat="39.25132726601777" lon="16.75932371681912"><ele>877.0</ele><time>2026-03-28T11:41:23Z</time></trkpt><trkpt lat="39.25127156926113" lon="16.759387487685174"><ele>877.0</ele><time>2026-03-28T11:41:25Z</time></trkpt><trkpt lat="39.25121135619473" lon="16.75945176130697"><ele>877.0</ele><time>2026-03-28T11:41:33Z</time></trkpt><trkpt lat="39.25117825707498" lon="16.759533243709047"><ele>876.9999999999999</ele><time>2026-03-28T11:41:36Z</time></trkpt><trkpt lat="39.25110991564042" lon="16.75961129289685"><ele>877.0</ele><time>2026-03-28T11:41:39Z</time></trkpt><trkpt lat="39.25105582390276" lon="16.759679695247264"><ele>875.4285714285714</ele><time>2026-03-28T11:41:42Z</time></trkpt><trkpt lat="39.25102063342371" lon="16.759765268596972"><ele>873.8571428571429</ele><time>2026-03-28T11:41:47Z</time></trkpt><trkpt lat="39.25098818944725" lon="16.759844825808695"><ele>872.2857142857142</ele><time>2026-03-28T11:41:52Z</time></trkpt><trkpt lat="39.25095774571853" lon="16.75994503032465"><ele>870.7142857142858</ele><time>2026-03-28T11:41:57Z</time></trkpt><trkpt lat="39.25092338400808" lon="16.760021140799186"><ele>869.1428571428571</ele><time>2026-03-28T11:42:00Z</time></trkpt><trkpt lat="39.25089782324419" lon="16.76011380704409"><ele>867.5714285714286</ele><time>2026-03-28T11:42:05Z</time></trkpt><trkpt lat="39.25087302734513" lon="16.760192746795123"><ele>866.0</ele><time>2026-03-28T11:42:10Z</time></trkpt><trkpt lat="39.250841598658106" lon="16.760266436727182"><ele>864.0000000000001</ele><time>2026-03-28T11:42:14Z</time></trkpt><trkpt lat="39.25082055695126" lon="16.760362290340403"><ele>862.0</ele><time>2026-03-28T11:42:17Z</time></trkpt><trkpt lat="39.250746121377446" lon="16.760439714024407"><ele>860.0</ele><time>2026-03-28T11:42:20Z</time></trkpt><trkpt lat="39.25067531970368" lon="16.760479912401017"><ele>858.0</ele><time>2026-03-28T11:42:22Z</time></trkpt><trkpt lat="39.25060160283786" lon="16.760516442582947"><ele>856.0000000000001</ele><time>2026-03-28T11:42:25Z</time></trkpt><trkpt lat="39.25052723451668" lon="16.760531501664452"><ele>854.0</ele><time>2026-03-28T11:42:38Z</time></trkpt><trkpt lat="39.25046305181862" lon="16.76052394705171"><ele>852.6666666666667</ele><time>2026-03-28T11:42:42Z</time></trkpt><trkpt lat="39.25039723764002" lon="16.760564078418458"><ele>851.3333333333334</ele><time>2026-03-28T11:42:47Z</time></trkpt><trkpt lat="39.25035056731174" lon="16.760636381304323"><ele>850.0</ele><time>2026-03-28T11:42:53Z</time></trkpt><trkpt lat="39.250325052141555" lon="16.760723868450686"><ele>848.6666666666667</ele><time>2026-03-28T11:42:56Z</time></trkpt><trkpt lat="39.25031742712363" lon="16.760815780905762"><ele>847.3333333333334</ele><time>2026-03-28T11:43:00Z</time></trkpt><trkpt lat="39.250321627136394" lon="16.760923036447842"><ele>846.0</ele><time>2026-03-28T11:43:03Z</time></trkpt><trkpt lat="39.25033838691976" lon="16.761020218589223"><ele>844.3333333333334</ele><time>2026-03-28T11:43:05Z</time></trkpt><trkpt lat="39.25034677137676" lon="16.76112561739321"><ele>842.6666666666667</ele><time>2026-03-28T11:43:07Z</time></trkpt><trkpt lat="39.250333006593735" lon="16.76123584057827"><ele>841.0</ele><time>2026-03-28T11:43:09Z</time></trkpt><trkpt lat="39.250319366193146" lon="16.76133152207234"><ele>839.3333333333334</ele><time>2026-03-28T11:43:11Z</time></trkpt><trkpt lat="39.25031061181145" lon="16.76141818495059"><ele>837.6666666666667</ele><time>2026-03-28T11:43:13Z</time></trkpt><trkpt lat="39.250295240940915" lon="16.761505887704487"><ele>836.0</ele><time>2026-03-28T11:43:15Z</time></trkpt><trkpt lat="39.25031143174314" lon="16.761613083833662"><ele>836.0000000000001</ele><time>2026-03-28T11:43:18Z</time></trkpt><trkpt lat="39.250330700769425" lon="16.761700292857622"><ele>836.0</ele><time>2026-03-28T11:43:21Z</time></trkpt><trkpt lat="39.25032843822788" lon="16.761805297091637"><ele>836.0</ele><time>2026-03-28T11:43:23Z</time></trkpt><trkpt lat="39.25031935999515" lon="16.761929816072268"><ele>836.0</ele><time>2026-03-28T11:43:25Z</time></trkpt><trkpt lat="39.25028675714843" lon="16.762017605025076"><ele>836.0000000000001</ele><time>2026-03-28T11:43:27Z</time></trkpt><trkpt lat="39.25023803028924" lon="16.762111213433787"><ele>836.0</ele><time>2026-03-28T11:43:30Z</time></trkpt><trkpt lat="39.250205891563965" lon="16.76218917783662"><ele>834.3333333333334</ele><time>2026-03-28T11:43:32Z</time></trkpt><trkpt lat="39.25019177702062" lon="16.76228098230351"><ele>832.6666666666667</ele><time>2026-03-28T11:43:37Z</time></trkpt><trkpt lat="39.25016820476761" lon="16.762358819964827"><ele>831.0</ele><time>2026-03-28T11:43:42Z</time></trkpt><trkpt lat="39.25011447506346" lon="16.76243387034437"><ele>829.3333333333333</ele><time>2026-03-28T11:43:45Z</time></trkpt><trkpt lat="39.25010258209835" lon="16.762524797526574"><ele>827.6666666666666</ele><time>2026-03-28T11:43:49Z</time></trkpt><trkpt lat="39.25010944376792" lon="16.762652757919557"><ele>826.0</ele><time>2026-03-28T11:43:51Z</time></trkpt><trkpt lat="39.250120377388015" lon="16.762772629410282"><ele>824.4999999999999</ele><time>2026-03-28T11:43:53Z</time></trkpt><trkpt lat="39.250109351422445" lon="16.762890128024637"><ele>823.0</ele><time>2026-03-28T11:43:56Z</time></trkpt><trkpt lat="39.25005118494759" lon="16.762940566973636"><ele>821.5</ele><time>2026-03-28T11:43:57Z</time></trkpt><trkpt lat="39.249977295020265" lon="16.762994910207738"><ele>820.0</ele><time>2026-03-28T11:43:58Z</time></trkpt><trkpt lat="39.24992167079456" lon="16.76305357704598"><ele>818.4999999999999</ele><time>2026-03-28T11:43:59Z</time></trkpt><trkpt lat="39.24987103419509" lon="16.763102762670304"><ele>817.0</ele><time>2026-03-28T11:44:00Z</time></trkpt><trkpt lat="39.24978935694249" lon="16.763172426143836"><ele>816.9999999999999</ele><time>2026-03-28T11:44:02Z</time></trkpt><trkpt lat="39.24971797893109" lon="16.763221615238873"><ele>817.0</ele><time>2026-03-28T11:44:05Z</time></trkpt><trkpt lat="39.249657229902496" lon="16.763259808403845"><ele>817.0</ele><time>2026-03-28T11:44:08Z</time></trkpt><trkpt lat="39.24958305910707" lon="16.763299846015443"><ele>817.0</ele><time>2026-03-28T11:44:12Z</time></trkpt><trkpt lat="39.24951413391562" lon="16.763331850664592"><ele>816.9999999999999</ele><time>2026-03-28T11:44:16Z</time></trkpt><trkpt lat="39.249437546823884" lon="16.763365542045822"><ele>817.0</ele><time>2026-03-28T11:44:20Z</time></trkpt><trkpt lat="39.249366125737055" lon="16.763394947860036"><ele>817.0</ele><time>2026-03-28T11:44:22Z</time></trkpt><trkpt lat="39.24930179974322" lon="16.763418127899037"><ele>817.0</ele><time>2026-03-28T11:44:23Z</time></trkpt><trkpt lat="39.24921316661619" lon="16.763450962119954"><ele>817.0</ele><time>2026-03-28T11:44:24Z</time></trkpt><trkpt lat="39.249136957406826" lon="16.763505599193554"><ele>817.0</ele><time>2026-03-28T11:44:25Z</time></trkpt><trkpt lat="39.24905275255773" lon="16.763608287148227"><ele>817.0</ele><time>2026-03-28T11:44:26Z</time></trkpt><trkpt lat="39.24897791230187" lon="16.763733179592883"><ele>815.6</ele><time>2026-03-28T11:44:27Z</time></trkpt><trkpt lat="39.24892920944893" lon="16.76386163579617"><ele>814.2</ele><time>2026-03-28T11:44:28Z</time></trkpt><trkpt lat="39.248895936822045" lon="16.763982238670998"><ele>812.8</ele><time>2026-03-28T11:44:29Z</time></trkpt><trkpt lat="39.24888958546492" lon="16.764105788171992"><ele>811.4</ele><time>2026-03-28T11:44:30Z</time></trkpt><trkpt lat="39.24891839901875" lon="16.764212716466194"><ele>810.0</ele><time>2026-03-28T11:44:31Z</time></trkpt><trkpt lat="39.24895299129409" lon="16.76430522351793"><ele>808.2</ele><time>2026-03-28T11:44:32Z</time></trkpt><trkpt lat="39.24896443139345" lon="16.764402224105527"><ele>806.4</ele><time>2026-03-28T11:44:33Z</time></trkpt><trkpt lat="39.24896333268408" lon="16.76450797273096"><ele>804.5999999999999</ele><time>2026-03-28T11:44:34Z</time></trkpt><trkpt lat="39.248945834447355" lon="16.764626106405114"><ele>802.8</ele><time>2026-03-28T11:44:35Z</time></trkpt><trkpt lat="39.24888831725099" lon="16.764753160619108"><ele>801.0</ele><time>2026-03-28T11:44:36Z</time></trkpt><trkpt lat="39.24880365716688" lon="16.76481915910554"><ele>800.5999999999999</ele><time>2026-03-28T11:44:37Z</time></trkpt><trkpt lat="39.24869696120916" lon="16.764847144969934"><ele>800.2</ele><time>2026-03-28T11:44:38Z</time></trkpt><trkpt lat="39.24859556565262" lon="16.76483609230787"><ele>799.8</ele><time>2026-03-28T11:44:39Z</time></trkpt><trkpt lat="39.24852506196951" lon="16.764789068522845"><ele>799.4000000000001</ele><time>2026-03-28T11:44:40Z</time></trkpt><trkpt lat="39.24846789503046" lon="16.76473292270309"><ele>799.0</ele><time>2026-03-28T11:44:41Z</time></trkpt><trkpt lat="39.24836527896472" lon="16.764658187488973"><ele>799.0</ele><time>2026-03-28T11:44:43Z</time></trkpt><trkpt lat="39.2482571491891" lon="16.764613457192574"><ele>799.0</ele><time>2026-03-28T11:44:45Z</time></trkpt><trkpt lat="39.24814961937109" lon="16.764602128378"><ele>799.0</ele><time>2026-03-28T11:44:47Z</time></trkpt><trkpt lat="39.24801949427227" lon="16.76462567440012"><ele>799.0</ele><time>2026-03-28T11:44:49Z</time></trkpt><trkpt lat="39.24793272910577" lon="16.76464967855059"><ele>799.0</ele><time>2026-03-28T11:44:50Z</time></trkpt><trkpt lat="39.2478356904196" lon="16.764681538415186"><ele>798.6666666666666</ele><time>2026-03-28T11:44:51Z</time></trkpt><trkpt lat="39.24773676589841" lon="16.764714517078303"><ele>798.3333333333333</ele><time>2026-03-28T11:44:52Z</time></trkpt><trkpt lat="39.247641358094775" lon="16.76474760963127"><ele>798.0</ele><time>2026-03-28T11:44:53Z</time></trkpt><trkpt lat="39.24755856879144" lon="16.76477813083542"><ele>797.6666666666667</ele><time>2026-03-28T11:44:54Z</time></trkpt><trkpt lat="39.24748001354297" lon="16.76480147771339"><ele>797.3333333333334</ele><time>2026-03-28T11:44:55Z</time></trkpt><trkpt lat="39.24740635902086" lon="16.764825834660112"><ele>797.0</ele><time>2026-03-28T11:44:56Z</time></trkpt><trkpt lat="39.24733289947229" lon="16.764862086580617"><ele>797.3333333333334</ele><time>2026-03-28T11:44:57Z</time></trkpt><trkpt lat="39.24726458153539" lon="16.764912355638426"><ele>797.6666666666667</ele><time>2026-03-28T11:44:58Z</time></trkpt><trkpt lat="39.247202619449716" lon="16.764978296349533"><ele>798.0</ele><time>2026-03-28T11:44:59Z</time></trkpt><trkpt lat="39.24714536971464" lon="16.76505359535328"><ele>798.3333333333333</ele><time>2026-03-28T11:45:00Z</time></trkpt><trkpt lat="39.247092923229324" lon="16.765136041443423"><ele>798.6666666666666</ele><time>2026-03-28T11:45:01Z</time></trkpt><trkpt lat="39.247047712874576" lon="16.765225983304575"><ele>799.0</ele><time>2026-03-28T11:45:02Z</time></trkpt><trkpt lat="39.24701246437292" lon="16.765324715413616"><ele>797.8333333333333</ele><time>2026-03-28T11:45:03Z</time></trkpt><trkpt lat="39.24698492233851" lon="16.765431801963587"><ele>796.6666666666666</ele><time>2026-03-28T11:45:04Z</time></trkpt><trkpt lat="39.24696678085028" lon="16.765544456070252"><ele>795.5</ele><time>2026-03-28T11:45:05Z</time></trkpt><trkpt lat="39.24695467056009" lon="16.765659337583553"><ele>794.3333333333333</ele><time>2026-03-28T11:45:06Z</time></trkpt><trkpt lat="39.24694366566219" lon="16.765773738813333"><ele>793.1666666666666</ele><time>2026-03-28T11:45:07Z</time></trkpt><trkpt lat="39.24693365142528" lon="16.76588972304156"><ele>792.0</ele><time>2026-03-28T11:45:08Z</time></trkpt><trkpt lat="39.24690188055548" lon="16.766035491295366"><ele>790.25</ele><time>2026-03-28T11:45:09Z</time></trkpt><trkpt lat="39.246821974276834" lon="16.766178776102837"><ele>788.5</ele><time>2026-03-28T11:45:10Z</time></trkpt><trkpt lat="39.24673416855473" lon="16.766280491369088"><ele>786.75</ele><time>2026-03-28T11:45:11Z</time></trkpt><trkpt lat="39.246636510676694" lon="16.766345095245804"><ele>785.0</ele><time>2026-03-28T11:45:12Z</time></trkpt><trkpt lat="39.24654145026474" lon="16.766393290095102"><ele>783.8</ele><time>2026-03-28T11:45:13Z</time></trkpt><trkpt lat="39.24645552239746" lon="16.76645166372761"><ele>782.6</ele><time>2026-03-28T11:45:14Z</time></trkpt><trkpt lat="39.24637672281309" lon="16.766525592301008"><ele>781.4000000000001</ele><time>2026-03-28T11:45:15Z</time></trkpt><trkpt lat="39.24630272422361" lon="16.766621313668306"><ele>780.2</ele><time>2026-03-28T11:45:16Z</time></trkpt><trkpt lat="39.24624394250126" lon="16.76673787906024"><ele>779.0</ele><time>2026-03-28T11:45:17Z</time></trkpt><trkpt lat="39.24621367685129" lon="16.76687709309893"><ele>777.0</ele><time>2026-03-28T11:45:18Z</time></trkpt><trkpt lat="39.24618929281772" lon="16.767021167639644"><ele>775.0</ele><time>2026-03-28T11:45:19Z</time></trkpt><trkpt lat="39.24616430403809" lon="16.76716627155756"><ele>773.0</ele><time>2026-03-28T11:45:20Z</time></trkpt><trkpt lat="39.24613813371983" lon="16.76730755983941"><ele>771.0</ele><time>2026-03-28T11:45:21Z</time></trkpt><trkpt lat="39.24611470995395" lon="16.767436880654397"><ele>769.0</ele><time>2026-03-28T11:45:22Z</time></trkpt><trkpt lat="39.246094093591786" lon="16.76755947228906"><ele>768.9999999999999</ele><time>2026-03-28T11:45:23Z</time></trkpt><trkpt lat="39.24608698629525" lon="16.767686394348466"><ele>769.0</ele><time>2026-03-28T11:45:24Z</time></trkpt><trkpt lat="39.246111062593215" lon="16.767808443197257"><ele>769.0</ele><time>2026-03-28T11:45:25Z</time></trkpt><trkpt lat="39.246173626852816" lon="16.767892486888037"><ele>769.0</ele><time>2026-03-28T11:45:26Z</time></trkpt><trkpt lat="39.24624382731273" lon="16.767934027685737"><ele>768.9999999999999</ele><time>2026-03-28T11:45:27Z</time></trkpt><trkpt lat="39.24631355521361" lon="16.767942024023085"><ele>769.0</ele><time>2026-03-28T11:45:28Z</time></trkpt><trkpt lat="39.246377313581924" lon="16.767930804007236"><ele>768.8333333333333</ele><time>2026-03-28T11:45:29Z</time></trkpt><trkpt lat="39.24644055274736" lon="16.7678851127367"><ele>768.6666666666666</ele><time>2026-03-28T11:45:30Z</time></trkpt><trkpt lat="39.246498696588894" lon="16.767812316376375"><ele>768.5</ele><time>2026-03-28T11:45:31Z</time></trkpt><trkpt lat="39.24656014357389" lon="16.76772197042177"><ele>768.3333333333333</ele><time>2026-03-28T11:45:32Z</time></trkpt><trkpt lat="39.246623383901635" lon="16.76762925487216"><ele>768.1666666666666</ele><time>2026-03-28T11:45:33Z</time></trkpt><trkpt lat="39.24668931722756" lon="16.767532939834222"><ele>768.0</ele><time>2026-03-28T11:45:34Z</time></trkpt><trkpt lat="39.24674962660837" lon="16.767446664594583"><ele>770.2</ele><time>2026-03-28T11:45:35Z</time></trkpt><trkpt lat="39.24681350290785" lon="16.76738282283503"><ele>772.4</ele><time>2026-03-28T11:45:36Z</time></trkpt><trkpt lat="39.246872412511316" lon="16.767350493161896"><ele>774.6</ele><time>2026-03-28T11:45:37Z</time></trkpt><trkpt lat="39.24697678627164" lon="16.767360426781014"><ele>776.8000000000001</ele><time>2026-03-28T11:45:39Z</time></trkpt><trkpt lat="39.24705485656171" lon="16.767493570172125"><ele>779.0</ele><time>2026-03-28T11:45:41Z</time></trkpt><trkpt lat="39.247068396088835" lon="16.767620243462368"><ele>776.25</ele><time>2026-03-28T11:45:42Z</time></trkpt><trkpt lat="39.24705554641764" lon="16.767774564480764"><ele>773.5</ele><time>2026-03-28T11:45:43Z</time></trkpt><trkpt lat="39.247036215505396" lon="16.767960845985307"><ele>770.75</ele><time>2026-03-28T11:45:44Z</time></trkpt><trkpt lat="39.24701599265024" lon="16.76817252881884"><ele>768.0</ele><time>2026-03-28T11:45:45Z</time></trkpt><trkpt lat="39.24700038432392" lon="16.768367801349847"><ele>765.25</ele><time>2026-03-28T11:45:46Z</time></trkpt><trkpt lat="39.24698013397621" lon="16.768552066356"><ele>762.5</ele><time>2026-03-28T11:45:47Z</time></trkpt><trkpt lat="39.24694552411897" lon="16.768724233551428"><ele>759.75</ele><time>2026-03-28T11:45:48Z</time></trkpt><trkpt lat="39.24690275037911" lon="16.768889475474154"><ele>757.0</ele><time>2026-03-28T11:45:49Z</time></trkpt><trkpt lat="39.24684278288941" lon="16.769038280939647"><ele>757.0</ele><time>2026-03-28T11:45:50Z</time></trkpt><trkpt lat="39.24678610085608" lon="16.769165322182836"><ele>757.0</ele><time>2026-03-28T11:45:51Z</time></trkpt><trkpt lat="39.246741637364494" lon="16.769278779458414"><ele>757.0</ele><time>2026-03-28T11:45:52Z</time></trkpt><trkpt lat="39.246722810226416" lon="16.76938159282381"><ele>757.0</ele><time>2026-03-28T11:45:53Z</time></trkpt><trkpt lat="39.24673138003533" lon="16.769466667212228"><ele>757.0</ele><time>2026-03-28T11:45:54Z</time></trkpt><trkpt lat="39.24681088037724" lon="16.76957971109024"><ele>755.0</ele><time>2026-03-28T11:45:55.999Z</time></trkpt><trkpt lat="39.24687255982382" lon="16.769596311964207"><ele>753.0</ele><time>2026-03-28T11:45:56.999Z</time></trkpt><trkpt lat="39.246941500485676" lon="16.769586420505554"><ele>751.0</ele><time>2026-03-28T11:45:57.999Z</time></trkpt><trkpt lat="39.24702822725453" lon="16.769577986464615"><ele>749.0</ele><time>2026-03-28T11:45:58.999Z</time></trkpt><trkpt lat="39.24712220758225" lon="16.76959946269376"><ele>747.0</ele><time>2026-03-28T11:45:59.999Z</time></trkpt><trkpt lat="39.24721559877484" lon="16.76968079799827"><ele>745.0</ele><time>2026-03-28T11:46:00.999Z</time></trkpt><trkpt lat="39.24728848072869" lon="16.76979040512546"><ele>747.6</ele><time>2026-03-28T11:46:01.999Z</time></trkpt><trkpt lat="39.24736157014614" lon="16.7698760536367"><ele>750.2</ele><time>2026-03-28T11:46:02.999Z</time></trkpt><trkpt lat="39.24745632980659" lon="16.76991981646815"><ele>752.8</ele><time>2026-03-28T11:46:03.999Z</time></trkpt><trkpt lat="39.247560584967026" lon="16.76990956856639"><ele>755.4</ele><time>2026-03-28T11:46:04.999Z</time></trkpt><trkpt lat="39.24764889963297" lon="16.76987693734838"><ele>758.0</ele><time>2026-03-28T11:46:05.999Z</time></trkpt><trkpt lat="39.24773499558012" lon="16.769830600994887"><ele>758.0</ele><time>2026-03-28T11:46:07Z</time></trkpt><trkpt lat="39.247822084675796" lon="16.76977615475716"><ele>758.0</ele><time>2026-03-28T11:46:08Z</time></trkpt><trkpt lat="39.24791063827995" lon="16.76970800593951"><ele>758.0</ele><time>2026-03-28T11:46:09Z</time></trkpt><trkpt lat="39.248009416795135" lon="16.76961059226218"><ele>758.0</ele><time>2026-03-28T11:46:10Z</time></trkpt><trkpt lat="39.24809461783006" lon="16.76949882708102"><ele>758.0</ele><time>2026-03-28T11:46:11Z</time></trkpt><trkpt lat="39.24815734873112" lon="16.76939303994321"><ele>757.6666666666666</ele><time>2026-03-28T11:46:12Z</time></trkpt><trkpt lat="39.24821747989656" lon="16.76928946079244"><ele>757.3333333333333</ele><time>2026-03-28T11:46:13Z</time></trkpt><trkpt lat="39.24827056839738" lon="16.769202729792156"><ele>757.0</ele><time>2026-03-28T11:46:14Z</time></trkpt><trkpt lat="39.24832551811917" lon="16.769135792184407"><ele>756.6666666666666</ele><time>2026-03-28T11:46:15Z</time></trkpt><trkpt lat="39.248383842748474" lon="16.769086343511166"><ele>756.3333333333334</ele><time>2026-03-28T11:46:16Z</time></trkpt><trkpt lat="39.248456263319206" lon="16.769099693804293"><ele>756.0</ele><time>2026-03-28T11:46:17Z</time></trkpt><trkpt lat="39.24852438611707" lon="16.769141766367945"><ele>756.0</ele><time>2026-03-28T11:46:18Z</time></trkpt><trkpt lat="39.24856197984648" lon="16.769238894364452"><ele>756.0</ele><time>2026-03-28T11:46:19Z</time></trkpt><trkpt lat="39.24856427160237" lon="16.769349088389507"><ele>756.0</ele><time>2026-03-28T11:46:20Z</time></trkpt><trkpt lat="39.24858414337298" lon="16.769497152503693"><ele>756.0</ele><time>2026-03-28T11:46:21Z</time></trkpt><trkpt lat="39.24860710949396" lon="16.769627051717645"><ele>756.0</ele><time>2026-03-28T11:46:22Z</time></trkpt><trkpt lat="39.24863283739433" lon="16.76974415694503"><ele>754.5999999999999</ele><time>2026-03-28T11:46:23Z</time></trkpt><trkpt lat="39.24868346348359" lon="16.76983561170212"><ele>753.2</ele><time>2026-03-28T11:46:24Z</time></trkpt><trkpt lat="39.2487639710267" lon="16.769901258566588"><ele>751.8</ele><time>2026-03-28T11:46:25Z</time></trkpt><trkpt lat="39.24885739299923" lon="16.769937323501818"><ele>750.4000000000001</ele><time>2026-03-28T11:46:26Z</time></trkpt><trkpt lat="39.24895520851164" lon="16.76995731593147"><ele>749.0</ele><time>2026-03-28T11:46:27Z</time></trkpt><trkpt lat="39.24904001537996" lon="16.769988758143448"><ele>748.6666666666666</ele><time>2026-03-28T11:46:28Z</time></trkpt><trkpt lat="39.24912064972499" lon="16.770034491149982"><ele>748.3333333333333</ele><time>2026-03-28T11:46:29Z</time></trkpt><trkpt lat="39.24919154926496" lon="16.770094733287"><ele>748.0</ele><time>2026-03-28T11:46:30Z</time></trkpt><trkpt lat="39.24925764681714" lon="16.770179865812857"><ele>747.6666666666666</ele><time>2026-03-28T11:46:32Z</time></trkpt><trkpt lat="39.24930625528529" lon="16.770237486764305"><ele>747.3333333333334</ele><time>2026-03-28T11:46:35Z</time></trkpt><trkpt lat="39.24935262156606" lon="16.77029467576892"><ele>747.0</ele><time>2026-03-28T11:46:40Z</time></trkpt><trkpt lat="39.24940964623786" lon="16.770369524703998"><ele>745.0</ele><time>2026-03-28T11:46:45Z</time></trkpt><trkpt lat="39.249432888289405" lon="16.77044533960556"><ele>743.0</ele><time>2026-03-28T11:46:50Z</time></trkpt><trkpt lat="39.24942490641797" lon="16.77056265997063"><ele>741.0</ele><time>2026-03-28T11:46:53Z</time></trkpt><trkpt lat="39.24941405330749" lon="16.77068207040124"><ele>739.0</ele><time>2026-03-28T11:46:55Z</time></trkpt><trkpt lat="39.2494077297248" lon="16.770807927667917"><ele>737.0</ele><time>2026-03-28T11:46:57Z</time></trkpt><trkpt lat="39.2494043411991" lon="16.770933419262597"><ele>735.0</ele><time>2026-03-28T11:46:59Z</time></trkpt><trkpt lat="39.24941865419862" lon="16.771063329931547"><ele>733.8333333333334</ele><time>2026-03-28T11:47:01Z</time></trkpt><trkpt lat="39.24940945890834" lon="16.77120692452759"><ele>732.6666666666666</ele><time>2026-03-28T11:47:03Z</time></trkpt><trkpt lat="39.24939740380579" lon="16.771289118070865"><ele>731.5</ele><time>2026-03-28T11:47:04Z</time></trkpt><trkpt lat="39.24938405275813" lon="16.771387376894634"><ele>730.3333333333333</ele><time>2026-03-28T11:47:05Z</time></trkpt><trkpt lat="39.24936706548386" lon="16.771481112584524"><ele>729.1666666666666</ele><time>2026-03-28T11:47:06Z</time></trkpt><trkpt lat="39.24935514215716" lon="16.771579030253193"><ele>728.0</ele><time>2026-03-28T11:47:07Z</time></trkpt><trkpt lat="39.2493478267812" lon="16.77168109992352"><ele>728.0</ele><time>2026-03-28T11:47:08Z</time></trkpt><trkpt lat="39.24934393299918" lon="16.77178321320296"><ele>728.0</ele><time>2026-03-28T11:47:09Z</time></trkpt><trkpt lat="39.24934294180781" lon="16.77188406005316"><ele>728.0</ele><time>2026-03-28T11:47:10Z</time></trkpt><trkpt lat="39.2493453705012" lon="16.77198528527637"><ele>728.0</ele><time>2026-03-28T11:47:11Z</time></trkpt><trkpt lat="39.249346969439046" lon="16.77208214105268"><ele>728.0</ele><time>2026-03-28T11:47:12Z</time></trkpt><trkpt lat="39.24929416088857" lon="16.772164627812288"><ele>728.0</ele><time>2026-03-28T11:47:13Z</time></trkpt><trkpt lat="39.24927809429154" lon="16.77225547607463"><ele>727.5714285714286</ele><time>2026-03-28T11:47:14Z</time></trkpt><trkpt lat="39.249270496992104" lon="16.772348138601828"><ele>727.1428571428571</ele><time>2026-03-28T11:47:15Z</time></trkpt><trkpt lat="39.24926351724018" lon="16.772436991864616"><ele>726.7142857142858</ele><time>2026-03-28T11:47:16Z</time></trkpt><trkpt lat="39.24925394124206" lon="16.772528871978363"><ele>726.2857142857142</ele><time>2026-03-28T11:47:17Z</time></trkpt><trkpt lat="39.24924562484298" lon="16.772612767409417"><ele>725.8571428571429</ele><time>2026-03-28T11:47:18Z</time></trkpt><trkpt lat="39.249232202052696" lon="16.7727382880608"><ele>725.4285714285714</ele><time>2026-03-28T11:47:20Z</time></trkpt><trkpt lat="39.24921546874754" lon="16.77282479281223"><ele>725.0</ele><time>2026-03-28T11:47:22Z</time></trkpt><trkpt lat="39.249193025116185" lon="16.772923037829127"><ele>725.0</ele><time>2026-03-28T11:47:25Z</time></trkpt><trkpt lat="39.2491638061695" lon="16.773029048608812"><ele>725.0</ele><time>2026-03-28T11:47:29Z</time></trkpt><trkpt lat="39.2491451863274" lon="16.773113072773516"><ele>725.0</ele><time>2026-03-28T11:47:31Z</time></trkpt><trkpt lat="39.249103268786975" lon="16.773233713562348"><ele>725.0</ele><time>2026-03-28T11:47:34Z</time></trkpt><trkpt lat="39.249065323719584" lon="16.77336035776688"><ele>725.0</ele><time>2026-03-28T11:47:36Z</time></trkpt><trkpt lat="39.249017715925966" lon="16.77351059754301"><ele>725.0</ele><time>2026-03-28T11:47:38Z</time></trkpt><trkpt lat="39.24896131941824" lon="16.77360931328774"><ele>725.0</ele><time>2026-03-28T11:47:39Z</time></trkpt><trkpt lat="39.24890659936793" lon="16.773701723370323"><ele>725.0</ele><time>2026-03-28T11:47:40Z</time></trkpt><trkpt lat="39.248834807883334" lon="16.773826042778545"><ele>725.0</ele><time>2026-03-28T11:47:41Z</time></trkpt><trkpt lat="39.24873933816961" lon="16.77396309247139"><ele>725.0</ele><time>2026-03-28T11:47:42Z</time></trkpt><trkpt lat="39.24863375061028" lon="16.774114411513626"><ele>724.6666666666666</ele><time>2026-03-28T11:47:43Z</time></trkpt><trkpt lat="39.24851754710798" lon="16.774276201614686"><ele>724.3333333333334</ele><time>2026-03-28T11:47:44Z</time></trkpt><trkpt lat="39.24840468239897" lon="16.774447951780257"><ele>724.0</ele><time>2026-03-28T11:47:45Z</time></trkpt><trkpt lat="39.24829557682297" lon="16.77460926404597"><ele>721.0</ele><time>2026-03-28T11:47:45.999Z</time></trkpt><trkpt lat="39.24818993126703" lon="16.77476717438291"><ele>718.0</ele><time>2026-03-28T11:47:46.999Z</time></trkpt><trkpt lat="39.24808567956071" lon="16.774920066891575"><ele>715.0</ele><time>2026-03-28T11:47:47.999Z</time></trkpt><trkpt lat="39.24798127902045" lon="16.775066012800078"><ele>712.25</ele><time>2026-03-28T11:47:48.999Z</time></trkpt><trkpt lat="39.24787833115363" lon="16.775205668815627"><ele>709.5</ele><time>2026-03-28T11:47:49.999Z</time></trkpt><trkpt lat="39.247780228262016" lon="16.775341105130657"><ele>706.75</ele><time>2026-03-28T11:47:50.999Z</time></trkpt><trkpt lat="39.24769090129054" lon="16.77547704628509"><ele>704.0</ele><time>2026-03-28T11:47:51.999Z</time></trkpt><trkpt lat="39.24760372330202" lon="16.775612558197505"><ele>704.0</ele><time>2026-03-28T11:47:52.999Z</time></trkpt><trkpt lat="39.247523025432194" lon="16.775752338372946"><ele>704.0</ele><time>2026-03-28T11:47:53.999Z</time></trkpt><trkpt lat="39.24744400073003" lon="16.775890922523754"><ele>704.0</ele><time>2026-03-28T11:47:54.999Z</time></trkpt><trkpt lat="39.24737021139318" lon="16.77602408136428"><ele>704.0</ele><time>2026-03-28T11:47:55.999Z</time></trkpt><trkpt lat="39.24730537360318" lon="16.776156510902776"><ele>700.5</ele><time>2026-03-28T11:47:56.999Z</time></trkpt><trkpt lat="39.247250172849235" lon="16.776286111202648"><ele>697.0</ele><time>2026-03-28T11:47:57.999Z</time></trkpt><trkpt lat="39.247205696828466" lon="16.776405984088054"><ele>693.5</ele><time>2026-03-28T11:47:58.999Z</time></trkpt><trkpt lat="39.24717205129794" lon="16.776504267252943"><ele>690.0</ele><time>2026-03-28T11:47:59.999Z</time></trkpt><trkpt lat="39.2471425278624" lon="16.776593088745827"><ele>686.5</ele><time>2026-03-28T11:48:00.999Z</time></trkpt><trkpt lat="39.247115017964134" lon="16.776667618560875"><ele>683.0</ele><time>2026-03-28T11:48:01.999Z</time></trkpt><trkpt lat="39.247061946611005" lon="16.77677528065951"><ele>683.0</ele><time>2026-03-28T11:48:03.999Z</time></trkpt><trkpt lat="39.247003444627985" lon="16.776830907997848"><ele>683.0</ele><time>2026-03-28T11:48:04.999Z</time></trkpt><trkpt lat="39.24690975194148" lon="16.7768702670812"><ele>683.0</ele><time>2026-03-28T11:48:05.999Z</time></trkpt><trkpt lat="39.24680774056707" lon="16.77691905183677"><ele>683.0</ele><time>2026-03-28T11:48:06.999Z</time></trkpt><trkpt lat="39.24668359256603" lon="16.77699021173223"><ele>683.0</ele><time>2026-03-28T11:48:07.999Z</time></trkpt><trkpt lat="39.24653159983488" lon="16.77707080439761"><ele>681.0</ele><time>2026-03-28T11:48:08.999Z</time></trkpt><trkpt lat="39.24639065526502" lon="16.777147778654207"><ele>679.0</ele><time>2026-03-28T11:48:09.999Z</time></trkpt><trkpt lat="39.246270669722996" lon="16.777258363278698"><ele>677.0</ele><time>2026-03-28T11:48:10.999Z</time></trkpt><trkpt lat="39.24618844974316" lon="16.777428618375705"><ele>677.0</ele><time>2026-03-28T11:48:11.999Z</time></trkpt><trkpt lat="39.24612556687452" lon="16.777646527467695"><ele>677.0</ele><time>2026-03-28T11:48:13Z</time></trkpt><trkpt lat="39.24606588157411" lon="16.77788582103848"><ele>677.0</ele><time>2026-03-28T11:48:14Z</time></trkpt><trkpt lat="39.245997071120456" lon="16.77813837771963"><ele>676.0</ele><time>2026-03-28T11:48:15Z</time></trkpt><trkpt lat="39.24592304768366" lon="16.778403333564665"><ele>675.0</ele><time>2026-03-28T11:48:16Z</time></trkpt><trkpt lat="39.24585678755763" lon="16.77866282751069"><ele>674.0</ele><time>2026-03-28T11:48:17Z</time></trkpt><trkpt lat="39.2457922929991" lon="16.778892345803197"><ele>673.3333333333333</ele><time>2026-03-28T11:48:18Z</time></trkpt><trkpt lat="39.245723702671704" lon="16.779116796981775"><ele>672.6666666666666</ele><time>2026-03-28T11:48:19Z</time></trkpt><trkpt lat="39.24564644802194" lon="16.779322076576175"><ele>672.0</ele><time>2026-03-28T11:48:20Z</time></trkpt><trkpt lat="39.24557888480219" lon="16.779526751235842"><ele>669.6666666666666</ele><time>2026-03-28T11:48:21Z</time></trkpt><trkpt lat="39.24552630947235" lon="16.779726272224554"><ele>667.3333333333333</ele><time>2026-03-28T11:48:22Z</time></trkpt><trkpt lat="39.245470110551814" lon="16.779911249149407"><ele>665.0</ele><time>2026-03-28T11:48:23Z</time></trkpt><trkpt lat="39.245421082302656" lon="16.780090122244783"><ele>665.0</ele><time>2026-03-28T11:48:24Z</time></trkpt><trkpt lat="39.245378149592014" lon="16.780263298287064"><ele>665.0</ele><time>2026-03-28T11:48:25Z</time></trkpt><trkpt lat="39.24533877885185" lon="16.780413200251278"><ele>665.0</ele><time>2026-03-28T11:48:26Z</time></trkpt><trkpt lat="39.24529523644047" lon="16.780548045023878"><ele>665.0</ele><time>2026-03-28T11:48:27Z</time></trkpt><trkpt lat="39.24524782409007" lon="16.780671389150413"><ele>665.0</ele><time>2026-03-28T11:48:28Z</time></trkpt><trkpt lat="39.245205096194866" lon="16.780788455056783"><ele>665.0</ele><time>2026-03-28T11:48:29Z</time></trkpt><trkpt lat="39.245167508392534" lon="16.78089963430021"><ele>665.0</ele><time>2026-03-28T11:48:30Z</time></trkpt><trkpt lat="39.245133027713415" lon="16.781005620464903"><ele>665.0</ele><time>2026-03-28T11:48:31Z</time></trkpt><trkpt lat="39.24509622177316" lon="16.78111991721709"><ele>665.0</ele><time>2026-03-28T11:48:32Z</time></trkpt><trkpt lat="39.245060598580714" lon="16.78123575749494"><ele>664.2</ele><time>2026-03-28T11:48:33Z</time></trkpt><trkpt lat="39.24502165051522" lon="16.781354821743736"><ele>663.4</ele><time>2026-03-28T11:48:34Z</time></trkpt><trkpt lat="39.244978454003274" lon="16.78147573486425"><ele>662.5999999999999</ele><time>2026-03-28T11:48:35Z</time></trkpt><trkpt lat="39.2449157710278" lon="16.78159224011389"><ele>661.8</ele><time>2026-03-28T11:48:36Z</time></trkpt><trkpt lat="39.244838997086916" lon="16.781709684622285"><ele>661.0</ele><time>2026-03-28T11:48:37Z</time></trkpt><trkpt lat="39.24474632865745" lon="16.781848201431966"><ele>658.5</ele><time>2026-03-28T11:48:38Z</time></trkpt><trkpt lat="39.244657705831855" lon="16.781981293074093"><ele>656.0</ele><time>2026-03-28T11:48:39Z</time></trkpt><trkpt lat="39.24457595359243" lon="16.78210608791317"><ele>653.5</ele><time>2026-03-28T11:48:40Z</time></trkpt><trkpt lat="39.244503196735096" lon="16.78222053269925"><ele>651.0</ele><time>2026-03-28T11:48:41Z</time></trkpt><trkpt lat="39.244437208583975" lon="16.782335364453047"><ele>651.0</ele><time>2026-03-28T11:48:42Z</time></trkpt><trkpt lat="39.24437485106193" lon="16.78244747142039"><ele>651.0</ele><time>2026-03-28T11:48:43Z</time></trkpt><trkpt lat="39.24432090929434" lon="16.78255453717295"><ele>651.0</ele><time>2026-03-28T11:48:44Z</time></trkpt><trkpt lat="39.244265104394465" lon="16.782656596050955"><ele>651.0</ele><time>2026-03-28T11:48:45Z</time></trkpt><trkpt lat="39.24421237458634" lon="16.7827536293545"><ele>651.0</ele><time>2026-03-28T11:48:46Z</time></trkpt><trkpt lat="39.24416370075169" lon="16.78284437828518"><ele>650.5</ele><time>2026-03-28T11:48:47Z</time></trkpt><trkpt lat="39.24411379635902" lon="16.782933221195915"><ele>650.0</ele><time>2026-03-28T11:48:48Z</time></trkpt><trkpt lat="39.24406899925979" lon="16.783021951333208"><ele>649.5</ele><time>2026-03-28T11:48:49Z</time></trkpt><trkpt lat="39.244024358248296" lon="16.783104849290503"><ele>649.0</ele><time>2026-03-28T11:48:50Z</time></trkpt><trkpt lat="39.24398104792358" lon="16.78318946121047"><ele>648.5</ele><time>2026-03-28T11:48:51Z</time></trkpt><trkpt lat="39.243937236303296" lon="16.783270041222792"><ele>648.0</ele><time>2026-03-28T11:48:52Z</time></trkpt><trkpt lat="39.2438802369354" lon="16.783374267253333"><ele>646.1666666666666</ele><time>2026-03-28T11:48:54Z</time></trkpt><trkpt lat="39.243836056098054" lon="16.783467000897982"><ele>644.3333333333334</ele><time>2026-03-28T11:48:56Z</time></trkpt><trkpt lat="39.24379569809749" lon="16.78355109862444"><ele>642.5</ele><time>2026-03-28T11:48:57Z</time></trkpt><trkpt lat="39.24375160850441" lon="16.78362835673093"><ele>640.6666666666667</ele><time>2026-03-28T11:48:58Z</time></trkpt><trkpt lat="39.24371514042069" lon="16.78369695811363"><ele>638.8333333333334</ele><time>2026-03-28T11:48:59Z</time></trkpt><trkpt lat="39.24365430203579" lon="16.78380781847403"><ele>637.0</ele><time>2026-03-28T11:49:01Z</time></trkpt><trkpt lat="39.24354536256255" lon="16.783879644796485"><ele>636.75</ele><time>2026-03-28T11:49:03Z</time></trkpt><trkpt lat="39.24346126844156" lon="16.783932575307905"><ele>636.5</ele><time>2026-03-28T11:49:04Z</time></trkpt><trkpt lat="39.243362234009616" lon="16.784036905361315"><ele>636.25</ele><time>2026-03-28T11:49:05Z</time></trkpt><trkpt lat="39.24327107835982" lon="16.784163795941346"><ele>636.0</ele><time>2026-03-28T11:49:06Z</time></trkpt><trkpt lat="39.243206442463546" lon="16.784280267059817"><ele>635.2</ele><time>2026-03-28T11:49:07Z</time></trkpt><trkpt lat="39.24316418878881" lon="16.784402953042346"><ele>634.4000000000001</ele><time>2026-03-28T11:49:08Z</time></trkpt><trkpt lat="39.24313857965161" lon="16.78452750962803"><ele>633.6</ele><time>2026-03-28T11:49:09Z</time></trkpt><trkpt lat="39.24311541314936" lon="16.784644183017903"><ele>632.8000000000001</ele><time>2026-03-28T11:49:10Z</time></trkpt><trkpt lat="39.24308258127087" lon="16.784758536493527"><ele>632.0</ele><time>2026-03-28T11:49:11Z</time></trkpt><trkpt lat="39.24304452454072" lon="16.784884944685352"><ele>631.8333333333333</ele><time>2026-03-28T11:49:12Z</time></trkpt><trkpt lat="39.24301363368876" lon="16.785011980255653"><ele>631.6666666666666</ele><time>2026-03-28T11:49:13Z</time></trkpt><trkpt lat="39.242989180094334" lon="16.785130069221395"><ele>631.5</ele><time>2026-03-28T11:49:14Z</time></trkpt><trkpt lat="39.242969236035144" lon="16.785238073045715"><ele>631.3333333333334</ele><time>2026-03-28T11:49:15Z</time></trkpt><trkpt lat="39.24294979358274" lon="16.785338051971127"><ele>631.1666666666667</ele><time>2026-03-28T11:49:16Z</time></trkpt><trkpt lat="39.2429380016189" lon="16.785444784296157"><ele>631.0</ele><time>2026-03-28T11:49:17Z</time></trkpt><trkpt lat="39.24292549297704" lon="16.78555618143646"><ele>630.6</ele><time>2026-03-28T11:49:18Z</time></trkpt><trkpt lat="39.242905425582315" lon="16.78566842654324"><ele>630.2</ele><time>2026-03-28T11:49:19Z</time></trkpt><trkpt lat="39.242882292169654" lon="16.785784116418018"><ele>629.8</ele><time>2026-03-28T11:49:20Z</time></trkpt><trkpt lat="39.24285793061246" lon="16.785906293129916"><ele>629.4</ele><time>2026-03-28T11:49:21Z</time></trkpt><trkpt lat="39.242830007816444" lon="16.786028782110744"><ele>629.0</ele><time>2026-03-28T11:49:22Z</time></trkpt><trkpt lat="39.242803718954164" lon="16.78614793802551"><ele>628.4</ele><time>2026-03-28T11:49:23Z</time></trkpt><trkpt lat="39.2427768183925" lon="16.786270332266277"><ele>627.8</ele><time>2026-03-28T11:49:24Z</time></trkpt><trkpt lat="39.24275053415963" lon="16.786397359929143"><ele>627.2</ele><time>2026-03-28T11:49:25Z</time></trkpt><trkpt lat="39.24272312305795" lon="16.786528341261494"><ele>626.6</ele><time>2026-03-28T11:49:26Z</time></trkpt><trkpt lat="39.24269622505816" lon="16.786660850290566"><ele>626.0</ele><time>2026-03-28T11:49:27Z</time></trkpt><trkpt lat="39.24266937099727" lon="16.7867955127948"><ele>624.6</ele><time>2026-03-28T11:49:28Z</time></trkpt><trkpt lat="39.24264302341302" lon="16.78693254269936"><ele>623.2</ele><time>2026-03-28T11:49:29Z</time></trkpt><trkpt lat="39.24261912560385" lon="16.787067338856083"><ele>621.8</ele><time>2026-03-28T11:49:30Z</time></trkpt><trkpt lat="39.242597932265845" lon="16.787189738319192"><ele>620.4</ele><time>2026-03-28T11:49:31Z</time></trkpt><trkpt lat="39.24258058698373" lon="16.78731160723931"><ele>619.0</ele><time>2026-03-28T11:49:32Z</time></trkpt><trkpt lat="39.24257299121459" lon="16.787424855768954"><ele>619.0</ele><time>2026-03-28T11:49:32.999Z</time></trkpt><trkpt lat="39.24254717525915" lon="16.7875649551241"><ele>619.0</ele><time>2026-03-28T11:49:33.999Z</time></trkpt><trkpt lat="39.24249979840198" lon="16.78773056268351"><ele>619.0</ele><time>2026-03-28T11:49:34.999Z</time></trkpt><trkpt lat="39.24243829706968" lon="16.7879210509043"><ele>619.0</ele><time>2026-03-28T11:49:35.999Z</time></trkpt><trkpt lat="39.24235644267311" lon="16.788124498176458"><ele>617.0</ele><time>2026-03-28T11:49:36.999Z</time></trkpt><trkpt lat="39.242266987397535" lon="16.788328927436147"><ele>615.0</ele><time>2026-03-28T11:49:37.999Z</time></trkpt><trkpt lat="39.24218999212693" lon="16.788516552143985"><ele>613.0</ele><time>2026-03-28T11:49:38.999Z</time></trkpt><trkpt lat="39.24212097836529" lon="16.788671862033947"><ele>611.5</ele><time>2026-03-28T11:49:39.999Z</time></trkpt><trkpt lat="39.24205412407593" lon="16.78882887843366"><ele>610.0</ele><time>2026-03-28T11:49:40.999Z</time></trkpt><trkpt lat="39.241987500236164" lon="16.788968771031247"><ele>608.5</ele><time>2026-03-28T11:49:41.999Z</time></trkpt><trkpt lat="39.24191561378642" lon="16.789093286311047"><ele>607.0</ele><time>2026-03-28T11:49:42.999Z</time></trkpt><trkpt lat="39.24183997174977" lon="16.789197913060946"><ele>607.0</ele><time>2026-03-28T11:49:43.999Z</time></trkpt><trkpt lat="39.24177819307252" lon="16.789276863878154"><ele>607.0</ele><time>2026-03-28T11:49:44.999Z</time></trkpt><trkpt lat="39.24172236635529" lon="16.78935844585333"><ele>607.0</ele><time>2026-03-28T11:49:45.999Z</time></trkpt><trkpt lat="39.241669108659764" lon="16.78943272537977"><ele>607.0</ele><time>2026-03-28T11:49:46.999Z</time></trkpt><trkpt lat="39.24162135521294" lon="16.789504601249327"><ele>607.0</ele><time>2026-03-28T11:49:47.999Z</time></trkpt><trkpt lat="39.24158311266531" lon="16.789571724038602"><ele>607.0</ele><time>2026-03-28T11:49:48.999Z</time></trkpt><trkpt lat="39.241514440771574" lon="16.7896776431593"><ele>603.6666666666667</ele><time>2026-03-28T11:49:50.999Z</time></trkpt><trkpt lat="39.24146075713364" lon="16.78974227440183"><ele>600.3333333333334</ele><time>2026-03-28T11:49:52.999Z</time></trkpt><trkpt lat="39.24141054260828" lon="16.7898110114773"><ele>597.0</ele><time>2026-03-28T11:49:57.999Z</time></trkpt><trkpt lat="39.24134498137332" lon="16.78988939643969"><ele>593.6666666666666</ele><time>2026-03-28T11:50:02.999Z</time></trkpt><trkpt lat="39.241280890575126" lon="16.789945132750873"><ele>590.3333333333333</ele><time>2026-03-28T11:50:05.999Z</time></trkpt><trkpt lat="39.24120396124901" lon="16.789970520753382"><ele>587.0</ele><time>2026-03-28T11:50:08.999Z</time></trkpt><trkpt lat="39.241138787323656" lon="16.7899855686631"><ele>587.0</ele><time>2026-03-28T11:50:10.999Z</time></trkpt><trkpt lat="39.24105577891836" lon="16.790050847702776"><ele>587.0</ele><time>2026-03-28T11:50:12.999Z</time></trkpt><trkpt lat="39.24100513168793" lon="16.790120329163482"><ele>587.0</ele><time>2026-03-28T11:50:13.999Z</time></trkpt><trkpt lat="39.240960558673486" lon="16.790199269600937"><ele>587.0</ele><time>2026-03-28T11:50:14.999Z</time></trkpt><trkpt lat="39.24093161270506" lon="16.79027942829275"><ele>587.0</ele><time>2026-03-28T11:50:15.999Z</time></trkpt><trkpt lat="39.24090174001051" lon="16.79041005376746"><ele>587.0</ele><time>2026-03-28T11:50:18Z</time></trkpt><trkpt lat="39.24086162668971" lon="16.790544320680905"><ele>586.5</ele><time>2026-03-28T11:50:20Z</time></trkpt><trkpt lat="39.24081676545038" lon="16.790639647750826"><ele>586.0</ele><time>2026-03-28T11:50:22Z</time></trkpt><trkpt lat="39.24077609666293" lon="16.790716382687716"><ele>585.5</ele><time>2026-03-28T11:50:26Z</time></trkpt><trkpt lat="39.24074280487843" lon="16.79081441496371"><ele>585.0</ele><time>2026-03-28T11:50:42Z</time></trkpt><trkpt lat="39.24071671980857" lon="16.7909542294865"><ele>584.5</ele><time>2026-03-28T11:50:44Z</time></trkpt><trkpt lat="39.240703454823574" lon="16.791038386684235"><ele>584.0</ele><time>2026-03-28T11:50:45Z</time></trkpt><trkpt lat="39.24069159261137" lon="16.791132069372377"><ele>582.6666666666666</ele><time>2026-03-28T11:50:46Z</time></trkpt><trkpt lat="39.240678564796006" lon="16.791228481889398"><ele>581.3333333333333</ele><time>2026-03-28T11:50:47Z</time></trkpt><trkpt lat="39.24065602082221" lon="16.791326993251225"><ele>580.0</ele><time>2026-03-28T11:50:48Z</time></trkpt><trkpt lat="39.24063398425817" lon="16.79142082736548"><ele>578.6666666666666</ele><time>2026-03-28T11:50:49Z</time></trkpt><trkpt lat="39.24060762343589" lon="16.791515753009328"><ele>577.3333333333334</ele><time>2026-03-28T11:50:50Z</time></trkpt><trkpt lat="39.24057017900962" lon="16.791606676575892"><ele>576.0</ele><time>2026-03-28T11:50:51Z</time></trkpt><trkpt lat="39.240518906266864" lon="16.791686916537383"><ele>574.8</ele><time>2026-03-28T11:50:52Z</time></trkpt><trkpt lat="39.240469433632654" lon="16.791788669683367"><ele>573.6</ele><time>2026-03-28T11:50:53Z</time></trkpt><trkpt lat="39.24043364034288" lon="16.791880737103373"><ele>572.4</ele><time>2026-03-28T11:50:54Z</time></trkpt><trkpt lat="39.24040529236187" lon="16.791985411705504"><ele>571.2</ele><time>2026-03-28T11:50:56Z</time></trkpt><trkpt lat="39.24031318630731" lon="16.79207340444577"><ele>570.0</ele><time>2026-03-28T11:50:58Z</time></trkpt><trkpt lat="39.24024820075844" lon="16.792149967885557"><ele>570.0</ele><time>2026-03-28T11:50:59Z</time></trkpt><trkpt lat="39.240202946127084" lon="16.79224572831424"><ele>570.0</ele><time>2026-03-28T11:51:00Z</time></trkpt><trkpt lat="39.24013722277935" lon="16.7923233207775"><ele>570.0</ele><time>2026-03-28T11:51:01Z</time></trkpt><trkpt lat="39.24005641295533" lon="16.7923594722674"><ele>570.0</ele><time>2026-03-28T11:51:02Z</time></trkpt><trkpt lat="39.23999726249395" lon="16.79240901782353"><ele>570.0</ele><time>2026-03-28T11:51:03Z</time></trkpt><trkpt lat="39.23994228581045" lon="16.792460298331715"><ele>570.0</ele><time>2026-03-28T11:51:04Z</time></trkpt><trkpt lat="39.2398927589639" lon="16.792512344054604"><ele>570.0</ele><time>2026-03-28T11:51:05Z</time></trkpt><trkpt lat="39.23983532924338" lon="16.79263792549175"><ele>570.0</ele><time>2026-03-28T11:51:07Z</time></trkpt><trkpt lat="39.23977125489402" lon="16.792765405549993"><ele>570.0</ele><time>2026-03-28T11:51:09Z</time></trkpt><trkpt lat="39.23971072091925" lon="16.792789874355087"><ele>570.0</ele><time>2026-03-28T11:51:12Z</time></trkpt><trkpt lat="39.239651763074384" lon="16.792838585332444"><ele>570.0</ele><time>2026-03-28T11:51:17Z</time></trkpt><trkpt lat="39.23957862380018" lon="16.792899934190228"><ele>565.2</ele><time>2026-03-28T11:51:31.999Z</time></trkpt><trkpt lat="39.239581284079755" lon="16.793049093171966"><ele>560.4</ele><time>2026-03-28T11:51:34.999Z</time></trkpt><trkpt lat="39.23952445975403" lon="16.793177138907815"><ele>555.6</ele><time>2026-03-28T11:51:36.999Z</time></trkpt><trkpt lat="39.2394919912915" lon="16.79332545549934"><ele>550.8</ele><time>2026-03-28T11:51:38.999Z</time></trkpt><trkpt lat="39.23949616369902" lon="16.793427915559533"><ele>546.0</ele><time>2026-03-28T11:51:39.999Z</time></trkpt><trkpt lat="39.2395027691466" lon="16.793519615249494"><ele>545.6666666666666</ele><time>2026-03-28T11:51:40.999Z</time></trkpt><trkpt lat="39.23949862832244" lon="16.79361188999804"><ele>545.3333333333334</ele><time>2026-03-28T11:51:41.999Z</time></trkpt><trkpt lat="39.239492527597086" lon="16.793707535257745"><ele>545.0</ele><time>2026-03-28T11:51:42.999Z</time></trkpt><trkpt lat="39.239472355638306" lon="16.793796404350466"><ele>544.6666666666667</ele><time>2026-03-28T11:51:43.999Z</time></trkpt><trkpt lat="39.23944321211034" lon="16.793947434431"><ele>544.3333333333334</ele><time>2026-03-28T11:51:45.999Z</time></trkpt><trkpt lat="39.2394961645338" lon="16.79404641210422"><ele>544.0</ele><time>2026-03-28T11:51:47.999Z</time></trkpt><trkpt lat="39.239552491158484" lon="16.794086723680874"><ele>544.0</ele><time>2026-03-28T11:51:48.999Z</time></trkpt><trkpt lat="39.23965707977292" lon="16.794101310105976"><ele>544.0</ele><time>2026-03-28T11:51:50.999Z</time></trkpt><trkpt lat="39.23975835640917" lon="16.794080201123318"><ele>544.0</ele><time>2026-03-28T11:51:52.999Z</time></trkpt><trkpt lat="39.23984457480935" lon="16.794032140664736"><ele>544.0</ele><time>2026-03-28T11:51:54.999Z</time></trkpt><trkpt lat="39.239905340011504" lon="16.79398511301946"><ele>544.0</ele><time>2026-03-28T11:51:56.999Z</time></trkpt><trkpt lat="39.23994658687558" lon="16.794075362475827"><ele>544.6</ele><time>2026-03-28T11:51:58.999Z</time></trkpt><trkpt lat="39.2399007914669" lon="16.794201231130987"><ele>545.2</ele><time>2026-03-28T11:52:00.999Z</time></trkpt><trkpt lat="39.23987348482802" lon="16.79433481648902"><ele>545.8000000000001</ele><time>2026-03-28T11:52:02.999Z</time></trkpt><trkpt lat="39.23985099316689" lon="16.794428051671325"><ele>546.4</ele><time>2026-03-28T11:52:04.999Z</time></trkpt><trkpt lat="39.23982262128201" lon="16.794534977941446"><ele>547.0</ele><time>2026-03-28T11:52:06.999Z</time></trkpt><trkpt lat="39.239799878521424" lon="16.794626535024776"><ele>545.4</ele><time>2026-03-28T11:52:08.999Z</time></trkpt><trkpt lat="39.239778226935165" lon="16.794733895950195"><ele>543.8000000000001</ele><time>2026-03-28T11:52:10.999Z</time></trkpt><trkpt lat="39.23977837546083" lon="16.79484363911379"><ele>542.2</ele><time>2026-03-28T11:52:12.999Z</time></trkpt><trkpt lat="39.23979102888531" lon="16.794936696001024"><ele>540.6</ele><time>2026-03-28T11:52:14.999Z</time></trkpt><trkpt lat="39.2398063642701" lon="16.795073918927823"><ele>539.0</ele><time>2026-03-28T11:52:17.999Z</time></trkpt><trkpt lat="39.23980844597691" lon="16.795211136630044"><ele>537.0</ele><time>2026-03-28T11:52:19.999Z</time></trkpt><trkpt lat="39.23977655105775" lon="16.79534161146236"><ele>535.0</ele><time>2026-03-28T11:52:21.999Z</time></trkpt><trkpt lat="39.23975162739179" lon="16.795486047597677"><ele>533.0</ele><time>2026-03-28T11:52:24Z</time></trkpt><trkpt lat="39.239751921601844" lon="16.795628315127086"><ele>531.0</ele><time>2026-03-28T11:52:25.999Z</time></trkpt><trkpt lat="39.239727253274246" lon="16.79573369042059"><ele>529.0</ele><time>2026-03-28T11:52:27.999Z</time></trkpt><trkpt lat="39.239743596030955" lon="16.79583567269274"><ele>529.0</ele><time>2026-03-28T11:52:31.999Z</time></trkpt><trkpt lat="39.23971895131193" lon="16.795941157264014"><ele>529.0</ele><time>2026-03-28T11:52:34.999Z</time></trkpt><trkpt lat="39.23972098983791" lon="16.79603456005295"><ele>529.0</ele><time>2026-03-28T11:52:37.999Z</time></trkpt><trkpt lat="39.23972676643747" lon="16.796125179124765"><ele>529.0</ele><time>2026-03-28T11:52:40.999Z</time></trkpt><trkpt lat="39.23972126608737" lon="16.796206772994623"><ele>529.0</ele><time>2026-03-28T11:53:12.999Z</time></trkpt><trkpt lat="39.23969912289084" lon="16.79629140941494"><ele>529.0</ele><time>2026-03-28T11:53:42.999Z</time></trkpt><trkpt lat="39.23969611286492" lon="16.796375562453065"><ele>529.0</ele><time>2026-03-28T11:54:17.999Z</time></trkpt><trkpt lat="39.23970103334527" lon="16.796477650188795"><ele>526.1666666666667</ele><time>2026-03-28T11:54:36.999Z</time></trkpt><trkpt lat="39.23972416768714" lon="16.796557836776245"><ele>523.3333333333334</ele><time>2026-03-28T11:54:58.999Z</time></trkpt><trkpt lat="39.239771792280315" lon="16.79661729409285"><ele>520.5</ele><time>2026-03-28T11:55:10.999Z</time></trkpt><trkpt lat="39.23980987016533" lon="16.796696749093808"><ele>517.6666666666666</ele><time>2026-03-28T11:55:31.999Z</time></trkpt><trkpt lat="39.23978592719889" lon="16.796848075185956"><ele>514.8333333333333</ele><time>2026-03-28T11:55:33.999Z</time></trkpt><trkpt lat="39.23979145809897" lon="16.796939849305723"><ele>512.0</ele><time>2026-03-28T11:55:34.999Z</time></trkpt><trkpt lat="39.23978947786073" lon="16.797023013587268"><ele>510.8</ele><time>2026-03-28T11:55:35.999Z</time></trkpt><trkpt lat="39.23977986318585" lon="16.79716827100787"><ele>509.6</ele><time>2026-03-28T11:55:36.999Z</time></trkpt><trkpt lat="39.239738730358134" lon="16.7973213367714"><ele>508.40000000000003</ele><time>2026-03-28T11:55:37.999Z</time></trkpt><trkpt lat="39.23969119108587" lon="16.797443258097534"><ele>507.20000000000005</ele><time>2026-03-28T11:55:38.999Z</time></trkpt><trkpt lat="39.23965933529975" lon="16.797543700474403"><ele>506.0</ele><time>2026-03-28T11:55:39.999Z</time></trkpt><trkpt lat="39.23963444203118" lon="16.797623493030866"><ele>505.4285714285715</ele><time>2026-03-28T11:55:40.999Z</time></trkpt><trkpt lat="39.23960515297765" lon="16.797710790575636"><ele>504.8571428571429</ele><time>2026-03-28T11:55:42.999Z</time></trkpt><trkpt lat="39.23958276874652" lon="16.797800352496008"><ele>504.2857142857143</ele><time>2026-03-28T11:56:07.999Z</time></trkpt><trkpt lat="39.239550564958755" lon="16.797870940440728"><ele>503.7142857142857</ele><time>2026-03-28T11:56:26.999Z</time></trkpt><trkpt lat="39.23950588629758" lon="16.797931362052243"><ele>503.1428571428571</ele><time>2026-03-28T11:56:32.999Z</time></trkpt><trkpt lat="39.23946462943907" lon="16.79799379770477"><ele>502.5714285714285</ele><time>2026-03-28T11:56:44.999Z</time></trkpt><trkpt lat="39.239433115997194" lon="16.798073806683348"><ele>501.99999999999994</ele><time>2026-03-28T11:56:49.999Z</time></trkpt><trkpt lat="39.239382149613355" lon="16.798133395263694"><ele>502.00000000000006</ele><time>2026-03-28T11:56:57.999Z</time></trkpt><trkpt lat="39.23931664666507" lon="16.79819110643294"><ele>502.0</ele><time>2026-03-28T11:57:07.999Z</time></trkpt><trkpt lat="39.23927277348562" lon="16.798277775006955"><ele>502.0</ele><time>2026-03-28T11:57:11.999Z</time></trkpt><trkpt lat="39.2392348796471" lon="16.798357671019197"><ele>502.0</ele><time>2026-03-28T11:57:16.999Z</time></trkpt><trkpt lat="39.239211724928545" lon="16.798466261316392"><ele>502.00000000000006</ele><time>2026-03-28T11:57:17.999Z</time></trkpt><trkpt lat="39.23921008372479" lon="16.798614328695937"><ele>502.0</ele><time>2026-03-28T11:57:19.999Z</time></trkpt><trkpt lat="39.23920451101009" lon="16.79869669177247"><ele>501.42857142857133</ele><time>2026-03-28T11:57:21.999Z</time></trkpt><trkpt lat="39.239200133182216" lon="16.798783830587542"><ele>500.85714285714283</ele><time>2026-03-28T11:57:27.999Z</time></trkpt><trkpt lat="39.23921216006043" lon="16.798868141306897"><ele>500.2857142857142</ele><time>2026-03-28T11:57:32.999Z</time></trkpt><trkpt lat="39.23920243122609" lon="16.79895278495209"><ele>499.71428571428567</ele><time>2026-03-28T11:57:36.999Z</time></trkpt><trkpt lat="39.23917320828569" lon="16.79905351107032"><ele>499.1428571428571</ele><time>2026-03-28T11:57:40.999Z</time></trkpt><trkpt lat="39.2391410337818" lon="16.799150889344464"><ele>498.57142857142856</ele><time>2026-03-28T11:57:44.999Z</time></trkpt><trkpt lat="39.23912381681039" lon="16.799230199033566"><ele>498.0</ele><time>2026-03-28T11:57:46.999Z</time></trkpt><trkpt lat="39.239117587483776" lon="16.799332869038302"><ele>497.0</ele><time>2026-03-28T11:57:48.999Z</time></trkpt><trkpt lat="39.23910561793274" lon="16.799417396371247"><ele>495.99999999999994</ele><time>2026-03-28T11:57:50.999Z</time></trkpt><trkpt lat="39.239117862117006" lon="16.79951627636299"><ele>495.0</ele><time>2026-03-28T11:57:53.999Z</time></trkpt><trkpt lat="39.23913215562675" lon="16.799617428844215"><ele>494.0</ele><time>2026-03-28T11:57:56.999Z</time></trkpt><trkpt lat="39.23911883019439" lon="16.799700788888906"><ele>492.99999999999994</ele><time>2026-03-28T11:58:12.999Z</time></trkpt><trkpt lat="39.23908383202147" lon="16.799781505686425"><ele>492.0</ele><time>2026-03-28T11:58:21.999Z</time></trkpt><trkpt lat="39.23900888990678" lon="16.799811652609428"><ele>491.0</ele><time>2026-03-28T11:58:23.999Z</time></trkpt><trkpt lat="39.238926632717906" lon="16.799788685002277"><ele>488.8333333333333</ele><time>2026-03-28T11:58:24.999Z</time></trkpt><trkpt lat="39.23883491518255" lon="16.799856726181805"><ele>486.66666666666663</ele><time>2026-03-28T11:58:26.999Z</time></trkpt><trkpt lat="39.238778635252544" lon="16.799899787268966"><ele>484.5</ele><time>2026-03-28T11:58:28.999Z</time></trkpt><trkpt lat="39.23872412565808" lon="16.799946016851553"><ele>482.33333333333337</ele><time>2026-03-28T11:58:30.999Z</time></trkpt><trkpt lat="39.23865893089424" lon="16.799997859447316"><ele>480.1666666666667</ele><time>2026-03-28T11:58:32.999Z</time></trkpt><trkpt lat="39.2385645013887" lon="16.800066584811436"><ele>478.0</ele><time>2026-03-28T11:58:34.999Z</time></trkpt><trkpt lat="39.23845524439428" lon="16.800117715501205"><ele>478.0</ele><time>2026-03-28T11:58:36.999Z</time></trkpt><trkpt lat="39.23838414674222" lon="16.800140654619497"><ele>477.99999999999994</ele><time>2026-03-28T11:58:37.999Z</time></trkpt><trkpt lat="39.238333206729955" lon="16.80033356360783"><ele>477.99999999999994</ele><time>2026-03-28T11:58:38.999Z</time></trkpt><trkpt lat="39.23827288866501" lon="16.800447285422166"><ele>478.0</ele><time>2026-03-28T11:58:39.999Z</time></trkpt><trkpt lat="39.23821836593133" lon="16.800541073432136"><ele>478.0</ele><time>2026-03-28T11:58:40.999Z</time></trkpt><trkpt lat="39.238174847291305" lon="16.800633103009176"><ele>475.79999999999995</ele><time>2026-03-28T11:58:41.999Z</time></trkpt><trkpt lat="39.238134303523104" lon="16.800715109518514"><ele>473.59999999999997</ele><time>2026-03-28T11:58:42.999Z</time></trkpt><trkpt lat="39.23807318834284" lon="16.80083821412033"><ele>471.40000000000003</ele><time>2026-03-28T11:58:44.999Z</time></trkpt><trkpt lat="39.238004324824125" lon="16.800970886235042"><ele>469.20000000000005</ele><time>2026-03-28T11:58:46.999Z</time></trkpt><trkpt lat="39.237967420349804" lon="16.801056909501238"><ele>467.0</ele><time>2026-03-28T11:58:47.999Z</time></trkpt><trkpt lat="39.237929644845316" lon="16.801151950380813"><ele>466.20000000000005</ele><time>2026-03-28T11:58:48.999Z</time></trkpt><trkpt lat="39.23790135380347" lon="16.801234268638904"><ele>465.40000000000003</ele><time>2026-03-28T11:58:49.999Z</time></trkpt><trkpt lat="39.23787313547079" lon="16.80133014656654"><ele>464.59999999999997</ele><time>2026-03-28T11:58:50.999Z</time></trkpt><trkpt lat="39.23784193140173" lon="16.801469200567237"><ele>463.79999999999995</ele><time>2026-03-28T11:58:51.999Z</time></trkpt><trkpt lat="39.23781771943494" lon="16.801580836174228"><ele>463.0</ele><time>2026-03-28T11:58:52.999Z</time></trkpt><trkpt lat="39.23778622855436" lon="16.801718998222334"><ele>461.79999999999995</ele><time>2026-03-28T11:58:54.999Z</time></trkpt><trkpt lat="39.23775541209778" lon="16.801866968804177"><ele>460.59999999999997</ele><time>2026-03-28T11:58:56.999Z</time></trkpt><trkpt lat="39.237735862009" lon="16.80194655844866"><ele>459.40000000000003</ele><time>2026-03-28T11:58:57.999Z</time></trkpt><trkpt lat="39.237716653258545" lon="16.802077737113255"><ele>458.20000000000005</ele><time>2026-03-28T11:58:59.999Z</time></trkpt><trkpt lat="39.23774468171628" lon="16.802223515821915"><ele>457.0</ele><time>2026-03-28T11:59:01.999Z</time></trkpt><trkpt lat="39.23783113352095" lon="16.802343110350275"><ele>457.0</ele><time>2026-03-28T11:59:03.999Z</time></trkpt><trkpt lat="39.23788906249771" lon="16.802384164445158"><ele>457.00000000000006</ele><time>2026-03-28T11:59:04.999Z</time></trkpt><trkpt lat="39.23799031054701" lon="16.802426627330334"><ele>457.00000000000006</ele><time>2026-03-28T11:59:06.999Z</time></trkpt><trkpt lat="39.23810538199964" lon="16.802406778949994"><ele>457.0</ele><time>2026-03-28T11:59:08.999Z</time></trkpt><trkpt lat="39.23820069975267" lon="16.80238488839838"><ele>457.0</ele><time>2026-03-28T11:59:09.999Z</time></trkpt><trkpt lat="39.238296248283014" lon="16.80236978900367"><ele>458.6666666666667</ele><time>2026-03-28T11:59:10.999Z</time></trkpt><trkpt lat="39.238369599006205" lon="16.802367627341816"><ele>460.33333333333337</ele><time>2026-03-28T11:59:11.999Z</time></trkpt><trkpt lat="39.238452986840855" lon="16.802378523011473"><ele>462.0</ele><time>2026-03-28T11:59:12.999Z</time></trkpt><trkpt lat="39.238534536696854" lon="16.80238955069069"><ele>463.66666666666663</ele><time>2026-03-28T11:59:13.999Z</time></trkpt><trkpt lat="39.23860730526394" lon="16.802399390907933"><ele>465.3333333333333</ele><time>2026-03-28T11:59:14.999Z</time></trkpt><trkpt lat="39.23867981315915" lon="16.802411044178818"><ele>467.0</ele><time>2026-03-28T11:59:15.999Z</time></trkpt><trkpt lat="39.23874627555447" lon="16.802425656103637"><ele>467.0</ele><time>2026-03-28T11:59:16.999Z</time></trkpt><trkpt lat="39.23885060364745" lon="16.802454478218543"><ele>467.00000000000006</ele><time>2026-03-28T11:59:18.999Z</time></trkpt><trkpt lat="39.238932910577724" lon="16.802494678065187"><ele>467.00000000000006</ele><time>2026-03-28T11:59:20.999Z</time></trkpt><trkpt lat="39.239004627976435" lon="16.80259350784663"><ele>467.0</ele><time>2026-03-28T11:59:22.999Z</time></trkpt><trkpt lat="39.23907340893353" lon="16.80267451586329"><ele>467.0</ele><time>2026-03-28T11:59:23.999Z</time></trkpt><trkpt lat="39.23910702809197" lon="16.802789569768567"><ele>467.20000000000005</ele><time>2026-03-28T11:59:24.999Z</time></trkpt><trkpt lat="39.2391244220384" lon="16.802908918456904"><ele>467.40000000000003</ele><time>2026-03-28T11:59:25.999Z</time></trkpt><trkpt lat="39.23912398063318" lon="16.80305116113609"><ele>467.59999999999997</ele><time>2026-03-28T11:59:26.999Z</time></trkpt><trkpt lat="39.23896758909183" lon="16.803113944586208"><ele>467.79999999999995</ele><time>2026-03-28T11:59:27.999Z</time></trkpt><trkpt lat="39.23891119562067" lon="16.803188986320375"><ele>468.0</ele><time>2026-03-28T11:59:29.999Z</time></trkpt><trkpt lat="39.23893324858847" lon="16.803301669321584"><ele>464.0</ele><time>2026-03-28T11:59:31.999Z</time></trkpt><trkpt lat="39.23883463462052" lon="16.803092790516548"><ele>460.0</ele><time>2026-03-28T11:59:32.999Z</time></trkpt><trkpt lat="39.23877140210424" lon="16.803013074024612"><ele>456.0</ele><time>2026-03-28T11:59:33.999Z</time></trkpt><trkpt lat="39.23873642782408" lon="16.802937306214083"><ele>452.0</ele><time>2026-03-28T11:59:34.999Z</time></trkpt><trkpt lat="39.2386746285105" lon="16.80282284340586"><ele>452.0</ele><time>2026-03-28T11:59:36.999Z</time></trkpt><trkpt lat="39.23857273088604" lon="16.802733565088772"><ele>452.00000000000006</ele><time>2026-03-28T11:59:38.999Z</time></trkpt><trkpt lat="39.23850194422214" lon="16.802724507355325"><ele>452.00000000000006</ele><time>2026-03-28T11:59:39.999Z</time></trkpt><trkpt lat="39.23843010961307" lon="16.802721503576127"><ele>452.0</ele><time>2026-03-28T11:59:40.999Z</time></trkpt><trkpt lat="39.23834273603484" lon="16.802736626518126"><ele>452.0</ele><time>2026-03-28T11:59:41.999Z</time></trkpt><trkpt lat="39.23823718585734" lon="16.80282298378682"><ele>451.99999999999994</ele><time>2026-03-28T11:59:42.999Z</time></trkpt><trkpt lat="39.238152236328474" lon="16.80293362734217"><ele>452.0</ele><time>2026-03-28T11:59:43.999Z</time></trkpt><trkpt lat="39.23807885097919" lon="16.803009168401783"><ele>452.0</ele><time>2026-03-28T11:59:45Z</time></trkpt><trkpt lat="39.238006511205235" lon="16.803072362798357"><ele>452.0</ele><time>2026-03-28T11:59:46Z</time></trkpt><trkpt lat="39.23793260686487" lon="16.803088695108418"><ele>451.99999999999994</ele><time>2026-03-28T11:59:47Z</time></trkpt><trkpt lat="39.23786479203596" lon="16.803069596005937"><ele>452.0</ele><time>2026-03-28T11:59:48Z</time></trkpt><trkpt lat="39.23774733034218" lon="16.803010058281078"><ele>453.0</ele><time>2026-03-28T11:59:50Z</time></trkpt><trkpt lat="39.237683464748734" lon="16.802964505449857"><ele>454.00000000000006</ele><time>2026-03-28T11:59:51Z</time></trkpt><trkpt lat="39.237608518246844" lon="16.80290525219721"><ele>455.00000000000006</ele><time>2026-03-28T11:59:52Z</time></trkpt><trkpt lat="39.2375268212261" lon="16.802829594258082"><ele>456.0</ele><time>2026-03-28T11:59:53Z</time></trkpt><trkpt lat="39.237434880331946" lon="16.80271684363416"><ele>457.0</ele><time>2026-03-28T11:59:54Z</time></trkpt><trkpt lat="39.23734282520447" lon="16.802576683135836"><ele>454.0</ele><time>2026-03-28T11:59:55Z</time></trkpt><trkpt lat="39.23726542166669" lon="16.802455258538767"><ele>451.0</ele><time>2026-03-28T11:59:56Z</time></trkpt><trkpt lat="39.23717299554807" lon="16.802366369499524"><ele>448.0</ele><time>2026-03-28T11:59:57Z</time></trkpt><trkpt lat="39.23706536966159" lon="16.802334140321523"><ele>445.0</ele><time>2026-03-28T11:59:58Z</time></trkpt><trkpt lat="39.236943166767915" lon="16.802334978976884"><ele>445.00000000000006</ele><time>2026-03-28T11:59:59Z</time></trkpt><trkpt lat="39.23684006028712" lon="16.80232848762045"><ele>445.0</ele><time>2026-03-28T12:00:00Z</time></trkpt><trkpt lat="39.23676370770243" lon="16.802310535934627"><ele>445.0</ele><time>2026-03-28T12:00:01Z</time></trkpt><trkpt lat="39.23669748967169" lon="16.802279056558408"><ele>445.0</ele><time>2026-03-28T12:00:02Z</time></trkpt><trkpt lat="39.236632164357964" lon="16.80222270371547"><ele>445.00000000000006</ele><time>2026-03-28T12:00:03Z</time></trkpt><trkpt lat="39.23656715675157" lon="16.802138713996865"><ele>445.0</ele><time>2026-03-28T12:00:04Z</time></trkpt><trkpt lat="39.236522434697626" lon="16.802034637831948"><ele>445.00000000000006</ele><time>2026-03-28T12:00:05Z</time></trkpt><trkpt lat="39.236491244098616" lon="16.80192664395588"><ele>445.0</ele><time>2026-03-28T12:00:06Z</time></trkpt><trkpt lat="39.236467236556386" lon="16.801813887797405"><ele>445.0</ele><time>2026-03-28T12:00:07Z</time></trkpt><trkpt lat="39.23644484895084" lon="16.80170388759128"><ele>445.0</ele><time>2026-03-28T12:00:08Z</time></trkpt><trkpt lat="39.23642267394733" lon="16.801610124734776"><ele>445.00000000000006</ele><time>2026-03-28T12:00:09Z</time></trkpt><trkpt lat="39.2363962186113" lon="16.801509244629088"><ele>445.0</ele><time>2026-03-28T12:00:10Z</time></trkpt><trkpt lat="39.23635172916005" lon="16.801412812102527"><ele>444.0</ele><time>2026-03-28T12:00:11Z</time></trkpt><trkpt lat="39.23628697309199" lon="16.801333179406363"><ele>443.0</ele><time>2026-03-28T12:00:12Z</time></trkpt><trkpt lat="39.23620804339907" lon="16.801274727716844"><ele>442.0</ele><time>2026-03-28T12:00:13Z</time></trkpt><trkpt lat="39.236115740987906" lon="16.801233277991486"><ele>441.0</ele><time>2026-03-28T12:00:14Z</time></trkpt><trkpt lat="39.23602125495499" lon="16.80122568778312"><ele>440.0</ele><time>2026-03-28T12:00:15Z</time></trkpt><trkpt lat="39.23592385960583" lon="16.801229096693852"><ele>440.0</ele><time>2026-03-28T12:00:16Z</time></trkpt><trkpt lat="39.235826035649" lon="16.801269395115927"><ele>440.0</ele><time>2026-03-28T12:00:17Z</time></trkpt><trkpt lat="39.23574654514708" lon="16.801351557940492"><ele>440.0</ele><time>2026-03-28T12:00:18Z</time></trkpt><trkpt lat="39.23568011327371" lon="16.801446709557606"><ele>440.0</ele><time>2026-03-28T12:00:19Z</time></trkpt><trkpt lat="39.23561719310011" lon="16.801546308771968"><ele>440.0</ele><time>2026-03-28T12:00:20Z</time></trkpt><trkpt lat="39.23555670601383" lon="16.801648456784655"><ele>437.75</ele><time>2026-03-28T12:00:21Z</time></trkpt><trkpt lat="39.235486231148634" lon="16.801755291799477"><ele>435.5</ele><time>2026-03-28T12:00:22Z</time></trkpt><trkpt lat="39.23540001539706" lon="16.80188644321171"><ele>433.25</ele><time>2026-03-28T12:00:23Z</time></trkpt><trkpt lat="39.23532480022667" lon="16.8020131210211"><ele>431.0</ele><time>2026-03-28T12:00:24Z</time></trkpt><trkpt lat="39.2352546808937" lon="16.802120411667005"><ele>431.0</ele><time>2026-03-28T12:00:25Z</time></trkpt><trkpt lat="39.23517564724081" lon="16.802241726293378"><ele>431.0</ele><time>2026-03-28T12:00:26Z</time></trkpt><trkpt lat="39.23509910891313" lon="16.80235857688876"><ele>431.0</ele><time>2026-03-28T12:00:27Z</time></trkpt><trkpt lat="39.23503624271745" lon="16.802454054604997"><ele>431.0</ele><time>2026-03-28T12:00:28Z</time></trkpt><trkpt lat="39.234973003381555" lon="16.802555294812684"><ele>431.0</ele><time>2026-03-28T12:00:29Z</time></trkpt><trkpt lat="39.23490691081829" lon="16.802658942095718"><ele>431.0</ele><time>2026-03-28T12:00:30Z</time></trkpt><trkpt lat="39.23484571685712" lon="16.802752730772983"><ele>431.0</ele><time>2026-03-28T12:00:31Z</time></trkpt><trkpt lat="39.23478885867865" lon="16.802846216923864"><ele>431.0</ele><time>2026-03-28T12:00:32Z</time></trkpt><trkpt lat="39.23473224105658" lon="16.8029426366161"><ele>431.0</ele><time>2026-03-28T12:00:33Z</time></trkpt><trkpt lat="39.234675765846795" lon="16.803047174571365"><ele>431.0</ele><time>2026-03-28T12:00:34Z</time></trkpt><trkpt lat="39.23462703215074" lon="16.803161131976168"><ele>430.0</ele><time>2026-03-28T12:00:35Z</time></trkpt><trkpt lat="39.234582837405654" lon="16.803274968057792"><ele>429.0</ele><time>2026-03-28T12:00:36Z</time></trkpt><trkpt lat="39.23454731872641" lon="16.803381253190214"><ele>428.0</ele><time>2026-03-28T12:00:37Z</time></trkpt><trkpt lat="39.234513168303536" lon="16.803493461119"><ele>427.0</ele><time>2026-03-28T12:00:38Z</time></trkpt><trkpt lat="39.23448107123978" lon="16.803609616454697"><ele>426.0</ele><time>2026-03-28T12:00:39Z</time></trkpt><trkpt lat="39.23445811736859" lon="16.803720701447585"><ele>426.0</ele><time>2026-03-28T12:00:40Z</time></trkpt><trkpt lat="39.234443964343235" lon="16.803829716983664"><ele>426.0</ele><time>2026-03-28T12:00:41Z</time></trkpt><trkpt lat="39.23444455197703" lon="16.803932257755903"><ele>426.0</ele><time>2026-03-28T12:00:42Z</time></trkpt><trkpt lat="39.23446760500565" lon="16.804020454657078"><ele>426.0</ele><time>2026-03-28T12:00:43Z</time></trkpt><trkpt lat="39.234505602686916" lon="16.80410698601276"><ele>426.0</ele><time>2026-03-28T12:00:44Z</time></trkpt><trkpt lat="39.23456010196197" lon="16.804179892969884"><ele>426.0</ele><time>2026-03-28T12:00:45Z</time></trkpt><trkpt lat="39.23462968610894" lon="16.804234730441912"><ele>426.0</ele><time>2026-03-28T12:00:46Z</time></trkpt><trkpt lat="39.23470883645496" lon="16.804259907690952"><ele>426.0</ele><time>2026-03-28T12:00:47Z</time></trkpt><trkpt lat="39.234791634217245" lon="16.80427739707607"><ele>426.0</ele><time>2026-03-28T12:00:48Z</time></trkpt><trkpt lat="39.23487336668599" lon="16.804278926051943"><ele>426.0</ele><time>2026-03-28T12:00:49Z</time></trkpt><trkpt lat="39.23494531361514" lon="16.804281864299575"><ele>426.0</ele><time>2026-03-28T12:00:50Z</time></trkpt><trkpt lat="39.235010112142994" lon="16.804295401627517"><ele>426.0</ele><time>2026-03-28T12:00:51Z</time></trkpt><trkpt lat="39.23508011556539" lon="16.80432305871157"><ele>424.0</ele><time>2026-03-28T12:00:52Z</time></trkpt><trkpt lat="39.23513801093788" lon="16.804393086319457"><ele>422.0</ele><time>2026-03-28T12:00:53Z</time></trkpt><trkpt lat="39.23517095516473" lon="16.80449740914405"><ele>420.0</ele><time>2026-03-28T12:00:54Z</time></trkpt><trkpt lat="39.23520207008911" lon="16.804637675770714"><ele>418.0</ele><time>2026-03-28T12:00:55Z</time></trkpt><trkpt lat="39.2351929040469" lon="16.804792863238998"><ele>416.0</ele><time>2026-03-28T12:00:56Z</time></trkpt><trkpt lat="39.23518321887978" lon="16.804921207052296"><ele>416.0</ele><time>2026-03-28T12:00:57Z</time></trkpt><trkpt lat="39.23516734228696" lon="16.805036538187494"><ele>416.0</ele><time>2026-03-28T12:00:58Z</time></trkpt><trkpt lat="39.23513315904967" lon="16.805139800541042"><ele>416.0</ele><time>2026-03-28T12:00:59Z</time></trkpt><trkpt lat="39.23508459929068" lon="16.805239846692075"><ele>416.0</ele><time>2026-03-28T12:01:00Z</time></trkpt><trkpt lat="39.2350157146663" lon="16.80532254276795"><ele>416.0</ele><time>2026-03-28T12:01:01Z</time></trkpt><trkpt lat="39.23493106692263" lon="16.805374810077122"><ele>414.4</ele><time>2026-03-28T12:01:02Z</time></trkpt><trkpt lat="39.23483278710727" lon="16.80539430456539"><ele>412.8</ele><time>2026-03-28T12:01:03Z</time></trkpt><trkpt lat="39.23473880756158" lon="16.8053671785081"><ele>411.2</ele><time>2026-03-28T12:01:04Z</time></trkpt><trkpt lat="39.234638433299956" lon="16.80534450075796"><ele>409.59999999999997</ele><time>2026-03-28T12:01:05Z</time></trkpt><trkpt lat="39.23454634648492" lon="16.80533613232781"><ele>408.0</ele><time>2026-03-28T12:01:06Z</time></trkpt><trkpt lat="39.23446837281097" lon="16.805347617931936"><ele>408.0</ele><time>2026-03-28T12:01:07Z</time></trkpt><trkpt lat="39.23439294248345" lon="16.805374579983482"><ele>408.0</ele><time>2026-03-28T12:01:08Z</time></trkpt><trkpt lat="39.23432247816608" lon="16.805433859465122"><ele>408.0</ele><time>2026-03-28T12:01:09Z</time></trkpt><trkpt lat="39.234262010924894" lon="16.805524191129802"><ele>408.0</ele><time>2026-03-28T12:01:10Z</time></trkpt><trkpt lat="39.234210682238434" lon="16.80565127256615"><ele>408.0</ele><time>2026-03-28T12:01:11Z</time></trkpt><trkpt lat="39.2341738586203" lon="16.805794062645116"><ele>408.0</ele><time>2026-03-28T12:01:12Z</time></trkpt><trkpt lat="39.2341374294327" lon="16.8059223596125"><ele>408.0</ele><time>2026-03-28T12:01:13Z</time></trkpt><trkpt lat="39.234097091976146" lon="16.80605235355958"><ele>408.0</ele><time>2026-03-28T12:01:14Z</time></trkpt><trkpt lat="39.23406053741405" lon="16.80616795226219"><ele>408.0</ele><time>2026-03-28T12:01:15Z</time></trkpt><trkpt lat="39.23402860671118" lon="16.806275563639172"><ele>408.0</ele><time>2026-03-28T12:01:16Z</time></trkpt><trkpt lat="39.2339907758667" lon="16.80637060370946"><ele>406.0</ele><time>2026-03-28T12:01:17Z</time></trkpt><trkpt lat="39.233943348780834" lon="16.806447190070816"><ele>404.0</ele><time>2026-03-28T12:01:18Z</time></trkpt><trkpt lat="39.23388173461597" lon="16.806493075575553"><ele>402.0</ele><time>2026-03-28T12:01:19Z</time></trkpt><trkpt lat="39.23381126111719" lon="16.806504463327705"><ele>400.0</ele><time>2026-03-28T12:01:20Z</time></trkpt><trkpt lat="39.233741601845715" lon="16.806471442513935"><ele>398.0</ele><time>2026-03-28T12:01:21Z</time></trkpt><trkpt lat="39.233695543384805" lon="16.806391427119667"><ele>396.0</ele><time>2026-03-28T12:01:22Z</time></trkpt><trkpt lat="39.233656122043655" lon="16.80629592658215"><ele>396.0</ele><time>2026-03-28T12:01:23Z</time></trkpt><trkpt lat="39.23361499940185" lon="16.806214403415208"><ele>396.0</ele><time>2026-03-28T12:01:24Z</time></trkpt><trkpt lat="39.23355872479461" lon="16.8061459154474"><ele>396.0</ele><time>2026-03-28T12:01:25Z</time></trkpt><trkpt lat="39.23348472237482" lon="16.80610065799151"><ele>396.0</ele><time>2026-03-28T12:01:26Z</time></trkpt><trkpt lat="39.23339845442522" lon="16.806074701782062"><ele>396.0</ele><time>2026-03-28T12:01:27Z</time></trkpt><trkpt lat="39.23330493562001" lon="16.806065213865775"><ele>396.0</ele><time>2026-03-28T12:01:28Z</time></trkpt><trkpt lat="39.23320505043643" lon="16.806065653279642"><ele>395.0</ele><time>2026-03-28T12:01:29Z</time></trkpt><trkpt lat="39.23310039806627" lon="16.80606841739572"><ele>394.0</ele><time>2026-03-28T12:01:30Z</time></trkpt><trkpt lat="39.23299450121807" lon="16.806066581033907"><ele>393.0</ele><time>2026-03-28T12:01:31Z</time></trkpt><trkpt lat="39.232889439705" lon="16.806066076294147"><ele>392.0</ele><time>2026-03-28T12:01:32Z</time></trkpt><trkpt lat="39.232799225343186" lon="16.80606188296424"><ele>391.0</ele><time>2026-03-28T12:01:33Z</time></trkpt><trkpt lat="39.232716516899735" lon="16.806049320886245"><ele>391.00000000000006</ele><time>2026-03-28T12:01:34Z</time></trkpt><trkpt lat="39.23263800835684" lon="16.8060213173719"><ele>391.0</ele><time>2026-03-28T12:01:35Z</time></trkpt><trkpt lat="39.2325619334084" lon="16.80597259298"><ele>391.0</ele><time>2026-03-28T12:01:36Z</time></trkpt><trkpt lat="39.23249346591225" lon="16.805912013752838"><ele>391.0</ele><time>2026-03-28T12:01:37Z</time></trkpt><trkpt lat="39.232427223744665" lon="16.805841511745594"><ele>391.00000000000006</ele><time>2026-03-28T12:01:38Z</time></trkpt><trkpt lat="39.23235934467383" lon="16.805773089952247"><ele>391.0</ele><time>2026-03-28T12:01:39Z</time></trkpt><trkpt lat="39.23228144472546" lon="16.80571847025184"><ele>391.8</ele><time>2026-03-28T12:01:40Z</time></trkpt><trkpt lat="39.23219494271364" lon="16.805685676210917"><ele>392.6</ele><time>2026-03-28T12:01:41Z</time></trkpt><trkpt lat="39.23210435893901" lon="16.805667874405675"><ele>393.4</ele><time>2026-03-28T12:01:42Z</time></trkpt><trkpt lat="39.23201290501812" lon="16.805661741622504"><ele>394.2</ele><time>2026-03-28T12:01:43Z</time></trkpt><trkpt lat="39.23192166648596" lon="16.805671107542587"><ele>395.0</ele><time>2026-03-28T12:01:44Z</time></trkpt><trkpt lat="39.231827956748134" lon="16.80569952147356"><ele>395.0</ele><time>2026-03-28T12:01:45Z</time></trkpt><trkpt lat="39.23173355380379" lon="16.805750800344413"><ele>395.0</ele><time>2026-03-28T12:01:46Z</time></trkpt><trkpt lat="39.23164224238174" lon="16.805814383096116"><ele>395.0</ele><time>2026-03-28T12:01:47Z</time></trkpt><trkpt lat="39.23155036714636" lon="16.80589664206445"><ele>395.0</ele><time>2026-03-28T12:01:48Z</time></trkpt><trkpt lat="39.23145206422232" lon="16.80599490259397"><ele>395.0</ele><time>2026-03-28T12:01:49Z</time></trkpt><trkpt lat="39.23134850542728" lon="16.806098279280427"><ele>393.0</ele><time>2026-03-28T12:01:50Z</time></trkpt><trkpt lat="39.231247197477785" lon="16.806205969204413"><ele>391.0</ele><time>2026-03-28T12:01:51Z</time></trkpt><trkpt lat="39.231143509556425" lon="16.806310908765244"><ele>389.0</ele><time>2026-03-28T12:01:52Z</time></trkpt><trkpt lat="39.23104019189513" lon="16.806416479625884"><ele>387.0</ele><time>2026-03-28T12:01:53Z</time></trkpt><trkpt lat="39.230940022752904" lon="16.806517820955197"><ele>387.0</ele><time>2026-03-28T12:01:54Z</time></trkpt><trkpt lat="39.2308471597276" lon="16.806615151113753"><ele>387.0</ele><time>2026-03-28T12:01:55Z</time></trkpt><trkpt lat="39.23076106426878" lon="16.806705071121044"><ele>387.0</ele><time>2026-03-28T12:01:56Z</time></trkpt><trkpt lat="39.23068267774557" lon="16.806784537636947"><ele>387.0</ele><time>2026-03-28T12:01:57Z</time></trkpt><trkpt lat="39.230611354711286" lon="16.806857790165115"><ele>387.0</ele><time>2026-03-28T12:01:58Z</time></trkpt><trkpt lat="39.2305389268784" lon="16.806929316052113"><ele>386.0</ele><time>2026-03-28T12:01:59Z</time></trkpt><trkpt lat="39.23046898731848" lon="16.80700004340461"><ele>385.0</ele><time>2026-03-28T12:02:00Z</time></trkpt><trkpt lat="39.23039596345556" lon="16.80707404379762"><ele>384.0</ele><time>2026-03-28T12:02:01Z</time></trkpt><trkpt lat="39.23032340694867" lon="16.807156332884773"><ele>383.0</ele><time>2026-03-28T12:02:02Z</time></trkpt><trkpt lat="39.23026498052687" lon="16.807257554691496"><ele>382.0</ele><time>2026-03-28T12:02:03Z</time></trkpt><trkpt lat="39.23021827740565" lon="16.807367730408156"><ele>382.0</ele><time>2026-03-28T12:02:04Z</time></trkpt><trkpt lat="39.23016404640568" lon="16.807477167417076"><ele>382.0</ele><time>2026-03-28T12:02:05Z</time></trkpt><trkpt lat="39.230092801036726" lon="16.807564313359318"><ele>382.0</ele><time>2026-03-28T12:02:06Z</time></trkpt><trkpt lat="39.23000437961757" lon="16.807615781326188"><ele>382.0</ele><time>2026-03-28T12:02:07Z</time></trkpt><trkpt lat="39.22991115570551" lon="16.807633870848097"><ele>382.0</ele><time>2026-03-28T12:02:08Z</time></trkpt><trkpt lat="39.22982238820164" lon="16.807655143361288"><ele>379.8</ele><time>2026-03-28T12:02:09Z</time></trkpt><trkpt lat="39.22973377106792" lon="16.807701957974142"><ele>377.6</ele><time>2026-03-28T12:02:10Z</time></trkpt><trkpt lat="39.22965333153336" lon="16.807780306670203"><ele>375.40000000000003</ele><time>2026-03-28T12:02:11Z</time></trkpt><trkpt lat="39.22957995063775" lon="16.80788600811989"><ele>373.20000000000005</ele><time>2026-03-28T12:02:12Z</time></trkpt><trkpt lat="39.22950083850771" lon="16.80799600434004"><ele>371.0</ele><time>2026-03-28T12:02:13Z</time></trkpt><trkpt lat="39.22942180563357" lon="16.808100283928276"><ele>371.0</ele><time>2026-03-28T12:02:14Z</time></trkpt><trkpt lat="39.2293324581353" lon="16.80818168053795"><ele>371.0</ele><time>2026-03-28T12:02:15Z</time></trkpt><trkpt lat="39.22923075192092" lon="16.808235794883153"><ele>371.0</ele><time>2026-03-28T12:02:16Z</time></trkpt><trkpt lat="39.229130450567936" lon="16.80825598848082"><ele>371.0</ele><time>2026-03-28T12:02:17Z</time></trkpt><trkpt lat="39.22903565541423" lon="16.80825661068518"><ele>371.0</ele><time>2026-03-28T12:02:18Z</time></trkpt><trkpt lat="39.228937000415115" lon="16.808250655540096"><ele>370.4</ele><time>2026-03-28T12:02:19Z</time></trkpt><trkpt lat="39.22883934091578" lon="16.80823808719961"><ele>369.8</ele><time>2026-03-28T12:02:20Z</time></trkpt><trkpt lat="39.228746471638985" lon="16.80822559643899"><ele>369.2</ele><time>2026-03-28T12:02:21Z</time></trkpt><trkpt lat="39.22866224186898" lon="16.808211309143637"><ele>368.59999999999997</ele><time>2026-03-28T12:02:22Z</time></trkpt><trkpt lat="39.22858948231789" lon="16.808195561666274"><ele>368.0</ele><time>2026-03-28T12:02:23Z</time></trkpt><trkpt lat="39.22847407240422" lon="16.808177942321763"><ele>368.0</ele><time>2026-03-28T12:02:25Z</time></trkpt><trkpt lat="39.22838261422745" lon="16.808138776230216"><ele>368.0</ele><time>2026-03-28T12:02:27Z</time></trkpt><trkpt lat="39.228314643101236" lon="16.808268895676896"><ele>368.0</ele><time>2026-03-28T12:02:28Z</time></trkpt><trkpt lat="39.228234024885076" lon="16.808326908399174"><ele>368.0</ele><time>2026-03-28T12:02:30Z</time></trkpt><trkpt lat="39.228167181057316" lon="16.808429280093183"><ele>368.0</ele><time>2026-03-28T12:02:32Z</time></trkpt><trkpt lat="39.22813405976089" lon="16.80850547901246"><ele>366.4</ele><time>2026-03-28T12:02:33Z</time></trkpt><trkpt lat="39.22808861320142" lon="16.80862419259329"><ele>364.79999999999995</ele><time>2026-03-28T12:02:34Z</time></trkpt><trkpt lat="39.228032694278134" lon="16.808762243681326"><ele>363.2</ele><time>2026-03-28T12:02:35Z</time></trkpt><trkpt lat="39.22797338774447" lon="16.80889041529979"><ele>361.6</ele><time>2026-03-28T12:02:36Z</time></trkpt><trkpt lat="39.22792564662133" lon="16.80900860121231"><ele>360.0</ele><time>2026-03-28T12:02:37Z</time></trkpt><trkpt lat="39.22787780478196" lon="16.809121536157537"><ele>360.0</ele><time>2026-03-28T12:02:38Z</time></trkpt><trkpt lat="39.22782848535859" lon="16.809233464453545"><ele>360.0</ele><time>2026-03-28T12:02:39Z</time></trkpt><trkpt lat="39.227782084211306" lon="16.809341711307052"><ele>360.0</ele><time>2026-03-28T12:02:40Z</time></trkpt><trkpt lat="39.227739316508135" lon="16.809443354127875"><ele>360.0</ele><time>2026-03-28T12:02:41Z</time></trkpt><trkpt lat="39.22769540463225" lon="16.80954174383869"><ele>360.0</ele><time>2026-03-28T12:02:42Z</time></trkpt><trkpt lat="39.22764612768629" lon="16.809627801363206"><ele>359.8333333333333</ele><time>2026-03-28T12:02:43Z</time></trkpt><trkpt lat="39.22758484881996" lon="16.809701634902858"><ele>359.6666666666667</ele><time>2026-03-28T12:02:44Z</time></trkpt><trkpt lat="39.22750769524504" lon="16.809764329428713"><ele>359.5</ele><time>2026-03-28T12:02:45Z</time></trkpt><trkpt lat="39.22741916772124" lon="16.809805377341668"><ele>359.33333333333337</ele><time>2026-03-28T12:02:46Z</time></trkpt><trkpt lat="39.227333272482035" lon="16.809831925580955"><ele>359.1666666666667</ele><time>2026-03-28T12:02:47Z</time></trkpt><trkpt lat="39.2272525802212" lon="16.809857475720573"><ele>359.0</ele><time>2026-03-28T12:02:48Z</time></trkpt><trkpt lat="39.22717924454376" lon="16.809882438736786"><ele>357.6666666666667</ele><time>2026-03-28T12:02:49Z</time></trkpt><trkpt lat="39.227097967399104" lon="16.809905755968003"><ele>356.33333333333337</ele><time>2026-03-28T12:02:50Z</time></trkpt><trkpt lat="39.22701030645537" lon="16.809923341500713"><ele>355.0</ele><time>2026-03-28T12:02:51Z</time></trkpt><trkpt lat="39.226922723125675" lon="16.8099673256866"><ele>353.6666666666667</ele><time>2026-03-28T12:02:52Z</time></trkpt><trkpt lat="39.22683779204879" lon="16.80999469967237"><ele>352.3333333333333</ele><time>2026-03-28T12:02:53Z</time></trkpt><trkpt lat="39.22675359727257" lon="16.81002163836281"><ele>351.0</ele><time>2026-03-28T12:02:54Z</time></trkpt><trkpt lat="39.2266696258479" lon="16.810050381247326"><ele>351.0</ele><time>2026-03-28T12:02:55Z</time></trkpt><trkpt lat="39.22656521545754" lon="16.810083791613938"><ele>351.0</ele><time>2026-03-28T12:02:56Z</time></trkpt><trkpt lat="39.226467951567926" lon="16.810118645551285"><ele>351.0</ele><time>2026-03-28T12:02:57Z</time></trkpt><trkpt lat="39.226365117023896" lon="16.810153971467074"><ele>351.0</ele><time>2026-03-28T12:02:58Z</time></trkpt><trkpt lat="39.22625499869808" lon="16.810190901465297"><ele>351.0</ele><time>2026-03-28T12:02:59Z</time></trkpt><trkpt lat="39.226143059135495" lon="16.810225417727786"><ele>349.0</ele><time>2026-03-28T12:03:00Z</time></trkpt><trkpt lat="39.22604720229615" lon="16.8102615675987"><ele>347.0</ele><time>2026-03-28T12:03:01Z</time></trkpt><trkpt lat="39.22596790546054" lon="16.81031436875477"><ele>345.0</ele><time>2026-03-28T12:03:02Z</time></trkpt><trkpt lat="39.225897510011166" lon="16.810391209880812"><ele>343.0</ele><time>2026-03-28T12:03:03Z</time></trkpt><trkpt lat="39.225842493736444" lon="16.8104888123068"><ele>341.0</ele><time>2026-03-28T12:03:04Z</time></trkpt><trkpt lat="39.225794965631174" lon="16.810617141883625"><ele>341.0</ele><time>2026-03-28T12:03:05Z</time></trkpt><trkpt lat="39.22574848522524" lon="16.810744595650643"><ele>341.0</ele><time>2026-03-28T12:03:06Z</time></trkpt><trkpt lat="39.22571923151718" lon="16.81086657516472"><ele>341.0</ele><time>2026-03-28T12:03:07Z</time></trkpt><trkpt lat="39.22571614066038" lon="16.810988198958373"><ele>341.0</ele><time>2026-03-28T12:03:08Z</time></trkpt><trkpt lat="39.22574302250771" lon="16.811108308456802"><ele>341.0</ele><time>2026-03-28T12:03:09Z</time></trkpt><trkpt lat="39.225786939070524" lon="16.81122395191343"><ele>339.6</ele><time>2026-03-28T12:03:10Z</time></trkpt><trkpt lat="39.225831983418054" lon="16.81134623298898"><ele>338.20000000000005</ele><time>2026-03-28T12:03:11Z</time></trkpt><trkpt lat="39.225874259069876" lon="16.811473132736623"><ele>336.79999999999995</ele><time>2026-03-28T12:03:12Z</time></trkpt><trkpt lat="39.22592094112139" lon="16.811604278531423"><ele>335.4</ele><time>2026-03-28T12:03:13Z</time></trkpt><trkpt lat="39.2259631901095" lon="16.811735263109608"><ele>334.0</ele><time>2026-03-28T12:03:14Z</time></trkpt><trkpt lat="39.22600231977327" lon="16.811855744496178"><ele>333.0</ele><time>2026-03-28T12:03:15Z</time></trkpt><trkpt lat="39.22604222685063" lon="16.81196616257986"><ele>332.0</ele><time>2026-03-28T12:03:16Z</time></trkpt><trkpt lat="39.226079632383644" lon="16.812069695305645"><ele>331.0</ele><time>2026-03-28T12:03:17Z</time></trkpt><trkpt lat="39.22610031751752" lon="16.812172893052765"><ele>330.0</ele><time>2026-03-28T12:03:18Z</time></trkpt><trkpt lat="39.22609047343263" lon="16.812269768365958"><ele>329.0</ele><time>2026-03-28T12:03:19Z</time></trkpt><trkpt lat="39.226049270141296" lon="16.81233949832921"><ele>328.0</ele><time>2026-03-28T12:03:20Z</time></trkpt><trkpt lat="39.22599093689304" lon="16.812382631602254"><ele>328.0</ele><time>2026-03-28T12:03:21Z</time></trkpt><trkpt lat="39.22590901014622" lon="16.812410068985987"><ele>328.0</ele><time>2026-03-28T12:03:22Z</time></trkpt><trkpt lat="39.225812392556016" lon="16.812447262823735"><ele>328.0</ele><time>2026-03-28T12:03:23Z</time></trkpt><trkpt lat="39.225720325251935" lon="16.81248544458575"><ele>328.0</ele><time>2026-03-28T12:03:24Z</time></trkpt><trkpt lat="39.225641505123235" lon="16.812517075147767"><ele>328.0</ele><time>2026-03-28T12:03:25Z</time></trkpt><trkpt lat="39.225570875392314" lon="16.812544205156485"><ele>328.0</ele><time>2026-03-28T12:03:26Z</time></trkpt><trkpt lat="39.22550632549708" lon="16.812573993831293"><ele>326.5</ele><time>2026-03-28T12:03:27Z</time></trkpt><trkpt lat="39.225440485005066" lon="16.812685545347843"><ele>325.0</ele><time>2026-03-28T12:03:29Z</time></trkpt><trkpt lat="39.22547509230465" lon="16.81283464501357"><ele>323.5</ele><time>2026-03-28T12:03:31Z</time></trkpt><trkpt lat="39.22553634012573" lon="16.81287293474463"><ele>322.0</ele><time>2026-03-28T12:03:32Z</time></trkpt><trkpt lat="39.22560417229691" lon="16.812907252664463"><ele>320.5</ele><time>2026-03-28T12:03:33Z</time></trkpt><trkpt lat="39.22567712103735" lon="16.812913892267744"><ele>319.0</ele><time>2026-03-28T12:03:34Z</time></trkpt><trkpt lat="39.22578458702371" lon="16.812943805328775"><ele>319.0</ele><time>2026-03-28T12:03:36Z</time></trkpt><trkpt lat="39.22587536573875" lon="16.81304844894132"><ele>319.0</ele><time>2026-03-28T12:03:38Z</time></trkpt><trkpt lat="39.22588153519326" lon="16.81314919126202"><ele>319.0</ele><time>2026-03-28T12:03:39Z</time></trkpt><trkpt lat="39.22587331244313" lon="16.813259962023594"><ele>319.0</ele><time>2026-03-28T12:03:40Z</time></trkpt><trkpt lat="39.225851855364326" lon="16.813376298403966"><ele>319.0</ele><time>2026-03-28T12:03:41Z</time></trkpt><trkpt lat="39.22583402336436" lon="16.81348950852159"><ele>317.4</ele><time>2026-03-28T12:03:42Z</time></trkpt><trkpt lat="39.22581607906602" lon="16.813591481170235"><ele>315.79999999999995</ele><time>2026-03-28T12:03:43Z</time></trkpt><trkpt lat="39.225800767990386" lon="16.813706423350666"><ele>314.20000000000005</ele><time>2026-03-28T12:03:44Z</time></trkpt><trkpt lat="39.22578143810097" lon="16.813830216368032"><ele>312.6</ele><time>2026-03-28T12:03:45Z</time></trkpt><trkpt lat="39.22574968929626" lon="16.81395297712714"><ele>311.0</ele><time>2026-03-28T12:03:46Z</time></trkpt><trkpt lat="39.225688091679224" lon="16.814045305727404"><ele>309.2</ele><time>2026-03-28T12:03:47Z</time></trkpt><trkpt lat="39.225613055676654" lon="16.814103467921093"><ele>307.40000000000003</ele><time>2026-03-28T12:03:48Z</time></trkpt><trkpt lat="39.225531690555385" lon="16.814135608085387"><ele>305.6</ele><time>2026-03-28T12:03:49Z</time></trkpt><trkpt lat="39.225441188398385" lon="16.814159477665257"><ele>303.8</ele><time>2026-03-28T12:03:50Z</time></trkpt><trkpt lat="39.225345810680984" lon="16.814189476425828"><ele>302.0</ele><time>2026-03-28T12:03:51Z</time></trkpt><trkpt lat="39.22525737830006" lon="16.81421582404905"><ele>302.00000000000006</ele><time>2026-03-28T12:03:52Z</time></trkpt><trkpt lat="39.22517672162424" lon="16.814241720293545"><ele>302.0</ele><time>2026-03-28T12:03:53Z</time></trkpt><trkpt lat="39.225101018318995" lon="16.81426286485367"><ele>302.0</ele><time>2026-03-28T12:03:54Z</time></trkpt><trkpt lat="39.22503004263236" lon="16.814287829518335"><ele>302.0</ele><time>2026-03-28T12:03:55Z</time></trkpt><trkpt lat="39.22496538820942" lon="16.81432479680229"><ele>302.0</ele><time>2026-03-28T12:03:56Z</time></trkpt><trkpt lat="39.22490714354471" lon="16.814379724039394"><ele>302.00000000000006</ele><time>2026-03-28T12:03:57Z</time></trkpt><trkpt lat="39.224864817097" lon="16.8144549453025"><ele>302.0</ele><time>2026-03-28T12:03:58Z</time></trkpt><trkpt lat="39.224841524721015" lon="16.814539612807046"><ele>301.33333333333337</ele><time>2026-03-28T12:03:59Z</time></trkpt><trkpt lat="39.224841295723465" lon="16.81462848933888"><ele>300.6666666666667</ele><time>2026-03-28T12:04:00Z</time></trkpt><trkpt lat="39.22486932543016" lon="16.814725361096055"><ele>300.0</ele><time>2026-03-28T12:04:01Z</time></trkpt><trkpt lat="39.22491425066025" lon="16.8148034040925"><ele>299.3333333333333</ele><time>2026-03-28T12:04:02Z</time></trkpt><trkpt lat="39.22495438603426" lon="16.81488574213512"><ele>298.66666666666663</ele><time>2026-03-28T12:04:03Z</time></trkpt><trkpt lat="39.22501042579858" lon="16.814953495113834"><ele>298.0</ele><time>2026-03-28T12:04:04Z</time></trkpt><trkpt lat="39.22507631913273" lon="16.815029352908432"><ele>298.0</ele><time>2026-03-28T12:04:05Z</time></trkpt><trkpt lat="39.22514449849875" lon="16.815110702981897"><ele>298.0</ele><time>2026-03-28T12:04:06Z</time></trkpt><trkpt lat="39.22521308721709" lon="16.81520323434539"><ele>298.0</ele><time>2026-03-28T12:04:07Z</time></trkpt><trkpt lat="39.2252734386564" lon="16.815283211872593"><ele>298.0</ele><time>2026-03-28T12:04:08Z</time></trkpt><trkpt lat="39.22527145913884" lon="16.815394517116232"><ele>298.0</ele><time>2026-03-28T12:04:09Z</time></trkpt><trkpt lat="39.225233612015195" lon="16.815492497993905"><ele>296.2</ele><time>2026-03-28T12:04:10Z</time></trkpt><trkpt lat="39.22516592826313" lon="16.815562187622376"><ele>294.4</ele><time>2026-03-28T12:04:11Z</time></trkpt><trkpt lat="39.225085697843845" lon="16.815605558320843"><ele>292.59999999999997</ele><time>2026-03-28T12:04:12Z</time></trkpt><trkpt lat="39.2249920956441" lon="16.815607155921064"><ele>290.8</ele><time>2026-03-28T12:04:13Z</time></trkpt><trkpt lat="39.224894505977716" lon="16.81557635286806"><ele>289.0</ele><time>2026-03-28T12:04:14Z</time></trkpt><trkpt lat="39.22478861457395" lon="16.81552552626155"><ele>287.2</ele><time>2026-03-28T12:04:15Z</time></trkpt><trkpt lat="39.2246923456346" lon="16.81548887627936"><ele>285.4</ele><time>2026-03-28T12:04:16Z</time></trkpt><trkpt lat="39.22460548267403" lon="16.81545389011349"><ele>283.6</ele><time>2026-03-28T12:04:17Z</time></trkpt><trkpt lat="39.22452503055463" lon="16.815417859529312"><ele>281.8</ele><time>2026-03-28T12:04:18Z</time></trkpt><trkpt lat="39.22445051199897" lon="16.8153952942726"><ele>280.0</ele><time>2026-03-28T12:04:19Z</time></trkpt><trkpt lat="39.22433627088955" lon="16.81540475439033"><ele>280.0</ele><time>2026-03-28T12:04:21Z</time></trkpt><trkpt lat="39.22426551308683" lon="16.815526524029384"><ele>280.0</ele><time>2026-03-28T12:04:23Z</time></trkpt><trkpt lat="39.22426231133552" lon="16.8156272269901"><ele>280.0</ele><time>2026-03-28T12:04:24Z</time></trkpt><trkpt lat="39.2242917915828" lon="16.81574158174832"><ele>280.0</ele><time>2026-03-28T12:04:25Z</time></trkpt><trkpt lat="39.22430167312986" lon="16.815873769448814"><ele>280.0</ele><time>2026-03-28T12:04:26Z</time></trkpt><trkpt lat="39.22434033829443" lon="16.81600228675697"><ele>278.6</ele><time>2026-03-28T12:04:27Z</time></trkpt><trkpt lat="39.224362806762144" lon="16.816134897915074"><ele>277.2</ele><time>2026-03-28T12:04:28Z</time></trkpt><trkpt lat="39.22438420909627" lon="16.816265389286148"><ele>275.8</ele><time>2026-03-28T12:04:29Z</time></trkpt><trkpt lat="39.22440675231587" lon="16.81638949650872"><ele>274.4</ele><time>2026-03-28T12:04:30Z</time></trkpt><trkpt lat="39.22442186149352" lon="16.81651581200829"><ele>273.0</ele><time>2026-03-28T12:04:31Z</time></trkpt><trkpt lat="39.22446368482494" lon="16.81661999679627"><ele>273.0</ele><time>2026-03-28T12:04:32Z</time></trkpt><trkpt lat="39.22452137146594" lon="16.81671325383821"><ele>273.0</ele><time>2026-03-28T12:04:33Z</time></trkpt><trkpt lat="39.224585201354714" lon="16.8167949309154"><ele>273.0</ele><time>2026-03-28T12:04:34Z</time></trkpt><trkpt lat="39.22465905702608" lon="16.816863524341116"><ele>273.0</ele><time>2026-03-28T12:04:35Z</time></trkpt><trkpt lat="39.22473256154529" lon="16.81692772615479"><ele>273.0</ele><time>2026-03-28T12:04:36Z</time></trkpt><trkpt lat="39.224802491571154" lon="16.81698661446793"><ele>273.0</ele><time>2026-03-28T12:04:37Z</time></trkpt><trkpt lat="39.22486639272326" lon="16.817039546207944"><ele>271.6</ele><time>2026-03-28T12:04:38Z</time></trkpt><trkpt lat="39.224923716957136" lon="16.817090462158447"><ele>270.20000000000005</ele><time>2026-03-28T12:04:39Z</time></trkpt><trkpt lat="39.224974803997604" lon="16.817145825975807"><ele>268.8</ele><time>2026-03-28T12:04:40Z</time></trkpt><trkpt lat="39.225049895642556" lon="16.81724322014944"><ele>267.40000000000003</ele><time>2026-03-28T12:04:42Z</time></trkpt><trkpt lat="39.22505305051744" lon="16.817362946834063"><ele>266.0</ele><time>2026-03-28T12:04:44Z</time></trkpt><trkpt lat="39.22498253835263" lon="16.81750965708993"><ele>266.0</ele><time>2026-03-28T12:04:46Z</time></trkpt><trkpt lat="39.224916630559335" lon="16.817567477783044"><ele>266.0</ele><time>2026-03-28T12:04:47Z</time></trkpt><trkpt lat="39.22483535051805" lon="16.817608360870917"><ele>266.0</ele><time>2026-03-28T12:04:48Z</time></trkpt><trkpt lat="39.22475083754474" lon="16.817645920431854"><ele>266.0</ele><time>2026-03-28T12:04:49Z</time></trkpt><trkpt lat="39.22466616942853" lon="16.817680254047207"><ele>266.0</ele><time>2026-03-28T12:04:50Z</time></trkpt><trkpt lat="39.22458578302886" lon="16.817716892652626"><ele>266.0</ele><time>2026-03-28T12:04:51Z</time></trkpt><trkpt lat="39.224503065972904" lon="16.817749859847847"><ele>264.33333333333337</ele><time>2026-03-28T12:04:52Z</time></trkpt><trkpt lat="39.224423523143095" lon="16.817781868769703"><ele>262.6666666666667</ele><time>2026-03-28T12:04:53Z</time></trkpt><trkpt lat="39.22435071645505" lon="16.81780641554696"><ele>261.0</ele><time>2026-03-28T12:04:54Z</time></trkpt><trkpt lat="39.224280455735865" lon="16.817832259816505"><ele>259.3333333333333</ele><time>2026-03-28T12:04:55Z</time></trkpt><trkpt lat="39.22421816608721" lon="16.817857510017472"><ele>257.66666666666663</ele><time>2026-03-28T12:04:56Z</time></trkpt><trkpt lat="39.22409452058048" lon="16.817886332430735"><ele>256.0</ele><time>2026-03-28T12:04:58Z</time></trkpt><trkpt lat="39.2240314173723" lon="16.81788419418933"><ele>254.60000000000002</ele><time>2026-03-28T12:04:59Z</time></trkpt><trkpt lat="39.223967520995195" lon="16.81787514068333"><ele>253.20000000000002</ele><time>2026-03-28T12:05:00Z</time></trkpt><trkpt lat="39.22386599254131" lon="16.817856760031095"><ele>251.79999999999998</ele><time>2026-03-28T12:05:02Z</time></trkpt><trkpt lat="39.223764680270996" lon="16.81783357265616"><ele>250.39999999999998</ele><time>2026-03-28T12:05:04Z</time></trkpt><trkpt lat="39.2236430264021" lon="16.817803590796334"><ele>249.0</ele><time>2026-03-28T12:05:06Z</time></trkpt><trkpt lat="39.223575016118986" lon="16.817795538979468"><ele>249.0</ele><time>2026-03-28T12:05:07Z</time></trkpt><trkpt lat="39.22350458603038" lon="16.817788254904894"><ele>249.0</ele><time>2026-03-28T12:05:08Z</time></trkpt><trkpt lat="39.22343974207948" lon="16.817806846479346"><ele>249.0</ele><time>2026-03-28T12:05:09Z</time></trkpt><trkpt lat="39.223347506803634" lon="16.817913918658824"><ele>249.0</ele><time>2026-03-28T12:05:11Z</time></trkpt><trkpt lat="39.223326611289274" lon="16.817994869970427"><ele>249.0</ele><time>2026-03-28T12:05:12Z</time></trkpt><trkpt lat="39.22331450231059" lon="16.818088547664807"><ele>249.0</ele><time>2026-03-28T12:05:13Z</time></trkpt><trkpt lat="39.22336413201594" lon="16.81817436964412"><ele>249.0</ele><time>2026-03-28T12:05:14Z</time></trkpt><trkpt lat="39.22341703328294" lon="16.818247010541167"><ele>249.0</ele><time>2026-03-28T12:05:15Z</time></trkpt><trkpt lat="39.22347660096979" lon="16.818308362601407"><ele>249.0</ele><time>2026-03-28T12:05:16Z</time></trkpt><trkpt lat="39.22354500687102" lon="16.8183858948254"><ele>249.0</ele><time>2026-03-28T12:05:17Z</time></trkpt><trkpt lat="39.22361908080606" lon="16.818465945006167"><ele>249.0</ele><time>2026-03-28T12:05:18Z</time></trkpt><trkpt lat="39.22368613406177" lon="16.818566695274924"><ele>249.0</ele><time>2026-03-28T12:05:19Z</time></trkpt><trkpt lat="39.22375662236493" lon="16.818647306381724"><ele>248.28571428571428</ele><time>2026-03-28T12:05:20Z</time></trkpt><trkpt lat="39.223826447488584" lon="16.81871339926993"><ele>247.57142857142856</ele><time>2026-03-28T12:05:21Z</time></trkpt><trkpt lat="39.22390769889423" lon="16.81875441479205"><ele>246.85714285714283</ele><time>2026-03-28T12:05:22Z</time></trkpt><trkpt lat="39.223972620728226" lon="16.818783634391504"><ele>246.1428571428571</ele><time>2026-03-28T12:05:23Z</time></trkpt><trkpt lat="39.22403239736793" lon="16.818812319481964"><ele>245.42857142857142</ele><time>2026-03-28T12:05:25Z</time></trkpt><trkpt lat="39.22409615079107" lon="16.818857304485654"><ele>244.71428571428567</ele><time>2026-03-28T12:05:32Z</time></trkpt><trkpt lat="39.224142989129845" lon="16.818913106248843"><ele>243.99999999999997</ele><time>2026-03-28T12:06:09Z</time></trkpt><trkpt lat="39.22415602555792" lon="16.81899995629824"><ele>244.0</ele><time>2026-03-28T12:07:47Z</time></trkpt><trkpt lat="39.224138172155065" lon="16.819092454467718"><ele>243.99999999999997</ele><time>2026-03-28T12:07:50Z</time></trkpt><trkpt lat="39.22403439866944" lon="16.819183093291606"><ele>243.99999999999997</ele><time>2026-03-28T12:07:53Z</time></trkpt><trkpt lat="39.22393797807896" lon="16.819231741692782"><ele>244.0</ele><time>2026-03-28T12:07:55Z</time></trkpt><trkpt lat="39.22383581634789" lon="16.819271296653188"><ele>244.0</ele><time>2026-03-28T12:07:57Z</time></trkpt><trkpt lat="39.22373496689163" lon="16.81929544482739"><ele>243.39999999999998</ele><time>2026-03-28T12:07:59Z</time></trkpt><trkpt lat="39.22364217252921" lon="16.819290178832095"><ele>242.79999999999998</ele><time>2026-03-28T12:08:02Z</time></trkpt><trkpt lat="39.22357390844063" lon="16.819277351329987"><ele>242.20000000000002</ele><time>2026-03-28T12:08:04Z</time></trkpt><trkpt lat="39.22349220060948" lon="16.81925908616786"><ele>241.60000000000002</ele><time>2026-03-28T12:08:06Z</time></trkpt><trkpt lat="39.223395629342846" lon="16.819291763411695"><ele>241.0</ele><time>2026-03-28T12:08:08Z</time></trkpt><trkpt lat="39.22332796170188" lon="16.8194111066821"><ele>239.71428571428572</ele><time>2026-03-28T12:08:10Z</time></trkpt><trkpt lat="39.223303996120805" lon="16.819488999669698"><ele>238.42857142857144</ele><time>2026-03-28T12:08:11Z</time></trkpt><trkpt lat="39.22328009814006" lon="16.81957572691446"><ele>237.14285714285717</ele><time>2026-03-28T12:08:12Z</time></trkpt><trkpt lat="39.22325454374713" lon="16.81966495688512"><ele>235.8571428571429</ele><time>2026-03-28T12:08:13Z</time></trkpt><trkpt lat="39.2232251487714" lon="16.81975658676549"><ele>234.57142857142858</ele><time>2026-03-28T12:08:14Z</time></trkpt><trkpt lat="39.22319455751281" lon="16.819849045333072"><ele>233.28571428571433</ele><time>2026-03-28T12:08:15Z</time></trkpt><trkpt lat="39.223164330223454" lon="16.819943174101063"><ele>232.00000000000003</ele><time>2026-03-28T12:08:16Z</time></trkpt><trkpt lat="39.223134179744555" lon="16.82003748472215"><ele>231.42857142857144</ele><time>2026-03-28T12:08:17Z</time></trkpt><trkpt lat="39.22310431199254" lon="16.820130785707867"><ele>230.85714285714286</ele><time>2026-03-28T12:08:18Z</time></trkpt><trkpt lat="39.22307765423814" lon="16.820224000189057"><ele>230.28571428571428</ele><time>2026-03-28T12:08:19Z</time></trkpt><trkpt lat="39.223050661309124" lon="16.82031306976906"><ele>229.71428571428572</ele><time>2026-03-28T12:08:20Z</time></trkpt><trkpt lat="39.223021032481824" lon="16.82039699458463"><ele>229.1428571428571</ele><time>2026-03-28T12:08:21Z</time></trkpt><trkpt lat="39.222992576030336" lon="16.820472792661057"><ele>228.57142857142856</ele><time>2026-03-28T12:08:22Z</time></trkpt><trkpt lat="39.22296273017368" lon="16.8205452211124"><ele>228.0</ele><time>2026-03-28T12:08:23Z</time></trkpt><trkpt lat="39.22292431302676" lon="16.820611808054885"><ele>227.5</ele><time>2026-03-28T12:08:24Z</time></trkpt><trkpt lat="39.22284175736602" lon="16.82073322887475"><ele>227.0</ele><time>2026-03-28T12:08:26Z</time></trkpt><trkpt lat="39.222794702394275" lon="16.820804253304757"><ele>226.5</ele><time>2026-03-28T12:08:27Z</time></trkpt><trkpt lat="39.22274467513085" lon="16.82087862706044"><ele>226.0</ele><time>2026-03-28T12:08:28Z</time></trkpt><trkpt lat="39.222692158218116" lon="16.820954295676934"><ele>225.5</ele><time>2026-03-28T12:08:29Z</time></trkpt><trkpt lat="39.222638031130835" lon="16.82101793137802"><ele>225.0</ele><time>2026-03-28T12:08:30Z</time></trkpt><trkpt lat="39.222573453333396" lon="16.82105936874452"><ele>224.16666666666666</ele><time>2026-03-28T12:08:31Z</time></trkpt><trkpt lat="39.22250560635152" lon="16.82108782599378"><ele>223.33333333333331</ele><time>2026-03-28T12:08:32Z</time></trkpt><trkpt lat="39.222430096366885" lon="16.82111083394863"><ele>222.5</ele><time>2026-03-28T12:08:33Z</time></trkpt><trkpt lat="39.222351569615306" lon="16.82113261984666"><ele>221.66666666666666</ele><time>2026-03-28T12:08:34Z</time></trkpt><trkpt lat="39.222280477597586" lon="16.82115520950334"><ele>220.83333333333331</ele><time>2026-03-28T12:08:35Z</time></trkpt><trkpt lat="39.22221235419546" lon="16.82119524111493"><ele>220.0</ele><time>2026-03-28T12:08:36Z</time></trkpt><trkpt lat="39.222150434605034" lon="16.821259459852715"><ele>219.99999999999997</ele><time>2026-03-28T12:08:37Z</time></trkpt><trkpt lat="39.22209449705284" lon="16.821343293744654"><ele>220.0</ele><time>2026-03-28T12:08:38Z</time></trkpt><trkpt lat="39.22204754909775" lon="16.821437760330618"><ele>220.0</ele><time>2026-03-28T12:08:39Z</time></trkpt><trkpt lat="39.22199762127946" lon="16.82153066336617"><ele>220.0</ele><time>2026-03-28T12:08:40Z</time></trkpt><trkpt lat="39.22194849588632" lon="16.821620536113144"><ele>219.99999999999997</ele><time>2026-03-28T12:08:41Z</time></trkpt><trkpt lat="39.22189958627497" lon="16.82170927786403"><ele>220.0</ele><time>2026-03-28T12:08:42Z</time></trkpt><trkpt lat="39.221848865821016" lon="16.821797470624084"><ele>218.6</ele><time>2026-03-28T12:08:43Z</time></trkpt><trkpt lat="39.22179794783556" lon="16.82188385312976"><ele>217.2</ele><time>2026-03-28T12:08:44Z</time></trkpt><trkpt lat="39.22174477122175" lon="16.82198049256503"><ele>215.8</ele><time>2026-03-28T12:08:45Z</time></trkpt><trkpt lat="39.2216903664868" lon="16.822084652951585"><ele>214.4</ele><time>2026-03-28T12:08:46Z</time></trkpt><trkpt lat="39.22163451844276" lon="16.822186819661123"><ele>213.0</ele><time>2026-03-28T12:08:47Z</time></trkpt><trkpt lat="39.22158216865376" lon="16.822283850715852"><ele>213.0</ele><time>2026-03-28T12:08:48Z</time></trkpt><trkpt lat="39.221532181310856" lon="16.82236850088845"><ele>213.0</ele><time>2026-03-28T12:08:49Z</time></trkpt><trkpt lat="39.22148063394738" lon="16.82244052506385"><ele>213.0</ele><time>2026-03-28T12:08:50Z</time></trkpt><trkpt lat="39.22141188796863" lon="16.822510489845897"><ele>213.0</ele><time>2026-03-28T12:08:51Z</time></trkpt><trkpt lat="39.22132186331862" lon="16.82257931710837"><ele>213.0</ele><time>2026-03-28T12:08:52Z</time></trkpt><trkpt lat="39.22121552881593" lon="16.82263727328375"><ele>210.8</ele><time>2026-03-28T12:08:53Z</time></trkpt><trkpt lat="39.22111751709057" lon="16.822683375267257"><ele>208.60000000000002</ele><time>2026-03-28T12:08:54Z</time></trkpt><trkpt lat="39.221024509975294" lon="16.82272408158877"><ele>206.39999999999998</ele><time>2026-03-28T12:08:55Z</time></trkpt><trkpt lat="39.22093830753872" lon="16.822761579575527"><ele>204.2</ele><time>2026-03-28T12:08:56Z</time></trkpt><trkpt lat="39.22083957682222" lon="16.82280973502108"><ele>202.0</ele><time>2026-03-28T12:08:57Z</time></trkpt><trkpt lat="39.220737176156746" lon="16.822857903866332"><ele>201.39999999999998</ele><time>2026-03-28T12:08:58Z</time></trkpt><trkpt lat="39.220640607236675" lon="16.822903202085705"><ele>200.79999999999998</ele><time>2026-03-28T12:08:59Z</time></trkpt><trkpt lat="39.2205492078335" lon="16.822946878116507"><ele>200.2</ele><time>2026-03-28T12:09:00Z</time></trkpt><trkpt lat="39.22046185928185" lon="16.822987059924724"><ele>199.6</ele><time>2026-03-28T12:09:01Z</time></trkpt><trkpt lat="39.220383056009034" lon="16.823021597340784"><ele>199.0</ele><time>2026-03-28T12:09:02Z</time></trkpt><trkpt lat="39.22030020551343" lon="16.823055680138832"><ele>198.99999999999997</ele><time>2026-03-28T12:09:03Z</time></trkpt><trkpt lat="39.22021436766493" lon="16.8230962701449"><ele>199.0</ele><time>2026-03-28T12:09:04Z</time></trkpt><trkpt lat="39.220142175954635" lon="16.823157456422482"><ele>199.0</ele><time>2026-03-28T12:09:05Z</time></trkpt><trkpt lat="39.22009560521115" lon="16.82323907680598"><ele>199.0</ele><time>2026-03-28T12:09:06Z</time></trkpt><trkpt lat="39.22008506414857" lon="16.82332874923916"><ele>198.99999999999997</ele><time>2026-03-28T12:09:07Z</time></trkpt><trkpt lat="39.22013227799108" lon="16.823410556105923"><ele>199.0</ele><time>2026-03-28T12:09:08Z</time></trkpt><trkpt lat="39.22019573559874" lon="16.82349582280749"><ele>197.66666666666666</ele><time>2026-03-28T12:09:09Z</time></trkpt><trkpt lat="39.22031108711584" lon="16.823506664504347"><ele>196.33333333333331</ele><time>2026-03-28T12:09:10Z</time></trkpt><trkpt lat="39.220396014861" lon="16.823505910879092"><ele>195.0</ele><time>2026-03-28T12:09:11Z</time></trkpt><trkpt lat="39.220457668189724" lon="16.823537953986982"><ele>193.66666666666666</ele><time>2026-03-28T12:09:12Z</time></trkpt><trkpt lat="39.220502132480505" lon="16.82360294863582"><ele>192.33333333333331</ele><time>2026-03-28T12:09:13Z</time></trkpt><trkpt lat="39.22055615615124" lon="16.823673504689825"><ele>191.0</ele><time>2026-03-28T12:09:14Z</time></trkpt><trkpt lat="39.22062132884253" lon="16.82373571524462"><ele>191.16666666666666</ele><time>2026-03-28T12:09:15Z</time></trkpt><trkpt lat="39.22071905964419" lon="16.823743061884148"><ele>191.33333333333331</ele><time>2026-03-28T12:09:16Z</time></trkpt><trkpt lat="39.220799719569676" lon="16.82374537905912"><ele>191.5</ele><time>2026-03-28T12:09:17Z</time></trkpt><trkpt lat="39.22086453802317" lon="16.823763583046137"><ele>191.66666666666666</ele><time>2026-03-28T12:09:18Z</time></trkpt><trkpt lat="39.22089854993916" lon="16.823895962863105"><ele>191.83333333333334</ele><time>2026-03-28T12:09:20Z</time></trkpt><trkpt lat="39.22086903552656" lon="16.8239978183077"><ele>192.0</ele><time>2026-03-28T12:09:21Z</time></trkpt><trkpt lat="39.220855559949186" lon="16.82410927572875"><ele>192.0</ele><time>2026-03-28T12:09:22Z</time></trkpt><trkpt lat="39.22086686427098" lon="16.82423121559564"><ele>192.0</ele><time>2026-03-28T12:09:23Z</time></trkpt><trkpt lat="39.220912800266" lon="16.82433035458461"><ele>192.0</ele><time>2026-03-28T12:09:24Z</time></trkpt><trkpt lat="39.22098146396816" lon="16.824410376972025"><ele>192.0</ele><time>2026-03-28T12:09:25Z</time></trkpt><trkpt lat="39.22109892926872" lon="16.824418253805465"><ele>192.0</ele><time>2026-03-28T12:09:26Z</time></trkpt><trkpt lat="39.22123394245642" lon="16.82446272418455"><ele>190.0</ele><time>2026-03-28T12:09:27Z</time></trkpt><trkpt lat="39.221352620165696" lon="16.8244771875973"><ele>188.0</ele><time>2026-03-28T12:09:28Z</time></trkpt><trkpt lat="39.22145866686829" lon="16.82447694703261"><ele>186.0</ele><time>2026-03-28T12:09:29Z</time></trkpt><trkpt lat="39.22156042564621" lon="16.824450199864515"><ele>184.0</ele><time>2026-03-28T12:09:30Z</time></trkpt><trkpt lat="39.22164765114459" lon="16.82439722327668"><ele>182.0</ele><time>2026-03-28T12:09:31Z</time></trkpt><trkpt lat="39.221722242155145" lon="16.824346553739755"><ele>182.0</ele><time>2026-03-28T12:09:32Z</time></trkpt><trkpt lat="39.22178459371851" lon="16.824303796042805"><ele>182.0</ele><time>2026-03-28T12:09:33Z</time></trkpt><trkpt lat="39.22184261849997" lon="16.824268194277515"><ele>182.0</ele><time>2026-03-28T12:09:34Z</time></trkpt><trkpt lat="39.221929692778964" lon="16.82427293198492"><ele>182.0</ele><time>2026-03-28T12:09:36Z</time></trkpt><trkpt lat="39.221985710749024" lon="16.824351736174215"><ele>182.0</ele><time>2026-03-28T12:09:38Z</time></trkpt><trkpt lat="39.222001728165964" lon="16.82443766121398"><ele>182.0</ele><time>2026-03-28T12:09:39Z</time></trkpt><trkpt lat="39.221947589508346" lon="16.82452802972854"><ele>182.0</ele><time>2026-03-28T12:09:40Z</time></trkpt><trkpt lat="39.22187679639416" lon="16.824607769166054"><ele>182.0</ele><time>2026-03-28T12:09:41Z</time></trkpt><trkpt lat="39.2218086794346" lon="16.824703281304846"><ele>182.0</ele><time>2026-03-28T12:09:42Z</time></trkpt><trkpt lat="39.22174900903436" lon="16.82479388973356"><ele>182.0</ele><time>2026-03-28T12:09:43Z</time></trkpt><trkpt lat="39.221694611730896" lon="16.824880315088738"><ele>182.0</ele><time>2026-03-28T12:09:44Z</time></trkpt><trkpt lat="39.221642286926716" lon="16.824965008097386"><ele>182.0</ele><time>2026-03-28T12:09:45Z</time></trkpt><trkpt lat="39.2215894281723" lon="16.825052039002962"><ele>182.0</ele><time>2026-03-28T12:09:46Z</time></trkpt><trkpt lat="39.22153732139679" lon="16.825140605714438"><ele>182.0</ele><time>2026-03-28T12:09:47Z</time></trkpt><trkpt lat="39.22148628703856" lon="16.825231724951216"><ele>182.0</ele><time>2026-03-28T12:09:48Z</time></trkpt><trkpt lat="39.22143169692637" lon="16.8253258712803"><ele>182.0</ele><time>2026-03-28T12:09:49Z</time></trkpt><trkpt lat="39.221375342597" lon="16.82541889333274"><ele>182.0</ele><time>2026-03-28T12:09:50Z</time></trkpt><trkpt lat="39.22132221072722" lon="16.82550151749301"><ele>181.16666666666666</ele><time>2026-03-28T12:09:51Z</time></trkpt><trkpt lat="39.22126053423563" lon="16.825565795091148"><ele>180.33333333333331</ele><time>2026-03-28T12:09:52Z</time></trkpt><trkpt lat="39.22119887866449" lon="16.82562231927061"><ele>179.5</ele><time>2026-03-28T12:09:53Z</time></trkpt><trkpt lat="39.22114424038402" lon="16.825674593715295"><ele>178.66666666666666</ele><time>2026-03-28T12:09:54Z</time></trkpt><trkpt lat="39.22109048377397" lon="16.825730424219657"><ele>177.83333333333334</ele><time>2026-03-28T12:09:55Z</time></trkpt><trkpt lat="39.22104263805133" lon="16.825784091802113"><ele>177.0</ele><time>2026-03-28T12:09:56Z</time></trkpt><trkpt lat="39.22095171016873" lon="16.825880363273267"><ele>177.0</ele><time>2026-03-28T12:09:58Z</time></trkpt><trkpt lat="39.220846238692765" lon="16.825957233124498"><ele>177.0</ele><time>2026-03-28T12:10:00Z</time></trkpt><trkpt lat="39.220721286807425" lon="16.826010958271084"><ele>177.0</ele><time>2026-03-28T12:10:02Z</time></trkpt><trkpt lat="39.220647655013146" lon="16.826030269871907"><ele>177.0</ele><time>2026-03-28T12:10:03Z</time></trkpt><trkpt lat="39.220570398089805" lon="16.82604324124441"><ele>177.0</ele><time>2026-03-28T12:10:04Z</time></trkpt><trkpt lat="39.220496811688555" lon="16.82603147155318"><ele>177.16666666666666</ele><time>2026-03-28T12:10:05Z</time></trkpt><trkpt lat="39.22043166607047" lon="16.82598592987106"><ele>177.33333333333334</ele><time>2026-03-28T12:10:06Z</time></trkpt><trkpt lat="39.22037668843902" lon="16.825886012449757"><ele>177.5</ele><time>2026-03-28T12:10:07Z</time></trkpt><trkpt lat="39.220324046140504" lon="16.82581940013268"><ele>177.66666666666669</ele><time>2026-03-28T12:10:08Z</time></trkpt><trkpt lat="39.22025389577489" lon="16.825794677676132"><ele>177.83333333333334</ele><time>2026-03-28T12:10:09Z</time></trkpt><trkpt lat="39.22017588616448" lon="16.82581080103162"><ele>178.0</ele><time>2026-03-28T12:10:10Z</time></trkpt><trkpt lat="39.22009526799046" lon="16.82587672936279"><ele>178.0</ele><time>2026-03-28T12:10:11Z</time></trkpt><trkpt lat="39.22001731116996" lon="16.825954149728442"><ele>178.0</ele><time>2026-03-28T12:10:12Z</time></trkpt><trkpt lat="39.21995164510812" lon="16.826019666192547"><ele>178.0</ele><time>2026-03-28T12:10:13Z</time></trkpt><trkpt lat="39.2198356117151" lon="16.82606243287048"><ele>178.0</ele><time>2026-03-28T12:10:15Z</time></trkpt><trkpt lat="39.21976836173262" lon="16.826047200681735"><ele>178.0</ele><time>2026-03-28T12:10:16Z</time></trkpt><trkpt lat="39.219703678625706" lon="16.82599999786543"><ele>178.0</ele><time>2026-03-28T12:10:17Z</time></trkpt><trkpt lat="39.219631872650076" lon="16.825939013316557"><ele>177.16666666666669</ele><time>2026-03-28T12:10:18Z</time></trkpt><trkpt lat="39.21956189376915" lon="16.825883373318472"><ele>176.33333333333334</ele><time>2026-03-28T12:10:19Z</time></trkpt><trkpt lat="39.219493206684966" lon="16.825828670057792"><ele>175.5</ele><time>2026-03-28T12:10:20Z</time></trkpt><trkpt lat="39.21942239217102" lon="16.825784467380064"><ele>174.66666666666666</ele><time>2026-03-28T12:10:21Z</time></trkpt><trkpt lat="39.219341492165" lon="16.82575667220861"><ele>173.83333333333331</ele><time>2026-03-28T12:10:22Z</time></trkpt><trkpt lat="39.21925735205368" lon="16.825753830430262"><ele>173.0</ele><time>2026-03-28T12:10:23Z</time></trkpt><trkpt lat="39.21917049092084" lon="16.825786789863276"><ele>173.0</ele><time>2026-03-28T12:10:24Z</time></trkpt><trkpt lat="39.21908920838968" lon="16.82584592521719"><ele>173.0</ele><time>2026-03-28T12:10:25Z</time></trkpt><trkpt lat="39.219011191292516" lon="16.82591746924249"><ele>173.0</ele><time>2026-03-28T12:10:26Z</time></trkpt><trkpt lat="39.21893472513427" lon="16.82599246619776"><ele>173.0</ele><time>2026-03-28T12:10:27Z</time></trkpt><trkpt lat="39.21886188249205" lon="16.826075550636276"><ele>173.0</ele><time>2026-03-28T12:10:28Z</time></trkpt><trkpt lat="39.21879044824825" lon="16.826162903333927"><ele>172.2</ele><time>2026-03-28T12:10:29Z</time></trkpt><trkpt lat="39.21871359924494" lon="16.826246993375037"><ele>171.4</ele><time>2026-03-28T12:10:30Z</time></trkpt><trkpt lat="39.218637849574826" lon="16.826330186185192"><ele>170.6</ele><time>2026-03-28T12:10:31Z</time></trkpt><trkpt lat="39.21856008336131" lon="16.826408746683978"><ele>169.79999999999998</ele><time>2026-03-28T12:10:32Z</time></trkpt><trkpt lat="39.21848790001835" lon="16.826485202023612"><ele>169.0</ele><time>2026-03-28T12:10:33Z</time></trkpt><trkpt lat="39.21842072549431" lon="16.826549891918702"><ele>169.0</ele><time>2026-03-28T12:10:34Z</time></trkpt><trkpt lat="39.21836348206389" lon="16.82660801599438"><ele>169.0</ele><time>2026-03-28T12:10:35Z</time></trkpt><trkpt lat="39.218313528662456" lon="16.826662513233682"><ele>169.0</ele><time>2026-03-28T12:10:36Z</time></trkpt><trkpt lat="39.21826776341886" lon="16.826720554430846"><ele>169.0</ele><time>2026-03-28T12:10:37Z</time></trkpt><trkpt lat="39.218220291899435" lon="16.826776609249393"><ele>169.0</ele><time>2026-03-28T12:10:38Z</time></trkpt><trkpt lat="39.218177542548325" lon="16.82683774521285"><ele>169.0</ele><time>2026-03-28T12:10:39Z</time></trkpt><trkpt lat="39.21814275620632" lon="16.826976360714426"><ele>169.0</ele><time>2026-03-28T12:10:41Z</time></trkpt><trkpt lat="39.218137738466005" lon="16.82705792788562"><ele>168.0</ele><time>2026-03-28T12:10:42Z</time></trkpt><trkpt lat="39.218168727879934" lon="16.82714100340561"><ele>167.0</ele><time>2026-03-28T12:10:43Z</time></trkpt><trkpt lat="39.218211746267365" lon="16.82723091042024"><ele>166.0</ele><time>2026-03-28T12:10:44Z</time></trkpt><trkpt lat="39.21827075247333" lon="16.827327390518427"><ele>165.0</ele><time>2026-03-28T12:10:45Z</time></trkpt><trkpt lat="39.21833612349652" lon="16.827426577183154"><ele>164.0</ele><time>2026-03-28T12:10:46Z</time></trkpt><trkpt lat="39.218395634053174" lon="16.827514324333947"><ele>163.0</ele><time>2026-03-28T12:10:47Z</time></trkpt><trkpt lat="39.21845026414051" lon="16.827601988437074"><ele>161.83333333333334</ele><time>2026-03-28T12:10:48Z</time></trkpt><trkpt lat="39.21849320751878" lon="16.827694595180795"><ele>160.66666666666669</ele><time>2026-03-28T12:10:49Z</time></trkpt><trkpt lat="39.21852020064224" lon="16.8277914375175"><ele>159.5</ele><time>2026-03-28T12:10:50Z</time></trkpt><trkpt lat="39.21852806208867" lon="16.827888860664796"><ele>158.33333333333334</ele><time>2026-03-28T12:10:51Z</time></trkpt><trkpt lat="39.21854522368941" lon="16.827981682301566"><ele>157.16666666666666</ele><time>2026-03-28T12:10:52Z</time></trkpt><trkpt lat="39.21854738180155" lon="16.82807295965558"><ele>156.0</ele><time>2026-03-28T12:10:53Z</time></trkpt><trkpt lat="39.21855704099088" lon="16.82816793227166"><ele>156.0</ele><time>2026-03-28T12:10:54Z</time></trkpt><trkpt lat="39.21857012301976" lon="16.828270438122868"><ele>156.0</ele><time>2026-03-28T12:10:55Z</time></trkpt><trkpt lat="39.21860974219685" lon="16.82836016139733"><ele>156.0</ele><time>2026-03-28T12:10:56Z</time></trkpt><trkpt lat="39.21865582153515" lon="16.828445086161242"><ele>156.0</ele><time>2026-03-28T12:10:57Z</time></trkpt><trkpt lat="39.2187065508802" lon="16.828531442607446"><ele>156.0</ele><time>2026-03-28T12:10:58Z</time></trkpt><trkpt lat="39.21876376718115" lon="16.828616016863826"><ele>156.0</ele><time>2026-03-28T12:10:59Z</time></trkpt><trkpt lat="39.21882709550284" lon="16.82869570120853"><ele>155.4</ele><time>2026-03-28T12:11:00Z</time></trkpt><trkpt lat="39.21889425560761" lon="16.828769995506434"><ele>154.8</ele><time>2026-03-28T12:11:01Z</time></trkpt><trkpt lat="39.21896932238958" lon="16.828842276012974"><ele>154.20000000000002</ele><time>2026-03-28T12:11:02Z</time></trkpt><trkpt lat="39.21904680388798" lon="16.828915979125714"><ele>153.6</ele><time>2026-03-28T12:11:03Z</time></trkpt><trkpt lat="39.219120597459316" lon="16.82898801300244"><ele>153.0</ele><time>2026-03-28T12:11:04Z</time></trkpt><trkpt lat="39.21918800341426" lon="16.82905417358496"><ele>153.0</ele><time>2026-03-28T12:11:05Z</time></trkpt><trkpt lat="39.219251091427815" lon="16.829124448615175"><ele>153.0</ele><time>2026-03-28T12:11:06Z</time></trkpt><trkpt lat="39.219302466750705" lon="16.829201425490083"><ele>153.0</ele><time>2026-03-28T12:11:07Z</time></trkpt><trkpt lat="39.2193582906618" lon="16.829280664617865"><ele>153.0</ele><time>2026-03-28T12:11:08Z</time></trkpt><trkpt lat="39.21937486656141" lon="16.82937636713883"><ele>153.0</ele><time>2026-03-28T12:11:09Z</time></trkpt><trkpt lat="39.21941154657345" lon="16.829461336643433"><ele>153.0</ele><time>2026-03-28T12:11:10Z</time></trkpt><trkpt lat="39.219454755884186" lon="16.82953325377562"><ele>152.0</ele><time>2026-03-28T12:11:11Z</time></trkpt><trkpt lat="39.21950882661516" lon="16.829590220968853"><ele>151.0</ele><time>2026-03-28T12:11:12Z</time></trkpt><trkpt lat="39.21956351302523" lon="16.829635514370057"><ele>150.0</ele><time>2026-03-28T12:11:13Z</time></trkpt><trkpt lat="39.21966981457918" lon="16.82971190048182"><ele>149.0</ele><time>2026-03-28T12:11:15Z</time></trkpt><trkpt lat="39.21968106068534" lon="16.829866726439725"><ele>148.0</ele><time>2026-03-28T12:11:17Z</time></trkpt><trkpt lat="39.219644407832945" lon="16.829941375627076"><ele>147.0</ele><time>2026-03-28T12:11:18Z</time></trkpt><trkpt lat="39.219594510397386" lon="16.830018359041024"><ele>147.0</ele><time>2026-03-28T12:11:19Z</time></trkpt><trkpt lat="39.21952805873784" lon="16.830086478238215"><ele>147.0</ele><time>2026-03-28T12:11:20Z</time></trkpt><trkpt lat="39.219447176333865" lon="16.830130549315733"><ele>147.0</ele><time>2026-03-28T12:11:21Z</time></trkpt><trkpt lat="39.21936775554865" lon="16.830177731449616"><ele>147.0</ele><time>2026-03-28T12:11:22Z</time></trkpt><trkpt lat="39.21928883578884" lon="16.830222403176435"><ele>147.0</ele><time>2026-03-28T12:11:23Z</time></trkpt><trkpt lat="39.21921505882623" lon="16.83027166574313"><ele>147.0</ele><time>2026-03-28T12:11:24Z</time></trkpt><trkpt lat="39.219156368126306" lon="16.83032536008394"><ele>146.71428571428572</ele><time>2026-03-28T12:11:25Z</time></trkpt><trkpt lat="39.21911479140391" lon="16.830396612771754"><ele>146.42857142857144</ele><time>2026-03-28T12:11:26Z</time></trkpt><trkpt lat="39.2190837487237" lon="16.830468651828838"><ele>146.14285714285714</ele><time>2026-03-28T12:11:27Z</time></trkpt><trkpt lat="39.2190508738353" lon="16.830549226130728"><ele>145.85714285714286</ele><time>2026-03-28T12:11:28Z</time></trkpt><trkpt lat="39.219008259040756" lon="16.83064517638008"><ele>145.57142857142858</ele><time>2026-03-28T12:11:30Z</time></trkpt><trkpt lat="39.21896866252805" lon="16.830718671439993"><ele>145.28571428571428</ele><time>2026-03-28T12:11:32Z</time></trkpt><trkpt lat="39.218923840617045" lon="16.830809191877638"><ele>145.0</ele><time>2026-03-28T12:11:35Z</time></trkpt><trkpt lat="39.21885292032444" lon="16.8308591633343"><ele>144.0</ele><time>2026-03-28T12:11:38Z</time></trkpt><trkpt lat="39.218789764705505" lon="16.830894378458147"><ele>143.0</ele><time>2026-03-28T12:11:42Z</time></trkpt><trkpt lat="39.21873890235541" lon="16.83095880346582"><ele>142.0</ele><time>2026-03-28T12:11:46Z</time></trkpt><trkpt lat="39.218662188598174" lon="16.830978342910754"><ele>141.0</ele><time>2026-03-28T12:11:51Z</time></trkpt><trkpt lat="39.21875878438093" lon="16.831425020468195"><ele>141.16666666666666</ele><time>2026-03-28T12:11:55Z</time></trkpt><trkpt lat="39.21871458384697" lon="16.831530081976027"><ele>141.33333333333334</ele><time>2026-03-28T12:11:58Z</time></trkpt><trkpt lat="39.218680142888964" lon="16.831622454762794"><ele>141.5</ele><time>2026-03-28T12:12:00Z</time></trkpt><trkpt lat="39.218651510254816" lon="16.831723723585018"><ele>141.66666666666669</ele><time>2026-03-28T12:12:02Z</time></trkpt><trkpt lat="39.218621159539474" lon="16.83180866992435"><ele>141.83333333333334</ele><time>2026-03-28T12:12:04Z</time></trkpt><trkpt lat="39.218575932036465" lon="16.831901363001823"><ele>142.0</ele><time>2026-03-28T12:12:07Z</time></trkpt><trkpt lat="39.218533618170454" lon="16.831990044756374"><ele>142.0</ele><time>2026-03-28T12:12:11Z</time></trkpt><trkpt lat="39.21847124636178" lon="16.83206378807634"><ele>142.0</ele><time>2026-03-28T12:12:24Z</time></trkpt><trkpt lat="39.21841618867322" lon="16.832132709165638"><ele>142.0</ele><time>2026-03-28T12:12:28Z</time></trkpt><trkpt lat="39.218358837946646" lon="16.83219222865354"><ele>142.0</ele><time>2026-03-28T12:12:31Z</time></trkpt><trkpt lat="39.21829723516122" lon="16.83224795858536"><ele>142.0</ele><time>2026-03-28T12:12:34Z</time></trkpt><trkpt lat="39.21823932918273" lon="16.832301467230447"><ele>142.0</ele><time>2026-03-28T12:12:37Z</time></trkpt><trkpt lat="39.21818349419685" lon="16.832361922620603"><ele>141.83333333333334</ele><time>2026-03-28T12:12:45Z</time></trkpt><trkpt lat="39.21812615368472" lon="16.832439698039884"><ele>141.66666666666669</ele><time>2026-03-28T12:13:02Z</time></trkpt><trkpt lat="39.218115658456604" lon="16.832527695761062"><ele>141.5</ele><time>2026-03-28T12:13:06Z</time></trkpt><trkpt lat="39.21810748203985" lon="16.832630858283196"><ele>141.33333333333334</ele><time>2026-03-28T12:13:14Z</time></trkpt><trkpt lat="39.21813533505988" lon="16.8327438636917"><ele>141.16666666666666</ele><time>2026-03-28T12:13:17Z</time></trkpt><trkpt lat="39.218158789418126" lon="16.832844591719766"><ele>141.0</ele><time>2026-03-28T12:13:44Z</time></trkpt><trkpt lat="39.2181292489467" lon="16.83293157044565"><ele>140.85714285714286</ele><time>2026-03-28T12:13:51Z</time></trkpt><trkpt lat="39.21809979754678" lon="16.833007604981493"><ele>140.71428571428572</ele><time>2026-03-28T12:14:02Z</time></trkpt><trkpt lat="39.21807925259688" lon="16.833104307888764"><ele>140.57142857142856</ele><time>2026-03-28T12:14:09Z</time></trkpt><trkpt lat="39.21805263244432" lon="16.83317963304891"><ele>140.42857142857144</ele><time>2026-03-28T12:14:11Z</time></trkpt><trkpt lat="39.21801296874236" lon="16.83327945566644"><ele>140.28571428571428</ele><time>2026-03-28T12:14:14Z</time></trkpt><trkpt lat="39.21797877698747" lon="16.83335749556104"><ele>140.14285714285714</ele><time>2026-03-28T12:14:18Z</time></trkpt><trkpt lat="39.21795939873643" lon="16.83345677546829"><ele>140.0</ele><time>2026-03-28T12:14:23Z</time></trkpt><trkpt lat="39.217972548997686" lon="16.833560145136907"><ele>139.5</ele><time>2026-03-28T12:14:25Z</time></trkpt><trkpt lat="39.217990107542455" lon="16.833641326706953"><ele>139.0</ele><time>2026-03-28T12:14:27Z</time></trkpt><trkpt lat="39.21799214670195" lon="16.833762955504497"><ele>138.5</ele><time>2026-03-28T12:14:30Z</time></trkpt><trkpt lat="39.21797236279317" lon="16.833843850593258"><ele>138.0</ele><time>2026-03-28T12:15:28Z</time></trkpt><trkpt lat="39.2179256829524" lon="16.833911688060823"><ele>137.5</ele><time>2026-03-28T12:15:30Z</time></trkpt><trkpt lat="39.217863391811996" lon="16.833960358213453"><ele>137.0</ele><time>2026-03-28T12:15:31Z</time></trkpt><trkpt lat="39.21778744747131" lon="16.83403665832352"><ele>137.0</ele><time>2026-03-28T12:15:33Z</time></trkpt><trkpt lat="39.21776315112133" lon="16.834115079330097"><ele>137.0</ele><time>2026-03-28T12:15:35Z</time></trkpt><trkpt lat="39.21774830546593" lon="16.834214838310476"><ele>137.0</ele><time>2026-03-28T12:15:37Z</time></trkpt><trkpt lat="39.21779961660065" lon="16.834391350427612"><ele>137.0</ele><time>2026-03-28T12:15:39Z</time></trkpt><trkpt lat="39.217832444544776" lon="16.834485209234263"><ele>137.0</ele><time>2026-03-28T12:15:40Z</time></trkpt><trkpt lat="39.21785458306635" lon="16.834615892229696"><ele>136.79999999999998</ele><time>2026-03-28T12:15:42Z</time></trkpt><trkpt lat="39.21786956256448" lon="16.834741140471134"><ele>136.6</ele><time>2026-03-28T12:15:44Z</time></trkpt><trkpt lat="39.2178903234824" lon="16.834882737248098"><ele>136.39999999999998</ele><time>2026-03-28T12:15:46Z</time></trkpt><trkpt lat="39.217916157309695" lon="16.83497040368015"><ele>136.2</ele><time>2026-03-28T12:15:48Z</time></trkpt><trkpt lat="39.217902344068364" lon="16.835060417056923"><ele>136.0</ele><time>2026-03-28T12:15:50Z</time></trkpt><trkpt lat="39.217857403844945" lon="16.835205234866642"><ele>135.8</ele><time>2026-03-28T12:15:52Z</time></trkpt><trkpt lat="39.21782763696162" lon="16.83528160091828"><ele>135.6</ele><time>2026-03-28T12:15:53Z</time></trkpt><trkpt lat="39.2178278689775" lon="16.835426643542448"><ele>135.4</ele><time>2026-03-28T12:15:55Z</time></trkpt><trkpt lat="39.21782582282141" lon="16.835558780799776"><ele>135.2</ele><time>2026-03-28T12:15:57Z</time></trkpt><trkpt lat="39.217833936320844" lon="16.835695730092283"><ele>135.0</ele><time>2026-03-28T12:15:59Z</time></trkpt><trkpt lat="39.217829009439896" lon="16.835816373635993"><ele>135.0</ele><time>2026-03-28T12:16:01Z</time></trkpt><trkpt lat="39.21773298354608" lon="16.83585118222952"><ele>135.0</ele><time>2026-03-28T12:16:03Z</time></trkpt><trkpt lat="39.21766900381109" lon="16.835883388472112"><ele>135.0</ele><time>2026-03-28T12:16:04Z</time></trkpt><trkpt lat="39.21760080826534" lon="16.835942395872376"><ele>135.0</ele><time>2026-03-28T12:16:05Z</time></trkpt><trkpt lat="39.2175519480772" lon="16.836006925243566"><ele>135.0</ele><time>2026-03-28T12:16:06Z</time></trkpt><trkpt lat="39.2174751111163" lon="16.836089798602664"><ele>135.0</ele><time>2026-03-28T12:16:08Z</time></trkpt><trkpt lat="39.217516605965756" lon="16.8362110716911"><ele>135.2</ele><time>2026-03-28T12:16:10Z</time></trkpt><trkpt lat="39.21755239949116" lon="16.836280068933572"><ele>135.4</ele><time>2026-03-28T12:16:11Z</time></trkpt><trkpt lat="39.21753172906543" lon="16.836411693301162"><ele>135.6</ele><time>2026-03-28T12:16:13Z</time></trkpt><trkpt lat="39.217511429581876" lon="16.836509472043137"><ele>135.8</ele><time>2026-03-28T12:16:15Z</time></trkpt><trkpt lat="39.217459899752285" lon="16.83662768683098"><ele>136.0</ele><time>2026-03-28T12:16:17Z</time></trkpt><trkpt lat="39.217373497992696" lon="16.83673247564872"><ele>138.16666666666669</ele><time>2026-03-28T12:16:19Z</time></trkpt><trkpt lat="39.21730794449315" lon="16.836855549948265"><ele>140.33333333333334</ele><time>2026-03-28T12:16:21Z</time></trkpt><trkpt lat="39.21726730360418" lon="16.836948656943147"><ele>142.5</ele><time>2026-03-28T12:16:23Z</time></trkpt><trkpt lat="39.2172231697799" lon="16.837057868361722"><ele>144.66666666666666</ele><time>2026-03-28T12:16:26Z</time></trkpt><trkpt lat="39.21720804870664" lon="16.837150484772046"><ele>146.83333333333331</ele><time>2026-03-28T12:16:28Z</time></trkpt><trkpt lat="39.21720601102883" lon="16.837246255446228"><ele>149.0</ele><time>2026-03-28T12:16:30Z</time></trkpt><trkpt lat="39.2172113744488" lon="16.83733236859043"><ele>149.0</ele><time>2026-03-28T12:16:33Z</time></trkpt><trkpt lat="39.21721698469479" lon="16.83742116603101"><ele>149.0</ele><time>2026-03-28T12:16:37Z</time></trkpt><trkpt lat="39.21722842657667" lon="16.83751427801536"><ele>149.0</ele><time>2026-03-28T12:16:50Z</time></trkpt><trkpt lat="39.21724994281478" lon="16.837595263895857"><ele>149.0</ele><time>2026-03-28T12:16:54Z</time></trkpt><trkpt lat="39.21723990394069" lon="16.837677831693075"><ele>149.0</ele><time>2026-03-28T12:16:57Z</time></trkpt><trkpt lat="39.21725571710624" lon="16.837767312733714"><ele>149.0</ele><time>2026-03-28T12:17:01Z</time></trkpt><trkpt lat="39.217286872448966" lon="16.837863579482434"><ele>149.0</ele><time>2026-03-28T12:17:07Z</time></trkpt><trkpt lat="39.2173431196768" lon="16.837947101186366"><ele>146.5</ele><time>2026-03-28T12:17:10Z</time></trkpt><trkpt lat="39.21737356193845" lon="16.83804576555603"><ele>144.0</ele><time>2026-03-28T12:17:12Z</time></trkpt><trkpt lat="39.21740772353528" lon="16.83811816724197"><ele>141.5</ele><time>2026-03-28T12:17:14Z</time></trkpt><trkpt lat="39.217475697602495" lon="16.83820278500318"><ele>139.0</ele><time>2026-03-28T12:17:17Z</time></trkpt><trkpt lat="39.217526751579" lon="16.8382855621654"><ele>136.5</ele><time>2026-03-28T12:17:19Z</time></trkpt><trkpt lat="39.21754348427021" lon="16.838401167229584"><ele>134.0</ele><time>2026-03-28T12:17:21Z</time></trkpt><trkpt lat="39.217627803780495" lon="16.838440092489684"><ele>134.14285714285714</ele><time>2026-03-28T12:17:23Z</time></trkpt><trkpt lat="39.217687664670244" lon="16.838490086169422"><ele>134.28571428571428</ele><time>2026-03-28T12:17:25Z</time></trkpt><trkpt lat="39.217753124703236" lon="16.838538772669168"><ele>134.42857142857142</ele><time>2026-03-28T12:17:28Z</time></trkpt><trkpt lat="39.21782707322653" lon="16.838585954371837"><ele>134.57142857142856</ele><time>2026-03-28T12:17:32Z</time></trkpt><trkpt lat="39.21790904224827" lon="16.838585688832254"><ele>134.7142857142857</ele><time>2026-03-28T12:17:36Z</time></trkpt><trkpt lat="39.21797523468157" lon="16.838583562018183"><ele>134.85714285714286</ele><time>2026-03-28T12:17:44Z</time></trkpt><trkpt lat="39.21804280716054" lon="16.838593189259374"><ele>135.0</ele><time>2026-03-28T12:17:51Z</time></trkpt><trkpt lat="39.2181227113999" lon="16.838611225741253"><ele>134.57142857142856</ele><time>2026-03-28T12:17:57Z</time></trkpt><trkpt lat="39.21817700360859" lon="16.838667066943316"><ele>134.14285714285714</ele><time>2026-03-28T12:18:04Z</time></trkpt><trkpt lat="39.218201226175104" lon="16.83874239847844"><ele>133.71428571428572</ele><time>2026-03-28T12:18:10Z</time></trkpt><trkpt lat="39.2182245604278" lon="16.83882718483127"><ele>133.28571428571428</ele><time>2026-03-28T12:18:14Z</time></trkpt><trkpt lat="39.21825779187045" lon="16.838904307378833"><ele>132.85714285714286</ele><time>2026-03-28T12:18:18Z</time></trkpt><trkpt lat="39.21825396057989" lon="16.839004523969752"><ele>132.42857142857142</ele><time>2026-03-28T12:18:24Z</time></trkpt><trkpt lat="39.218236361566014" lon="16.83909153647397"><ele>132.0</ele><time>2026-03-28T12:18:29Z</time></trkpt><trkpt lat="39.2182485294361" lon="16.83917261234262"><ele>132.0</ele><time>2026-03-28T12:18:33Z</time></trkpt><trkpt lat="39.218244745876234" lon="16.83926644908063"><ele>132.0</ele><time>2026-03-28T12:18:39Z</time></trkpt><trkpt lat="39.21823070290722" lon="16.839356914058467"><ele>132.0</ele><time>2026-03-28T12:18:44Z</time></trkpt><trkpt lat="39.218258676653754" lon="16.83945086297465"><ele>132.0</ele><time>2026-03-28T12:19:15Z</time></trkpt><trkpt lat="39.218330288985186" lon="16.839501721529587"><ele>132.0</ele><time>2026-03-28T12:19:19Z</time></trkpt><trkpt lat="39.21838366300617" lon="16.839546170633923"><ele>132.0</ele><time>2026-03-28T12:19:21Z</time></trkpt><trkpt lat="39.21844231963914" lon="16.839583073254815"><ele>132.0</ele><time>2026-03-28T12:19:25Z</time></trkpt><trkpt lat="39.218505388080274" lon="16.83957878085582"><ele>132.5</ele><time>2026-03-28T12:19:31Z</time></trkpt><trkpt lat="39.21855972171634" lon="16.83964660672143"><ele>133.0</ele><time>2026-03-28T12:19:35Z</time></trkpt><trkpt lat="39.21861118336814" lon="16.839719936979975"><ele>133.5</ele><time>2026-03-28T12:19:40Z</time></trkpt><trkpt lat="39.218672411776254" lon="16.83977516592184"><ele>134.0</ele><time>2026-03-28T12:19:48Z</time></trkpt><trkpt lat="39.21865659448995" lon="16.83985928871574"><ele>134.5</ele><time>2026-03-28T12:19:55Z</time></trkpt><trkpt lat="39.21860969956939" lon="16.839927099236263"><ele>135.0</ele><time>2026-03-28T12:19:58Z</time></trkpt><trkpt lat="39.21858003336595" lon="16.840042905403763"><ele>139.0</ele><time>2026-03-28T12:20:00Z</time></trkpt><trkpt lat="39.218597629875795" lon="16.840184112760564"><ele>143.0</ele><time>2026-03-28T12:20:02Z</time></trkpt><trkpt lat="39.2186247310683" lon="16.840264161244388"><ele>147.0</ele><time>2026-03-28T12:20:03Z</time></trkpt><trkpt lat="39.218653181271605" lon="16.84034955505016"><ele>151.0</ele><time>2026-03-28T12:20:04Z</time></trkpt><trkpt lat="39.218718929934646" lon="16.840468394435533"><ele>155.0</ele><time>2026-03-28T12:20:06Z</time></trkpt><trkpt lat="39.21878813688376" lon="16.840554916634158"><ele>155.0</ele><time>2026-03-28T12:20:08Z</time></trkpt><trkpt lat="39.21886165202655" lon="16.840623917767715"><ele>155.0</ele><time>2026-03-28T12:20:10Z</time></trkpt><trkpt lat="39.218913895292786" lon="16.84068629885783"><ele>155.0</ele><time>2026-03-28T12:20:12Z</time></trkpt><trkpt lat="39.21897143011378" lon="16.84074501230965"><ele>155.0</ele><time>2026-03-28T12:20:14Z</time></trkpt><trkpt lat="39.21903760950733" lon="16.840805528128204"><ele>155.0</ele><time>2026-03-28T12:20:16Z</time></trkpt><trkpt lat="39.219111429172195" lon="16.840829536793187"><ele>155.0</ele><time>2026-03-28T12:20:18Z</time></trkpt><trkpt lat="39.21919309534405" lon="16.84082221887658"><ele>154.28571428571428</ele><time>2026-03-28T12:20:22Z</time></trkpt><trkpt lat="39.21925753838189" lon="16.840881260713854"><ele>153.57142857142856</ele><time>2026-03-28T12:20:26Z</time></trkpt><trkpt lat="39.21929765972288" lon="16.840962039396555"><ele>152.85714285714283</ele><time>2026-03-28T12:20:29Z</time></trkpt><trkpt lat="39.21935534951875" lon="16.840999267596892"><ele>152.14285714285714</ele><time>2026-03-28T12:20:32Z</time></trkpt><trkpt lat="39.21941641291603" lon="16.8410713828544"><ele>151.42857142857142</ele><time>2026-03-28T12:20:36Z</time></trkpt><trkpt lat="39.219463579981394" lon="16.841131669838287"><ele>150.7142857142857</ele><time>2026-03-28T12:20:40Z</time></trkpt><trkpt lat="39.21950999608412" lon="16.84120020154132"><ele>150.0</ele><time>2026-03-28T12:20:46Z</time></trkpt><trkpt lat="39.21953941773082" lon="16.84128767530444"><ele>149.99999999999997</ele><time>2026-03-28T12:20:49Z</time></trkpt><trkpt lat="39.21955920235905" lon="16.841394648010713"><ele>150.0</ele><time>2026-03-28T12:20:53Z</time></trkpt><trkpt lat="39.21959081704179" lon="16.841487012776383"><ele>150.0</ele><time>2026-03-28T12:20:56Z</time></trkpt><trkpt lat="39.219632758697074" lon="16.84154921120646"><ele>150.0</ele><time>2026-03-28T12:20:58Z</time></trkpt><trkpt lat="39.21964971913071" lon="16.841631918981097"><ele>150.0</ele><time>2026-03-28T12:21:01Z</time></trkpt><trkpt lat="39.219675595435604" lon="16.841716349740935"><ele>149.99999999999997</ele><time>2026-03-28T12:21:05Z</time></trkpt><trkpt lat="39.21972300435831" lon="16.8417961190841"><ele>150.0</ele><time>2026-03-28T12:21:09Z</time></trkpt><trkpt lat="39.21976522197254" lon="16.841887351343384"><ele>148.16666666666666</ele><time>2026-03-28T12:21:14Z</time></trkpt><trkpt lat="39.21980713526879" lon="16.841967391772727"><ele>146.33333333333334</ele><time>2026-03-28T12:21:17Z</time></trkpt><trkpt lat="39.21987353708388" lon="16.842028197971487"><ele>144.5</ele><time>2026-03-28T12:21:20Z</time></trkpt><trkpt lat="39.21991575502475" lon="16.842111270631968"><ele>142.66666666666669</ele><time>2026-03-28T12:21:22Z</time></trkpt><trkpt lat="39.21998338648612" lon="16.842166872722938"><ele>140.83333333333334</ele><time>2026-03-28T12:21:25Z</time></trkpt><trkpt lat="39.220049839510416" lon="16.84221361300244"><ele>139.0</ele><time>2026-03-28T12:21:30Z</time></trkpt><trkpt lat="39.22012764411415" lon="16.842228396199197"><ele>139.0</ele><time>2026-03-28T12:21:35Z</time></trkpt><trkpt lat="39.22020680248873" lon="16.84224286917356"><ele>139.0</ele><time>2026-03-28T12:21:39Z</time></trkpt><trkpt lat="39.220270835885856" lon="16.842269626770143"><ele>139.0</ele><time>2026-03-28T12:21:42Z</time></trkpt><trkpt lat="39.22034628925559" lon="16.842316293162703"><ele>139.0</ele><time>2026-03-28T12:21:45Z</time></trkpt><trkpt lat="39.2204012326083" lon="16.84236466932107"><ele>139.0</ele><time>2026-03-28T12:21:48Z</time></trkpt><trkpt lat="39.22045613242772" lon="16.842427697855815"><ele>139.0</ele><time>2026-03-28T12:21:52Z</time></trkpt><trkpt lat="39.22051135399845" lon="16.8425082037619"><ele>139.0</ele><time>2026-03-28T12:21:56Z</time></trkpt><trkpt lat="39.22055413139247" lon="16.84257986584903"><ele>139.0</ele><time>2026-03-28T12:22:12Z</time></trkpt><trkpt lat="39.22058220496718" lon="16.842654230113364"><ele>139.0</ele><time>2026-03-28T12:22:15Z</time></trkpt><trkpt lat="39.220618501128456" lon="16.842721907474665"><ele>139.0</ele><time>2026-03-28T12:22:19Z</time></trkpt><trkpt lat="39.22066465721254" lon="16.842804636306653"><ele>139.0</ele><time>2026-03-28T12:22:22Z</time></trkpt><trkpt lat="39.220706057533164" lon="16.842887151854036"><ele>139.0</ele><time>2026-03-28T12:22:26Z</time></trkpt><trkpt lat="39.22075059259062" lon="16.842960145972"><ele>139.0</ele><time>2026-03-28T12:22:33Z</time></trkpt><trkpt lat="39.22072476165456" lon="16.84304759379943"><ele>139.14285714285714</ele><time>2026-03-28T12:23:31Z</time></trkpt><trkpt lat="39.22069396101104" lon="16.843127102573675"><ele>139.28571428571428</ele><time>2026-03-28T12:23:40Z</time></trkpt><trkpt lat="39.22069793386874" lon="16.843219965415496"><ele>139.42857142857144</ele><time>2026-03-28T12:25:15Z</time></trkpt><trkpt lat="39.22065315651078" lon="16.843323661405474"><ele>139.57142857142856</ele><time>2026-03-28T12:26:31Z</time></trkpt><trkpt lat="39.22066519959975" lon="16.84340636687812"><ele>139.71428571428572</ele><time>2026-03-28T12:27:02Z</time></trkpt><trkpt lat="39.22068022591563" lon="16.84349079772095"><ele>139.85714285714286</ele><time>2026-03-28T12:27:10Z</time></trkpt><trkpt lat="39.220672005164595" lon="16.84359180687923"><ele>140.0</ele><time>2026-03-28T12:27:15Z</time></trkpt><trkpt lat="39.22065721244416" lon="16.843671549611837"><ele>140.85714285714286</ele><time>2026-03-28T12:27:19Z</time></trkpt><trkpt lat="39.22064666293346" lon="16.843751846101345"><ele>141.71428571428572</ele><time>2026-03-28T12:27:32Z</time></trkpt><trkpt lat="39.220712062655664" lon="16.84378251582829"><ele>142.57142857142856</ele><time>2026-03-28T12:27:40Z</time></trkpt><trkpt lat="39.22077124487053" lon="16.84384158836319"><ele>143.42857142857144</ele><time>2026-03-28T12:27:45Z</time></trkpt><trkpt lat="39.220811658772604" lon="16.843912809458725"><ele>144.28571428571428</ele><time>2026-03-28T12:27:49Z</time></trkpt><trkpt lat="39.22082044868218" lon="16.844002627716247"><ele>145.14285714285714</ele><time>2026-03-28T12:27:52Z</time></trkpt><trkpt lat="39.22081898180602" lon="16.844090325639662"><ele>146.0</ele><time>2026-03-28T12:27:55Z</time></trkpt><trkpt lat="39.22082456773528" lon="16.84418854274008"><ele>144.14285714285714</ele><time>2026-03-28T12:27:58Z</time></trkpt><trkpt lat="39.22085789943655" lon="16.844290037119727"><ele>142.28571428571428</ele><time>2026-03-28T12:28:01Z</time></trkpt><trkpt lat="39.22090318800942" lon="16.84436535737015"><ele>140.42857142857144</ele><time>2026-03-28T12:28:04Z</time></trkpt><trkpt lat="39.220931107879444" lon="16.844451230940468"><ele>138.57142857142856</ele><time>2026-03-28T12:28:07Z</time></trkpt><trkpt lat="39.220923235517986" lon="16.844540691818533"><ele>136.71428571428572</ele><time>2026-03-28T12:28:10Z</time></trkpt><trkpt lat="39.220908242153634" lon="16.84462708368338"><ele>134.85714285714286</ele><time>2026-03-28T12:28:13Z</time></trkpt><trkpt lat="39.22091352766531" lon="16.844715258458884"><ele>133.0</ele><time>2026-03-28T12:28:16Z</time></trkpt><trkpt lat="39.220953735650006" lon="16.844781264314893"><ele>133.0</ele><time>2026-03-28T12:28:19Z</time></trkpt><trkpt lat="39.22102337112861" lon="16.84481501062525"><ele>133.0</ele><time>2026-03-28T12:28:22Z</time></trkpt><trkpt lat="39.221086921137434" lon="16.84484963380341"><ele>133.0</ele><time>2026-03-28T12:28:25Z</time></trkpt><trkpt lat="39.22115310725922" lon="16.844873750368198"><ele>133.0</ele><time>2026-03-28T12:28:28Z</time></trkpt><trkpt lat="39.221230962927905" lon="16.844864404558113"><ele>133.0</ele><time>2026-03-28T12:28:32Z</time></trkpt><trkpt lat="39.221298777619545" lon="16.844864744343713"><ele>133.0</ele><time>2026-03-28T12:28:35Z</time></trkpt><trkpt lat="39.22138260468919" lon="16.844899636377555"><ele>133.0</ele><time>2026-03-28T12:28:38Z</time></trkpt><trkpt lat="39.221449212280376" lon="16.844919519034164"><ele>132.33333333333334</ele><time>2026-03-28T12:28:40Z</time></trkpt><trkpt lat="39.2215292324709" lon="16.844954021303945"><ele>131.66666666666669</ele><time>2026-03-28T12:28:43Z</time></trkpt><trkpt lat="39.221598806447325" lon="16.845002012866527"><ele>131.0</ele><time>2026-03-28T12:28:46Z</time></trkpt><trkpt lat="39.22168915464598" lon="16.84499143037992"><ele>130.33333333333334</ele><time>2026-03-28T12:28:49Z</time></trkpt><trkpt lat="39.22176410904901" lon="16.845001113819674"><ele>129.66666666666666</ele><time>2026-03-28T12:28:51Z</time></trkpt><trkpt lat="39.221844619373" lon="16.84505282681061"><ele>129.0</ele><time>2026-03-28T12:28:53Z</time></trkpt><trkpt lat="39.221900824360176" lon="16.84512216673297"><ele>129.0</ele><time>2026-03-28T12:28:55Z</time></trkpt><trkpt lat="39.22195303181213" lon="16.84519450894505"><ele>129.0</ele><time>2026-03-28T12:28:57Z</time></trkpt><trkpt lat="39.2220263200192" lon="16.84524404774847"><ele>129.0</ele><time>2026-03-28T12:28:59Z</time></trkpt><trkpt lat="39.222091608880596" lon="16.84531183059176"><ele>129.0</ele><time>2026-03-28T12:29:01Z</time></trkpt><trkpt lat="39.222167521815194" lon="16.845375049223055"><ele>129.0</ele><time>2026-03-28T12:29:03Z</time></trkpt><trkpt lat="39.222249902179904" lon="16.845423237837544"><ele>129.0</ele><time>2026-03-28T12:29:05Z</time></trkpt><trkpt lat="39.222318469308945" lon="16.845500621340552"><ele>129.0</ele><time>2026-03-28T12:29:07Z</time></trkpt><trkpt lat="39.22239883703421" lon="16.845525676055907"><ele>129.0</ele><time>2026-03-28T12:29:09Z</time></trkpt><trkpt lat="39.22247070653654" lon="16.84555321434234"><ele>129.0</ele><time>2026-03-28T12:29:14Z</time></trkpt><trkpt lat="39.22251570360709" lon="16.845628373759112"><ele>129.0</ele><time>2026-03-28T12:29:23Z</time></trkpt><trkpt lat="39.222511486822675" lon="16.8457186273925"><ele>129.0</ele><time>2026-03-28T12:29:30Z</time></trkpt><trkpt lat="39.222541182698684" lon="16.84582599818085"><ele>129.0</ele><time>2026-03-28T12:29:35Z</time></trkpt><trkpt lat="39.222593261336456" lon="16.845875779955648"><ele>129.0</ele><time>2026-03-28T12:29:38Z</time></trkpt><trkpt lat="39.22266187372171" lon="16.845854225083816"><ele>129.0</ele><time>2026-03-28T12:29:42Z</time></trkpt><trkpt lat="39.22273361844183" lon="16.845897132741534"><ele>129.0</ele><time>2026-03-28T12:29:46Z</time></trkpt><trkpt lat="39.22278194097143" lon="16.845993700735903"><ele>129.0</ele><time>2026-03-28T12:29:49Z</time></trkpt><trkpt lat="39.22281367229486" lon="16.84610008185945"><ele>129.0</ele><time>2026-03-28T12:29:51Z</time></trkpt><trkpt lat="39.22289640967277" lon="16.846154326312362"><ele>129.0</ele><time>2026-03-28T12:29:53Z</time></trkpt><trkpt lat="39.22297246685169" lon="16.846221175375604"><ele>128.83333333333334</ele><time>2026-03-28T12:29:55Z</time></trkpt><trkpt lat="39.223020624894396" lon="16.84630661919314"><ele>128.66666666666666</ele><time>2026-03-28T12:29:58Z</time></trkpt><trkpt lat="39.22305600359863" lon="16.84641728363814"><ele>128.5</ele><time>2026-03-28T12:30:00Z</time></trkpt><trkpt lat="39.22309828496179" lon="16.846533045550903"><ele>128.33333333333331</ele><time>2026-03-28T12:30:02Z</time></trkpt><trkpt lat="39.22308798236477" lon="16.846642814258644"><ele>128.16666666666666</ele><time>2026-03-28T12:30:04Z</time></trkpt><trkpt lat="39.22309905528285" lon="16.846733379632994"><ele>128.0</ele><time>2026-03-28T12:30:06Z</time></trkpt><trkpt lat="39.22305699126781" lon="16.846830133222497"><ele>128.0</ele><time>2026-03-28T12:30:09Z</time></trkpt><trkpt lat="39.223005203958444" lon="16.846895265826124"><ele>127.99999999999999</ele><time>2026-03-28T12:30:12Z</time></trkpt><trkpt lat="39.222971022396166" lon="16.846977545158122"><ele>128.0</ele><time>2026-03-28T12:30:14Z</time></trkpt><trkpt lat="39.222966490859335" lon="16.84706017314666"><ele>128.0</ele><time>2026-03-28T12:30:16Z</time></trkpt><trkpt lat="39.22295238467438" lon="16.84714854633223"><ele>127.99999999999999</ele><time>2026-03-28T12:30:23Z</time></trkpt><trkpt lat="39.22290420321092" lon="16.847214179072214"><ele>128.0</ele><time>2026-03-28T12:30:33Z</time></trkpt><trkpt lat="39.222861485699305" lon="16.847293606785236"><ele>128.0</ele><time>2026-03-28T12:30:38Z</time></trkpt><trkpt lat="39.222822005514594" lon="16.84737043230109"><ele>128.0</ele><time>2026-03-28T12:30:44Z</time></trkpt><trkpt lat="39.222745729769166" lon="16.84738860497341"><ele>127.99999999999999</ele><time>2026-03-28T12:30:48Z</time></trkpt><trkpt lat="39.22267682086939" lon="16.847369380496296"><ele>128.0</ele><time>2026-03-28T12:30:51Z</time></trkpt><trkpt lat="39.222593912269275" lon="16.84738261981845"><ele>128.0</ele><time>2026-03-28T12:30:54Z</time></trkpt><trkpt lat="39.22252137397724" lon="16.84741005739764"><ele>127.99999999999999</ele><time>2026-03-28T12:30:58Z</time></trkpt><trkpt lat="39.22246777727639" lon="16.847467491898193"><ele>128.0</ele><time>2026-03-28T12:31:02Z</time></trkpt><trkpt lat="39.2224750372046" lon="16.847556777316004"><ele>128.0</ele><time>2026-03-28T12:31:07Z</time></trkpt><trkpt lat="39.22254030807657" lon="16.847621082570747"><ele>127.80000000000001</ele><time>2026-03-28T12:31:10Z</time></trkpt><trkpt lat="39.22257772167976" lon="16.84771440115894"><ele>127.60000000000001</ele><time>2026-03-28T12:31:12Z</time></trkpt><trkpt lat="39.22259995139675" lon="16.847839704068708"><ele>127.39999999999999</ele><time>2026-03-28T12:31:14Z</time></trkpt><trkpt lat="39.22258848882896" lon="16.847967696768535"><ele>127.19999999999999</ele><time>2026-03-28T12:31:16Z</time></trkpt><trkpt lat="39.22254556246194" lon="16.8480618051759"><ele>127.0</ele><time>2026-03-28T12:31:18Z</time></trkpt><trkpt lat="39.222604357073045" lon="16.84816685046439"><ele>127.00000000000001</ele><time>2026-03-28T12:31:20Z</time></trkpt><trkpt lat="39.22263168379015" lon="16.848257599459394"><ele>127.0</ele><time>2026-03-28T12:31:23Z</time></trkpt><trkpt lat="39.222663682351325" lon="16.848357322681068"><ele>127.0</ele><time>2026-03-28T12:31:27Z</time></trkpt><trkpt lat="39.222691741582366" lon="16.848437389491462"><ele>127.0</ele><time>2026-03-28T12:31:29Z</time></trkpt><trkpt lat="39.22266710413142" lon="16.84854535526072"><ele>127.00000000000001</ele><time>2026-03-28T12:31:31Z</time></trkpt><trkpt lat="39.222706748389" lon="16.84861231810134"><ele>127.0</ele><time>2026-03-28T12:31:32Z</time></trkpt><trkpt lat="39.22269385174437" lon="16.8487240501639"><ele>128.57142857142858</ele><time>2026-03-28T12:31:34Z</time></trkpt><trkpt lat="39.222739105342605" lon="16.84879579108505"><ele>130.14285714285714</ele><time>2026-03-28T12:31:37Z</time></trkpt><trkpt lat="39.22279785439896" lon="16.848835176422465"><ele>131.71428571428572</ele><time>2026-03-28T12:31:41Z</time></trkpt><trkpt lat="39.22285214126831" lon="16.848894503881198"><ele>133.28571428571428</ele><time>2026-03-28T12:31:46Z</time></trkpt><trkpt lat="39.22288733737271" lon="16.848962549010285"><ele>134.85714285714286</ele><time>2026-03-28T12:31:55Z</time></trkpt><trkpt lat="39.222929766486075" lon="16.849043741354084"><ele>136.42857142857144</ele><time>2026-03-28T12:32:01Z</time></trkpt><trkpt lat="39.22297404381591" lon="16.84910427857316"><ele>138.0</ele><time>2026-03-28T12:32:05Z</time></trkpt><trkpt lat="39.22298204387407" lon="16.849185151136314"><ele>138.0</ele><time>2026-03-28T12:32:08Z</time></trkpt><trkpt lat="39.22300790903243" lon="16.849271927879972"><ele>138.0</ele><time>2026-03-28T12:32:11Z</time></trkpt><trkpt lat="39.223061935210175" lon="16.849363023895172"><ele>138.0</ele><time>2026-03-28T12:32:14Z</time></trkpt><trkpt lat="39.22301744286478" lon="16.849432193954375"><ele>138.0</ele><time>2026-03-28T12:32:16Z</time></trkpt><trkpt lat="39.22295973536195" lon="16.84951267730182"><ele>138.0</ele><time>2026-03-28T12:32:19Z</time></trkpt><trkpt lat="39.222973525658674" lon="16.84959539626139"><ele>138.0</ele><time>2026-03-28T12:32:20Z</time></trkpt><trkpt lat="39.223036546404" lon="16.84970470952918"><ele>136.0</ele><time>2026-03-28T12:32:22Z</time></trkpt><trkpt lat="39.22308833504199" lon="16.849753727722174"><ele>134.0</ele><time>2026-03-28T12:32:24Z</time></trkpt><trkpt lat="39.22316123916454" lon="16.84978418735912"><ele>132.0</ele><time>2026-03-28T12:32:26Z</time></trkpt><trkpt lat="39.223254907069744" lon="16.84983979968333"><ele>130.0</ele><time>2026-03-28T12:32:28Z</time></trkpt><trkpt lat="39.22330073977397" lon="16.849945586091174"><ele>128.0</ele><time>2026-03-28T12:32:30Z</time></trkpt><trkpt lat="39.223342612011024" lon="16.850032174301358"><ele>126.0</ele><time>2026-03-28T12:32:32Z</time></trkpt><trkpt lat="39.22339460711934" lon="16.850110179377282"><ele>126.14285714285714</ele><time>2026-03-28T12:32:34Z</time></trkpt><trkpt lat="39.22342400880202" lon="16.85021768684937"><ele>126.28571428571428</ele><time>2026-03-28T12:32:36Z</time></trkpt><trkpt lat="39.223435637968365" lon="16.85031215865315"><ele>126.42857142857143</ele><time>2026-03-28T12:32:39Z</time></trkpt><trkpt lat="39.22345853122041" lon="16.850401406878184"><ele>126.57142857142857</ele><time>2026-03-28T12:32:42Z</time></trkpt><trkpt lat="39.22349172970074" lon="16.85047793052056"><ele>126.71428571428571</ele><time>2026-03-28T12:32:46Z</time></trkpt><trkpt lat="39.22353662658908" lon="16.850546866490436"><ele>126.85714285714286</ele><time>2026-03-28T12:33:06Z</time></trkpt><trkpt lat="39.22355471396834" lon="16.850636139447623"><ele>127.0</ele><time>2026-03-28T12:33:09Z</time></trkpt><trkpt lat="39.22353703244445" lon="16.850715681012556"><ele>127.00000000000001</ele><time>2026-03-28T12:33:13Z</time></trkpt><trkpt lat="39.22351915727751" lon="16.850826933932808"><ele>127.0</ele><time>2026-03-28T12:33:16Z</time></trkpt><trkpt lat="39.223507914615276" lon="16.850907979211232"><ele>127.0</ele><time>2026-03-28T12:33:18Z</time></trkpt><trkpt lat="39.223507524597515" lon="16.85099072431536"><ele>127.0</ele><time>2026-03-28T12:33:20Z</time></trkpt><trkpt lat="39.223510605778436" lon="16.851076803411157"><ele>127.00000000000001</ele><time>2026-03-28T12:33:22Z</time></trkpt><trkpt lat="39.223527911328915" lon="16.85119616565727"><ele>127.0</ele><time>2026-03-28T12:33:25Z</time></trkpt><trkpt lat="39.22352078461676" lon="16.851291360020987"><ele>125.8</ele><time>2026-03-28T12:33:27Z</time></trkpt><trkpt lat="39.2235095062321" lon="16.851404473953917"><ele>124.6</ele><time>2026-03-28T12:33:29Z</time></trkpt><trkpt lat="39.22350107784603" lon="16.851514114442033"><ele>123.39999999999999</ele><time>2026-03-28T12:33:31Z</time></trkpt><trkpt lat="39.22350918927361" lon="16.851634356119025"><ele>122.19999999999999</ele><time>2026-03-28T12:33:33Z</time></trkpt><trkpt lat="39.2235093335848" lon="16.851771868132335"><ele>121.0</ele><time>2026-03-28T12:33:35Z</time></trkpt><trkpt lat="39.22349342078621" lon="16.85192592841328"><ele>119.8</ele><time>2026-03-28T12:33:37Z</time></trkpt><trkpt lat="39.22348750445214" lon="16.85207260840803"><ele>118.6</ele><time>2026-03-28T12:33:39Z</time></trkpt><trkpt lat="39.22347274311461" lon="16.85219527456729"><ele>117.4</ele><time>2026-03-28T12:33:41Z</time></trkpt><trkpt lat="39.22345203232986" lon="16.85231375335105"><ele>116.2</ele><time>2026-03-28T12:33:43Z</time></trkpt><trkpt lat="39.22342112994853" lon="16.852435586223677"><ele>115.0</ele><time>2026-03-28T12:33:45Z</time></trkpt><trkpt lat="39.22336256887167" lon="16.852534411503637"><ele>115.0</ele><time>2026-03-28T12:33:47Z</time></trkpt><trkpt lat="39.22333934843371" lon="16.85261691782618"><ele>115.0</ele><time>2026-03-28T12:33:49Z</time></trkpt><trkpt lat="39.223293483121545" lon="16.85271510263054"><ele>115.0</ele><time>2026-03-28T12:33:59Z</time></trkpt><trkpt lat="39.22325080014048" lon="16.852816862410297"><ele>115.0</ele><time>2026-03-28T12:34:01Z</time></trkpt><trkpt lat="39.223206358496206" lon="16.852954679081783"><ele>115.0</ele><time>2026-03-28T12:34:03Z</time></trkpt><trkpt lat="39.223165308462576" lon="16.85305847282995"><ele>115.0</ele><time>2026-03-28T12:34:04Z</time></trkpt><trkpt lat="39.223123886475456" lon="16.85317301426657"><ele>115.0</ele><time>2026-03-28T12:34:05Z</time></trkpt><trkpt lat="39.22307491856713" lon="16.85329004619222"><ele>115.0</ele><time>2026-03-28T12:34:06Z</time></trkpt><trkpt lat="39.223024173909614" lon="16.853410327482308"><ele>115.0</ele><time>2026-03-28T12:34:07Z</time></trkpt><trkpt lat="39.22297967546834" lon="16.85353193477885"><ele>115.0</ele><time>2026-03-28T12:34:08Z</time></trkpt><trkpt lat="39.22294359113515" lon="16.85363059644019"><ele>115.00000000000001</ele><time>2026-03-28T12:34:09Z</time></trkpt><trkpt lat="39.22290725404689" lon="16.85371051324751"><ele>115.0</ele><time>2026-03-28T12:34:10Z</time></trkpt><trkpt lat="39.22284488561212" lon="16.85384067661181"><ele>115.0</ele><time>2026-03-28T12:34:12Z</time></trkpt><trkpt lat="39.22279277649377" lon="16.853944586664408"><ele>115.0</ele><time>2026-03-28T12:34:14Z</time></trkpt><trkpt lat="39.22275574364497" lon="16.854013870773382"><ele>115.00000000000001</ele><time>2026-03-28T12:34:16Z</time></trkpt><trkpt lat="39.222701327954134" lon="16.85408654283866"><ele>115.0</ele><time>2026-03-28T12:34:20Z</time></trkpt><trkpt lat="39.222658576433744" lon="16.85416836396738"><ele>114.99999999999999</ele><time>2026-03-28T12:34:23Z</time></trkpt><trkpt lat="39.22266557305917" lon="16.854257177254805"><ele>115.0</ele><time>2026-03-28T12:34:46Z</time></trkpt><trkpt lat="39.222602947717846" lon="16.85428344339378"><ele>114.99999999999999</ele><time>2026-03-28T12:35:22Z</time></trkpt><trkpt lat="39.22253558285529" lon="16.85433159518474"><ele>114.99999999999999</ele><time>2026-03-28T12:35:26Z</time></trkpt><trkpt lat="39.222483714676855" lon="16.854378902656475"><ele>115.0</ele><time>2026-03-28T12:35:31Z</time></trkpt><trkpt lat="39.22243503953858" lon="16.854438416685916"><ele>114.99999999999999</ele><time>2026-03-28T12:35:35Z</time></trkpt><trkpt lat="39.222385122464004" lon="16.854498186812354"><ele>114.99999999999999</ele><time>2026-03-28T12:35:39Z</time></trkpt><trkpt lat="39.22233728734421" lon="16.854568849364544"><ele>115.7142857142857</ele><time>2026-03-28T12:35:43Z</time></trkpt><trkpt lat="39.2222854230473" lon="16.854641194331684"><ele>116.42857142857142</ele><time>2026-03-28T12:35:47Z</time></trkpt><trkpt lat="39.22223928090414" lon="16.854698615045187"><ele>117.14285714285714</ele><time>2026-03-28T12:35:53Z</time></trkpt><trkpt lat="39.222188800205615" lon="16.854764019980202"><ele>117.85714285714285</ele><time>2026-03-28T12:35:55Z</time></trkpt><trkpt lat="39.222153239253764" lon="16.854844675722873"><ele>118.57142857142856</ele><time>2026-03-28T12:35:58Z</time></trkpt><trkpt lat="39.222109279127345" lon="16.854922455994625"><ele>119.28571428571429</ele><time>2026-03-28T12:36:01Z</time></trkpt><trkpt lat="39.22207066891628" lon="16.85501238222542"><ele>120.0</ele><time>2026-03-28T12:36:04Z</time></trkpt><trkpt lat="39.2220274896626" lon="16.855123195666806"><ele>118.16666666666667</ele><time>2026-03-28T12:36:07Z</time></trkpt><trkpt lat="39.222016320980515" lon="16.855210130478955"><ele>116.33333333333334</ele><time>2026-03-28T12:36:09Z</time></trkpt><trkpt lat="39.222003420635545" lon="16.855317844933033"><ele>114.5</ele><time>2026-03-28T12:36:12Z</time></trkpt><trkpt lat="39.221989273029465" lon="16.855398861444726"><ele>112.66666666666667</ele><time>2026-03-28T12:36:14Z</time></trkpt><trkpt lat="39.22196451204553" lon="16.855500815885843"><ele>110.83333333333334</ele><time>2026-03-28T12:36:18Z</time></trkpt><trkpt lat="39.22196160681655" lon="16.85560766384066"><ele>109.0</ele><time>2026-03-28T12:36:21Z</time></trkpt><trkpt lat="39.22195528947105" lon="16.855710528794287"><ele>109.00000000000001</ele><time>2026-03-28T12:36:25Z</time></trkpt><trkpt lat="39.22194116978475" lon="16.855826555207127"><ele>109.0</ele><time>2026-03-28T12:36:29Z</time></trkpt><trkpt lat="39.22192701529984" lon="16.855909823259807"><ele>109.0</ele><time>2026-03-28T12:36:31Z</time></trkpt><trkpt lat="39.22190296943753" lon="16.855995995799887"><ele>109.0</ele><time>2026-03-28T12:36:33Z</time></trkpt><trkpt lat="39.22186400350649" lon="16.856089936628866"><ele>109.00000000000001</ele><time>2026-03-28T12:36:35Z</time></trkpt><trkpt lat="39.22182403019085" lon="16.856162098149117"><ele>109.0</ele><time>2026-03-28T12:36:36Z</time></trkpt><trkpt lat="39.221761232567296" lon="16.856261573431684"><ele>108.80000000000001</ele><time>2026-03-28T12:36:38Z</time></trkpt><trkpt lat="39.22172038550865" lon="16.856330820370765"><ele>108.60000000000001</ele><time>2026-03-28T12:36:40Z</time></trkpt><trkpt lat="39.221661221071095" lon="16.856429894173345"><ele>108.4</ele><time>2026-03-28T12:36:42Z</time></trkpt><trkpt lat="39.22159467789982" lon="16.856549225256433"><ele>108.2</ele><time>2026-03-28T12:36:44Z</time></trkpt><trkpt lat="39.22152965758267" lon="16.856641613860813"><ele>108.0</ele><time>2026-03-28T12:36:46Z</time></trkpt><trkpt lat="39.22145862457806" lon="16.856726911398166"><ele>107.83333333333333</ele><time>2026-03-28T12:36:49Z</time></trkpt><trkpt lat="39.221382976989794" lon="16.856809014926775"><ele>107.66666666666666</ele><time>2026-03-28T12:36:51Z</time></trkpt><trkpt lat="39.22130585922288" lon="16.85687424007875"><ele>107.5</ele><time>2026-03-28T12:36:53Z</time></trkpt><trkpt lat="39.22124047058297" lon="16.856924328808308"><ele>107.33333333333333</ele><time>2026-03-28T12:36:55Z</time></trkpt><trkpt lat="39.2211941929787" lon="16.85700596714919"><ele>107.16666666666666</ele><time>2026-03-28T12:36:58Z</time></trkpt><trkpt lat="39.221202890463125" lon="16.85710340492682"><ele>107.0</ele><time>2026-03-28T12:37:00Z</time></trkpt><trkpt lat="39.22119879106445" lon="16.85720029156018"><ele>107.00000000000001</ele><time>2026-03-28T12:37:02Z</time></trkpt><trkpt lat="39.22116584420532" lon="16.857275927551893"><ele>107.0</ele><time>2026-03-28T12:37:04Z</time></trkpt><trkpt lat="39.221124083817514" lon="16.857349428346183"><ele>107.0</ele><time>2026-03-28T12:37:07Z</time></trkpt><trkpt lat="39.22106608261661" lon="16.857397794414037"><ele>107.0</ele><time>2026-03-28T12:37:10Z</time></trkpt><trkpt lat="39.221011678307214" lon="16.85745796118804"><ele>107.0</ele><time>2026-03-28T12:37:13Z</time></trkpt><trkpt lat="39.22098407930418" lon="16.85754011784697"><ele>107.00000000000001</ele><time>2026-03-28T12:37:28Z</time></trkpt><trkpt lat="39.22096552204888" lon="16.857630274632676"><ele>107.0</ele><time>2026-03-28T12:37:35Z</time></trkpt><trkpt lat="39.22095221694841" lon="16.8577100479211"><ele>107.33333333333333</ele><time>2026-03-28T12:37:41Z</time></trkpt><trkpt lat="39.220949547658066" lon="16.857801344055034"><ele>107.66666666666666</ele><time>2026-03-28T12:37:45Z</time></trkpt><trkpt lat="39.22093573808495" lon="16.85788340849802"><ele>108.0</ele><time>2026-03-28T12:37:48Z</time></trkpt><trkpt lat="39.22089622391463" lon="16.85797266527601"><ele>108.33333333333334</ele><time>2026-03-28T12:37:53Z</time></trkpt><trkpt lat="39.220859474177786" lon="16.858058188280566"><ele>108.66666666666667</ele><time>2026-03-28T12:37:56Z</time></trkpt><trkpt lat="39.22082601823468" lon="16.858158619046105"><ele>109.0</ele><time>2026-03-28T12:37:58Z</time></trkpt><trkpt lat="39.22079373830487" lon="16.858292620249337"><ele>109.00000000000001</ele><time>2026-03-28T12:38:00Z</time></trkpt><trkpt lat="39.22076623106596" lon="16.858409528987426"><ele>109.0</ele><time>2026-03-28T12:38:02Z</time></trkpt><trkpt lat="39.22075024620573" lon="16.85852648116053"><ele>109.0</ele><time>2026-03-28T12:38:05Z</time></trkpt><trkpt lat="39.22071250105347" lon="16.85862814526126"><ele>109.0</ele><time>2026-03-28T12:38:08Z</time></trkpt><trkpt lat="39.22066818193146" lon="16.85870504047613"><ele>109.00000000000001</ele><time>2026-03-28T12:38:11Z</time></trkpt><trkpt lat="39.2206118892164" lon="16.858805537312577"><ele>109.0</ele><time>2026-03-28T12:38:14Z</time></trkpt><trkpt lat="39.22057832433924" lon="16.858903480777467"><ele>108.66666666666667</ele><time>2026-03-28T12:38:16Z</time></trkpt><trkpt lat="39.220557012976656" lon="16.859013541191196"><ele>108.33333333333334</ele><time>2026-03-28T12:38:18Z</time></trkpt><trkpt lat="39.22057137111013" lon="16.859123896856048"><ele>108.0</ele><time>2026-03-28T12:38:20Z</time></trkpt><trkpt lat="39.220550184113044" lon="16.859220359430157"><ele>107.66666666666666</ele><time>2026-03-28T12:38:22Z</time></trkpt><trkpt lat="39.22046635030442" lon="16.859255826458654"><ele>107.33333333333333</ele><time>2026-03-28T12:38:24Z</time></trkpt><trkpt lat="39.220374820770324" lon="16.85925392541261"><ele>107.0</ele><time>2026-03-28T12:38:26Z</time></trkpt><trkpt lat="39.22028349292022" lon="16.859247174171486"><ele>106.83333333333333</ele><time>2026-03-28T12:38:28Z</time></trkpt><trkpt lat="39.22017795271529" lon="16.859324334151005"><ele>106.66666666666666</ele><time>2026-03-28T12:38:30Z</time></trkpt><trkpt lat="39.220126806335145" lon="16.85937187894189"><ele>106.5</ele><time>2026-03-28T12:38:31Z</time></trkpt><trkpt lat="39.22003143762911" lon="16.859462356112626"><ele>106.33333333333334</ele><time>2026-03-28T12:38:33Z</time></trkpt><trkpt lat="39.219985501873836" lon="16.85951952680306"><ele>106.16666666666667</ele><time>2026-03-28T12:38:34Z</time></trkpt><trkpt lat="39.21993856356632" lon="16.859576142163366"><ele>106.0</ele><time>2026-03-28T12:38:35Z</time></trkpt><trkpt lat="39.219853827885466" lon="16.859663803964082"><ele>106.0</ele><time>2026-03-28T12:38:37Z</time></trkpt><trkpt lat="39.21978532631853" lon="16.859733530024045"><ele>106.0</ele><time>2026-03-28T12:38:39Z</time></trkpt><trkpt lat="39.21972534938785" lon="16.85981337547923"><ele>106.0</ele><time>2026-03-28T12:38:41Z</time></trkpt><trkpt lat="39.21965968178903" lon="16.859915067269192"><ele>106.0</ele><time>2026-03-28T12:38:43Z</time></trkpt><trkpt lat="39.219553030887816" lon="16.859978262375574"><ele>106.0</ele><time>2026-03-28T12:38:45Z</time></trkpt><trkpt lat="39.21945819694949" lon="16.85997709010648"><ele>106.00000000000001</ele><time>2026-03-28T12:38:46Z</time></trkpt><trkpt lat="39.21938907174527" lon="16.859977498687147"><ele>106.0</ele><time>2026-03-28T12:38:47Z</time></trkpt><trkpt lat="39.21926706311131" lon="16.860006641549557"><ele>106.0</ele><time>2026-03-28T12:38:49Z</time></trkpt><trkpt lat="39.219197476728716" lon="16.86005082892243"><ele>106.0</ele><time>2026-03-28T12:38:50Z</time></trkpt><trkpt lat="39.21914268547105" lon="16.8600959485567"><ele>106.00000000000001</ele><time>2026-03-28T12:38:51Z</time></trkpt><trkpt lat="39.219065439347524" lon="16.860120917903295"><ele>106.0</ele><time>2026-03-28T12:38:52Z</time></trkpt><trkpt lat="39.218958146750374" lon="16.860123019444295"><ele>106.0</ele><time>2026-03-28T12:38:53Z</time></trkpt><trkpt lat="39.218881224290364" lon="16.86015165623523"><ele>106.0</ele><time>2026-03-28T12:38:54Z</time></trkpt><trkpt lat="39.21881706336095" lon="16.86017668209967"><ele>106.0</ele><time>2026-03-28T12:38:55Z</time></trkpt><trkpt lat="39.218722774839534" lon="16.860211294688593"><ele>106.0</ele><time>2026-03-28T12:38:57Z</time></trkpt><trkpt lat="39.2186275483851" lon="16.860245709697207"><ele>106.0</ele><time>2026-03-28T12:38:59Z</time></trkpt><trkpt lat="39.21850912002697" lon="16.860269409879553"><ele>106.0</ele><time>2026-03-28T12:39:01Z</time></trkpt><trkpt lat="39.2183935786837" lon="16.860281740357152"><ele>106.0</ele><time>2026-03-28T12:39:03Z</time></trkpt><trkpt lat="39.21828674011731" lon="16.860329119490277"><ele>106.0</ele><time>2026-03-28T12:39:05Z</time></trkpt><trkpt lat="39.218182340342175" lon="16.860382096161256"><ele>106.0</ele><time>2026-03-28T12:39:07Z</time></trkpt><trkpt lat="39.21806848091557" lon="16.86040650109685"><ele>105.66666666666667</ele><time>2026-03-28T12:39:09Z</time></trkpt><trkpt lat="39.2179717782827" lon="16.86041753238435"><ele>105.33333333333334</ele><time>2026-03-28T12:39:11Z</time></trkpt><trkpt lat="39.217904646084946" lon="16.860438771999604"><ele>105.0</ele><time>2026-03-28T12:39:13Z</time></trkpt><trkpt lat="39.217823988514965" lon="16.86048513332361"><ele>104.66666666666666</ele><time>2026-03-28T12:39:16Z</time></trkpt><trkpt lat="39.21775721275365" lon="16.860518369919905"><ele>104.33333333333333</ele><time>2026-03-28T12:39:18Z</time></trkpt><trkpt lat="39.217680917450345" lon="16.86056322893697"><ele>104.0</ele><time>2026-03-28T12:39:20Z</time></trkpt><trkpt lat="39.21759812445762" lon="16.86061904393754"><ele>103.99999999999999</ele><time>2026-03-28T12:39:22Z</time></trkpt><trkpt lat="39.21753762684118" lon="16.860659528662133"><ele>104.0</ele><time>2026-03-28T12:39:23Z</time></trkpt><trkpt lat="39.21746876250873" lon="16.860709870030753"><ele>104.0</ele><time>2026-03-28T12:39:24Z</time></trkpt><trkpt lat="39.21740916259404" lon="16.860757436524086"><ele>104.0</ele><time>2026-03-28T12:39:25Z</time></trkpt><trkpt lat="39.2173346911122" lon="16.860802462848554"><ele>103.99999999999999</ele><time>2026-03-28T12:39:26Z</time></trkpt><trkpt lat="39.21724864492566" lon="16.860854058448407"><ele>104.0</ele><time>2026-03-28T12:39:27Z</time></trkpt><trkpt lat="39.21718281103063" lon="16.860900022619237"><ele>103.80000000000001</ele><time>2026-03-28T12:39:28Z</time></trkpt><trkpt lat="39.21709722662513" lon="16.860955217074594"><ele>103.60000000000001</ele><time>2026-03-28T12:39:29Z</time></trkpt><trkpt lat="39.21701797775926" lon="16.860993811408903"><ele>103.4</ele><time>2026-03-28T12:39:30Z</time></trkpt><trkpt lat="39.21692068793094" lon="16.861095093159406"><ele>103.2</ele><time>2026-03-28T12:39:32Z</time></trkpt><trkpt lat="39.21686199289771" lon="16.861151074067376"><ele>103.0</ele><time>2026-03-28T12:39:33Z</time></trkpt><trkpt lat="39.216786909827206" lon="16.86116227937565"><ele>103.00000000000001</ele><time>2026-03-28T12:39:34Z</time></trkpt><trkpt lat="39.21668706095883" lon="16.86116899686315"><ele>103.0</ele><time>2026-03-28T12:39:35Z</time></trkpt><trkpt lat="39.216611631167304" lon="16.86119589929134"><ele>103.0</ele><time>2026-03-28T12:39:36Z</time></trkpt><trkpt lat="39.21653812396712" lon="16.861217732421814"><ele>103.0</ele><time>2026-03-28T12:39:38Z</time></trkpt><trkpt lat="39.21646350047879" lon="16.861229365657763"><ele>103.00000000000001</ele><time>2026-03-28T12:39:40Z</time></trkpt><trkpt lat="39.216376040875176" lon="16.861249434513052"><ele>103.0</ele><time>2026-03-28T12:39:42Z</time></trkpt><trkpt lat="39.21630733687201" lon="16.86126432462739"><ele>102.4</ele><time>2026-03-28T12:39:43Z</time></trkpt><trkpt lat="39.21623759607285" lon="16.861283360051896"><ele>101.80000000000001</ele><time>2026-03-28T12:39:44Z</time></trkpt><trkpt lat="39.21616053795028" lon="16.861288146761126"><ele>101.2</ele><time>2026-03-28T12:39:45Z</time></trkpt><trkpt lat="39.216064726632354" lon="16.861295051021592"><ele>100.6</ele><time>2026-03-28T12:39:46Z</time></trkpt><trkpt lat="39.2159468119793" lon="16.861333073735302"><ele>100.0</ele><time>2026-03-28T12:39:47Z</time></trkpt><trkpt lat="39.21584473447727" lon="16.861362272771423"><ele>100.00000000000001</ele><time>2026-03-28T12:39:48Z</time></trkpt><trkpt lat="39.21575300561682" lon="16.861370958715675"><ele>100.0</ele><time>2026-03-28T12:39:49Z</time></trkpt><trkpt lat="39.21567502169541" lon="16.861377167054584"><ele>100.0</ele><time>2026-03-28T12:39:50Z</time></trkpt><trkpt lat="39.215574803858715" lon="16.86139073916406"><ele>100.0</ele><time>2026-03-28T12:39:52Z</time></trkpt><trkpt lat="39.21548824605834" lon="16.861413790802775"><ele>100.00000000000001</ele><time>2026-03-28T12:39:54Z</time></trkpt><trkpt lat="39.21541833202611" lon="16.861438074931687"><ele>100.0</ele><time>2026-03-28T12:39:55Z</time></trkpt><trkpt lat="39.21535518419943" lon="16.861456833506633"><ele>100.16666666666667</ele><time>2026-03-28T12:39:56Z</time></trkpt><trkpt lat="39.21529115704416" lon="16.86141995443955"><ele>100.33333333333334</ele><time>2026-03-28T12:39:58Z</time></trkpt><trkpt lat="39.215178192286096" lon="16.861423696751128"><ele>100.5</ele><time>2026-03-28T12:40:00Z</time></trkpt><trkpt lat="39.21511876146247" lon="16.861469152355166"><ele>100.66666666666666</ele><time>2026-03-28T12:40:01Z</time></trkpt><trkpt lat="39.21504692375961" lon="16.861568268211645"><ele>100.83333333333333</ele><time>2026-03-28T12:40:03Z</time></trkpt><trkpt lat="39.21499941117618" lon="16.861637418050808"><ele>101.0</ele><time>2026-03-28T12:40:06Z</time></trkpt><trkpt lat="39.214938347417444" lon="16.861704687197452"><ele>101.0</ele><time>2026-03-28T12:40:10Z</time></trkpt><trkpt lat="39.21488850937573" lon="16.86177049539268"><ele>101.0</ele><time>2026-03-28T12:40:13Z</time></trkpt><trkpt lat="39.21485470148314" lon="16.861839179577114"><ele>101.0</ele><time>2026-03-28T12:40:20Z</time></trkpt><trkpt lat="39.2148086014315" lon="16.86190949843709"><ele>101.0</ele><time>2026-03-28T12:40:25Z</time></trkpt><trkpt lat="39.21475896546049" lon="16.86196681342615"><ele>101.0</ele><time>2026-03-28T12:40:31Z</time></trkpt><trkpt lat="39.214751689588304" lon="16.862047929362046"><ele>101.0</ele><time>2026-03-28T12:40:34Z</time></trkpt><trkpt lat="39.21473208570812" lon="16.86218466830199"><ele>101.0</ele><time>2026-03-28T12:40:36.999Z</time></trkpt><trkpt lat="39.21469381091935" lon="16.862277290437543"><ele>100.99999999999999</ele><time>2026-03-28T12:40:37.999Z</time></trkpt><trkpt lat="39.21463312997993" lon="16.862378261153097"><ele>101.0</ele><time>2026-03-28T12:40:39.999Z</time></trkpt><trkpt lat="39.214578674503244" lon="16.86242801117659"><ele>101.0</ele><time>2026-03-28T12:40:44.999Z</time></trkpt><trkpt lat="39.21451608441584" lon="16.862473486149103"><ele>101.0</ele><time>2026-03-28T12:40:59.999Z</time></trkpt><trkpt lat="39.214453528585345" lon="16.862526086432954"><ele>100.99999999999999</ele><time>2026-03-28T12:41:03.999Z</time></trkpt><trkpt lat="39.214397989773815" lon="16.862577768764677"><ele>101.0</ele><time>2026-03-28T12:41:06.999Z</time></trkpt><trkpt lat="39.21435234855954" lon="16.86267916163614"><ele>100.49999999999999</ele><time>2026-03-28T12:41:09.999Z</time></trkpt><trkpt lat="39.21432138269079" lon="16.8627589367665"><ele>100.0</ele><time>2026-03-28T12:41:11.999Z</time></trkpt><trkpt lat="39.21425956321212" lon="16.86284630334111"><ele>99.5</ele><time>2026-03-28T12:41:13.999Z</time></trkpt><trkpt lat="39.21420068468749" lon="16.86300306630022"><ele>99.0</ele><time>2026-03-28T12:41:15.999Z</time></trkpt><trkpt lat="39.21414796389949" lon="16.863058345355462"><ele>98.49999999999999</ele><time>2026-03-28T12:41:16.999Z</time></trkpt><trkpt lat="39.214119450388274" lon="16.863152689399374"><ele>98.0</ele><time>2026-03-28T12:41:18.999Z</time></trkpt><trkpt lat="39.21406104030956" lon="16.863201767481996"><ele>98.0</ele><time>2026-03-28T12:41:24.999Z</time></trkpt><trkpt lat="39.21399862583894" lon="16.863180962103332"><ele>98.0</ele><time>2026-03-28T12:41:28.999Z</time></trkpt><trkpt lat="39.21394332979955" lon="16.863136423589726"><ele>98.0</ele><time>2026-03-28T12:41:32.999Z</time></trkpt><trkpt lat="39.21388122857635" lon="16.863079939744527"><ele>98.0</ele><time>2026-03-28T12:41:36.999Z</time></trkpt><trkpt lat="39.213819791792076" lon="16.863099549200804"><ele>98.0</ele><time>2026-03-28T12:41:41.999Z</time></trkpt><trkpt lat="39.21375619269992" lon="16.863115452177436"><ele>98.0</ele><time>2026-03-28T12:41:44.999Z</time></trkpt><trkpt lat="39.21367596083678" lon="16.863190860883527"><ele>98.0</ele><time>2026-03-28T12:41:46.999Z</time></trkpt><trkpt lat="39.21357215129113" lon="16.863161788607567"><ele>97.99999999999999</ele><time>2026-03-28T12:41:48.999Z</time></trkpt><trkpt lat="39.21348830492525" lon="16.863235512165236"><ele>98.0</ele><time>2026-03-28T12:41:50.999Z</time></trkpt><trkpt lat="39.21342690780338" lon="16.863345955202142"><ele>98.0</ele><time>2026-03-28T12:41:51.999Z</time></trkpt><trkpt lat="39.213364939687565" lon="16.863414788348468"><ele>98.0</ele><time>2026-03-28T12:41:52.999Z</time></trkpt><trkpt lat="39.21330581968594" lon="16.863454562153677"><ele>97.99999999999999</ele><time>2026-03-28T12:41:53.999Z</time></trkpt><trkpt lat="39.21325006004367" lon="16.863512567555706"><ele>98.0</ele><time>2026-03-28T12:41:54.999Z</time></trkpt><trkpt lat="39.2131966718952" lon="16.863629436120004"><ele>98.0</ele><time>2026-03-28T12:41:56.999Z</time></trkpt><trkpt lat="39.21320734802644" lon="16.86375062821297"><ele>98.0</ele><time>2026-03-28T12:41:58.999Z</time></trkpt><trkpt lat="39.21319112866503" lon="16.863848765483393"><ele>98.0</ele><time>2026-03-28T12:42:01.999Z</time></trkpt><trkpt lat="39.213154398999414" lon="16.86398062936702"><ele>98.0</ele><time>2026-03-28T12:42:03.999Z</time></trkpt><trkpt lat="39.213105739800014" lon="16.864065511052026"><ele>98.0</ele><time>2026-03-28T12:42:04.999Z</time></trkpt><trkpt lat="39.21306519760551" lon="16.864169509498076"><ele>97.99999999999999</ele><time>2026-03-28T12:42:05.999Z</time></trkpt><trkpt lat="39.21303415654847" lon="16.86426480591773"><ele>98.0</ele><time>2026-03-28T12:42:06.999Z</time></trkpt><trkpt lat="39.21299599904788" lon="16.864352219787257"><ele>98.0</ele><time>2026-03-28T12:42:07.999Z</time></trkpt><trkpt lat="39.212963078643206" lon="16.864438705754885"><ele>98.0</ele><time>2026-03-28T12:42:08.999Z</time></trkpt><trkpt lat="39.21291389582283" lon="16.864515709297617"><ele>97.99999999999999</ele><time>2026-03-28T12:42:09.999Z</time></trkpt><trkpt lat="39.21284485208207" lon="16.864618384813507"><ele>98.0</ele><time>2026-03-28T12:42:10.999Z</time></trkpt><trkpt lat="39.2127833971518" lon="16.864690363842985"><ele>97.99999999999999</ele><time>2026-03-28T12:42:11.999Z</time></trkpt><trkpt lat="39.212722391711445" lon="16.864717755135654"><ele>98.0</ele><time>2026-03-28T12:42:12.999Z</time></trkpt><trkpt lat="39.21265935608688" lon="16.864753195867284"><ele>98.0</ele><time>2026-03-28T12:42:13.999Z</time></trkpt><trkpt lat="39.21260451803013" lon="16.864807099764132"><ele>98.0</ele><time>2026-03-28T12:42:14.999Z</time></trkpt><trkpt lat="39.21250934113933" lon="16.86487526640777"><ele>97.99999999999999</ele><time>2026-03-28T12:42:16.999Z</time></trkpt><trkpt lat="39.21242110177091" lon="16.864865025874177"><ele>98.0</ele><time>2026-03-28T12:42:18.999Z</time></trkpt><trkpt lat="39.212361269226776" lon="16.864896038167412"><ele>98.0</ele><time>2026-03-28T12:42:19.999Z</time></trkpt><trkpt lat="39.212298498606046" lon="16.86500384467944"><ele>98.0</ele><time>2026-03-28T12:42:21.999Z</time></trkpt><trkpt lat="39.21225930141578" lon="16.865088471237588"><ele>98.0</ele><time>2026-03-28T12:42:23.999Z</time></trkpt><trkpt lat="39.21218715666138" lon="16.865136766783092"><ele>98.0</ele><time>2026-03-28T12:42:26.999Z</time></trkpt><trkpt lat="39.21212668457081" lon="16.86521053972873"><ele>98.0</ele><time>2026-03-28T12:42:28.999Z</time></trkpt><trkpt lat="39.21215953408725" lon="16.865343539695168"><ele>98.0</ele><time>2026-03-28T12:42:30.999Z</time></trkpt><trkpt lat="39.212178686993546" lon="16.865459182445004"><ele>98.0</ele><time>2026-03-28T12:42:33.999Z</time></trkpt><trkpt lat="39.21218167302239" lon="16.86554465327946"><ele>98.0</ele><time>2026-03-28T12:42:35.999Z</time></trkpt><trkpt lat="39.212165608932615" lon="16.865636692367197"><ele>98.0</ele><time>2026-03-28T12:42:49.999Z</time></trkpt><trkpt lat="39.21214454670449" lon="16.865714864893416"><ele>98.0</ele><time>2026-03-28T12:42:50.999Z</time></trkpt><trkpt lat="39.21210316857348" lon="16.86579159207509"><ele>98.0</ele><time>2026-03-28T12:42:51.999Z</time></trkpt><trkpt lat="39.212032939360164" lon="16.86584223650062"><ele>98.0</ele><time>2026-03-28T12:42:52.999Z</time></trkpt><trkpt lat="39.21194502462182" lon="16.865883430640892"><ele>98.0</ele><time>2026-03-28T12:42:53.999Z</time></trkpt><trkpt lat="39.21184956783604" lon="16.86593579835909"><ele>98.0</ele><time>2026-03-28T12:42:54.999Z</time></trkpt><trkpt lat="39.211798443859365" lon="16.866020623042466"><ele>98.0</ele><time>2026-03-28T12:42:55.999Z</time></trkpt><trkpt lat="39.21178198629658" lon="16.86613845893736"><ele>98.0</ele><time>2026-03-28T12:42:56.999Z</time></trkpt><trkpt lat="39.21181972163496" lon="16.866247207408385"><ele>98.0</ele><time>2026-03-28T12:42:57.999Z</time></trkpt><trkpt lat="39.21186381320449" lon="16.866348208059758"><ele>97.83333333333333</ele><time>2026-03-28T12:42:58.999Z</time></trkpt><trkpt lat="39.21190079012698" lon="16.86647228791969"><ele>97.66666666666666</ele><time>2026-03-28T12:43:00.999Z</time></trkpt><trkpt lat="39.21189676445449" lon="16.866586540369244"><ele>97.5</ele><time>2026-03-28T12:43:11.999Z</time></trkpt><trkpt lat="39.21190614940549" lon="16.866684930234936"><ele>97.33333333333334</ele><time>2026-03-28T12:43:14.999Z</time></trkpt><trkpt lat="39.21192120564134" lon="16.866783390437007"><ele>97.16666666666667</ele><time>2026-03-28T12:43:20Z</time></trkpt><trkpt lat="39.21193409685968" lon="16.86687994994267"><ele>97.0</ele><time>2026-03-28T12:43:32Z</time></trkpt><trkpt lat="39.21195096428369" lon="16.86696738011292"><ele>97.0</ele><time>2026-03-28T12:43:35Z</time></trkpt><trkpt lat="39.21192467296422" lon="16.867047979536387"><ele>97.0</ele><time>2026-03-28T12:43:41Z</time></trkpt><trkpt lat="39.211852031961925" lon="16.867105870840764"><ele>97.0</ele><time>2026-03-28T12:43:44Z</time></trkpt><trkpt lat="39.2117895197414" lon="16.867162100551955"><ele>97.0</ele><time>2026-03-28T12:43:47Z</time></trkpt><trkpt lat="39.21174703756668" lon="16.867234961086346"><ele>97.0</ele><time>2026-03-28T12:43:50Z</time></trkpt><trkpt lat="39.211697436220796" lon="16.867318821940675"><ele>97.0</ele><time>2026-03-28T12:43:54Z</time></trkpt><trkpt lat="39.21166766778009" lon="16.867393156892863"><ele>97.0</ele><time>2026-03-28T12:43:57Z</time></trkpt><trkpt lat="39.21164550861473" lon="16.867491032924285"><ele>97.00000000000001</ele><time>2026-03-28T12:44:01Z</time></trkpt><trkpt lat="39.21161679676182" lon="16.867598846613614"><ele>97.0</ele><time>2026-03-28T12:44:04Z</time></trkpt><trkpt lat="39.211578427517466" lon="16.86768945433887"><ele>97.0</ele><time>2026-03-28T12:44:13Z</time></trkpt><trkpt lat="39.21154613609667" lon="16.867796041320904"><ele>97.0</ele><time>2026-03-28T12:44:17Z</time></trkpt><trkpt lat="39.21156663599552" lon="16.867874442961128"><ele>97.00000000000001</ele><time>2026-03-28T12:44:20Z</time></trkpt><trkpt lat="39.211606006878235" lon="16.867955980763274"><ele>97.0</ele><time>2026-03-28T12:44:24Z</time></trkpt><trkpt lat="39.21164444178115" lon="16.868040861208485"><ele>97.33333333333334</ele><time>2026-03-28T12:44:29Z</time></trkpt><trkpt lat="39.211690593693085" lon="16.86813264384452"><ele>97.66666666666667</ele><time>2026-03-28T12:44:32Z</time></trkpt><trkpt lat="39.21173250827406" lon="16.86823606201743"><ele>98.0</ele><time>2026-03-28T12:44:35Z</time></trkpt><trkpt lat="39.211764096131034" lon="16.868316330737155"><ele>98.33333333333334</ele><time>2026-03-28T12:44:37Z</time></trkpt><trkpt lat="39.21180852639186" lon="16.86840804647365"><ele>98.66666666666667</ele><time>2026-03-28T12:44:39Z</time></trkpt><trkpt lat="39.211854685958414" lon="16.868492005585875"><ele>99.0</ele><time>2026-03-28T12:44:41Z</time></trkpt><trkpt lat="39.211898686286155" lon="16.868581955474877"><ele>101.0</ele><time>2026-03-28T12:44:43Z</time></trkpt><trkpt lat="39.2119408729146" lon="16.868693615433884"><ele>103.0</ele><time>2026-03-28T12:44:45Z</time></trkpt><trkpt lat="39.21200559545441" lon="16.8688177345639"><ele>105.0</ele><time>2026-03-28T12:44:47Z</time></trkpt><trkpt lat="39.212029566094216" lon="16.868911488536458"><ele>107.0</ele><time>2026-03-28T12:44:48Z</time></trkpt><trkpt lat="39.21205350053312" lon="16.869026929348458"><ele>109.0</ele><time>2026-03-28T12:44:49Z</time></trkpt><trkpt lat="39.21207339590833" lon="16.869123353117836"><ele>109.0</ele><time>2026-03-28T12:44:50Z</time></trkpt><trkpt lat="39.21208524473813" lon="16.86920494274125"><ele>109.0</ele><time>2026-03-28T12:44:51Z</time></trkpt><trkpt lat="39.21209590643015" lon="16.86934884399098"><ele>109.0</ele><time>2026-03-28T12:44:53Z</time></trkpt><trkpt lat="39.212115502912084" lon="16.869485516828394"><ele>109.0</ele><time>2026-03-28T12:44:55Z</time></trkpt><trkpt lat="39.2121365006494" lon="16.869611618727003"><ele>109.0</ele><time>2026-03-28T12:44:57Z</time></trkpt><trkpt lat="39.21215487599715" lon="16.86972991326101"><ele>109.50000000000001</ele><time>2026-03-28T12:44:59Z</time></trkpt><trkpt lat="39.212180288238066" lon="16.869843122531634"><ele>110.0</ele><time>2026-03-28T12:45:01Z</time></trkpt><trkpt lat="39.212210914180766" lon="16.869956611381088"><ele>110.5</ele><time>2026-03-28T12:45:03Z</time></trkpt><trkpt lat="39.212244441519786" lon="16.87006269709316"><ele>111.0</ele><time>2026-03-28T12:45:06Z</time></trkpt><trkpt lat="39.21227640611089" lon="16.870160430896295"><ele>111.50000000000001</ele><time>2026-03-28T12:45:09Z</time></trkpt><trkpt lat="39.212296110036824" lon="16.870241656528624"><ele>112.0</ele><time>2026-03-28T12:45:13Z</time></trkpt><trkpt lat="39.21232565997055" lon="16.870326729327434"><ele>112.0</ele><time>2026-03-28T12:45:24Z</time></trkpt><trkpt lat="39.212365496067676" lon="16.87041887150274"><ele>111.99999999999999</ele><time>2026-03-28T12:45:48Z</time></trkpt><trkpt lat="39.21238161125804" lon="16.870524941552226"><ele>111.99999999999999</ele><time>2026-03-28T12:46:00Z</time></trkpt><trkpt lat="39.21231875465714" lon="16.87067617936916"><ele>112.0</ele><time>2026-03-28T12:46:02Z</time></trkpt><trkpt lat="39.21228638684716" lon="16.8707777029903"><ele>112.0</ele><time>2026-03-28T12:46:04Z</time></trkpt><trkpt lat="39.21228528860004" lon="16.870863221125354"><ele>113.6</ele><time>2026-03-28T12:46:07Z</time></trkpt><trkpt lat="39.21229224127523" lon="16.87095583378239"><ele>115.19999999999999</ele><time>2026-03-28T12:46:09Z</time></trkpt><trkpt lat="39.21231694390498" lon="16.87105685080662"><ele>116.8</ele><time>2026-03-28T12:46:12Z</time></trkpt><trkpt lat="39.212369928171945" lon="16.871158554311812"><ele>118.4</ele><time>2026-03-28T12:46:15Z</time></trkpt><trkpt lat="39.21243812905281" lon="16.871243395054336"><ele>120.0</ele><time>2026-03-28T12:46:17Z</time></trkpt><trkpt lat="39.21253819522874" lon="16.871305811599996"><ele>120.0</ele><time>2026-03-28T12:46:19Z</time></trkpt><trkpt lat="39.21264488269251" lon="16.871375577298522"><ele>120.0</ele><time>2026-03-28T12:46:21Z</time></trkpt><trkpt lat="39.21270110455175" lon="16.871413863323014"><ele>120.0</ele><time>2026-03-28T12:46:22Z</time></trkpt><trkpt lat="39.21279277484628" lon="16.87148435879733"><ele>120.0</ele><time>2026-03-28T12:46:24Z</time></trkpt><trkpt lat="39.21288321130067" lon="16.871551158129215"><ele>120.0</ele><time>2026-03-28T12:46:26Z</time></trkpt><trkpt lat="39.212967993747434" lon="16.871622451963546"><ele>120.0</ele><time>2026-03-28T12:46:28Z</time></trkpt><trkpt lat="39.21302697717571" lon="16.87170395541674"><ele>120.0</ele><time>2026-03-28T12:46:29Z</time></trkpt><trkpt lat="39.21306624381965" lon="16.871777482954464"><ele>120.0</ele><time>2026-03-28T12:46:30Z</time></trkpt><trkpt lat="39.2130966856687" lon="16.871890688881397"><ele>120.0</ele><time>2026-03-28T12:46:32Z</time></trkpt><trkpt lat="39.21311667342345" lon="16.87197172929728"><ele>120.0</ele><time>2026-03-28T12:46:34Z</time></trkpt><trkpt lat="39.213143868000266" lon="16.872081312537254"><ele>120.0</ele><time>2026-03-28T12:46:36Z</time></trkpt><trkpt lat="39.213182203399235" lon="16.872255502980888"><ele>118.6</ele><time>2026-03-28T12:46:38Z</time></trkpt><trkpt lat="39.213202168047324" lon="16.87234997868491"><ele>117.2</ele><time>2026-03-28T12:46:39Z</time></trkpt><trkpt lat="39.213224226231674" lon="16.872463104484527"><ele>115.80000000000001</ele><time>2026-03-28T12:46:40Z</time></trkpt><trkpt lat="39.21325231452631" lon="16.872608725877587"><ele>114.4</ele><time>2026-03-28T12:46:41Z</time></trkpt><trkpt lat="39.213276201714365" lon="16.87274914251461"><ele>113.0</ele><time>2026-03-28T12:46:42Z</time></trkpt><trkpt lat="39.213293274107855" lon="16.872878664983226"><ele>112.99999999999999</ele><time>2026-03-28T12:46:43Z</time></trkpt><trkpt lat="39.2133027806969" lon="16.872992829507055"><ele>113.0</ele><time>2026-03-28T12:46:44Z</time></trkpt><trkpt lat="39.213303130425075" lon="16.873093024600188"><ele>113.0</ele><time>2026-03-28T12:46:45Z</time></trkpt><trkpt lat="39.213301990603156" lon="16.873181606183568"><ele>113.0</ele><time>2026-03-28T12:46:46Z</time></trkpt><trkpt lat="39.21331334258859" lon="16.873322283613792"><ele>112.99999999999999</ele><time>2026-03-28T12:46:48Z</time></trkpt><trkpt lat="39.21331289807661" lon="16.8734199549194"><ele>113.0</ele><time>2026-03-28T12:46:50Z</time></trkpt><trkpt lat="39.21337327123577" lon="16.873529673213515"><ele>113.4</ele><time>2026-03-28T12:46:52Z</time></trkpt><trkpt lat="39.21343182425025" lon="16.87360542531401"><ele>113.80000000000001</ele><time>2026-03-28T12:46:53Z</time></trkpt><trkpt lat="39.21349507128292" lon="16.873682195707037"><ele>114.2</ele><time>2026-03-28T12:46:54Z</time></trkpt><trkpt lat="39.21358104443802" lon="16.8737791688322"><ele>114.6</ele><time>2026-03-28T12:46:55Z</time></trkpt><trkpt lat="39.21366592325257" lon="16.8738892475174"><ele>115.0</ele><time>2026-03-28T12:46:56Z</time></trkpt><trkpt lat="39.21373688881728" lon="16.874002773616265"><ele>115.0</ele><time>2026-03-28T12:46:57Z</time></trkpt><trkpt lat="39.21381636438325" lon="16.874116733519646"><ele>115.0</ele><time>2026-03-28T12:46:58Z</time></trkpt><trkpt lat="39.21389759703054" lon="16.87425002241351"><ele>115.0</ele><time>2026-03-28T12:46:59Z</time></trkpt><trkpt lat="39.213974656670445" lon="16.874421248881593"><ele>115.0</ele><time>2026-03-28T12:47:00Z</time></trkpt><trkpt lat="39.21405808953064" lon="16.87459198259322"><ele>115.75</ele><time>2026-03-28T12:47:01Z</time></trkpt><trkpt lat="39.2141277857313" lon="16.874742237661597"><ele>116.5</ele><time>2026-03-28T12:47:02Z</time></trkpt><trkpt lat="39.214189999850355" lon="16.874883671366376"><ele>117.25</ele><time>2026-03-28T12:47:03Z</time></trkpt><trkpt lat="39.21425126263281" lon="16.875029420383868"><ele>118.0</ele><time>2026-03-28T12:47:04Z</time></trkpt><trkpt lat="39.214306466940094" lon="16.875167325434635"><ele>119.25</ele><time>2026-03-28T12:47:05Z</time></trkpt><trkpt lat="39.21436214280113" lon="16.87530893251331"><ele>120.5</ele><time>2026-03-28T12:47:06Z</time></trkpt><trkpt lat="39.21442650111458" lon="16.8754735167628"><ele>121.75</ele><time>2026-03-28T12:47:07Z</time></trkpt><trkpt lat="39.214483300388935" lon="16.875606544830315"><ele>123.0</ele><time>2026-03-28T12:47:08Z</time></trkpt><trkpt lat="39.214531225064114" lon="16.87571186985309"><ele>123.0</ele><time>2026-03-28T12:47:09Z</time></trkpt><trkpt lat="39.21457099676542" lon="16.8758058450654"><ele>123.00000000000001</ele><time>2026-03-28T12:47:10Z</time></trkpt><trkpt lat="39.214606057923405" lon="16.875915995535603"><ele>123.00000000000001</ele><time>2026-03-28T12:47:11Z</time></trkpt><trkpt lat="39.214623379147724" lon="16.87607771990678"><ele>123.0</ele><time>2026-03-28T12:47:12Z</time></trkpt><trkpt lat="39.21463562408252" lon="16.87624365870076"><ele>123.0</ele><time>2026-03-28T12:47:13Z</time></trkpt><trkpt lat="39.21465882045125" lon="16.876390159394216"><ele>124.4</ele><time>2026-03-28T12:47:14Z</time></trkpt><trkpt lat="39.21467491039542" lon="16.876535599739334"><ele>125.80000000000001</ele><time>2026-03-28T12:47:15Z</time></trkpt><trkpt lat="39.21469771242555" lon="16.876666092495867"><ele>127.2</ele><time>2026-03-28T12:47:16Z</time></trkpt><trkpt lat="39.21471197697012" lon="16.876778751008533"><ele>128.6</ele><time>2026-03-28T12:47:17Z</time></trkpt><trkpt lat="39.21472434362456" lon="16.87687495740626"><ele>130.0</ele><time>2026-03-28T12:47:18Z</time></trkpt><trkpt lat="39.21470397843202" lon="16.87698761141251"><ele>131.2</ele><time>2026-03-28T12:47:19Z</time></trkpt><trkpt lat="39.214675520708454" lon="16.87711972474126"><ele>132.4</ele><time>2026-03-28T12:47:20Z</time></trkpt><trkpt lat="39.21467573621561" lon="16.87727161668918"><ele>133.6</ele><time>2026-03-28T12:47:21Z</time></trkpt><trkpt lat="39.2147031938976" lon="16.877414350227752"><ele>134.8</ele><time>2026-03-28T12:47:22Z</time></trkpt><trkpt lat="39.214756675527404" lon="16.877538440357718"><ele>136.0</ele><time>2026-03-28T12:47:23Z</time></trkpt><trkpt lat="39.214833944609566" lon="16.877649437370483"><ele>138.0</ele><time>2026-03-28T12:47:24Z</time></trkpt><trkpt lat="39.21492188269971" lon="16.87771492432906"><ele>140.0</ele><time>2026-03-28T12:47:25Z</time></trkpt><trkpt lat="39.214988592393716" lon="16.877748126320437"><ele>142.0</ele><time>2026-03-28T12:47:26Z</time></trkpt><trkpt lat="39.21508484478385" lon="16.877867194595783"><ele>144.0</ele><time>2026-03-28T12:47:28Z</time></trkpt><trkpt lat="39.21511218240695" lon="16.87796353684217"><ele>146.0</ele><time>2026-03-28T12:47:29Z</time></trkpt><trkpt lat="39.21510182843284" lon="16.87807863992483"><ele>146.0</ele><time>2026-03-28T12:47:30Z</time></trkpt><trkpt lat="39.21506759985577" lon="16.878207159974103"><ele>146.0</ele><time>2026-03-28T12:47:31Z</time></trkpt><trkpt lat="39.215025709260786" lon="16.8783343837234"><ele>146.0</ele><time>2026-03-28T12:47:32Z</time></trkpt><trkpt lat="39.21495069174359" lon="16.87846629580562"><ele>146.0</ele><time>2026-03-28T12:47:33Z</time></trkpt><trkpt lat="39.214862177037055" lon="16.878601094797443"><ele>149.25</ele><time>2026-03-28T12:47:34Z</time></trkpt><trkpt lat="39.21478749676266" lon="16.878730056633824"><ele>152.5</ele><time>2026-03-28T12:47:35Z</time></trkpt><trkpt lat="39.21471239066783" lon="16.878880771650206"><ele>155.75</ele><time>2026-03-28T12:47:36Z</time></trkpt><trkpt lat="39.2146304179709" lon="16.87903680131082"><ele>159.0</ele><time>2026-03-28T12:47:37Z</time></trkpt><trkpt lat="39.21457150929611" lon="16.8791594546135"><ele>159.0</ele><time>2026-03-28T12:47:38Z</time></trkpt><trkpt lat="39.21452645386614" lon="16.879251109686926"><ele>159.0</ele><time>2026-03-28T12:47:39Z</time></trkpt><trkpt lat="39.214489545715644" lon="16.879339341357127"><ele>159.0</ele><time>2026-03-28T12:47:40Z</time></trkpt><trkpt lat="39.21448242252343" lon="16.87946369454608"><ele>159.0</ele><time>2026-03-28T12:47:41Z</time></trkpt><trkpt lat="39.21448751375456" lon="16.87954923573142"><ele>159.0</ele><time>2026-03-28T12:47:42Z</time></trkpt><trkpt lat="39.21449133800959" lon="16.879667559450212"><ele>159.0</ele><time>2026-03-28T12:47:44Z</time></trkpt><trkpt lat="39.21439030457065" lon="16.879704444191884"><ele>162.4</ele><time>2026-03-28T12:47:46Z</time></trkpt><trkpt lat="39.21432322302565" lon="16.879531071404898"><ele>165.8</ele><time>2026-03-28T12:47:48Z</time></trkpt><trkpt lat="39.21425081189196" lon="16.87943679897584"><ele>169.20000000000002</ele><time>2026-03-28T12:47:49Z</time></trkpt><trkpt lat="39.214169518380054" lon="16.879410309045955"><ele>172.60000000000002</ele><time>2026-03-28T12:47:50Z</time></trkpt><trkpt lat="39.21408324951566" lon="16.87942638935736"><ele>176.0</ele><time>2026-03-28T12:47:51Z</time></trkpt><trkpt lat="39.21401943224074" lon="16.879492805715895"><ele>177.0</ele><time>2026-03-28T12:47:52Z</time></trkpt><trkpt lat="39.21396590733589" lon="16.879589988427494"><ele>178.0</ele><time>2026-03-28T12:47:53Z</time></trkpt><trkpt lat="39.21392053434293" lon="16.87972365771231"><ele>179.0</ele><time>2026-03-28T12:47:54Z</time></trkpt><trkpt lat="39.2138700367967" lon="16.87987449313386"><ele>180.0</ele><time>2026-03-28T12:47:55Z</time></trkpt><trkpt lat="39.213804013668614" lon="16.880026680475503"><ele>182.0</ele><time>2026-03-28T12:47:56Z</time></trkpt><trkpt lat="39.21374076310636" lon="16.880132925765338"><ele>184.0</ele><time>2026-03-28T12:47:57Z</time></trkpt><trkpt lat="39.21370467297726" lon="16.88021287947828"><ele>186.0</ele><time>2026-03-28T12:47:58Z</time></trkpt><trkpt lat="39.21367948745361" lon="16.880289076435638"><ele>188.0</ele><time>2026-03-28T12:47:59Z</time></trkpt><trkpt lat="39.21369028656565" lon="16.88039303277665"><ele>190.0</ele><time>2026-03-28T12:48:00Z</time></trkpt><trkpt lat="39.213738662327344" lon="16.88049816537141"><ele>192.0</ele><time>2026-03-28T12:48:01Z</time></trkpt><trkpt lat="39.21374653041063" lon="16.880593375293493"><ele>192.0</ele><time>2026-03-28T12:48:02Z</time></trkpt><trkpt lat="39.213712579652004" lon="16.880691811178874"><ele>192.0</ele><time>2026-03-28T12:48:03Z</time></trkpt><trkpt lat="39.21364104335656" lon="16.880795368251764"><ele>192.0</ele><time>2026-03-28T12:48:04Z</time></trkpt><trkpt lat="39.21359979995077" lon="16.88094011022268"><ele>192.0</ele><time>2026-03-28T12:48:05Z</time></trkpt><trkpt lat="39.2135515887972" lon="16.881106194967217"><ele>192.0</ele><time>2026-03-28T12:48:06Z</time></trkpt><trkpt lat="39.21349187260401" lon="16.88126784982508"><ele>193.6</ele><time>2026-03-28T12:48:07Z</time></trkpt><trkpt lat="39.21344615775612" lon="16.881424753413416"><ele>195.2</ele><time>2026-03-28T12:48:08Z</time></trkpt><trkpt lat="39.21340389004453" lon="16.88158069265217"><ele>196.8</ele><time>2026-03-28T12:48:09Z</time></trkpt><trkpt lat="39.213364394198166" lon="16.881696989340174"><ele>198.4</ele><time>2026-03-28T12:48:10Z</time></trkpt><trkpt lat="39.21334183713778" lon="16.881793693211275"><ele>200.0</ele><time>2026-03-28T12:48:11Z</time></trkpt><trkpt lat="39.21332590935799" lon="16.881891734368352"><ele>203.25</ele><time>2026-03-28T12:48:12Z</time></trkpt><trkpt lat="39.213352252846335" lon="16.88206176193956"><ele>206.5</ele><time>2026-03-28T12:48:14Z</time></trkpt><trkpt lat="39.21344264636391" lon="16.882146404095955"><ele>209.75</ele><time>2026-03-28T12:48:15Z</time></trkpt><trkpt lat="39.21354261653307" lon="16.88224562776624"><ele>213.0</ele><time>2026-03-28T12:48:16Z</time></trkpt><trkpt lat="39.21365204311541" lon="16.88235914911295"><ele>213.0</ele><time>2026-03-28T12:48:17Z</time></trkpt><trkpt lat="39.21376646285961" lon="16.882483732840743"><ele>213.0</ele><time>2026-03-28T12:48:18Z</time></trkpt><trkpt lat="39.21385323240847" lon="16.882578263922962"><ele>213.0</ele><time>2026-03-28T12:48:19Z</time></trkpt><trkpt lat="39.21391712344559" lon="16.882645052469964"><ele>213.0</ele><time>2026-03-28T12:48:20Z</time></trkpt><trkpt lat="39.21395856085123" lon="16.88275156286347"><ele>213.0</ele><time>2026-03-28T12:48:22Z</time></trkpt><trkpt lat="39.21386096924374" lon="16.882829553720036"><ele>218.0</ele><time>2026-03-28T12:48:24Z</time></trkpt><trkpt lat="39.21374670164971" lon="16.88280192010807"><ele>223.0</ele><time>2026-03-28T12:48:25Z</time></trkpt><trkpt lat="39.21363074140457" lon="16.882773981687432"><ele>228.0</ele><time>2026-03-28T12:48:26Z</time></trkpt><trkpt lat="39.213496579144035" lon="16.882753674048832"><ele>233.0</ele><time>2026-03-28T12:48:27Z</time></trkpt><trkpt lat="39.21335193254076" lon="16.882733869559903"><ele>233.0</ele><time>2026-03-28T12:48:28Z</time></trkpt><trkpt lat="39.21320926799144" lon="16.882714510207013"><ele>233.0</ele><time>2026-03-28T12:48:29Z</time></trkpt><trkpt lat="39.21310223685563" lon="16.8826981111423"><ele>233.0</ele><time>2026-03-28T12:48:30Z</time></trkpt><trkpt lat="39.21302633903712" lon="16.882683262575817"><ele>233.0</ele><time>2026-03-28T12:48:31Z</time></trkpt><trkpt lat="39.212927881020036" lon="16.88270587863851"><ele>233.0</ele><time>2026-03-28T12:48:33Z</time></trkpt><trkpt lat="39.21296373989261" lon="16.88287461115596"><ele>233.0</ele><time>2026-03-28T12:48:35Z</time></trkpt><trkpt lat="39.21305956481139" lon="16.882920028572965"><ele>233.0</ele><time>2026-03-28T12:48:36Z</time></trkpt><trkpt lat="39.21315595082151" lon="16.882995933038803"><ele>233.0</ele><time>2026-03-28T12:48:37Z</time></trkpt><trkpt lat="39.21326907408269" lon="16.883094034414075"><ele>233.0</ele><time>2026-03-28T12:48:38Z</time></trkpt><trkpt lat="39.21339107074492" lon="16.883190175876546"><ele>233.0</ele><time>2026-03-28T12:48:39Z</time></trkpt><trkpt lat="39.21349124455402" lon="16.883267911265456"><ele>233.0</ele><time>2026-03-28T12:48:40Z</time></trkpt><trkpt lat="39.21357433318355" lon="16.883330225190143"><ele>233.0</ele><time>2026-03-28T12:48:41Z</time></trkpt><trkpt lat="39.21366600057212" lon="16.88339631864692"><ele>233.0</ele><time>2026-03-28T12:48:43Z</time></trkpt><trkpt lat="39.21360160523584" lon="16.883502339067977"><ele>233.0</ele><time>2026-03-28T12:48:45Z</time></trkpt><trkpt lat="39.21350391434171" lon="16.883462234434603"><ele>233.0</ele><time>2026-03-28T12:48:46Z</time></trkpt><trkpt lat="39.21339601819658" lon="16.88340320462816"><ele>233.0</ele><time>2026-03-28T12:48:47Z</time></trkpt><trkpt lat="39.21326341452573" lon="16.88335412732667"><ele>233.0</ele><time>2026-03-28T12:48:48Z</time></trkpt><trkpt lat="39.21312050717888" lon="16.88330241379836"><ele>233.0</ele><time>2026-03-28T12:48:49Z</time></trkpt><trkpt lat="39.21297852183973" lon="16.883254534606504"><ele>234.4</ele><time>2026-03-28T12:48:50Z</time></trkpt><trkpt lat="39.212846783532605" lon="16.883207520169325"><ele>235.8</ele><time>2026-03-28T12:48:51Z</time></trkpt><trkpt lat="39.21274466124484" lon="16.883170295687417"><ele>237.2</ele><time>2026-03-28T12:48:52Z</time></trkpt><trkpt lat="39.21266195871257" lon="16.883138688005893"><ele>238.6</ele><time>2026-03-28T12:48:53Z</time></trkpt><trkpt lat="39.212590524810366" lon="16.883110730876705"><ele>240.0</ele><time>2026-03-28T12:48:54Z</time></trkpt><trkpt lat="39.212484255835385" lon="16.88312820236872"><ele>240.0</ele><time>2026-03-28T12:48:56Z</time></trkpt><trkpt lat="39.21252229342949" lon="16.883317479613297"><ele>240.0</ele><time>2026-03-28T12:48:58Z</time></trkpt><trkpt lat="39.2126054568537" lon="16.883416069275935"><ele>240.0</ele><time>2026-03-28T12:48:59Z</time></trkpt><trkpt lat="39.21268308522974" lon="16.883547062689793"><ele>240.0</ele><time>2026-03-28T12:49:00Z</time></trkpt><trkpt lat="39.2127598732003" lon="16.883691563114166"><ele>241.5</ele><time>2026-03-28T12:49:01Z</time></trkpt><trkpt lat="39.21284097758524" lon="16.883850675553404"><ele>243.0</ele><time>2026-03-28T12:49:02Z</time></trkpt><trkpt lat="39.21291776209878" lon="16.884021211810445"><ele>244.5</ele><time>2026-03-28T12:49:03Z</time></trkpt><trkpt lat="39.21297617921694" lon="16.88416569522416"><ele>246.0</ele><time>2026-03-28T12:49:04Z</time></trkpt><trkpt lat="39.21301618932175" lon="16.88429488223353"><ele>246.0</ele><time>2026-03-28T12:49:05Z</time></trkpt><trkpt lat="39.213042560496" lon="16.884408398951017"><ele>246.00000000000003</ele><time>2026-03-28T12:49:06Z</time></trkpt><trkpt lat="39.21306060855111" lon="16.884510642743756"><ele>246.00000000000003</ele><time>2026-03-28T12:49:07Z</time></trkpt><trkpt lat="39.21307571204937" lon="16.884655606965993"><ele>246.0</ele><time>2026-03-28T12:49:09Z</time></trkpt><trkpt lat="39.213091814681796" lon="16.884769608099713"><ele>246.0</ele><time>2026-03-28T12:49:11Z</time></trkpt><trkpt lat="39.213099571917" lon="16.884895918948832"><ele>246.0</ele><time>2026-03-28T12:49:39Z</time></trkpt><trkpt lat="39.21309227792754" lon="16.884987891178962"><ele>246.00000000000003</ele><time>2026-03-28T12:49:44Z</time></trkpt><trkpt lat="39.21305997552389" lon="16.885113055552143"><ele>246.00000000000003</ele><time>2026-03-28T12:49:49Z</time></trkpt><trkpt lat="39.212994043976586" lon="16.885238193365794"><ele>246.0</ele><time>2026-03-28T12:49:51Z</time></trkpt><trkpt lat="39.21291694442353" lon="16.885293263642147"><ele>246.0</ele><time>2026-03-28T12:49:52Z</time></trkpt><trkpt lat="39.21284194035015" lon="16.885397880592365"><ele>247.16666666666666</ele><time>2026-03-28T12:49:53Z</time></trkpt><trkpt lat="39.21277753224362" lon="16.885486122245243"><ele>248.33333333333331</ele><time>2026-03-28T12:49:54Z</time></trkpt><trkpt lat="39.212731747504435" lon="16.88554750842306"><ele>249.5</ele><time>2026-03-28T12:49:55Z</time></trkpt><trkpt lat="39.21265429480246" lon="16.885651721594225"><ele>250.66666666666666</ele><time>2026-03-28T12:49:57Z</time></trkpt><trkpt lat="39.21258828916961" lon="16.885740532629114"><ele>251.83333333333331</ele><time>2026-03-28T12:49:59Z</time></trkpt><trkpt lat="39.212533170986724" lon="16.8858140501382"><ele>253.0</ele><time>2026-03-28T12:50:01Z</time></trkpt><trkpt lat="39.212472602045885" lon="16.88589506301031"><ele>253.2</ele><time>2026-03-28T12:50:04Z</time></trkpt><trkpt lat="39.21241242449008" lon="16.88597544178271"><ele>253.4</ele><time>2026-03-28T12:50:06Z</time></trkpt><trkpt lat="39.21231007500138" lon="16.88610873038633"><ele>253.59999999999997</ele><time>2026-03-28T12:50:08Z</time></trkpt><trkpt lat="39.21224904497211" lon="16.886195074839115"><ele>253.79999999999998</ele><time>2026-03-28T12:50:09Z</time></trkpt><trkpt lat="39.21220309186297" lon="16.886265173998755"><ele>254.0</ele><time>2026-03-28T12:50:10Z</time></trkpt><trkpt lat="39.21217201292222" lon="16.886344512870338"><ele>254.00000000000003</ele><time>2026-03-28T12:50:11Z</time></trkpt><trkpt lat="39.21212868374106" lon="16.886411790737064"><ele>254.0</ele><time>2026-03-28T12:50:12Z</time></trkpt><trkpt lat="39.21208503717657" lon="16.88649121917484"><ele>254.0</ele><time>2026-03-28T12:50:13Z</time></trkpt><trkpt lat="39.21204842290108" lon="16.886574350377643"><ele>254.0</ele><time>2026-03-28T12:50:14Z</time></trkpt><trkpt lat="39.2120105450536" lon="16.886665169783083"><ele>254.00000000000003</ele><time>2026-03-28T12:50:15Z</time></trkpt><trkpt lat="39.21196437893726" lon="16.886795607970306"><ele>254.0</ele><time>2026-03-28T12:50:16Z</time></trkpt><trkpt lat="39.21191793689095" lon="16.886941951021758"><ele>255.79999999999998</ele><time>2026-03-28T12:50:17Z</time></trkpt><trkpt lat="39.21186489151013" lon="16.88708335572619"><ele>257.59999999999997</ele><time>2026-03-28T12:50:18Z</time></trkpt><trkpt lat="39.21182437493819" lon="16.88719354936782"><ele>259.4</ele><time>2026-03-28T12:50:19Z</time></trkpt><trkpt lat="39.21179422106324" lon="16.88729243299134"><ele>261.2</ele><time>2026-03-28T12:50:20Z</time></trkpt><trkpt lat="39.21176262080664" lon="16.887383451644702"><ele>263.0</ele><time>2026-03-28T12:50:21Z</time></trkpt><trkpt lat="39.211731701827155" lon="16.88747745478565"><ele>263.0</ele><time>2026-03-28T12:50:22Z</time></trkpt><trkpt lat="39.21169873436931" lon="16.887576885886983"><ele>263.0</ele><time>2026-03-28T12:50:23Z</time></trkpt><trkpt lat="39.21167471952962" lon="16.88765843423047"><ele>263.0</ele><time>2026-03-28T12:50:24Z</time></trkpt><trkpt lat="39.211633725473405" lon="16.8877723023102"><ele>263.0</ele><time>2026-03-28T12:50:26Z</time></trkpt><trkpt lat="39.21159747962526" lon="16.88788952359016"><ele>263.0</ele><time>2026-03-28T12:50:28Z</time></trkpt><trkpt lat="39.21155576502386" lon="16.887967838844506"><ele>263.0</ele><time>2026-03-28T12:50:30Z</time></trkpt><trkpt lat="39.2116762825583" lon="16.888027647419403"><ele>263.25</ele><time>2026-03-28T12:50:33Z</time></trkpt><trkpt lat="39.21175909808242" lon="16.88800781518014"><ele>263.5</ele><time>2026-03-28T12:50:34Z</time></trkpt><trkpt lat="39.21186955942982" lon="16.887973265715658"><ele>263.75</ele><time>2026-03-28T12:50:35Z</time></trkpt><trkpt lat="39.21198493878288" lon="16.887907292450823"><ele>264.0</ele><time>2026-03-28T12:50:36Z</time></trkpt><trkpt lat="39.2121475272798" lon="16.887925509323583"><ele>264.0</ele><time>2026-03-28T12:50:37Z</time></trkpt><trkpt lat="39.21225907065581" lon="16.887866588766567"><ele>264.0</ele><time>2026-03-28T12:50:38Z</time></trkpt><trkpt lat="39.212354324922636" lon="16.88782081518127"><ele>264.0</ele><time>2026-03-28T12:50:39Z</time></trkpt><trkpt lat="39.21244673098218" lon="16.887772918953768"><ele>264.0</ele><time>2026-03-28T12:50:40Z</time></trkpt><trkpt lat="39.21253673014268" lon="16.88772022346091"><ele>264.0</ele><time>2026-03-28T12:50:41Z</time></trkpt><trkpt lat="39.21262186680238" lon="16.887663278257346"><ele>266.0</ele><time>2026-03-28T12:50:42Z</time></trkpt><trkpt lat="39.21271049971119" lon="16.887608619686638"><ele>268.0</ele><time>2026-03-28T12:50:43Z</time></trkpt><trkpt lat="39.21280020698244" lon="16.88754914357281"><ele>270.0</ele><time>2026-03-28T12:50:44Z</time></trkpt><trkpt lat="39.21288775114297" lon="16.887490462334025"><ele>272.0</ele><time>2026-03-28T12:50:45Z</time></trkpt><trkpt lat="39.21296267673089" lon="16.887446059448973"><ele>274.0</ele><time>2026-03-28T12:50:46Z</time></trkpt><trkpt lat="39.213031017857745" lon="16.887409617938903"><ele>274.0</ele><time>2026-03-28T12:50:47Z</time></trkpt><trkpt lat="39.21309640317633" lon="16.887378904409815"><ele>274.0</ele><time>2026-03-28T12:50:48Z</time></trkpt><trkpt lat="39.21317327621165" lon="16.887353068793626"><ele>274.0</ele><time>2026-03-28T12:50:49Z</time></trkpt><trkpt lat="39.213262647940155" lon="16.887349453939656"><ele>274.0</ele><time>2026-03-28T12:50:50Z</time></trkpt><trkpt lat="39.21337853107585" lon="16.887371147892644"><ele>274.0</ele><time>2026-03-28T12:50:51Z</time></trkpt><trkpt lat="39.21346557508683" lon="16.887391263884908"><ele>274.0</ele><time>2026-03-28T12:50:52Z</time></trkpt><trkpt lat="39.21353503526297" lon="16.88740987986892"><ele>275.3333333333333</ele><time>2026-03-28T12:50:53Z</time></trkpt><trkpt lat="39.21360912084281" lon="16.88743079624074"><ele>276.66666666666663</ele><time>2026-03-28T12:50:54Z</time></trkpt><trkpt lat="39.213688360898594" lon="16.887454078780003"><ele>278.0</ele><time>2026-03-28T12:50:55Z</time></trkpt><trkpt lat="39.21377841444991" lon="16.88748472966673"><ele>279.3333333333333</ele><time>2026-03-28T12:50:56Z</time></trkpt><trkpt lat="39.21386753838967" lon="16.887511221204907"><ele>280.6666666666667</ele><time>2026-03-28T12:50:57Z</time></trkpt><trkpt lat="39.21394703706192" lon="16.88753707726727"><ele>282.0</ele><time>2026-03-28T12:50:58Z</time></trkpt><trkpt lat="39.21402649516594" lon="16.887564597258667"><ele>284.2</ele><time>2026-03-28T12:50:59Z</time></trkpt><trkpt lat="39.21410671886988" lon="16.88759718421556"><ele>286.4</ele><time>2026-03-28T12:51:00Z</time></trkpt><trkpt lat="39.214183025794235" lon="16.887643101293104"><ele>288.6</ele><time>2026-03-28T12:51:01Z</time></trkpt><trkpt lat="39.21425842553268" lon="16.88770323384467"><ele>290.8</ele><time>2026-03-28T12:51:02Z</time></trkpt><trkpt lat="39.214336268653305" lon="16.887821597721825"><ele>293.0</ele><time>2026-03-28T12:51:03Z</time></trkpt><trkpt lat="39.21439838650452" lon="16.887959328855914"><ele>293.0</ele><time>2026-03-28T12:51:04Z</time></trkpt><trkpt lat="39.21448288382225" lon="16.888067335487865"><ele>293.0</ele><time>2026-03-28T12:51:05Z</time></trkpt><trkpt lat="39.21455459121278" lon="16.888198713366407"><ele>293.0</ele><time>2026-03-28T12:51:06Z</time></trkpt><trkpt lat="39.21462337343343" lon="16.88831607191075"><ele>293.0</ele><time>2026-03-28T12:51:07Z</time></trkpt><trkpt lat="39.214674969953265" lon="16.888411191127364"><ele>293.0</ele><time>2026-03-28T12:51:08Z</time></trkpt><trkpt lat="39.21472520701405" lon="16.888493598392962"><ele>293.2</ele><time>2026-03-28T12:51:09Z</time></trkpt><trkpt lat="39.21479289410273" lon="16.88854867973975"><ele>293.4</ele><time>2026-03-28T12:51:10Z</time></trkpt><trkpt lat="39.21487339630264" lon="16.888660907921402"><ele>293.59999999999997</ele><time>2026-03-28T12:51:11Z</time></trkpt><trkpt lat="39.21495598276063" lon="16.888737037777926"><ele>293.8</ele><time>2026-03-28T12:51:12Z</time></trkpt><trkpt lat="39.215044163545635" lon="16.888788026395165"><ele>294.0</ele><time>2026-03-28T12:51:13Z</time></trkpt><trkpt lat="39.215106172754766" lon="16.888870635546255"><ele>293.6666666666667</ele><time>2026-03-28T12:51:14Z</time></trkpt><trkpt lat="39.21517883401212" lon="16.888922421247003"><ele>293.3333333333333</ele><time>2026-03-28T12:51:15Z</time></trkpt><trkpt lat="39.21523665025667" lon="16.88899626018841"><ele>293.0</ele><time>2026-03-28T12:51:16Z</time></trkpt><trkpt lat="39.21531551367536" lon="16.88902541189251"><ele>292.66666666666663</ele><time>2026-03-28T12:51:17Z</time></trkpt><trkpt lat="39.21537766727062" lon="16.889112694248066"><ele>292.3333333333333</ele><time>2026-03-28T12:51:18Z</time></trkpt><trkpt lat="39.21547473683185" lon="16.889153083515815"><ele>292.0</ele><time>2026-03-28T12:51:19Z</time></trkpt><trkpt lat="39.215556515489375" lon="16.88922231856929"><ele>290.4</ele><time>2026-03-28T12:51:20Z</time></trkpt><trkpt lat="39.215641065654495" lon="16.889315304566228"><ele>288.79999999999995</ele><time>2026-03-28T12:51:21Z</time></trkpt><trkpt lat="39.21570852874521" lon="16.889414984840258"><ele>287.2</ele><time>2026-03-28T12:51:22Z</time></trkpt><trkpt lat="39.21575936431594" lon="16.889523679075708"><ele>285.59999999999997</ele><time>2026-03-28T12:51:23Z</time></trkpt><trkpt lat="39.21580389772495" lon="16.88962993576675"><ele>284.0</ele><time>2026-03-28T12:51:24Z</time></trkpt><trkpt lat="39.21585086682169" lon="16.889726519219167"><ele>284.0</ele><time>2026-03-28T12:51:25Z</time></trkpt><trkpt lat="39.21588579993136" lon="16.889799053614574"><ele>284.0</ele><time>2026-03-28T12:51:26Z</time></trkpt><trkpt lat="39.21591836089126" lon="16.889896407358517"><ele>284.0</ele><time>2026-03-28T12:51:28Z</time></trkpt><trkpt lat="39.21599222818955" lon="16.889988807278584"><ele>284.0</ele><time>2026-03-28T12:51:30Z</time></trkpt><trkpt lat="39.21605366489082" lon="16.890079783122633"><ele>284.0</ele><time>2026-03-28T12:51:32Z</time></trkpt><trkpt lat="39.21608774167247" lon="16.89020318357993"><ele>284.0</ele><time>2026-03-28T12:51:35Z</time></trkpt><trkpt lat="39.21608928994847" lon="16.89031723056622"><ele>283.59999999999997</ele><time>2026-03-28T12:51:37Z</time></trkpt><trkpt lat="39.216139333802296" lon="16.890379049792973"><ele>283.2</ele><time>2026-03-28T12:51:38Z</time></trkpt><trkpt lat="39.21623535116487" lon="16.8904344395969"><ele>282.79999999999995</ele><time>2026-03-28T12:51:40Z</time></trkpt><trkpt lat="39.21630754721432" lon="16.890520350089563"><ele>282.4</ele><time>2026-03-28T12:51:42Z</time></trkpt><trkpt lat="39.21639532460973" lon="16.890594177614606"><ele>282.0</ele><time>2026-03-28T12:51:44Z</time></trkpt><trkpt lat="39.216502182610355" lon="16.890674212053245"><ele>282.0</ele><time>2026-03-28T12:51:46Z</time></trkpt><trkpt lat="39.2165562837516" lon="16.8907245665129"><ele>282.0</ele><time>2026-03-28T12:51:47Z</time></trkpt><trkpt lat="39.21668215221402" lon="16.890810088466978"><ele>282.0</ele><time>2026-03-28T12:51:49Z</time></trkpt><trkpt lat="39.21675028839006" lon="16.89085369033345"><ele>282.0</ele><time>2026-03-28T12:51:50Z</time></trkpt><trkpt lat="39.216808122180865" lon="16.89089268310277"><ele>282.0</ele><time>2026-03-28T12:51:51Z</time></trkpt><trkpt lat="39.216894930040816" lon="16.890987656220656"><ele>275.4</ele><time>2026-03-28T12:51:53Z</time></trkpt><trkpt lat="39.21694224271077" lon="16.891060529928932"><ele>268.79999999999995</ele><time>2026-03-28T12:51:54Z</time></trkpt><trkpt lat="39.21700755553469" lon="16.891164562682587"><ele>262.2</ele><time>2026-03-28T12:51:55Z</time></trkpt><trkpt lat="39.21706488175495" lon="16.89125877493063"><ele>255.6</ele><time>2026-03-28T12:51:56Z</time></trkpt><trkpt lat="39.21714199502117" lon="16.891384095011983"><ele>249.0</ele><time>2026-03-28T12:51:57Z</time></trkpt><trkpt lat="39.21721606366627" lon="16.89148897473066"><ele>249.0</ele><time>2026-03-28T12:51:58Z</time></trkpt><trkpt lat="39.217289653300085" lon="16.89158075952777"><ele>248.99999999999997</ele><time>2026-03-28T12:51:59Z</time></trkpt><trkpt lat="39.217358988143985" lon="16.89167254761147"><ele>248.99999999999997</ele><time>2026-03-28T12:52:00Z</time></trkpt><trkpt lat="39.21741954645713" lon="16.891766694512494"><ele>249.0</ele><time>2026-03-28T12:52:01Z</time></trkpt><trkpt lat="39.217478152808006" lon="16.891853217506085"><ele>249.0</ele><time>2026-03-28T12:52:02Z</time></trkpt><trkpt lat="39.21754082115648" lon="16.891931427524124"><ele>250.79999999999998</ele><time>2026-03-28T12:52:03Z</time></trkpt><trkpt lat="39.21759683937387" lon="16.892023479476233"><ele>252.59999999999997</ele><time>2026-03-28T12:52:04Z</time></trkpt><trkpt lat="39.217661568655764" lon="16.892117292251996"><ele>254.4</ele><time>2026-03-28T12:52:05Z</time></trkpt><trkpt lat="39.2177293425202" lon="16.89221134579099"><ele>256.2</ele><time>2026-03-28T12:52:06Z</time></trkpt><trkpt lat="39.21779667255234" lon="16.89230964084558"><ele>258.0</ele><time>2026-03-28T12:52:07Z</time></trkpt><trkpt lat="39.21786637720944" lon="16.892408911173668"><ele>258.0</ele><time>2026-03-28T12:52:08Z</time></trkpt><trkpt lat="39.21794059053778" lon="16.892507507461556"><ele>258.0</ele><time>2026-03-28T12:52:09Z</time></trkpt><trkpt lat="39.21800946076501" lon="16.89261067464189"><ele>258.0</ele><time>2026-03-28T12:52:10Z</time></trkpt><trkpt lat="39.218074195489436" lon="16.8927091309243"><ele>258.0</ele><time>2026-03-28T12:52:11Z</time></trkpt><trkpt lat="39.21813967932501" lon="16.892791715545382"><ele>258.0</ele><time>2026-03-28T12:52:12Z</time></trkpt><trkpt lat="39.21820402559085" lon="16.89286292771511"><ele>259.0</ele><time>2026-03-28T12:52:13Z</time></trkpt><trkpt lat="39.218269137061554" lon="16.89292843684297"><ele>260.0</ele><time>2026-03-28T12:52:14Z</time></trkpt><trkpt lat="39.218333601418024" lon="16.89299204776309"><ele>261.0</ele><time>2026-03-28T12:52:15Z</time></trkpt><trkpt lat="39.218399503961706" lon="16.893045114333376"><ele>262.0</ele><time>2026-03-28T12:52:16Z</time></trkpt><trkpt lat="39.21847201160324" lon="16.893107646471663"><ele>263.0</ele><time>2026-03-28T12:52:17Z</time></trkpt><trkpt lat="39.218538988403026" lon="16.893163714361553"><ele>264.0</ele><time>2026-03-28T12:52:18Z</time></trkpt><trkpt lat="39.218608915716736" lon="16.893224006091305"><ele>264.0</ele><time>2026-03-28T12:52:19Z</time></trkpt><trkpt lat="39.21868045527435" lon="16.893277253162463"><ele>264.0</ele><time>2026-03-28T12:52:20Z</time></trkpt><trkpt lat="39.21874566651046" lon="16.89333167393693"><ele>264.0</ele><time>2026-03-28T12:52:21Z</time></trkpt><trkpt lat="39.218810988542735" lon="16.89337808803287"><ele>264.0</ele><time>2026-03-28T12:52:22Z</time></trkpt><trkpt lat="39.21886208105462" lon="16.89344798359631"><ele>264.0</ele><time>2026-03-28T12:52:23Z</time></trkpt><trkpt lat="39.218931486965374" lon="16.89350857057839"><ele>264.0</ele><time>2026-03-28T12:52:24Z</time></trkpt><trkpt lat="39.21900772580441" lon="16.893575122255353"><ele>264.59999999999997</ele><time>2026-03-28T12:52:25Z</time></trkpt><trkpt lat="39.21908778022481" lon="16.89364502560888"><ele>265.2</ele><time>2026-03-28T12:52:26Z</time></trkpt><trkpt lat="39.21916904986485" lon="16.893717275540986"><ele>265.79999999999995</ele><time>2026-03-28T12:52:27Z</time></trkpt><trkpt lat="39.21925262152883" lon="16.893791572003135"><ele>266.4</ele><time>2026-03-28T12:52:28Z</time></trkpt><trkpt lat="39.2193359862229" lon="16.8938656844856"><ele>267.0</ele><time>2026-03-28T12:52:29Z</time></trkpt><trkpt lat="39.21940943741776" lon="16.89393293950583"><ele>267.0</ele><time>2026-03-28T12:52:30Z</time></trkpt><trkpt lat="39.219481415214325" lon="16.894001240214962"><ele>267.0</ele><time>2026-03-28T12:52:31Z</time></trkpt><trkpt lat="39.219551783302165" lon="16.894072186374633"><ele>267.0</ele><time>2026-03-28T12:52:32Z</time></trkpt><trkpt lat="39.21963045722911" lon="16.894126591613944"><ele>267.0</ele><time>2026-03-28T12:52:33Z</time></trkpt><trkpt lat="39.21969770729774" lon="16.89420146542037"><ele>267.0</ele><time>2026-03-28T12:52:34Z</time></trkpt><trkpt lat="39.21976713227152" lon="16.89427358896008"><ele>267.0</ele><time>2026-03-28T12:52:35Z</time></trkpt><trkpt lat="39.21983608557077" lon="16.894347727017628"><ele>269.6</ele><time>2026-03-28T12:52:36Z</time></trkpt><trkpt lat="39.21990512742325" lon="16.89441424728028"><ele>272.2</ele><time>2026-03-28T12:52:37Z</time></trkpt><trkpt lat="39.21997619353041" lon="16.894486632362284"><ele>274.8</ele><time>2026-03-28T12:52:38Z</time></trkpt><trkpt lat="39.22005752984283" lon="16.894583015084685"><ele>277.4</ele><time>2026-03-28T12:52:39Z</time></trkpt><trkpt lat="39.22015143405138" lon="16.894679777401016"><ele>280.0</ele><time>2026-03-28T12:52:40Z</time></trkpt><trkpt lat="39.22023266514662" lon="16.894763792557004"><ele>280.0</ele><time>2026-03-28T12:52:41Z</time></trkpt><trkpt lat="39.22030720310182" lon="16.8948502179244"><ele>280.0</ele><time>2026-03-28T12:52:42Z</time></trkpt><trkpt lat="39.220379333142255" lon="16.89493125694265"><ele>280.0</ele><time>2026-03-28T12:52:43Z</time></trkpt><trkpt lat="39.22044952998318" lon="16.895015438657154"><ele>280.0</ele><time>2026-03-28T12:52:44Z</time></trkpt><trkpt lat="39.220512581027414" lon="16.89510566374771"><ele>280.0</ele><time>2026-03-28T12:52:45Z</time></trkpt><trkpt lat="39.2205750266844" lon="16.895199954252565"><ele>281.75</ele><time>2026-03-28T12:52:46Z</time></trkpt><trkpt lat="39.22065026624707" lon="16.895316046300614"><ele>283.5</ele><time>2026-03-28T12:52:47Z</time></trkpt><trkpt lat="39.22072657170507" lon="16.89545882203751"><ele>285.25</ele><time>2026-03-28T12:52:48Z</time></trkpt><trkpt lat="39.22084248124038" lon="16.89558725875156"><ele>287.0</ele><time>2026-03-28T12:52:49Z</time></trkpt><trkpt lat="39.22097130081916" lon="16.89571487949178"><ele>287.0</ele><time>2026-03-28T12:52:50Z</time></trkpt><trkpt lat="39.22110637367761" lon="16.89583943804009"><ele>287.0</ele><time>2026-03-28T12:52:51Z</time></trkpt><trkpt lat="39.22125211699782" lon="16.895968088789985"><ele>287.0</ele><time>2026-03-28T12:52:52Z</time></trkpt><trkpt lat="39.22139005321667" lon="16.896089848075707"><ele>288.5</ele><time>2026-03-28T12:52:53Z</time></trkpt><trkpt lat="39.22151879612957" lon="16.896178553416778"><ele>290.0</ele><time>2026-03-28T12:52:54Z</time></trkpt><trkpt lat="39.22163069360009" lon="16.89627863170464"><ele>291.5</ele><time>2026-03-28T12:52:55Z</time></trkpt><trkpt lat="39.221739154983986" lon="16.896365934143443"><ele>293.0</ele><time>2026-03-28T12:52:56Z</time></trkpt><trkpt lat="39.2218376794583" lon="16.89647146301835"><ele>293.0</ele><time>2026-03-28T12:52:57Z</time></trkpt><trkpt lat="39.221959644185496" lon="16.89657100598422"><ele>293.0</ele><time>2026-03-28T12:52:58Z</time></trkpt><trkpt lat="39.22209066977189" lon="16.89666001641685"><ele>293.0</ele><time>2026-03-28T12:52:59Z</time></trkpt><trkpt lat="39.22220244300842" lon="16.896749149936696"><ele>293.0</ele><time>2026-03-28T12:53:00Z</time></trkpt><trkpt lat="39.22230971580942" lon="16.896852081146033"><ele>294.6666666666667</ele><time>2026-03-28T12:53:01Z</time></trkpt><trkpt lat="39.22243342272114" lon="16.89695317660978"><ele>296.3333333333333</ele><time>2026-03-28T12:53:02Z</time></trkpt><trkpt lat="39.22256173051" lon="16.89705425355132"><ele>298.0</ele><time>2026-03-28T12:53:03Z</time></trkpt><trkpt lat="39.22269436982803" lon="16.897160937621535"><ele>298.0</ele><time>2026-03-28T12:53:04Z</time></trkpt><trkpt lat="39.222841666621996" lon="16.897267505365857"><ele>298.0</ele><time>2026-03-28T12:53:05Z</time></trkpt><trkpt lat="39.22299792853876" lon="16.897380914535344"><ele>298.0</ele><time>2026-03-28T12:53:06Z</time></trkpt><trkpt lat="39.223151850688794" lon="16.897491000663695"><ele>298.0</ele><time>2026-03-28T12:53:07Z</time></trkpt><trkpt lat="39.22330745862951" lon="16.8976179639455"><ele>298.0</ele><time>2026-03-28T12:53:08Z</time></trkpt><trkpt lat="39.22347026506112" lon="16.897746970338325"><ele>298.0</ele><time>2026-03-28T12:53:09Z</time></trkpt><trkpt lat="39.223625517112644" lon="16.89787765852767"><ele>298.0</ele><time>2026-03-28T12:53:10Z</time></trkpt><trkpt lat="39.22376266716838" lon="16.897996822347746"><ele>298.0</ele><time>2026-03-28T12:53:11Z</time></trkpt><trkpt lat="39.22390521685003" lon="16.89811692076006"><ele>298.0</ele><time>2026-03-28T12:53:12Z</time></trkpt><trkpt lat="39.22405059556674" lon="16.89824181477042"><ele>294.3333333333333</ele><time>2026-03-28T12:53:13Z</time></trkpt><trkpt lat="39.22418915334607" lon="16.898361691046937"><ele>290.6666666666667</ele><time>2026-03-28T12:53:14Z</time></trkpt><trkpt lat="39.224329279225" lon="16.898472026625985"><ele>287.0</ele><time>2026-03-28T12:53:15Z</time></trkpt><trkpt lat="39.224476712876374" lon="16.898598875234523"><ele>287.0</ele><time>2026-03-28T12:53:16Z</time></trkpt><trkpt lat="39.224606024404366" lon="16.898714668815124"><ele>287.0</ele><time>2026-03-28T12:53:17Z</time></trkpt><trkpt lat="39.22471617149261" lon="16.898841793280237"><ele>287.0</ele><time>2026-03-28T12:53:18Z</time></trkpt><trkpt lat="39.224814409923844" lon="16.898962266179634"><ele>287.0</ele><time>2026-03-28T12:53:19Z</time></trkpt><trkpt lat="39.224900921799524" lon="16.899072021696725"><ele>286.33333333333337</ele><time>2026-03-28T12:53:20Z</time></trkpt><trkpt lat="39.22499694921564" lon="16.899184044377098"><ele>285.6666666666667</ele><time>2026-03-28T12:53:21Z</time></trkpt><trkpt lat="39.22511179146429" lon="16.899324385053195"><ele>285.0</ele><time>2026-03-28T12:53:22Z</time></trkpt><trkpt lat="39.22524797287024" lon="16.899473723895806"><ele>285.0</ele><time>2026-03-28T12:53:23Z</time></trkpt><trkpt lat="39.225387246903956" lon="16.899618065994012"><ele>285.0</ele><time>2026-03-28T12:53:24Z</time></trkpt><trkpt lat="39.22551995637271" lon="16.8997619061511"><ele>285.0</ele><time>2026-03-28T12:53:25Z</time></trkpt><trkpt lat="39.2256419262217" lon="16.89992192820544"><ele>287.0</ele><time>2026-03-28T12:53:26Z</time></trkpt><trkpt lat="39.22576671626469" lon="16.90007670667632"><ele>289.0</ele><time>2026-03-28T12:53:27Z</time></trkpt><trkpt lat="39.22589240233424" lon="16.9002321120624"><ele>291.0</ele><time>2026-03-28T12:53:28Z</time></trkpt><trkpt lat="39.22602910743545" lon="16.900386135123494"><ele>291.0</ele><time>2026-03-28T12:53:29Z</time></trkpt><trkpt lat="39.22616177367928" lon="16.90050958014544"><ele>291.0</ele><time>2026-03-28T12:53:30Z</time></trkpt><trkpt lat="39.22628267754218" lon="16.90063887733118"><ele>291.0</ele><time>2026-03-28T12:53:31Z</time></trkpt><trkpt lat="39.22639282969597" lon="16.90076681826826"><ele>298.25</ele><time>2026-03-28T12:53:32Z</time></trkpt><trkpt lat="39.22649581056047" lon="16.900890052380582"><ele>305.5</ele><time>2026-03-28T12:53:33Z</time></trkpt><trkpt lat="39.22658942131505" lon="16.9010089792321"><ele>312.75</ele><time>2026-03-28T12:53:34Z</time></trkpt><trkpt lat="39.22666736325198" lon="16.901127630499126"><ele>320.0</ele><time>2026-03-28T12:53:35Z</time></trkpt><trkpt lat="39.226725554517074" lon="16.901247721955187"><ele>320.0</ele><time>2026-03-28T12:53:36Z</time></trkpt><trkpt lat="39.22676333247236" lon="16.901383962620717"><ele>320.0</ele><time>2026-03-28T12:53:37Z</time></trkpt><trkpt lat="39.22679020650247" lon="16.901531723336213"><ele>320.0</ele><time>2026-03-28T12:53:38Z</time></trkpt><trkpt lat="39.226799014343825" lon="16.901682858942028"><ele>320.0</ele><time>2026-03-28T12:53:39Z</time></trkpt><trkpt lat="39.226819305022154" lon="16.90184689649756"><ele>320.25</ele><time>2026-03-28T12:53:40Z</time></trkpt><trkpt lat="39.2268553391827" lon="16.90201818719412"><ele>320.5</ele><time>2026-03-28T12:53:41Z</time></trkpt><trkpt lat="39.22692532720657" lon="16.902191931178685"><ele>320.75</ele><time>2026-03-28T12:53:42Z</time></trkpt><trkpt lat="39.227017303797865" lon="16.90234796679609"><ele>321.0</ele><time>2026-03-28T12:53:43Z</time></trkpt><trkpt lat="39.22711167353497" lon="16.902516082101783"><ele>321.0</ele><time>2026-03-28T12:53:44Z</time></trkpt><trkpt lat="39.22721923061043" lon="16.902661599337357"><ele>321.0</ele><time>2026-03-28T12:53:45Z</time></trkpt><trkpt lat="39.227341865069775" lon="16.902795151013745"><ele>321.0</ele><time>2026-03-28T12:53:46Z</time></trkpt><trkpt lat="39.22746822587843" lon="16.90294473657541"><ele>324.25</ele><time>2026-03-28T12:53:47Z</time></trkpt><trkpt lat="39.227584163986386" lon="16.903087873232455"><ele>327.5</ele><time>2026-03-28T12:53:48Z</time></trkpt><trkpt lat="39.227691195376096" lon="16.90319251970449"><ele>330.75</ele><time>2026-03-28T12:53:49Z</time></trkpt><trkpt lat="39.22778587117142" lon="16.903279689265432"><ele>334.0</ele><time>2026-03-28T12:53:50Z</time></trkpt><trkpt lat="39.22787504318888" lon="16.903336886556406"><ele>334.0</ele><time>2026-03-28T12:53:51Z</time></trkpt><trkpt lat="39.22794260011743" lon="16.903402971687584"><ele>334.0</ele><time>2026-03-28T12:53:52Z</time></trkpt><trkpt lat="39.22800424119268" lon="16.90346775339319"><ele>334.0</ele><time>2026-03-28T12:53:53Z</time></trkpt><trkpt lat="39.22807618058826" lon="16.903527742575914"><ele>334.0</ele><time>2026-03-28T12:53:54Z</time></trkpt><trkpt lat="39.22817966095992" lon="16.903573452943704"><ele>334.0</ele><time>2026-03-28T12:53:55Z</time></trkpt><trkpt lat="39.22831002890788" lon="16.903577140798767"><ele>335.0</ele><time>2026-03-28T12:53:56Z</time></trkpt><trkpt lat="39.228452613230004" lon="16.90358043278797"><ele>336.0</ele><time>2026-03-28T12:53:57Z</time></trkpt><trkpt lat="39.22860600343356" lon="16.90359560140511"><ele>337.0</ele><time>2026-03-28T12:53:58Z</time></trkpt><trkpt lat="39.228766790959206" lon="16.90364556872833"><ele>337.0</ele><time>2026-03-28T12:53:59Z</time></trkpt><trkpt lat="39.22891413479151" lon="16.90365520620208"><ele>337.0</ele><time>2026-03-28T12:54:00Z</time></trkpt><trkpt lat="39.229033515821754" lon="16.903698449214502"><ele>337.0</ele><time>2026-03-28T12:54:01Z</time></trkpt><trkpt lat="39.22913468867261" lon="16.903748352329995"><ele>337.0</ele><time>2026-03-28T12:54:02Z</time></trkpt><trkpt lat="39.22922025485146" lon="16.90380301701471"><ele>337.8333333333333</ele><time>2026-03-28T12:54:03Z</time></trkpt><trkpt lat="39.229325411277095" lon="16.903785474272308"><ele>338.66666666666663</ele><time>2026-03-28T12:54:04Z</time></trkpt><trkpt lat="39.22940944112624" lon="16.90375782393741"><ele>339.5</ele><time>2026-03-28T12:54:05Z</time></trkpt><trkpt lat="39.22947711778663" lon="16.903746530936594"><ele>340.3333333333333</ele><time>2026-03-28T12:54:06Z</time></trkpt><trkpt lat="39.22955330299343" lon="16.903688493455707"><ele>341.1666666666667</ele><time>2026-03-28T12:54:08Z</time></trkpt><trkpt lat="39.22961678261527" lon="16.90368825886433"><ele>342.0</ele><time>2026-03-28T12:54:11Z</time></trkpt><trkpt lat="39.229682295438295" lon="16.90368975268509"><ele>342.0</ele><time>2026-03-28T12:54:20Z</time></trkpt><trkpt lat="39.229802268906305" lon="16.90369436407297"><ele>342.0</ele><time>2026-03-28T12:54:22Z</time></trkpt><trkpt lat="39.22986551106786" lon="16.903687308326326"><ele>355.0</ele><time>2026-03-28T12:54:35Z</time></trkpt></trkseg><trkseg><trkpt lat="39.22988796335494" lon="16.90375392561796"><ele>355.0</ele><time>2026-03-28T13:55:10Z</time></trkpt><trkpt lat="39.22995098214809" lon="16.903781447616144"><ele>355.0</ele><time>2026-03-28T13:55:13Z</time></trkpt><trkpt lat="39.229910089724314" lon="16.903699288614522"><ele>355.0</ele><time>2026-03-28T13:55:39Z</time></trkpt><trkpt lat="39.22984033997138" lon="16.90367470040761"><ele>355.0</ele><time>2026-03-28T13:56:05Z</time></trkpt><trkpt lat="39.229747457643306" lon="16.903677746104826"><ele>355.0</ele><time>2026-03-28T13:56:08Z</time></trkpt><trkpt lat="39.22961819618568" lon="16.903674207621922"><ele>355.0</ele><time>2026-03-28T13:56:10Z</time></trkpt><trkpt lat="39.229550833806854" lon="16.903702742896833"><ele>352.4</ele><time>2026-03-28T13:56:11Z</time></trkpt><trkpt lat="39.22944415279267" lon="16.903729583774357"><ele>349.8</ele><time>2026-03-28T13:56:13Z</time></trkpt><trkpt lat="39.229335870879616" lon="16.90371891626967"><ele>347.20000000000005</ele><time>2026-03-28T13:56:15Z</time></trkpt><trkpt lat="39.22926950432413" lon="16.903723122558823"><ele>344.6</ele><time>2026-03-28T13:56:16Z</time></trkpt><trkpt lat="39.22919424177212" lon="16.90374874192813"><ele>342.0</ele><time>2026-03-28T13:56:17Z</time></trkpt><trkpt lat="39.2291022854837" lon="16.903720077056192"><ele>342.0</ele><time>2026-03-28T13:56:18Z</time></trkpt><trkpt lat="39.229014397907626" lon="16.90365727181502"><ele>342.0</ele><time>2026-03-28T13:56:19Z</time></trkpt><trkpt lat="39.22888432093646" lon="16.903629068225797"><ele>342.0</ele><time>2026-03-28T13:56:20Z</time></trkpt><trkpt lat="39.228774769138546" lon="16.90359854146597"><ele>342.0</ele><time>2026-03-28T13:56:21Z</time></trkpt><trkpt lat="39.22866741919778" lon="16.903595054781047"><ele>341.1666666666667</ele><time>2026-03-28T13:56:22Z</time></trkpt><trkpt lat="39.2285766861587" lon="16.90358125161149"><ele>340.3333333333333</ele><time>2026-03-28T13:56:23Z</time></trkpt><trkpt lat="39.22849779658802" lon="16.903569804637826"><ele>339.5</ele><time>2026-03-28T13:56:24Z</time></trkpt><trkpt lat="39.22841900667471" lon="16.903560493386557"><ele>338.66666666666663</ele><time>2026-03-28T13:56:25Z</time></trkpt><trkpt lat="39.228345693221186" lon="16.903557540596484"><ele>337.8333333333333</ele><time>2026-03-28T13:56:26Z</time></trkpt><trkpt lat="39.22828173461189" lon="16.903554661274743"><ele>337.0</ele><time>2026-03-28T13:56:27Z</time></trkpt><trkpt lat="39.22816480057011" lon="16.903531879799324"><ele>336.40000000000003</ele><time>2026-03-28T13:56:29Z</time></trkpt><trkpt lat="39.22809989323235" lon="16.903513775274057"><ele>335.8</ele><time>2026-03-28T13:56:30Z</time></trkpt><trkpt lat="39.228017664371755" lon="16.903461866500297"><ele>335.2</ele><time>2026-03-28T13:56:31Z</time></trkpt><trkpt lat="39.227918423250784" lon="16.90337281493824"><ele>334.6</ele><time>2026-03-28T13:56:32Z</time></trkpt><trkpt lat="39.22783177615292" lon="16.903286341866497"><ele>334.0</ele><time>2026-03-28T13:56:33Z</time></trkpt><trkpt lat="39.22775312310772" lon="16.9032089490301"><ele>334.0</ele><time>2026-03-28T13:56:34Z</time></trkpt><trkpt lat="39.22767350509584" lon="16.903139113899595"><ele>334.0</ele><time>2026-03-28T13:56:35Z</time></trkpt><trkpt lat="39.22759687296459" lon="16.903057376915903"><ele>334.0</ele><time>2026-03-28T13:56:36Z</time></trkpt><trkpt lat="39.2275183696481" lon="16.902978462801567"><ele>334.0</ele><time>2026-03-28T13:56:37Z</time></trkpt><trkpt lat="39.22744039990786" lon="16.90289218899259"><ele>334.0</ele><time>2026-03-28T13:56:38Z</time></trkpt><trkpt lat="39.22736378888614" lon="16.90280309190006"><ele>331.4</ele><time>2026-03-28T13:56:39Z</time></trkpt><trkpt lat="39.227288657657155" lon="16.902708438522588"><ele>328.79999999999995</ele><time>2026-03-28T13:56:40Z</time></trkpt><trkpt lat="39.227217955663754" lon="16.90261376116575"><ele>326.20000000000005</ele><time>2026-03-28T13:56:41Z</time></trkpt><trkpt lat="39.22714968984282" lon="16.902521192332745"><ele>323.6</ele><time>2026-03-28T13:56:42Z</time></trkpt><trkpt lat="39.22708336725063" lon="16.902426516480844"><ele>321.0</ele><time>2026-03-28T13:56:43Z</time></trkpt><trkpt lat="39.227019623669605" lon="16.902322609821432"><ele>321.0</ele><time>2026-03-28T13:56:44Z</time></trkpt><trkpt lat="39.2269507716527" lon="16.902200330678692"><ele>321.0</ele><time>2026-03-28T13:56:45Z</time></trkpt><trkpt lat="39.22689459649808" lon="16.902074929479028"><ele>321.0</ele><time>2026-03-28T13:56:46Z</time></trkpt><trkpt lat="39.22685671978623" lon="16.901957761026196"><ele>321.0</ele><time>2026-03-28T13:56:47Z</time></trkpt><trkpt lat="39.22683159911338" lon="16.901849140071118"><ele>321.0</ele><time>2026-03-28T13:56:48Z</time></trkpt><trkpt lat="39.226818294879834" lon="16.901766003418043"><ele>321.0</ele><time>2026-03-28T13:56:49Z</time></trkpt><trkpt lat="39.22680757885594" lon="16.901670438953868"><ele>321.0</ele><time>2026-03-28T13:56:51Z</time></trkpt><trkpt lat="39.22681712259048" lon="16.90158918915325"><ele>321.0</ele><time>2026-03-28T13:56:54Z</time></trkpt><trkpt lat="39.22670551005519" lon="16.90161154250712"><ele>321.0</ele><time>2026-03-28T13:57:04Z</time></trkpt><trkpt lat="39.226677844008805" lon="16.901691154316342"><ele>321.0</ele><time>2026-03-28T13:57:12Z</time></trkpt><trkpt lat="39.22663526823858" lon="16.901756517386563"><ele>321.0</ele><time>2026-03-28T13:57:20Z</time></trkpt><trkpt lat="39.22657376000069" lon="16.90185027984882"><ele>321.0</ele><time>2026-03-28T13:58:09Z</time></trkpt><trkpt lat="39.22648753275558" lon="16.90198806630775"><ele>321.0</ele><time>2026-03-28T13:58:11Z</time></trkpt><trkpt lat="39.226436597814924" lon="16.902073011891506"><ele>321.0</ele><time>2026-03-28T13:58:12Z</time></trkpt><trkpt lat="39.226383595773555" lon="16.902152815861893"><ele>321.0</ele><time>2026-03-28T13:58:13Z</time></trkpt><trkpt lat="39.2263398437108" lon="16.902222101648388"><ele>321.0</ele><time>2026-03-28T13:58:14Z</time></trkpt><trkpt lat="39.226308219321616" lon="16.902297391119088"><ele>321.0</ele><time>2026-03-28T13:58:15Z</time></trkpt><trkpt lat="39.226278205163794" lon="16.902431817329056"><ele>317.8333333333333</ele><time>2026-03-28T13:58:17Z</time></trkpt><trkpt lat="39.22627198166111" lon="16.902580065279164"><ele>314.6666666666667</ele><time>2026-03-28T13:58:19Z</time></trkpt><trkpt lat="39.22628085203812" lon="16.902663073783383"><ele>311.5</ele><time>2026-03-28T13:58:20Z</time></trkpt><trkpt lat="39.22629768722266" lon="16.902751724416444"><ele>308.33333333333337</ele><time>2026-03-28T13:58:21Z</time></trkpt><trkpt lat="39.22631451489838" lon="16.90284191667257"><ele>305.1666666666667</ele><time>2026-03-28T13:58:22Z</time></trkpt><trkpt lat="39.22629453712926" lon="16.90292593027419"><ele>302.0</ele><time>2026-03-28T13:58:23Z</time></trkpt><trkpt lat="39.22636934964878" lon="16.9030050080917"><ele>302.00000000000006</ele><time>2026-03-28T13:58:24Z</time></trkpt><trkpt lat="39.2263786459432" lon="16.903089377943456"><ele>302.0</ele><time>2026-03-28T13:58:25Z</time></trkpt><trkpt lat="39.226388825462905" lon="16.903186688509752"><ele>302.0</ele><time>2026-03-28T13:58:26Z</time></trkpt><trkpt lat="39.22640087209608" lon="16.903292135633684"><ele>302.0</ele><time>2026-03-28T13:58:27Z</time></trkpt><trkpt lat="39.22640947854825" lon="16.903398761739872"><ele>302.0</ele><time>2026-03-28T13:58:28Z</time></trkpt><trkpt lat="39.22641230456329" lon="16.903490430235934"><ele>302.00000000000006</ele><time>2026-03-28T13:58:29Z</time></trkpt><trkpt lat="39.226414873096545" lon="16.90357650475637"><ele>302.0</ele><time>2026-03-28T13:58:30Z</time></trkpt><trkpt lat="39.22641789677101" lon="16.903666525937172"><ele>302.4</ele><time>2026-03-28T13:58:31Z</time></trkpt><trkpt lat="39.2264284474564" lon="16.903795774021305"><ele>302.79999999999995</ele><time>2026-03-28T13:58:32Z</time></trkpt><trkpt lat="39.22644855475117" lon="16.90392818474123"><ele>303.2</ele><time>2026-03-28T13:58:33Z</time></trkpt><trkpt lat="39.22647627497936" lon="16.904029673964867"><ele>303.59999999999997</ele><time>2026-03-28T13:58:34Z</time></trkpt><trkpt lat="39.22650340159535" lon="16.904120730164415"><ele>304.0</ele><time>2026-03-28T13:58:35Z</time></trkpt><trkpt lat="39.22655107328523" lon="16.904271377228415"><ele>305.0</ele><time>2026-03-28T13:58:37Z</time></trkpt><trkpt lat="39.22657889743101" lon="16.904357418111328"><ele>306.0</ele><time>2026-03-28T13:58:38Z</time></trkpt><trkpt lat="39.22660628959097" lon="16.904448786196824"><ele>307.0</ele><time>2026-03-28T13:58:39Z</time></trkpt><trkpt lat="39.22663673293596" lon="16.904543508360987"><ele>308.0</ele><time>2026-03-28T13:58:40Z</time></trkpt><trkpt lat="39.226665201932164" lon="16.90462308089576"><ele>309.0</ele><time>2026-03-28T13:58:41Z</time></trkpt><trkpt lat="39.2266843792344" lon="16.904713784782526"><ele>310.0</ele><time>2026-03-28T13:58:42Z</time></trkpt><trkpt lat="39.2267407515343" lon="16.90478656541844"><ele>311.0</ele><time>2026-03-28T13:58:43Z</time></trkpt><trkpt lat="39.2267847575237" lon="16.90487473389587"><ele>311.0</ele><time>2026-03-28T13:58:44Z</time></trkpt><trkpt lat="39.226805803642996" lon="16.904977015800714"><ele>311.0</ele><time>2026-03-28T13:58:45Z</time></trkpt><trkpt lat="39.226848109285555" lon="16.905071743466507"><ele>311.0</ele><time>2026-03-28T13:58:46Z</time></trkpt><trkpt lat="39.22687099035773" lon="16.90515055980678"><ele>311.0</ele><time>2026-03-28T13:58:47Z</time></trkpt><trkpt lat="39.22689368653551" lon="16.90522702803777"><ele>311.0</ele><time>2026-03-28T13:58:48Z</time></trkpt><trkpt lat="39.22694820398148" lon="16.905333455762303"><ele>311.0</ele><time>2026-03-28T13:58:50Z</time></trkpt><trkpt lat="39.226997223946704" lon="16.905395215725765"><ele>309.6</ele><time>2026-03-28T13:58:52Z</time></trkpt><trkpt lat="39.22706019128539" lon="16.90547875565543"><ele>308.20000000000005</ele><time>2026-03-28T13:58:54Z</time></trkpt><trkpt lat="39.22714118943893" lon="16.905591614896103"><ele>306.79999999999995</ele><time>2026-03-28T13:58:56Z</time></trkpt><trkpt lat="39.227170261837976" lon="16.90567179652526"><ele>305.4</ele><time>2026-03-28T13:58:57Z</time></trkpt><trkpt lat="39.22722047012277" lon="16.905768385922187"><ele>304.0</ele><time>2026-03-28T13:58:58Z</time></trkpt><trkpt lat="39.22726755750101" lon="16.905860371876642"><ele>302.66666666666663</ele><time>2026-03-28T13:58:59Z</time></trkpt><trkpt lat="39.22730633941316" lon="16.905934765173726"><ele>301.3333333333333</ele><time>2026-03-28T13:59:00Z</time></trkpt><trkpt lat="39.22736120485735" lon="16.906013068990674"><ele>300.0</ele><time>2026-03-28T13:59:02Z</time></trkpt><trkpt lat="39.22742093771672" lon="16.90611970432127"><ele>298.6666666666667</ele><time>2026-03-28T13:59:04Z</time></trkpt><trkpt lat="39.227499934709286" lon="16.90623844548059"><ele>297.33333333333337</ele><time>2026-03-28T13:59:06Z</time></trkpt><trkpt lat="39.22754480542097" lon="16.906296696903766"><ele>296.0</ele><time>2026-03-28T13:59:07Z</time></trkpt><trkpt lat="39.22759346185737" lon="16.90635798877018"><ele>296.0</ele><time>2026-03-28T13:59:08Z</time></trkpt><trkpt lat="39.22765143661315" lon="16.906399655569253"><ele>296.0</ele><time>2026-03-28T13:59:09Z</time></trkpt><trkpt lat="39.227731692459564" lon="16.906503666129122"><ele>296.0</ele><time>2026-03-28T13:59:11Z</time></trkpt><trkpt lat="39.22781927910062" lon="16.90661216572137"><ele>296.0</ele><time>2026-03-28T13:59:13Z</time></trkpt><trkpt lat="39.22788040720916" lon="16.906716351272724"><ele>296.0</ele><time>2026-03-28T13:59:15Z</time></trkpt><trkpt lat="39.22794878825265" lon="16.90680745541205"><ele>292.33333333333337</ele><time>2026-03-28T13:59:17Z</time></trkpt><trkpt lat="39.228015191840726" lon="16.906878862368924"><ele>288.6666666666667</ele><time>2026-03-28T13:59:19Z</time></trkpt><trkpt lat="39.22806522369816" lon="16.90693684601609"><ele>285.0</ele><time>2026-03-28T13:59:21Z</time></trkpt><trkpt lat="39.22809743845476" lon="16.90702587759059"><ele>281.3333333333333</ele><time>2026-03-28T13:59:24Z</time></trkpt><trkpt lat="39.22808960081038" lon="16.907121054751872"><ele>277.66666666666663</ele><time>2026-03-28T13:59:26Z</time></trkpt><trkpt lat="39.22808355457559" lon="16.907250915174654"><ele>274.0</ele><time>2026-03-28T13:59:28Z</time></trkpt><trkpt lat="39.22808176045389" lon="16.907367467490715"><ele>274.0</ele><time>2026-03-28T13:59:30Z</time></trkpt><trkpt lat="39.228103163220325" lon="16.907449341537863"><ele>274.0</ele><time>2026-03-28T13:59:32Z</time></trkpt><trkpt lat="39.22814599757359" lon="16.90755822188473"><ele>274.0</ele><time>2026-03-28T13:59:35Z</time></trkpt><trkpt lat="39.22821816240863" lon="16.907626543533585"><ele>274.0</ele><time>2026-03-28T13:59:37Z</time></trkpt><trkpt lat="39.228308770116826" lon="16.90771343292594"><ele>274.0</ele><time>2026-03-28T13:59:39Z</time></trkpt><trkpt lat="39.22836541626076" lon="16.90776937957536"><ele>274.0</ele><time>2026-03-28T13:59:40Z</time></trkpt><trkpt lat="39.22842495747935" lon="16.907832205327853"><ele>274.0</ele><time>2026-03-28T13:59:41Z</time></trkpt><trkpt lat="39.228491413019235" lon="16.907872792896534"><ele>274.0</ele><time>2026-03-28T13:59:42Z</time></trkpt><trkpt lat="39.22854936300874" lon="16.90793094021513"><ele>274.0</ele><time>2026-03-28T13:59:43Z</time></trkpt><trkpt lat="39.22861284714642" lon="16.907976727512693"><ele>274.0</ele><time>2026-03-28T13:59:44Z</time></trkpt><trkpt lat="39.22869457795067" lon="16.908045323344304"><ele>274.0</ele><time>2026-03-28T13:59:46Z</time></trkpt><trkpt lat="39.228771194777416" lon="16.908112023055313"><ele>274.0</ele><time>2026-03-28T13:59:48Z</time></trkpt><trkpt lat="39.22883504800861" lon="16.908183611320748"><ele>274.0</ele><time>2026-03-28T13:59:50Z</time></trkpt><trkpt lat="39.22888341692678" lon="16.908236177440347"><ele>274.0</ele><time>2026-03-28T13:59:53Z</time></trkpt><trkpt lat="39.22889870594282" lon="16.90833496749206"><ele>274.0</ele><time>2026-03-28T13:59:57Z</time></trkpt><trkpt lat="39.2289130352113" lon="16.908436297054475"><ele>274.0</ele><time>2026-03-28T14:00:00Z</time></trkpt><trkpt lat="39.22940139575002" lon="16.90904197139022"><ele>272.3333333333333</ele><time>2026-03-28T14:00:18Z</time></trkpt><trkpt lat="39.22948315985853" lon="16.909079623142965"><ele>270.66666666666663</ele><time>2026-03-28T14:00:24Z</time></trkpt><trkpt lat="39.22955460517635" lon="16.909112942442526"><ele>269.0</ele><time>2026-03-28T14:00:28Z</time></trkpt><trkpt lat="39.229624711444956" lon="16.909155774368134"><ele>267.3333333333333</ele><time>2026-03-28T14:00:30Z</time></trkpt><trkpt lat="39.22970860583655" lon="16.909223515908256"><ele>265.6666666666667</ele><time>2026-03-28T14:00:32Z</time></trkpt><trkpt lat="39.22981073813002" lon="16.909242596577705"><ele>264.0</ele><time>2026-03-28T14:00:34Z</time></trkpt><trkpt lat="39.229923977827276" lon="16.909264447656785"><ele>264.6666666666667</ele><time>2026-03-28T14:00:36Z</time></trkpt><trkpt lat="39.22998978065307" lon="16.909271923622473"><ele>265.3333333333333</ele><time>2026-03-28T14:00:37Z</time></trkpt><trkpt lat="39.23005537484632" lon="16.909283732225873"><ele>266.0</ele><time>2026-03-28T14:00:38Z</time></trkpt><trkpt lat="39.23016473326707" lon="16.909301549798816"><ele>266.66666666666663</ele><time>2026-03-28T14:00:40Z</time></trkpt><trkpt lat="39.230256196317924" lon="16.90931565907915"><ele>267.3333333333333</ele><time>2026-03-28T14:00:42Z</time></trkpt><trkpt lat="39.23033797641605" lon="16.909290319534414"><ele>268.0</ele><time>2026-03-28T14:00:44Z</time></trkpt><trkpt lat="39.23041957831978" lon="16.909242094970235"><ele>268.0</ele><time>2026-03-28T14:00:47Z</time></trkpt><trkpt lat="39.2304889012321" lon="16.909200896353994"><ele>268.0</ele><time>2026-03-28T14:00:50Z</time></trkpt><trkpt lat="39.230561663508645" lon="16.90917482924995"><ele>268.0</ele><time>2026-03-28T14:00:52Z</time></trkpt><trkpt lat="39.230638618647966" lon="16.909136874122872"><ele>268.0</ele><time>2026-03-28T14:00:54Z</time></trkpt><trkpt lat="39.23071029596565" lon="16.909136839487907"><ele>268.0</ele><time>2026-03-28T14:00:56Z</time></trkpt><trkpt lat="39.23079065274707" lon="16.90918195990305"><ele>268.0</ele><time>2026-03-28T14:00:58Z</time></trkpt><trkpt lat="39.23085134096894" lon="16.909240443847576"><ele>265.16666666666663</ele><time>2026-03-28T14:00:59Z</time></trkpt><trkpt lat="39.23092850449492" lon="16.90934813871679"><ele>262.3333333333333</ele><time>2026-03-28T14:01:01Z</time></trkpt><trkpt lat="39.23096754376262" lon="16.909424426779466"><ele>259.5</ele><time>2026-03-28T14:01:03Z</time></trkpt><trkpt lat="39.23100996970205" lon="16.909496118253017"><ele>256.6666666666667</ele><time>2026-03-28T14:01:05Z</time></trkpt><trkpt lat="39.23105135022023" lon="16.909576289159524"><ele>253.83333333333334</ele><time>2026-03-28T14:01:07Z</time></trkpt><trkpt lat="39.231090725400875" lon="16.90966435008032"><ele>251.0</ele><time>2026-03-28T14:01:09Z</time></trkpt><trkpt lat="39.23115212768419" lon="16.909755370824747"><ele>251.00000000000003</ele><time>2026-03-28T14:01:11Z</time></trkpt><trkpt lat="39.23122257469692" lon="16.90982180291222"><ele>251.0</ele><time>2026-03-28T14:01:13Z</time></trkpt><trkpt lat="39.23127992174017" lon="16.90986761909949"><ele>251.0</ele><time>2026-03-28T14:01:17Z</time></trkpt><trkpt lat="39.23133011128498" lon="16.909924823007433"><ele>251.0</ele><time>2026-03-28T14:01:20Z</time></trkpt><trkpt lat="39.23138109041668" lon="16.910006092279886"><ele>251.00000000000003</ele><time>2026-03-28T14:01:24Z</time></trkpt><trkpt lat="39.231436028396026" lon="16.910080844268368"><ele>251.0</ele><time>2026-03-28T14:01:28Z</time></trkpt><trkpt lat="39.231494106185316" lon="16.910167121644495"><ele>248.66666666666669</ele><time>2026-03-28T14:01:31Z</time></trkpt><trkpt lat="39.23157871853927" lon="16.91024810998912"><ele>246.33333333333334</ele><time>2026-03-28T14:01:34Z</time></trkpt><trkpt lat="39.231622954707056" lon="16.910319246470543"><ele>244.0</ele><time>2026-03-28T14:01:36Z</time></trkpt><trkpt lat="39.23161041297037" lon="16.91040145719111"><ele>241.66666666666669</ele><time>2026-03-28T14:01:38Z</time></trkpt><trkpt lat="39.23153132871805" lon="16.91045853104039"><ele>239.33333333333334</ele><time>2026-03-28T14:01:41Z</time></trkpt><trkpt lat="39.23146013986944" lon="16.910442715492184"><ele>237.0</ele><time>2026-03-28T14:01:43Z</time></trkpt><trkpt lat="39.231394946698366" lon="16.9104592026613"><ele>237.0</ele><time>2026-03-28T14:01:46Z</time></trkpt><trkpt lat="39.23134113854618" lon="16.910504775825206"><ele>237.0</ele><time>2026-03-28T14:01:49Z</time></trkpt><trkpt lat="39.23131645833501" lon="16.910603844988653"><ele>237.0</ele><time>2026-03-28T14:01:53Z</time></trkpt><trkpt lat="39.231371493479415" lon="16.91067383338664"><ele>237.0</ele><time>2026-03-28T14:01:56Z</time></trkpt><trkpt lat="39.23144269450816" lon="16.91069836152681"><ele>237.0</ele><time>2026-03-28T14:01:59Z</time></trkpt><trkpt lat="39.231527433277435" lon="16.91072882872267"><ele>237.0</ele><time>2026-03-28T14:02:03Z</time></trkpt><trkpt lat="39.231603200220825" lon="16.910764122442544"><ele>237.0</ele><time>2026-03-28T14:02:05Z</time></trkpt><trkpt lat="39.23167814275336" lon="16.910783560735684"><ele>237.0</ele><time>2026-03-28T14:02:07Z</time></trkpt><trkpt lat="39.23173389103435" lon="16.910836156452575"><ele>237.0</ele><time>2026-03-28T14:02:09Z</time></trkpt><trkpt lat="39.23182506631824" lon="16.910840371418377"><ele>237.0</ele><time>2026-03-28T14:02:11Z</time></trkpt><trkpt lat="39.23192230717074" lon="16.910903563956804"><ele>237.0</ele><time>2026-03-28T14:02:13Z</time></trkpt><trkpt lat="39.23199301715828" lon="16.910964256390418"><ele>237.0</ele><time>2026-03-28T14:02:15Z</time></trkpt><trkpt lat="39.23207140952935" lon="16.911054415787753"><ele>235.8</ele><time>2026-03-28T14:02:17Z</time></trkpt><trkpt lat="39.23215374691825" lon="16.911151844209428"><ele>234.6</ele><time>2026-03-28T14:02:19Z</time></trkpt><trkpt lat="39.23223265830527" lon="16.91126981035719"><ele>233.40000000000003</ele><time>2026-03-28T14:02:21Z</time></trkpt><trkpt lat="39.232290295261485" lon="16.9113948939354"><ele>232.20000000000002</ele><time>2026-03-28T14:02:23Z</time></trkpt><trkpt lat="39.232342790216386" lon="16.91150155460815"><ele>231.0</ele><time>2026-03-28T14:02:25Z</time></trkpt><trkpt lat="39.23238844382215" lon="16.91161468360726"><ele>231.0</ele><time>2026-03-28T14:02:27Z</time></trkpt><trkpt lat="39.23242377625438" lon="16.911731528376826"><ele>231.00000000000003</ele><time>2026-03-28T14:02:29Z</time></trkpt><trkpt lat="39.232485139212564" lon="16.91183711354161"><ele>231.00000000000003</ele><time>2026-03-28T14:02:31Z</time></trkpt><trkpt lat="39.2325424165575" lon="16.91194117524944"><ele>231.0</ele><time>2026-03-28T14:02:33Z</time></trkpt><trkpt lat="39.23258565896177" lon="16.91206329042182"><ele>231.0</ele><time>2026-03-28T14:02:35Z</time></trkpt><trkpt lat="39.23261913410654" lon="16.912163805249783"><ele>229.66666666666666</ele><time>2026-03-28T14:02:37Z</time></trkpt><trkpt lat="39.23265628808518" lon="16.91224846846438"><ele>228.33333333333331</ele><time>2026-03-28T14:02:40Z</time></trkpt><trkpt lat="39.23270102596122" lon="16.9123338826837"><ele>227.0</ele><time>2026-03-28T14:02:42Z</time></trkpt><trkpt lat="39.23273591423677" lon="16.912413624752435"><ele>225.66666666666666</ele><time>2026-03-28T14:02:44Z</time></trkpt><trkpt lat="39.23273639031174" lon="16.912519099422507"><ele>224.33333333333331</ele><time>2026-03-28T14:02:46Z</time></trkpt><trkpt lat="39.232763615882" lon="16.912644414791757"><ele>223.0</ele><time>2026-03-28T14:02:48Z</time></trkpt><trkpt lat="39.232773222941006" lon="16.912778780415863"><ele>223.0</ele><time>2026-03-28T14:02:50Z</time></trkpt><trkpt lat="39.232787301554545" lon="16.912904682784966"><ele>223.0</ele><time>2026-03-28T14:02:52Z</time></trkpt><trkpt lat="39.232803854094875" lon="16.913024213271687"><ele>223.0</ele><time>2026-03-28T14:02:54Z</time></trkpt><trkpt lat="39.23282378696811" lon="16.91320001610228"><ele>223.0</ele><time>2026-03-28T14:02:56Z</time></trkpt><trkpt lat="39.23283147115781" lon="16.913291410036553"><ele>223.0</ele><time>2026-03-28T14:02:57Z</time></trkpt><trkpt lat="39.23284564614349" lon="16.91342206461838"><ele>221.83333333333331</ele><time>2026-03-28T14:02:59Z</time></trkpt><trkpt lat="39.23289153664669" lon="16.913552532158874"><ele>220.66666666666666</ele><time>2026-03-28T14:03:01Z</time></trkpt><trkpt lat="39.232933337183155" lon="16.91367148223945"><ele>219.5</ele><time>2026-03-28T14:03:03Z</time></trkpt><trkpt lat="39.23297503319234" lon="16.913766072471603"><ele>218.33333333333331</ele><time>2026-03-28T14:03:05Z</time></trkpt><trkpt lat="39.23298552677967" lon="16.91384703425149"><ele>217.16666666666666</ele><time>2026-03-28T14:03:07Z</time></trkpt><trkpt lat="39.232959085447966" lon="16.913939337297478"><ele>216.0</ele><time>2026-03-28T14:03:09Z</time></trkpt><trkpt lat="39.23292830859574" lon="16.914029526933632"><ele>216.0</ele><time>2026-03-28T14:03:11Z</time></trkpt><trkpt lat="39.23293194303343" lon="16.9141367969818"><ele>216.0</ele><time>2026-03-28T14:03:14Z</time></trkpt><trkpt lat="39.23295159226147" lon="16.914232282812126"><ele>216.0</ele><time>2026-03-28T14:03:18Z</time></trkpt><trkpt lat="39.23300351614856" lon="16.914333989957694"><ele>216.0</ele><time>2026-03-28T14:03:21Z</time></trkpt><trkpt lat="39.233045706637434" lon="16.914416694674355"><ele>216.0</ele><time>2026-03-28T14:03:23Z</time></trkpt><trkpt lat="39.23309942030397" lon="16.91449812669383"><ele>216.0</ele><time>2026-03-28T14:03:25Z</time></trkpt><trkpt lat="39.23317057417064" lon="16.914527304458904"><ele>216.16666666666666</ele><time>2026-03-28T14:03:27Z</time></trkpt><trkpt lat="39.23325951391801" lon="16.914603626774053"><ele>216.33333333333331</ele><time>2026-03-28T14:03:29Z</time></trkpt><trkpt lat="39.233310615692695" lon="16.914699468398215"><ele>216.5</ele><time>2026-03-28T14:03:31Z</time></trkpt><trkpt lat="39.233372960671474" lon="16.914778551415868"><ele>216.66666666666666</ele><time>2026-03-28T14:03:34Z</time></trkpt><trkpt lat="39.23341709003012" lon="16.914857017966927"><ele>216.83333333333331</ele><time>2026-03-28T14:03:37Z</time></trkpt><trkpt lat="39.233462232735455" lon="16.914945463347024"><ele>217.0</ele><time>2026-03-28T14:03:40Z</time></trkpt><trkpt lat="39.23349325925357" lon="16.915024881266735"><ele>214.66666666666666</ele><time>2026-03-28T14:03:46Z</time></trkpt><trkpt lat="39.23354543861873" lon="16.915099672841507"><ele>212.33333333333331</ele><time>2026-03-28T14:03:51Z</time></trkpt><trkpt lat="39.2335848370702" lon="16.91518237400954"><ele>210.0</ele><time>2026-03-28T14:03:56Z</time></trkpt><trkpt lat="39.233594763141596" lon="16.915279309816125"><ele>207.66666666666669</ele><time>2026-03-28T14:04:00Z</time></trkpt><trkpt lat="39.233599217305596" lon="16.91538825992594"><ele>205.33333333333334</ele><time>2026-03-28T14:04:04Z</time></trkpt><trkpt lat="39.2335827064358" lon="16.915499780151386"><ele>203.0</ele><time>2026-03-28T14:04:07Z</time></trkpt><trkpt lat="39.233579038050046" lon="16.915582645994167"><ele>203.00000000000003</ele><time>2026-03-28T14:04:09Z</time></trkpt><trkpt lat="39.23357792304833" lon="16.915665293038224"><ele>203.0</ele><time>2026-03-28T14:04:12Z</time></trkpt><trkpt lat="39.23352041954677" lon="16.915700480477792"><ele>203.0</ele><time>2026-03-28T14:04:16Z</time></trkpt><trkpt lat="39.23348745982828" lon="16.91577787259846"><ele>203.0</ele><time>2026-03-28T14:04:20Z</time></trkpt><trkpt lat="39.23344979693344" lon="16.915853519656874"><ele>203.00000000000003</ele><time>2026-03-28T14:04:22Z</time></trkpt><trkpt lat="39.233457595435084" lon="16.91595688722979"><ele>203.0</ele><time>2026-03-28T14:04:24Z</time></trkpt><trkpt lat="39.233524579249405" lon="16.916067450830855"><ele>201.33333333333334</ele><time>2026-03-28T14:04:26Z</time></trkpt><trkpt lat="39.23360167044563" lon="16.916166203705938"><ele>199.66666666666669</ele><time>2026-03-28T14:04:28Z</time></trkpt><trkpt lat="39.233652515512944" lon="16.91625921499074"><ele>198.0</ele><time>2026-03-28T14:04:30Z</time></trkpt><trkpt lat="39.23370160874166" lon="16.91633259032486"><ele>196.33333333333331</ele><time>2026-03-28T14:04:32Z</time></trkpt><trkpt lat="39.233749078912844" lon="16.916402200084164"><ele>194.66666666666666</ele><time>2026-03-28T14:04:34Z</time></trkpt><trkpt lat="39.23383018742336" lon="16.916462869182116"><ele>193.0</ele><time>2026-03-28T14:04:37Z</time></trkpt><trkpt lat="39.233860573176734" lon="16.91655267301005"><ele>192.99999999999997</ele><time>2026-03-28T14:04:39Z</time></trkpt><trkpt lat="39.23389360889011" lon="16.916627043409378"><ele>193.0</ele><time>2026-03-28T14:04:42Z</time></trkpt><trkpt lat="39.2339281342257" lon="16.916702421349193"><ele>193.0</ele><time>2026-03-28T14:04:46Z</time></trkpt><trkpt lat="39.233985946730364" lon="16.916776586057757"><ele>193.0</ele><time>2026-03-28T14:04:51Z</time></trkpt><trkpt lat="39.23405483575416" lon="16.916865998559576"><ele>192.99999999999997</ele><time>2026-03-28T14:04:54Z</time></trkpt><trkpt lat="39.23409300540633" lon="16.916951502903938"><ele>193.0</ele><time>2026-03-28T14:04:56Z</time></trkpt><trkpt lat="39.234204010238095" lon="16.91706408132295"><ele>191.0</ele><time>2026-03-28T14:04:58Z</time></trkpt><trkpt lat="39.23427639677176" lon="16.917163976159372"><ele>189.0</ele><time>2026-03-28T14:04:59Z</time></trkpt><trkpt lat="39.2343260063828" lon="16.91727129892959"><ele>187.0</ele><time>2026-03-28T14:05:00Z</time></trkpt><trkpt lat="39.23436833197489" lon="16.917372332680486"><ele>185.0</ele><time>2026-03-28T14:05:01Z</time></trkpt><trkpt lat="39.23441202263968" lon="16.917468665032086"><ele>183.0</ele><time>2026-03-28T14:05:02Z</time></trkpt><trkpt lat="39.23445674734273" lon="16.91755424673375"><ele>181.4</ele><time>2026-03-28T14:05:03Z</time></trkpt><trkpt lat="39.2344999977401" lon="16.917631810334996"><ele>179.8</ele><time>2026-03-28T14:05:04Z</time></trkpt><trkpt lat="39.23452756479287" lon="16.91771152437222"><ele>178.2</ele><time>2026-03-28T14:05:05Z</time></trkpt><trkpt lat="39.23457190450935" lon="16.917898864344817"><ele>176.6</ele><time>2026-03-28T14:05:07Z</time></trkpt><trkpt lat="39.23460470113109" lon="16.918031016860557"><ele>175.0</ele><time>2026-03-28T14:05:08Z</time></trkpt><trkpt lat="39.23465537105258" lon="16.91814401572259"><ele>175.0</ele><time>2026-03-28T14:05:09Z</time></trkpt><trkpt lat="39.234736405723844" lon="16.918264552958405"><ele>175.0</ele><time>2026-03-28T14:05:10Z</time></trkpt><trkpt lat="39.234802695212544" lon="16.91836547527837"><ele>175.0</ele><time>2026-03-28T14:05:11Z</time></trkpt><trkpt lat="39.234859814780215" lon="16.91844321920655"><ele>175.0</ele><time>2026-03-28T14:05:12Z</time></trkpt><trkpt lat="39.23490886174088" lon="16.91852012264154"><ele>175.0</ele><time>2026-03-28T14:05:13Z</time></trkpt><trkpt lat="39.23495545109597" lon="16.918596988605476"><ele>175.16666666666669</ele><time>2026-03-28T14:05:14Z</time></trkpt><trkpt lat="39.23500063843638" lon="16.918670790200206"><ele>175.33333333333334</ele><time>2026-03-28T14:05:15Z</time></trkpt><trkpt lat="39.23504047510851" lon="16.91874562280398"><ele>175.5</ele><time>2026-03-28T14:05:16Z</time></trkpt><trkpt lat="39.23510917831755" lon="16.918857432535873"><ele>175.66666666666666</ele><time>2026-03-28T14:05:18Z</time></trkpt><trkpt lat="39.23517352291127" lon="16.91892499263645"><ele>175.83333333333331</ele><time>2026-03-28T14:05:22Z</time></trkpt><trkpt lat="39.23521411770116" lon="16.919016987321516"><ele>176.0</ele><time>2026-03-28T14:05:25Z</time></trkpt><trkpt lat="39.2352638685448" lon="16.91911720873322"><ele>176.0</ele><time>2026-03-28T14:05:27Z</time></trkpt><trkpt lat="39.23530475276891" lon="16.919187679852303"><ele>176.0</ele><time>2026-03-28T14:05:29Z</time></trkpt><trkpt lat="39.2353497346592" lon="16.919276220209106"><ele>176.0</ele><time>2026-03-28T14:05:31Z</time></trkpt><trkpt lat="39.23540923107574" lon="16.91936476689145"><ele>176.0</ele><time>2026-03-28T14:05:33Z</time></trkpt><trkpt lat="39.23541769742754" lon="16.919471936513748"><ele>176.0</ele><time>2026-03-28T14:05:36Z</time></trkpt><trkpt lat="39.23532983324094" lon="16.919534374347748"><ele>176.0</ele><time>2026-03-28T14:05:39Z</time></trkpt><trkpt lat="39.23528423653686" lon="16.919601336705572"><ele>174.83333333333331</ele><time>2026-03-28T14:05:41Z</time></trkpt><trkpt lat="39.23522708849177" lon="16.919683043299486"><ele>173.66666666666666</ele><time>2026-03-28T14:05:44Z</time></trkpt><trkpt lat="39.235183027186295" lon="16.91979555886444"><ele>172.5</ele><time>2026-03-28T14:05:47Z</time></trkpt><trkpt lat="39.23514463061901" lon="16.919885044643692"><ele>171.33333333333334</ele><time>2026-03-28T14:05:49Z</time></trkpt><trkpt lat="39.235088798003204" lon="16.919964568603643"><ele>170.16666666666669</ele><time>2026-03-28T14:05:51Z</time></trkpt><trkpt lat="39.23501152511919" lon="16.9200482058841"><ele>169.0</ele><time>2026-03-28T14:05:53Z</time></trkpt><trkpt lat="39.234962894442326" lon="16.920139176432386"><ele>167.2</ele><time>2026-03-28T14:05:55Z</time></trkpt><trkpt lat="39.23492169544211" lon="16.920225995170973"><ele>165.39999999999998</ele><time>2026-03-28T14:05:57Z</time></trkpt><trkpt lat="39.234868773196524" lon="16.92033446932844"><ele>163.6</ele><time>2026-03-28T14:05:59Z</time></trkpt><trkpt lat="39.234809676281586" lon="16.920466160534165"><ele>161.8</ele><time>2026-03-28T14:06:01Z</time></trkpt><trkpt lat="39.234746762324846" lon="16.920590471675045"><ele>160.0</ele><time>2026-03-28T14:06:03Z</time></trkpt><trkpt lat="39.234693090572144" lon="16.92070648402201"><ele>159.42857142857142</ele><time>2026-03-28T14:06:05Z</time></trkpt><trkpt lat="39.23464139061802" lon="16.920759614906746"><ele>158.85714285714286</ele><time>2026-03-28T14:06:07Z</time></trkpt><trkpt lat="39.2345834397738" lon="16.920812946362958"><ele>158.28571428571428</ele><time>2026-03-28T14:06:09Z</time></trkpt><trkpt lat="39.23453113753356" lon="16.920866393978365"><ele>157.71428571428572</ele><time>2026-03-28T14:06:11Z</time></trkpt><trkpt lat="39.23448434336729" lon="16.920931847829454"><ele>157.14285714285714</ele><time>2026-03-28T14:06:13Z</time></trkpt><trkpt lat="39.23444676885944" lon="16.921009807932876"><ele>156.57142857142858</ele><time>2026-03-28T14:06:17Z</time></trkpt><trkpt lat="39.23441560228278" lon="16.921082350922116"><ele>156.0</ele><time>2026-03-28T14:06:21Z</time></trkpt><trkpt lat="39.2343799348633" lon="16.921207964244402"><ele>155.6</ele><time>2026-03-28T14:06:23Z</time></trkpt><trkpt lat="39.23435532733832" lon="16.921328035131513"><ele>155.2</ele><time>2026-03-28T14:06:25Z</time></trkpt><trkpt lat="39.2343442577581" lon="16.921474799947152"><ele>154.8</ele><time>2026-03-28T14:06:27Z</time></trkpt><trkpt lat="39.23434858061202" lon="16.921562193520625"><ele>154.4</ele><time>2026-03-28T14:06:28Z</time></trkpt><trkpt lat="39.23429455373675" lon="16.92170436528635"><ele>154.0</ele><time>2026-03-28T14:06:30Z</time></trkpt><trkpt lat="39.234221674770964" lon="16.92185165174869"><ele>154.85714285714286</ele><time>2026-03-28T14:06:32Z</time></trkpt><trkpt lat="39.23419592989175" lon="16.92193132364585"><ele>155.71428571428572</ele><time>2026-03-28T14:06:34Z</time></trkpt><trkpt lat="39.23416879280595" lon="16.922025470853796"><ele>156.57142857142856</ele><time>2026-03-28T14:06:39Z</time></trkpt><trkpt lat="39.23412077984591" lon="16.92208931438111"><ele>157.42857142857144</ele><time>2026-03-28T14:06:42Z</time></trkpt><trkpt lat="39.23405910740456" lon="16.92214263686891"><ele>158.28571428571428</ele><time>2026-03-28T14:06:45Z</time></trkpt><trkpt lat="39.23400811736101" lon="16.922193956254837"><ele>159.14285714285714</ele><time>2026-03-28T14:06:48Z</time></trkpt><trkpt lat="39.233957121781806" lon="16.922256767049383"><ele>160.0</ele><time>2026-03-28T14:07:05Z</time></trkpt><trkpt lat="39.23391872430725" lon="16.922338770890825"><ele>160.16666666666669</ele><time>2026-03-28T14:07:09Z</time></trkpt><trkpt lat="39.233869400718945" lon="16.922411697426938"><ele>160.33333333333334</ele><time>2026-03-28T14:07:12Z</time></trkpt><trkpt lat="39.23378021690563" lon="16.922499007116745"><ele>160.5</ele><time>2026-03-28T14:07:14Z</time></trkpt><trkpt lat="39.23373072212334" lon="16.922588764934613"><ele>160.66666666666666</ele><time>2026-03-28T14:07:16Z</time></trkpt><trkpt lat="39.233685987441106" lon="16.922656380286043"><ele>160.83333333333331</ele><time>2026-03-28T14:07:18Z</time></trkpt><trkpt lat="39.23360452095342" lon="16.922713693333005"><ele>161.0</ele><time>2026-03-28T14:07:21Z</time></trkpt><trkpt lat="39.23350511706943" lon="16.922746565263175"><ele>160.5</ele><time>2026-03-28T14:07:23Z</time></trkpt><trkpt lat="39.233411353166154" lon="16.922808046343334"><ele>160.0</ele><time>2026-03-28T14:07:25Z</time></trkpt><trkpt lat="39.23335410597839" lon="16.922870056975125"><ele>159.5</ele><time>2026-03-28T14:07:27Z</time></trkpt><trkpt lat="39.23329031310855" lon="16.92294088872471"><ele>159.0</ele><time>2026-03-28T14:07:29Z</time></trkpt><trkpt lat="39.2332297469943" lon="16.92302596873924"><ele>158.5</ele><time>2026-03-28T14:07:31Z</time></trkpt><trkpt lat="39.23316394409914" lon="16.923107611274435"><ele>158.0</ele><time>2026-03-28T14:07:34Z</time></trkpt><trkpt lat="39.23310599773369" lon="16.92316718599321"><ele>155.5</ele><time>2026-03-28T14:07:36Z</time></trkpt><trkpt lat="39.233034149528265" lon="16.923245163519177"><ele>153.0</ele><time>2026-03-28T14:07:38Z</time></trkpt><trkpt lat="39.23296630910197" lon="16.9233135173095"><ele>150.5</ele><time>2026-03-28T14:07:40Z</time></trkpt><trkpt lat="39.23291782468544" lon="16.923412791402452"><ele>148.0</ele><time>2026-03-28T14:07:43Z</time></trkpt><trkpt lat="39.23289426075399" lon="16.923495134197893"><ele>145.5</ele><time>2026-03-28T14:07:46Z</time></trkpt><trkpt lat="39.23287874057233" lon="16.92357391147207"><ele>143.0</ele><time>2026-03-28T14:07:49Z</time></trkpt><trkpt lat="39.232858619881604" lon="16.923658350200867"><ele>141.33333333333331</ele><time>2026-03-28T14:07:52Z</time></trkpt><trkpt lat="39.23284111626243" lon="16.92375800969168"><ele>139.66666666666666</ele><time>2026-03-28T14:07:55Z</time></trkpt><trkpt lat="39.23284625560978" lon="16.923853473668615"><ele>138.0</ele><time>2026-03-28T14:07:58Z</time></trkpt><trkpt lat="39.23284246018426" lon="16.92394882747955"><ele>136.33333333333334</ele><time>2026-03-28T14:08:01Z</time></trkpt><trkpt lat="39.23282516462272" lon="16.924049008252076"><ele>134.66666666666669</ele><time>2026-03-28T14:08:03Z</time></trkpt><trkpt lat="39.23280716773685" lon="16.924146004628508"><ele>133.0</ele><time>2026-03-28T14:08:05Z</time></trkpt><trkpt lat="39.232774015054865" lon="16.924236179549805"><ele>131.42857142857142</ele><time>2026-03-28T14:08:07Z</time></trkpt><trkpt lat="39.23273186188799" lon="16.92429674934821"><ele>129.85714285714286</ele><time>2026-03-28T14:08:13Z</time></trkpt><trkpt lat="39.23268463562301" lon="16.924358937640903"><ele>128.28571428571428</ele><time>2026-03-28T14:08:24Z</time></trkpt><trkpt lat="39.23266331132791" lon="16.924441336142547"><ele>126.71428571428571</ele><time>2026-03-28T14:08:34Z</time></trkpt><trkpt lat="39.23265273412977" lon="16.924530683817963"><ele>125.14285714285714</ele><time>2026-03-28T14:08:39Z</time></trkpt><trkpt lat="39.232664858385995" lon="16.924643455309916"><ele>123.57142857142856</ele><time>2026-03-28T14:08:43Z</time></trkpt><trkpt lat="39.23267189236031" lon="16.924735498579665"><ele>121.99999999999999</ele><time>2026-03-28T14:08:46Z</time></trkpt><trkpt lat="39.23268000754888" lon="16.924838911761476"><ele>121.99999999999999</ele><time>2026-03-28T14:08:49Z</time></trkpt><trkpt lat="39.23269827351793" lon="16.924928890545086"><ele>122.0</ele><time>2026-03-28T14:08:51Z</time></trkpt><trkpt lat="39.23270965966342" lon="16.925023036376267"><ele>122.0</ele><time>2026-03-28T14:08:53Z</time></trkpt><trkpt lat="39.23271081628202" lon="16.92512093135427"><ele>122.0</ele><time>2026-03-28T14:08:55Z</time></trkpt><trkpt lat="39.232713056725274" lon="16.92521422844184"><ele>121.99999999999999</ele><time>2026-03-28T14:08:57Z</time></trkpt><trkpt lat="39.232712387654125" lon="16.925323048985156"><ele>122.0</ele><time>2026-03-28T14:08:59Z</time></trkpt><trkpt lat="39.232711268605726" lon="16.925434772368526"><ele>121.49999999999999</ele><time>2026-03-28T14:09:01Z</time></trkpt><trkpt lat="39.23268742940497" lon="16.92552514068835"><ele>121.0</ele><time>2026-03-28T14:09:03Z</time></trkpt><trkpt lat="39.23263825054355" lon="16.925582753737988"><ele>120.5</ele><time>2026-03-28T14:09:05Z</time></trkpt><trkpt lat="39.23258607252131" lon="16.92565588813802"><ele>120.0</ele><time>2026-03-28T14:09:07Z</time></trkpt><trkpt lat="39.23252677077791" lon="16.925753687355577"><ele>119.49999999999999</ele><time>2026-03-28T14:09:09Z</time></trkpt><trkpt lat="39.232490035480126" lon="16.925876731123388"><ele>119.0</ele><time>2026-03-28T14:09:12Z</time></trkpt><trkpt lat="39.23249213178338" lon="16.92598995180474"><ele>118.0</ele><time>2026-03-28T14:09:14Z</time></trkpt><trkpt lat="39.23250165154251" lon="16.92609459384743"><ele>117.0</ele><time>2026-03-28T14:09:18Z</time></trkpt><trkpt lat="39.232494455575605" lon="16.926182561437898"><ele>116.0</ele><time>2026-03-28T14:09:21Z</time></trkpt><trkpt lat="39.232496329085535" lon="16.92629098542556"><ele>115.0</ele><time>2026-03-28T14:09:25Z</time></trkpt><trkpt lat="39.232492568701204" lon="16.926385672841437"><ele>114.0</ele><time>2026-03-28T14:09:28Z</time></trkpt><trkpt lat="39.23248359493193" lon="16.926467944042525"><ele>113.0</ele><time>2026-03-28T14:09:30Z</time></trkpt><trkpt lat="39.232464521246115" lon="16.926561070221123"><ele>112.0</ele><time>2026-03-28T14:09:32Z</time></trkpt><trkpt lat="39.23243961045588" lon="16.926667439626126"><ele>111.33333333333334</ele><time>2026-03-28T14:09:35Z</time></trkpt><trkpt lat="39.23241594141275" lon="16.92677353567505"><ele>110.66666666666667</ele><time>2026-03-28T14:09:38Z</time></trkpt><trkpt lat="39.232403882786215" lon="16.926861185364405"><ele>110.0</ele><time>2026-03-28T14:09:40Z</time></trkpt><trkpt lat="39.232384141908334" lon="16.926956257924953"><ele>109.33333333333334</ele><time>2026-03-28T14:09:43Z</time></trkpt><trkpt lat="39.23236907888012" lon="16.927039682999403"><ele>108.66666666666667</ele><time>2026-03-28T14:09:46Z</time></trkpt><trkpt lat="39.232345265651304" lon="16.92713090957524"><ele>108.0</ele><time>2026-03-28T14:09:49Z</time></trkpt><trkpt lat="39.23233690303053" lon="16.92724118536031"><ele>108.0</ele><time>2026-03-28T14:09:51Z</time></trkpt><trkpt lat="39.23232000399938" lon="16.9273475478219"><ele>108.0</ele><time>2026-03-28T14:09:53Z</time></trkpt><trkpt lat="39.23231135470187" lon="16.927443366279018"><ele>108.0</ele><time>2026-03-28T14:09:55Z</time></trkpt><trkpt lat="39.23234602781129" lon="16.927550055285945"><ele>108.0</ele><time>2026-03-28T14:09:57Z</time></trkpt><trkpt lat="39.232416013941034" lon="16.92761410472056"><ele>108.0</ele><time>2026-03-28T14:09:59Z</time></trkpt><trkpt lat="39.2324103195296" lon="16.92770049365599"><ele>108.0</ele><time>2026-03-28T14:10:01Z</time></trkpt><trkpt lat="39.2323416705996" lon="16.92771525052733"><ele>108.28571428571428</ele><time>2026-03-28T14:10:03Z</time></trkpt><trkpt lat="39.23227164512663" lon="16.927697409357"><ele>108.57142857142857</ele><time>2026-03-28T14:10:05Z</time></trkpt><trkpt lat="39.232201467831985" lon="16.92767985669923"><ele>108.85714285714286</ele><time>2026-03-28T14:10:08Z</time></trkpt><trkpt lat="39.232136649121365" lon="16.927687998362106"><ele>109.14285714285714</ele><time>2026-03-28T14:10:16Z</time></trkpt><trkpt lat="39.23207868843952" lon="16.927729125130092"><ele>109.42857142857143</ele><time>2026-03-28T14:10:21Z</time></trkpt><trkpt lat="39.23200724229504" lon="16.92778436580239"><ele>109.71428571428571</ele><time>2026-03-28T14:10:26Z</time></trkpt><trkpt lat="39.23192239721104" lon="16.927797455617494"><ele>110.0</ele><time>2026-03-28T14:10:29Z</time></trkpt><trkpt lat="39.23182883794036" lon="16.927776623851976"><ele>109.99999999999999</ele><time>2026-03-28T14:10:32Z</time></trkpt><trkpt lat="39.231747369436164" lon="16.92774784514954"><ele>110.0</ele><time>2026-03-28T14:10:35Z</time></trkpt><trkpt lat="39.231676949973846" lon="16.927729411090862"><ele>110.0</ele><time>2026-03-28T14:10:38Z</time></trkpt><trkpt lat="39.231601480715874" lon="16.927709513260847"><ele>110.0</ele><time>2026-03-28T14:10:42Z</time></trkpt><trkpt lat="39.23153239071673" lon="16.92766333257298"><ele>109.99999999999999</ele><time>2026-03-28T14:10:46Z</time></trkpt><trkpt lat="39.23146206342505" lon="16.927632263845695"><ele>110.0</ele><time>2026-03-28T14:10:50Z</time></trkpt><trkpt lat="39.23139086795663" lon="16.927603863485214"><ele>108.66666666666666</ele><time>2026-03-28T14:10:53Z</time></trkpt><trkpt lat="39.23130726845153" lon="16.92758051337509"><ele>107.33333333333333</ele><time>2026-03-28T14:10:55Z</time></trkpt><trkpt lat="39.23119564768531" lon="16.927578188125587"><ele>106.0</ele><time>2026-03-28T14:10:57Z</time></trkpt><trkpt lat="39.23114142147998" lon="16.927624334011654"><ele>104.66666666666666</ele><time>2026-03-28T14:10:58Z</time></trkpt><trkpt lat="39.23110497794147" lon="16.927705650900055"><ele>103.33333333333333</ele><time>2026-03-28T14:10:59Z</time></trkpt><trkpt lat="39.2310650898768" lon="16.92781835224926"><ele>102.0</ele><time>2026-03-28T14:11:00Z</time></trkpt><trkpt lat="39.231017724195866" lon="16.927872056673728"><ele>102.0</ele><time>2026-03-28T14:11:01Z</time></trkpt><trkpt lat="39.23095055602418" lon="16.927954879657296"><ele>102.0</ele><time>2026-03-28T14:11:03Z</time></trkpt><trkpt lat="39.23089678174828" lon="16.92809119065153"><ele>102.0</ele><time>2026-03-28T14:11:05Z</time></trkpt><trkpt lat="39.23085935899608" lon="16.928212326493878"><ele>102.0</ele><time>2026-03-28T14:11:07Z</time></trkpt><trkpt lat="39.23085851709916" lon="16.928371284976773"><ele>102.0</ele><time>2026-03-28T14:11:09Z</time></trkpt><trkpt lat="39.23086773347834" lon="16.92847584628062"><ele>102.83333333333333</ele><time>2026-03-28T14:11:10Z</time></trkpt><trkpt lat="39.23088623393261" lon="16.928570126380688"><ele>103.66666666666666</ele><time>2026-03-28T14:11:11Z</time></trkpt><trkpt lat="39.23091947750374" lon="16.928673932846646"><ele>104.5</ele><time>2026-03-28T14:11:12Z</time></trkpt><trkpt lat="39.23096119483132" lon="16.92877297208434"><ele>105.33333333333333</ele><time>2026-03-28T14:11:13Z</time></trkpt><trkpt lat="39.23096749538508" lon="16.92888466288576"><ele>106.16666666666666</ele><time>2026-03-28T14:11:14Z</time></trkpt><trkpt lat="39.230956720695" lon="16.929004866130306"><ele>107.0</ele><time>2026-03-28T14:11:15Z</time></trkpt><trkpt lat="39.230943987835644" lon="16.929105384644426"><ele>107.0</ele><time>2026-03-28T14:11:16Z</time></trkpt><trkpt lat="39.230941837982456" lon="16.9292100763289"><ele>106.99999999999999</ele><time>2026-03-28T14:11:17Z</time></trkpt><trkpt lat="39.23095625016291" lon="16.92933016329027"><ele>106.99999999999999</ele><time>2026-03-28T14:11:18Z</time></trkpt><trkpt lat="39.23096937392183" lon="16.92945070474122"><ele>107.0</ele><time>2026-03-28T14:11:19Z</time></trkpt><trkpt lat="39.23099146457285" lon="16.929582073830343"><ele>107.0</ele><time>2026-03-28T14:11:20Z</time></trkpt><trkpt lat="39.23101713157973" lon="16.929695238045124"><ele>105.99999999999999</ele><time>2026-03-28T14:11:21Z</time></trkpt><trkpt lat="39.23105290176152" lon="16.929795870909707"><ele>105.0</ele><time>2026-03-28T14:11:22Z</time></trkpt><trkpt lat="39.231096660667326" lon="16.92988567723462"><ele>104.0</ele><time>2026-03-28T14:11:23Z</time></trkpt><trkpt lat="39.23113600489671" lon="16.929953197462716"><ele>103.0</ele><time>2026-03-28T14:11:24Z</time></trkpt><trkpt lat="39.23119550622161" lon="16.930048691617273"><ele>101.99999999999999</ele><time>2026-03-28T14:11:26Z</time></trkpt><trkpt lat="39.231260183918565" lon="16.930175581031268"><ele>101.0</ele><time>2026-03-28T14:11:28Z</time></trkpt><trkpt lat="39.231297931852055" lon="16.93024204818733"><ele>100.33333333333333</ele><time>2026-03-28T14:11:29Z</time></trkpt><trkpt lat="39.23137574192836" lon="16.93037510091518"><ele>99.66666666666666</ele><time>2026-03-28T14:11:31Z</time></trkpt><trkpt lat="39.23141349820462" lon="16.9304430962282"><ele>99.0</ele><time>2026-03-28T14:11:32Z</time></trkpt><trkpt lat="39.23145723003369" lon="16.930511303021962"><ele>98.33333333333334</ele><time>2026-03-28T14:11:33Z</time></trkpt><trkpt lat="39.231497098484105" lon="16.93057918416055"><ele>97.66666666666667</ele><time>2026-03-28T14:11:34Z</time></trkpt><trkpt lat="39.23153755324313" lon="16.930649412682023"><ele>97.0</ele><time>2026-03-28T14:11:35Z</time></trkpt><trkpt lat="39.231574298408134" lon="16.930725500639802"><ele>97.85714285714285</ele><time>2026-03-28T14:11:36Z</time></trkpt><trkpt lat="39.23160853007486" lon="16.930809315206744"><ele>98.71428571428572</ele><time>2026-03-28T14:11:37Z</time></trkpt><trkpt lat="39.231637675711525" lon="16.930900807818418"><ele>99.57142857142857</ele><time>2026-03-28T14:11:38Z</time></trkpt><trkpt lat="39.23166662787464" lon="16.930988594499258"><ele>100.42857142857142</ele><time>2026-03-28T14:11:39Z</time></trkpt><trkpt lat="39.23171123662401" lon="16.931067031386775"><ele>101.28571428571428</ele><time>2026-03-28T14:11:40Z</time></trkpt><trkpt lat="39.231760203788106" lon="16.931155950692794"><ele>102.14285714285714</ele><time>2026-03-28T14:11:41Z</time></trkpt><trkpt lat="39.23179819270355" lon="16.931223551147642"><ele>103.0</ele><time>2026-03-28T14:11:42Z</time></trkpt><trkpt lat="39.231869967694834" lon="16.931342923066424"><ele>103.0</ele><time>2026-03-28T14:11:44Z</time></trkpt><trkpt lat="39.23191544994179" lon="16.931425146884923"><ele>103.0</ele><time>2026-03-28T14:11:45Z</time></trkpt><trkpt lat="39.23195467265412" lon="16.931568064984674"><ele>103.0</ele><time>2026-03-28T14:11:47Z</time></trkpt><trkpt lat="39.23195654625365" lon="16.931650788445932"><ele>103.0</ele><time>2026-03-28T14:11:48Z</time></trkpt><trkpt lat="39.23195064299134" lon="16.93176212170471"><ele>103.0</ele><time>2026-03-28T14:11:50Z</time></trkpt><trkpt lat="39.2319366434611" lon="16.93193957498924"><ele>102.5</ele><time>2026-03-28T14:11:57Z</time></trkpt><trkpt lat="39.23191629228141" lon="16.93208669982995"><ele>102.0</ele><time>2026-03-28T14:11:58Z</time></trkpt><trkpt lat="39.23190384110782" lon="16.93225474493703"><ele>101.5</ele><time>2026-03-28T14:11:59Z</time></trkpt><trkpt lat="39.23189845229971" lon="16.932414111506734"><ele>101.0</ele><time>2026-03-28T14:12:00Z</time></trkpt><trkpt lat="39.23190647212546" lon="16.932557144676846"><ele>100.99999999999999</ele><time>2026-03-28T14:12:01Z</time></trkpt><trkpt lat="39.23192551713427" lon="16.93267890706661"><ele>101.0</ele><time>2026-03-28T14:12:02Z</time></trkpt><trkpt lat="39.231949741320484" lon="16.932789115276943"><ele>101.0</ele><time>2026-03-28T14:12:03Z</time></trkpt><trkpt lat="39.23198070536686" lon="16.932885302723477"><ele>101.0</ele><time>2026-03-28T14:12:04Z</time></trkpt><trkpt lat="39.23200925983654" lon="16.932959627382637"><ele>100.99999999999999</ele><time>2026-03-28T14:12:05Z</time></trkpt><trkpt lat="39.23202403994166" lon="16.933039299379356"><ele>101.0</ele><time>2026-03-28T14:12:06Z</time></trkpt><trkpt lat="39.23202006856496" lon="16.933144423319682"><ele>101.0</ele><time>2026-03-28T14:12:07Z</time></trkpt><trkpt lat="39.23198596891532" lon="16.93325800607792"><ele>101.0</ele><time>2026-03-28T14:12:08Z</time></trkpt><trkpt lat="39.23195648449099" lon="16.933380987686764"><ele>101.0</ele><time>2026-03-28T14:12:09Z</time></trkpt><trkpt lat="39.23193041611443" lon="16.933474645326218"><ele>101.0</ele><time>2026-03-28T14:12:10Z</time></trkpt><trkpt lat="39.2318903979619" lon="16.933583757826543"><ele>101.0</ele><time>2026-03-28T14:12:11Z</time></trkpt><trkpt lat="39.23183462110139" lon="16.933687824021078"><ele>100.5</ele><time>2026-03-28T14:12:12Z</time></trkpt><trkpt lat="39.23175904023142" lon="16.933782748689765"><ele>100.0</ele><time>2026-03-28T14:12:13Z</time></trkpt><trkpt lat="39.231668275160644" lon="16.93388490490688"><ele>99.5</ele><time>2026-03-28T14:12:14Z</time></trkpt><trkpt lat="39.231575423450074" lon="16.934009183593194"><ele>99.0</ele><time>2026-03-28T14:12:15Z</time></trkpt><trkpt lat="39.23150454009251" lon="16.93412279052278"><ele>98.0</ele><time>2026-03-28T14:12:16Z</time></trkpt><trkpt lat="39.23144527615062" lon="16.934217484466572"><ele>97.0</ele><time>2026-03-28T14:12:17Z</time></trkpt><trkpt lat="39.23139518765703" lon="16.93430388165963"><ele>96.0</ele><time>2026-03-28T14:12:18Z</time></trkpt><trkpt lat="39.231350909464375" lon="16.934392787824866"><ele>95.0</ele><time>2026-03-28T14:12:19Z</time></trkpt><trkpt lat="39.23130623480384" lon="16.93449479064751"><ele>94.0</ele><time>2026-03-28T14:12:20Z</time></trkpt><trkpt lat="39.231270278252985" lon="16.93459321998958"><ele>93.0</ele><time>2026-03-28T14:12:21Z</time></trkpt><trkpt lat="39.231240944568775" lon="16.934688097101404"><ele>93.0</ele><time>2026-03-28T14:12:22Z</time></trkpt><trkpt lat="39.2312135817405" lon="16.934779530314664"><ele>93.0</ele><time>2026-03-28T14:12:23Z</time></trkpt><trkpt lat="39.23118813266581" lon="16.934874784915195"><ele>93.0</ele><time>2026-03-28T14:12:24Z</time></trkpt><trkpt lat="39.23117250277259" lon="16.934968895642275"><ele>93.0</ele><time>2026-03-28T14:12:25Z</time></trkpt><trkpt lat="39.231158417174484" lon="16.935070585964535"><ele>93.0</ele><time>2026-03-28T14:12:26Z</time></trkpt><trkpt lat="39.2311457965566" lon="16.935170759960297"><ele>93.0</ele><time>2026-03-28T14:12:27Z</time></trkpt><trkpt lat="39.23113012049652" lon="16.935253004285546"><ele>93.2</ele><time>2026-03-28T14:12:28Z</time></trkpt><trkpt lat="39.23105111847768" lon="16.935395247064662"><ele>93.4</ele><time>2026-03-28T14:12:30Z</time></trkpt><trkpt lat="39.230957575947855" lon="16.935468131554497"><ele>93.60000000000001</ele><time>2026-03-28T14:12:31Z</time></trkpt><trkpt lat="39.2308961275084" lon="16.93553726043855"><ele>93.80000000000001</ele><time>2026-03-28T14:12:32Z</time></trkpt><trkpt lat="39.23084816094592" lon="16.935614945075944"><ele>94.0</ele><time>2026-03-28T14:12:33Z</time></trkpt><trkpt lat="39.230803523493265" lon="16.93570343252892"><ele>94.0</ele><time>2026-03-28T14:12:34Z</time></trkpt><trkpt lat="39.230759333251775" lon="16.935793033625995"><ele>94.0</ele><time>2026-03-28T14:12:35Z</time></trkpt><trkpt lat="39.23071750545642" lon="16.935874754279507"><ele>94.0</ele><time>2026-03-28T14:12:36Z</time></trkpt><trkpt lat="39.230663101584106" lon="16.935979920554566"><ele>94.0</ele><time>2026-03-28T14:12:38Z</time></trkpt><trkpt lat="39.23061814893743" lon="16.936069240169285"><ele>94.0</ele><time>2026-03-28T14:12:40Z</time></trkpt><trkpt lat="39.23056644827222" lon="16.93616889864984"><ele>94.0</ele><time>2026-03-28T14:12:42Z</time></trkpt><trkpt lat="39.230518935859756" lon="16.936261349342058"><ele>93.6</ele><time>2026-03-28T14:12:44Z</time></trkpt><trkpt lat="39.23047317444646" lon="16.936351825775798"><ele>93.2</ele><time>2026-03-28T14:12:47Z</time></trkpt><trkpt lat="39.23041934453258" lon="16.93646607215866"><ele>92.8</ele><time>2026-03-28T14:12:49Z</time></trkpt><trkpt lat="39.23035433916056" lon="16.936602478430785"><ele>92.39999999999999</ele><time>2026-03-28T14:12:51Z</time></trkpt><trkpt lat="39.2303119273983" lon="16.936673655630713"><ele>92.0</ele><time>2026-03-28T14:12:52Z</time></trkpt><trkpt lat="39.23025888270664" lon="16.93676752138942"><ele>92.0</ele><time>2026-03-28T14:12:53Z</time></trkpt><trkpt lat="39.23020015762889" lon="16.93691127717668"><ele>92.0</ele><time>2026-03-28T14:12:54Z</time></trkpt><trkpt lat="39.23012115240406" lon="16.937069548134332"><ele>92.0</ele><time>2026-03-28T14:12:55Z</time></trkpt><trkpt lat="39.230038303702806" lon="16.937235319234087"><ele>92.0</ele><time>2026-03-28T14:12:56Z</time></trkpt><trkpt lat="39.22997376039907" lon="16.93737469285241"><ele>92.0</ele><time>2026-03-28T14:12:57Z</time></trkpt><trkpt lat="39.229913467180126" lon="16.93749944435401"><ele>92.0</ele><time>2026-03-28T14:12:58Z</time></trkpt><trkpt lat="39.229862380862194" lon="16.93759916311541"><ele>92.0</ele><time>2026-03-28T14:12:59Z</time></trkpt><trkpt lat="39.22981577388261" lon="16.937683725759438"><ele>92.0</ele><time>2026-03-28T14:13:00Z</time></trkpt><trkpt lat="39.22977948343158" lon="16.937757092664075"><ele>92.0</ele><time>2026-03-28T14:13:01Z</time></trkpt><trkpt lat="39.2297447647858" lon="16.93783429881187"><ele>92.0</ele><time>2026-03-28T14:13:02Z</time></trkpt><trkpt lat="39.22970039370724" lon="16.937941575458442"><ele>92.0</ele><time>2026-03-28T14:13:03Z</time></trkpt><trkpt lat="39.22962386437415" lon="16.938067230981463"><ele>92.0</ele><time>2026-03-28T14:13:04Z</time></trkpt><trkpt lat="39.22953936921272" lon="16.93816134437612"><ele>92.0</ele><time>2026-03-28T14:13:05Z</time></trkpt><trkpt lat="39.22945498968113" lon="16.93823004095805"><ele>92.0</ele><time>2026-03-28T14:13:06Z</time></trkpt><trkpt lat="39.22937392524559" lon="16.938282764910227"><ele>92.0</ele><time>2026-03-28T14:13:07Z</time></trkpt><trkpt lat="39.22928056979467" lon="16.938344145371087"><ele>90.39999999999999</ele><time>2026-03-28T14:13:08Z</time></trkpt><trkpt lat="39.229183545582394" lon="16.938409530803025"><ele>88.8</ele><time>2026-03-28T14:13:09Z</time></trkpt><trkpt lat="39.22908017725632" lon="16.938485103360133"><ele>87.2</ele><time>2026-03-28T14:13:10Z</time></trkpt><trkpt lat="39.22899080915843" lon="16.938563870579895"><ele>85.6</ele><time>2026-03-28T14:13:11Z</time></trkpt><trkpt lat="39.228922022916684" lon="16.938647227722967"><ele>84.0</ele><time>2026-03-28T14:13:12Z</time></trkpt><trkpt lat="39.22888153380542" lon="16.93875289581188"><ele>84.0</ele><time>2026-03-28T14:13:13Z</time></trkpt><trkpt lat="39.22886441761006" lon="16.938868757174838"><ele>84.0</ele><time>2026-03-28T14:13:14Z</time></trkpt><trkpt lat="39.22885164137443" lon="16.938979880938685"><ele>84.0</ele><time>2026-03-28T14:13:15Z</time></trkpt><trkpt lat="39.228837219055535" lon="16.939098504942226"><ele>84.0</ele><time>2026-03-28T14:13:16Z</time></trkpt><trkpt lat="39.22882271689472" lon="16.939220089208206"><ele>84.0</ele><time>2026-03-28T14:13:17Z</time></trkpt><trkpt lat="39.22881429646344" lon="16.93933286827357"><ele>84.0</ele><time>2026-03-28T14:13:18Z</time></trkpt><trkpt lat="39.22880461335686" lon="16.939438561588506"><ele>84.0</ele><time>2026-03-28T14:13:19Z</time></trkpt><trkpt lat="39.22879528155692" lon="16.93954238272804"><ele>84.0</ele><time>2026-03-28T14:13:20Z</time></trkpt><trkpt lat="39.228785879213724" lon="16.939644624173955"><ele>84.0</ele><time>2026-03-28T14:13:21Z</time></trkpt><trkpt lat="39.22877779168295" lon="16.93974534418409"><ele>84.0</ele><time>2026-03-28T14:13:22Z</time></trkpt><trkpt lat="39.22876818714198" lon="16.93984404265209"><ele>84.0</ele><time>2026-03-28T14:13:23Z</time></trkpt><trkpt lat="39.228758992484565" lon="16.93995002942138"><ele>83.66666666666667</ele><time>2026-03-28T14:13:24Z</time></trkpt><trkpt lat="39.228749777616294" lon="16.940059552164453"><ele>83.33333333333333</ele><time>2026-03-28T14:13:25Z</time></trkpt><trkpt lat="39.22874115159767" lon="16.94017000380489"><ele>83.0</ele><time>2026-03-28T14:13:26Z</time></trkpt><trkpt lat="39.228732384176695" lon="16.940282686341952"><ele>82.66666666666666</ele><time>2026-03-28T14:13:27Z</time></trkpt><trkpt lat="39.228725811962846" lon="16.94039878262029"><ele>82.33333333333333</ele><time>2026-03-28T14:13:28Z</time></trkpt><trkpt lat="39.22871844438807" lon="16.940512750997584"><ele>82.0</ele><time>2026-03-28T14:13:29Z</time></trkpt><trkpt lat="39.228715223962844" lon="16.94062076856019"><ele>82.0</ele><time>2026-03-28T14:13:30Z</time></trkpt><trkpt lat="39.228714602237055" lon="16.94073543292116"><ele>82.0</ele><time>2026-03-28T14:13:31Z</time></trkpt><trkpt lat="39.22871223372759" lon="16.940850520727228"><ele>82.0</ele><time>2026-03-28T14:13:32Z</time></trkpt><trkpt lat="39.22871147687276" lon="16.94095661037785"><ele>82.0</ele><time>2026-03-28T14:13:33Z</time></trkpt><trkpt lat="39.228709738255304" lon="16.941051096175176"><ele>82.0</ele><time>2026-03-28T14:13:34Z</time></trkpt><trkpt lat="39.22870636164312" lon="16.94113744345624"><ele>82.0</ele><time>2026-03-28T14:13:35Z</time></trkpt><trkpt lat="39.22869041219592" lon="16.941278906527884"><ele>82.19999999999999</ele><time>2026-03-28T14:13:37Z</time></trkpt><trkpt lat="39.22872927360357" lon="16.941353721469884"><ele>82.4</ele><time>2026-03-28T14:13:39Z</time></trkpt><trkpt lat="39.22882990398691" lon="16.941410092264636"><ele>82.6</ele><time>2026-03-28T14:13:41Z</time></trkpt><trkpt lat="39.228921308814435" lon="16.94148682558745"><ele>82.80000000000001</ele><time>2026-03-28T14:13:43Z</time></trkpt><trkpt lat="39.22902994253584" lon="16.941546848236253"><ele>83.0</ele><time>2026-03-28T14:13:45Z</time></trkpt><trkpt lat="39.229139680029924" lon="16.94159197951401"><ele>83.0</ele><time>2026-03-28T14:13:47Z</time></trkpt><trkpt lat="39.22921321217641" lon="16.941628866285566"><ele>83.0</ele><time>2026-03-28T14:13:50Z</time></trkpt><trkpt lat="39.229288686353875" lon="16.941676562034157"><ele>83.0</ele><time>2026-03-28T14:13:55Z</time></trkpt><trkpt lat="39.22935162641225" lon="16.941724598022326"><ele>83.0</ele><time>2026-03-28T14:13:58Z</time></trkpt><trkpt lat="39.229418942971996" lon="16.94179194030949"><ele>83.0</ele><time>2026-03-28T14:14:01Z</time></trkpt><trkpt lat="39.22947482733046" lon="16.94185764125425"><ele>83.0</ele><time>2026-03-28T14:14:03Z</time></trkpt><trkpt lat="39.229528337839234" lon="16.94193836531864"><ele>83.66666666666667</ele><time>2026-03-28T14:14:05Z</time></trkpt><trkpt lat="39.229573813166176" lon="16.942002197861026"><ele>84.33333333333334</ele><time>2026-03-28T14:14:07Z</time></trkpt><trkpt lat="39.22961330539987" lon="16.94208964074653"><ele>85.0</ele><time>2026-03-28T14:14:09Z</time></trkpt><trkpt lat="39.22967732456261" lon="16.942192549852642"><ele>85.66666666666667</ele><time>2026-03-28T14:14:11Z</time></trkpt><trkpt lat="39.22971449377504" lon="16.942276249480784"><ele>86.33333333333333</ele><time>2026-03-28T14:14:14Z</time></trkpt><trkpt lat="39.22975059223626" lon="16.942352220498147"><ele>87.0</ele><time>2026-03-28T14:14:17Z</time></trkpt><trkpt lat="39.22979411475702" lon="16.942422220966197"><ele>87.16666666666667</ele><time>2026-03-28T14:14:19Z</time></trkpt><trkpt lat="39.22982183266949" lon="16.942495478552242"><ele>87.33333333333333</ele><time>2026-03-28T14:14:21Z</time></trkpt><trkpt lat="39.22985931337293" lon="16.94260502906538"><ele>87.5</ele><time>2026-03-28T14:14:23Z</time></trkpt><trkpt lat="39.22991710786333" lon="16.942709835701454"><ele>87.66666666666666</ele><time>2026-03-28T14:14:25Z</time></trkpt><trkpt lat="39.229976610163504" lon="16.942760676937013"><ele>87.83333333333333</ele><time>2026-03-28T14:14:26Z</time></trkpt><trkpt lat="39.23004176947534" lon="16.942821365674412"><ele>88.0</ele><time>2026-03-28T14:14:27Z</time></trkpt><trkpt lat="39.23009806250103" lon="16.942903250956423"><ele>88.66666666666666</ele><time>2026-03-28T14:14:28Z</time></trkpt><trkpt lat="39.23015542520783" lon="16.94295563881871"><ele>89.33333333333333</ele><time>2026-03-28T14:14:29Z</time></trkpt><trkpt lat="39.230244592130575" lon="16.94301549748009"><ele>90.0</ele><time>2026-03-28T14:14:31Z</time></trkpt><trkpt lat="39.230313313254904" lon="16.943058525060874"><ele>90.66666666666667</ele><time>2026-03-28T14:14:33Z</time></trkpt><trkpt lat="39.230382305825984" lon="16.94309852222008"><ele>91.33333333333334</ele><time>2026-03-28T14:14:35Z</time></trkpt><trkpt lat="39.23044519461859" lon="16.943140509693286"><ele>92.0</ele><time>2026-03-28T14:14:37Z</time></trkpt><trkpt lat="39.23050381717059" lon="16.9432076509882"><ele>92.0</ele><time>2026-03-28T14:14:39Z</time></trkpt><trkpt lat="39.23054711038591" lon="16.94331493091083"><ele>92.0</ele><time>2026-03-28T14:14:41Z</time></trkpt><trkpt lat="39.23059076173548" lon="16.94343359922907"><ele>92.0</ele><time>2026-03-28T14:14:43Z</time></trkpt><trkpt lat="39.23064162067829" lon="16.94357558025008"><ele>92.0</ele><time>2026-03-28T14:14:45Z</time></trkpt><trkpt lat="39.23068325641161" lon="16.943699747532204"><ele>92.0</ele><time>2026-03-28T14:14:47Z</time></trkpt><trkpt lat="39.23073805507625" lon="16.94382234409473"><ele>93.0</ele><time>2026-03-28T14:14:49Z</time></trkpt><trkpt lat="39.23080419062571" lon="16.943908743843316"><ele>94.0</ele><time>2026-03-28T14:14:51Z</time></trkpt><trkpt lat="39.23086299972272" lon="16.943964646645654"><ele>95.0</ele><time>2026-03-28T14:14:53Z</time></trkpt><trkpt lat="39.23092303008223" lon="16.944020183347966"><ele>96.0</ele><time>2026-03-28T14:14:56Z</time></trkpt><trkpt lat="39.23100367077873" lon="16.944069041475256"><ele>96.99999999999999</ele><time>2026-03-28T14:14:58Z</time></trkpt><trkpt lat="39.231099241238276" lon="16.944133571204286"><ele>98.0</ele><time>2026-03-28T14:15:00Z</time></trkpt><trkpt lat="39.23115145398627" lon="16.944190608791565"><ele>100.5</ele><time>2026-03-28T14:15:01Z</time></trkpt><trkpt lat="39.23121406105215" lon="16.944270403424177"><ele>103.0</ele><time>2026-03-28T14:15:02Z</time></trkpt><trkpt lat="39.23127546362268" lon="16.94439158719194"><ele>105.5</ele><time>2026-03-28T14:15:03Z</time></trkpt><trkpt lat="39.23132555484594" lon="16.94454648588557"><ele>108.0</ele><time>2026-03-28T14:15:04Z</time></trkpt><trkpt lat="39.23137950146738" lon="16.944714253554594"><ele>108.0</ele><time>2026-03-28T14:15:05Z</time></trkpt><trkpt lat="39.23142364628311" lon="16.944851318426675"><ele>108.00000000000001</ele><time>2026-03-28T14:15:06Z</time></trkpt><trkpt lat="39.231464719617996" lon="16.94493118920361"><ele>108.00000000000001</ele><time>2026-03-28T14:15:07Z</time></trkpt><trkpt lat="39.231530794734724" lon="16.945047430463614"><ele>108.0</ele><time>2026-03-28T14:15:09Z</time></trkpt><trkpt lat="39.23157797101224" lon="16.945121932759687"><ele>108.0</ele><time>2026-03-28T14:15:11Z</time></trkpt><trkpt lat="39.231642758339945" lon="16.94519667986193"><ele>108.0</ele><time>2026-03-28T14:15:14Z</time></trkpt><trkpt lat="39.23172266021292" lon="16.94527777840882"><ele>108.00000000000001</ele><time>2026-03-28T14:15:16Z</time></trkpt><trkpt lat="39.23180729703475" lon="16.945388458962753"><ele>108.00000000000001</ele><time>2026-03-28T14:15:18Z</time></trkpt><trkpt lat="39.23193013501896" lon="16.945474151026833"><ele>108.0</ele><time>2026-03-28T14:15:20Z</time></trkpt><trkpt lat="39.231997494965015" lon="16.945497274031716"><ele>108.0</ele><time>2026-03-28T14:15:21Z</time></trkpt><trkpt lat="39.23210678127987" lon="16.94553609050945"><ele>108.0</ele><time>2026-03-28T14:15:23Z</time></trkpt><trkpt lat="39.23222797064513" lon="16.945582774518904"><ele>108.0</ele><time>2026-03-28T14:15:25Z</time></trkpt><trkpt lat="39.23230866882507" lon="16.9456259795224"><ele>108.0</ele><time>2026-03-28T14:15:27Z</time></trkpt><trkpt lat="39.232371630399854" lon="16.94564262491459"><ele>108.0</ele><time>2026-03-28T14:15:29Z</time></trkpt><trkpt lat="39.232455906467955" lon="16.945670410267216"><ele>108.0</ele><time>2026-03-28T14:15:31Z</time></trkpt><trkpt lat="39.23252020809525" lon="16.945686110691035"><ele>108.0</ele><time>2026-03-28T14:15:32Z</time></trkpt><trkpt lat="39.23258222499234" lon="16.94570274169234"><ele>107.4</ele><time>2026-03-28T14:15:33Z</time></trkpt><trkpt lat="39.232689533373545" lon="16.945724403494314"><ele>106.80000000000001</ele><time>2026-03-28T14:15:35Z</time></trkpt><trkpt lat="39.23278981287765" lon="16.945741426074193"><ele>106.2</ele><time>2026-03-28T14:15:37Z</time></trkpt><trkpt lat="39.23290911024715" lon="16.945776877858222"><ele>105.6</ele><time>2026-03-28T14:15:39Z</time></trkpt><trkpt lat="39.23297001394879" lon="16.945807742214896"><ele>105.0</ele><time>2026-03-28T14:15:40Z</time></trkpt><trkpt lat="39.233078554198684" lon="16.945835728927204"><ele>105.66666666666667</ele><time>2026-03-28T14:15:42Z</time></trkpt><trkpt lat="39.23314050259805" lon="16.945860702494475"><ele>106.33333333333334</ele><time>2026-03-28T14:15:44Z</time></trkpt><trkpt lat="39.2332191031626" lon="16.945884013310252"><ele>107.0</ele><time>2026-03-28T14:15:49Z</time></trkpt><trkpt lat="39.23329286824504" lon="16.945897838669875"><ele>107.66666666666667</ele><time>2026-03-28T14:15:54Z</time></trkpt><trkpt lat="39.23335763147583" lon="16.945919769483762"><ele>108.33333333333334</ele><time>2026-03-28T14:15:58Z</time></trkpt><trkpt lat="39.233432805781206" lon="16.945953963165834"><ele>109.0</ele><time>2026-03-28T14:16:01Z</time></trkpt><trkpt lat="39.23352426716277" lon="16.945992423837797"><ele>110.66666666666667</ele><time>2026-03-28T14:16:03Z</time></trkpt><trkpt lat="39.233631149559" lon="16.946037247734342"><ele>112.33333333333334</ele><time>2026-03-28T14:16:05Z</time></trkpt><trkpt lat="39.23369439226003" lon="16.946065426627865"><ele>114.0</ele><time>2026-03-28T14:16:06Z</time></trkpt><trkpt lat="39.23376459783872" lon="16.946098248726603"><ele>115.66666666666666</ele><time>2026-03-28T14:16:07Z</time></trkpt><trkpt lat="39.2338292275234" lon="16.94613564436136"><ele>117.33333333333333</ele><time>2026-03-28T14:16:08Z</time></trkpt><trkpt lat="39.233934233743625" lon="16.946191138033242"><ele>119.0</ele><time>2026-03-28T14:16:10Z</time></trkpt><trkpt lat="39.2340237295143" lon="16.946233203675472"><ele>118.99999999999999</ele><time>2026-03-28T14:16:12Z</time></trkpt><trkpt lat="39.234105118104566" lon="16.94626166253915"><ele>119.0</ele><time>2026-03-28T14:16:14Z</time></trkpt><trkpt lat="39.234203787648575" lon="16.946271181541466"><ele>119.0</ele><time>2026-03-28T14:16:16Z</time></trkpt><trkpt lat="39.23427244745308" lon="16.946239597206578"><ele>119.0</ele><time>2026-03-28T14:16:18Z</time></trkpt><trkpt lat="39.23434383982253" lon="16.94620491509869"><ele>118.99999999999999</ele><time>2026-03-28T14:16:20Z</time></trkpt><trkpt lat="39.234407186155636" lon="16.94617659409116"><ele>119.0</ele><time>2026-03-28T14:16:21Z</time></trkpt><trkpt lat="39.23447420540355" lon="16.946150350893742"><ele>118.99999999999999</ele><time>2026-03-28T14:16:22Z</time></trkpt><trkpt lat="39.23454758784005" lon="16.94611448277713"><ele>119.0</ele><time>2026-03-28T14:16:23Z</time></trkpt><trkpt lat="39.234622718183" lon="16.946068968135197"><ele>119.0</ele><time>2026-03-28T14:16:24Z</time></trkpt><trkpt lat="39.23470229903365" lon="16.946017166806307"><ele>119.0</ele><time>2026-03-28T14:16:25Z</time></trkpt><trkpt lat="39.23478641475882" lon="16.945969236937565"><ele>118.99999999999999</ele><time>2026-03-28T14:16:26Z</time></trkpt><trkpt lat="39.23485880741615" lon="16.945931807061896"><ele>119.0</ele><time>2026-03-28T14:16:27Z</time></trkpt><trkpt lat="39.23492016238175" lon="16.945889941126833"><ele>119.49999999999999</ele><time>2026-03-28T14:16:28Z</time></trkpt><trkpt lat="39.23496536268928" lon="16.945820683513336"><ele>120.0</ele><time>2026-03-28T14:16:29Z</time></trkpt><trkpt lat="39.23501822633049" lon="16.94576276046729"><ele>120.5</ele><time>2026-03-28T14:16:30Z</time></trkpt><trkpt lat="39.235087022050365" lon="16.945744558711272"><ele>121.0</ele><time>2026-03-28T14:16:31Z</time></trkpt><trkpt lat="39.23518464515778" lon="16.945712579246877"><ele>121.49999999999999</ele><time>2026-03-28T14:16:32Z</time></trkpt><trkpt lat="39.235300100374616" lon="16.945728382949085"><ele>122.0</ele><time>2026-03-28T14:16:33Z</time></trkpt><trkpt lat="39.235411426838716" lon="16.945755814869116"><ele>121.99999999999999</ele><time>2026-03-28T14:16:34Z</time></trkpt><trkpt lat="39.235514230895895" lon="16.945767752010948"><ele>122.0</ele><time>2026-03-28T14:16:35Z</time></trkpt><trkpt lat="39.23560552985079" lon="16.94576535963224"><ele>122.0</ele><time>2026-03-28T14:16:36Z</time></trkpt><trkpt lat="39.235690378434576" lon="16.94579765206048"><ele>122.0</ele><time>2026-03-28T14:16:37Z</time></trkpt><trkpt lat="39.23575531358341" lon="16.945830729301075"><ele>121.99999999999999</ele><time>2026-03-28T14:16:38Z</time></trkpt><trkpt lat="39.235838149941486" lon="16.94587551200991"><ele>122.0</ele><time>2026-03-28T14:16:40Z</time></trkpt><trkpt lat="39.23592076519562" lon="16.945899664746115"><ele>124.49999999999999</ele><time>2026-03-28T14:16:42Z</time></trkpt><trkpt lat="39.23598826398107" lon="16.945930010625798"><ele>127.0</ele><time>2026-03-28T14:16:44Z</time></trkpt><trkpt lat="39.23602832063134" lon="16.946036409220742"><ele>129.5</ele><time>2026-03-28T14:16:46Z</time></trkpt><trkpt lat="39.23603853858166" lon="16.94613218740537"><ele>132.0</ele><time>2026-03-28T14:16:48Z</time></trkpt><trkpt lat="39.2360721286344" lon="16.94623478852753"><ele>134.5</ele><time>2026-03-28T14:16:50Z</time></trkpt><trkpt lat="39.23611240103664" lon="16.946352608906764"><ele>137.0</ele><time>2026-03-28T14:16:52Z</time></trkpt><trkpt lat="39.236164725301585" lon="16.946470226980008"><ele>137.0</ele><time>2026-03-28T14:16:54Z</time></trkpt><trkpt lat="39.23622000982068" lon="16.946580015081068"><ele>137.0</ele><time>2026-03-28T14:16:56Z</time></trkpt><trkpt lat="39.23626346019068" lon="16.946679869477492"><ele>137.0</ele><time>2026-03-28T14:16:58Z</time></trkpt><trkpt lat="39.23632269112279" lon="16.946767507303203"><ele>137.0</ele><time>2026-03-28T14:17:00Z</time></trkpt><trkpt lat="39.23640542577815" lon="16.94682181208003"><ele>137.0</ele><time>2026-03-28T14:17:02Z</time></trkpt><trkpt lat="39.236499434942424" lon="16.94686909927567"><ele>140.6</ele><time>2026-03-28T14:17:04Z</time></trkpt><trkpt lat="39.23659521616594" lon="16.946949905944244"><ele>144.2</ele><time>2026-03-28T14:17:06Z</time></trkpt><trkpt lat="39.23669106676268" lon="16.94703141786651"><ele>147.8</ele><time>2026-03-28T14:17:08Z</time></trkpt><trkpt lat="39.23680018032349" lon="16.947116677148102"><ele>151.4</ele><time>2026-03-28T14:17:10Z</time></trkpt><trkpt lat="39.236855983933964" lon="16.94717233013863"><ele>155.0</ele><time>2026-03-28T14:17:11Z</time></trkpt><trkpt lat="39.23691279870365" lon="16.94723280673528"><ele>155.0</ele><time>2026-03-28T14:17:12Z</time></trkpt><trkpt lat="39.23696340026476" lon="16.947301705130634"><ele>155.0</ele><time>2026-03-28T14:17:13Z</time></trkpt><trkpt lat="39.23700356834062" lon="16.947366325102244"><ele>155.0</ele><time>2026-03-28T14:17:14Z</time></trkpt><trkpt lat="39.23706560219389" lon="16.947501189086964"><ele>155.0</ele><time>2026-03-28T14:17:16Z</time></trkpt><trkpt lat="39.237098453293925" lon="16.94764635582557"><ele>155.0</ele><time>2026-03-28T14:17:18Z</time></trkpt><trkpt lat="39.23708257623084" lon="16.947725446493305"><ele>155.0</ele><time>2026-03-28T14:17:19Z</time></trkpt><trkpt lat="39.23703265928921" lon="16.947838002394366"><ele>156.33333333333331</ele><time>2026-03-28T14:17:21Z</time></trkpt><trkpt lat="39.23700438357641" lon="16.94794856417353"><ele>157.66666666666666</ele><time>2026-03-28T14:17:23Z</time></trkpt><trkpt lat="39.23698831513626" lon="16.948079458435455"><ele>159.0</ele><time>2026-03-28T14:17:25Z</time></trkpt><trkpt lat="39.23697276411119" lon="16.948178939826196"><ele>160.33333333333334</ele><time>2026-03-28T14:17:27Z</time></trkpt><trkpt lat="39.23695751268344" lon="16.948259610689007"><ele>161.66666666666669</ele><time>2026-03-28T14:17:59Z</time></trkpt><trkpt lat="39.236947883089734" lon="16.948340092014753"><ele>163.0</ele><time>2026-03-28T14:18:40Z</time></trkpt><trkpt lat="39.236963988010295" lon="16.948435150379513"><ele>163.2857142857143</ele><time>2026-03-28T14:18:43Z</time></trkpt><trkpt lat="39.2370064071011" lon="16.948514271909094"><ele>163.57142857142856</ele><time>2026-03-28T14:18:46Z</time></trkpt><trkpt lat="39.23704569284448" lon="16.948601556074777"><ele>163.85714285714286</ele><time>2026-03-28T14:18:49Z</time></trkpt><trkpt lat="39.23708791531802" lon="16.948691618764972"><ele>164.14285714285717</ele><time>2026-03-28T14:18:52Z</time></trkpt><trkpt lat="39.23712335456977" lon="16.948761453805123"><ele>164.42857142857144</ele><time>2026-03-28T14:18:54Z</time></trkpt><trkpt lat="39.23716263562149" lon="16.948825868505843"><ele>164.71428571428572</ele><time>2026-03-28T14:18:56Z</time></trkpt><trkpt lat="39.237187657390244" lon="16.948902190432626"><ele>165.0</ele><time>2026-03-28T14:18:58Z</time></trkpt><trkpt lat="39.237213858292876" lon="16.94897823220784"><ele>165.0</ele><time>2026-03-28T14:19:00Z</time></trkpt><trkpt lat="39.23724528328977" lon="16.94906642698269"><ele>165.0</ele><time>2026-03-28T14:19:02Z</time></trkpt><trkpt lat="39.23728026644445" lon="16.94914352710625"><ele>165.0</ele><time>2026-03-28T14:19:04Z</time></trkpt><trkpt lat="39.23732020688216" lon="16.949226351009948"><ele>165.0</ele><time>2026-03-28T14:19:06Z</time></trkpt><trkpt lat="39.23736083677298" lon="16.9493225900048"><ele>165.0</ele><time>2026-03-28T14:19:08Z</time></trkpt><trkpt lat="39.237399129358835" lon="16.949413837833006"><ele>165.0</ele><time>2026-03-28T14:19:10Z</time></trkpt><trkpt lat="39.23743903088345" lon="16.949521545132352"><ele>162.5</ele><time>2026-03-28T14:19:12Z</time></trkpt><trkpt lat="39.237437118013595" lon="16.949648559081208"><ele>160.0</ele><time>2026-03-28T14:19:14Z</time></trkpt><trkpt lat="39.23742034156232" lon="16.94976030065604"><ele>157.5</ele><time>2026-03-28T14:19:16Z</time></trkpt><trkpt lat="39.237435771964215" lon="16.94985036141774"><ele>155.0</ele><time>2026-03-28T14:19:18Z</time></trkpt><trkpt lat="39.23745461064694" lon="16.94993094851443"><ele>152.5</ele><time>2026-03-28T14:19:20Z</time></trkpt><trkpt lat="39.23750809676345" lon="16.9500127644729"><ele>150.0</ele><time>2026-03-28T14:19:22Z</time></trkpt><trkpt lat="39.23756755177983" lon="16.950067589775394"><ele>149.0</ele><time>2026-03-28T14:19:26Z</time></trkpt><trkpt lat="39.23762845668405" lon="16.950116217122353"><ele>148.0</ele><time>2026-03-28T14:19:28Z</time></trkpt><trkpt lat="39.23770676167694" lon="16.95020534724897"><ele>147.0</ele><time>2026-03-28T14:19:30Z</time></trkpt><trkpt lat="39.237703905033726" lon="16.950342116015985"><ele>146.0</ele><time>2026-03-28T14:19:32Z</time></trkpt><trkpt lat="39.23770549705447" lon="16.9504235868493"><ele>145.0</ele><time>2026-03-28T14:19:34Z</time></trkpt><trkpt lat="39.23772931410677" lon="16.950512156156368"><ele>144.0</ele><time>2026-03-28T14:19:38Z</time></trkpt><trkpt lat="39.23774204515665" lon="16.950609875447807"><ele>144.00000000000003</ele><time>2026-03-28T14:20:11Z</time></trkpt><trkpt lat="39.237745349515876" lon="16.950721227690725"><ele>144.0</ele><time>2026-03-28T14:20:14Z</time></trkpt><trkpt lat="39.237755645979945" lon="16.950802540385688"><ele>144.0</ele><time>2026-03-28T14:20:16Z</time></trkpt><trkpt lat="39.23776781138434" lon="16.950882928028435"><ele>144.0</ele><time>2026-03-28T14:20:19Z</time></trkpt><trkpt lat="39.2377867164737" lon="16.950961378541436"><ele>144.0</ele><time>2026-03-28T14:20:22Z</time></trkpt><trkpt lat="39.2378152113642" lon="16.951043507760556"><ele>144.00000000000003</ele><time>2026-03-28T14:20:25Z</time></trkpt><trkpt lat="39.237844679833195" lon="16.951130800038708"><ele>144.0</ele><time>2026-03-28T14:20:28Z</time></trkpt><trkpt lat="39.23787411566501" lon="16.951225848766445"><ele>142.85714285714286</ele><time>2026-03-28T14:20:33Z</time></trkpt><trkpt lat="39.237899566301806" lon="16.951320966183513"><ele>141.71428571428572</ele><time>2026-03-28T14:20:35Z</time></trkpt><trkpt lat="39.23793184414235" lon="16.951391230009254"><ele>140.57142857142856</ele><time>2026-03-28T14:20:37Z</time></trkpt><trkpt lat="39.237961497529014" lon="16.951485305309063"><ele>139.42857142857144</ele><time>2026-03-28T14:20:42Z</time></trkpt><trkpt lat="39.237988918798365" lon="16.95157882085804"><ele>138.28571428571428</ele><time>2026-03-28T14:20:45Z</time></trkpt><trkpt lat="39.23802201049475" lon="16.951666075434012"><ele>137.14285714285714</ele><time>2026-03-28T14:20:48Z</time></trkpt><trkpt lat="39.23805637198198" lon="16.95175006829102"><ele>136.0</ele><time>2026-03-28T14:20:51Z</time></trkpt><trkpt lat="39.2380953716173" lon="16.951830331484555"><ele>137.83333333333334</ele><time>2026-03-28T14:20:53Z</time></trkpt><trkpt lat="39.23813565563469" lon="16.95191523660708"><ele>139.66666666666669</ele><time>2026-03-28T14:20:55Z</time></trkpt><trkpt lat="39.23817652779079" lon="16.95198203332732"><ele>141.5</ele><time>2026-03-28T14:20:57Z</time></trkpt><trkpt lat="39.238225524814155" lon="16.952085200660008"><ele>143.33333333333334</ele><time>2026-03-28T14:20:59Z</time></trkpt><trkpt lat="39.23826384053315" lon="16.952192776563614"><ele>145.16666666666666</ele><time>2026-03-28T14:21:01Z</time></trkpt><trkpt lat="39.238310060229644" lon="16.952315637146196"><ele>147.0</ele><time>2026-03-28T14:21:03Z</time></trkpt><trkpt lat="39.238352628612596" lon="16.952418909059755"><ele>147.0</ele><time>2026-03-28T14:21:05Z</time></trkpt><trkpt lat="39.23839586543842" lon="16.952511267265205"><ele>147.0</ele><time>2026-03-28T14:21:07Z</time></trkpt><trkpt lat="39.23843941221031" lon="16.952606254671494"><ele>147.0</ele><time>2026-03-28T14:21:09Z</time></trkpt><trkpt lat="39.238476422084275" lon="16.952685481013074"><ele>147.0</ele><time>2026-03-28T14:21:11Z</time></trkpt><trkpt lat="39.238506899257416" lon="16.95276843870767"><ele>147.0</ele><time>2026-03-28T14:21:43Z</time></trkpt><trkpt lat="39.23853868621709" lon="16.952841119315348"><ele>147.0</ele><time>2026-03-28T14:21:46Z</time></trkpt><trkpt lat="39.23857359058586" lon="16.952920703636927"><ele>147.0</ele><time>2026-03-28T14:21:49Z</time></trkpt><trkpt lat="39.238613471032735" lon="16.953007579419598"><ele>147.16666666666666</ele><time>2026-03-28T14:21:53Z</time></trkpt><trkpt lat="39.238643177388404" lon="16.95308705163263"><ele>147.33333333333334</ele><time>2026-03-28T14:22:40Z</time></trkpt><trkpt lat="39.23868608808519" lon="16.953184175905907"><ele>147.5</ele><time>2026-03-28T14:22:43Z</time></trkpt><trkpt lat="39.23872439517813" lon="16.953251052507614"><ele>147.66666666666669</ele><time>2026-03-28T14:22:45Z</time></trkpt><trkpt lat="39.23875698747435" lon="16.95336226034475"><ele>147.83333333333334</ele><time>2026-03-28T14:22:48Z</time></trkpt><trkpt lat="39.23876628658001" lon="16.953456255824094"><ele>148.0</ele><time>2026-03-28T14:22:51Z</time></trkpt><trkpt lat="39.238771565281816" lon="16.953565267707553"><ele>148.0</ele><time>2026-03-28T14:22:54Z</time></trkpt><trkpt lat="39.23876551661952" lon="16.953717782433138"><ele>148.0</ele><time>2026-03-28T14:22:56Z</time></trkpt><trkpt lat="39.23875412019585" lon="16.95384400776231"><ele>148.0</ele><time>2026-03-28T14:22:58Z</time></trkpt><trkpt lat="39.23881770791207" lon="16.953951442051338"><ele>148.0</ele><time>2026-03-28T14:23:00Z</time></trkpt><trkpt lat="39.23889014796651" lon="16.954028423082804"><ele>148.0</ele><time>2026-03-28T14:23:02Z</time></trkpt><trkpt lat="39.238956463231695" lon="16.954100971107376"><ele>151.60000000000002</ele><time>2026-03-28T14:23:04Z</time></trkpt><trkpt lat="39.23901855259371" lon="16.954174807876598"><ele>155.20000000000002</ele><time>2026-03-28T14:23:06Z</time></trkpt><trkpt lat="39.239081908891386" lon="16.954257924585093"><ele>158.8</ele><time>2026-03-28T14:23:08Z</time></trkpt><trkpt lat="39.239136681734976" lon="16.954359056338138"><ele>162.4</ele><time>2026-03-28T14:23:10Z</time></trkpt><trkpt lat="39.23918538276055" lon="16.954479974685626"><ele>166.0</ele><time>2026-03-28T14:23:12Z</time></trkpt><trkpt lat="39.23922992067648" lon="16.954577690718605"><ele>166.0</ele><time>2026-03-28T14:23:14Z</time></trkpt><trkpt lat="39.239284918582754" lon="16.954677873792445"><ele>166.0</ele><time>2026-03-28T14:23:16Z</time></trkpt><trkpt lat="39.23934010480988" lon="16.95478162158799"><ele>166.0</ele><time>2026-03-28T14:23:18Z</time></trkpt><trkpt lat="39.239386337891965" lon="16.954846156332174"><ele>166.0</ele><time>2026-03-28T14:23:19Z</time></trkpt><trkpt lat="39.239436991343034" lon="16.954911181529283"><ele>166.0</ele><time>2026-03-28T14:23:20Z</time></trkpt><trkpt lat="39.239494704965885" lon="16.954973904541706"><ele>166.0</ele><time>2026-03-28T14:23:21Z</time></trkpt><trkpt lat="39.23955219686638" lon="16.955027720639187"><ele>166.60000000000002</ele><time>2026-03-28T14:23:22Z</time></trkpt><trkpt lat="39.23961721019798" lon="16.955070563336132"><ele>167.2</ele><time>2026-03-28T14:23:23Z</time></trkpt><trkpt lat="39.239684452838084" lon="16.955106839556247"><ele>167.8</ele><time>2026-03-28T14:23:24Z</time></trkpt><trkpt lat="39.239752260777884" lon="16.955122419632644"><ele>168.39999999999998</ele><time>2026-03-28T14:23:25Z</time></trkpt><trkpt lat="39.239861899580276" lon="16.955163343592474"><ele>169.0</ele><time>2026-03-28T14:23:27Z</time></trkpt><trkpt lat="39.23997913824231" lon="16.955215883242534"><ele>169.0</ele><time>2026-03-28T14:23:29Z</time></trkpt><trkpt lat="39.24008829735484" lon="16.955285805495375"><ele>169.0</ele><time>2026-03-28T14:23:31Z</time></trkpt><trkpt lat="39.240199586277086" lon="16.955315808707187"><ele>169.0</ele><time>2026-03-28T14:23:33Z</time></trkpt><trkpt lat="39.24028023768252" lon="16.955329073388473"><ele>169.0</ele><time>2026-03-28T14:23:35Z</time></trkpt><trkpt lat="39.2403841151053" lon="16.955293029030866"><ele>169.0</ele><time>2026-03-28T14:23:37Z</time></trkpt><trkpt lat="39.24048746711071" lon="16.95527016563384"><ele>169.0</ele><time>2026-03-28T14:23:39Z</time></trkpt><trkpt lat="39.240593556237016" lon="16.955308614033317"><ele>169.0</ele><time>2026-03-28T14:23:41Z</time></trkpt><trkpt lat="39.24068045145969" lon="16.95530080177219"><ele>169.0</ele><time>2026-03-28T14:23:43Z</time></trkpt><trkpt lat="39.240773905957965" lon="16.955263437926448"><ele>169.0</ele><time>2026-03-28T14:23:45Z</time></trkpt><trkpt lat="39.24083999800544" lon="16.95524305960166"><ele>169.0</ele><time>2026-03-28T14:23:46Z</time></trkpt><trkpt lat="39.24092267471667" lon="16.9552390979637"><ele>169.0</ele><time>2026-03-28T14:23:47Z</time></trkpt><trkpt lat="39.240987158556365" lon="16.955265026164774"><ele>169.0</ele><time>2026-03-28T14:23:48Z</time></trkpt><trkpt lat="39.24105616752945" lon="16.95534388592319"><ele>169.0</ele><time>2026-03-28T14:23:50Z</time></trkpt><trkpt lat="39.2411194516483" lon="16.955395408081973"><ele>169.0</ele><time>2026-03-28T14:23:52Z</time></trkpt><trkpt lat="39.24118265714824" lon="16.955444339041957"><ele>169.0</ele><time>2026-03-28T14:23:54Z</time></trkpt><trkpt lat="39.24126482226508" lon="16.955476595107918"><ele>169.0</ele><time>2026-03-28T14:23:57Z</time></trkpt><trkpt lat="39.241334038925416" lon="16.955494923840202"><ele>169.0</ele><time>2026-03-28T14:24:01Z</time></trkpt><trkpt lat="39.241386679599934" lon="16.955573689725494"><ele>169.0</ele><time>2026-03-28T14:24:04Z</time></trkpt><trkpt lat="39.24146028847563" lon="16.955668090728036"><ele>169.0</ele><time>2026-03-28T14:24:07Z</time></trkpt><trkpt lat="39.241552555604905" lon="16.955713360130183"><ele>169.0</ele><time>2026-03-28T14:24:09Z</time></trkpt><trkpt lat="39.24162996503793" lon="16.955738532084087"><ele>169.0</ele><time>2026-03-28T14:24:11Z</time></trkpt><trkpt lat="39.24170961994975" lon="16.955778675136326"><ele>169.0</ele><time>2026-03-28T14:24:13Z</time></trkpt><trkpt lat="39.241807966533614" lon="16.955867529905863"><ele>168.2</ele><time>2026-03-28T14:24:15Z</time></trkpt><trkpt lat="39.241861706894184" lon="16.955910682124564"><ele>167.39999999999998</ele><time>2026-03-28T14:24:16Z</time></trkpt><trkpt lat="39.241962274856014" lon="16.955954871073725"><ele>166.6</ele><time>2026-03-28T14:24:18Z</time></trkpt><trkpt lat="39.24206034096713" lon="16.955962470653525"><ele>165.8</ele><time>2026-03-28T14:24:20Z</time></trkpt><trkpt lat="39.24217017165616" lon="16.956006859955764"><ele>165.0</ele><time>2026-03-28T14:24:22Z</time></trkpt><trkpt lat="39.24221051285574" lon="16.95608262172149"><ele>165.0</ele><time>2026-03-28T14:24:23Z</time></trkpt><trkpt lat="39.24227404899965" lon="16.95619610194102"><ele>165.0</ele><time>2026-03-28T14:24:25Z</time></trkpt><trkpt lat="39.242324499573556" lon="16.956292212266636"><ele>165.0</ele><time>2026-03-28T14:24:27Z</time></trkpt><trkpt lat="39.2423417642759" lon="16.95639018328857"><ele>165.0</ele><time>2026-03-28T14:24:29Z</time></trkpt><trkpt lat="39.2423142957083" lon="16.9565085058747"><ele>165.0</ele><time>2026-03-28T14:24:32Z</time></trkpt><trkpt lat="39.2423188348805" lon="16.956615401763987"><ele>165.83333333333334</ele><time>2026-03-28T14:24:34Z</time></trkpt><trkpt lat="39.242394532234165" lon="16.956746271486814"><ele>166.66666666666666</ele><time>2026-03-28T14:24:36Z</time></trkpt><trkpt lat="39.2424409186233" lon="16.956836484415433"><ele>167.5</ele><time>2026-03-28T14:24:37Z</time></trkpt><trkpt lat="39.24248102151269" lon="16.956920230418227"><ele>168.33333333333331</ele><time>2026-03-28T14:24:38Z</time></trkpt><trkpt lat="39.24252084024741" lon="16.95699768470925"><ele>169.16666666666666</ele><time>2026-03-28T14:24:39Z</time></trkpt><trkpt lat="39.24255223663207" lon="16.95707952623941"><ele>170.0</ele><time>2026-03-28T14:24:40Z</time></trkpt><trkpt lat="39.24258229539747" lon="16.95715717487743"><ele>170.0</ele><time>2026-03-28T14:24:41Z</time></trkpt><trkpt lat="39.24260979577589" lon="16.957233442921634"><ele>170.0</ele><time>2026-03-28T14:24:42Z</time></trkpt><trkpt lat="39.24264202818696" lon="16.957307732218407"><ele>170.0</ele><time>2026-03-28T14:24:43Z</time></trkpt><trkpt lat="39.24267579893421" lon="16.957380983514096"><ele>170.0</ele><time>2026-03-28T14:24:44Z</time></trkpt><trkpt lat="39.24270068810688" lon="16.95746396140583"><ele>170.0</ele><time>2026-03-28T14:24:45Z</time></trkpt><trkpt lat="39.24270959061335" lon="16.957552575526332"><ele>170.0</ele><time>2026-03-28T14:24:46Z</time></trkpt><trkpt lat="39.24269551658999" lon="16.957634963692886"><ele>170.0</ele><time>2026-03-28T14:24:47Z</time></trkpt><trkpt lat="39.24266393068957" lon="16.95777502480443"><ele>168.2</ele><time>2026-03-28T14:24:49Z</time></trkpt><trkpt lat="39.24265142439999" lon="16.957940188848404"><ele>166.4</ele><time>2026-03-28T14:24:51Z</time></trkpt><trkpt lat="39.24266289079868" lon="16.958071256115367"><ele>164.60000000000002</ele><time>2026-03-28T14:24:53Z</time></trkpt><trkpt lat="39.242729867224156" lon="16.958227936155797"><ele>162.8</ele><time>2026-03-28T14:24:55Z</time></trkpt><trkpt lat="39.24274699255697" lon="16.958326935515384"><ele>161.0</ele><time>2026-03-28T14:24:56Z</time></trkpt><trkpt lat="39.24277007172058" lon="16.958425464992754"><ele>159.66666666666666</ele><time>2026-03-28T14:24:57Z</time></trkpt><trkpt lat="39.242795709674326" lon="16.958515645713877"><ele>158.33333333333331</ele><time>2026-03-28T14:24:58Z</time></trkpt><trkpt lat="39.24282256322637" lon="16.958642892200185"><ele>157.0</ele><time>2026-03-28T14:25:00Z</time></trkpt><trkpt lat="39.242832768896214" lon="16.958783373394365"><ele>155.66666666666666</ele><time>2026-03-28T14:25:02Z</time></trkpt><trkpt lat="39.24282142133765" lon="16.958868547383744"><ele>154.33333333333334</ele><time>2026-03-28T14:25:03Z</time></trkpt><trkpt lat="39.24283423769068" lon="16.958953005232665"><ele>153.0</ele><time>2026-03-28T14:25:04Z</time></trkpt><trkpt lat="39.24284797053008" lon="16.959034303513132"><ele>153.0</ele><time>2026-03-28T14:25:05Z</time></trkpt><trkpt lat="39.242860923084784" lon="16.959114958424095"><ele>153.0</ele><time>2026-03-28T14:25:06Z</time></trkpt><trkpt lat="39.24287975243783" lon="16.95919519358531"><ele>153.0</ele><time>2026-03-28T14:25:07Z</time></trkpt><trkpt lat="39.24292040642837" lon="16.959262428508794"><ele>153.0</ele><time>2026-03-28T14:25:08Z</time></trkpt><trkpt lat="39.2429754426002" lon="16.959313872800973"><ele>153.0</ele><time>2026-03-28T14:25:09Z</time></trkpt><trkpt lat="39.243029804940186" lon="16.95937694164025"><ele>153.0</ele><time>2026-03-28T14:25:10Z</time></trkpt><trkpt lat="39.243092682493895" lon="16.95943145646012"><ele>153.0</ele><time>2026-03-28T14:25:11Z</time></trkpt><trkpt lat="39.24315589937668" lon="16.959492565325895"><ele>150.33333333333334</ele><time>2026-03-28T14:25:12Z</time></trkpt><trkpt lat="39.24321998941911" lon="16.959557352223698"><ele>147.66666666666666</ele><time>2026-03-28T14:25:13Z</time></trkpt><trkpt lat="39.24327341505141" lon="16.95963273730454"><ele>145.0</ele><time>2026-03-28T14:25:14Z</time></trkpt><trkpt lat="39.24331406156431" lon="16.959699250130395"><ele>142.33333333333331</ele><time>2026-03-28T14:25:15Z</time></trkpt><trkpt lat="39.24335953682693" lon="16.959858371409286"><ele>139.66666666666666</ele><time>2026-03-28T14:25:16.999Z</time></trkpt><trkpt lat="39.24336982528469" lon="16.959942350945713"><ele>137.0</ele><time>2026-03-28T14:25:17.999Z</time></trkpt><trkpt lat="39.24339324252747" lon="16.960030389310607"><ele>136.83333333333331</ele><time>2026-03-28T14:25:18.999Z</time></trkpt><trkpt lat="39.24342761212994" lon="16.96011753585888"><ele>136.66666666666666</ele><time>2026-03-28T14:25:19.999Z</time></trkpt><trkpt lat="39.243464867341345" lon="16.96021196740123"><ele>136.5</ele><time>2026-03-28T14:25:21Z</time></trkpt><trkpt lat="39.24349823558116" lon="16.960319134150346"><ele>136.33333333333334</ele><time>2026-03-28T14:25:22Z</time></trkpt><trkpt lat="39.24352963800126" lon="16.96042174857369"><ele>136.16666666666669</ele><time>2026-03-28T14:25:23Z</time></trkpt><trkpt lat="39.243566661669945" lon="16.960513015842135"><ele>136.0</ele><time>2026-03-28T14:25:24Z</time></trkpt><trkpt lat="39.243615280525226" lon="16.960594362573577"><ele>136.0</ele><time>2026-03-28T14:25:25Z</time></trkpt><trkpt lat="39.24367408634545" lon="16.96066349566166"><ele>136.0</ele><time>2026-03-28T14:25:26Z</time></trkpt><trkpt lat="39.243741986575216" lon="16.96070131755805"><ele>136.0</ele><time>2026-03-28T14:25:27Z</time></trkpt><trkpt lat="39.24381110654137" lon="16.960728324436605"><ele>136.0</ele><time>2026-03-28T14:25:28Z</time></trkpt><trkpt lat="39.24387853214727" lon="16.960798129561997"><ele>136.0</ele><time>2026-03-28T14:25:29Z</time></trkpt><trkpt lat="39.24394459819241" lon="16.960882628071786"><ele>136.0</ele><time>2026-03-28T14:25:30Z</time></trkpt><trkpt lat="39.24399905704373" lon="16.960964538006245"><ele>136.2</ele><time>2026-03-28T14:25:31Z</time></trkpt><trkpt lat="39.244073206986194" lon="16.96107700050368"><ele>136.39999999999998</ele><time>2026-03-28T14:25:33Z</time></trkpt><trkpt lat="39.244188464767106" lon="16.96108353788074"><ele>136.6</ele><time>2026-03-28T14:25:35Z</time></trkpt><trkpt lat="39.244260800937006" lon="16.961058960677963"><ele>136.79999999999998</ele><time>2026-03-28T14:25:36Z</time></trkpt><trkpt lat="39.2443621751812" lon="16.961021029569153"><ele>137.0</ele><time>2026-03-28T14:25:37Z</time></trkpt><trkpt lat="39.24444910263388" lon="16.96097049595654"><ele>137.0</ele><time>2026-03-28T14:25:38Z</time></trkpt><trkpt lat="39.24453347895418" lon="16.960918676218796"><ele>137.0</ele><time>2026-03-28T14:25:39Z</time></trkpt><trkpt lat="39.24462899217209" lon="16.96088189038943"><ele>137.0</ele><time>2026-03-28T14:25:40Z</time></trkpt><trkpt lat="39.244726520000526" lon="16.96085635909854"><ele>137.0</ele><time>2026-03-28T14:25:41Z</time></trkpt><trkpt lat="39.24480960805636" lon="16.96082973478002"><ele>137.0</ele><time>2026-03-28T14:25:42Z</time></trkpt><trkpt lat="39.2448949991443" lon="16.96082907986313"><ele>138.33333333333331</ele><time>2026-03-28T14:25:43Z</time></trkpt><trkpt lat="39.24497923692442" lon="16.96083931553312"><ele>139.66666666666666</ele><time>2026-03-28T14:25:44Z</time></trkpt><trkpt lat="39.24505424292121" lon="16.960858423569494"><ele>141.0</ele><time>2026-03-28T14:25:45Z</time></trkpt><trkpt lat="39.24512356239842" lon="16.9608557391789"><ele>142.33333333333334</ele><time>2026-03-28T14:25:46Z</time></trkpt><trkpt lat="39.245179403355856" lon="16.96080549331604"><ele>143.66666666666669</ele><time>2026-03-28T14:25:47Z</time></trkpt><trkpt lat="39.24529449006837" lon="16.960739786346608"><ele>145.0</ele><time>2026-03-28T14:25:49Z</time></trkpt><trkpt lat="39.24535495593573" lon="16.960704679844984"><ele>145.0</ele><time>2026-03-28T14:25:50Z</time></trkpt><trkpt lat="39.24541557474841" lon="16.960674766313847"><ele>145.0</ele><time>2026-03-28T14:25:51Z</time></trkpt><trkpt lat="39.245474490528586" lon="16.96064251688699"><ele>145.0</ele><time>2026-03-28T14:25:52Z</time></trkpt><trkpt lat="39.24553208328783" lon="16.960609558884325"><ele>145.0</ele><time>2026-03-28T14:25:53Z</time></trkpt><trkpt lat="39.245643563824174" lon="16.96055272293504"><ele>145.0</ele><time>2026-03-28T14:25:55Z</time></trkpt><trkpt lat="39.24574975208812" lon="16.96049724852606"><ele>145.0</ele><time>2026-03-28T14:25:57Z</time></trkpt><trkpt lat="39.24580705540706" lon="16.96046151549617"><ele>146.42857142857144</ele><time>2026-03-28T14:25:58Z</time></trkpt><trkpt lat="39.24587037162608" lon="16.960430402391324"><ele>147.85714285714286</ele><time>2026-03-28T14:25:59Z</time></trkpt><trkpt lat="39.24593485690812" lon="16.96039736594666"><ele>149.28571428571428</ele><time>2026-03-28T14:26:00Z</time></trkpt><trkpt lat="39.24600340424087" lon="16.960362939945274"><ele>150.71428571428572</ele><time>2026-03-28T14:26:01Z</time></trkpt><trkpt lat="39.24607420867495" lon="16.960321761907"><ele>152.14285714285714</ele><time>2026-03-28T14:26:02Z</time></trkpt><trkpt lat="39.2461409220676" lon="16.960267961791885"><ele>153.57142857142858</ele><time>2026-03-28T14:26:03Z</time></trkpt><trkpt lat="39.246214853606844" lon="16.960235091345336"><ele>155.0</ele><time>2026-03-28T14:26:04Z</time></trkpt><trkpt lat="39.246272064275395" lon="16.960186949405823"><ele>155.0</ele><time>2026-03-28T14:26:05Z</time></trkpt><trkpt lat="39.2463348875198" lon="16.960150400928423"><ele>155.0</ele><time>2026-03-28T14:26:06Z</time></trkpt><trkpt lat="39.246392467760316" lon="16.96011274377771"><ele>155.0</ele><time>2026-03-28T14:26:07Z</time></trkpt><trkpt lat="39.246463640703034" lon="16.960107348888076"><ele>155.0</ele><time>2026-03-28T14:26:08Z</time></trkpt><trkpt lat="39.24653904815482" lon="16.960121844621742"><ele>155.0</ele><time>2026-03-28T14:26:09Z</time></trkpt><trkpt lat="39.24660681586004" lon="16.960131140364567"><ele>155.0</ele><time>2026-03-28T14:26:10Z</time></trkpt><trkpt lat="39.24666464518658" lon="16.96016477690417"><ele>155.0</ele><time>2026-03-28T14:26:11Z</time></trkpt><trkpt lat="39.24678298432378" lon="16.960208979065836"><ele>157.16666666666666</ele><time>2026-03-28T14:26:13Z</time></trkpt><trkpt lat="39.24685626198014" lon="16.96024001183418"><ele>159.33333333333331</ele><time>2026-03-28T14:26:15Z</time></trkpt><trkpt lat="39.24688291746722" lon="16.960142456274692"><ele>161.5</ele><time>2026-03-28T14:26:18Z</time></trkpt><trkpt lat="39.246863409018374" lon="16.96004353067966"><ele>163.66666666666666</ele><time>2026-03-28T14:26:21Z</time></trkpt><trkpt lat="39.24683324550249" lon="16.95993958378975"><ele>165.83333333333334</ele><time>2026-03-28T14:26:25Z</time></trkpt><trkpt lat="39.246806538968265" lon="16.959819350242466"><ele>168.0</ele><time>2026-03-28T14:26:28Z</time></trkpt><trkpt lat="39.24683749176347" lon="16.959735714639397"><ele>169.5</ele><time>2026-03-28T14:26:31Z</time></trkpt><trkpt lat="39.24690482542352" lon="16.959725953796355"><ele>171.0</ele><time>2026-03-28T14:26:36Z</time></trkpt><trkpt lat="39.24698880040596" lon="16.959783885868486"><ele>172.5</ele><time>2026-03-28T14:26:39Z</time></trkpt><trkpt lat="39.247053651825006" lon="16.959843855754993"><ele>174.0</ele><time>2026-03-28T14:26:44Z</time></trkpt><trkpt lat="39.24712077204006" lon="16.959909741506653"><ele>175.5</ele><time>2026-03-28T14:26:46Z</time></trkpt><trkpt lat="39.24720972486378" lon="16.95998438029051"><ele>177.0</ele><time>2026-03-28T14:26:48Z</time></trkpt><trkpt lat="39.24732223363726" lon="16.960030488630913"><ele>178.6</ele><time>2026-03-28T14:26:50Z</time></trkpt><trkpt lat="39.24744467670245" lon="16.960056467430718"><ele>180.2</ele><time>2026-03-28T14:26:52Z</time></trkpt><trkpt lat="39.24754624010993" lon="16.96010583922043"><ele>181.8</ele><time>2026-03-28T14:26:54Z</time></trkpt><trkpt lat="39.24763381470657" lon="16.960215488382683"><ele>183.4</ele><time>2026-03-28T14:26:56Z</time></trkpt><trkpt lat="39.24768303183103" lon="16.960271044723463"><ele>185.0</ele><time>2026-03-28T14:26:57Z</time></trkpt><trkpt lat="39.24773780341594" lon="16.96032053455172"><ele>185.0</ele><time>2026-03-28T14:26:58Z</time></trkpt><trkpt lat="39.24779996285306" lon="16.960375357228365"><ele>185.0</ele><time>2026-03-28T14:26:59Z</time></trkpt><trkpt lat="39.24785895290133" lon="16.960471505950135"><ele>185.0</ele><time>2026-03-28T14:27:00Z</time></trkpt><trkpt lat="39.24789714547182" lon="16.9605795623167"><ele>185.0</ele><time>2026-03-28T14:27:01Z</time></trkpt><trkpt lat="39.24790981419213" lon="16.960678110115353"><ele>185.0</ele><time>2026-03-28T14:27:02Z</time></trkpt><trkpt lat="39.24793682045309" lon="16.960758531980915"><ele>185.0</ele><time>2026-03-28T14:27:03Z</time></trkpt><trkpt lat="39.247976140574444" lon="16.960831718205753"><ele>183.14285714285714</ele><time>2026-03-28T14:27:04Z</time></trkpt><trkpt lat="39.24801716113612" lon="16.960893697317605"><ele>181.28571428571428</ele><time>2026-03-28T14:27:05Z</time></trkpt><trkpt lat="39.24805494513144" lon="16.960965859867176"><ele>179.42857142857144</ele><time>2026-03-28T14:27:06Z</time></trkpt><trkpt lat="39.2480986018323" lon="16.961036067881086"><ele>177.57142857142856</ele><time>2026-03-28T14:27:07Z</time></trkpt><trkpt lat="39.24814266436675" lon="16.96111739829431"><ele>175.71428571428572</ele><time>2026-03-28T14:27:08Z</time></trkpt><trkpt lat="39.24819213583596" lon="16.961198338763612"><ele>173.85714285714286</ele><time>2026-03-28T14:27:09Z</time></trkpt><trkpt lat="39.248241431831815" lon="16.961279551080814"><ele>172.0</ele><time>2026-03-28T14:27:10Z</time></trkpt><trkpt lat="39.248295311099696" lon="16.961365586129"><ele>174.33333333333334</ele><time>2026-03-28T14:27:11Z</time></trkpt><trkpt lat="39.2483494186816" lon="16.961450374304214"><ele>176.66666666666669</ele><time>2026-03-28T14:27:12Z</time></trkpt><trkpt lat="39.248405836878206" lon="16.961532714664163"><ele>179.0</ele><time>2026-03-28T14:27:13Z</time></trkpt><trkpt lat="39.24846309826705" lon="16.961613985091606"><ele>181.33333333333334</ele><time>2026-03-28T14:27:14Z</time></trkpt><trkpt lat="39.24852298855717" lon="16.961691805358807"><ele>183.66666666666666</ele><time>2026-03-28T14:27:14.999Z</time></trkpt><trkpt lat="39.248590105658664" lon="16.96176397339103"><ele>186.0</ele><time>2026-03-28T14:27:15.999Z</time></trkpt><trkpt lat="39.24865741432084" lon="16.961834103357443"><ele>186.0</ele><time>2026-03-28T14:27:16.999Z</time></trkpt><trkpt lat="39.248731144915496" lon="16.961891428839387"><ele>186.0</ele><time>2026-03-28T14:27:17.999Z</time></trkpt><trkpt lat="39.248804832674914" lon="16.961929734633994"><ele>186.0</ele><time>2026-03-28T14:27:18.999Z</time></trkpt><trkpt lat="39.24886687560076" lon="16.961945388266763"><ele>186.0</ele><time>2026-03-28T14:27:19.999Z</time></trkpt><trkpt lat="39.24895197750102" lon="16.961858037246497"><ele>186.0</ele><time>2026-03-28T14:27:21.999Z</time></trkpt><trkpt lat="39.24896924109613" lon="16.961723237442133"><ele>186.0</ele><time>2026-03-28T14:27:23.999Z</time></trkpt><trkpt lat="39.24894853002284" lon="16.961608851685625"><ele>188.5</ele><time>2026-03-28T14:27:25.999Z</time></trkpt><trkpt lat="39.248949106081604" lon="16.961514055767758"><ele>191.0</ele><time>2026-03-28T14:27:29Z</time></trkpt><trkpt lat="39.2489578024316" lon="16.96139345833094"><ele>193.5</ele><time>2026-03-28T14:28:51Z</time></trkpt><trkpt lat="39.24890865578199" lon="16.961321037470036"><ele>196.0</ele><time>2026-03-28T14:28:52Z</time></trkpt><trkpt lat="39.248839848251514" lon="16.96125635828866"><ele>198.5</ele><time>2026-03-28T14:28:53Z</time></trkpt><trkpt lat="39.24876959792237" lon="16.96118448135241"><ele>201.0</ele><time>2026-03-28T14:28:55Z</time></trkpt><trkpt lat="39.24863858215413" lon="16.961109102405118"><ele>201.0</ele><time>2026-03-28T14:28:57Z</time></trkpt><trkpt lat="39.24857043634085" lon="16.961047395727398"><ele>201.0</ele><time>2026-03-28T14:28:58Z</time></trkpt><trkpt lat="39.24851416018822" lon="16.961006183872737"><ele>201.0</ele><time>2026-03-28T14:28:59Z</time></trkpt><trkpt lat="39.24842675347571" lon="16.96093002160315"><ele>201.0</ele><time>2026-03-28T14:29:01Z</time></trkpt><trkpt lat="39.24839047545013" lon="16.96082448784987"><ele>201.0</ele><time>2026-03-28T14:29:04Z</time></trkpt><trkpt lat="39.248434100930716" lon="16.960686717406507"><ele>204.5</ele><time>2026-03-28T14:29:07Z</time></trkpt><trkpt lat="39.248495338135456" lon="16.96063702547388"><ele>208.0</ele><time>2026-03-28T14:29:07.999Z</time></trkpt><trkpt lat="39.24856473173537" lon="16.960581124746735"><ele>211.5</ele><time>2026-03-28T14:29:08.999Z</time></trkpt><trkpt lat="39.248659370845864" lon="16.960520476393675"><ele>215.0</ele><time>2026-03-28T14:29:10.999Z</time></trkpt><trkpt lat="39.24875398405721" lon="16.960469315191624"><ele>218.5</ele><time>2026-03-28T14:29:12.999Z</time></trkpt><trkpt lat="39.24881636953231" lon="16.960457241494215"><ele>222.0</ele><time>2026-03-28T14:29:13.999Z</time></trkpt><trkpt lat="39.24894901560284" lon="16.960479842938746"><ele>224.83333333333334</ele><time>2026-03-28T14:29:15.999Z</time></trkpt><trkpt lat="39.24902070479164" lon="16.960496041536576"><ele>227.66666666666669</ele><time>2026-03-28T14:29:16.999Z</time></trkpt><trkpt lat="39.249092104235885" lon="16.960510098705534"><ele>230.5</ele><time>2026-03-28T14:29:17.999Z</time></trkpt><trkpt lat="39.24915384216279" lon="16.960526157506226"><ele>233.33333333333334</ele><time>2026-03-28T14:29:18.999Z</time></trkpt><trkpt lat="39.24926916010071" lon="16.96057379262388"><ele>236.16666666666669</ele><time>2026-03-28T14:29:20.999Z</time></trkpt><trkpt lat="39.24937911025915" lon="16.960601162310244"><ele>239.0</ele><time>2026-03-28T14:29:22.999Z</time></trkpt><trkpt lat="39.2494629735143" lon="16.960576676007545"><ele>239.0</ele><time>2026-03-28T14:29:24.999Z</time></trkpt><trkpt lat="39.24952617578854" lon="16.960488785276304"><ele>238.99999999999997</ele><time>2026-03-28T14:29:26.999Z</time></trkpt><trkpt lat="39.24953805300633" lon="16.960323678298657"><ele>238.99999999999997</ele><time>2026-03-28T14:29:28.999Z</time></trkpt><trkpt lat="39.24955462479609" lon="16.96019306039583"><ele>239.0</ele><time>2026-03-28T14:29:29.999Z</time></trkpt><trkpt lat="39.24957604206275" lon="16.96009218963177"><ele>239.0</ele><time>2026-03-28T14:29:30.999Z</time></trkpt><trkpt lat="39.24961990640614" lon="16.959967299690174"><ele>238.16666666666669</ele><time>2026-03-28T14:29:33Z</time></trkpt><trkpt lat="39.24966059342589" lon="16.95986381480747"><ele>237.33333333333334</ele><time>2026-03-28T14:29:35Z</time></trkpt><trkpt lat="39.24971771520523" lon="16.95977086027512"><ele>236.5</ele><time>2026-03-28T14:29:37Z</time></trkpt><trkpt lat="39.24980548794213" lon="16.959702827425936"><ele>235.66666666666669</ele><time>2026-03-28T14:29:39Z</time></trkpt><trkpt lat="39.249879277540096" lon="16.959673428510246"><ele>234.83333333333334</ele><time>2026-03-28T14:29:40Z</time></trkpt><trkpt lat="39.24995681896618" lon="16.959643769317477"><ele>234.0</ele><time>2026-03-28T14:29:41Z</time></trkpt><trkpt lat="39.25004087698049" lon="16.959613404144193"><ele>234.0</ele><time>2026-03-28T14:29:42Z</time></trkpt><trkpt lat="39.250141177583316" lon="16.95957413191201"><ele>233.99999999999997</ele><time>2026-03-28T14:29:43Z</time></trkpt><trkpt lat="39.250228961304316" lon="16.959537923608366"><ele>233.99999999999997</ele><time>2026-03-28T14:29:44Z</time></trkpt><trkpt lat="39.250311919695214" lon="16.95949477566905"><ele>234.0</ele><time>2026-03-28T14:29:45Z</time></trkpt><trkpt lat="39.25038640078267" lon="16.959419403227322"><ele>234.0</ele><time>2026-03-28T14:29:46Z</time></trkpt><trkpt lat="39.25044007932911" lon="16.95931650940906"><ele>238.5</ele><time>2026-03-28T14:29:47Z</time></trkpt><trkpt lat="39.25047047775345" lon="16.95919085428686"><ele>243.0</ele><time>2026-03-28T14:29:48Z</time></trkpt><trkpt lat="39.2504890778939" lon="16.9590566432417"><ele>247.5</ele><time>2026-03-28T14:29:49Z</time></trkpt><trkpt lat="39.250506211550075" lon="16.958911254668898"><ele>252.0</ele><time>2026-03-28T14:29:50Z</time></trkpt><trkpt lat="39.25052486397727" lon="16.958744077150996"><ele>252.0</ele><time>2026-03-28T14:29:51Z</time></trkpt><trkpt lat="39.25054983200019" lon="16.958560268811674"><ele>252.0</ele><time>2026-03-28T14:29:52Z</time></trkpt><trkpt lat="39.250579727293925" lon="16.958364322049107"><ele>252.0</ele><time>2026-03-28T14:29:53Z</time></trkpt><trkpt lat="39.250619441512285" lon="16.958166761881284"><ele>252.0</ele><time>2026-03-28T14:29:54Z</time></trkpt><trkpt lat="39.25066193396232" lon="16.957997560050632"><ele>252.0</ele><time>2026-03-28T14:29:55Z</time></trkpt><trkpt lat="39.25070005007857" lon="16.957841179621546"><ele>252.0</ele><time>2026-03-28T14:29:56Z</time></trkpt><trkpt lat="39.2507394566001" lon="16.957693163645526"><ele>252.0</ele><time>2026-03-28T14:29:57Z</time></trkpt><trkpt lat="39.2507802097238" lon="16.957566512480568"><ele>254.25</ele><time>2026-03-28T14:29:58Z</time></trkpt><trkpt lat="39.250835546441145" lon="16.957452094923195"><ele>256.5</ele><time>2026-03-28T14:29:59Z</time></trkpt><trkpt lat="39.250907152926" lon="16.95733379572902"><ele>258.75</ele><time>2026-03-28T14:30:00Z</time></trkpt><trkpt lat="39.251007368951925" lon="16.95721480343838"><ele>261.0</ele><time>2026-03-28T14:30:01Z</time></trkpt><trkpt lat="39.25111826904018" lon="16.95710717983848"><ele>261.0</ele><time>2026-03-28T14:30:02Z</time></trkpt><trkpt lat="39.251214828082674" lon="16.957015554988285"><ele>261.0</ele><time>2026-03-28T14:30:03Z</time></trkpt><trkpt lat="39.25131079144281" lon="16.95692184438556"><ele>261.0</ele><time>2026-03-28T14:30:04Z</time></trkpt><trkpt lat="39.25140645701338" lon="16.95682605491897"><ele>261.0</ele><time>2026-03-28T14:30:05Z</time></trkpt><trkpt lat="39.25149758161064" lon="16.956737832680126"><ele>262.40000000000003</ele><time>2026-03-28T14:30:06Z</time></trkpt><trkpt lat="39.25158364109012" lon="16.956657745432096"><ele>263.8</ele><time>2026-03-28T14:30:07Z</time></trkpt><trkpt lat="39.25166769480924" lon="16.956576705603016"><ele>265.20000000000005</ele><time>2026-03-28T14:30:08Z</time></trkpt><trkpt lat="39.25175481224297" lon="16.956489867605498"><ele>266.6</ele><time>2026-03-28T14:30:09Z</time></trkpt><trkpt lat="39.2518370257758" lon="16.956411573576478"><ele>268.0</ele><time>2026-03-28T14:30:10Z</time></trkpt><trkpt lat="39.251914955141345" lon="16.956338673840204"><ele>268.0</ele><time>2026-03-28T14:30:11Z</time></trkpt><trkpt lat="39.25198202654014" lon="16.956269659282004"><ele>268.0</ele><time>2026-03-28T14:30:12Z</time></trkpt><trkpt lat="39.25205067527923" lon="16.956199762804744"><ele>268.0</ele><time>2026-03-28T14:30:13Z</time></trkpt><trkpt lat="39.25211920583404" lon="16.95613019704782"><ele>268.0</ele><time>2026-03-28T14:30:14Z</time></trkpt><trkpt lat="39.25216747972319" lon="16.956077628588062"><ele>268.0</ele><time>2026-03-28T14:30:15Z</time></trkpt><trkpt lat="39.25223039173251" lon="16.955982366956448"><ele>268.0</ele><time>2026-03-28T14:30:17Z</time></trkpt><trkpt lat="39.25228376274343" lon="16.955828405895"><ele>267.3333333333333</ele><time>2026-03-28T14:30:19Z</time></trkpt><trkpt lat="39.252297840192185" lon="16.955731417397356"><ele>266.66666666666663</ele><time>2026-03-28T14:30:20Z</time></trkpt><trkpt lat="39.252299088992054" lon="16.955623299512954"><ele>266.0</ele><time>2026-03-28T14:30:21Z</time></trkpt><trkpt lat="39.25228754909898" lon="16.95551166372721"><ele>265.3333333333333</ele><time>2026-03-28T14:30:22Z</time></trkpt><trkpt lat="39.252261925084376" lon="16.955400024804085"><ele>264.6666666666667</ele><time>2026-03-28T14:30:23Z</time></trkpt><trkpt lat="39.252223009043036" lon="16.95529802372988"><ele>264.0</ele><time>2026-03-28T14:30:24Z</time></trkpt><trkpt lat="39.25217430854204" lon="16.9552060462178"><ele>266.6666666666667</ele><time>2026-03-28T14:30:25Z</time></trkpt><trkpt lat="39.2521154602368" lon="16.95512483345647"><ele>269.3333333333333</ele><time>2026-03-28T14:30:26Z</time></trkpt><trkpt lat="39.25205148982245" lon="16.955049201512853"><ele>272.0</ele><time>2026-03-28T14:30:27Z</time></trkpt><trkpt lat="39.25198410048493" lon="16.954983949958322"><ele>274.66666666666663</ele><time>2026-03-28T14:30:28Z</time></trkpt><trkpt lat="39.25191709790495" lon="16.95492088280802"><ele>277.3333333333333</ele><time>2026-03-28T14:30:29Z</time></trkpt><trkpt lat="39.251844756322924" lon="16.95485801040787"><ele>280.0</ele><time>2026-03-28T14:30:30Z</time></trkpt><trkpt lat="39.25177715700953" lon="16.95479742831207"><ele>280.16666666666663</ele><time>2026-03-28T14:30:31Z</time></trkpt><trkpt lat="39.25171548747277" lon="16.95473153100447"><ele>280.3333333333333</ele><time>2026-03-28T14:30:32Z</time></trkpt><trkpt lat="39.251663719406274" lon="16.954657378830863"><ele>280.5</ele><time>2026-03-28T14:30:33Z</time></trkpt><trkpt lat="39.25162845567622" lon="16.95458021697614"><ele>280.6666666666667</ele><time>2026-03-28T14:30:34Z</time></trkpt><trkpt lat="39.251598882723556" lon="16.954467037509435"><ele>280.83333333333337</ele><time>2026-03-28T14:30:36Z</time></trkpt><trkpt lat="39.251568135737145" lon="16.9543918988214"><ele>281.0</ele><time>2026-03-28T14:30:38Z</time></trkpt><trkpt lat="39.251396520069655" lon="16.954701633191572"><ele>283.25</ele><time>2026-03-28T14:30:40Z</time></trkpt><trkpt lat="39.25144051764601" lon="16.954374674141693"><ele>285.5</ele><time>2026-03-28T14:30:41Z</time></trkpt><trkpt lat="39.25139914726732" lon="16.954445378852533"><ele>287.75</ele><time>2026-03-28T14:30:42Z</time></trkpt><trkpt lat="39.25139115751004" lon="16.954549675829053"><ele>290.0</ele><time>2026-03-28T14:30:43Z</time></trkpt><trkpt lat="39.251385814592574" lon="16.954657046713056"><ele>290.0</ele><time>2026-03-28T14:30:44Z</time></trkpt><trkpt lat="39.25135353420336" lon="16.954768299000694"><ele>290.0</ele><time>2026-03-28T14:30:45Z</time></trkpt><trkpt lat="39.2513402200119" lon="16.954863500223677"><ele>290.0</ele><time>2026-03-28T14:30:46Z</time></trkpt><trkpt lat="39.25132848188485" lon="16.954959079872708"><ele>290.0</ele><time>2026-03-28T14:30:47Z</time></trkpt><trkpt lat="39.25131848553272" lon="16.955061633287215"><ele>290.0</ele><time>2026-03-28T14:30:48Z</time></trkpt><trkpt lat="39.2513108192412" lon="16.955168879397952"><ele>290.0</ele><time>2026-03-28T14:30:49Z</time></trkpt><trkpt lat="39.2513029893658" lon="16.955278413934114"><ele>289.83333333333337</ele><time>2026-03-28T14:30:50Z</time></trkpt><trkpt lat="39.251293521531665" lon="16.95538808461119"><ele>289.6666666666667</ele><time>2026-03-28T14:30:51Z</time></trkpt><trkpt lat="39.25129398343101" lon="16.95549559630362"><ele>289.5</ele><time>2026-03-28T14:30:52Z</time></trkpt><trkpt lat="39.25126812359794" lon="16.955595403955467"><ele>289.3333333333333</ele><time>2026-03-28T14:30:53Z</time></trkpt><trkpt lat="39.25122038900107" lon="16.95568901455853"><ele>289.16666666666663</ele><time>2026-03-28T14:30:54Z</time></trkpt><trkpt lat="39.251141510230994" lon="16.955746724606506"><ele>289.0</ele><time>2026-03-28T14:30:55Z</time></trkpt><trkpt lat="39.25107555178749" lon="16.955821061576216"><ele>289.0</ele><time>2026-03-28T14:30:56Z</time></trkpt><trkpt lat="39.25099349547426" lon="16.955864748942208"><ele>289.0</ele><time>2026-03-28T14:30:57Z</time></trkpt><trkpt lat="39.250906282942736" lon="16.95589515260972"><ele>289.0</ele><time>2026-03-28T14:30:58Z</time></trkpt><trkpt lat="39.25081203263207" lon="16.955888927235254"><ele>289.0</ele><time>2026-03-28T14:30:59Z</time></trkpt><trkpt lat="39.250722254657965" lon="16.95584997429913"><ele>289.0</ele><time>2026-03-28T14:31:00Z</time></trkpt><trkpt lat="39.250655172656366" lon="16.955812446016292"><ele>289.0</ele><time>2026-03-28T14:31:01Z</time></trkpt><trkpt lat="39.25059355994648" lon="16.955773456526554"><ele>290.16666666666663</ele><time>2026-03-28T14:31:02Z</time></trkpt><trkpt lat="39.25054161461243" lon="16.9557204249058"><ele>291.3333333333333</ele><time>2026-03-28T14:31:02.999Z</time></trkpt><trkpt lat="39.25049234982378" lon="16.955662322260228"><ele>292.5</ele><time>2026-03-28T14:31:03.999Z</time></trkpt><trkpt lat="39.25043876814908" lon="16.955609710083465"><ele>293.6666666666667</ele><time>2026-03-28T14:31:04.999Z</time></trkpt><trkpt lat="39.250373320934315" lon="16.955558506803143"><ele>294.83333333333337</ele><time>2026-03-28T14:31:05.999Z</time></trkpt><trkpt lat="39.25029763685969" lon="16.955494605465766"><ele>296.0</ele><time>2026-03-28T14:31:06.999Z</time></trkpt><trkpt lat="39.25021624882887" lon="16.95542937843812"><ele>296.0</ele><time>2026-03-28T14:31:07.999Z</time></trkpt><trkpt lat="39.25012800006145" lon="16.955365334118532"><ele>296.0</ele><time>2026-03-28T14:31:08.999Z</time></trkpt><trkpt lat="39.25003169488349" lon="16.95530508454099"><ele>296.0</ele><time>2026-03-28T14:31:09.999Z</time></trkpt><trkpt lat="39.24991481378114" lon="16.955255038892915"><ele>296.0</ele><time>2026-03-28T14:31:10.999Z</time></trkpt><trkpt lat="39.24977755363068" lon="16.95521325677092"><ele>297.6</ele><time>2026-03-28T14:31:11.999Z</time></trkpt><trkpt lat="39.249658440687455" lon="16.955183050247072"><ele>299.20000000000005</ele><time>2026-03-28T14:31:12.999Z</time></trkpt><trkpt lat="39.24955837281806" lon="16.955159937347787"><ele>300.79999999999995</ele><time>2026-03-28T14:31:13.999Z</time></trkpt><trkpt lat="39.24947348556307" lon="16.955142083075646"><ele>302.4</ele><time>2026-03-28T14:31:14.999Z</time></trkpt><trkpt lat="39.24939494090215" lon="16.955119262954806"><ele>304.0</ele><time>2026-03-28T14:31:15.999Z</time></trkpt><trkpt lat="39.249325001090135" lon="16.95510094854981"><ele>304.0</ele><time>2026-03-28T14:31:16.999Z</time></trkpt><trkpt lat="39.2492576263596" lon="16.955108840302554"><ele>304.0</ele><time>2026-03-28T14:31:17.999Z</time></trkpt><trkpt lat="39.24919628863538" lon="16.95513511062106"><ele>304.0</ele><time>2026-03-28T14:31:18.999Z</time></trkpt><trkpt lat="39.24913470639064" lon="16.955185669001814"><ele>304.0</ele><time>2026-03-28T14:31:19.999Z</time></trkpt><trkpt lat="39.249084241029394" lon="16.955266961485425"><ele>304.0</ele><time>2026-03-28T14:31:20.999Z</time></trkpt><trkpt lat="39.24905421667038" lon="16.95536400415473"><ele>304.0</ele><time>2026-03-28T14:31:21.999Z</time></trkpt><trkpt lat="39.249026359571076" lon="16.955462669944186"><ele>304.0</ele><time>2026-03-28T14:31:22.999Z</time></trkpt><trkpt lat="39.248989714292954" lon="16.955561621541502"><ele>304.4</ele><time>2026-03-28T14:31:23.999Z</time></trkpt><trkpt lat="39.24895192583634" lon="16.95566147918437"><ele>304.79999999999995</ele><time>2026-03-28T14:31:24.999Z</time></trkpt><trkpt lat="39.24891001319221" lon="16.9557654155276"><ele>305.20000000000005</ele><time>2026-03-28T14:31:25.999Z</time></trkpt><trkpt lat="39.24886748496817" lon="16.955874874900196"><ele>305.6</ele><time>2026-03-28T14:31:26.999Z</time></trkpt><trkpt lat="39.24881849027154" lon="16.955973433852204"><ele>306.0</ele><time>2026-03-28T14:31:27.999Z</time></trkpt><trkpt lat="39.248748626880875" lon="16.956068415404555"><ele>303.6</ele><time>2026-03-28T14:31:28.999Z</time></trkpt><trkpt lat="39.24868987642676" lon="16.956127588170375"><ele>301.20000000000005</ele><time>2026-03-28T14:31:29.999Z</time></trkpt><trkpt lat="39.248639385279276" lon="16.956185631556128"><ele>298.79999999999995</ele><time>2026-03-28T14:31:30.999Z</time></trkpt><trkpt lat="39.24859044073179" lon="16.956244767755262"><ele>296.4</ele><time>2026-03-28T14:31:31.999Z</time></trkpt><trkpt lat="39.24849991700052" lon="16.956349130821682"><ele>294.0</ele><time>2026-03-28T14:31:33.999Z</time></trkpt><trkpt lat="39.248501363410284" lon="16.95650832364117"><ele>294.0</ele><time>2026-03-28T14:31:35.999Z</time></trkpt><trkpt lat="39.248525787320965" lon="16.956600384808382"><ele>294.0</ele><time>2026-03-28T14:31:36.999Z</time></trkpt><trkpt lat="39.248546918377144" lon="16.956704020940524"><ele>294.0</ele><time>2026-03-28T14:31:37.999Z</time></trkpt><trkpt lat="39.24856311386924" lon="16.956815351935234"><ele>294.0</ele><time>2026-03-28T14:31:39Z</time></trkpt><trkpt lat="39.24858220846955" lon="16.956934056762464"><ele>294.0</ele><time>2026-03-28T14:31:40Z</time></trkpt><trkpt lat="39.248602405228986" lon="16.957042616754848"><ele>294.0</ele><time>2026-03-28T14:31:41Z</time></trkpt><trkpt lat="39.248621863103466" lon="16.957136464529153"><ele>293.2</ele><time>2026-03-28T14:31:42Z</time></trkpt><trkpt lat="39.24863888710448" lon="16.957277114648008"><ele>292.4</ele><time>2026-03-28T14:31:44Z</time></trkpt><trkpt lat="39.24864867977971" lon="16.957381642661492"><ele>291.6</ele><time>2026-03-28T14:31:46Z</time></trkpt><trkpt lat="39.24869716700751" lon="16.957468085026974"><ele>290.8</ele><time>2026-03-28T14:31:49Z</time></trkpt><trkpt lat="39.248754737573776" lon="16.957374990093534"><ele>290.0</ele><time>2026-03-28T14:31:51Z</time></trkpt><trkpt lat="39.248736131884144" lon="16.957217652243575"><ele>290.0</ele><time>2026-03-28T14:31:53Z</time></trkpt><trkpt lat="39.24871810143618" lon="16.9571266141087"><ele>290.0</ele><time>2026-03-28T14:31:54Z</time></trkpt><trkpt lat="39.248706083134174" lon="16.957009604389107"><ele>290.0</ele><time>2026-03-28T14:31:56Z</time></trkpt><trkpt lat="39.24869467222518" lon="16.956914236417166"><ele>290.0</ele><time>2026-03-28T14:32:00Z</time></trkpt><trkpt lat="39.2486863949429" lon="16.956830556608466"><ele>290.0</ele><time>2026-03-28T14:32:12Z</time></trkpt><trkpt lat="39.24900977759752" lon="16.956680836989648"><ele>290.0</ele><time>2026-03-28T14:32:41Z</time></trkpt><trkpt lat="39.24910398311468" lon="16.956615226955694"><ele>290.0</ele><time>2026-03-28T14:32:43Z</time></trkpt><trkpt lat="39.249041692865426" lon="16.956654988103146"><ele>290.0</ele><time>2026-03-28T14:33:45Z</time></trkpt><trkpt lat="39.248988212494346" lon="16.95670699794563"><ele>290.0</ele><time>2026-03-28T14:33:53Z</time></trkpt><trkpt lat="39.248927136300914" lon="16.956740322977193"><ele>290.0</ele><time>2026-03-28T14:34:00Z</time></trkpt><trkpt lat="39.2488613627368" lon="16.956763682684695"><ele>290.0</ele><time>2026-03-28T14:34:10Z</time></trkpt><trkpt lat="39.248887201566056" lon="16.95668278776745"><ele>290.0</ele><time>2026-03-28T14:35:20.999Z</time></trkpt><trkpt lat="39.24884169884234" lon="16.95674645911219"><ele>290.0</ele><time>2026-03-28T14:35:26.999Z</time></trkpt><trkpt lat="39.24885111058701" lon="16.956832357124366"><ele>290.0</ele><time>2026-03-28T14:35:35.999Z</time></trkpt><trkpt lat="39.2488595757534" lon="16.95669894296634"><ele>290.0</ele><time>2026-03-28T14:35:41.999Z</time></trkpt><trkpt lat="39.24891214501454" lon="16.95676661493945"><ele>290.0</ele><time>2026-03-28T14:43:14Z</time></trkpt><trkpt lat="39.2488553242611" lon="16.956802322960307"><ele>290.0</ele><time>2026-03-28T14:43:25Z</time></trkpt><trkpt lat="39.24888965988151" lon="16.956733759090927"><ele>290.0</ele><time>2026-03-28T14:47:51Z</time></trkpt><trkpt lat="39.24895681506794" lon="16.956745920070333"><ele>290.0</ele><time>2026-03-28T14:51:01Z</time></trkpt><trkpt lat="39.24901786093902" lon="16.956705518847848"><ele>289.6666666666667</ele><time>2026-03-28T14:51:06Z</time></trkpt><trkpt lat="39.24907878190455" lon="16.956677958056833"><ele>289.33333333333337</ele><time>2026-03-28T14:51:11Z</time></trkpt><trkpt lat="39.249145907118965" lon="16.956651147741134"><ele>289.0</ele><time>2026-03-28T14:51:16Z</time></trkpt><trkpt lat="39.24918673228903" lon="16.95655046221262"><ele>288.6666666666667</ele><time>2026-03-28T14:53:36Z</time></trkpt><trkpt lat="39.24926643050649" lon="16.95657229201174"><ele>288.3333333333333</ele><time>2026-03-28T14:53:38Z</time></trkpt><trkpt lat="39.249351978526704" lon="16.956622201376895"><ele>288.0</ele><time>2026-03-28T14:53:40Z</time></trkpt><trkpt lat="39.249408203287956" lon="16.95667312279803"><ele>262.0</ele><time>2026-03-28T14:53:41Z</time></trkpt><trkpt lat="39.25051585396745" lon="16.9575997631145"><ele>261.8</ele><time>2026-03-28T14:55:05Z</time></trkpt><trkpt lat="39.25055881617428" lon="16.957452617492166"><ele>261.6</ele><time>2026-03-28T14:55:07Z</time></trkpt><trkpt lat="39.25057863667418" lon="16.95728394375252"><ele>261.40000000000003</ele><time>2026-03-28T14:55:09Z</time></trkpt><trkpt lat="39.25060274471351" lon="16.957196319062618"><ele>261.2</ele><time>2026-03-28T14:55:10Z</time></trkpt><trkpt lat="39.25064783910176" lon="16.957113287762482"><ele>261.0</ele><time>2026-03-28T14:55:11Z</time></trkpt><trkpt lat="39.25075353116316" lon="16.957089371178068"><ele>261.0</ele><time>2026-03-28T14:55:12Z</time></trkpt><trkpt lat="39.25087597380997" lon="16.95708228143522"><ele>261.0</ele><time>2026-03-28T14:55:13Z</time></trkpt><trkpt lat="39.2509956271718" lon="16.957029571223114"><ele>261.0</ele><time>2026-03-28T14:55:14Z</time></trkpt><trkpt lat="39.251085795936845" lon="16.95697184203041"><ele>261.0</ele><time>2026-03-28T14:55:15Z</time></trkpt><trkpt lat="39.251144266414556" lon="16.956929788370346"><ele>261.0</ele><time>2026-03-28T14:55:16Z</time></trkpt><trkpt lat="39.25123917620874" lon="16.956869627625625"><ele>261.0</ele><time>2026-03-28T14:55:18Z</time></trkpt><trkpt lat="39.251316220039584" lon="16.956823292212928"><ele>261.0</ele><time>2026-03-28T14:55:20Z</time></trkpt><trkpt lat="39.251385995814246" lon="16.95682796054326"><ele>261.0</ele><time>2026-03-28T14:55:21Z</time></trkpt><trkpt lat="39.251478056206814" lon="16.95675804373959"><ele>261.0</ele><time>2026-03-28T14:55:22Z</time></trkpt><trkpt lat="39.25157151553625" lon="16.956668639403606"><ele>261.0</ele><time>2026-03-28T14:55:23Z</time></trkpt><trkpt lat="39.25168070430667" lon="16.95656418809018"><ele>263.3333333333333</ele><time>2026-03-28T14:55:24Z</time></trkpt><trkpt lat="39.25179518329527" lon="16.95645467609038"><ele>265.66666666666663</ele><time>2026-03-28T14:55:25Z</time></trkpt><trkpt lat="39.25191917140212" lon="16.95633606755076"><ele>268.0</ele><time>2026-03-28T14:55:26Z</time></trkpt><trkpt lat="39.252050117070105" lon="16.956210803325316"><ele>268.0</ele><time>2026-03-28T14:55:27Z</time></trkpt><trkpt lat="39.25216891923092" lon="16.956090653697775"><ele>268.0</ele><time>2026-03-28T14:55:28Z</time></trkpt><trkpt lat="39.252245568541056" lon="16.955982767240275"><ele>268.0</ele><time>2026-03-28T14:55:29Z</time></trkpt><trkpt lat="39.252271645761056" lon="16.955882323273045"><ele>268.0</ele><time>2026-03-28T14:55:30Z</time></trkpt><trkpt lat="39.25231798962477" lon="16.955796469144424"><ele>268.0</ele><time>2026-03-28T14:55:32Z</time></trkpt><trkpt lat="39.25237934011167" lon="16.9557550953845"><ele>267.3333333333333</ele><time>2026-03-28T14:55:39Z</time></trkpt><trkpt lat="39.25239292874904" lon="16.955667271262545"><ele>266.66666666666663</ele><time>2026-03-28T14:55:40Z</time></trkpt><trkpt lat="39.2523976077066" lon="16.955559100637622"><ele>266.0</ele><time>2026-03-28T14:55:41Z</time></trkpt><trkpt lat="39.25239504376065" lon="16.955397745426282"><ele>265.3333333333333</ele><time>2026-03-28T14:55:43Z</time></trkpt><trkpt lat="39.25241462149699" lon="16.95530741417918"><ele>264.6666666666667</ele><time>2026-03-28T14:55:44Z</time></trkpt><trkpt lat="39.25241698728581" lon="16.95522004218718"><ele>264.0</ele><time>2026-03-28T14:55:45Z</time></trkpt><trkpt lat="39.25241349683002" lon="16.955070845252717"><ele>263.8</ele><time>2026-03-28T14:55:47Z</time></trkpt><trkpt lat="39.25240607708334" lon="16.95497109900572"><ele>263.59999999999997</ele><time>2026-03-28T14:55:49Z</time></trkpt><trkpt lat="39.25238764936662" lon="16.954845489203606"><ele>263.4</ele><time>2026-03-28T14:55:51Z</time></trkpt><trkpt lat="39.2523611716106" lon="16.95471260483292"><ele>263.2</ele><time>2026-03-28T14:55:53Z</time></trkpt><trkpt lat="39.252337898826035" lon="16.95458008707376"><ele>263.0</ele><time>2026-03-28T14:55:55Z</time></trkpt><trkpt lat="39.252356831208324" lon="16.95450184117399"><ele>263.0</ele><time>2026-03-28T14:55:56Z</time></trkpt><trkpt lat="39.252463841927" lon="16.954412193432553"><ele>263.0</ele><time>2026-03-28T14:55:58Z</time></trkpt><trkpt lat="39.25252337322888" lon="16.954350839109512"><ele>263.0</ele><time>2026-03-28T14:55:59Z</time></trkpt><trkpt lat="39.2525700600993" lon="16.95426263992507"><ele>263.0</ele><time>2026-03-28T14:56:00Z</time></trkpt><trkpt lat="39.252630773855365" lon="16.954194814807526"><ele>263.0</ele><time>2026-03-28T14:56:01Z</time></trkpt><trkpt lat="39.25266565953869" lon="16.95410381515922"><ele>263.0</ele><time>2026-03-28T14:56:02Z</time></trkpt><trkpt lat="39.25268485274632" lon="16.953997777337204"><ele>262.0</ele><time>2026-03-28T14:56:03Z</time></trkpt><trkpt lat="39.25267169724457" lon="16.953884143426862"><ele>261.0</ele><time>2026-03-28T14:56:04Z</time></trkpt><trkpt lat="39.25266562657948" lon="16.953778329791692"><ele>260.0</ele><time>2026-03-28T14:56:05Z</time></trkpt><trkpt lat="39.252670537341224" lon="16.953671489370905"><ele>259.0</ele><time>2026-03-28T14:56:06Z</time></trkpt><trkpt lat="39.252638633904894" lon="16.95356918487267"><ele>258.0</ele><time>2026-03-28T14:56:07Z</time></trkpt><trkpt lat="39.25262611036681" lon="16.953463616524793"><ele>257.0</ele><time>2026-03-28T14:56:08Z</time></trkpt><trkpt lat="39.25261454236974" lon="16.953360024553728"><ele>256.0</ele><time>2026-03-28T14:56:09Z</time></trkpt><trkpt lat="39.252630331594" lon="16.95325528741093"><ele>255.0</ele><time>2026-03-28T14:56:10Z</time></trkpt><trkpt lat="39.25266387936544" lon="16.953161935269662"><ele>254.0</ele><time>2026-03-28T14:56:11Z</time></trkpt><trkpt lat="39.25270944304459" lon="16.953080240410415"><ele>253.0</ele><time>2026-03-28T14:56:12Z</time></trkpt><trkpt lat="39.25272896701514" lon="16.95297992907098"><ele>252.00000000000003</ele><time>2026-03-28T14:56:13Z</time></trkpt><trkpt lat="39.25271664482375" lon="16.95287801705698"><ele>251.0</ele><time>2026-03-28T14:56:14Z</time></trkpt><trkpt lat="39.25272420969222" lon="16.952779925018163"><ele>251.00000000000003</ele><time>2026-03-28T14:56:15Z</time></trkpt><trkpt lat="39.25273393735705" lon="16.9526758344"><ele>251.0</ele><time>2026-03-28T14:56:16Z</time></trkpt><trkpt lat="39.252745985313126" lon="16.952573776089945"><ele>251.0</ele><time>2026-03-28T14:56:17Z</time></trkpt><trkpt lat="39.252760627911506" lon="16.952470204653505"><ele>251.0</ele><time>2026-03-28T14:56:18Z</time></trkpt><trkpt lat="39.25276419251372" lon="16.95236723128224"><ele>251.00000000000003</ele><time>2026-03-28T14:56:19Z</time></trkpt><trkpt lat="39.25276391506981" lon="16.952271330590055"><ele>251.0</ele><time>2026-03-28T14:56:20Z</time></trkpt><trkpt lat="39.25275471167778" lon="16.952185397507836"><ele>249.20000000000002</ele><time>2026-03-28T14:56:21Z</time></trkpt><trkpt lat="39.25279441164609" lon="16.952061845034596"><ele>247.40000000000003</ele><time>2026-03-28T14:56:23Z</time></trkpt><trkpt lat="39.252891788933034" lon="16.952033044576016"><ele>245.6</ele><time>2026-03-28T14:56:25Z</time></trkpt><trkpt lat="39.2529736902924" lon="16.952049431835245"><ele>243.8</ele><time>2026-03-28T14:56:26Z</time></trkpt><trkpt lat="39.2530687580324" lon="16.952053197295417"><ele>242.0</ele><time>2026-03-28T14:56:27Z</time></trkpt><trkpt lat="39.253171886786404" lon="16.95204078679104"><ele>239.66666666666669</ele><time>2026-03-28T14:56:28Z</time></trkpt><trkpt lat="39.25326325312007" lon="16.9520282070244"><ele>237.33333333333334</ele><time>2026-03-28T14:56:29Z</time></trkpt><trkpt lat="39.25334207753526" lon="16.95200456879948"><ele>235.0</ele><time>2026-03-28T14:56:30Z</time></trkpt><trkpt lat="39.253410157335495" lon="16.951958191776246"><ele>232.66666666666669</ele><time>2026-03-28T14:56:31Z</time></trkpt><trkpt lat="39.25345702697119" lon="16.951885322222"><ele>230.33333333333334</ele><time>2026-03-28T14:56:32Z</time></trkpt><trkpt lat="39.253486659445066" lon="16.95179131453557"><ele>228.0</ele><time>2026-03-28T14:56:33Z</time></trkpt><trkpt lat="39.253510485439996" lon="16.951691204541742"><ele>228.0</ele><time>2026-03-28T14:56:34Z</time></trkpt><trkpt lat="39.25354351850319" lon="16.951586653699206"><ele>228.0</ele><time>2026-03-28T14:56:35Z</time></trkpt><trkpt lat="39.25360610716963" lon="16.9515045479696"><ele>228.0</ele><time>2026-03-28T14:56:36Z</time></trkpt><trkpt lat="39.253646049201215" lon="16.951410860231558"><ele>228.0</ele><time>2026-03-28T14:56:37Z</time></trkpt><trkpt lat="39.25371063539513" lon="16.9513534382672"><ele>228.0</ele><time>2026-03-28T14:56:38Z</time></trkpt><trkpt lat="39.2537883146783" lon="16.95133604225959"><ele>228.0</ele><time>2026-03-28T14:56:39Z</time></trkpt><trkpt lat="39.25386890745232" lon="16.95137761028227"><ele>228.0</ele><time>2026-03-28T14:56:40Z</time></trkpt><trkpt lat="39.25394512394239" lon="16.95137927521005"><ele>228.0</ele><time>2026-03-28T14:56:41Z</time></trkpt><trkpt lat="39.25401951654534" lon="16.951375013854694"><ele>228.0</ele><time>2026-03-28T14:56:42Z</time></trkpt><trkpt lat="39.25409423788843" lon="16.951342822451064"><ele>228.0</ele><time>2026-03-28T14:56:43Z</time></trkpt><trkpt lat="39.254174420401455" lon="16.951350317845236"><ele>228.0</ele><time>2026-03-28T14:56:44Z</time></trkpt><trkpt lat="39.25425008034891" lon="16.95139070274827"><ele>228.0</ele><time>2026-03-28T14:56:45Z</time></trkpt><trkpt lat="39.25429605149174" lon="16.95147765106312"><ele>226.16666666666666</ele><time>2026-03-28T14:56:46Z</time></trkpt><trkpt lat="39.254344537447636" lon="16.95153021589069"><ele>224.33333333333331</ele><time>2026-03-28T14:56:47Z</time></trkpt><trkpt lat="39.25444201908438" lon="16.951586452145275"><ele>222.5</ele><time>2026-03-28T14:56:49Z</time></trkpt><trkpt lat="39.254506970841106" lon="16.951598254567248"><ele>220.66666666666666</ele><time>2026-03-28T14:56:50Z</time></trkpt><trkpt lat="39.254582541676655" lon="16.95158581289166"><ele>218.83333333333331</ele><time>2026-03-28T14:56:51Z</time></trkpt><trkpt lat="39.25466560454636" lon="16.951559846821908"><ele>217.0</ele><time>2026-03-28T14:56:52Z</time></trkpt><trkpt lat="39.254746935652186" lon="16.9515934899086"><ele>217.66666666666666</ele><time>2026-03-28T14:56:53Z</time></trkpt><trkpt lat="39.25480107375408" lon="16.951661077487056"><ele>218.33333333333331</ele><time>2026-03-28T14:56:55Z</time></trkpt><trkpt lat="39.25478076148523" lon="16.951769848087736"><ele>219.0</ele><time>2026-03-28T14:56:57Z</time></trkpt><trkpt lat="39.25474613522972" lon="16.9518478132838"><ele>219.66666666666669</ele><time>2026-03-28T14:56:58Z</time></trkpt><trkpt lat="39.25470918546734" lon="16.952002302865264"><ele>220.33333333333334</ele><time>2026-03-28T14:57:00Z</time></trkpt><trkpt lat="39.254717385539244" lon="16.952103082329053"><ele>221.0</ele><time>2026-03-28T14:57:01Z</time></trkpt><trkpt lat="39.254762642921705" lon="16.952184663332503"><ele>219.57142857142858</ele><time>2026-03-28T14:57:02Z</time></trkpt><trkpt lat="39.25482993651733" lon="16.95222229009055"><ele>218.14285714285714</ele><time>2026-03-28T14:57:03Z</time></trkpt><trkpt lat="39.25488868135949" lon="16.95227203582745"><ele>216.71428571428572</ele><time>2026-03-28T14:57:04Z</time></trkpt><trkpt lat="39.254945136692974" lon="16.95232748789651"><ele>215.28571428571428</ele><time>2026-03-28T14:57:05Z</time></trkpt><trkpt lat="39.255002398481274" lon="16.95239350538849"><ele>213.85714285714286</ele><time>2026-03-28T14:57:06Z</time></trkpt><trkpt lat="39.25506525704216" lon="16.95245879416108"><ele>212.42857142857144</ele><time>2026-03-28T14:57:07Z</time></trkpt><trkpt lat="39.255121353501956" lon="16.952518687607363"><ele>211.0</ele><time>2026-03-28T14:57:08Z</time></trkpt><trkpt lat="39.25517497220614" lon="16.95256690182664"><ele>209.8</ele><time>2026-03-28T14:57:09Z</time></trkpt><trkpt lat="39.25523497450766" lon="16.95260074712119"><ele>208.60000000000002</ele><time>2026-03-28T14:57:10Z</time></trkpt><trkpt lat="39.25534997486395" lon="16.952654778460737"><ele>207.4</ele><time>2026-03-28T14:57:12Z</time></trkpt><trkpt lat="39.25544219303361" lon="16.952683216846108"><ele>206.2</ele><time>2026-03-28T14:57:14Z</time></trkpt><trkpt lat="39.25551316248569" lon="16.9526920817613"><ele>205.0</ele><time>2026-03-28T14:57:16Z</time></trkpt><trkpt lat="39.255617377890545" lon="16.95271435193157"><ele>205.0</ele><time>2026-03-28T14:57:18Z</time></trkpt><trkpt lat="39.255689463464385" lon="16.95272329257187"><ele>205.0</ele><time>2026-03-28T14:57:19Z</time></trkpt><trkpt lat="39.2557569407199" lon="16.952731661651335"><ele>205.0</ele><time>2026-03-28T14:57:20Z</time></trkpt><trkpt lat="39.25587244090716" lon="16.95271980503107"><ele>205.0</ele><time>2026-03-28T14:57:22Z</time></trkpt><trkpt lat="39.25599983639485" lon="16.95271038829727"><ele>205.0</ele><time>2026-03-28T14:57:24Z</time></trkpt><trkpt lat="39.256068497945805" lon="16.95269117928279"><ele>205.0</ele><time>2026-03-28T14:57:25Z</time></trkpt><trkpt lat="39.25613880794919" lon="16.952677664913267"><ele>205.0</ele><time>2026-03-28T14:57:26Z</time></trkpt><trkpt lat="39.25620328851928" lon="16.952639573829007"><ele>205.0</ele><time>2026-03-28T14:57:27Z</time></trkpt><trkpt lat="39.25626314872313" lon="16.952582832056947"><ele>205.0</ele><time>2026-03-28T14:57:28Z</time></trkpt><trkpt lat="39.256330951326454" lon="16.952544634789213"><ele>205.0</ele><time>2026-03-28T14:57:29Z</time></trkpt><trkpt lat="39.25639877187495" lon="16.952503643356362"><ele>205.0</ele><time>2026-03-28T14:57:30Z</time></trkpt><trkpt lat="39.25647047413338" lon="16.952458975267188"><ele>205.0</ele><time>2026-03-28T14:57:31Z</time></trkpt><trkpt lat="39.25654199689763" lon="16.95241137808454"><ele>203.99999999999997</ele><time>2026-03-28T14:57:32Z</time></trkpt><trkpt lat="39.2566035120065" lon="16.9523580843012"><ele>203.0</ele><time>2026-03-28T14:57:33Z</time></trkpt><trkpt lat="39.256667557228134" lon="16.95230441041777"><ele>202.0</ele><time>2026-03-28T14:57:34Z</time></trkpt><trkpt lat="39.256725925439135" lon="16.952264074990364"><ele>201.0</ele><time>2026-03-28T14:57:35Z</time></trkpt><trkpt lat="39.25681899697922" lon="16.952212812748105"><ele>199.99999999999997</ele><time>2026-03-28T14:57:37Z</time></trkpt><trkpt lat="39.25688696453483" lon="16.95219604967426"><ele>199.0</ele><time>2026-03-28T14:57:39Z</time></trkpt><trkpt lat="39.25697319546259" lon="16.95227047427033"><ele>198.99999999999997</ele><time>2026-03-28T14:57:42Z</time></trkpt><trkpt lat="39.25699811557671" lon="16.952350895285086"><ele>199.0</ele><time>2026-03-28T14:57:43Z</time></trkpt><trkpt lat="39.257022199423275" lon="16.952436658642945"><ele>199.0</ele><time>2026-03-28T14:57:44Z</time></trkpt><trkpt lat="39.25704649763897" lon="16.952527184047984"><ele>199.0</ele><time>2026-03-28T14:57:45Z</time></trkpt><trkpt lat="39.25706890494337" lon="16.95261621002154"><ele>199.0</ele><time>2026-03-28T14:57:46Z</time></trkpt><trkpt lat="39.25708635272319" lon="16.952698583179554"><ele>198.99999999999997</ele><time>2026-03-28T14:57:47Z</time></trkpt><trkpt lat="39.25710147821574" lon="16.95277942434354"><ele>199.0</ele><time>2026-03-28T14:57:48Z</time></trkpt><trkpt lat="39.257102350366225" lon="16.95286272728905"><ele>198.99999999999997</ele><time>2026-03-28T14:57:49Z</time></trkpt><trkpt lat="39.25708771635261" lon="16.953023151499146"><ele>199.0</ele><time>2026-03-28T14:57:51Z</time></trkpt><trkpt lat="39.257078844290945" lon="16.953104584524464"><ele>199.0</ele><time>2026-03-28T14:57:52Z</time></trkpt><trkpt lat="39.25705269228967" lon="16.953185302484066"><ele>199.0</ele><time>2026-03-28T14:57:53Z</time></trkpt><trkpt lat="39.25705884695904" lon="16.95327124725723"><ele>198.99999999999997</ele><time>2026-03-28T14:57:54Z</time></trkpt><trkpt lat="39.257047004618435" lon="16.953355922980986"><ele>199.0</ele><time>2026-03-28T14:57:55Z</time></trkpt><trkpt lat="39.25703415094573" lon="16.953442780249105"><ele>197.83333333333331</ele><time>2026-03-28T14:57:56Z</time></trkpt><trkpt lat="39.25702261628408" lon="16.95353218338844"><ele>196.66666666666666</ele><time>2026-03-28T14:57:57Z</time></trkpt><trkpt lat="39.257017458486246" lon="16.953627262766506"><ele>195.5</ele><time>2026-03-28T14:57:58Z</time></trkpt><trkpt lat="39.25702443829197" lon="16.95373266529611"><ele>194.33333333333331</ele><time>2026-03-28T14:57:59Z</time></trkpt><trkpt lat="39.25708534406777" lon="16.953811870039814"><ele>193.16666666666666</ele><time>2026-03-28T14:58:00Z</time></trkpt><trkpt lat="39.257157713293644" lon="16.953872820010442"><ele>192.0</ele><time>2026-03-28T14:58:01Z</time></trkpt><trkpt lat="39.25723864122651" lon="16.953929499313336"><ele>190.83333333333334</ele><time>2026-03-28T14:58:02Z</time></trkpt><trkpt lat="39.257309951916206" lon="16.954009737418428"><ele>189.66666666666666</ele><time>2026-03-28T14:58:03Z</time></trkpt><trkpt lat="39.25738287334824" lon="16.954073200362508"><ele>188.5</ele><time>2026-03-28T14:58:04Z</time></trkpt><trkpt lat="39.25746018260215" lon="16.954118407232773"><ele>187.33333333333331</ele><time>2026-03-28T14:58:05Z</time></trkpt><trkpt lat="39.257536233575635" lon="16.95417379997607"><ele>186.16666666666666</ele><time>2026-03-28T14:58:06Z</time></trkpt><trkpt lat="39.25761098558807" lon="16.954234195770432"><ele>185.0</ele><time>2026-03-28T14:58:07Z</time></trkpt><trkpt lat="39.25769820235585" lon="16.95425782935327"><ele>183.83333333333331</ele><time>2026-03-28T14:58:08Z</time></trkpt><trkpt lat="39.25778067120474" lon="16.95424850687995"><ele>182.66666666666666</ele><time>2026-03-28T14:58:09Z</time></trkpt><trkpt lat="39.25786210164495" lon="16.954266389051362"><ele>181.5</ele><time>2026-03-28T14:58:10Z</time></trkpt><trkpt lat="39.257943881982506" lon="16.954294969350276"><ele>180.33333333333334</ele><time>2026-03-28T14:58:11Z</time></trkpt><trkpt lat="39.25802430680025" lon="16.954326579406278"><ele>179.16666666666669</ele><time>2026-03-28T14:58:12Z</time></trkpt><trkpt lat="39.258104459823265" lon="16.954365016741605"><ele>178.0</ele><time>2026-03-28T14:58:13Z</time></trkpt><trkpt lat="39.258184775405155" lon="16.95440657291532"><ele>176.66666666666669</ele><time>2026-03-28T14:58:14Z</time></trkpt><trkpt lat="39.25825941142573" lon="16.954463464984073"><ele>175.33333333333334</ele><time>2026-03-28T14:58:15Z</time></trkpt><trkpt lat="39.25832785175621" lon="16.954531930398783"><ele>174.0</ele><time>2026-03-28T14:58:16Z</time></trkpt><trkpt lat="39.25838991458299" lon="16.954607046920025"><ele>172.66666666666666</ele><time>2026-03-28T14:58:17Z</time></trkpt><trkpt lat="39.258462918639154" lon="16.95465975339692"><ele>171.33333333333331</ele><time>2026-03-28T14:58:18Z</time></trkpt><trkpt lat="39.25853643262014" lon="16.95470329782488"><ele>170.0</ele><time>2026-03-28T14:58:19Z</time></trkpt><trkpt lat="39.258603669400316" lon="16.954747792689755"><ele>170.0</ele><time>2026-03-28T14:58:20Z</time></trkpt><trkpt lat="39.25866902583482" lon="16.954793572000984"><ele>170.0</ele><time>2026-03-28T14:58:21Z</time></trkpt><trkpt lat="39.258739681445206" lon="16.954842712848"><ele>170.0</ele><time>2026-03-28T14:58:22Z</time></trkpt><trkpt lat="39.25881602435058" lon="16.95489232184556"><ele>170.0</ele><time>2026-03-28T14:58:23Z</time></trkpt><trkpt lat="39.25889794076416" lon="16.95494238375688"><ele>170.0</ele><time>2026-03-28T14:58:24Z</time></trkpt><trkpt lat="39.258983274700036" lon="16.954993927377295"><ele>170.0</ele><time>2026-03-28T14:58:25Z</time></trkpt><trkpt lat="39.25907379536206" lon="16.955039934981322"><ele>168.5</ele><time>2026-03-28T14:58:26Z</time></trkpt><trkpt lat="39.25916115574309" lon="16.955075905921895"><ele>167.0</ele><time>2026-03-28T14:58:27Z</time></trkpt><trkpt lat="39.25925085478981" lon="16.955111525966064"><ele>165.5</ele><time>2026-03-28T14:58:28Z</time></trkpt><trkpt lat="39.25933375975579" lon="16.955148203365404"><ele>164.0</ele><time>2026-03-28T14:58:29Z</time></trkpt><trkpt lat="39.25941279391344" lon="16.955181981478297"><ele>162.5</ele><time>2026-03-28T14:58:30Z</time></trkpt><trkpt lat="39.25949111681895" lon="16.955209978725843"><ele>161.0</ele><time>2026-03-28T14:58:31Z</time></trkpt><trkpt lat="39.25957550528103" lon="16.95521519453993"><ele>161.0</ele><time>2026-03-28T14:58:32Z</time></trkpt><trkpt lat="39.259661489235135" lon="16.95518906982528"><ele>161.0</ele><time>2026-03-28T14:58:33Z</time></trkpt><trkpt lat="39.259749072649235" lon="16.95511905386452"><ele>161.0</ele><time>2026-03-28T14:58:34Z</time></trkpt><trkpt lat="39.25983888923952" lon="16.95505601974388"><ele>161.0</ele><time>2026-03-28T14:58:35Z</time></trkpt><trkpt lat="39.259928336109084" lon="16.95500994984881"><ele>161.0</ele><time>2026-03-28T14:58:36Z</time></trkpt><trkpt lat="39.260017605820224" lon="16.954996863540032"><ele>159.83333333333331</ele><time>2026-03-28T14:58:37Z</time></trkpt><trkpt lat="39.260096779709954" lon="16.95501856422884"><ele>158.66666666666666</ele><time>2026-03-28T14:58:38Z</time></trkpt><trkpt lat="39.260165318086" lon="16.95508789384634"><ele>157.5</ele><time>2026-03-28T14:58:39Z</time></trkpt><trkpt lat="39.260232201350306" lon="16.955164428769656"><ele>156.33333333333334</ele><time>2026-03-28T14:58:40Z</time></trkpt><trkpt lat="39.260304358082045" lon="16.955212287740864"><ele>155.16666666666669</ele><time>2026-03-28T14:58:41Z</time></trkpt><trkpt lat="39.26037492430884" lon="16.955254271183488"><ele>154.0</ele><time>2026-03-28T14:58:42Z</time></trkpt><trkpt lat="39.260444852775045" lon="16.95530502658823"><ele>153.66666666666669</ele><time>2026-03-28T14:58:43Z</time></trkpt><trkpt lat="39.26051666117938" lon="16.95536275180906"><ele>153.33333333333334</ele><time>2026-03-28T14:58:44Z</time></trkpt><trkpt lat="39.260593427125514" lon="16.955417768812648"><ele>153.0</ele><time>2026-03-28T14:58:45Z</time></trkpt><trkpt lat="39.260661985801086" lon="16.95546891340935"><ele>152.66666666666666</ele><time>2026-03-28T14:58:46Z</time></trkpt><trkpt lat="39.26072847572757" lon="16.955519033263286"><ele>152.33333333333331</ele><time>2026-03-28T14:58:47Z</time></trkpt><trkpt lat="39.26079747975327" lon="16.955570261339496"><ele>152.0</ele><time>2026-03-28T14:58:48Z</time></trkpt><trkpt lat="39.26086776149916" lon="16.95561996678618"><ele>150.5</ele><time>2026-03-28T14:58:49Z</time></trkpt><trkpt lat="39.26093836867484" lon="16.95567297467374"><ele>149.0</ele><time>2026-03-28T14:58:50Z</time></trkpt><trkpt lat="39.26100688812974" lon="16.955736167596356"><ele>147.5</ele><time>2026-03-28T14:58:51Z</time></trkpt><trkpt lat="39.26107361584561" lon="16.95581123337007"><ele>146.0</ele><time>2026-03-28T14:58:52Z</time></trkpt><trkpt lat="39.26113881682246" lon="16.95589391174581"><ele>144.5</ele><time>2026-03-28T14:58:53Z</time></trkpt><trkpt lat="39.26120670550011" lon="16.95597855848783"><ele>143.0</ele><time>2026-03-28T14:58:54Z</time></trkpt><trkpt lat="39.26127772910062" lon="16.95606325114392"><ele>142.83333333333331</ele><time>2026-03-28T14:58:55Z</time></trkpt><trkpt lat="39.261340732914206" lon="16.956146606725405"><ele>142.66666666666666</ele><time>2026-03-28T14:58:56Z</time></trkpt><trkpt lat="39.26139383617074" lon="16.956230468458635"><ele>142.5</ele><time>2026-03-28T14:58:57Z</time></trkpt><trkpt lat="39.2614341350598" lon="16.956316598340905"><ele>142.33333333333334</ele><time>2026-03-28T14:58:58Z</time></trkpt><trkpt lat="39.261460057637315" lon="16.956402441756577"><ele>142.16666666666669</ele><time>2026-03-28T14:58:59Z</time></trkpt><trkpt lat="39.261476315136626" lon="16.956491948810307"><ele>142.0</ele><time>2026-03-28T14:59:00Z</time></trkpt><trkpt lat="39.26148244361633" lon="16.956576725569175"><ele>140.66666666666669</ele><time>2026-03-28T14:59:01Z</time></trkpt><trkpt lat="39.261491993500925" lon="16.95665799857649"><ele>139.33333333333334</ele><time>2026-03-28T14:59:02Z</time></trkpt><trkpt lat="39.26153470956193" lon="16.956718472778817"><ele>138.0</ele><time>2026-03-28T14:59:03Z</time></trkpt><trkpt lat="39.26159910883876" lon="16.956735039570358"><ele>136.66666666666666</ele><time>2026-03-28T14:59:04Z</time></trkpt><trkpt lat="39.261682176171675" lon="16.95672514298465"><ele>135.33333333333331</ele><time>2026-03-28T14:59:05Z</time></trkpt><trkpt lat="39.26177298407357" lon="16.95671173504313"><ele>134.0</ele><time>2026-03-28T14:59:06Z</time></trkpt><trkpt lat="39.261862334775714" lon="16.956697945485153"><ele>134.0</ele><time>2026-03-28T14:59:07Z</time></trkpt><trkpt lat="39.2619451113746" lon="16.956688763273885"><ele>134.0</ele><time>2026-03-28T14:59:08Z</time></trkpt><trkpt lat="39.2620336365395" lon="16.956702523463914"><ele>134.0</ele><time>2026-03-28T14:59:09Z</time></trkpt><trkpt lat="39.26212231302075" lon="16.956720946020084"><ele>134.0</ele><time>2026-03-28T14:59:10Z</time></trkpt><trkpt lat="39.262200619249334" lon="16.95674694435646"><ele>134.0</ele><time>2026-03-28T14:59:11Z</time></trkpt><trkpt lat="39.26226559596109" lon="16.956774526605184"><ele>134.0</ele><time>2026-03-28T14:59:12Z</time></trkpt><trkpt lat="39.26231595068192" lon="16.956843782402363"><ele>132.16666666666666</ele><time>2026-03-28T14:59:13Z</time></trkpt><trkpt lat="39.262351588169004" lon="16.956945303057932"><ele>130.33333333333331</ele><time>2026-03-28T14:59:14Z</time></trkpt><trkpt lat="39.26237434518077" lon="16.95704067794427"><ele>128.5</ele><time>2026-03-28T14:59:15Z</time></trkpt><trkpt lat="39.262398374369795" lon="16.9571334155582"><ele>126.66666666666666</ele><time>2026-03-28T14:59:16Z</time></trkpt><trkpt lat="39.262430828293006" lon="16.95721166872498"><ele>124.83333333333333</ele><time>2026-03-28T14:59:17Z</time></trkpt><trkpt lat="39.26247926061752" lon="16.957284748242785"><ele>123.0</ele><time>2026-03-28T14:59:18Z</time></trkpt><trkpt lat="39.26254327774325" lon="16.957336381215672"><ele>123.0</ele><time>2026-03-28T14:59:19Z</time></trkpt><trkpt lat="39.26261541788952" lon="16.95738061060867"><ele>123.0</ele><time>2026-03-28T14:59:20Z</time></trkpt><trkpt lat="39.26268611941056" lon="16.95743277621377"><ele>123.0</ele><time>2026-03-28T14:59:21Z</time></trkpt><trkpt lat="39.26276045116751" lon="16.95748154388336"><ele>123.0</ele><time>2026-03-28T14:59:22Z</time></trkpt><trkpt lat="39.26283789504699" lon="16.957536289789072"><ele>123.0</ele><time>2026-03-28T14:59:23Z</time></trkpt><trkpt lat="39.262913230575265" lon="16.957587479705847"><ele>123.0</ele><time>2026-03-28T14:59:24Z</time></trkpt><trkpt lat="39.262977969113074" lon="16.957645583843487"><ele>122.57142857142858</ele><time>2026-03-28T14:59:25Z</time></trkpt><trkpt lat="39.26303644938246" lon="16.957701498639352"><ele>122.14285714285714</ele><time>2026-03-28T14:59:26Z</time></trkpt><trkpt lat="39.2630935836014" lon="16.957751989535016"><ele>121.71428571428572</ele><time>2026-03-28T14:59:27Z</time></trkpt><trkpt lat="39.263154493455865" lon="16.957800504178"><ele>121.28571428571429</ele><time>2026-03-28T14:59:28Z</time></trkpt><trkpt lat="39.263224604176536" lon="16.957834801580248"><ele>120.85714285714286</ele><time>2026-03-28T14:59:29Z</time></trkpt><trkpt lat="39.2632916866449" lon="16.957856602022197"><ele>120.42857142857143</ele><time>2026-03-28T14:59:30Z</time></trkpt><trkpt lat="39.26335553534615" lon="16.95787298152005"><ele>120.0</ele><time>2026-03-28T14:59:31Z</time></trkpt><trkpt lat="39.26345811425326" lon="16.957916955137815"><ele>119.5</ele><time>2026-03-28T14:59:33Z</time></trkpt><trkpt lat="39.26356242211799" lon="16.95799180025078"><ele>119.0</ele><time>2026-03-28T14:59:35Z</time></trkpt><trkpt lat="39.26366794938258" lon="16.958070446750696"><ele>118.5</ele><time>2026-03-28T14:59:37Z</time></trkpt><trkpt lat="39.26372839654757" lon="16.958112173752795"><ele>118.0</ele><time>2026-03-28T14:59:38Z</time></trkpt><trkpt lat="39.26378946399253" lon="16.958154029393402"><ele>117.5</ele><time>2026-03-28T14:59:39Z</time></trkpt><trkpt lat="39.26384915094005" lon="16.9581949388787"><ele>117.0</ele><time>2026-03-28T14:59:40Z</time></trkpt><trkpt lat="39.26391010720594" lon="16.958236049986798"><ele>116.57142857142858</ele><time>2026-03-28T14:59:41Z</time></trkpt><trkpt lat="39.263972276258706" lon="16.95827655127201"><ele>116.14285714285715</ele><time>2026-03-28T14:59:42Z</time></trkpt><trkpt lat="39.26403751691761" lon="16.95829888331378"><ele>115.71428571428572</ele><time>2026-03-28T14:59:43Z</time></trkpt><trkpt lat="39.26409882225216" lon="16.958342887230344"><ele>115.28571428571428</ele><time>2026-03-28T14:59:44Z</time></trkpt><trkpt lat="39.26416734597675" lon="16.95837983619496"><ele>114.85714285714285</ele><time>2026-03-28T14:59:45Z</time></trkpt><trkpt lat="39.264237356835515" lon="16.95842343299274"><ele>114.42857142857142</ele><time>2026-03-28T14:59:46Z</time></trkpt><trkpt lat="39.26430764101303" lon="16.958467255689595"><ele>114.0</ele><time>2026-03-28T14:59:47Z</time></trkpt><trkpt lat="39.264382965434244" lon="16.95850612131839"><ele>114.0</ele><time>2026-03-28T14:59:48Z</time></trkpt><trkpt lat="39.264458857351514" lon="16.958539386094028"><ele>114.0</ele><time>2026-03-28T14:59:49Z</time></trkpt><trkpt lat="39.26452931319001" lon="16.958596329633963"><ele>114.0</ele><time>2026-03-28T14:59:50Z</time></trkpt><trkpt lat="39.264611191845" lon="16.95863600708193"><ele>114.0</ele><time>2026-03-28T14:59:51Z</time></trkpt><trkpt lat="39.26468408505664" lon="16.9586693540201"><ele>114.0</ele><time>2026-03-28T14:59:52Z</time></trkpt><trkpt lat="39.26477943084199" lon="16.95871297249404"><ele>114.0</ele><time>2026-03-28T14:59:54Z</time></trkpt><trkpt lat="39.26486017613819" lon="16.95875264681399"><ele>113.16666666666667</ele><time>2026-03-28T14:59:56Z</time></trkpt><trkpt lat="39.26492430340749" lon="16.9587849966774"><ele>112.33333333333334</ele><time>2026-03-28T14:59:58Z</time></trkpt><trkpt lat="39.26500313362085" lon="16.958823765232946"><ele>111.5</ele><time>2026-03-28T15:00:00Z</time></trkpt><trkpt lat="39.26510517319726" lon="16.958851057796522"><ele>110.66666666666667</ele><time>2026-03-28T15:00:02Z</time></trkpt><trkpt lat="39.26520068856864" lon="16.958876867456915"><ele>109.83333333333334</ele><time>2026-03-28T15:00:04Z</time></trkpt><trkpt lat="39.26526684952298" lon="16.958911890380982"><ele>109.0</ele><time>2026-03-28T15:00:06Z</time></trkpt><trkpt lat="39.265336713541764" lon="16.9589176280164"><ele>109.00000000000001</ele><time>2026-03-28T15:00:09Z</time></trkpt><trkpt lat="39.2653969262082" lon="16.95895651887169"><ele>109.0</ele><time>2026-03-28T15:00:12Z</time></trkpt><trkpt lat="39.2654498993133" lon="16.959008486348786"><ele>109.0</ele><time>2026-03-28T15:00:15Z</time></trkpt><trkpt lat="39.265517256717054" lon="16.959105599685685"><ele>109.0</ele><time>2026-03-28T15:00:18Z</time></trkpt><trkpt lat="39.26560034571877" lon="16.959166189233752"><ele>109.00000000000001</ele><time>2026-03-28T15:00:20Z</time></trkpt><trkpt lat="39.2657112517319" lon="16.959198888879463"><ele>109.0</ele><time>2026-03-28T15:00:22Z</time></trkpt><trkpt lat="39.265801025150644" lon="16.95928571129082"><ele>109.6</ele><time>2026-03-28T15:00:24Z</time></trkpt><trkpt lat="39.26589408301966" lon="16.959345636191987"><ele>110.2</ele><time>2026-03-28T15:00:26Z</time></trkpt><trkpt lat="39.26596854889996" lon="16.95940940555474"><ele>110.79999999999998</ele><time>2026-03-28T15:00:28Z</time></trkpt><trkpt lat="39.26603220918782" lon="16.959470375724674"><ele>111.39999999999999</ele><time>2026-03-28T15:00:30Z</time></trkpt><trkpt lat="39.266106016017446" lon="16.959518559116766"><ele>112.0</ele><time>2026-03-28T15:00:32Z</time></trkpt><trkpt lat="39.26620382692067" lon="16.95959273081777"><ele>112.0</ele><time>2026-03-28T15:00:34Z</time></trkpt><trkpt lat="39.266287114079255" lon="16.95967512769848"><ele>111.99999999999999</ele><time>2026-03-28T15:00:36Z</time></trkpt><trkpt lat="39.26637873057162" lon="16.959744805316134"><ele>111.99999999999999</ele><time>2026-03-28T15:00:38Z</time></trkpt><trkpt lat="39.266475929645" lon="16.95983423308343"><ele>112.0</ele><time>2026-03-28T15:00:40Z</time></trkpt><trkpt lat="39.26657183891004" lon="16.959924308457975"><ele>112.0</ele><time>2026-03-28T15:00:42Z</time></trkpt><trkpt lat="39.26666041887934" lon="16.96002555089905"><ele>113.8</ele><time>2026-03-28T15:00:44Z</time></trkpt><trkpt lat="39.266774923131166" lon="16.960079436411473"><ele>115.6</ele><time>2026-03-28T15:00:46Z</time></trkpt><trkpt lat="39.26684557795578" lon="16.960107870531182"><ele>117.39999999999999</ele><time>2026-03-28T15:00:47Z</time></trkpt><trkpt lat="39.26694371998156" lon="16.960153983980327"><ele>119.19999999999999</ele><time>2026-03-28T15:00:48Z</time></trkpt><trkpt lat="39.267016520544345" lon="16.96020409676262"><ele>121.0</ele><time>2026-03-28T15:00:49Z</time></trkpt><trkpt lat="39.26712162385697" lon="16.960314963313518"><ele>121.0</ele><time>2026-03-28T15:00:51Z</time></trkpt><trkpt lat="39.267186480810636" lon="16.96038453485142"><ele>121.0</ele><time>2026-03-28T15:00:52Z</time></trkpt><trkpt lat="39.26725023627563" lon="16.96042876988442"><ele>121.0</ele><time>2026-03-28T15:00:53Z</time></trkpt><trkpt lat="39.26732914880061" lon="16.960478886237382"><ele>121.0</ele><time>2026-03-28T15:00:55Z</time></trkpt><trkpt lat="39.267433608742536" lon="16.960549294051983"><ele>121.0</ele><time>2026-03-28T15:00:57Z</time></trkpt><trkpt lat="39.26752583898016" lon="16.960609789376317"><ele>121.4</ele><time>2026-03-28T15:00:59Z</time></trkpt><trkpt lat="39.26761217473678" lon="16.96067545811447"><ele>121.8</ele><time>2026-03-28T15:01:02Z</time></trkpt><trkpt lat="39.26770826021972" lon="16.960786710099775"><ele>122.20000000000002</ele><time>2026-03-28T15:01:04Z</time></trkpt><trkpt lat="39.267767092388844" lon="16.96084755171243"><ele>122.60000000000001</ele><time>2026-03-28T15:01:05Z</time></trkpt><trkpt lat="39.26785666799038" lon="16.960893231140957"><ele>123.0</ele><time>2026-03-28T15:01:06Z</time></trkpt><trkpt lat="39.26795481795938" lon="16.960930322864648"><ele>125.0</ele><time>2026-03-28T15:01:07Z</time></trkpt><trkpt lat="39.26801816306642" lon="16.960981970141212"><ele>127.00000000000001</ele><time>2026-03-28T15:01:08Z</time></trkpt><trkpt lat="39.26806467204059" lon="16.96105575423698"><ele>129.0</ele><time>2026-03-28T15:01:09Z</time></trkpt><trkpt lat="39.268112120722535" lon="16.96116416154864"><ele>131.0</ele><time>2026-03-28T15:01:10Z</time></trkpt><trkpt lat="39.268144613842956" lon="16.96125704236666"><ele>133.0</ele><time>2026-03-28T15:01:11Z</time></trkpt><trkpt lat="39.268202459059" lon="16.96140550237886"><ele>135.0</ele><time>2026-03-28T15:01:13Z</time></trkpt><trkpt lat="39.26824451374648" lon="16.961489271907823"><ele>137.0</ele><time>2026-03-28T15:01:15Z</time></trkpt><trkpt lat="39.26831508191625" lon="16.96160940614383"><ele>139.0</ele><time>2026-03-28T15:01:17Z</time></trkpt><trkpt lat="39.26833906800178" lon="16.9616916189719"><ele>141.0</ele><time>2026-03-28T15:01:18Z</time></trkpt><trkpt lat="39.268434642648614" lon="16.9617778189611"><ele>143.0</ele><time>2026-03-28T15:01:20Z</time></trkpt><trkpt lat="39.268540729073905" lon="16.96185179115908"><ele>143.4</ele><time>2026-03-28T15:01:22Z</time></trkpt><trkpt lat="39.26863869459626" lon="16.961951413708977"><ele>143.8</ele><time>2026-03-28T15:01:24Z</time></trkpt><trkpt lat="39.268754233681726" lon="16.962035944336638"><ele>144.2</ele><time>2026-03-28T15:01:26Z</time></trkpt><trkpt lat="39.26882326327065" lon="16.9620791928386"><ele>144.6</ele><time>2026-03-28T15:01:27Z</time></trkpt><trkpt lat="39.26887796002722" lon="16.962122306607917"><ele>145.0</ele><time>2026-03-28T15:01:28Z</time></trkpt><trkpt lat="39.268985039311204" lon="16.962171667261934"><ele>147.0</ele><time>2026-03-28T15:01:30Z</time></trkpt><trkpt lat="39.26908559056512" lon="16.962229282482824"><ele>149.0</ele><time>2026-03-28T15:01:32Z</time></trkpt><trkpt lat="39.26918553305153" lon="16.962285808226227"><ele>151.0</ele><time>2026-03-28T15:01:34Z</time></trkpt><trkpt lat="39.26927876537877" lon="16.962351119477823"><ele>153.0</ele><time>2026-03-28T15:01:36Z</time></trkpt><trkpt lat="39.269334098556236" lon="16.962400001630215"><ele>155.0</ele><time>2026-03-28T15:01:38Z</time></trkpt><trkpt lat="39.26939962267463" lon="16.962411326553532"><ele>155.0</ele><time>2026-03-28T15:01:40Z</time></trkpt><trkpt lat="39.26947091303476" lon="16.96229336614094"><ele>155.0</ele><time>2026-03-28T15:01:41Z</time></trkpt><trkpt lat="39.26949279048161" lon="16.962213260074478"><ele>155.0</ele><time>2026-03-28T15:01:42Z</time></trkpt><trkpt lat="39.269541636548105" lon="16.96214957750419"><ele>155.0</ele><time>2026-03-28T15:01:43Z</time></trkpt><trkpt lat="39.26958040305448" lon="16.962074134852603"><ele>155.0</ele><time>2026-03-28T15:01:44Z</time></trkpt><trkpt lat="39.26964965109312" lon="16.96199269810875"><ele>155.0</ele><time>2026-03-28T15:01:46Z</time></trkpt><trkpt lat="39.269754757453235" lon="16.961968396261444"><ele>158.0</ele><time>2026-03-28T15:01:48Z</time></trkpt><trkpt lat="39.26983537828127" lon="16.96196985806265"><ele>161.0</ele><time>2026-03-28T15:01:50Z</time></trkpt><trkpt lat="39.26988734924235" lon="16.96201666555419"><ele>164.0</ele><time>2026-03-28T15:01:52Z</time></trkpt><trkpt lat="39.26992925081026" lon="16.962156093439255"><ele>167.0</ele><time>2026-03-28T15:01:54Z</time></trkpt><trkpt lat="39.26997020826951" lon="16.96228526817039"><ele>170.0</ele><time>2026-03-28T15:01:56Z</time></trkpt><trkpt lat="39.27005348140677" lon="16.962355328440474"><ele>170.0</ele><time>2026-03-28T15:01:58Z</time></trkpt><trkpt lat="39.27015958061943" lon="16.9624064072489"><ele>170.0</ele><time>2026-03-28T15:02:00Z</time></trkpt><trkpt lat="39.27025619979334" lon="16.962451265837533"><ele>170.0</ele><time>2026-03-28T15:02:02Z</time></trkpt><trkpt lat="39.27030660735732" lon="16.962510023593186"><ele>170.0</ele><time>2026-03-28T15:02:04Z</time></trkpt><trkpt lat="39.27034561299004" lon="16.962600556435408"><ele>170.0</ele><time>2026-03-28T15:02:06Z</time></trkpt><trkpt lat="39.270394720594595" lon="16.96270258613882"><ele>170.16666666666666</ele><time>2026-03-28T15:02:08Z</time></trkpt><trkpt lat="39.270438786007134" lon="16.962788420905166"><ele>170.33333333333331</ele><time>2026-03-28T15:02:10Z</time></trkpt><trkpt lat="39.27042212672334" lon="16.96289635972588"><ele>170.5</ele><time>2026-03-28T15:02:12Z</time></trkpt><trkpt lat="39.2703972530145" lon="16.96298881652421"><ele>170.66666666666666</ele><time>2026-03-28T15:02:14Z</time></trkpt><trkpt lat="39.270437176630615" lon="16.963102556321637"><ele>170.83333333333334</ele><time>2026-03-28T15:02:16Z</time></trkpt><trkpt lat="39.27048164011138" lon="16.963161213054804"><ele>171.0</ele><time>2026-03-28T15:02:17Z</time></trkpt><trkpt lat="39.27054255144437" lon="16.963249278989075"><ele>171.0</ele><time>2026-03-28T15:02:19Z</time></trkpt><trkpt lat="39.270588366764585" lon="16.963332219676488"><ele>171.0</ele><time>2026-03-28T15:02:21Z</time></trkpt><trkpt lat="39.270622199085985" lon="16.96341064225566"><ele>171.0</ele><time>2026-03-28T15:02:23Z</time></trkpt><trkpt lat="39.27066490770346" lon="16.963495430600407"><ele>171.0</ele><time>2026-03-28T15:02:26Z</time></trkpt><trkpt lat="39.27071828875879" lon="16.96356336960941"><ele>171.0</ele><time>2026-03-28T15:02:31Z</time></trkpt><trkpt lat="39.27075577935175" lon="16.963653740279682"><ele>171.0</ele><time>2026-03-28T15:03:19Z</time></trkpt><trkpt lat="39.27079771822633" lon="16.96375073668629"><ele>176.20000000000002</ele><time>2026-03-28T15:03:22Z</time></trkpt><trkpt lat="39.27078228083819" lon="16.963854824178636"><ele>181.4</ele><time>2026-03-28T15:03:24Z</time></trkpt><trkpt lat="39.270751443368816" lon="16.963975141690202"><ele>186.6</ele><time>2026-03-28T15:03:26Z</time></trkpt><trkpt lat="39.27077001478499" lon="16.96409755416526"><ele>191.8</ele><time>2026-03-28T15:03:28Z</time></trkpt><trkpt lat="39.27076625025568" lon="16.96422408262563"><ele>197.0</ele><time>2026-03-28T15:03:30Z</time></trkpt><trkpt lat="39.2707914709557" lon="16.964359585238135"><ele>197.00000000000003</ele><time>2026-03-28T15:03:32Z</time></trkpt><trkpt lat="39.27083356870448" lon="16.964460913404174"><ele>197.0</ele><time>2026-03-28T15:03:34Z</time></trkpt><trkpt lat="39.270907323255415" lon="16.964575410541077"><ele>197.0</ele><time>2026-03-28T15:03:36Z</time></trkpt><trkpt lat="39.2709492912284" lon="16.964637198379442"><ele>197.0</ele><time>2026-03-28T15:03:37Z</time></trkpt><trkpt lat="39.27099154833112" lon="16.9647063545059"><ele>197.00000000000003</ele><time>2026-03-28T15:03:38Z</time></trkpt><trkpt lat="39.27105956380972" lon="16.964818034496847"><ele>197.0</ele><time>2026-03-28T15:03:40Z</time></trkpt><trkpt lat="39.271109056690364" lon="16.964966000175867"><ele>197.33333333333334</ele><time>2026-03-28T15:03:42Z</time></trkpt><trkpt lat="39.2711366096448" lon="16.9650905269112"><ele>197.66666666666669</ele><time>2026-03-28T15:03:44Z</time></trkpt><trkpt lat="39.27115381208999" lon="16.96519941126278"><ele>198.0</ele><time>2026-03-28T15:03:46Z</time></trkpt><trkpt lat="39.2712139509114" lon="16.96528219041004"><ele>198.33333333333331</ele><time>2026-03-28T15:03:48Z</time></trkpt><trkpt lat="39.27127455452447" lon="16.965351374529448"><ele>198.66666666666666</ele><time>2026-03-28T15:03:50Z</time></trkpt><trkpt lat="39.271341214928526" lon="16.96540570004423"><ele>199.0</ele><time>2026-03-28T15:03:54Z</time></trkpt><trkpt lat="39.27139510542181" lon="16.965470626949926"><ele>199.0</ele><time>2026-03-28T15:03:57Z</time></trkpt><trkpt lat="39.27141377171488" lon="16.96558441389552"><ele>199.0</ele><time>2026-03-28T15:04:04Z</time></trkpt><trkpt lat="39.27144737677319" lon="16.965706554021345"><ele>199.0</ele><time>2026-03-28T15:04:06Z</time></trkpt><trkpt lat="39.27145534074774" lon="16.965858632502023"><ele>199.0</ele><time>2026-03-28T15:04:08Z</time></trkpt><trkpt lat="39.271471422405895" lon="16.96594678619887"><ele>199.0</ele><time>2026-03-28T15:04:10Z</time></trkpt><trkpt lat="39.27155874570451" lon="16.96596857011234"><ele>204.2</ele><time>2026-03-28T15:04:12Z</time></trkpt><trkpt lat="39.27161335896493" lon="16.965828218867735"><ele>209.39999999999998</ele><time>2026-03-28T15:04:14Z</time></trkpt><trkpt lat="39.27164086191988" lon="16.965742773362244"><ele>214.6</ele><time>2026-03-28T15:04:15Z</time></trkpt><trkpt lat="39.27171601407881" lon="16.965666664647387"><ele>219.8</ele><time>2026-03-28T15:04:17Z</time></trkpt><trkpt lat="39.27181209658553" lon="16.965591348599652"><ele>225.0</ele><time>2026-03-28T15:04:19Z</time></trkpt><trkpt lat="39.27187414088032" lon="16.965516402754826"><ele>225.0</ele><time>2026-03-28T15:04:21Z</time></trkpt><trkpt lat="39.27195180288684" lon="16.965442538853086"><ele>225.0</ele><time>2026-03-28T15:04:23Z</time></trkpt><trkpt lat="39.27206652512909" lon="16.965387869759354"><ele>225.0</ele><time>2026-03-28T15:04:25Z</time></trkpt><trkpt lat="39.272125390353295" lon="16.965356290014988"><ele>225.0</ele><time>2026-03-28T15:04:26Z</time></trkpt><trkpt lat="39.27217441608586" lon="16.965294817785708"><ele>225.0</ele><time>2026-03-28T15:04:27Z</time></trkpt><trkpt lat="39.27222110800236" lon="16.965222854497206"><ele>225.0</ele><time>2026-03-28T15:04:28Z</time></trkpt><trkpt lat="39.27227099225392" lon="16.96515981129592"><ele>229.6</ele><time>2026-03-28T15:04:29Z</time></trkpt><trkpt lat="39.27232392855904" lon="16.965100517034948"><ele>234.2</ele><time>2026-03-28T15:04:30Z</time></trkpt><trkpt lat="39.2723975231481" lon="16.965008218488695"><ele>238.8</ele><time>2026-03-28T15:04:32Z</time></trkpt><trkpt lat="39.27246043030976" lon="16.96488708603872"><ele>243.4</ele><time>2026-03-28T15:04:34Z</time></trkpt><trkpt lat="39.27248567891483" lon="16.964777872664737"><ele>248.0</ele><time>2026-03-28T15:04:36Z</time></trkpt><trkpt lat="39.272509904050594" lon="16.96467797008902"><ele>248.0</ele><time>2026-03-28T15:04:39Z</time></trkpt><trkpt lat="39.272578193439756" lon="16.96457862130362"><ele>248.0</ele><time>2026-03-28T15:04:41Z</time></trkpt><trkpt lat="39.2726796636776" lon="16.964488270643745"><ele>248.0</ele><time>2026-03-28T15:04:43Z</time></trkpt><trkpt lat="39.2727545011948" lon="16.964387933186572"><ele>248.0</ele><time>2026-03-28T15:04:45Z</time></trkpt><trkpt lat="39.27286558525832" lon="16.964375599544827"><ele>248.0</ele><time>2026-03-28T15:04:47Z</time></trkpt><trkpt lat="39.2729626390788" lon="16.964391295586456"><ele>248.0</ele><time>2026-03-28T15:04:49Z</time></trkpt><trkpt lat="39.27303924327508" lon="16.964400070278206"><ele>248.0</ele><time>2026-03-28T15:04:51Z</time></trkpt><trkpt lat="39.27311324098219" lon="16.964390432480542"><ele>248.0</ele><time>2026-03-28T15:04:53Z</time></trkpt><trkpt lat="39.273190075154695" lon="16.964356857433675"><ele>248.0</ele><time>2026-03-28T15:04:55Z</time></trkpt><trkpt lat="39.27329142123697" lon="16.96431632610419"><ele>248.0</ele><time>2026-03-28T15:04:57Z</time></trkpt><trkpt lat="39.27340590544635" lon="16.964269411621583"><ele>250.57142857142858</ele><time>2026-03-28T15:04:59Z</time></trkpt><trkpt lat="39.27346929871711" lon="16.964238689372635"><ele>253.14285714285717</ele><time>2026-03-28T15:05:00Z</time></trkpt><trkpt lat="39.27352483935944" lon="16.96419026962055"><ele>255.71428571428572</ele><time>2026-03-28T15:05:01Z</time></trkpt><trkpt lat="39.2735901930285" lon="16.96415865013412"><ele>258.2857142857143</ele><time>2026-03-28T15:05:02Z</time></trkpt><trkpt lat="39.27365497455164" lon="16.964125875934386"><ele>260.8571428571429</ele><time>2026-03-28T15:05:03Z</time></trkpt><trkpt lat="39.27371688469892" lon="16.96409376834446"><ele>263.42857142857144</ele><time>2026-03-28T15:05:04Z</time></trkpt><trkpt lat="39.273799359588175" lon="16.964044710369187"><ele>266.0</ele><time>2026-03-28T15:05:06Z</time></trkpt><trkpt lat="39.27385833770504" lon="16.963968333843265"><ele>266.0</ele><time>2026-03-28T15:05:08Z</time></trkpt><trkpt lat="39.27391325905101" lon="16.963909736002062"><ele>266.0</ele><time>2026-03-28T15:05:10Z</time></trkpt><trkpt lat="39.2740164843526" lon="16.963843222626757"><ele>266.0</ele><time>2026-03-28T15:05:12Z</time></trkpt><trkpt lat="39.2741316802851" lon="16.963804082058182"><ele>266.0</ele><time>2026-03-28T15:05:14Z</time></trkpt><trkpt lat="39.27421868551369" lon="16.963811680581543"><ele>266.0</ele><time>2026-03-28T15:05:16Z</time></trkpt><trkpt lat="39.2743233474637" lon="16.96386979075837"><ele>269.0</ele><time>2026-03-28T15:05:18Z</time></trkpt><trkpt lat="39.27441085795438" lon="16.963926006325565"><ele>272.0</ele><time>2026-03-28T15:05:20Z</time></trkpt><trkpt lat="39.27449423193279" lon="16.96400636135729"><ele>275.0</ele><time>2026-03-28T15:05:22Z</time></trkpt><trkpt lat="39.27455204118713" lon="16.96412005916163"><ele>278.0</ele><time>2026-03-28T15:05:24Z</time></trkpt><trkpt lat="39.27456716528338" lon="16.964285443122936"><ele>281.0</ele><time>2026-03-28T15:05:26Z</time></trkpt><trkpt lat="39.27458426593379" lon="16.96436600149116"><ele>281.0</ele><time>2026-03-28T15:05:27Z</time></trkpt><trkpt lat="39.27459837073103" lon="16.96445651282993"><ele>281.0</ele><time>2026-03-28T15:05:28Z</time></trkpt><trkpt lat="39.27464118752778" lon="16.964579180943545"><ele>281.0</ele><time>2026-03-28T15:05:30Z</time></trkpt><trkpt lat="39.27472496143707" lon="16.964591339486777"><ele>281.0</ele><time>2026-03-28T15:05:32Z</time></trkpt><trkpt lat="39.27482875426873" lon="16.964569446500796"><ele>281.0</ele><time>2026-03-28T15:05:34Z</time></trkpt><trkpt lat="39.27493999321534" lon="16.964563130238222"><ele>282.5</ele><time>2026-03-28T15:05:36Z</time></trkpt><trkpt lat="39.27503145550406" lon="16.964627308716956"><ele>284.0</ele><time>2026-03-28T15:05:38Z</time></trkpt><trkpt lat="39.27513670644788" lon="16.964687081941523"><ele>285.5</ele><time>2026-03-28T15:05:40Z</time></trkpt><trkpt lat="39.27525895709592" lon="16.9646507833261"><ele>287.0</ele><time>2026-03-28T15:05:42Z</time></trkpt><trkpt lat="39.27536835290536" lon="16.964664360907427"><ele>287.0</ele><time>2026-03-28T15:05:44Z</time></trkpt><trkpt lat="39.27547928164086" lon="16.964696884702715"><ele>287.0</ele><time>2026-03-28T15:05:46Z</time></trkpt><trkpt lat="39.275561302879744" lon="16.964634236937844"><ele>287.0</ele><time>2026-03-28T15:05:47Z</time></trkpt><trkpt lat="39.275639463495686" lon="16.964724054787556"><ele>287.0</ele><time>2026-03-28T15:05:49Z</time></trkpt><trkpt lat="39.275735337853106" lon="16.96471714786922"><ele>287.0</ele><time>2026-03-28T15:05:51Z</time></trkpt><trkpt lat="39.275807684385526" lon="16.96469539908849"><ele>289.33333333333337</ele><time>2026-03-28T15:05:53Z</time></trkpt><trkpt lat="39.27588232930154" lon="16.964657335713966"><ele>291.6666666666667</ele><time>2026-03-28T15:05:55Z</time></trkpt><trkpt lat="39.27596764135566" lon="16.964622601155376"><ele>294.0</ele><time>2026-03-28T15:05:57Z</time></trkpt><trkpt lat="39.276042524301154" lon="16.964565094867954"><ele>296.3333333333333</ele><time>2026-03-28T15:05:59Z</time></trkpt><trkpt lat="39.27610816411966" lon="16.9645138535784"><ele>298.66666666666663</ele><time>2026-03-28T15:06:01Z</time></trkpt><trkpt lat="39.27618103009439" lon="16.96444800874955"><ele>301.0</ele><time>2026-03-28T15:06:04Z</time></trkpt><trkpt lat="39.27624540921101" lon="16.96437411619943"><ele>301.0</ele><time>2026-03-28T15:06:06Z</time></trkpt><trkpt lat="39.27631618391456" lon="16.964282533642184"><ele>301.0</ele><time>2026-03-28T15:06:08Z</time></trkpt><trkpt lat="39.27635481291968" lon="16.964216220247184"><ele>301.0</ele><time>2026-03-28T15:06:09Z</time></trkpt><trkpt lat="39.27638988373815" lon="16.964118553145152"><ele>301.0</ele><time>2026-03-28T15:06:11Z</time></trkpt><trkpt lat="39.27641302448598" lon="16.964014732935606"><ele>301.0</ele><time>2026-03-28T15:07:37Z</time></trkpt><trkpt lat="39.27642613074465" lon="16.96392619766826"><ele>301.0</ele><time>2026-03-28T15:07:39Z</time></trkpt><trkpt lat="39.2764405834899" lon="16.963833530641402"><ele>304.0</ele><time>2026-03-28T15:07:41Z</time></trkpt><trkpt lat="39.27647348132893" lon="16.96372459339561"><ele>307.0</ele><time>2026-03-28T15:07:43Z</time></trkpt><trkpt lat="39.2765442161961" lon="16.96361641024399"><ele>310.0</ele><time>2026-03-28T15:07:45Z</time></trkpt><trkpt lat="39.276602805554404" lon="16.963526285103814"><ele>313.0</ele><time>2026-03-28T15:07:47Z</time></trkpt><trkpt lat="39.27663564294622" lon="16.96345681053977"><ele>316.0</ele><time>2026-03-28T15:07:49Z</time></trkpt><trkpt lat="39.27667706467692" lon="16.96336284985873"><ele>319.0</ele><time>2026-03-28T15:07:52Z</time></trkpt><trkpt lat="39.27671662311641" lon="16.963236782896292"><ele>319.0</ele><time>2026-03-28T15:07:55Z</time></trkpt><trkpt lat="39.27678156102062" lon="16.963145422781242"><ele>319.0</ele><time>2026-03-28T15:07:57Z</time></trkpt><trkpt lat="39.27684056540321" lon="16.963043083659244"><ele>319.0</ele><time>2026-03-28T15:07:59Z</time></trkpt><trkpt lat="39.27691046798479" lon="16.962927002231655"><ele>319.0</ele><time>2026-03-28T15:08:01Z</time></trkpt><trkpt lat="39.276968698986636" lon="16.96285028418328"><ele>319.0</ele><time>2026-03-28T15:08:03Z</time></trkpt><trkpt lat="39.27703150408583" lon="16.962793105801758"><ele>319.0</ele><time>2026-03-28T15:08:05Z</time></trkpt><trkpt lat="39.27708798800304" lon="16.962728337750896"><ele>319.0</ele><time>2026-03-28T15:08:07Z</time></trkpt><trkpt lat="39.27715185144062" lon="16.96265168586812"><ele>319.0</ele><time>2026-03-28T15:08:10Z</time></trkpt><trkpt lat="39.27721245444297" lon="16.962589275148343"><ele>319.0</ele><time>2026-03-28T15:08:17Z</time></trkpt><trkpt lat="39.27726396757524" lon="16.96253790066888"><ele>319.0</ele><time>2026-03-28T15:08:20Z</time></trkpt><trkpt lat="39.27734550137098" lon="16.962466861780957"><ele>319.0</ele><time>2026-03-28T15:08:23Z</time></trkpt><trkpt lat="39.27739788550936" lon="16.962418654809895"><ele>322.3333333333333</ele><time>2026-03-28T15:08:25Z</time></trkpt><trkpt lat="39.277446724353" lon="16.962362578459924"><ele>325.66666666666663</ele><time>2026-03-28T15:08:27Z</time></trkpt><trkpt lat="39.27752310593042" lon="16.96230769829192"><ele>329.0</ele><time>2026-03-28T15:08:29Z</time></trkpt><trkpt lat="39.27759888779456" lon="16.96224227445349"><ele>332.3333333333333</ele><time>2026-03-28T15:08:31Z</time></trkpt><trkpt lat="39.27767369510351" lon="16.96216433791365"><ele>335.6666666666667</ele><time>2026-03-28T15:08:33Z</time></trkpt><trkpt lat="39.27774724207731" lon="16.96209311504285"><ele>339.0</ele><time>2026-03-28T15:08:35Z</time></trkpt><trkpt lat="39.2778265590413" lon="16.962023441491716"><ele>339.0</ele><time>2026-03-28T15:08:37Z</time></trkpt><trkpt lat="39.2779095886385" lon="16.961975544752963"><ele>339.0</ele><time>2026-03-28T15:08:39Z</time></trkpt><trkpt lat="39.2779851200244" lon="16.96192146417605"><ele>339.0</ele><time>2026-03-28T15:08:41Z</time></trkpt><trkpt lat="39.27808736605358" lon="16.96188241082073"><ele>339.0</ele><time>2026-03-28T15:08:43Z</time></trkpt><trkpt lat="39.27820146180989" lon="16.961863881958738"><ele>339.0</ele><time>2026-03-28T15:08:45Z</time></trkpt><trkpt lat="39.27833223321876" lon="16.961851704530574"><ele>341.3333333333333</ele><time>2026-03-28T15:08:47Z</time></trkpt><trkpt lat="39.278418473187116" lon="16.96183999746809"><ele>343.6666666666667</ele><time>2026-03-28T15:08:48Z</time></trkpt><trkpt lat="39.278508956184666" lon="16.961825782298916"><ele>346.0</ele><time>2026-03-28T15:08:49Z</time></trkpt><trkpt lat="39.27858553685526" lon="16.961807740843316"><ele>348.33333333333337</ele><time>2026-03-28T15:08:50Z</time></trkpt><trkpt lat="39.278656708777" lon="16.96178275678187"><ele>350.6666666666667</ele><time>2026-03-28T15:08:51Z</time></trkpt><trkpt lat="39.27871992173329" lon="16.96175733744673"><ele>353.0</ele><time>2026-03-28T15:08:52Z</time></trkpt><trkpt lat="39.27878113880421" lon="16.96173386211898"><ele>352.2</ele><time>2026-03-28T15:08:53Z</time></trkpt><trkpt lat="39.278873962143756" lon="16.961636803445984"><ele>351.4</ele><time>2026-03-28T15:08:55Z</time></trkpt><trkpt lat="39.278957122659165" lon="16.96155501992295"><ele>350.59999999999997</ele><time>2026-03-28T15:08:57Z</time></trkpt><trkpt lat="39.27903477675298" lon="16.96145354027947"><ele>349.79999999999995</ele><time>2026-03-28T15:08:59Z</time></trkpt><trkpt lat="39.27910856238894" lon="16.961370096091944"><ele>349.0</ele><time>2026-03-28T15:09:01Z</time></trkpt><trkpt lat="39.279207421195125" lon="16.96126858589183"><ele>351.2</ele><time>2026-03-28T15:09:03Z</time></trkpt><trkpt lat="39.279258212782665" lon="16.961219864774794"><ele>353.4</ele><time>2026-03-28T15:09:04Z</time></trkpt><trkpt lat="39.279354257420096" lon="16.961126885715494"><ele>355.6</ele><time>2026-03-28T15:09:06Z</time></trkpt><trkpt lat="39.27943819375402" lon="16.961030503892765"><ele>357.8</ele><time>2026-03-28T15:09:08Z</time></trkpt><trkpt lat="39.27945454017991" lon="16.96089250342315"><ele>360.0</ele><time>2026-03-28T15:09:10Z</time></trkpt><trkpt lat="39.279431575938716" lon="16.960722985253287"><ele>360.0</ele><time>2026-03-28T15:09:12Z</time></trkpt><trkpt lat="39.2793860651832" lon="16.960639150928888"><ele>360.0</ele><time>2026-03-28T15:09:13Z</time></trkpt><trkpt lat="39.27933647036372" lon="16.960561252923103"><ele>360.0</ele><time>2026-03-28T15:09:14Z</time></trkpt><trkpt lat="39.27926091751311" lon="16.96044968264667"><ele>360.0</ele><time>2026-03-28T15:09:16Z</time></trkpt><trkpt lat="39.279210987230336" lon="16.960353078825673"><ele>360.0</ele><time>2026-03-28T15:09:18Z</time></trkpt><trkpt lat="39.27916306831554" lon="16.960246302585986"><ele>360.0</ele><time>2026-03-28T15:09:20Z</time></trkpt><trkpt lat="39.2791348050045" lon="16.960137305434944"><ele>360.0</ele><time>2026-03-28T15:09:22Z</time></trkpt><trkpt lat="39.279105073960366" lon="16.960021330163954"><ele>360.0</ele><time>2026-03-28T15:09:24Z</time></trkpt><trkpt lat="39.27909282418263" lon="16.959922514401324"><ele>360.0</ele><time>2026-03-28T15:09:26Z</time></trkpt><trkpt lat="39.2790828099573" lon="16.959841488810504"><ele>360.0</ele><time>2026-03-28T15:09:38Z</time></trkpt><trkpt lat="39.2790684621372" lon="16.95975913029383"><ele>360.0</ele><time>2026-03-28T15:10:30Z</time></trkpt><trkpt lat="39.279081066747175" lon="16.95966012694885"><ele>360.4</ele><time>2026-03-28T15:10:33Z</time></trkpt><trkpt lat="39.27911703619846" lon="16.959562268039967"><ele>360.8</ele><time>2026-03-28T15:10:35Z</time></trkpt><trkpt lat="39.27920605194203" lon="16.959514801844417"><ele>361.20000000000005</ele><time>2026-03-28T15:10:37Z</time></trkpt><trkpt lat="39.27929604404401" lon="16.959479604634712"><ele>361.6</ele><time>2026-03-28T15:10:39Z</time></trkpt><trkpt lat="39.27942196438987" lon="16.95945129083513"><ele>362.0</ele><time>2026-03-28T15:10:41Z</time></trkpt><trkpt lat="39.27949548633691" lon="16.959438966904216"><ele>362.0</ele><time>2026-03-28T15:10:42Z</time></trkpt><trkpt lat="39.27960133774331" lon="16.959399214384874"><ele>362.0</ele><time>2026-03-28T15:10:44Z</time></trkpt><trkpt lat="39.27968157771658" lon="16.959335299444117"><ele>362.0</ele><time>2026-03-28T15:10:46Z</time></trkpt><trkpt lat="39.279730870588125" lon="16.95928047484286"><ele>362.0</ele><time>2026-03-28T15:10:48Z</time></trkpt><trkpt lat="39.27979697155827" lon="16.95920283542402"><ele>362.0</ele><time>2026-03-28T15:10:50Z</time></trkpt><trkpt lat="39.27984307532881" lon="16.95914593923257"><ele>362.0</ele><time>2026-03-28T15:10:51Z</time></trkpt><trkpt lat="39.27989528235308" lon="16.95909466387093"><ele>363.6</ele><time>2026-03-28T15:10:53Z</time></trkpt><trkpt lat="39.27996783802717" lon="16.959008004350853"><ele>365.20000000000005</ele><time>2026-03-28T15:10:56Z</time></trkpt><trkpt lat="39.28005483897425" lon="16.958911812150042"><ele>366.8</ele><time>2026-03-28T15:10:58Z</time></trkpt><trkpt lat="39.28015213269261" lon="16.95881424535944"><ele>368.4</ele><time>2026-03-28T15:11:00Z</time></trkpt><trkpt lat="39.2801988449488" lon="16.958751115741205"><ele>370.0</ele><time>2026-03-28T15:11:01Z</time></trkpt><trkpt lat="39.28024431041635" lon="16.958685446220134"><ele>370.0</ele><time>2026-03-28T15:11:02Z</time></trkpt><trkpt lat="39.28030919981603" lon="16.95859979769622"><ele>370.0</ele><time>2026-03-28T15:11:04Z</time></trkpt><trkpt lat="39.2804071099163" lon="16.95855666139967"><ele>370.0</ele><time>2026-03-28T15:11:07Z</time></trkpt><trkpt lat="39.280501505822706" lon="16.958570716331796"><ele>370.0</ele><time>2026-03-28T15:11:09Z</time></trkpt><trkpt lat="39.28057131196124" lon="16.958599117839103"><ele>370.0</ele><time>2026-03-28T15:11:11Z</time></trkpt><trkpt lat="39.28063761998259" lon="16.958632482811165"><ele>370.0</ele><time>2026-03-28T15:11:13Z</time></trkpt><trkpt lat="39.28072969939739" lon="16.958683732199095"><ele>370.57142857142856</ele><time>2026-03-28T15:11:15Z</time></trkpt><trkpt lat="39.280787753100704" lon="16.95871529423811"><ele>371.1428571428571</ele><time>2026-03-28T15:11:17Z</time></trkpt><trkpt lat="39.280865391079104" lon="16.958725862094518"><ele>371.71428571428567</ele><time>2026-03-28T15:11:22Z</time></trkpt><trkpt lat="39.28093219803251" lon="16.958709434049926"><ele>372.2857142857143</ele><time>2026-03-28T15:11:24Z</time></trkpt><trkpt lat="39.28100191253591" lon="16.958670745162447"><ele>372.8571428571429</ele><time>2026-03-28T15:11:27Z</time></trkpt><trkpt lat="39.28107765298929" lon="16.95864426655925"><ele>373.4285714285714</ele><time>2026-03-28T15:11:30Z</time></trkpt><trkpt lat="39.28114794641183" lon="16.958632895487707"><ele>374.0</ele><time>2026-03-28T15:11:57Z</time></trkpt><trkpt lat="39.28122068621076" lon="16.958615783205794"><ele>374.0</ele><time>2026-03-28T15:11:59Z</time></trkpt><trkpt lat="39.28129779529649" lon="16.958597644155155"><ele>374.0</ele><time>2026-03-28T15:12:01Z</time></trkpt><trkpt lat="39.28137090871872" lon="16.958582636330235"><ele>374.0</ele><time>2026-03-28T15:12:03Z</time></trkpt><trkpt lat="39.28145561533416" lon="16.95855166178822"><ele>374.0</ele><time>2026-03-28T15:12:05Z</time></trkpt><trkpt lat="39.28154022329979" lon="16.95850205691918"><ele>374.0</ele><time>2026-03-28T15:12:07Z</time></trkpt><trkpt lat="39.28163092865699" lon="16.958451284212206"><ele>374.0</ele><time>2026-03-28T15:12:09Z</time></trkpt><trkpt lat="39.28171805007595" lon="16.958403842056185"><ele>373.0</ele><time>2026-03-28T15:12:11Z</time></trkpt><trkpt lat="39.281788385470975" lon="16.95836164439547"><ele>372.0</ele><time>2026-03-28T15:12:13Z</time></trkpt><trkpt lat="39.281852041890396" lon="16.958341621069078"><ele>371.0</ele><time>2026-03-28T15:12:16Z</time></trkpt><trkpt lat="39.281917214082114" lon="16.958332407183526"><ele>370.0</ele><time>2026-03-28T15:12:18Z</time></trkpt><trkpt lat="39.28199210403825" lon="16.958310775594608"><ele>369.0</ele><time>2026-03-28T15:12:20Z</time></trkpt><trkpt lat="39.28205774364354" lon="16.95827970796382"><ele>368.0</ele><time>2026-03-28T15:12:22Z</time></trkpt><trkpt lat="39.28212395143453" lon="16.95825760944444"><ele>367.0</ele><time>2026-03-28T15:12:24Z</time></trkpt><trkpt lat="39.282188630286285" lon="16.95824195796018"><ele>367.0</ele><time>2026-03-28T15:12:26Z</time></trkpt><trkpt lat="39.282263749368646" lon="16.958248063287794"><ele>367.0</ele><time>2026-03-28T15:12:28Z</time></trkpt><trkpt lat="39.28235325803145" lon="16.958279798607062"><ele>367.0</ele><time>2026-03-28T15:12:30Z</time></trkpt><trkpt lat="39.28244768414851" lon="16.95830029381403"><ele>367.0</ele><time>2026-03-28T15:12:32Z</time></trkpt><trkpt lat="39.282518530586465" lon="16.958310517838196"><ele>367.0</ele><time>2026-03-28T15:12:34Z</time></trkpt><trkpt lat="39.282585508723805" lon="16.958321863693257"><ele>367.0</ele><time>2026-03-28T15:12:36Z</time></trkpt><trkpt lat="39.28266090283072" lon="16.958330301724097"><ele>364.66666666666663</ele><time>2026-03-28T15:12:38Z</time></trkpt><trkpt lat="39.282740525835386" lon="16.958336383067934"><ele>362.3333333333333</ele><time>2026-03-28T15:12:40Z</time></trkpt><trkpt lat="39.28281113675322" lon="16.958348190765825"><ele>360.0</ele><time>2026-03-28T15:12:42Z</time></trkpt><trkpt lat="39.282889518230526" lon="16.958365775363127"><ele>357.6666666666667</ele><time>2026-03-28T15:12:44Z</time></trkpt><trkpt lat="39.282957557475136" lon="16.958386065158727"><ele>355.33333333333337</ele><time>2026-03-28T15:12:46Z</time></trkpt><trkpt lat="39.28304677828677" lon="16.95841002549544"><ele>353.0</ele><time>2026-03-28T15:12:49Z</time></trkpt><trkpt lat="39.28313115445396" lon="16.95838576441244"><ele>350.1428571428571</ele><time>2026-03-28T15:12:51Z</time></trkpt><trkpt lat="39.28319807939319" lon="16.958347569039407"><ele>347.28571428571433</ele><time>2026-03-28T15:12:53Z</time></trkpt><trkpt lat="39.28326931866063" lon="16.958315836649618"><ele>344.42857142857144</ele><time>2026-03-28T15:12:55Z</time></trkpt><trkpt lat="39.28333479611921" lon="16.95833736080525"><ele>341.57142857142856</ele><time>2026-03-28T15:12:58Z</time></trkpt><trkpt lat="39.283391490790684" lon="16.95837438027142"><ele>338.71428571428567</ele><time>2026-03-28T15:13:15Z</time></trkpt><trkpt lat="39.28346903612857" lon="16.95841551285134"><ele>335.8571428571429</ele><time>2026-03-28T15:13:19Z</time></trkpt><trkpt lat="39.28353115877111" lon="16.95844710350138"><ele>333.0</ele><time>2026-03-28T15:13:22Z</time></trkpt><trkpt lat="39.28361569404371" lon="16.95842029954222"><ele>333.0</ele><time>2026-03-28T15:13:24Z</time></trkpt><trkpt lat="39.28370535211226" lon="16.958355929175962"><ele>333.0</ele><time>2026-03-28T15:13:25Z</time></trkpt><trkpt lat="39.28380918771334" lon="16.958305597467707"><ele>333.0</ele><time>2026-03-28T15:13:26Z</time></trkpt><trkpt lat="39.283894018619314" lon="16.95827221386574"><ele>333.0</ele><time>2026-03-28T15:13:27Z</time></trkpt><trkpt lat="39.28396156800293" lon="16.958262172939175"><ele>333.0</ele><time>2026-03-28T15:13:28Z</time></trkpt><trkpt lat="39.28403323845781" lon="16.95826176964623"><ele>333.0</ele><time>2026-03-28T15:13:29Z</time></trkpt><trkpt lat="39.28410223542133" lon="16.95827307475806"><ele>332.5</ele><time>2026-03-28T15:13:30Z</time></trkpt><trkpt lat="39.284172896991" lon="16.958279932149026"><ele>332.0</ele><time>2026-03-28T15:13:31Z</time></trkpt><trkpt lat="39.28424693597566" lon="16.95827823826025"><ele>331.5</ele><time>2026-03-28T15:13:32Z</time></trkpt><trkpt lat="39.28432170096666" lon="16.95826632239651"><ele>331.0</ele><time>2026-03-28T15:13:33Z</time></trkpt><trkpt lat="39.28440007870683" lon="16.958236544144516"><ele>330.5</ele><time>2026-03-28T15:13:34Z</time></trkpt><trkpt lat="39.28447176892847" lon="16.9581863853773"><ele>330.0</ele><time>2026-03-28T15:13:35Z</time></trkpt><trkpt lat="39.28455062156922" lon="16.958130340230014"><ele>330.0</ele><time>2026-03-28T15:13:36Z</time></trkpt><trkpt lat="39.2846272295371" lon="16.958078995041923"><ele>330.0</ele><time>2026-03-28T15:13:37Z</time></trkpt><trkpt lat="39.2847064819905" lon="16.958042210072467"><ele>330.0</ele><time>2026-03-28T15:13:38Z</time></trkpt><trkpt lat="39.28477428757985" lon="16.958022694054147"><ele>330.0</ele><time>2026-03-28T15:13:39Z</time></trkpt><trkpt lat="39.284860593634335" lon="16.957994828468337"><ele>330.0</ele><time>2026-03-28T15:13:41Z</time></trkpt><trkpt lat="39.28492302117922" lon="16.957980363189503"><ele>330.0</ele><time>2026-03-28T15:13:46Z</time></trkpt><trkpt lat="39.284987225201284" lon="16.95797693298067"><ele>328.8333333333333</ele><time>2026-03-28T15:13:57Z</time></trkpt><trkpt lat="39.28505638005511" lon="16.957963751545417"><ele>327.6666666666667</ele><time>2026-03-28T15:14:02Z</time></trkpt><trkpt lat="39.28514373153703" lon="16.957915131364263"><ele>326.5</ele><time>2026-03-28T15:14:07Z</time></trkpt><trkpt lat="39.28520998069805" lon="16.95785387514783"><ele>325.33333333333337</ele><time>2026-03-28T15:14:08Z</time></trkpt><trkpt lat="39.28527489657303" lon="16.95778041843223"><ele>324.1666666666667</ele><time>2026-03-28T15:14:09Z</time></trkpt><trkpt lat="39.28532399923073" lon="16.957723983619665"><ele>323.0</ele><time>2026-03-28T15:14:10Z</time></trkpt><trkpt lat="39.285409038206794" lon="16.957623908969545"><ele>323.4</ele><time>2026-03-28T15:14:12Z</time></trkpt><trkpt lat="39.28549479563077" lon="16.95752696515367"><ele>323.79999999999995</ele><time>2026-03-28T15:14:14Z</time></trkpt><trkpt lat="39.285590608766135" lon="16.95742473523202"><ele>324.2</ele><time>2026-03-28T15:14:16Z</time></trkpt><trkpt lat="39.285678700799" lon="16.957350062703743"><ele>324.6</ele><time>2026-03-28T15:14:18Z</time></trkpt><trkpt lat="39.285741174774145" lon="16.95731207486084"><ele>325.0</ele><time>2026-03-28T15:14:26Z</time></trkpt><trkpt lat="39.28582050943294" lon="16.95727095962568"><ele>325.2</ele><time>2026-03-28T15:14:35Z</time></trkpt><trkpt lat="39.28588140479349" lon="16.95723952297104"><ele>325.4</ele><time>2026-03-28T15:14:37Z</time></trkpt><trkpt lat="39.28596570906353" lon="16.9571966199763"><ele>325.6</ele><time>2026-03-28T15:14:39Z</time></trkpt><trkpt lat="39.286049632898695" lon="16.95712373214556"><ele>325.8</ele><time>2026-03-28T15:14:41Z</time></trkpt><trkpt lat="39.28610400004199" lon="16.956994388026317"><ele>326.0</ele><time>2026-03-28T15:14:43Z</time></trkpt><trkpt lat="39.2861299284592" lon="16.956832943593984"><ele>326.0</ele><time>2026-03-28T15:14:45Z</time></trkpt><trkpt lat="39.28615361090931" lon="16.95674293584659"><ele>326.0</ele><time>2026-03-28T15:14:46Z</time></trkpt><trkpt lat="39.28617986808839" lon="16.956653452598466"><ele>326.0</ele><time>2026-03-28T15:14:47Z</time></trkpt><trkpt lat="39.28621091692202" lon="16.95656153973254"><ele>326.0</ele><time>2026-03-28T15:14:48Z</time></trkpt><trkpt lat="39.286245319660225" lon="16.956478726284036"><ele>326.0</ele><time>2026-03-28T15:14:49Z</time></trkpt><trkpt lat="39.286290672512855" lon="16.95640523503188"><ele>326.0</ele><time>2026-03-28T15:14:50Z</time></trkpt><trkpt lat="39.28640565950951" lon="16.956310138062953"><ele>328.0</ele><time>2026-03-28T15:14:52Z</time></trkpt><trkpt lat="39.286479691170726" lon="16.956277363734845"><ele>330.0</ele><time>2026-03-28T15:14:53Z</time></trkpt><trkpt lat="39.286568500191144" lon="16.956256434857323"><ele>332.0</ele><time>2026-03-28T15:14:54Z</time></trkpt><trkpt lat="39.28668034560535" lon="16.956225537978053"><ele>334.0</ele><time>2026-03-28T15:14:55Z</time></trkpt><trkpt lat="39.28680655318715" lon="16.956197167329528"><ele>336.0</ele><time>2026-03-28T15:14:56Z</time></trkpt><trkpt lat="39.2869297721845" lon="16.956143965420196"><ele>336.0</ele><time>2026-03-28T15:14:57Z</time></trkpt><trkpt lat="39.287047356502654" lon="16.956088160802445"><ele>336.0</ele><time>2026-03-28T15:14:58Z</time></trkpt><trkpt lat="39.28713274914175" lon="16.956042146228167"><ele>336.0</ele><time>2026-03-28T15:14:59Z</time></trkpt><trkpt lat="39.28723158423432" lon="16.95599454025915"><ele>336.0</ele><time>2026-03-28T15:15:01Z</time></trkpt><trkpt lat="39.287313820773385" lon="16.95596224024137"><ele>336.0</ele><time>2026-03-28T15:15:03Z</time></trkpt><trkpt lat="39.28737950084045" lon="16.955932898485205"><ele>334.5</ele><time>2026-03-28T15:15:05Z</time></trkpt><trkpt lat="39.28745420494606" lon="16.955885179312673"><ele>333.0</ele><time>2026-03-28T15:15:08Z</time></trkpt><trkpt lat="39.28752016655901" lon="16.95584923625423"><ele>331.5</ele><time>2026-03-28T15:15:13Z</time></trkpt><trkpt lat="39.28761797584572" lon="16.95578101783956"><ele>330.0</ele><time>2026-03-28T15:15:15Z</time></trkpt><trkpt lat="39.28768190778517" lon="16.955739730082996"><ele>328.5</ele><time>2026-03-28T15:15:16Z</time></trkpt><trkpt lat="39.28775355928406" lon="16.95569949985314"><ele>327.0</ele><time>2026-03-28T15:15:17Z</time></trkpt><trkpt lat="39.28783963678842" lon="16.955684428072612"><ele>330.1666666666667</ele><time>2026-03-28T15:15:18Z</time></trkpt><trkpt lat="39.287919967459494" lon="16.955644377931705"><ele>333.3333333333333</ele><time>2026-03-28T15:15:19Z</time></trkpt><trkpt lat="39.288004482294795" lon="16.95560368139213"><ele>336.5</ele><time>2026-03-28T15:15:20Z</time></trkpt><trkpt lat="39.28808278687396" lon="16.955557509015136"><ele>339.66666666666663</ele><time>2026-03-28T15:15:21Z</time></trkpt><trkpt lat="39.28816347513976" lon="16.955506028482024"><ele>342.8333333333333</ele><time>2026-03-28T15:15:22Z</time></trkpt><trkpt lat="39.28824433600652" lon="16.955449665687578"><ele>346.0</ele><time>2026-03-28T15:15:23Z</time></trkpt><trkpt lat="39.288323020598" lon="16.955383658756332"><ele>346.0</ele><time>2026-03-28T15:15:24Z</time></trkpt><trkpt lat="39.28839613200623" lon="16.95533155879982"><ele>346.0</ele><time>2026-03-28T15:15:25Z</time></trkpt><trkpt lat="39.28846019975036" lon="16.955289717397413"><ele>346.0</ele><time>2026-03-28T15:15:26Z</time></trkpt><trkpt lat="39.28851829707218" lon="16.95525683027265"><ele>346.0</ele><time>2026-03-28T15:15:27Z</time></trkpt><trkpt lat="39.28859896102394" lon="16.95521707517369"><ele>346.0</ele><time>2026-03-28T15:15:29Z</time></trkpt><trkpt lat="39.28868300042324" lon="16.95517855522649"><ele>346.0</ele><time>2026-03-28T15:15:31Z</time></trkpt><trkpt lat="39.28878964678094" lon="16.955177049974523"><ele>346.0</ele><time>2026-03-28T15:15:33Z</time></trkpt><trkpt lat="39.288853219613316" lon="16.95517901571853"><ele>346.0</ele><time>2026-03-28T15:15:34Z</time></trkpt><trkpt lat="39.288917559936124" lon="16.955170986626065"><ele>346.0</ele><time>2026-03-28T15:15:35Z</time></trkpt><trkpt lat="39.288984254059564" lon="16.95514880870295"><ele>346.0</ele><time>2026-03-28T15:15:36Z</time></trkpt><trkpt lat="39.28904871400445" lon="16.955113643690094"><ele>346.0</ele><time>2026-03-28T15:15:37Z</time></trkpt><trkpt lat="39.28911244249195" lon="16.955085401682293"><ele>346.0</ele><time>2026-03-28T15:15:38Z</time></trkpt><trkpt lat="39.28917505055741" lon="16.955061169206854"><ele>346.0</ele><time>2026-03-28T15:15:39Z</time></trkpt><trkpt lat="39.289238936860166" lon="16.955039290281665"><ele>349.0</ele><time>2026-03-28T15:15:40Z</time></trkpt><trkpt lat="39.28935381512185" lon="16.955007959644753"><ele>352.0</ele><time>2026-03-28T15:15:42Z</time></trkpt><trkpt lat="39.28948340037693" lon="16.954997555519196"><ele>355.0</ele><time>2026-03-28T15:15:44Z</time></trkpt><trkpt lat="39.28955454486599" lon="16.954981126391633"><ele>358.0</ele><time>2026-03-28T15:15:45Z</time></trkpt><trkpt lat="39.28963830129494" lon="16.954960837978373"><ele>361.0</ele><time>2026-03-28T15:15:46Z</time></trkpt><trkpt lat="39.289725020662885" lon="16.954944614590044"><ele>361.8333333333333</ele><time>2026-03-28T15:15:47Z</time></trkpt><trkpt lat="39.28981201453485" lon="16.95492513377727"><ele>362.66666666666663</ele><time>2026-03-28T15:15:48Z</time></trkpt><trkpt lat="39.289884220978045" lon="16.95489218787052"><ele>363.5</ele><time>2026-03-28T15:15:49Z</time></trkpt><trkpt lat="39.289955278600836" lon="16.954834927122214"><ele>364.3333333333333</ele><time>2026-03-28T15:15:50Z</time></trkpt><trkpt lat="39.290015525659996" lon="16.954769577641784"><ele>365.1666666666667</ele><time>2026-03-28T15:15:51Z</time></trkpt><trkpt lat="39.29007595832365" lon="16.954720302614493"><ele>366.0</ele><time>2026-03-28T15:15:52Z</time></trkpt><trkpt lat="39.29013095456944" lon="16.95467760151949"><ele>366.0</ele><time>2026-03-28T15:15:53Z</time></trkpt><trkpt lat="39.29022446051152" lon="16.95462343418891"><ele>366.0</ele><time>2026-03-28T15:15:55Z</time></trkpt><trkpt lat="39.29033168120937" lon="16.954548938648202"><ele>366.0</ele><time>2026-03-28T15:15:57Z</time></trkpt><trkpt lat="39.290402687304585" lon="16.954510930012965"><ele>366.0</ele><time>2026-03-28T15:15:58Z</time></trkpt><trkpt lat="39.29046847018854" lon="16.954454553448127"><ele>366.0</ele><time>2026-03-28T15:15:59Z</time></trkpt><trkpt lat="39.29054105936411" lon="16.954393367783037"><ele>366.20000000000005</ele><time>2026-03-28T15:16:00Z</time></trkpt><trkpt lat="39.29059757895458" lon="16.954339362442607"><ele>366.40000000000003</ele><time>2026-03-28T15:16:01Z</time></trkpt><trkpt lat="39.290677252705244" lon="16.95433949337753"><ele>366.6</ele><time>2026-03-28T15:16:03Z</time></trkpt><trkpt lat="39.29078462561104" lon="16.954453464409106"><ele>366.8</ele><time>2026-03-28T15:16:05Z</time></trkpt><trkpt lat="39.29086739249177" lon="16.954505928039797"><ele>367.0</ele><time>2026-03-28T15:16:06Z</time></trkpt><trkpt lat="39.290935162163606" lon="16.954542498099663"><ele>367.0</ele><time>2026-03-28T15:16:07Z</time></trkpt><trkpt lat="39.291000719359864" lon="16.954566173876213"><ele>367.0</ele><time>2026-03-28T15:16:08Z</time></trkpt><trkpt lat="39.29107300734006" lon="16.954590609760352"><ele>367.0</ele><time>2026-03-28T15:16:09Z</time></trkpt><trkpt lat="39.29114720734925" lon="16.954606200535945"><ele>367.0</ele><time>2026-03-28T15:16:10Z</time></trkpt><trkpt lat="39.291218191933005" lon="16.954631973244684"><ele>367.0</ele><time>2026-03-28T15:16:11Z</time></trkpt><trkpt lat="39.29129352290939" lon="16.954634807873013"><ele>367.0</ele><time>2026-03-28T15:16:12Z</time></trkpt><trkpt lat="39.291361705099014" lon="16.95464176478724"><ele>367.0</ele><time>2026-03-28T15:16:13Z</time></trkpt><trkpt lat="39.29148419974862" lon="16.95464706836143"><ele>366.0</ele><time>2026-03-28T15:16:15Z</time></trkpt><trkpt lat="39.291564107817784" lon="16.954633114946358"><ele>365.0</ele><time>2026-03-28T15:16:17Z</time></trkpt><trkpt lat="39.2916277824764" lon="16.954634418080843"><ele>364.0</ele><time>2026-03-28T15:16:24Z</time></trkpt><trkpt lat="39.29169602968923" lon="16.95463062959138"><ele>363.0</ele><time>2026-03-28T15:16:28Z</time></trkpt><trkpt lat="39.291782850892005" lon="16.954631733766888"><ele>362.0</ele><time>2026-03-28T15:16:31Z</time></trkpt><trkpt lat="39.29185855357767" lon="16.954613474695986"><ele>361.0</ele><time>2026-03-28T15:16:33Z</time></trkpt><trkpt lat="39.291973358633236" lon="16.954584216715773"><ele>361.0</ele><time>2026-03-28T15:16:35Z</time></trkpt><trkpt lat="39.29205962370096" lon="16.954570086858926"><ele>361.0</ele><time>2026-03-28T15:16:36Z</time></trkpt><trkpt lat="39.292144647898354" lon="16.95454138093228"><ele>361.0</ele><time>2026-03-28T15:16:37Z</time></trkpt><trkpt lat="39.29223329530959" lon="16.954508260609817"><ele>361.0</ele><time>2026-03-28T15:16:38Z</time></trkpt><trkpt lat="39.292313443612656" lon="16.954471364129112"><ele>361.0</ele><time>2026-03-28T15:16:39Z</time></trkpt><trkpt lat="39.29239167755871" lon="16.954440635309517"><ele>361.0</ele><time>2026-03-28T15:16:40Z</time></trkpt><trkpt lat="39.29248708387433" lon="16.954404971457997"><ele>359.6</ele><time>2026-03-28T15:16:42Z</time></trkpt><trkpt lat="39.29256942850802" lon="16.954388291732734"><ele>358.20000000000005</ele><time>2026-03-28T15:16:58Z</time></trkpt><trkpt lat="39.29265920348428" lon="16.954391757493667"><ele>356.79999999999995</ele><time>2026-03-28T15:17:00Z</time></trkpt><trkpt lat="39.292758715510296" lon="16.954391080851533"><ele>355.4</ele><time>2026-03-28T15:17:02Z</time></trkpt><trkpt lat="39.29288995405032" lon="16.954367289254847"><ele>354.0</ele><time>2026-03-28T15:17:04Z</time></trkpt><trkpt lat="39.29296530263318" lon="16.954321489433"><ele>354.0</ele><time>2026-03-28T15:17:05Z</time></trkpt><trkpt lat="39.29305423835403" lon="16.954293567424774"><ele>354.0</ele><time>2026-03-28T15:17:06Z</time></trkpt><trkpt lat="39.29313983564665" lon="16.95428235908152"><ele>354.0</ele><time>2026-03-28T15:17:07Z</time></trkpt><trkpt lat="39.293218839327416" lon="16.954246321019607"><ele>354.0</ele><time>2026-03-28T15:17:08Z</time></trkpt><trkpt lat="39.2932933925222" lon="16.95420310028401"><ele>354.0</ele><time>2026-03-28T15:17:09Z</time></trkpt><trkpt lat="39.29334818575344" lon="16.95414112574028"><ele>354.0</ele><time>2026-03-28T15:17:10Z</time></trkpt><trkpt lat="39.29340334175617" lon="16.954070080053047"><ele>356.0</ele><time>2026-03-28T15:17:11Z</time></trkpt><trkpt lat="39.29344813474778" lon="16.95399567134942"><ele>358.0</ele><time>2026-03-28T15:17:12Z</time></trkpt><trkpt lat="39.29350726318681" lon="16.953950754103158"><ele>360.0</ele><time>2026-03-28T15:17:13Z</time></trkpt><trkpt lat="39.29356833001789" lon="16.953924879291545"><ele>362.0</ele><time>2026-03-28T15:17:14Z</time></trkpt><trkpt lat="39.293678785108234" lon="16.954002103328232"><ele>364.0</ele><time>2026-03-28T15:17:16Z</time></trkpt><trkpt lat="39.2937454193388" lon="16.954038767577224"><ele>366.0</ele><time>2026-03-28T15:17:17Z</time></trkpt><trkpt lat="39.29382433724812" lon="16.954069745559508"><ele>366.0</ele><time>2026-03-28T15:17:18Z</time></trkpt><trkpt lat="39.2939025578894" lon="16.95407280376472"><ele>366.0</ele><time>2026-03-28T15:17:19Z</time></trkpt><trkpt lat="39.29397976255973" lon="16.954067004790534"><ele>366.0</ele><time>2026-03-28T15:17:20Z</time></trkpt><trkpt lat="39.29405019250008" lon="16.954068876906728"><ele>366.0</ele><time>2026-03-28T15:17:21Z</time></trkpt><trkpt lat="39.29413514642398" lon="16.9540867488696"><ele>366.0</ele><time>2026-03-28T15:17:22Z</time></trkpt><trkpt lat="39.29422575659215" lon="16.954111762880167"><ele>366.0</ele><time>2026-03-28T15:17:23Z</time></trkpt><trkpt lat="39.294309686727274" lon="16.954124201848035"><ele>367.1666666666667</ele><time>2026-03-28T15:17:24Z</time></trkpt><trkpt lat="39.294393732495145" lon="16.95412437039687"><ele>368.3333333333333</ele><time>2026-03-28T15:17:25Z</time></trkpt><trkpt lat="39.29448568544314" lon="16.95412619402994"><ele>369.5</ele><time>2026-03-28T15:17:26Z</time></trkpt><trkpt lat="39.29456704884836" lon="16.954156170110192"><ele>370.66666666666663</ele><time>2026-03-28T15:17:27Z</time></trkpt><trkpt lat="39.2946310356622" lon="16.954200163287613"><ele>371.8333333333333</ele><time>2026-03-28T15:17:28Z</time></trkpt><trkpt lat="39.29474478400317" lon="16.95422692368713"><ele>373.0</ele><time>2026-03-28T15:17:30Z</time></trkpt><trkpt lat="39.29481930770515" lon="16.95420459779027"><ele>373.66666666666663</ele><time>2026-03-28T15:17:31Z</time></trkpt><trkpt lat="39.29489306900332" lon="16.954155729798515"><ele>374.3333333333333</ele><time>2026-03-28T15:17:32Z</time></trkpt><trkpt lat="39.29495030487356" lon="16.954087049031408"><ele>375.0</ele><time>2026-03-28T15:17:33Z</time></trkpt><trkpt lat="39.2949845295317" lon="16.953989213250924"><ele>375.6666666666667</ele><time>2026-03-28T15:17:34Z</time></trkpt><trkpt lat="39.29506774028137" lon="16.953920508539916"><ele>376.33333333333337</ele><time>2026-03-28T15:17:36Z</time></trkpt><trkpt lat="39.29511839695307" lon="16.95396901953309"><ele>377.0</ele><time>2026-03-28T15:17:37Z</time></trkpt><trkpt lat="39.295166772902526" lon="16.954029934493025"><ele>377.0</ele><time>2026-03-28T15:17:38Z</time></trkpt><trkpt lat="39.29519279636257" lon="16.95411405767244"><ele>377.0</ele><time>2026-03-28T15:17:39Z</time></trkpt><trkpt lat="39.2951842465323" lon="16.954218691542376"><ele>377.0</ele><time>2026-03-28T15:17:40Z</time></trkpt><trkpt lat="39.29518725818901" lon="16.95432298472577"><ele>377.0</ele><time>2026-03-28T15:17:41Z</time></trkpt><trkpt lat="39.29521430613724" lon="16.954399880598483"><ele>377.0</ele><time>2026-03-28T15:17:42Z</time></trkpt><trkpt lat="39.29530243799565" lon="16.954457747877708"><ele>377.0</ele><time>2026-03-28T15:17:44Z</time></trkpt><trkpt lat="39.2954065465059" lon="16.95450416592223"><ele>375.5</ele><time>2026-03-28T15:17:46Z</time></trkpt><trkpt lat="39.29551791238682" lon="16.95454902893242"><ele>374.0</ele><time>2026-03-28T15:17:48Z</time></trkpt><trkpt lat="39.295627668965054" lon="16.954571634393954"><ele>372.5</ele><time>2026-03-28T15:17:50Z</time></trkpt><trkpt lat="39.29574074472329" lon="16.95455316306371"><ele>371.0</ele><time>2026-03-28T15:17:52Z</time></trkpt><trkpt lat="39.29584979626027" lon="16.95451629725602"><ele>375.8</ele><time>2026-03-28T15:17:54Z</time></trkpt><trkpt lat="39.295963839508474" lon="16.954491117524796"><ele>380.6</ele><time>2026-03-28T15:17:56Z</time></trkpt><trkpt lat="39.29606681489105" lon="16.954451354205343"><ele>385.4</ele><time>2026-03-28T15:17:58Z</time></trkpt><trkpt lat="39.29618174221343" lon="16.95442350057467"><ele>390.2</ele><time>2026-03-28T15:18:00Z</time></trkpt><trkpt lat="39.29624970951227" lon="16.95440100917383"><ele>395.0</ele><time>2026-03-28T15:18:01Z</time></trkpt><trkpt lat="39.29632513465053" lon="16.95438073453811"><ele>394.99999999999994</ele><time>2026-03-28T15:18:02Z</time></trkpt><trkpt lat="39.29640176023989" lon="16.95434945131622"><ele>395.0</ele><time>2026-03-28T15:18:03Z</time></trkpt><trkpt lat="39.29647113988128" lon="16.95432736615955"><ele>395.0</ele><time>2026-03-28T15:18:04Z</time></trkpt><trkpt lat="39.296565745090746" lon="16.954290776929763"><ele>395.0</ele><time>2026-03-28T15:18:06Z</time></trkpt><trkpt lat="39.29662860865045" lon="16.95428286308547"><ele>394.99999999999994</ele><time>2026-03-28T15:18:07Z</time></trkpt><trkpt lat="39.296694013114696" lon="16.95428674910026"><ele>395.0</ele><time>2026-03-28T15:18:08Z</time></trkpt><trkpt lat="39.29675993155663" lon="16.954323323320025"><ele>397.66666666666663</ele><time>2026-03-28T15:18:09Z</time></trkpt><trkpt lat="39.296816815266986" lon="16.954388446008267"><ele>400.3333333333333</ele><time>2026-03-28T15:18:10Z</time></trkpt><trkpt lat="39.296865232191855" lon="16.954468593762424"><ele>403.0</ele><time>2026-03-28T15:18:11Z</time></trkpt><trkpt lat="39.29690852487191" lon="16.954554155591353"><ele>405.66666666666663</ele><time>2026-03-28T15:18:12Z</time></trkpt><trkpt lat="39.296942416360004" lon="16.954657598761614"><ele>408.3333333333333</ele><time>2026-03-28T15:18:13Z</time></trkpt><trkpt lat="39.29697788289879" lon="16.954750023899766"><ele>411.0</ele><time>2026-03-28T15:18:14Z</time></trkpt><trkpt lat="39.29700100857685" lon="16.95483352000978"><ele>411.0</ele><time>2026-03-28T15:18:15Z</time></trkpt><trkpt lat="39.29698680731234" lon="16.954917291318992"><ele>411.0</ele><time>2026-03-28T15:18:16Z</time></trkpt><trkpt lat="39.29696389172301" lon="16.95501334435007"><ele>411.0</ele><time>2026-03-28T15:18:17Z</time></trkpt><trkpt lat="39.29694191883446" lon="16.955101710283838"><ele>411.0</ele><time>2026-03-28T15:18:18Z</time></trkpt><trkpt lat="39.29700157043952" lon="16.955199906544447"><ele>411.0</ele><time>2026-03-28T15:18:20Z</time></trkpt><trkpt lat="39.2970672458381" lon="16.955208627857083"><ele>411.0</ele><time>2026-03-28T15:18:21Z</time></trkpt><trkpt lat="39.29713762569596" lon="16.95521265987517"><ele>411.0</ele><time>2026-03-28T15:18:22Z</time></trkpt><trkpt lat="39.29721024590955" lon="16.9552208289504"><ele>413.42857142857144</ele><time>2026-03-28T15:18:23Z</time></trkpt><trkpt lat="39.297284721637006" lon="16.955213681942453"><ele>415.85714285714283</ele><time>2026-03-28T15:18:24Z</time></trkpt><trkpt lat="39.29735143910189" lon="16.95523695359967"><ele>418.28571428571433</ele><time>2026-03-28T15:18:25Z</time></trkpt><trkpt lat="39.29740843954186" lon="16.955278380241293"><ele>420.7142857142857</ele><time>2026-03-28T15:18:26Z</time></trkpt><trkpt lat="39.297452086484256" lon="16.95533998596413"><ele>423.14285714285717</ele><time>2026-03-28T15:18:27Z</time></trkpt><trkpt lat="39.29749346958985" lon="16.95540478951016"><ele>425.5714285714286</ele><time>2026-03-28T15:18:28Z</time></trkpt><trkpt lat="39.29754283185187" lon="16.955460522856143"><ele>428.0</ele><time>2026-03-28T15:18:29Z</time></trkpt><trkpt lat="39.29759301832318" lon="16.95551506332155"><ele>428.0</ele><time>2026-03-28T15:18:30Z</time></trkpt><trkpt lat="39.29764703797217" lon="16.95557107152393"><ele>427.99999999999994</ele><time>2026-03-28T15:18:31Z</time></trkpt><trkpt lat="39.2976865596535" lon="16.955636493118657"><ele>427.99999999999994</ele><time>2026-03-28T15:18:32Z</time></trkpt><trkpt lat="39.29774519938973" lon="16.955742214486076"><ele>428.0</ele><time>2026-03-28T15:18:34Z</time></trkpt><trkpt lat="39.29780529221521" lon="16.955858448835816"><ele>428.0</ele><time>2026-03-28T15:18:36Z</time></trkpt><trkpt lat="39.297883559556645" lon="16.955960970732296"><ele>428.4</ele><time>2026-03-28T15:18:38Z</time></trkpt><trkpt lat="39.297965423447835" lon="16.956055265006498"><ele>428.79999999999995</ele><time>2026-03-28T15:18:40Z</time></trkpt><trkpt lat="39.298041828066275" lon="16.9561628179634"><ele>429.2</ele><time>2026-03-28T15:18:42Z</time></trkpt><trkpt lat="39.298090769157355" lon="16.956272948918425"><ele>429.6</ele><time>2026-03-28T15:18:44Z</time></trkpt><trkpt lat="39.29811596650767" lon="16.956394764794467"><ele>430.0</ele><time>2026-03-28T15:18:46Z</time></trkpt><trkpt lat="39.298150911087944" lon="16.956514884662727"><ele>433.57142857142856</ele><time>2026-03-28T15:18:48Z</time></trkpt><trkpt lat="39.2982124666793" lon="16.956586156846193"><ele>437.14285714285717</ele><time>2026-03-28T15:18:50Z</time></trkpt><trkpt lat="39.29828253931202" lon="16.956595928908815"><ele>440.7142857142857</ele><time>2026-03-28T15:18:52Z</time></trkpt><trkpt lat="39.29835143605757" lon="16.95657849671514"><ele>444.2857142857143</ele><time>2026-03-28T15:18:59Z</time></trkpt><trkpt lat="39.2984176086427" lon="16.95659387234784"><ele>447.8571428571429</ele><time>2026-03-28T15:19:02Z</time></trkpt><trkpt lat="39.298368795569544" lon="16.956663410653555"><ele>451.42857142857144</ele><time>2026-03-28T15:19:05Z</time></trkpt><trkpt lat="39.298306691056105" lon="16.95668560197405"><ele>455.0</ele><time>2026-03-28T15:19:11.999Z</time></trkpt><trkpt lat="39.29823591328281" lon="16.95669958519801"><ele>457.8</ele><time>2026-03-28T15:19:13.999Z</time></trkpt><trkpt lat="39.298167877576965" lon="16.95670284331496"><ele>460.6</ele><time>2026-03-28T15:19:15.999Z</time></trkpt><trkpt lat="39.298096069211304" lon="16.956725907069252"><ele>463.4</ele><time>2026-03-28T15:19:17.999Z</time></trkpt><trkpt lat="39.2980430069858" lon="16.956812729871864"><ele>466.2</ele><time>2026-03-28T15:19:19.999Z</time></trkpt><trkpt lat="39.2980296117276" lon="16.95695878519931"><ele>469.0</ele><time>2026-03-28T15:19:21.999Z</time></trkpt><trkpt lat="39.29804698636648" lon="16.957101802142805"><ele>469.0</ele><time>2026-03-28T15:19:23.999Z</time></trkpt><trkpt lat="39.298064742932084" lon="16.957238691021253"><ele>469.0</ele><time>2026-03-28T15:19:25.999Z</time></trkpt><trkpt lat="39.29809155233456" lon="16.957354646168284"><ele>469.0</ele><time>2026-03-28T15:19:27.999Z</time></trkpt><trkpt lat="39.29812393438059" lon="16.95748646483864"><ele>469.0</ele><time>2026-03-28T15:19:29.999Z</time></trkpt><trkpt lat="39.298135954525605" lon="16.957608922170266"><ele>469.0</ele><time>2026-03-28T15:19:31.999Z</time></trkpt><trkpt lat="39.29813244831256" lon="16.957723234775045"><ele>472.4</ele><time>2026-03-28T15:19:33.999Z</time></trkpt><trkpt lat="39.29812671916539" lon="16.957848421046872"><ele>475.79999999999995</ele><time>2026-03-28T15:19:35.999Z</time></trkpt><trkpt lat="39.298137636947814" lon="16.95798125616276"><ele>479.20000000000005</ele><time>2026-03-28T15:19:37.999Z</time></trkpt><trkpt lat="39.298142946658935" lon="16.95806266154322"><ele>482.6</ele><time>2026-03-28T15:19:38.999Z</time></trkpt><trkpt lat="39.298130809287386" lon="16.958147194321345"><ele>486.0</ele><time>2026-03-28T15:19:39.999Z</time></trkpt><trkpt lat="39.298092939161734" lon="16.958294656350564"><ele>481.6</ele><time>2026-03-28T15:19:41.999Z</time></trkpt><trkpt lat="39.298031053061244" lon="16.95842383097264"><ele>477.20000000000005</ele><time>2026-03-28T15:19:43.999Z</time></trkpt><trkpt lat="39.29798428313142" lon="16.958565465790315"><ele>472.79999999999995</ele><time>2026-03-28T15:19:45.999Z</time></trkpt><trkpt lat="39.29795930833783" lon="16.958698259689008"><ele>468.4</ele><time>2026-03-28T15:19:47.999Z</time></trkpt><trkpt lat="39.297926579776856" lon="16.9588062387034"><ele>464.0</ele><time>2026-03-28T15:19:49.999Z</time></trkpt><trkpt lat="39.29788677571151" lon="16.958911485059172"><ele>464.0</ele><time>2026-03-28T15:19:51.999Z</time></trkpt><trkpt lat="39.297836407568155" lon="16.959013884009558"><ele>464.0</ele><time>2026-03-28T15:19:53.999Z</time></trkpt><trkpt lat="39.29777611999522" lon="16.959113013941792"><ele>464.0</ele><time>2026-03-28T15:19:55.999Z</time></trkpt><trkpt lat="39.297732293446884" lon="16.959230738878194"><ele>464.0</ele><time>2026-03-28T15:19:57.999Z</time></trkpt><trkpt lat="39.29767829234055" lon="16.9593714637993"><ele>464.0</ele><time>2026-03-28T15:19:59.999Z</time></trkpt><trkpt lat="39.29763747538396" lon="16.95943806528268"><ele>468.16666666666663</ele><time>2026-03-28T15:20:00.999Z</time></trkpt><trkpt lat="39.29759195478049" lon="16.959498613553077"><ele>472.3333333333333</ele><time>2026-03-28T15:20:01.999Z</time></trkpt><trkpt lat="39.29751953445284" lon="16.9596175226802"><ele>476.5</ele><time>2026-03-28T15:20:03.999Z</time></trkpt><trkpt lat="39.297454243436434" lon="16.95971446524273"><ele>480.66666666666663</ele><time>2026-03-28T15:20:05.999Z</time></trkpt><trkpt lat="39.29740541784418" lon="16.95979844795645"><ele>484.8333333333333</ele><time>2026-03-28T15:20:07.999Z</time></trkpt><trkpt lat="39.29737757753537" lon="16.959880907335503"><ele>489.0</ele><time>2026-03-28T15:20:10.999Z</time></trkpt><trkpt lat="39.29734627275513" lon="16.959957542390868"><ele>490.4</ele><time>2026-03-28T15:20:12.999Z</time></trkpt><trkpt lat="39.29726544724987" lon="16.960076606851516"><ele>491.79999999999995</ele><time>2026-03-28T15:20:14.999Z</time></trkpt><trkpt lat="39.29721513183132" lon="16.96014063658316"><ele>493.20000000000005</ele><time>2026-03-28T15:20:15.999Z</time></trkpt><trkpt lat="39.297127655482356" lon="16.960231804290032"><ele>494.6</ele><time>2026-03-28T15:20:17.999Z</time></trkpt><trkpt lat="39.29703967865097" lon="16.960327279641987"><ele>496.0</ele><time>2026-03-28T15:20:19.999Z</time></trkpt><trkpt lat="39.2969826343513" lon="16.960372468575617"><ele>496.0</ele><time>2026-03-28T15:20:20.999Z</time></trkpt><trkpt lat="39.29689299396087" lon="16.960403486078828"><ele>496.0</ele><time>2026-03-28T15:20:21.999Z</time></trkpt><trkpt lat="39.2967990079187" lon="16.960456788835238"><ele>496.0</ele><time>2026-03-28T15:20:22.999Z</time></trkpt><trkpt lat="39.29670691790577" lon="16.96053010986394"><ele>496.0</ele><time>2026-03-28T15:20:23.999Z</time></trkpt><trkpt lat="39.296613600486076" lon="16.960603047782467"><ele>496.0</ele><time>2026-03-28T15:20:24.999Z</time></trkpt><trkpt lat="39.296518482372655" lon="16.96065234767516"><ele>496.0</ele><time>2026-03-28T15:20:25.999Z</time></trkpt><trkpt lat="39.29643396532371" lon="16.960679039473224"><ele>496.0</ele><time>2026-03-28T15:20:26.999Z</time></trkpt><trkpt lat="39.2963750362828" lon="16.96071054941138"><ele>496.0</ele><time>2026-03-28T15:20:27.999Z</time></trkpt><trkpt lat="39.2963036792252" lon="16.960850175232263"><ele>496.0</ele><time>2026-03-28T15:20:29.999Z</time></trkpt><trkpt lat="39.29626432867101" lon="16.96094079863395"><ele>496.0</ele><time>2026-03-28T15:20:30.999Z</time></trkpt><trkpt lat="39.296215891228265" lon="16.961040274295346"><ele>496.6</ele><time>2026-03-28T15:20:31.999Z</time></trkpt><trkpt lat="39.296154019608906" lon="16.961134571641043"><ele>497.20000000000005</ele><time>2026-03-28T15:20:32.999Z</time></trkpt><trkpt lat="39.29609465153057" lon="16.961236983579237"><ele>497.79999999999995</ele><time>2026-03-28T15:20:33.999Z</time></trkpt><trkpt lat="39.29605804796081" lon="16.96135212776678"><ele>498.4</ele><time>2026-03-28T15:20:34.999Z</time></trkpt><trkpt lat="39.29601577835006" lon="16.96144161328251"><ele>499.0</ele><time>2026-03-28T15:20:35.999Z</time></trkpt><trkpt lat="39.29595145265597" lon="16.961506691663867"><ele>499.0</ele><time>2026-03-28T15:20:36.999Z</time></trkpt><trkpt lat="39.29587710743626" lon="16.961569970919356"><ele>499.0</ele><time>2026-03-28T15:20:37.999Z</time></trkpt><trkpt lat="39.29580106204805" lon="16.961642249256652"><ele>499.0</ele><time>2026-03-28T15:20:38.999Z</time></trkpt><trkpt lat="39.29572515414325" lon="16.961719286295594"><ele>499.0</ele><time>2026-03-28T15:20:39.999Z</time></trkpt><trkpt lat="39.29563967195447" lon="16.961774984714452"><ele>499.0</ele><time>2026-03-28T15:20:40.999Z</time></trkpt><trkpt lat="39.29555502163459" lon="16.961822832455216"><ele>498.33333333333337</ele><time>2026-03-28T15:20:41.999Z</time></trkpt><trkpt lat="39.29549257663122" lon="16.96190159095979"><ele>497.6666666666667</ele><time>2026-03-28T15:20:42.999Z</time></trkpt><trkpt lat="39.29543613172377" lon="16.961996657041304"><ele>497.0</ele><time>2026-03-28T15:20:43.999Z</time></trkpt><trkpt lat="39.29537614010147" lon="16.9620907454052"><ele>496.33333333333337</ele><time>2026-03-28T15:20:44.999Z</time></trkpt><trkpt lat="39.295309367026945" lon="16.962167657765555"><ele>495.6666666666667</ele><time>2026-03-28T15:20:45.999Z</time></trkpt><trkpt lat="39.2952451079639" lon="16.96218912899318"><ele>495.0</ele><time>2026-03-28T15:20:46.999Z</time></trkpt><trkpt lat="39.29513680042105" lon="16.962228677981827"><ele>495.0</ele><time>2026-03-28T15:20:48.999Z</time></trkpt><trkpt lat="39.295096670711324" lon="16.962292130105407"><ele>495.0</ele><time>2026-03-28T15:20:49.999Z</time></trkpt><trkpt lat="39.29506725102968" lon="16.962373665090023"><ele>495.0</ele><time>2026-03-28T15:20:50.999Z</time></trkpt><trkpt lat="39.295035341649935" lon="16.96246055398412"><ele>495.0</ele><time>2026-03-28T15:20:51.999Z</time></trkpt><trkpt lat="39.29499219133839" lon="16.96254874094448"><ele>495.0</ele><time>2026-03-28T15:20:52.999Z</time></trkpt><trkpt lat="39.29494879399797" lon="16.96263277218233"><ele>495.0</ele><time>2026-03-28T15:20:53.999Z</time></trkpt><trkpt lat="39.294904541380575" lon="16.962724498132207"><ele>497.0</ele><time>2026-03-28T15:20:54.999Z</time></trkpt><trkpt lat="39.29487169811431" lon="16.96280037033217"><ele>499.0</ele><time>2026-03-28T15:20:55.999Z</time></trkpt><trkpt lat="39.2948452257478" lon="16.96290710606673"><ele>501.0</ele><time>2026-03-28T15:20:57.999Z</time></trkpt><trkpt lat="39.29485935164402" lon="16.963012724632716"><ele>503.0</ele><time>2026-03-28T15:20:59.999Z</time></trkpt><trkpt lat="39.29487880689038" lon="16.96311415637901"><ele>505.0</ele><time>2026-03-28T15:21:01.999Z</time></trkpt><trkpt lat="39.29490157710399" lon="16.96321717548519"><ele>507.0</ele><time>2026-03-28T15:21:03.999Z</time></trkpt><trkpt lat="39.29492801893921" lon="16.9633213336867"><ele>510.0</ele><time>2026-03-28T15:21:05.999Z</time></trkpt><trkpt lat="39.29494075432738" lon="16.96343858868096"><ele>513.0</ele><time>2026-03-28T15:21:07.999Z</time></trkpt><trkpt lat="39.29491219382832" lon="16.963587192053552"><ele>516.0</ele><time>2026-03-28T15:21:09.999Z</time></trkpt><trkpt lat="39.294880233864326" lon="16.96367095788483"><ele>519.0</ele><time>2026-03-28T15:21:10.999Z</time></trkpt><trkpt lat="39.29482167789078" lon="16.96380662305026"><ele>522.0</ele><time>2026-03-28T15:21:12.999Z</time></trkpt><trkpt lat="39.29477046032346" lon="16.963868346822395"><ele>519.0</ele><time>2026-03-28T15:21:13.999Z</time></trkpt><trkpt lat="39.2947085307873" lon="16.963922791798232"><ele>516.0</ele><time>2026-03-28T15:21:14.999Z</time></trkpt><trkpt lat="39.294658222872776" lon="16.964006419192373"><ele>513.0</ele><time>2026-03-28T15:21:15.999Z</time></trkpt><trkpt lat="39.29461473734006" lon="16.96410697043252"><ele>510.0</ele><time>2026-03-28T15:21:16.999Z</time></trkpt><trkpt lat="39.29455706772113" lon="16.964205889671284"><ele>507.0</ele><time>2026-03-28T15:21:17.999Z</time></trkpt><trkpt lat="39.294488986702866" lon="16.964286010534174"><ele>504.0</ele><time>2026-03-28T15:21:18.999Z</time></trkpt><trkpt lat="39.294430110056155" lon="16.964375618591752"><ele>504.0</ele><time>2026-03-28T15:21:19.999Z</time></trkpt><trkpt lat="39.294403013819185" lon="16.96449688977772"><ele>504.0</ele><time>2026-03-28T15:21:20.999Z</time></trkpt><trkpt lat="39.29435777016853" lon="16.964612966393226"><ele>504.0</ele><time>2026-03-28T15:21:21.999Z</time></trkpt><trkpt lat="39.294306484877076" lon="16.964732292671933"><ele>504.0</ele><time>2026-03-28T15:21:22.999Z</time></trkpt><trkpt lat="39.29426925276454" lon="16.964866928503778"><ele>504.0</ele><time>2026-03-28T15:21:23.999Z</time></trkpt><trkpt lat="39.2942555856295" lon="16.96500049547067"><ele>506.8571428571429</ele><time>2026-03-28T15:21:24.999Z</time></trkpt><trkpt lat="39.294264184046966" lon="16.965099721983478"><ele>509.7142857142857</ele><time>2026-03-28T15:21:25.999Z</time></trkpt><trkpt lat="39.294244057240626" lon="16.965180255115005"><ele>512.5714285714286</ele><time>2026-03-28T15:21:26.999Z</time></trkpt><trkpt lat="39.29420217565613" lon="16.96525071628464"><ele>515.4285714285714</ele><time>2026-03-28T15:21:27.999Z</time></trkpt><trkpt lat="39.29413963629254" lon="16.96530807048813"><ele>518.2857142857143</ele><time>2026-03-28T15:21:28.999Z</time></trkpt><trkpt lat="39.2940861815241" lon="16.965384463110386"><ele>521.1428571428571</ele><time>2026-03-28T15:21:29.999Z</time></trkpt><trkpt lat="39.29405786359341" lon="16.96548239662946"><ele>524.0</ele><time>2026-03-28T15:21:30.999Z</time></trkpt><trkpt lat="39.294044172893535" lon="16.965580385047048"><ele>524.0</ele><time>2026-03-28T15:21:31.999Z</time></trkpt><trkpt lat="39.29402753173935" lon="16.965669420878612"><ele>524.0</ele><time>2026-03-28T15:21:32.999Z</time></trkpt><trkpt lat="39.29400311432646" lon="16.965753929506622"><ele>524.0</ele><time>2026-03-28T15:21:33.999Z</time></trkpt><trkpt lat="39.29397580330216" lon="16.965832940560365"><ele>524.0</ele><time>2026-03-28T15:21:34.999Z</time></trkpt><trkpt lat="39.29394376339458" lon="16.96592450853524"><ele>524.0</ele><time>2026-03-28T15:21:36.999Z</time></trkpt><trkpt lat="39.293919391527005" lon="16.966037181815437"><ele>524.0</ele><time>2026-03-28T15:21:39.999Z</time></trkpt><trkpt lat="39.29398981304196" lon="16.96606711706532"><ele>524.0</ele><time>2026-03-28T15:21:41.999Z</time></trkpt><trkpt lat="39.29404720858699" lon="16.965999950117116"><ele>524.0</ele><time>2026-03-28T15:21:42.999Z</time></trkpt><trkpt lat="39.29410812135892" lon="16.965888730938822"><ele>524.0</ele><time>2026-03-28T15:21:43.999Z</time></trkpt><trkpt lat="39.29419022680733" lon="16.965788614347293"><ele>524.0</ele><time>2026-03-28T15:21:44.999Z</time></trkpt><trkpt lat="39.29427146579591" lon="16.9656904573019"><ele>524.0</ele><time>2026-03-28T15:21:45.999Z</time></trkpt><trkpt lat="39.29434274820745" lon="16.965609660003395"><ele>524.0</ele><time>2026-03-28T15:21:46.999Z</time></trkpt><trkpt lat="39.294394035969866" lon="16.96555562112735"><ele>524.0</ele><time>2026-03-28T15:21:47.999Z</time></trkpt><trkpt lat="39.29445992699894" lon="16.965505682885567"><ele>524.0</ele><time>2026-03-28T15:21:50.999Z</time></trkpt><trkpt lat="39.29451237523215" lon="16.965596289305296"><ele>524.0</ele><time>2026-03-28T15:21:53.999Z</time></trkpt><trkpt lat="39.29447386069415" lon="16.96566220778324"><ele>524.0</ele><time>2026-03-28T15:21:54.999Z</time></trkpt><trkpt lat="39.29442436074958" lon="16.965716772736922"><ele>524.0</ele><time>2026-03-28T15:21:55.999Z</time></trkpt><trkpt lat="39.29438548803028" lon="16.965786153016918"><ele>524.0</ele><time>2026-03-28T15:21:56.999Z</time></trkpt><trkpt lat="39.29433587696424" lon="16.965883303199533"><ele>528.6</ele><time>2026-03-28T15:21:57.999Z</time></trkpt><trkpt lat="39.294291377077975" lon="16.96601366947208"><ele>533.2</ele><time>2026-03-28T15:21:58.999Z</time></trkpt><trkpt lat="39.29426745490412" lon="16.96616664546497"><ele>537.8000000000001</ele><time>2026-03-28T15:21:59.999Z</time></trkpt><trkpt lat="39.29425479391642" lon="16.96631360700296"><ele>542.4</ele><time>2026-03-28T15:22:00.999Z</time></trkpt><trkpt lat="39.29424040243741" lon="16.966440467017204"><ele>547.0</ele><time>2026-03-28T15:22:01.999Z</time></trkpt><trkpt lat="39.29422300183918" lon="16.96652990121745"><ele>547.0</ele><time>2026-03-28T15:22:02.999Z</time></trkpt><trkpt lat="39.294202372348906" lon="16.966637152607547"><ele>547.0</ele><time>2026-03-28T15:22:04.999Z</time></trkpt><trkpt lat="39.29414244844126" lon="16.966779250940004"><ele>547.0</ele><time>2026-03-28T15:22:06.999Z</time></trkpt><trkpt lat="39.29410368718035" lon="16.966848574806157"><ele>547.0</ele><time>2026-03-28T15:22:07.999Z</time></trkpt><trkpt lat="39.29406151377089" lon="16.966914422719153"><ele>547.0</ele><time>2026-03-28T15:22:08.999Z</time></trkpt><trkpt lat="39.29400376529892" lon="16.966972784337223"><ele>547.0</ele><time>2026-03-28T15:22:09.999Z</time></trkpt><trkpt lat="39.29393227511892" lon="16.967025422210675"><ele>545.3333333333334</ele><time>2026-03-28T15:22:10.999Z</time></trkpt><trkpt lat="39.293864857582115" lon="16.967086939368638"><ele>543.6666666666667</ele><time>2026-03-28T15:22:11.999Z</time></trkpt><trkpt lat="39.29380918229664" lon="16.967174059345904"><ele>542.0</ele><time>2026-03-28T15:22:12.999Z</time></trkpt><trkpt lat="39.2937767290636" lon="16.967282330480018"><ele>540.3333333333334</ele><time>2026-03-28T15:22:13.999Z</time></trkpt><trkpt lat="39.29376898436253" lon="16.967397148159527"><ele>538.6666666666666</ele><time>2026-03-28T15:22:14.999Z</time></trkpt><trkpt lat="39.29377526945133" lon="16.967480730917384"><ele>537.0</ele><time>2026-03-28T15:22:15.999Z</time></trkpt><trkpt lat="39.29378289978867" lon="16.967599097927977"><ele>544.6</ele><time>2026-03-28T15:22:17.999Z</time></trkpt><trkpt lat="39.29373721369292" lon="16.967695724783223"><ele>552.2</ele><time>2026-03-28T15:22:19.999Z</time></trkpt><trkpt lat="39.293602700300674" lon="16.96777665839298"><ele>559.8</ele><time>2026-03-28T15:22:21.999Z</time></trkpt><trkpt lat="39.29352244226838" lon="16.96783455093078"><ele>567.4</ele><time>2026-03-28T15:22:22.999Z</time></trkpt><trkpt lat="39.293460369337396" lon="16.967907794768138"><ele>575.0</ele><time>2026-03-28T15:22:23.999Z</time></trkpt><trkpt lat="39.29341618659901" lon="16.967979141547733"><ele>575.0</ele><time>2026-03-28T15:22:24.999Z</time></trkpt><trkpt lat="39.29337056221293" lon="16.96804143751784"><ele>575.0</ele><time>2026-03-28T15:22:25.999Z</time></trkpt><trkpt lat="39.29331833702039" lon="16.968094771257114"><ele>575.0</ele><time>2026-03-28T15:22:26.999Z</time></trkpt><trkpt lat="39.29325992736277" lon="16.968143247891373"><ele>575.0</ele><time>2026-03-28T15:22:27.999Z</time></trkpt><trkpt lat="39.293193974415395" lon="16.968176929783773"><ele>575.0</ele><time>2026-03-28T15:22:28.999Z</time></trkpt><trkpt lat="39.29312204030071" lon="16.968182940615936"><ele>575.0</ele><time>2026-03-28T15:22:29.999Z</time></trkpt><trkpt lat="39.29305211283617" lon="16.96818826759489"><ele>575.0</ele><time>2026-03-28T15:22:30.999Z</time></trkpt><trkpt lat="39.292971588951914" lon="16.968179889135424"><ele>573.0</ele><time>2026-03-28T15:22:32.999Z</time></trkpt><trkpt lat="39.29291509507814" lon="16.968221792819314"><ele>571.0</ele><time>2026-03-28T15:22:35.999Z</time></trkpt><trkpt lat="39.292996171443825" lon="16.968368145765876"><ele>569.0</ele><time>2026-03-28T15:22:37.999Z</time></trkpt><trkpt lat="39.2930716399472" lon="16.96844435311359"><ele>567.0</ele><time>2026-03-28T15:22:38.999Z</time></trkpt><trkpt lat="39.29315975257361" lon="16.968523223603693"><ele>565.0</ele><time>2026-03-28T15:22:39.999Z</time></trkpt><trkpt lat="39.293244106465785" lon="16.968584347100236"><ele>568.6666666666667</ele><time>2026-03-28T15:22:40.999Z</time></trkpt><trkpt lat="39.293301939094526" lon="16.96862348788185"><ele>572.3333333333334</ele><time>2026-03-28T15:22:41.999Z</time></trkpt><trkpt lat="39.29337554155181" lon="16.96868475866586"><ele>576.0</ele><time>2026-03-28T15:22:43.999Z</time></trkpt><trkpt lat="39.29338475404597" lon="16.968782616906125"><ele>579.6666666666666</ele><time>2026-03-28T15:22:45.999Z</time></trkpt><trkpt lat="39.2933557021915" lon="16.968872083092855"><ele>583.3333333333333</ele><time>2026-03-28T15:22:46.999Z</time></trkpt><trkpt lat="39.293304263195054" lon="16.96898368039383"><ele>587.0</ele><time>2026-03-28T15:22:47.999Z</time></trkpt><trkpt lat="39.29327231639132" lon="16.9690831125647"><ele>587.0</ele><time>2026-03-28T15:22:49.999Z</time></trkpt><trkpt lat="39.293240710371855" lon="16.969174800915482"><ele>587.0</ele><time>2026-03-28T15:22:51.999Z</time></trkpt><trkpt lat="39.293203656296605" lon="16.96932997658617"><ele>587.0</ele><time>2026-03-28T15:22:53.999Z</time></trkpt><trkpt lat="39.2931885310826" lon="16.969477026151218"><ele>587.0</ele><time>2026-03-28T15:22:55.999Z</time></trkpt><trkpt lat="39.29319165519585" lon="16.969587477588558"><ele>587.0</ele><time>2026-03-28T15:22:57.999Z</time></trkpt><trkpt lat="39.29320065376206" lon="16.96969660027569"><ele>588.5</ele><time>2026-03-28T15:23:00.999Z</time></trkpt><trkpt lat="39.293310638107286" lon="16.969665420744846"><ele>590.0</ele><time>2026-03-28T15:23:03.999Z</time></trkpt><trkpt lat="39.293364135937544" lon="16.969536206663857"><ele>591.5</ele><time>2026-03-28T15:23:04.999Z</time></trkpt><trkpt lat="39.29343905242406" lon="16.96942658625989"><ele>593.0</ele><time>2026-03-28T15:23:05.999Z</time></trkpt><trkpt lat="39.293534693531335" lon="16.969309959822272"><ele>591.0</ele><time>2026-03-28T15:23:06.999Z</time></trkpt><trkpt lat="39.293642196362825" lon="16.96918503853824"><ele>589.0</ele><time>2026-03-28T15:23:07.999Z</time></trkpt><trkpt lat="39.293757673150104" lon="16.96905003621529"><ele>587.0</ele><time>2026-03-28T15:23:08.999Z</time></trkpt><trkpt lat="39.29387923764178" lon="16.968910419455376"><ele>587.3333333333333</ele><time>2026-03-28T15:23:09.999Z</time></trkpt><trkpt lat="39.29401103096874" lon="16.968769394713167"><ele>587.6666666666666</ele><time>2026-03-28T15:23:10.999Z</time></trkpt><trkpt lat="39.29415344864475" lon="16.96863174930917"><ele>588.0</ele><time>2026-03-28T15:23:11.999Z</time></trkpt><trkpt lat="39.29430258383271" lon="16.968494863000966"><ele>590.6666666666666</ele><time>2026-03-28T15:23:12.999Z</time></trkpt><trkpt lat="39.294446537161065" lon="16.968356896150905"><ele>593.3333333333333</ele><time>2026-03-28T15:23:13.999Z</time></trkpt><trkpt lat="39.29457531091734" lon="16.96823454659449"><ele>596.0</ele><time>2026-03-28T15:23:14.999Z</time></trkpt><trkpt lat="39.294684198193785" lon="16.968128856725272"><ele>595.4</ele><time>2026-03-28T15:23:15.999Z</time></trkpt><trkpt lat="39.29478578693275" lon="16.968038279951127"><ele>594.8</ele><time>2026-03-28T15:23:16.999Z</time></trkpt><trkpt lat="39.29487200053192" lon="16.967957739167815"><ele>594.1999999999999</ele><time>2026-03-28T15:23:17.999Z</time></trkpt><trkpt lat="39.294951122763074" lon="16.96787633021862"><ele>593.6</ele><time>2026-03-28T15:23:18.999Z</time></trkpt><trkpt lat="39.295030427549044" lon="16.96778591885694"><ele>593.0</ele><time>2026-03-28T15:23:19.999Z</time></trkpt><trkpt lat="39.29511117259587" lon="16.96769545426504"><ele>593.0</ele><time>2026-03-28T15:23:20.999Z</time></trkpt><trkpt lat="39.29519625123488" lon="16.967603532714147"><ele>593.0</ele><time>2026-03-28T15:23:21.999Z</time></trkpt><trkpt lat="39.29528531154641" lon="16.967508367227754"><ele>593.0</ele><time>2026-03-28T15:23:22.999Z</time></trkpt><trkpt lat="39.29537799284029" lon="16.967411192956046"><ele>593.0</ele><time>2026-03-28T15:23:23.999Z</time></trkpt><trkpt lat="39.295485646326355" lon="16.96733648387725"><ele>595.0</ele><time>2026-03-28T15:23:24.999Z</time></trkpt><trkpt lat="39.2956024905889" lon="16.96728797198372"><ele>597.0</ele><time>2026-03-28T15:23:25.999Z</time></trkpt><trkpt lat="39.295715502069314" lon="16.96724791478451"><ele>599.0</ele><time>2026-03-28T15:23:26.999Z</time></trkpt><trkpt lat="39.29580044008337" lon="16.967191039625835"><ele>601.0</ele><time>2026-03-28T15:23:27.999Z</time></trkpt><trkpt lat="39.29586683181185" lon="16.967107290652375"><ele>603.0</ele><time>2026-03-28T15:23:28.999Z</time></trkpt><trkpt lat="39.295916189166164" lon="16.96700584181628"><ele>603.0</ele><time>2026-03-28T15:23:29.999Z</time></trkpt><trkpt lat="39.29594688874822" lon="16.966897424806863"><ele>603.0</ele><time>2026-03-28T15:23:30.999Z</time></trkpt><trkpt lat="39.295974249929934" lon="16.96679700732814"><ele>603.0</ele><time>2026-03-28T15:23:31.999Z</time></trkpt><trkpt lat="39.2960064989496" lon="16.966706799995293"><ele>603.0</ele><time>2026-03-28T15:23:32.999Z</time></trkpt><trkpt lat="39.296038596802944" lon="16.96661996245378"><ele>603.0</ele><time>2026-03-28T15:23:33.999Z</time></trkpt><trkpt lat="39.29607657353609" lon="16.96651812102849"><ele>603.0</ele><time>2026-03-28T15:23:34.999Z</time></trkpt><trkpt lat="39.29611722909466" lon="16.966405202727955"><ele>604.1999999999999</ele><time>2026-03-28T15:23:35.999Z</time></trkpt><trkpt lat="39.296159164002546" lon="16.966285155726382"><ele>605.4</ele><time>2026-03-28T15:23:36.999Z</time></trkpt><trkpt lat="39.29620301602344" lon="16.966155100573147"><ele>606.5999999999999</ele><time>2026-03-28T15:23:37.999Z</time></trkpt><trkpt lat="39.29624652964354" lon="16.966022712751663"><ele>607.8</ele><time>2026-03-28T15:23:38.999Z</time></trkpt><trkpt lat="39.296290288429994" lon="16.96588617321044"><ele>609.0</ele><time>2026-03-28T15:23:39.999Z</time></trkpt><trkpt lat="39.296330126322324" lon="16.96576299009064"><ele>609.0</ele><time>2026-03-28T15:23:40.999Z</time></trkpt><trkpt lat="39.29636070607038" lon="16.96566870274757"><ele>609.0</ele><time>2026-03-28T15:23:41.999Z</time></trkpt><trkpt lat="39.29639459442529" lon="16.965578823619655"><ele>609.0</ele><time>2026-03-28T15:23:43.999Z</time></trkpt><trkpt lat="39.29643299945027" lon="16.96551175223869"><ele>609.0</ele><time>2026-03-28T15:23:47.999Z</time></trkpt><trkpt lat="39.2964921681356" lon="16.965445727181695"><ele>609.0</ele><time>2026-03-28T15:23:50.999Z</time></trkpt><trkpt lat="39.296540119560696" lon="16.96536818961697"><ele>609.0</ele><time>2026-03-28T15:23:52.999Z</time></trkpt><trkpt lat="39.29660908971931" lon="16.96526842828537"><ele>611.6666666666666</ele><time>2026-03-28T15:23:54.999Z</time></trkpt><trkpt lat="39.29671345600638" lon="16.96521521046499"><ele>614.3333333333334</ele><time>2026-03-28T15:23:56.999Z</time></trkpt><trkpt lat="39.296826398861576" lon="16.965142350885962"><ele>617.0</ele><time>2026-03-28T15:23:58.999Z</time></trkpt><trkpt lat="39.29688351198097" lon="16.965103570906066"><ele>619.6666666666667</ele><time>2026-03-28T15:23:59.999Z</time></trkpt><trkpt lat="39.2969444106461" lon="16.965064817862856"><ele>622.3333333333334</ele><time>2026-03-28T15:24:00.999Z</time></trkpt><trkpt lat="39.29700375868159" lon="16.965017681708762"><ele>625.0</ele><time>2026-03-28T15:24:01.999Z</time></trkpt><trkpt lat="39.297081118818944" lon="16.96491998165671"><ele>627.4</ele><time>2026-03-28T15:24:03.999Z</time></trkpt><trkpt lat="39.2970842951985" lon="16.96479002300103"><ele>629.8</ele><time>2026-03-28T15:24:05.999Z</time></trkpt><trkpt lat="39.29700936553138" lon="16.964657544401053"><ele>632.2</ele><time>2026-03-28T15:24:07.999Z</time></trkpt><trkpt lat="39.29693967156716" lon="16.964596139074306"><ele>634.6</ele><time>2026-03-28T15:24:08.999Z</time></trkpt><trkpt lat="39.29687523431907" lon="16.964544610114775"><ele>637.0</ele><time>2026-03-28T15:24:09.999Z</time></trkpt><trkpt lat="39.29680109946801" lon="16.964505126487563"><ele>637.0</ele><time>2026-03-28T15:24:10.999Z</time></trkpt><trkpt lat="39.29670770958764" lon="16.964481094091408"><ele>637.0</ele><time>2026-03-28T15:24:12.999Z</time></trkpt><trkpt lat="39.296636870074245" lon="16.96448808132778"><ele>637.0</ele><time>2026-03-28T15:24:17.999Z</time></trkpt><trkpt lat="39.296566797375995" lon="16.96456713462882"><ele>637.0</ele><time>2026-03-28T15:24:21.999Z</time></trkpt><trkpt lat="39.296556745454126" lon="16.964690301526794"><ele>637.0</ele><time>2026-03-28T15:24:23.999Z</time></trkpt><trkpt lat="39.29649565301947" lon="16.964637920922712"><ele>637.0</ele><time>2026-03-28T15:24:26.999Z</time></trkpt><trkpt lat="39.29651255103752" lon="16.964557662041006"><ele>637.0</ele><time>2026-03-28T15:24:33.999Z</time></trkpt></trkseg><trkseg><trkpt lat="39.300414804778036" lon="16.973227914458914"><ele>484.0</ele><time>2026-03-28T15:40:49Z</time></trkpt><trkpt lat="39.30043787502811" lon="16.97309795069828"><ele>484.0</ele><time>2026-03-28T15:40:51Z</time></trkpt><trkpt lat="39.30048602105467" lon="16.972951689928554"><ele>484.0</ele><time>2026-03-28T15:40:53Z</time></trkpt><trkpt lat="39.300556744298824" lon="16.972869388234415"><ele>484.0</ele><time>2026-03-28T15:40:54Z</time></trkpt><trkpt lat="39.300610964731256" lon="16.97276104665218"><ele>484.0</ele><time>2026-03-28T15:40:55Z</time></trkpt><trkpt lat="39.30062778422548" lon="16.972677995111226"><ele>485.6</ele><time>2026-03-28T15:40:56Z</time></trkpt><trkpt lat="39.300597423322586" lon="16.97259833586736"><ele>487.2</ele><time>2026-03-28T15:40:57Z</time></trkpt><trkpt lat="39.30052171881522" lon="16.972521249964153"><ele>488.80000000000007</ele><time>2026-03-28T15:40:58Z</time></trkpt><trkpt lat="39.30042716578027" lon="16.97241781973516"><ele>490.40000000000003</ele><time>2026-03-28T15:40:59Z</time></trkpt><trkpt lat="39.300325924644575" lon="16.972309343837516"><ele>492.0</ele><time>2026-03-28T15:41:00Z</time></trkpt><trkpt lat="39.30026313236438" lon="16.97222469891191"><ele>492.0</ele><time>2026-03-28T15:41:01Z</time></trkpt><trkpt lat="39.300182668005775" lon="16.97215423400722"><ele>492.00000000000006</ele><time>2026-03-28T15:41:02Z</time></trkpt><trkpt lat="39.30009455032313" lon="16.97208406126751"><ele>492.00000000000006</ele><time>2026-03-28T15:41:03Z</time></trkpt><trkpt lat="39.30001862629373" lon="16.97202190949504"><ele>492.0</ele><time>2026-03-28T15:41:04Z</time></trkpt><trkpt lat="39.299978633382345" lon="16.971932558275615"><ele>492.0</ele><time>2026-03-28T15:41:05Z</time></trkpt><trkpt lat="39.29995979348904" lon="16.971794763835923"><ele>489.8</ele><time>2026-03-28T15:41:06Z</time></trkpt><trkpt lat="39.29996042239257" lon="16.971620885038668"><ele>487.6</ele><time>2026-03-28T15:41:07Z</time></trkpt><trkpt lat="39.299937040323016" lon="16.971469384385923"><ele>485.40000000000003</ele><time>2026-03-28T15:41:08Z</time></trkpt><trkpt lat="39.29989547995756" lon="16.971358563672876"><ele>483.20000000000005</ele><time>2026-03-28T15:41:09Z</time></trkpt><trkpt lat="39.29990338070197" lon="16.971272237094194"><ele>481.0</ele><time>2026-03-28T15:41:10Z</time></trkpt><trkpt lat="39.29995900428053" lon="16.971205749401296"><ele>481.0</ele><time>2026-03-28T15:41:11Z</time></trkpt><trkpt lat="39.300038172031414" lon="16.971184623056615"><ele>481.0</ele><time>2026-03-28T15:41:12Z</time></trkpt><trkpt lat="39.30013773305245" lon="16.971206273384748"><ele>481.0</ele><time>2026-03-28T15:41:13Z</time></trkpt><trkpt lat="39.30024866548707" lon="16.971206935687192"><ele>481.0</ele><time>2026-03-28T15:41:14Z</time></trkpt><trkpt lat="39.30035034448859" lon="16.97121143892697"><ele>481.0</ele><time>2026-03-28T15:41:15Z</time></trkpt><trkpt lat="39.30043932748101" lon="16.971301338890243"><ele>481.0</ele><time>2026-03-28T15:41:16Z</time></trkpt><trkpt lat="39.3005332727188" lon="16.97139883968049"><ele>481.0</ele><time>2026-03-28T15:41:17Z</time></trkpt><trkpt lat="39.30063763648924" lon="16.971434977375136"><ele>481.0</ele><time>2026-03-28T15:41:18Z</time></trkpt><trkpt lat="39.300786652981245" lon="16.971518628983407"><ele>481.0</ele><time>2026-03-28T15:41:19Z</time></trkpt><trkpt lat="39.3008930406814" lon="16.971573274948764"><ele>479.5</ele><time>2026-03-28T15:41:20Z</time></trkpt><trkpt lat="39.30097820504996" lon="16.971628838342323"><ele>478.0</ele><time>2026-03-28T15:41:21Z</time></trkpt><trkpt lat="39.301065750766064" lon="16.97172499403032"><ele>476.5</ele><time>2026-03-28T15:41:22Z</time></trkpt><trkpt lat="39.30113091517297" lon="16.971871839992197"><ele>475.0</ele><time>2026-03-28T15:41:23Z</time></trkpt><trkpt lat="39.30119410437315" lon="16.9720252586747"><ele>473.0</ele><time>2026-03-28T15:41:24Z</time></trkpt><trkpt lat="39.301250902164654" lon="16.972170878530243"><ele>471.0</ele><time>2026-03-28T15:41:25Z</time></trkpt><trkpt lat="39.30133833394073" lon="16.97226298901555"><ele>469.0</ele><time>2026-03-28T15:41:26Z</time></trkpt><trkpt lat="39.30141238788081" lon="16.97231486469978"><ele>467.0</ele><time>2026-03-28T15:41:27Z</time></trkpt><trkpt lat="39.30148587765859" lon="16.97230817663288"><ele>465.0</ele><time>2026-03-28T15:41:28Z</time></trkpt><trkpt lat="39.30154510145841" lon="16.972248104726035"><ele>460.75</ele><time>2026-03-28T15:41:29Z</time></trkpt><trkpt lat="39.30157376056636" lon="16.97214483865225"><ele>456.5</ele><time>2026-03-28T15:41:30Z</time></trkpt><trkpt lat="39.30158990008996" lon="16.972018072104166"><ele>452.25</ele><time>2026-03-28T15:41:31Z</time></trkpt><trkpt lat="39.301642230352954" lon="16.971866078987723"><ele>448.0</ele><time>2026-03-28T15:41:32Z</time></trkpt><trkpt lat="39.30169976228242" lon="16.97169689458587"><ele>453.75</ele><time>2026-03-28T15:41:33Z</time></trkpt><trkpt lat="39.301750479846646" lon="16.97150702288843"><ele>459.5</ele><time>2026-03-28T15:41:34Z</time></trkpt><trkpt lat="39.30178523292518" lon="16.971342771772285"><ele>465.25</ele><time>2026-03-28T15:41:35Z</time></trkpt><trkpt lat="39.30179835977773" lon="16.971195227404603"><ele>471.0</ele><time>2026-03-28T15:41:36Z</time></trkpt><trkpt lat="39.30179278764676" lon="16.971064194604857"><ele>471.0</ele><time>2026-03-28T15:41:37Z</time></trkpt><trkpt lat="39.301766392421015" lon="16.970924114411638"><ele>471.0</ele><time>2026-03-28T15:41:38Z</time></trkpt><trkpt lat="39.30172791920343" lon="16.970763093288113"><ele>471.0</ele><time>2026-03-28T15:41:39Z</time></trkpt><trkpt lat="39.30171132920594" lon="16.970590039664206"><ele>471.0</ele><time>2026-03-28T15:41:40Z</time></trkpt><trkpt lat="39.30170885800037" lon="16.970479720048818"><ele>472.20000000000005</ele><time>2026-03-28T15:41:41Z</time></trkpt><trkpt lat="39.30170311783784" lon="16.97038515187849"><ele>473.40000000000003</ele><time>2026-03-28T15:41:42Z</time></trkpt><trkpt lat="39.30165914820184" lon="16.970297683087818"><ele>474.6</ele><time>2026-03-28T15:41:43Z</time></trkpt><trkpt lat="39.30157268890836" lon="16.97022546390508"><ele>475.8</ele><time>2026-03-28T15:41:44Z</time></trkpt><trkpt lat="39.301504171493825" lon="16.970115453866967"><ele>477.0</ele><time>2026-03-28T15:41:45Z</time></trkpt><trkpt lat="39.301467586693335" lon="16.969967462668063"><ele>477.0</ele><time>2026-03-28T15:41:46Z</time></trkpt><trkpt lat="39.30148324485859" lon="16.969828075079473"><ele>477.00000000000006</ele><time>2026-03-28T15:41:47Z</time></trkpt><trkpt lat="39.30148849776166" lon="16.969708918698135"><ele>477.00000000000006</ele><time>2026-03-28T15:41:48Z</time></trkpt><trkpt lat="39.30153118183673" lon="16.9696116934414"><ele>477.0</ele><time>2026-03-28T15:41:49Z</time></trkpt><trkpt lat="39.30157131193459" lon="16.96947041722915"><ele>477.0</ele><time>2026-03-28T15:41:50Z</time></trkpt><trkpt lat="39.3016185497619" lon="16.969320144033073"><ele>477.20000000000005</ele><time>2026-03-28T15:41:51Z</time></trkpt><trkpt lat="39.30160863496988" lon="16.969181112790935"><ele>477.40000000000003</ele><time>2026-03-28T15:41:52Z</time></trkpt><trkpt lat="39.30159886494654" lon="16.96901134787239"><ele>477.59999999999997</ele><time>2026-03-28T15:41:53Z</time></trkpt><trkpt lat="39.30160267544729" lon="16.96886102149676"><ele>477.79999999999995</ele><time>2026-03-28T15:41:54Z</time></trkpt><trkpt lat="39.30157110214746" lon="16.968764852394553"><ele>478.0</ele><time>2026-03-28T15:41:55Z</time></trkpt><trkpt lat="39.301488102782436" lon="16.968675665682944"><ele>477.25</ele><time>2026-03-28T15:41:56Z</time></trkpt><trkpt lat="39.30140445907972" lon="16.96858318088882"><ele>476.5</ele><time>2026-03-28T15:41:57Z</time></trkpt><trkpt lat="39.301352113905196" lon="16.968463925419186"><ele>475.75</ele><time>2026-03-28T15:41:58Z</time></trkpt><trkpt lat="39.301391204803004" lon="16.968315897013284"><ele>475.0</ele><time>2026-03-28T15:41:59Z</time></trkpt><trkpt lat="39.30145486394947" lon="16.968154498499263"><ele>475.0</ele><time>2026-03-28T15:42:00Z</time></trkpt><trkpt lat="39.301536631628956" lon="16.96805212415656"><ele>475.0</ele><time>2026-03-28T15:42:01Z</time></trkpt><trkpt lat="39.301613403251515" lon="16.967962237081018"><ele>475.0</ele><time>2026-03-28T15:42:02Z</time></trkpt><trkpt lat="39.301706087294534" lon="16.96790043141949"><ele>475.0</ele><time>2026-03-28T15:42:03Z</time></trkpt><trkpt lat="39.30176062782274" lon="16.96781493627018"><ele>475.0</ele><time>2026-03-28T15:42:04Z</time></trkpt><trkpt lat="39.30177177960608" lon="16.967677909726355"><ele>475.0</ele><time>2026-03-28T15:42:05Z</time></trkpt><trkpt lat="39.30178661642557" lon="16.96752311662734"><ele>475.0</ele><time>2026-03-28T15:42:06Z</time></trkpt><trkpt lat="39.301859367868964" lon="16.96747256653263"><ele>475.0</ele><time>2026-03-28T15:42:07Z</time></trkpt><trkpt lat="39.30193421295773" lon="16.967483473582277"><ele>475.0</ele><time>2026-03-28T15:42:08Z</time></trkpt><trkpt lat="39.302031383322834" lon="16.967555630680984"><ele>475.0</ele><time>2026-03-28T15:42:09Z</time></trkpt><trkpt lat="39.30213570908598" lon="16.967640734680202"><ele>474.25</ele><time>2026-03-28T15:42:10Z</time></trkpt><trkpt lat="39.30225176482016" lon="16.96766398190417"><ele>473.5</ele><time>2026-03-28T15:42:11Z</time></trkpt><trkpt lat="39.30234697640883" lon="16.967661904390962"><ele>472.75</ele><time>2026-03-28T15:42:12Z</time></trkpt><trkpt lat="39.302468625857074" lon="16.967595677565317"><ele>472.0</ele><time>2026-03-28T15:42:13Z</time></trkpt><trkpt lat="39.302597748814996" lon="16.967511121714328"><ele>472.0</ele><time>2026-03-28T15:42:14Z</time></trkpt><trkpt lat="39.3027147659068" lon="16.967422288772752"><ele>472.0</ele><time>2026-03-28T15:42:15Z</time></trkpt><trkpt lat="39.30283363368861" lon="16.96729473150336"><ele>472.0</ele><time>2026-03-28T15:42:16Z</time></trkpt><trkpt lat="39.30294753391599" lon="16.96713788693338"><ele>472.0</ele><time>2026-03-28T15:42:17Z</time></trkpt><trkpt lat="39.30305463439206" lon="16.967050352417438"><ele>472.00000000000006</ele><time>2026-03-28T15:42:18Z</time></trkpt><trkpt lat="39.303133224314465" lon="16.96699024213158"><ele>472.00000000000006</ele><time>2026-03-28T15:42:19Z</time></trkpt><trkpt lat="39.303165922524514" lon="16.96688515267137"><ele>472.0</ele><time>2026-03-28T15:42:20Z</time></trkpt><trkpt lat="39.303152381751964" lon="16.966725949424987"><ele>472.0</ele><time>2026-03-28T15:42:21Z</time></trkpt><trkpt lat="39.30313816051146" lon="16.96655748556761"><ele>470.6666666666667</ele><time>2026-03-28T15:42:22Z</time></trkpt><trkpt lat="39.303153407519595" lon="16.966453181520126"><ele>469.33333333333337</ele><time>2026-03-28T15:42:23Z</time></trkpt><trkpt lat="39.30321194091108" lon="16.966416787899878"><ele>468.0</ele><time>2026-03-28T15:42:24Z</time></trkpt><trkpt lat="39.30327406363378" lon="16.966440958976207"><ele>466.66666666666663</ele><time>2026-03-28T15:42:25Z</time></trkpt><trkpt lat="39.30330931805844" lon="16.966515297153162"><ele>465.3333333333333</ele><time>2026-03-28T15:42:26Z</time></trkpt><trkpt lat="39.30331263195935" lon="16.966626400255336"><ele>464.0</ele><time>2026-03-28T15:42:27Z</time></trkpt><trkpt lat="39.303325593406534" lon="16.96678950266495"><ele>462.0</ele><time>2026-03-28T15:42:28Z</time></trkpt><trkpt lat="39.30337682817569" lon="16.966965030958637"><ele>460.0</ele><time>2026-03-28T15:42:29Z</time></trkpt><trkpt lat="39.30341480892225" lon="16.967165976416965"><ele>458.0</ele><time>2026-03-28T15:42:30Z</time></trkpt><trkpt lat="39.303393546825504" lon="16.96727664732155"><ele>456.0</ele><time>2026-03-28T15:42:31Z</time></trkpt><trkpt lat="39.30342475764693" lon="16.967366860205743"><ele>456.0</ele><time>2026-03-28T15:42:32Z</time></trkpt><trkpt lat="39.30352665591507" lon="16.967401125795615"><ele>456.0</ele><time>2026-03-28T15:42:33Z</time></trkpt><trkpt lat="39.30365419507253" lon="16.967380880462876"><ele>456.0</ele><time>2026-03-28T15:42:34Z</time></trkpt><trkpt lat="39.30375136823077" lon="16.967426524720562"><ele>456.0</ele><time>2026-03-28T15:42:35Z</time></trkpt><trkpt lat="39.30379542809814" lon="16.967579499631153"><ele>454.0</ele><time>2026-03-28T15:42:36Z</time></trkpt><trkpt lat="39.30376685200644" lon="16.967752402483168"><ele>452.0</ele><time>2026-03-28T15:42:37Z</time></trkpt><trkpt lat="39.30379323363448" lon="16.967931635315683"><ele>450.0</ele><time>2026-03-28T15:42:38Z</time></trkpt><trkpt lat="39.30387960490612" lon="16.968034749680452"><ele>448.0</ele><time>2026-03-28T15:42:39Z</time></trkpt><trkpt lat="39.304005827702944" lon="16.96807965531517"><ele>452.4</ele><time>2026-03-28T15:42:40Z</time></trkpt><trkpt lat="39.3041096983293" lon="16.96814872226338"><ele>456.79999999999995</ele><time>2026-03-28T15:42:41Z</time></trkpt><trkpt lat="39.30414517300249" lon="16.968274085570087"><ele>461.2</ele><time>2026-03-28T15:42:42Z</time></trkpt><trkpt lat="39.304121563035686" lon="16.96837185009386"><ele>465.6</ele><time>2026-03-28T15:42:43Z</time></trkpt><trkpt lat="39.30409389693896" lon="16.968505920924578"><ele>470.0</ele><time>2026-03-28T15:42:44Z</time></trkpt><trkpt lat="39.304132347858285" lon="16.96864020567393"><ele>470.0</ele><time>2026-03-28T15:42:45Z</time></trkpt><trkpt lat="39.30426886752955" lon="16.968740081786603"><ele>470.0</ele><time>2026-03-28T15:42:46Z</time></trkpt><trkpt lat="39.30438722783575" lon="16.968818280276746"><ele>470.0</ele><time>2026-03-28T15:42:47Z</time></trkpt><trkpt lat="39.304468961308075" lon="16.96893065867816"><ele>470.0</ele><time>2026-03-28T15:42:48Z</time></trkpt><trkpt lat="39.30447402185801" lon="16.96905639401083"><ele>470.0</ele><time>2026-03-28T15:42:49Z</time></trkpt><trkpt lat="39.30429924707659" lon="16.969118116996118"><ele>470.0</ele><time>2026-03-28T15:42:51Z</time></trkpt><trkpt lat="39.30420262078671" lon="16.969155950294184"><ele>470.0</ele><time>2026-03-28T15:42:52Z</time></trkpt><trkpt lat="39.30416289261012" lon="16.969280507654073"><ele>470.0</ele><time>2026-03-28T15:42:53Z</time></trkpt><trkpt lat="39.304192765770935" lon="16.969434574869627"><ele>469.75</ele><time>2026-03-28T15:42:54Z</time></trkpt><trkpt lat="39.30426487697989" lon="16.969571201449313"><ele>469.5</ele><time>2026-03-28T15:42:55Z</time></trkpt><trkpt lat="39.30437899144115" lon="16.96962061045961"><ele>469.25</ele><time>2026-03-28T15:42:56Z</time></trkpt><trkpt lat="39.30448701697951" lon="16.96959559535946"><ele>469.0</ele><time>2026-03-28T15:42:57Z</time></trkpt><trkpt lat="39.30458534200925" lon="16.969598145544243"><ele>469.0</ele><time>2026-03-28T15:42:58Z</time></trkpt><trkpt lat="39.30466748877043" lon="16.969654521490554"><ele>469.0</ele><time>2026-03-28T15:42:59Z</time></trkpt><trkpt lat="39.3047122767595" lon="16.969748484310955"><ele>469.0</ele><time>2026-03-28T15:43:00Z</time></trkpt><trkpt lat="39.304753450723354" lon="16.96986245144837"><ele>469.0</ele><time>2026-03-28T15:43:01Z</time></trkpt><trkpt lat="39.30484915499426" lon="16.969903174282106"><ele>469.0</ele><time>2026-03-28T15:43:02Z</time></trkpt><trkpt lat="39.30494809887137" lon="16.969899437855396"><ele>472.2</ele><time>2026-03-28T15:43:03Z</time></trkpt><trkpt lat="39.30503662501307" lon="16.969896757492357"><ele>475.4</ele><time>2026-03-28T15:43:04Z</time></trkpt><trkpt lat="39.305127264437154" lon="16.96993397741174"><ele>478.6</ele><time>2026-03-28T15:43:05Z</time></trkpt><trkpt lat="39.30521661547989" lon="16.969965395870528"><ele>481.8</ele><time>2026-03-28T15:43:06Z</time></trkpt><trkpt lat="39.3052125248546" lon="16.970167723230936"><ele>485.0</ele><time>2026-03-28T15:43:07Z</time></trkpt><trkpt lat="39.30526181687226" lon="16.970279989435213"><ele>485.49999999999994</ele><time>2026-03-28T15:44:07Z</time></trkpt><trkpt lat="39.305209792150436" lon="16.970387843230142"><ele>486.0</ele><time>2026-03-28T15:44:08Z</time></trkpt><trkpt lat="39.305156193768326" lon="16.970457480765916"><ele>486.5</ele><time>2026-03-28T15:44:09Z</time></trkpt><trkpt lat="39.305110051339064" lon="16.970535983996918"><ele>487.0</ele><time>2026-03-28T15:44:10Z</time></trkpt><trkpt lat="39.305072872490555" lon="16.970627250478827"><ele>487.49999999999994</ele><time>2026-03-28T15:44:11Z</time></trkpt><trkpt lat="39.30504164085094" lon="16.970712386669558"><ele>488.0</ele><time>2026-03-28T15:44:12Z</time></trkpt><trkpt lat="39.305015803168246" lon="16.970815415426152"><ele>487.59999999999997</ele><time>2026-03-28T15:44:13Z</time></trkpt><trkpt lat="39.305006645562145" lon="16.970941527131057"><ele>487.19999999999993</ele><time>2026-03-28T15:44:14Z</time></trkpt><trkpt lat="39.30502708638936" lon="16.97105778969978"><ele>486.8</ele><time>2026-03-28T15:44:15Z</time></trkpt><trkpt lat="39.30507190264545" lon="16.97115882046704"><ele>486.4</ele><time>2026-03-28T15:44:16Z</time></trkpt><trkpt lat="39.305139588237296" lon="16.971260459124533"><ele>486.0</ele><time>2026-03-28T15:44:17Z</time></trkpt><trkpt lat="39.305246650776326" lon="16.971362578476427"><ele>486.0</ele><time>2026-03-28T15:44:18Z</time></trkpt><trkpt lat="39.30537914868915" lon="16.971445908439946"><ele>486.0</ele><time>2026-03-28T15:44:19Z</time></trkpt><trkpt lat="39.305500757909364" lon="16.971496246139843"><ele>486.0</ele><time>2026-03-28T15:44:20Z</time></trkpt><trkpt lat="39.305590843254016" lon="16.971512252295586"><ele>486.0</ele><time>2026-03-28T15:44:21Z</time></trkpt><trkpt lat="39.30567211838982" lon="16.97153337001203"><ele>486.0</ele><time>2026-03-28T15:44:22Z</time></trkpt><trkpt lat="39.30575586713688" lon="16.971585142046052"><ele>487.0</ele><time>2026-03-28T15:44:23Z</time></trkpt><trkpt lat="39.30586110531228" lon="16.97167943889867"><ele>488.0</ele><time>2026-03-28T15:44:24Z</time></trkpt><trkpt lat="39.30596868499959" lon="16.971818035172095"><ele>489.0</ele><time>2026-03-28T15:44:25Z</time></trkpt><trkpt lat="39.30605804639347" lon="16.97194126943849"><ele>490.0</ele><time>2026-03-28T15:44:26Z</time></trkpt><trkpt lat="39.30612644462669" lon="16.972042100073438"><ele>490.0</ele><time>2026-03-28T15:44:27Z</time></trkpt><trkpt lat="39.306200540961584" lon="16.972131924992762"><ele>490.0</ele><time>2026-03-28T15:44:28Z</time></trkpt><trkpt lat="39.306284860887956" lon="16.972222950646618"><ele>490.0</ele><time>2026-03-28T15:44:29Z</time></trkpt><trkpt lat="39.306376295979206" lon="16.972301282491607"><ele>490.0</ele><time>2026-03-28T15:44:30Z</time></trkpt><trkpt lat="39.30649277410909" lon="16.972385157312896"><ele>490.8</ele><time>2026-03-28T15:44:31Z</time></trkpt><trkpt lat="39.30660376904383" lon="16.972459723186574"><ele>491.6</ele><time>2026-03-28T15:44:32Z</time></trkpt><trkpt lat="39.306697562977064" lon="16.972514191572728"><ele>492.4</ele><time>2026-03-28T15:44:33Z</time></trkpt><trkpt lat="39.306778568946754" lon="16.97256098842707"><ele>493.2</ele><time>2026-03-28T15:44:34Z</time></trkpt><trkpt lat="39.30685130419172" lon="16.972606434588528"><ele>494.0</ele><time>2026-03-28T15:44:35Z</time></trkpt><trkpt lat="39.306926696500874" lon="16.972647785877346"><ele>495.4</ele><time>2026-03-28T15:44:36Z</time></trkpt><trkpt lat="39.306997415323444" lon="16.97268893385547"><ele>496.79999999999995</ele><time>2026-03-28T15:44:37Z</time></trkpt><trkpt lat="39.30705734718004" lon="16.972725341493025"><ele>498.20000000000005</ele><time>2026-03-28T15:44:38Z</time></trkpt><trkpt lat="39.307166343705035" lon="16.972788982818688"><ele>499.6</ele><time>2026-03-28T15:44:40Z</time></trkpt><trkpt lat="39.3072666774099" lon="16.97280276552851"><ele>501.0</ele><time>2026-03-28T15:44:42Z</time></trkpt><trkpt lat="39.30738508762071" lon="16.972666293844625"><ele>501.0</ele><time>2026-03-28T15:44:44Z</time></trkpt><trkpt lat="39.30746397316248" lon="16.972548360731007"><ele>501.0</ele><time>2026-03-28T15:44:45Z</time></trkpt><trkpt lat="39.3075735194667" lon="16.97250591870331"><ele>501.0</ele><time>2026-03-28T15:44:46Z</time></trkpt><trkpt lat="39.30768700422796" lon="16.97252539939439"><ele>501.0</ele><time>2026-03-28T15:44:47Z</time></trkpt><trkpt lat="39.30777573180229" lon="16.972567657979923"><ele>501.0</ele><time>2026-03-28T15:44:48Z</time></trkpt><trkpt lat="39.30784930896027" lon="16.972605266606443"><ele>501.0</ele><time>2026-03-28T15:44:49Z</time></trkpt><trkpt lat="39.30792286706832" lon="16.972632781700483"><ele>501.0</ele><time>2026-03-28T15:44:50Z</time></trkpt><trkpt lat="39.30800139738151" lon="16.97261989317385"><ele>501.0</ele><time>2026-03-28T15:44:51Z</time></trkpt><trkpt lat="39.3080714401732" lon="16.972567440980225"><ele>501.0</ele><time>2026-03-28T15:44:52Z</time></trkpt><trkpt lat="39.30813938071087" lon="16.972443523927158"><ele>501.0</ele><time>2026-03-28T15:44:53Z</time></trkpt><trkpt lat="39.30819729664232" lon="16.97231446941594"><ele>501.20000000000005</ele><time>2026-03-28T15:44:54Z</time></trkpt><trkpt lat="39.308258721725714" lon="16.972245021642667"><ele>501.40000000000003</ele><time>2026-03-28T15:44:55Z</time></trkpt><trkpt lat="39.308335891405854" lon="16.97220227251145"><ele>501.6</ele><time>2026-03-28T15:44:56Z</time></trkpt><trkpt lat="39.30843692934543" lon="16.972181895970763"><ele>501.8</ele><time>2026-03-28T15:44:57Z</time></trkpt><trkpt lat="39.308540727369966" lon="16.97220724081213"><ele>502.0</ele><time>2026-03-28T15:44:58Z</time></trkpt><trkpt lat="39.30862027538552" lon="16.97230260656719"><ele>502.0</ele><time>2026-03-28T15:44:59Z</time></trkpt><trkpt lat="39.308695753654334" lon="16.972371730285747"><ele>502.00000000000006</ele><time>2026-03-28T15:45:00Z</time></trkpt><trkpt lat="39.30883184465521" lon="16.972359420052992"><ele>502.00000000000006</ele><time>2026-03-28T15:45:02Z</time></trkpt><trkpt lat="39.30891300456657" lon="16.972296118478184"><ele>502.0</ele><time>2026-03-28T15:45:03Z</time></trkpt><trkpt lat="39.30897634190097" lon="16.972186518272743"><ele>502.0</ele><time>2026-03-28T15:45:04Z</time></trkpt><trkpt lat="39.309026832604815" lon="16.97209100316021"><ele>502.40000000000003</ele><time>2026-03-28T15:45:05Z</time></trkpt><trkpt lat="39.309086778802154" lon="16.97200738685139"><ele>502.80000000000007</ele><time>2026-03-28T15:45:06Z</time></trkpt><trkpt lat="39.30916269239198" lon="16.971949833719005"><ele>503.2</ele><time>2026-03-28T15:45:07Z</time></trkpt><trkpt lat="39.30926031720957" lon="16.97193118170319"><ele>503.6</ele><time>2026-03-28T15:45:08Z</time></trkpt><trkpt lat="39.30936310227428" lon="16.971963334432463"><ele>504.0</ele><time>2026-03-28T15:45:09Z</time></trkpt><trkpt lat="39.30945684045491" lon="16.972051456653233"><ele>504.0</ele><time>2026-03-28T15:45:10Z</time></trkpt><trkpt lat="39.309536017071856" lon="16.972162022561385"><ele>504.0</ele><time>2026-03-28T15:45:11Z</time></trkpt><trkpt lat="39.309619287209614" lon="16.972273926025895"><ele>504.0</ele><time>2026-03-28T15:45:12Z</time></trkpt><trkpt lat="39.30970279809134" lon="16.97236793249902"><ele>504.0</ele><time>2026-03-28T15:45:13Z</time></trkpt><trkpt lat="39.30979046684747" lon="16.97244106368014"><ele>500.75</ele><time>2026-03-28T15:45:14Z</time></trkpt><trkpt lat="39.309896122058106" lon="16.972482291086635"><ele>497.5</ele><time>2026-03-28T15:45:15Z</time></trkpt><trkpt lat="39.31002019020137" lon="16.97250379161274"><ele>494.25</ele><time>2026-03-28T15:45:16Z</time></trkpt><trkpt lat="39.310156148153986" lon="16.972510142673155"><ele>491.0</ele><time>2026-03-28T15:45:17Z</time></trkpt><trkpt lat="39.310300107347146" lon="16.972518892541462"><ele>490.3333333333333</ele><time>2026-03-28T15:45:18Z</time></trkpt><trkpt lat="39.31045092467064" lon="16.972530623129085"><ele>489.66666666666663</ele><time>2026-03-28T15:45:19Z</time></trkpt><trkpt lat="39.3106071540637" lon="16.97254496677636"><ele>489.0</ele><time>2026-03-28T15:45:20Z</time></trkpt><trkpt lat="39.310759598033634" lon="16.97256406576972"><ele>484.75</ele><time>2026-03-28T15:45:21Z</time></trkpt><trkpt lat="39.310906465195195" lon="16.97257757591495"><ele>480.5</ele><time>2026-03-28T15:45:22Z</time></trkpt><trkpt lat="39.311042585811414" lon="16.972582349971844"><ele>476.25</ele><time>2026-03-28T15:45:23Z</time></trkpt><trkpt lat="39.311169257039715" lon="16.972579632626662"><ele>472.0</ele><time>2026-03-28T15:45:24Z</time></trkpt><trkpt lat="39.31128761615693" lon="16.972578104998583"><ele>472.0</ele><time>2026-03-28T15:45:25Z</time></trkpt><trkpt lat="39.31140143651138" lon="16.972576449918584"><ele>472.0</ele><time>2026-03-28T15:45:26Z</time></trkpt><trkpt lat="39.31151200846075" lon="16.972576751670026"><ele>472.0</ele><time>2026-03-28T15:45:27Z</time></trkpt><trkpt lat="39.3116315866122" lon="16.972582606397527"><ele>472.0</ele><time>2026-03-28T15:45:28Z</time></trkpt><trkpt lat="39.31175918336708" lon="16.972592792535618"><ele>472.25</ele><time>2026-03-28T15:45:29Z</time></trkpt><trkpt lat="39.31189319156014" lon="16.972612984661925"><ele>472.5</ele><time>2026-03-28T15:45:30Z</time></trkpt><trkpt lat="39.31202597289243" lon="16.97265821280937"><ele>472.75</ele><time>2026-03-28T15:45:31Z</time></trkpt><trkpt lat="39.312150967405444" lon="16.972724333254583"><ele>473.0</ele><time>2026-03-28T15:45:32Z</time></trkpt><trkpt lat="39.3122728988127" lon="16.972805660399843"><ele>472.5</ele><time>2026-03-28T15:45:33Z</time></trkpt><trkpt lat="39.312395345844344" lon="16.972884572614554"><ele>472.0</ele><time>2026-03-28T15:45:34Z</time></trkpt><trkpt lat="39.312504683078124" lon="16.97299564056562"><ele>471.5</ele><time>2026-03-28T15:45:35Z</time></trkpt><trkpt lat="39.31260789358706" lon="16.97311808151231"><ele>471.0</ele><time>2026-03-28T15:45:36Z</time></trkpt><trkpt lat="39.3126918389887" lon="16.973260076116166"><ele>467.25</ele><time>2026-03-28T15:45:37Z</time></trkpt><trkpt lat="39.31276678493629" lon="16.973398276036292"><ele>463.5</ele><time>2026-03-28T15:45:38Z</time></trkpt><trkpt lat="39.312841565898" lon="16.97352826981296"><ele>459.75</ele><time>2026-03-28T15:45:39Z</time></trkpt><trkpt lat="39.31291638769271" lon="16.973662056899975"><ele>456.0</ele><time>2026-03-28T15:45:40Z</time></trkpt><trkpt lat="39.31298407463201" lon="16.973783991019864"><ele>456.0</ele><time>2026-03-28T15:45:41Z</time></trkpt><trkpt lat="39.31303959107009" lon="16.973912657384272"><ele>456.0</ele><time>2026-03-28T15:45:42Z</time></trkpt><trkpt lat="39.313065472717554" lon="16.974048326914634"><ele>456.0</ele><time>2026-03-28T15:45:43Z</time></trkpt><trkpt lat="39.313073036317896" lon="16.9742100099566"><ele>456.0</ele><time>2026-03-28T15:45:44Z</time></trkpt><trkpt lat="39.31305503091917" lon="16.97437420269505"><ele>454.0</ele><time>2026-03-28T15:45:45Z</time></trkpt><trkpt lat="39.3130188082455" lon="16.974538668926925"><ele>452.0</ele><time>2026-03-28T15:45:46Z</time></trkpt><trkpt lat="39.3129849692828" lon="16.974695588789462"><ele>450.0</ele><time>2026-03-28T15:45:47Z</time></trkpt><trkpt lat="39.31295570132663" lon="16.97484042612165"><ele>448.0</ele><time>2026-03-28T15:45:48Z</time></trkpt><trkpt lat="39.31293085240718" lon="16.97497713212783"><ele>446.4</ele><time>2026-03-28T15:45:49Z</time></trkpt><trkpt lat="39.31291396901999" lon="16.975105922767153"><ele>444.79999999999995</ele><time>2026-03-28T15:45:50Z</time></trkpt><trkpt lat="39.31292309715996" lon="16.97523740231677"><ele>443.2</ele><time>2026-03-28T15:45:51Z</time></trkpt><trkpt lat="39.31296189297821" lon="16.975363679870135"><ele>441.6</ele><time>2026-03-28T15:45:52Z</time></trkpt><trkpt lat="39.31303998539459" lon="16.97547357774237"><ele>440.0</ele><time>2026-03-28T15:45:53Z</time></trkpt><trkpt lat="39.313114665353964" lon="16.975590582820466"><ele>443.0</ele><time>2026-03-28T15:45:54Z</time></trkpt><trkpt lat="39.313164530373044" lon="16.975743513331537"><ele>446.0</ele><time>2026-03-28T15:45:55Z</time></trkpt><trkpt lat="39.31317533135519" lon="16.97590122309912"><ele>449.0</ele><time>2026-03-28T15:45:56Z</time></trkpt><trkpt lat="39.31315472917004" lon="16.976070296581128"><ele>452.0</ele><time>2026-03-28T15:45:57Z</time></trkpt><trkpt lat="39.313140300381825" lon="16.976225003987235"><ele>452.0</ele><time>2026-03-28T15:45:58Z</time></trkpt><trkpt lat="39.31314134484646" lon="16.97637313854565"><ele>452.00000000000006</ele><time>2026-03-28T15:45:59Z</time></trkpt><trkpt lat="39.31318054168054" lon="16.976505080019926"><ele>452.00000000000006</ele><time>2026-03-28T15:46:00Z</time></trkpt><trkpt lat="39.313250016821854" lon="16.97660126552745"><ele>452.0</ele><time>2026-03-28T15:46:01Z</time></trkpt><trkpt lat="39.313336176056126" lon="16.976649833023956"><ele>452.0</ele><time>2026-03-28T15:46:02Z</time></trkpt><trkpt lat="39.31342778391672" lon="16.976664811057056"><ele>452.0</ele><time>2026-03-28T15:46:03Z</time></trkpt><trkpt lat="39.31353372355778" lon="16.976635058199328"><ele>452.0</ele><time>2026-03-28T15:46:04Z</time></trkpt><trkpt lat="39.31364408797151" lon="16.976565906634224"><ele>452.0</ele><time>2026-03-28T15:46:05Z</time></trkpt><trkpt lat="39.31374399670969" lon="16.976500379531675"><ele>452.0</ele><time>2026-03-28T15:46:06Z</time></trkpt><trkpt lat="39.313844426209904" lon="16.97642965444656"><ele>449.0</ele><time>2026-03-28T15:46:07Z</time></trkpt><trkpt lat="39.31393310666243" lon="16.976343940203797"><ele>446.0</ele><time>2026-03-28T15:46:08Z</time></trkpt><trkpt lat="39.31400831597022" lon="16.976231298285324"><ele>443.0</ele><time>2026-03-28T15:46:09Z</time></trkpt><trkpt lat="39.31406740063404" lon="16.97610025828169"><ele>440.0</ele><time>2026-03-28T15:46:10Z</time></trkpt><trkpt lat="39.31411577809339" lon="16.975958097402074"><ele>442.2</ele><time>2026-03-28T15:46:11Z</time></trkpt><trkpt lat="39.31415563166788" lon="16.97581626027454"><ele>444.4</ele><time>2026-03-28T15:46:12Z</time></trkpt><trkpt lat="39.31418030463465" lon="16.975689904307583"><ele>446.6</ele><time>2026-03-28T15:46:13Z</time></trkpt><trkpt lat="39.314171182069074" lon="16.975564882484598"><ele>448.8</ele><time>2026-03-28T15:46:14Z</time></trkpt><trkpt lat="39.314132246860545" lon="16.975448886111458"><ele>451.0</ele><time>2026-03-28T15:46:15Z</time></trkpt><trkpt lat="39.314123107203116" lon="16.975330946649162"><ele>451.0</ele><time>2026-03-28T15:46:16Z</time></trkpt><trkpt lat="39.314138385931535" lon="16.975211864893403"><ele>451.0</ele><time>2026-03-28T15:46:17Z</time></trkpt><trkpt lat="39.3141848337376" lon="16.97509123951708"><ele>451.0</ele><time>2026-03-28T15:46:18Z</time></trkpt><trkpt lat="39.314252938398965" lon="16.974998699005557"><ele>451.0</ele><time>2026-03-28T15:46:19Z</time></trkpt><trkpt lat="39.31434604263953" lon="16.974956956212903"><ele>451.0</ele><time>2026-03-28T15:46:20Z</time></trkpt><trkpt lat="39.314442844156865" lon="16.974958809356085"><ele>453.20000000000005</ele><time>2026-03-28T15:46:21Z</time></trkpt><trkpt lat="39.314532250267796" lon="16.974912951521464"><ele>455.40000000000003</ele><time>2026-03-28T15:46:22Z</time></trkpt><trkpt lat="39.31459537350927" lon="16.974821898952598"><ele>457.6</ele><time>2026-03-28T15:46:23Z</time></trkpt><trkpt lat="39.314629490046606" lon="16.9746920787491"><ele>459.8</ele><time>2026-03-28T15:46:24Z</time></trkpt><trkpt lat="39.314624055998635" lon="16.974551266078144"><ele>462.0</ele><time>2026-03-28T15:46:25Z</time></trkpt><trkpt lat="39.31459514223071" lon="16.974412198680003"><ele>462.0</ele><time>2026-03-28T15:46:26Z</time></trkpt><trkpt lat="39.314588714033064" lon="16.97428859619228"><ele>462.0</ele><time>2026-03-28T15:46:27Z</time></trkpt><trkpt lat="39.31459697786186" lon="16.974177509533558"><ele>462.0</ele><time>2026-03-28T15:46:28Z</time></trkpt><trkpt lat="39.314625947078135" lon="16.9740852134601"><ele>462.0</ele><time>2026-03-28T15:46:29Z</time></trkpt><trkpt lat="39.314672183983994" lon="16.974013072005874"><ele>462.0</ele><time>2026-03-28T15:46:30Z</time></trkpt><trkpt lat="39.31478172665727" lon="16.973969410650827"><ele>462.0</ele><time>2026-03-28T15:46:32Z</time></trkpt><trkpt lat="39.31485256052707" lon="16.973989092464777"><ele>459.0</ele><time>2026-03-28T15:46:33Z</time></trkpt><trkpt lat="39.31492959236598" lon="16.97406989447593"><ele>456.0</ele><time>2026-03-28T15:46:34Z</time></trkpt><trkpt lat="39.315004430757014" lon="16.974183929938786"><ele>453.0</ele><time>2026-03-28T15:46:35Z</time></trkpt><trkpt lat="39.31508570441737" lon="16.97432877842553"><ele>450.0</ele><time>2026-03-28T15:46:36Z</time></trkpt><trkpt lat="39.315173861017676" lon="16.97445291428363"><ele>446.5</ele><time>2026-03-28T15:46:37Z</time></trkpt><trkpt lat="39.31527747888922" lon="16.97455310639057"><ele>443.0</ele><time>2026-03-28T15:46:38Z</time></trkpt><trkpt lat="39.31539434921942" lon="16.97463588369781"><ele>439.5</ele><time>2026-03-28T15:46:39Z</time></trkpt><trkpt lat="39.31551324427279" lon="16.97470944139457"><ele>436.0</ele><time>2026-03-28T15:46:40Z</time></trkpt><trkpt lat="39.31562503731778" lon="16.974781948838846"><ele>436.0</ele><time>2026-03-28T15:46:41Z</time></trkpt><trkpt lat="39.3157308561313" lon="16.97485935656516"><ele>436.0</ele><time>2026-03-28T15:46:42Z</time></trkpt><trkpt lat="39.31582580985107" lon="16.97494940103336"><ele>436.0</ele><time>2026-03-28T15:46:43Z</time></trkpt><trkpt lat="39.3159138601419" lon="16.975058852050154"><ele>436.0</ele><time>2026-03-28T15:46:44Z</time></trkpt><trkpt lat="39.3159948730904" lon="16.97517923806878"><ele>435.0</ele><time>2026-03-28T15:46:45Z</time></trkpt><trkpt lat="39.316071762901764" lon="16.975297162601045"><ele>434.0</ele><time>2026-03-28T15:46:46Z</time></trkpt><trkpt lat="39.31614255932846" lon="16.975409767810998"><ele>433.0</ele><time>2026-03-28T15:46:47Z</time></trkpt><trkpt lat="39.316208763669785" lon="16.975519805210592"><ele>432.0</ele><time>2026-03-28T15:46:48Z</time></trkpt><trkpt lat="39.31627902389817" lon="16.975618760786205"><ele>431.0</ele><time>2026-03-28T15:46:49Z</time></trkpt><trkpt lat="39.31636517320599" lon="16.97570063354543"><ele>428.75</ele><time>2026-03-28T15:46:50Z</time></trkpt><trkpt lat="39.31646953703438" lon="16.975754467906743"><ele>426.5</ele><time>2026-03-28T15:46:51Z</time></trkpt><trkpt lat="39.316586831322475" lon="16.975770862018745"><ele>424.25</ele><time>2026-03-28T15:46:52Z</time></trkpt><trkpt lat="39.31671698263549" lon="16.975762470650803"><ele>422.0</ele><time>2026-03-28T15:46:53Z</time></trkpt><trkpt lat="39.3168538500171" lon="16.97573839649843"><ele>422.0</ele><time>2026-03-28T15:46:54Z</time></trkpt><trkpt lat="39.31698212030939" lon="16.975725727003077"><ele>422.0</ele><time>2026-03-28T15:46:55Z</time></trkpt><trkpt lat="39.317114136832" lon="16.975726585011017"><ele>422.0</ele><time>2026-03-28T15:46:56Z</time></trkpt><trkpt lat="39.31724730211795" lon="16.975733457490136"><ele>422.0</ele><time>2026-03-28T15:46:57Z</time></trkpt><trkpt lat="39.31738470587346" lon="16.975757381879113"><ele>417.8</ele><time>2026-03-28T15:46:58Z</time></trkpt><trkpt lat="39.3175143338749" lon="16.97578935728249"><ele>413.6</ele><time>2026-03-28T15:46:59Z</time></trkpt><trkpt lat="39.317632916321706" lon="16.975833701835686"><ele>409.40000000000003</ele><time>2026-03-28T15:47:00Z</time></trkpt><trkpt lat="39.317717314706776" lon="16.97589987455351"><ele>405.20000000000005</ele><time>2026-03-28T15:47:01Z</time></trkpt><trkpt lat="39.31776543491303" lon="16.97599172152293"><ele>401.0</ele><time>2026-03-28T15:47:02Z</time></trkpt><trkpt lat="39.31777601196853" lon="16.976105075918504"><ele>400.75</ele><time>2026-03-28T15:47:03Z</time></trkpt><trkpt lat="39.31774406898943" lon="16.97622811911045"><ele>400.5</ele><time>2026-03-28T15:47:04Z</time></trkpt><trkpt lat="39.317664873029365" lon="16.976325093592617"><ele>400.25</ele><time>2026-03-28T15:47:05Z</time></trkpt><trkpt lat="39.317548496425644" lon="16.976425336689836"><ele>400.0</ele><time>2026-03-28T15:47:06Z</time></trkpt><trkpt lat="39.31744251514573" lon="16.976539559315302"><ele>395.6666666666667</ele><time>2026-03-28T15:47:07Z</time></trkpt><trkpt lat="39.31735220792718" lon="16.976687738426172"><ele>391.33333333333337</ele><time>2026-03-28T15:47:08Z</time></trkpt><trkpt lat="39.31727096460494" lon="16.976863895074295"><ele>387.0</ele><time>2026-03-28T15:47:09Z</time></trkpt><trkpt lat="39.31718324679677" lon="16.97706800179451"><ele>390.66666666666663</ele><time>2026-03-28T15:47:10Z</time></trkpt><trkpt lat="39.31709784707053" lon="16.977282447178972"><ele>394.3333333333333</ele><time>2026-03-28T15:47:11Z</time></trkpt><trkpt lat="39.317019041087484" lon="16.977473297363012"><ele>398.0</ele><time>2026-03-28T15:47:12Z</time></trkpt><trkpt lat="39.31694191108509" lon="16.977661185118123"><ele>398.0</ele><time>2026-03-28T15:47:13Z</time></trkpt><trkpt lat="39.31686208910567" lon="16.97783622944886"><ele>398.0</ele><time>2026-03-28T15:47:14Z</time></trkpt><trkpt lat="39.31678499648836" lon="16.978003856130233"><ele>398.0</ele><time>2026-03-28T15:47:15Z</time></trkpt><trkpt lat="39.31671432905783" lon="16.978170255911955"><ele>398.0</ele><time>2026-03-28T15:47:16Z</time></trkpt><trkpt lat="39.3166454644808" lon="16.97833700416589"><ele>398.0</ele><time>2026-03-28T15:47:17Z</time></trkpt><trkpt lat="39.31658484162164" lon="16.978500920658345"><ele>398.0</ele><time>2026-03-28T15:47:18Z</time></trkpt><trkpt lat="39.31653499262036" lon="16.97865626495057"><ele>398.0</ele><time>2026-03-28T15:47:19Z</time></trkpt><trkpt lat="39.316498017886865" lon="16.978788846341153"><ele>396.16666666666663</ele><time>2026-03-28T15:47:20Z</time></trkpt><trkpt lat="39.316464415641995" lon="16.978908586646828"><ele>394.3333333333333</ele><time>2026-03-28T15:47:21Z</time></trkpt><trkpt lat="39.316445804344795" lon="16.97900906702698"><ele>392.5</ele><time>2026-03-28T15:47:22Z</time></trkpt><trkpt lat="39.31644108781275" lon="16.979102484329527"><ele>390.66666666666663</ele><time>2026-03-28T15:47:23Z</time></trkpt><trkpt lat="39.316472048837305" lon="16.97923327632003"><ele>388.8333333333333</ele><time>2026-03-28T15:47:25Z</time></trkpt><trkpt lat="39.31652274787658" lon="16.979306558644254"><ele>387.0</ele><time>2026-03-28T15:47:28Z</time></trkpt><trkpt lat="39.316570670075" lon="16.979382979504678"><ele>384.5</ele><time>2026-03-28T15:47:31Z</time></trkpt><trkpt lat="39.31655352197861" lon="16.979491789450886"><ele>382.0</ele><time>2026-03-28T15:47:33Z</time></trkpt><trkpt lat="39.31651163478743" lon="16.97956855271739"><ele>379.5</ele><time>2026-03-28T15:47:34Z</time></trkpt><trkpt lat="39.31647627019671" lon="16.979654868912647"><ele>377.0</ele><time>2026-03-28T15:47:35Z</time></trkpt><trkpt lat="39.316438398144086" lon="16.979749523646074"><ele>374.5</ele><time>2026-03-28T15:47:36Z</time></trkpt><trkpt lat="39.31639304299684" lon="16.979849596835006"><ele>372.0</ele><time>2026-03-28T15:47:37Z</time></trkpt><trkpt lat="39.31634678464435" lon="16.97994911893026"><ele>368.8333333333333</ele><time>2026-03-28T15:47:38Z</time></trkpt><trkpt lat="39.316300371372414" lon="16.980053156364445"><ele>365.6666666666667</ele><time>2026-03-28T15:47:39Z</time></trkpt><trkpt lat="39.316251997466715" lon="16.98015386741605"><ele>362.5</ele><time>2026-03-28T15:47:40Z</time></trkpt><trkpt lat="39.316203669013305" lon="16.980249891766352"><ele>359.33333333333337</ele><time>2026-03-28T15:47:41Z</time></trkpt><trkpt lat="39.31616037851094" lon="16.980339707150055"><ele>356.1666666666667</ele><time>2026-03-28T15:47:42Z</time></trkpt><trkpt lat="39.31612162906269" lon="16.98041615407798"><ele>353.0</ele><time>2026-03-28T15:47:43Z</time></trkpt><trkpt lat="39.31605159539172" lon="16.980544028515773"><ele>353.0</ele><time>2026-03-28T15:47:45Z</time></trkpt><trkpt lat="39.31601904713448" lon="16.980690334845356"><ele>353.0</ele><time>2026-03-28T15:47:47Z</time></trkpt><trkpt lat="39.31603533981839" lon="16.980863022810126"><ele>353.0</ele><time>2026-03-28T15:47:49Z</time></trkpt><trkpt lat="39.31604631820777" lon="16.980969050364436"><ele>353.0</ele><time>2026-03-28T15:47:50Z</time></trkpt><trkpt lat="39.31605590335345" lon="16.98108072538896"><ele>353.0</ele><time>2026-03-28T15:47:51Z</time></trkpt><trkpt lat="39.316058251237116" lon="16.981199263361827"><ele>351.59999999999997</ele><time>2026-03-28T15:47:52Z</time></trkpt><trkpt lat="39.31605254149811" lon="16.98132789524287"><ele>350.2</ele><time>2026-03-28T15:47:53Z</time></trkpt><trkpt lat="39.316047133547144" lon="16.981463246017448"><ele>348.8</ele><time>2026-03-28T15:47:54Z</time></trkpt><trkpt lat="39.316044894004136" lon="16.98159941664211"><ele>347.4</ele><time>2026-03-28T15:47:55Z</time></trkpt><trkpt lat="39.3160434541256" lon="16.981735921671724"><ele>346.0</ele><time>2026-03-28T15:47:56Z</time></trkpt><trkpt lat="39.316047043542866" lon="16.98187591937165"><ele>344.25</ele><time>2026-03-28T15:47:57Z</time></trkpt><trkpt lat="39.31605359203821" lon="16.98201529909509"><ele>342.5</ele><time>2026-03-28T15:47:58Z</time></trkpt><trkpt lat="39.31608088049805" lon="16.982155838901594"><ele>340.75</ele><time>2026-03-28T15:47:59Z</time></trkpt><trkpt lat="39.316134689982476" lon="16.982309547756973"><ele>339.0</ele><time>2026-03-28T15:48:00Z</time></trkpt><trkpt lat="39.3162130485552" lon="16.982470777154763"><ele>339.5</ele><time>2026-03-28T15:48:01Z</time></trkpt><trkpt lat="39.31629248418166" lon="16.982614434877433"><ele>340.0</ele><time>2026-03-28T15:48:02Z</time></trkpt><trkpt lat="39.31637276681147" lon="16.982757363273986"><ele>340.5</ele><time>2026-03-28T15:48:03Z</time></trkpt><trkpt lat="39.31644930595779" lon="16.982893114853194"><ele>341.0</ele><time>2026-03-28T15:48:04Z</time></trkpt><trkpt lat="39.31652975536012" lon="16.983036401992408"><ele>341.0</ele><time>2026-03-28T15:48:05Z</time></trkpt><trkpt lat="39.316609580921316" lon="16.983179273264525"><ele>341.0</ele><time>2026-03-28T15:48:06Z</time></trkpt><trkpt lat="39.31667988360686" lon="16.98332597966395"><ele>341.0</ele><time>2026-03-28T15:48:07Z</time></trkpt><trkpt lat="39.316736969095366" lon="16.983490627316687"><ele>341.0</ele><time>2026-03-28T15:48:08Z</time></trkpt><trkpt lat="39.31677980909113" lon="16.98368440404281"><ele>338.75</ele><time>2026-03-28T15:48:09Z</time></trkpt><trkpt lat="39.31681201556232" lon="16.98386862119295"><ele>336.5</ele><time>2026-03-28T15:48:10Z</time></trkpt><trkpt lat="39.31684646577406" lon="16.984023077400504"><ele>334.25</ele><time>2026-03-28T15:48:11Z</time></trkpt><trkpt lat="39.31688499497142" lon="16.984160017279144"><ele>332.0</ele><time>2026-03-28T15:48:12Z</time></trkpt><trkpt lat="39.31693005469309" lon="16.984289487302195"><ele>330.0</ele><time>2026-03-28T15:48:13Z</time></trkpt><trkpt lat="39.31697460416831" lon="16.98441627434943"><ele>328.0</ele><time>2026-03-28T15:48:14Z</time></trkpt><trkpt lat="39.31701261758889" lon="16.98453201308354"><ele>326.0</ele><time>2026-03-28T15:48:15Z</time></trkpt><trkpt lat="39.31704514519618" lon="16.984644220886395"><ele>324.0</ele><time>2026-03-28T15:48:16Z</time></trkpt><trkpt lat="39.31707693108568" lon="16.984758938490685"><ele>322.0</ele><time>2026-03-28T15:48:17Z</time></trkpt><trkpt lat="39.31712306514804" lon="16.984866964620423"><ele>322.0</ele><time>2026-03-28T15:48:18Z</time></trkpt><trkpt lat="39.317189770615066" lon="16.984955697735202"><ele>322.0</ele><time>2026-03-28T15:48:19Z</time></trkpt><trkpt lat="39.31728018001134" lon="16.98502079219634"><ele>322.0</ele><time>2026-03-28T15:48:20Z</time></trkpt><trkpt lat="39.31738836347354" lon="16.985050083917525"><ele>322.0</ele><time>2026-03-28T15:48:21Z</time></trkpt><trkpt lat="39.31749757879166" lon="16.98504836463583"><ele>322.0</ele><time>2026-03-28T15:48:22Z</time></trkpt><trkpt lat="39.31759476198659" lon="16.985053839417404"><ele>322.40000000000003</ele><time>2026-03-28T15:48:23Z</time></trkpt><trkpt lat="39.31769443271595" lon="16.985078193871736"><ele>322.8</ele><time>2026-03-28T15:48:24Z</time></trkpt><trkpt lat="39.31778907624393" lon="16.985132665190676"><ele>323.2</ele><time>2026-03-28T15:48:25Z</time></trkpt><trkpt lat="39.317885503954045" lon="16.985189582423807"><ele>323.6</ele><time>2026-03-28T15:48:26Z</time></trkpt><trkpt lat="39.317983076331615" lon="16.985247222268832"><ele>324.0</ele><time>2026-03-28T15:48:27Z</time></trkpt><trkpt lat="39.3180802752893" lon="16.985291604553428"><ele>324.4</ele><time>2026-03-28T15:48:28Z</time></trkpt><trkpt lat="39.31818112980472" lon="16.985337006568827"><ele>324.79999999999995</ele><time>2026-03-28T15:48:29Z</time></trkpt><trkpt lat="39.3182791409005" lon="16.985380026104615"><ele>325.20000000000005</ele><time>2026-03-28T15:48:30Z</time></trkpt><trkpt lat="39.318373002065115" lon="16.985419659232985"><ele>325.6</ele><time>2026-03-28T15:48:31Z</time></trkpt><trkpt lat="39.31846489456643" lon="16.985463274247767"><ele>326.0</ele><time>2026-03-28T15:48:32Z</time></trkpt><trkpt lat="39.31855125662689" lon="16.98550869349673"><ele>326.0</ele><time>2026-03-28T15:48:33Z</time></trkpt><trkpt lat="39.31863336462142" lon="16.9855573123266"><ele>326.0</ele><time>2026-03-28T15:48:34Z</time></trkpt><trkpt lat="39.318712613234815" lon="16.98561622787438"><ele>326.0</ele><time>2026-03-28T15:48:35Z</time></trkpt><trkpt lat="39.318786152806034" lon="16.985689930685044"><ele>326.0</ele><time>2026-03-28T15:48:36Z</time></trkpt><trkpt lat="39.318845031897254" lon="16.98578629817684"><ele>326.0</ele><time>2026-03-28T15:48:37Z</time></trkpt><trkpt lat="39.3188881512601" lon="16.985896994138876"><ele>323.2</ele><time>2026-03-28T15:48:38Z</time></trkpt><trkpt lat="39.31893236985593" lon="16.98601235820449"><ele>320.40000000000003</ele><time>2026-03-28T15:48:39Z</time></trkpt><trkpt lat="39.318975686907194" lon="16.986133589106153"><ele>317.6</ele><time>2026-03-28T15:48:40Z</time></trkpt><trkpt lat="39.31903516891276" lon="16.986255609905797"><ele>314.8</ele><time>2026-03-28T15:48:41Z</time></trkpt><trkpt lat="39.31910830434434" lon="16.986377366671217"><ele>312.0</ele><time>2026-03-28T15:48:42Z</time></trkpt><trkpt lat="39.319185614337854" lon="16.986502480168447"><ele>312.0</ele><time>2026-03-28T15:48:43Z</time></trkpt><trkpt lat="39.31925433772231" lon="16.986632244960667"><ele>312.0</ele><time>2026-03-28T15:48:44Z</time></trkpt><trkpt lat="39.31932290170413" lon="16.986755022377913"><ele>312.0</ele><time>2026-03-28T15:48:45Z</time></trkpt><trkpt lat="39.31938641100037" lon="16.98688341349153"><ele>312.0</ele><time>2026-03-28T15:48:46Z</time></trkpt><trkpt lat="39.319446011045365" lon="16.987013549871232"><ele>310.0</ele><time>2026-03-28T15:48:47Z</time></trkpt><trkpt lat="39.319497624773305" lon="16.987141753739145"><ele>308.0</ele><time>2026-03-28T15:48:48Z</time></trkpt><trkpt lat="39.319542878457284" lon="16.987266245343456"><ele>306.0</ele><time>2026-03-28T15:48:49Z</time></trkpt><trkpt lat="39.319585307550376" lon="16.987385587722986"><ele>304.0</ele><time>2026-03-28T15:48:50Z</time></trkpt><trkpt lat="39.31962124841443" lon="16.98750497731916"><ele>302.0</ele><time>2026-03-28T15:48:51Z</time></trkpt><trkpt lat="39.319655571972646" lon="16.987618878481015"><ele>300.6</ele><time>2026-03-28T15:48:52Z</time></trkpt><trkpt lat="39.31968717564987" lon="16.987735270147546"><ele>299.2</ele><time>2026-03-28T15:48:53Z</time></trkpt><trkpt lat="39.31971560317606" lon="16.987846573888262"><ele>297.8</ele><time>2026-03-28T15:48:54Z</time></trkpt><trkpt lat="39.31974569788294" lon="16.987960388866306"><ele>296.4</ele><time>2026-03-28T15:48:55Z</time></trkpt><trkpt lat="39.3197811159622" lon="16.988070767039684"><ele>295.0</ele><time>2026-03-28T15:48:56Z</time></trkpt><trkpt lat="39.31982484366175" lon="16.988181539733322"><ele>295.0</ele><time>2026-03-28T15:48:57Z</time></trkpt><trkpt lat="39.319875953144425" lon="16.98829208965691"><ele>295.0</ele><time>2026-03-28T15:48:58Z</time></trkpt><trkpt lat="39.319931682701004" lon="16.98840352238243"><ele>295.0</ele><time>2026-03-28T15:48:59Z</time></trkpt><trkpt lat="39.31998861797735" lon="16.98851837156405"><ele>295.0</ele><time>2026-03-28T15:49:00Z</time></trkpt><trkpt lat="39.320043773867454" lon="16.988636484340894"><ele>295.0</ele><time>2026-03-28T15:49:01Z</time></trkpt><trkpt lat="39.320098352098036" lon="16.9887589234131"><ele>292.0</ele><time>2026-03-28T15:49:02Z</time></trkpt><trkpt lat="39.320152692915585" lon="16.988885423678468"><ele>289.0</ele><time>2026-03-28T15:49:03Z</time></trkpt><trkpt lat="39.32020583458142" lon="16.989015233899156"><ele>286.0</ele><time>2026-03-28T15:49:04Z</time></trkpt><trkpt lat="39.32025660942521" lon="16.989144614158807"><ele>283.0</ele><time>2026-03-28T15:49:05Z</time></trkpt><trkpt lat="39.32030550282994" lon="16.98927501790761"><ele>280.0</ele><time>2026-03-28T15:49:06Z</time></trkpt><trkpt lat="39.320348782991125" lon="16.989410099366474"><ele>277.0</ele><time>2026-03-28T15:49:07Z</time></trkpt><trkpt lat="39.32038231547024" lon="16.989552029764837"><ele>274.0</ele><time>2026-03-28T15:49:08Z</time></trkpt><trkpt lat="39.32039492541223" lon="16.98970360645426"><ele>271.0</ele><time>2026-03-28T15:49:09Z</time></trkpt><trkpt lat="39.320388294150355" lon="16.989844511264852"><ele>271.0</ele><time>2026-03-28T15:49:10Z</time></trkpt><trkpt lat="39.320387461334846" lon="16.98996175909191"><ele>271.0</ele><time>2026-03-28T15:49:11Z</time></trkpt><trkpt lat="39.32040531101742" lon="16.990062228227863"><ele>271.0</ele><time>2026-03-28T15:49:12Z</time></trkpt><trkpt lat="39.32044705162799" lon="16.990152925486104"><ele>271.0</ele><time>2026-03-28T15:49:13Z</time></trkpt><trkpt lat="39.32050776758705" lon="16.99021704319574"><ele>271.0</ele><time>2026-03-28T15:49:14Z</time></trkpt><trkpt lat="39.320567139711834" lon="16.990285971885474"><ele>271.0</ele><time>2026-03-28T15:49:15Z</time></trkpt><trkpt lat="39.32062920041162" lon="16.99035826542633"><ele>269.8</ele><time>2026-03-28T15:49:16Z</time></trkpt><trkpt lat="39.32069505538322" lon="16.990434486981528"><ele>268.6</ele><time>2026-03-28T15:49:17Z</time></trkpt><trkpt lat="39.3207639204243" lon="16.99051246100484"><ele>267.4</ele><time>2026-03-28T15:49:18Z</time></trkpt><trkpt lat="39.320831413403205" lon="16.9905970982075"><ele>266.2</ele><time>2026-03-28T15:49:19Z</time></trkpt><trkpt lat="39.32088291947363" lon="16.990696342851862"><ele>265.0</ele><time>2026-03-28T15:49:20Z</time></trkpt><trkpt lat="39.3209212429678" lon="16.99080741327492"><ele>261.0</ele><time>2026-03-28T15:49:21Z</time></trkpt><trkpt lat="39.32093557295561" lon="16.990949710754588"><ele>257.0</ele><time>2026-03-28T15:49:22Z</time></trkpt><trkpt lat="39.32094735876054" lon="16.991103474510364"><ele>253.0</ele><time>2026-03-28T15:49:23Z</time></trkpt><trkpt lat="39.320992755519725" lon="16.991230014339116"><ele>249.0</ele><time>2026-03-28T15:49:24Z</time></trkpt><trkpt lat="39.321076921615564" lon="16.991333982054133"><ele>249.0</ele><time>2026-03-28T15:49:25Z</time></trkpt><trkpt lat="39.321177742499614" lon="16.991405405681295"><ele>248.99999999999997</ele><time>2026-03-28T15:49:26Z</time></trkpt><trkpt lat="39.32127271422218" lon="16.99146334956616"><ele>248.99999999999997</ele><time>2026-03-28T15:49:27Z</time></trkpt><trkpt lat="39.32133042341303" lon="16.99156979816488"><ele>249.0</ele><time>2026-03-28T15:49:28Z</time></trkpt><trkpt lat="39.32136895233258" lon="16.99171285821106"><ele>249.0</ele><time>2026-03-28T15:49:29Z</time></trkpt><trkpt lat="39.32139646575183" lon="16.991878870859324"><ele>249.39999999999998</ele><time>2026-03-28T15:49:30Z</time></trkpt><trkpt lat="39.321401932194995" lon="16.99202168460193"><ele>249.79999999999998</ele><time>2026-03-28T15:49:31Z</time></trkpt><trkpt lat="39.32138803236173" lon="16.99214830633971"><ele>250.20000000000002</ele><time>2026-03-28T15:49:32Z</time></trkpt><trkpt lat="39.32139551372325" lon="16.992260529908226"><ele>250.60000000000002</ele><time>2026-03-28T15:49:33Z</time></trkpt><trkpt lat="39.32145553797076" lon="16.99233498282569"><ele>251.0</ele><time>2026-03-28T15:49:34Z</time></trkpt><trkpt lat="39.321536775623855" lon="16.99242251041832"><ele>249.0</ele><time>2026-03-28T15:49:35Z</time></trkpt><trkpt lat="39.32161132890416" lon="16.99253099982085"><ele>247.00000000000003</ele><time>2026-03-28T15:49:36Z</time></trkpt><trkpt lat="39.321655547934775" lon="16.992632535788267"><ele>245.00000000000003</ele><time>2026-03-28T15:49:37Z</time></trkpt><trkpt lat="39.32167803165614" lon="16.99273553266574"><ele>243.0</ele><time>2026-03-28T15:49:38Z</time></trkpt><trkpt lat="39.321702745163265" lon="16.992843230665468"><ele>241.0</ele><time>2026-03-28T15:49:39Z</time></trkpt><trkpt lat="39.321744835710646" lon="16.99293259127994"><ele>240.99999999999997</ele><time>2026-03-28T15:49:40Z</time></trkpt><trkpt lat="39.32180649592466" lon="16.993014281346678"><ele>241.0</ele><time>2026-03-28T15:49:41Z</time></trkpt><trkpt lat="39.32186824062431" lon="16.99308760330768"><ele>241.0</ele><time>2026-03-28T15:49:42Z</time></trkpt><trkpt lat="39.3219176619059" lon="16.99315882083363"><ele>241.0</ele><time>2026-03-28T15:49:43Z</time></trkpt><trkpt lat="39.32195189011978" lon="16.993241194085606"><ele>240.99999999999997</ele><time>2026-03-28T15:49:44Z</time></trkpt><trkpt lat="39.32198842267714" lon="16.993322153734674"><ele>241.0</ele><time>2026-03-28T15:49:45Z</time></trkpt><trkpt lat="39.322028354665214" lon="16.993408804977104"><ele>237.66666666666666</ele><time>2026-03-28T15:49:46Z</time></trkpt><trkpt lat="39.322060883886145" lon="16.993493075588898"><ele>234.33333333333331</ele><time>2026-03-28T15:49:47Z</time></trkpt><trkpt lat="39.32210282727567" lon="16.993570770878765"><ele>231.0</ele><time>2026-03-28T15:49:48Z</time></trkpt><trkpt lat="39.322162880327944" lon="16.993628719489678"><ele>227.66666666666669</ele><time>2026-03-28T15:49:49Z</time></trkpt><trkpt lat="39.32223760848197" lon="16.993658937955324"><ele>224.33333333333334</ele><time>2026-03-28T15:49:50Z</time></trkpt><trkpt lat="39.32232009938073" lon="16.99366623595005"><ele>221.0</ele><time>2026-03-28T15:49:51Z</time></trkpt><trkpt lat="39.322399663324475" lon="16.99364062243939"><ele>221.00000000000003</ele><time>2026-03-28T15:49:52Z</time></trkpt><trkpt lat="39.32247306460741" lon="16.99359488062442"><ele>221.0</ele><time>2026-03-28T15:49:53Z</time></trkpt><trkpt lat="39.32254156029635" lon="16.9935494252774"><ele>221.0</ele><time>2026-03-28T15:49:54Z</time></trkpt><trkpt lat="39.322607961460825" lon="16.993496280710954"><ele>221.0</ele><time>2026-03-28T15:49:55Z</time></trkpt><trkpt lat="39.322673833748254" lon="16.99344541660267"><ele>221.00000000000003</ele><time>2026-03-28T15:49:56Z</time></trkpt><trkpt lat="39.32274033691187" lon="16.993402517304368"><ele>221.0</ele><time>2026-03-28T15:49:57Z</time></trkpt><trkpt lat="39.322815439343266" lon="16.993360530325408"><ele>223.14285714285717</ele><time>2026-03-28T15:49:58Z</time></trkpt><trkpt lat="39.322892495481746" lon="16.993319447680793"><ele>225.28571428571428</ele><time>2026-03-28T15:49:59Z</time></trkpt><trkpt lat="39.322960188164885" lon="16.99330151648498"><ele>227.42857142857144</ele><time>2026-03-28T15:50:00Z</time></trkpt><trkpt lat="39.32302855951328" lon="16.993319712841835"><ele>229.57142857142858</ele><time>2026-03-28T15:50:01Z</time></trkpt><trkpt lat="39.3230845860309" lon="16.993365279950574"><ele>231.71428571428572</ele><time>2026-03-28T15:50:02Z</time></trkpt><trkpt lat="39.32311908329423" lon="16.993445622230013"><ele>233.85714285714286</ele><time>2026-03-28T15:50:03Z</time></trkpt><trkpt lat="39.323136377901655" lon="16.993544718716432"><ele>236.0</ele><time>2026-03-28T15:50:04Z</time></trkpt><trkpt lat="39.323146701593906" lon="16.993649718068824"><ele>230.0</ele><time>2026-03-28T15:50:05Z</time></trkpt><trkpt lat="39.32316422217815" lon="16.993773944978113"><ele>224.00000000000003</ele><time>2026-03-28T15:50:06Z</time></trkpt><trkpt lat="39.32318287670701" lon="16.99391478348264"><ele>218.0</ele><time>2026-03-28T15:50:07Z</time></trkpt><trkpt lat="39.32320140370684" lon="16.99406080968594"><ele>212.0</ele><time>2026-03-28T15:50:08Z</time></trkpt><trkpt lat="39.32321445523938" lon="16.994206626193527"><ele>206.0</ele><time>2026-03-28T15:50:09Z</time></trkpt><trkpt lat="39.323227031840545" lon="16.994354187255748"><ele>204.4</ele><time>2026-03-28T15:50:10Z</time></trkpt><trkpt lat="39.32323621963873" lon="16.99449586684391"><ele>202.8</ele><time>2026-03-28T15:50:11Z</time></trkpt><trkpt lat="39.32324562626679" lon="16.994634596723714"><ele>201.20000000000002</ele><time>2026-03-28T15:50:12Z</time></trkpt><trkpt lat="39.32325659942954" lon="16.994766724978653"><ele>199.60000000000002</ele><time>2026-03-28T15:50:13Z</time></trkpt><trkpt lat="39.32327349135982" lon="16.994878047395378"><ele>198.0</ele><time>2026-03-28T15:50:14Z</time></trkpt><trkpt lat="39.32331602606603" lon="16.994978923547677"><ele>194.8</ele><time>2026-03-28T15:50:15Z</time></trkpt><trkpt lat="39.32338654564744" lon="16.995061197505784"><ele>191.60000000000002</ele><time>2026-03-28T15:50:16Z</time></trkpt><trkpt lat="39.323474099568614" lon="16.99510864978268"><ele>188.39999999999998</ele><time>2026-03-28T15:50:17Z</time></trkpt><trkpt lat="39.32356819130458" lon="16.99512448009903"><ele>185.2</ele><time>2026-03-28T15:50:18Z</time></trkpt><trkpt lat="39.3236654952831" lon="16.995118291858887"><ele>182.0</ele><time>2026-03-28T15:50:19Z</time></trkpt><trkpt lat="39.323760251978605" lon="16.99510948939927"><ele>182.0</ele><time>2026-03-28T15:50:20Z</time></trkpt><trkpt lat="39.32385428755555" lon="16.99510391480839"><ele>182.0</ele><time>2026-03-28T15:50:21Z</time></trkpt><trkpt lat="39.32394747248262" lon="16.995101545853455"><ele>182.0</ele><time>2026-03-28T15:50:22Z</time></trkpt><trkpt lat="39.32404487474028" lon="16.99509701890916"><ele>182.0</ele><time>2026-03-28T15:50:23Z</time></trkpt><trkpt lat="39.324141176383385" lon="16.995088365714956"><ele>182.0</ele><time>2026-03-28T15:50:24Z</time></trkpt><trkpt lat="39.324234998864355" lon="16.995064587536493"><ele>182.16666666666666</ele><time>2026-03-28T15:50:25Z</time></trkpt><trkpt lat="39.3243150172446" lon="16.995025153366768"><ele>182.33333333333331</ele><time>2026-03-28T15:50:26Z</time></trkpt><trkpt lat="39.32438324284889" lon="16.99497290379041"><ele>182.5</ele><time>2026-03-28T15:50:27Z</time></trkpt><trkpt lat="39.32444085864297" lon="16.994905484263686"><ele>182.66666666666666</ele><time>2026-03-28T15:50:28Z</time></trkpt><trkpt lat="39.32449438189254" lon="16.99483025298677"><ele>182.83333333333334</ele><time>2026-03-28T15:50:29Z</time></trkpt><trkpt lat="39.32455385683384" lon="16.994753823519535"><ele>183.0</ele><time>2026-03-28T15:50:30Z</time></trkpt><trkpt lat="39.324607055879625" lon="16.994677891520848"><ele>183.5</ele><time>2026-03-28T15:50:31Z</time></trkpt><trkpt lat="39.3246395305001" lon="16.994590733223202"><ele>184.0</ele><time>2026-03-28T15:50:32Z</time></trkpt><trkpt lat="39.324638749070395" lon="16.994489258090276"><ele>184.5</ele><time>2026-03-28T15:50:33Z</time></trkpt><trkpt lat="39.32462324386695" lon="16.99436962130804"><ele>185.0</ele><time>2026-03-28T15:50:34Z</time></trkpt><trkpt lat="39.32460459933462" lon="16.994251277550163"><ele>185.5</ele><time>2026-03-28T15:50:35Z</time></trkpt><trkpt lat="39.324582289203214" lon="16.994136145535393"><ele>186.0</ele><time>2026-03-28T15:50:36Z</time></trkpt><trkpt lat="39.324554611959066" lon="16.99402760601441"><ele>186.16666666666666</ele><time>2026-03-28T15:50:37Z</time></trkpt><trkpt lat="39.324532487711686" lon="16.993941422217166"><ele>186.33333333333334</ele><time>2026-03-28T15:50:38Z</time></trkpt><trkpt lat="39.32451675228016" lon="16.993850997732245"><ele>186.5</ele><time>2026-03-28T15:50:40Z</time></trkpt><trkpt lat="39.324576189554215" lon="16.993780950290436"><ele>186.66666666666669</ele><time>2026-03-28T15:50:42Z</time></trkpt><trkpt lat="39.32467694809311" lon="16.993826148148397"><ele>186.83333333333334</ele><time>2026-03-28T15:50:44Z</time></trkpt><trkpt lat="39.32474810957742" lon="16.993906050536488"><ele>187.0</ele><time>2026-03-28T15:50:45Z</time></trkpt><trkpt lat="39.32484485335118" lon="16.99400514061979"><ele>184.6</ele><time>2026-03-28T15:50:46Z</time></trkpt><trkpt lat="39.324957113728985" lon="16.9940895087934"><ele>182.2</ele><time>2026-03-28T15:50:47Z</time></trkpt><trkpt lat="39.325056738465946" lon="16.994181528898185"><ele>179.8</ele><time>2026-03-28T15:50:48Z</time></trkpt><trkpt lat="39.32513883376043" lon="16.994267024105"><ele>177.4</ele><time>2026-03-28T15:50:49Z</time></trkpt><trkpt lat="39.325199742493844" lon="16.994326142386413"><ele>175.0</ele><time>2026-03-28T15:50:50Z</time></trkpt><trkpt lat="39.325266126951405" lon="16.99434798840442"><ele>174.8</ele><time>2026-03-28T15:50:51Z</time></trkpt><trkpt lat="39.325368971407315" lon="16.9943568145031"><ele>174.6</ele><time>2026-03-28T15:50:52Z</time></trkpt><trkpt lat="39.32547009355889" lon="16.994365292985986"><ele>174.39999999999998</ele><time>2026-03-28T15:50:53Z</time></trkpt><trkpt lat="39.32556867749453" lon="16.994368602603064"><ele>174.2</ele><time>2026-03-28T15:50:54Z</time></trkpt><trkpt lat="39.32566180217797" lon="16.994365569357925"><ele>174.0</ele><time>2026-03-28T15:50:55Z</time></trkpt><trkpt lat="39.32576778454109" lon="16.99435805961969"><ele>174.0</ele><time>2026-03-28T15:50:56Z</time></trkpt><trkpt lat="39.32589907756502" lon="16.994338730762145"><ele>174.0</ele><time>2026-03-28T15:50:57Z</time></trkpt><trkpt lat="39.326013292795075" lon="16.994281582533368"><ele>174.0</ele><time>2026-03-28T15:50:58Z</time></trkpt><trkpt lat="39.32611999750135" lon="16.994199896738056"><ele>174.0</ele><time>2026-03-28T15:50:59Z</time></trkpt><trkpt lat="39.32621668652757" lon="16.994104453590786"><ele>176.0</ele><time>2026-03-28T15:51:00Z</time></trkpt><trkpt lat="39.326332358294366" lon="16.994046210259597"><ele>178.0</ele><time>2026-03-28T15:51:02Z</time></trkpt><trkpt lat="39.32640627577278" lon="16.993891570583752"><ele>180.0</ele><time>2026-03-28T15:51:04Z</time></trkpt><trkpt lat="39.326446025482454" lon="16.993761943278557"><ele>182.0</ele><time>2026-03-28T15:51:05Z</time></trkpt><trkpt lat="39.326538925242566" lon="16.99366935282094"><ele>182.5</ele><time>2026-03-28T15:51:06Z</time></trkpt><trkpt lat="39.3266491774938" lon="16.99360621279809"><ele>183.0</ele><time>2026-03-28T15:51:07Z</time></trkpt><trkpt lat="39.32673849193825" lon="16.993554415997753"><ele>183.5</ele><time>2026-03-28T15:51:08Z</time></trkpt><trkpt lat="39.326806011141066" lon="16.99351076856683"><ele>184.0</ele><time>2026-03-28T15:51:09Z</time></trkpt><trkpt lat="39.326866276017626" lon="16.99346094430869"><ele>184.5</ele><time>2026-03-28T15:51:10Z</time></trkpt><trkpt lat="39.3269201658074" lon="16.993404687196954"><ele>185.0</ele><time>2026-03-28T15:51:11Z</time></trkpt><trkpt lat="39.32696021055687" lon="16.993308060372414"><ele>186.0</ele><time>2026-03-28T15:51:13Z</time></trkpt><trkpt lat="39.327008742540215" lon="16.9932027552318"><ele>187.0</ele><time>2026-03-28T15:51:16Z</time></trkpt><trkpt lat="39.32709256853503" lon="16.993252498409305"><ele>188.0</ele><time>2026-03-28T15:51:21Z</time></trkpt><trkpt lat="39.327164193805096" lon="16.993333404309112"><ele>189.0</ele><time>2026-03-28T15:51:24Z</time></trkpt><trkpt lat="39.327237733896524" lon="16.993381233001802"><ele>190.0</ele><time>2026-03-28T15:51:26Z</time></trkpt><trkpt lat="39.32730508570666" lon="16.993400294104113"><ele>191.0</ele><time>2026-03-28T15:51:29Z</time></trkpt><trkpt lat="39.32737396254608" lon="16.9934176557511"><ele>191.0</ele><time>2026-03-28T15:51:35Z</time></trkpt><trkpt lat="39.327448381209905" lon="16.99344526020913"><ele>191.0</ele><time>2026-03-28T15:51:59Z</time></trkpt><trkpt lat="39.32746388816479" lon="16.993585484283614"><ele>191.0</ele><time>2026-03-28T15:52:01Z</time></trkpt><trkpt lat="39.32747935831229" lon="16.99369356323393"><ele>191.0</ele><time>2026-03-28T15:52:02Z</time></trkpt><trkpt lat="39.32750375656664" lon="16.99384408974357"><ele>191.0</ele><time>2026-03-28T15:52:03Z</time></trkpt><trkpt lat="39.327524187554154" lon="16.99397748141785"><ele>191.0</ele><time>2026-03-28T15:52:04Z</time></trkpt><trkpt lat="39.32754546892812" lon="16.99410111659245"><ele>191.0</ele><time>2026-03-28T15:52:05Z</time></trkpt><trkpt lat="39.32758426439129" lon="16.994237988366258"><ele>191.0</ele><time>2026-03-28T15:52:06Z</time></trkpt><trkpt lat="39.32764690829772" lon="16.994384417028186"><ele>191.0</ele><time>2026-03-28T15:52:07Z</time></trkpt><trkpt lat="39.327695329639724" lon="16.99451235197909"><ele>191.0</ele><time>2026-03-28T15:52:08Z</time></trkpt><trkpt lat="39.327737544117824" lon="16.994618794815718"><ele>191.0</ele><time>2026-03-28T15:52:09Z</time></trkpt><trkpt lat="39.327776519005035" lon="16.99472460579331"><ele>191.0</ele><time>2026-03-28T15:52:10Z</time></trkpt><trkpt lat="39.32781038778719" lon="16.994846442932847"><ele>191.0</ele><time>2026-03-28T15:52:11Z</time></trkpt><trkpt lat="39.327829760138954" lon="16.994988779192685"><ele>191.0</ele><time>2026-03-28T15:52:12Z</time></trkpt><trkpt lat="39.32783285607608" lon="16.99514540746739"><ele>190.0</ele><time>2026-03-28T15:52:13Z</time></trkpt><trkpt lat="39.32781400505919" lon="16.995293455870865"><ele>189.0</ele><time>2026-03-28T15:52:14Z</time></trkpt><trkpt lat="39.32778744751065" lon="16.995433483507544"><ele>188.0</ele><time>2026-03-28T15:52:15Z</time></trkpt><trkpt lat="39.32776573916602" lon="16.995570413378115"><ele>187.0</ele><time>2026-03-28T15:52:16Z</time></trkpt><trkpt lat="39.3277443490932" lon="16.995712483544807"><ele>186.0</ele><time>2026-03-28T15:52:17Z</time></trkpt><trkpt lat="39.327727988656804" lon="16.995851482992137"><ele>184.4</ele><time>2026-03-28T15:52:18Z</time></trkpt><trkpt lat="39.327704845466656" lon="16.99597708978118"><ele>182.8</ele><time>2026-03-28T15:52:19Z</time></trkpt><trkpt lat="39.32766921317892" lon="16.996098395908845"><ele>181.20000000000002</ele><time>2026-03-28T15:52:20Z</time></trkpt><trkpt lat="39.32762821942796" lon="16.996199652400225"><ele>179.60000000000002</ele><time>2026-03-28T15:52:21Z</time></trkpt><trkpt lat="39.327562402085626" lon="16.996270368910967"><ele>178.0</ele><time>2026-03-28T15:52:22Z</time></trkpt><trkpt lat="39.32746468943117" lon="16.996313880972682"><ele>178.0</ele><time>2026-03-28T15:52:23Z</time></trkpt><trkpt lat="39.327358013609356" lon="16.99633444961762"><ele>178.0</ele><time>2026-03-28T15:52:24Z</time></trkpt><trkpt lat="39.32725402734549" lon="16.99636199568186"><ele>178.0</ele><time>2026-03-28T15:52:25Z</time></trkpt><trkpt lat="39.32714988427284" lon="16.996393350992587"><ele>178.0</ele><time>2026-03-28T15:52:26Z</time></trkpt><trkpt lat="39.32703721546136" lon="16.996427609327824"><ele>178.0</ele><time>2026-03-28T15:52:27Z</time></trkpt><trkpt lat="39.32692236067893" lon="16.996461871251753"><ele>176.5</ele><time>2026-03-28T15:52:28Z</time></trkpt><trkpt lat="39.32680672300292" lon="16.99650309754511"><ele>175.0</ele><time>2026-03-28T15:52:29Z</time></trkpt><trkpt lat="39.326691633431125" lon="16.996548699838193"><ele>173.5</ele><time>2026-03-28T15:52:30Z</time></trkpt><trkpt lat="39.32658018934111" lon="16.996603432873098"><ele>172.0</ele><time>2026-03-28T15:52:31Z</time></trkpt><trkpt lat="39.3264738050249" lon="16.99666360549078"><ele>169.2</ele><time>2026-03-28T15:52:32Z</time></trkpt><trkpt lat="39.326385705124395" lon="16.99671475547607"><ele>166.39999999999998</ele><time>2026-03-28T15:52:33Z</time></trkpt><trkpt lat="39.32631410772972" lon="16.996771327723888"><ele>163.60000000000002</ele><time>2026-03-28T15:52:34Z</time></trkpt><trkpt lat="39.32626140336226" lon="16.996867221955885"><ele>160.8</ele><time>2026-03-28T15:52:35Z</time></trkpt><trkpt lat="39.32623087994147" lon="16.99698591119106"><ele>158.0</ele><time>2026-03-28T15:52:36Z</time></trkpt><trkpt lat="39.32620434756479" lon="16.997094747717025"><ele>158.0</ele><time>2026-03-28T15:52:37Z</time></trkpt><trkpt lat="39.326176215149744" lon="16.997181452153146"><ele>158.0</ele><time>2026-03-28T15:52:38Z</time></trkpt><trkpt lat="39.32612592874542" lon="16.99731119033389"><ele>158.0</ele><time>2026-03-28T15:52:40Z</time></trkpt><trkpt lat="39.326068920963515" lon="16.997445870825008"><ele>158.0</ele><time>2026-03-28T15:52:42Z</time></trkpt><trkpt lat="39.3260017476173" lon="16.997581009411462"><ele>158.0</ele><time>2026-03-28T15:52:44Z</time></trkpt><trkpt lat="39.32594402816204" lon="16.99771640503563"><ele>157.0</ele><time>2026-03-28T15:52:46Z</time></trkpt><trkpt lat="39.32587632577892" lon="16.99783658094413"><ele>156.0</ele><time>2026-03-28T15:52:48Z</time></trkpt><trkpt lat="39.325836911604455" lon="16.997933313754462"><ele>155.0</ele><time>2026-03-28T15:52:50Z</time></trkpt><trkpt lat="39.32580260572888" lon="16.998006655622614"><ele>154.0</ele><time>2026-03-28T15:52:52Z</time></trkpt><trkpt lat="39.32578706368084" lon="16.998149315987135"><ele>153.0</ele><time>2026-03-28T15:57:10.999Z</time></trkpt><trkpt lat="39.32576127920767" lon="16.99823216729896"><ele>152.0</ele><time>2026-03-28T15:57:11.999Z</time></trkpt><trkpt lat="39.32572259741603" lon="16.998318310044763"><ele>148.83333333333331</ele><time>2026-03-28T15:57:12.999Z</time></trkpt><trkpt lat="39.325671223109346" lon="16.998389954134517"><ele>145.66666666666666</ele><time>2026-03-28T15:57:13.999Z</time></trkpt><trkpt lat="39.3256480484223" lon="16.998519330644417"><ele>142.5</ele><time>2026-03-28T15:57:15.999Z</time></trkpt><trkpt lat="39.32563147422029" lon="16.99860303254715"><ele>139.33333333333334</ele><time>2026-03-28T15:57:16.999Z</time></trkpt><trkpt lat="39.32565169077751" lon="16.998756092933423"><ele>136.16666666666669</ele><time>2026-03-28T15:57:18.999Z</time></trkpt><trkpt lat="39.32569630212538" lon="16.998827185695205"><ele>133.0</ele><time>2026-03-28T15:57:19.999Z</time></trkpt><trkpt lat="39.32576245956567" lon="16.99885976084057"><ele>133.0</ele><time>2026-03-28T15:57:20.999Z</time></trkpt><trkpt lat="39.32585355150693" lon="16.998856937376285"><ele>133.0</ele><time>2026-03-28T15:57:21.999Z</time></trkpt><trkpt lat="39.32594787990027" lon="16.998815969988918"><ele>133.0</ele><time>2026-03-28T15:57:22.999Z</time></trkpt><trkpt lat="39.32605407778981" lon="16.998793978414298"><ele>133.0</ele><time>2026-03-28T15:57:23.999Z</time></trkpt><trkpt lat="39.32613144802926" lon="16.998732893234976"><ele>133.0</ele><time>2026-03-28T15:57:24.999Z</time></trkpt><trkpt lat="39.326201910490944" lon="16.99865838259152"><ele>133.0</ele><time>2026-03-28T15:57:25.999Z</time></trkpt><trkpt lat="39.32624585943472" lon="16.998562860351715"><ele>133.0</ele><time>2026-03-28T15:57:26.999Z</time></trkpt><trkpt lat="39.32628311581768" lon="16.998466013182423"><ele>133.0</ele><time>2026-03-28T15:57:27.999Z</time></trkpt><trkpt lat="39.32635318141057" lon="16.99837679720238"><ele>133.0</ele><time>2026-03-28T15:57:29.999Z</time></trkpt><trkpt lat="39.32643794263588" lon="16.998419721412034"><ele>133.0</ele><time>2026-03-28T15:57:32.999Z</time></trkpt><trkpt lat="39.32642679867828" lon="16.99851226957153"><ele>133.0</ele><time>2026-03-28T15:57:33.999Z</time></trkpt><trkpt lat="39.3263959766971" lon="16.998633939455296"><ele>133.0</ele><time>2026-03-28T15:57:34.999Z</time></trkpt><trkpt lat="39.32636271802055" lon="16.99875380520192"><ele>133.0</ele><time>2026-03-28T15:57:35.999Z</time></trkpt><trkpt lat="39.326308815628224" lon="16.998858365873346"><ele>133.0</ele><time>2026-03-28T15:57:36.999Z</time></trkpt><trkpt lat="39.32626309181779" lon="16.99896327495429"><ele>133.0</ele><time>2026-03-28T15:57:37.999Z</time></trkpt><trkpt lat="39.32620246647344" lon="16.99906202528357"><ele>133.0</ele><time>2026-03-28T15:57:38.999Z</time></trkpt><trkpt lat="39.3261300250114" lon="16.99916218023231"><ele>128.6</ele><time>2026-03-28T15:57:39.999Z</time></trkpt><trkpt lat="39.32605631907213" lon="16.99925113547508"><ele>124.20000000000002</ele><time>2026-03-28T15:57:40.999Z</time></trkpt><trkpt lat="39.32597823379087" lon="16.999334051230445"><ele>119.8</ele><time>2026-03-28T15:57:41.999Z</time></trkpt><trkpt lat="39.32589908662232" lon="16.99940545191114"><ele>115.4</ele><time>2026-03-28T15:57:42.999Z</time></trkpt><trkpt lat="39.325822191096925" lon="16.99946419336035"><ele>111.0</ele><time>2026-03-28T15:57:43.999Z</time></trkpt><trkpt lat="39.325738726629375" lon="16.999511182252817"><ele>111.0</ele><time>2026-03-28T15:57:44.999Z</time></trkpt><trkpt lat="39.32567379605062" lon="16.999553012195527"><ele>111.0</ele><time>2026-03-28T15:57:45.999Z</time></trkpt><trkpt lat="39.32560624674404" lon="16.999660225846217"><ele>111.0</ele><time>2026-03-28T15:57:47.999Z</time></trkpt><trkpt lat="39.32563123688398" lon="16.999772625033582"><ele>111.0</ele><time>2026-03-28T15:57:48.999Z</time></trkpt><trkpt lat="39.32571816804797" lon="16.999862747556417"><ele>111.0</ele><time>2026-03-28T15:57:49.999Z</time></trkpt><trkpt lat="39.325810297646136" lon="16.999971353286234"><ele>111.0</ele><time>2026-03-28T15:57:50.999Z</time></trkpt><trkpt lat="39.32587264553861" lon="17.000077969518188"><ele>111.0</ele><time>2026-03-28T15:57:51.999Z</time></trkpt><trkpt lat="39.32588702989168" lon="17.000206467514385"><ele>111.0</ele><time>2026-03-28T15:57:52.999Z</time></trkpt><trkpt lat="39.32591587693892" lon="17.000332291319427"><ele>111.0</ele><time>2026-03-28T15:57:53.999Z</time></trkpt><trkpt lat="39.325890184902555" lon="17.000472378386036"><ele>111.0</ele><time>2026-03-28T15:57:54.999Z</time></trkpt><trkpt lat="39.325867762249" lon="17.000617186916884"><ele>111.0</ele><time>2026-03-28T15:57:55.999Z</time></trkpt><trkpt lat="39.3258358551794" lon="17.0007110187337"><ele>111.0</ele><time>2026-03-28T15:57:56.999Z</time></trkpt><trkpt lat="39.325731079302486" lon="17.00084289982112"><ele>111.0</ele><time>2026-03-28T15:57:58.999Z</time></trkpt><trkpt lat="39.32563870034683" lon="17.00094182501657"><ele>111.0</ele><time>2026-03-28T15:57:59.999Z</time></trkpt><trkpt lat="39.325581401627836" lon="17.00104623940754"><ele>111.0</ele><time>2026-03-28T15:58:00.999Z</time></trkpt><trkpt lat="39.32553878145124" lon="17.001156379778124"><ele>111.0</ele><time>2026-03-28T15:58:01.999Z</time></trkpt><trkpt lat="39.32551434804692" lon="17.001291973290606"><ele>111.0</ele><time>2026-03-28T15:58:02.999Z</time></trkpt><trkpt lat="39.32549341732556" lon="17.00145682118873"><ele>111.0</ele><time>2026-03-28T15:58:03.999Z</time></trkpt><trkpt lat="39.32549073987435" lon="17.001599007096434"><ele>111.0</ele><time>2026-03-28T15:58:04.999Z</time></trkpt><trkpt lat="39.32547774852723" lon="17.00173425532899"><ele>111.0</ele><time>2026-03-28T15:58:05.999Z</time></trkpt><trkpt lat="39.32548708164015" lon="17.001860920390623"><ele>111.0</ele><time>2026-03-28T15:58:06.999Z</time></trkpt><trkpt lat="39.32550148827482" lon="17.001979876539078"><ele>111.0</ele><time>2026-03-28T15:58:07.999Z</time></trkpt><trkpt lat="39.32550313704613" lon="17.00209234602895"><ele>111.0</ele><time>2026-03-28T15:58:08.999Z</time></trkpt><trkpt lat="39.325505096006275" lon="17.002189509021406"><ele>111.0</ele><time>2026-03-28T15:58:09.999Z</time></trkpt><trkpt lat="39.32547810249259" lon="17.002357417929257"><ele>110.0</ele><time>2026-03-28T15:58:11.999Z</time></trkpt><trkpt lat="39.32558013727459" lon="17.002459695143244"><ele>109.0</ele><time>2026-03-28T15:58:12.999Z</time></trkpt><trkpt lat="39.32558636339261" lon="17.00263077837527"><ele>108.0</ele><time>2026-03-28T15:58:14.999Z</time></trkpt><trkpt lat="39.32558625893748" lon="17.002724328440003"><ele>107.0</ele><time>2026-03-28T15:58:15.999Z</time></trkpt><trkpt lat="39.32556414958525" lon="17.002894682315052"><ele>107.83333333333333</ele><time>2026-03-28T15:58:17.999Z</time></trkpt><trkpt lat="39.32553839284485" lon="17.002983854750706"><ele>108.66666666666666</ele><time>2026-03-28T15:58:18.999Z</time></trkpt><trkpt lat="39.3255064786445" lon="17.00307037855687"><ele>109.5</ele><time>2026-03-28T15:58:19.999Z</time></trkpt><trkpt lat="39.325468442883675" lon="17.00315119724122"><ele>110.33333333333334</ele><time>2026-03-28T15:58:20.999Z</time></trkpt><trkpt lat="39.32542732353744" lon="17.003267821672377"><ele>111.16666666666667</ele><time>2026-03-28T15:58:22.999Z</time></trkpt><trkpt lat="39.325393986286166" lon="17.00334104674594"><ele>112.0</ele><time>2026-03-28T15:58:30.999Z</time></trkpt><trkpt lat="39.32536802532361" lon="17.0034167355524"><ele>112.0</ele><time>2026-03-28T15:58:39.999Z</time></trkpt><trkpt lat="39.32535071421051" lon="17.003497673284993"><ele>112.0</ele><time>2026-03-28T15:59:24Z</time></trkpt><trkpt lat="39.32529619231191" lon="17.003569479796607"><ele>112.0</ele><time>2026-03-28T15:59:37.999Z</time></trkpt><trkpt lat="39.325243294702" lon="17.003618828118007"><ele>112.0</ele><time>2026-03-28T15:59:41.999Z</time></trkpt><trkpt lat="39.3252154749652" lon="17.003694538908697"><ele>112.0</ele><time>2026-03-28T15:59:44.999Z</time></trkpt><trkpt lat="39.32517188207484" lon="17.003771423436316"><ele>112.0</ele><time>2026-03-28T15:59:47.999Z</time></trkpt><trkpt lat="39.32512646345475" lon="17.00386722420463"><ele>112.0</ele><time>2026-03-28T15:59:49.999Z</time></trkpt><trkpt lat="39.32514044370455" lon="17.00405105012682"><ele>112.0</ele><time>2026-03-28T15:59:51.999Z</time></trkpt><trkpt lat="39.32516293940239" lon="17.004161306556153"><ele>111.99999999999999</ele><time>2026-03-28T15:59:52.999Z</time></trkpt><trkpt lat="39.32516142776105" lon="17.004285805212998"><ele>111.99999999999999</ele><time>2026-03-28T15:59:53.999Z</time></trkpt><trkpt lat="39.325175664719445" lon="17.004430666779623"><ele>112.0</ele><time>2026-03-28T15:59:54.999Z</time></trkpt><trkpt lat="39.32516887241412" lon="17.004588695354055"><ele>112.0</ele><time>2026-03-28T15:59:55.999Z</time></trkpt><trkpt lat="39.32516051397453" lon="17.0047620743816"><ele>111.0</ele><time>2026-03-28T15:59:56.999Z</time></trkpt><trkpt lat="39.32516048806313" lon="17.00492947536451"><ele>109.99999999999999</ele><time>2026-03-28T15:59:57.999Z</time></trkpt><trkpt lat="39.325151681747926" lon="17.005075345038275"><ele>108.99999999999999</ele><time>2026-03-28T15:59:58.999Z</time></trkpt><trkpt lat="39.32514573772525" lon="17.005212248907092"><ele>108.0</ele><time>2026-03-28T15:59:59.999Z</time></trkpt><trkpt lat="39.325135132647745" lon="17.005303751809542"><ele>107.0</ele><time>2026-03-28T16:00:00.999Z</time></trkpt><trkpt lat="39.32515507634129" lon="17.005385035806547"><ele>106.8</ele><time>2026-03-28T16:00:01.999Z</time></trkpt><trkpt lat="39.32517776268339" lon="17.005483950816725"><ele>106.6</ele><time>2026-03-28T16:00:02.999Z</time></trkpt><trkpt lat="39.32517457687449" lon="17.005608247472697"><ele>106.39999999999999</ele><time>2026-03-28T16:00:03.999Z</time></trkpt><trkpt lat="39.32515200039245" lon="17.00571960465312"><ele>106.19999999999999</ele><time>2026-03-28T16:00:04.999Z</time></trkpt><trkpt lat="39.32515415362489" lon="17.005819735347877"><ele>106.0</ele><time>2026-03-28T16:00:05.999Z</time></trkpt><trkpt lat="39.32515566796203" lon="17.005964642218636"><ele>105.50000000000001</ele><time>2026-03-28T16:00:07.999Z</time></trkpt><trkpt lat="39.32515198178159" lon="17.006102542475908"><ele>105.0</ele><time>2026-03-28T16:00:09.999Z</time></trkpt><trkpt lat="39.32511765959744" lon="17.006170980550195"><ele>104.5</ele><time>2026-03-28T16:00:10.999Z</time></trkpt><trkpt lat="39.325078965243414" lon="17.00625067243561"><ele>104.0</ele><time>2026-03-28T16:00:11.999Z</time></trkpt><trkpt lat="39.3250857101819" lon="17.00637077506565"><ele>103.50000000000001</ele><time>2026-03-28T16:00:13.999Z</time></trkpt><trkpt lat="39.32508776691614" lon="17.006471915997235"><ele>103.0</ele><time>2026-03-28T16:00:25.999Z</time></trkpt><trkpt lat="39.32509062005875" lon="17.006567932545614"><ele>103.33333333333334</ele><time>2026-03-28T16:00:27.999Z</time></trkpt><trkpt lat="39.3251063913873" lon="17.00667703819426"><ele>103.66666666666667</ele><time>2026-03-28T16:00:29.999Z</time></trkpt><trkpt lat="39.32513803101371" lon="17.006782100888415"><ele>104.0</ele><time>2026-03-28T16:00:31.999Z</time></trkpt><trkpt lat="39.32517165827839" lon="17.006919878195156"><ele>104.33333333333334</ele><time>2026-03-28T16:00:33.999Z</time></trkpt><trkpt lat="39.32520061411311" lon="17.006997080470125"><ele>104.66666666666667</ele><time>2026-03-28T16:00:35.999Z</time></trkpt><trkpt lat="39.32527524987938" lon="17.00706471099203"><ele>105.0</ele><time>2026-03-28T16:00:37.999Z</time></trkpt><trkpt lat="39.32532265664633" lon="17.0071750683335"><ele>105.0</ele><time>2026-03-28T16:00:39.999Z</time></trkpt><trkpt lat="39.32543011259547" lon="17.00717107282135"><ele>105.0</ele><time>2026-03-28T16:00:41.999Z</time></trkpt><trkpt lat="39.3255198981773" lon="17.007157539112512"><ele>105.0</ele><time>2026-03-28T16:00:42.999Z</time></trkpt><trkpt lat="39.32559946639557" lon="17.00715605595063"><ele>105.0</ele><time>2026-03-28T16:00:43.999Z</time></trkpt><trkpt lat="39.325686816857186" lon="17.007156506377815"><ele>105.0</ele><time>2026-03-28T16:01:01Z</time></trkpt><trkpt lat="39.3257497018609" lon="17.00716109242035"><ele>105.0</ele><time>2026-03-28T16:01:03Z</time></trkpt><trkpt lat="39.325832359253496" lon="17.0071503873388"><ele>103.66666666666667</ele><time>2026-03-28T16:01:05Z</time></trkpt><trkpt lat="39.32592275871015" lon="17.00715316658823"><ele>102.33333333333334</ele><time>2026-03-28T16:01:07Z</time></trkpt><trkpt lat="39.32598603068501" lon="17.007150972542384"><ele>101.0</ele><time>2026-03-28T16:01:09Z</time></trkpt><trkpt lat="39.32607050965353" lon="17.00718115579674"><ele>99.66666666666667</ele><time>2026-03-28T16:01:11Z</time></trkpt><trkpt lat="39.32613510646885" lon="17.007178605765073"><ele>98.33333333333334</ele><time>2026-03-28T16:01:12Z</time></trkpt><trkpt lat="39.32624702202207" lon="17.007248578153142"><ele>97.0</ele><time>2026-03-28T16:01:14Z</time></trkpt><trkpt lat="39.32630416794069" lon="17.007295977788136"><ele>97.0</ele><time>2026-03-28T16:01:15Z</time></trkpt><trkpt lat="39.32638288728093" lon="17.007383355459872"><ele>97.0</ele><time>2026-03-28T16:01:17Z</time></trkpt><trkpt lat="39.32646029260446" lon="17.007474990004724"><ele>97.0</ele><time>2026-03-28T16:01:18.999Z</time></trkpt><trkpt lat="39.32649992466871" lon="17.00756159819058"><ele>97.0</ele><time>2026-03-28T16:01:20.999Z</time></trkpt><trkpt lat="39.326533646132376" lon="17.007678839842292"><ele>97.0</ele><time>2026-03-28T16:01:23.999Z</time></trkpt><trkpt lat="39.32657858075368" lon="17.0077983450779"><ele>96.6</ele><time>2026-03-28T16:01:25.999Z</time></trkpt><trkpt lat="39.32662068280342" lon="17.0079457624284"><ele>96.19999999999999</ele><time>2026-03-28T16:01:27.999Z</time></trkpt><trkpt lat="39.326635738880256" lon="17.008051519235956"><ele>95.8</ele><time>2026-03-28T16:01:29.999Z</time></trkpt><trkpt lat="39.32662877467649" lon="17.008157056990676"><ele>95.4</ele><time>2026-03-28T16:01:31.999Z</time></trkpt><trkpt lat="39.326580454139325" lon="17.008257644110998"><ele>95.0</ele><time>2026-03-28T16:01:33.999Z</time></trkpt><trkpt lat="39.3265271382197" lon="17.00834717614798"><ele>94.66666666666667</ele><time>2026-03-28T16:01:35.999Z</time></trkpt><trkpt lat="39.32647354265115" lon="17.008450460797086"><ele>94.33333333333334</ele><time>2026-03-28T16:01:37.999Z</time></trkpt><trkpt lat="39.32643625397853" lon="17.00854326695761"><ele>94.0</ele><time>2026-03-28T16:01:39.999Z</time></trkpt><trkpt lat="39.32642093826052" lon="17.008665438320595"><ele>93.66666666666667</ele><time>2026-03-28T16:01:41.999Z</time></trkpt><trkpt lat="39.32642213836243" lon="17.008752184629525"><ele>93.33333333333333</ele><time>2026-03-28T16:01:42.999Z</time></trkpt><trkpt lat="39.32643642537013" lon="17.008848120368445"><ele>93.0</ele><time>2026-03-28T16:01:43.999Z</time></trkpt><trkpt lat="39.32645881973989" lon="17.008924733407408"><ele>93.0</ele><time>2026-03-28T16:01:44.999Z</time></trkpt><trkpt lat="39.3265067593783" lon="17.009028589154124"><ele>93.0</ele><time>2026-03-28T16:01:46.999Z</time></trkpt><trkpt lat="39.326575240141146" lon="17.00909602138914"><ele>93.0</ele><time>2026-03-28T16:01:49.999Z</time></trkpt><trkpt lat="39.3266508721334" lon="17.009175434123247"><ele>93.0</ele><time>2026-03-28T16:01:51.999Z</time></trkpt><trkpt lat="39.32675909106788" lon="17.009243563357337"><ele>93.0</ele><time>2026-03-28T16:01:53.999Z</time></trkpt><trkpt lat="39.32682209323735" lon="17.00925996695549"><ele>93.2</ele><time>2026-03-28T16:01:54.999Z</time></trkpt><trkpt lat="39.32692286843935" lon="17.009269551039697"><ele>93.4</ele><time>2026-03-28T16:01:56.999Z</time></trkpt><trkpt lat="39.32701706630913" lon="17.009292768066175"><ele>93.60000000000001</ele><time>2026-03-28T16:02:00.999Z</time></trkpt><trkpt lat="39.32709253513804" lon="17.009352327868854"><ele>93.80000000000001</ele><time>2026-03-28T16:02:03.999Z</time></trkpt><trkpt lat="39.327163979522275" lon="17.00942506720211"><ele>94.0</ele><time>2026-03-28T16:02:05.999Z</time></trkpt><trkpt lat="39.32724729760537" lon="17.00951458353179"><ele>94.0</ele><time>2026-03-28T16:02:07.999Z</time></trkpt><trkpt lat="39.32733229684274" lon="17.009548050858474"><ele>94.0</ele><time>2026-03-28T16:02:09.999Z</time></trkpt><trkpt lat="39.32742182146772" lon="17.00956503865929"><ele>94.0</ele><time>2026-03-28T16:02:11.999Z</time></trkpt><trkpt lat="39.32750950187971" lon="17.009623867658217"><ele>94.0</ele><time>2026-03-28T16:02:13.999Z</time></trkpt><trkpt lat="39.32757277052005" lon="17.00976556634074"><ele>94.0</ele><time>2026-03-28T16:02:15.999Z</time></trkpt><trkpt lat="39.32755166695476" lon="17.009868987936162"><ele>94.0</ele><time>2026-03-28T16:02:16.999Z</time></trkpt><trkpt lat="39.32751977783454" lon="17.009946918971504"><ele>94.0</ele><time>2026-03-28T16:02:17.999Z</time></trkpt><trkpt lat="39.32749270414499" lon="17.01002664500045"><ele>94.0</ele><time>2026-03-28T16:02:19.999Z</time></trkpt><trkpt lat="39.32747193329662" lon="17.010110627107885"><ele>94.0</ele><time>2026-03-28T16:02:23Z</time></trkpt><trkpt lat="39.327452384664234" lon="17.010192638658502"><ele>94.0</ele><time>2026-03-28T16:02:27Z</time></trkpt><trkpt lat="39.32742354970308" lon="17.01029840211179"><ele>94.0</ele><time>2026-03-28T16:02:31Z</time></trkpt><trkpt lat="39.327369657546924" lon="17.01042318632655"><ele>93.33333333333333</ele><time>2026-03-28T16:02:33Z</time></trkpt><trkpt lat="39.327326040016224" lon="17.010526371496827"><ele>92.66666666666666</ele><time>2026-03-28T16:02:35Z</time></trkpt><trkpt lat="39.32729566639712" lon="17.010665528384756"><ele>92.0</ele><time>2026-03-28T16:02:37Z</time></trkpt><trkpt lat="39.32730591152083" lon="17.010760122201315"><ele>91.33333333333333</ele><time>2026-03-28T16:02:39Z</time></trkpt><trkpt lat="39.32737174669843" lon="17.010834992435587"><ele>90.66666666666667</ele><time>2026-03-28T16:02:42Z</time></trkpt><trkpt lat="39.32744728964858" lon="17.01088053048247"><ele>90.0</ele><time>2026-03-28T16:02:44Z</time></trkpt><trkpt lat="39.3275755805791" lon="17.010977246243144"><ele>90.0</ele><time>2026-03-28T16:02:46Z</time></trkpt><trkpt lat="39.32763491342888" lon="17.011033721509403"><ele>90.0</ele><time>2026-03-28T16:02:47Z</time></trkpt><trkpt lat="39.32772934700448" lon="17.011091495450255"><ele>90.0</ele><time>2026-03-28T16:02:49Z</time></trkpt><trkpt lat="39.32780950978026" lon="17.011157353956154"><ele>90.0</ele><time>2026-03-28T16:02:51Z</time></trkpt><trkpt lat="39.32788991070339" lon="17.011219100408972"><ele>90.0</ele><time>2026-03-28T16:02:53Z</time></trkpt><trkpt lat="39.327969542510765" lon="17.011284594810732"><ele>90.0</ele><time>2026-03-28T16:02:55Z</time></trkpt><trkpt lat="39.32802335557899" lon="17.011371032793438"><ele>90.0</ele><time>2026-03-28T16:02:57Z</time></trkpt><trkpt lat="39.328066362833255" lon="17.01143598614726"><ele>90.0</ele><time>2026-03-28T16:02:59Z</time></trkpt><trkpt lat="39.328101828935544" lon="17.01152976850003"><ele>90.0</ele><time>2026-03-28T16:03:01Z</time></trkpt><trkpt lat="39.328056401912164" lon="17.011644272055978"><ele>90.0</ele><time>2026-03-28T16:03:04Z</time></trkpt><trkpt lat="39.32796785711708" lon="17.011704149994348"><ele>90.0</ele><time>2026-03-28T16:03:06Z</time></trkpt><trkpt lat="39.32789718982016" lon="17.01175797799373"><ele>91.0</ele><time>2026-03-28T16:03:08Z</time></trkpt><trkpt lat="39.32782737478473" lon="17.01179115361236"><ele>92.0</ele><time>2026-03-28T16:03:11Z</time></trkpt><trkpt lat="39.327770979030596" lon="17.01184657785606"><ele>93.0</ele><time>2026-03-28T16:03:14Z</time></trkpt><trkpt lat="39.32772155539467" lon="17.011917397914836"><ele>94.0</ele><time>2026-03-28T16:03:17Z</time></trkpt><trkpt lat="39.327718857732364" lon="17.012016670264384"><ele>95.0</ele><time>2026-03-28T16:03:19Z</time></trkpt><trkpt lat="39.32771321781258" lon="17.012126792371728"><ele>96.0</ele><time>2026-03-28T16:03:21Z</time></trkpt><trkpt lat="39.32770510060632" lon="17.012226002004184"><ele>96.0</ele><time>2026-03-28T16:03:23Z</time></trkpt><trkpt lat="39.32769751260388" lon="17.012344568194724"><ele>96.0</ele><time>2026-03-28T16:03:26Z</time></trkpt><trkpt lat="39.327709834664304" lon="17.012435409258508"><ele>96.0</ele><time>2026-03-28T16:03:28Z</time></trkpt><trkpt lat="39.32772790081962" lon="17.012541986442805"><ele>96.0</ele><time>2026-03-28T16:03:30Z</time></trkpt><trkpt lat="39.32777151988123" lon="17.012643053958076"><ele>96.0</ele><time>2026-03-28T16:03:32Z</time></trkpt><trkpt lat="39.32780071048267" lon="17.012727019979415"><ele>96.0</ele><time>2026-03-28T16:03:34Z</time></trkpt><trkpt lat="39.32786152001713" lon="17.012788697965874"><ele>95.6</ele><time>2026-03-28T16:03:36Z</time></trkpt><trkpt lat="39.327945705864224" lon="17.01279696504958"><ele>95.19999999999999</ele><time>2026-03-28T16:03:39Z</time></trkpt><trkpt lat="39.32805913888805" lon="17.012800146646505"><ele>94.80000000000001</ele><time>2026-03-28T16:03:41Z</time></trkpt><trkpt lat="39.32815812134548" lon="17.01275659887651"><ele>94.4</ele><time>2026-03-28T16:03:43Z</time></trkpt><trkpt lat="39.32824832787803" lon="17.012765937478346"><ele>94.0</ele><time>2026-03-28T16:03:45Z</time></trkpt><trkpt lat="39.32835515321374" lon="17.012725044310052"><ele>93.0</ele><time>2026-03-28T16:03:47Z</time></trkpt><trkpt lat="39.3284359871781" lon="17.01267672511244"><ele>92.0</ele><time>2026-03-28T16:03:49Z</time></trkpt><trkpt lat="39.32850414828515" lon="17.012676674956705"><ele>91.0</ele><time>2026-03-28T16:03:51Z</time></trkpt><trkpt lat="39.32859740832763" lon="17.01268956028671"><ele>90.0</ele><time>2026-03-28T16:03:54Z</time></trkpt><trkpt lat="39.32868599487414" lon="17.012689169983215"><ele>89.0</ele><time>2026-03-28T16:03:56Z</time></trkpt><trkpt lat="39.32877393623401" lon="17.012712400201977"><ele>88.0</ele><time>2026-03-28T16:03:58Z</time></trkpt><trkpt lat="39.3288659712346" lon="17.01274015091284"><ele>88.60000000000001</ele><time>2026-03-28T16:04:00Z</time></trkpt><trkpt lat="39.328992071575094" lon="17.01278371895116"><ele>89.2</ele><time>2026-03-28T16:04:02Z</time></trkpt><trkpt lat="39.32905979921013" lon="17.012817805964637"><ele>89.8</ele><time>2026-03-28T16:04:03Z</time></trkpt><trkpt lat="39.32912775534698" lon="17.01288372927746"><ele>90.4</ele><time>2026-03-28T16:04:05Z</time></trkpt><trkpt lat="39.329123369316704" lon="17.012994121649697"><ele>91.0</ele><time>2026-03-28T16:04:08Z</time></trkpt><trkpt lat="39.32905967337047" lon="17.013099408700167"><ele>91.0</ele><time>2026-03-28T16:04:10Z</time></trkpt><trkpt lat="39.329003709442105" lon="17.013219033058135"><ele>91.0</ele><time>2026-03-28T16:04:12Z</time></trkpt><trkpt lat="39.32896161101438" lon="17.013311325921414"><ele>91.0</ele><time>2026-03-28T16:04:14Z</time></trkpt><trkpt lat="39.32892867931006" lon="17.01339639136"><ele>91.0</ele><time>2026-03-28T16:04:16Z</time></trkpt><trkpt lat="39.328892597137816" lon="17.013510496246955"><ele>91.0</ele><time>2026-03-28T16:04:18Z</time></trkpt><trkpt lat="39.32893245180244" lon="17.013661209768543"><ele>90.4</ele><time>2026-03-28T16:04:20Z</time></trkpt><trkpt lat="39.32896298332363" lon="17.013738286050803"><ele>89.8</ele><time>2026-03-28T16:04:21Z</time></trkpt><trkpt lat="39.32900256987095" lon="17.01387958421126"><ele>89.2</ele><time>2026-03-28T16:04:23Z</time></trkpt><trkpt lat="39.32899304714385" lon="17.01398404427977"><ele>88.60000000000001</ele><time>2026-03-28T16:04:25Z</time></trkpt><trkpt lat="39.32898166026425" lon="17.014098458237726"><ele>88.0</ele><time>2026-03-28T16:04:27Z</time></trkpt><trkpt lat="39.32901616893179" lon="17.01423104017134"><ele>88.0</ele><time>2026-03-28T16:04:29Z</time></trkpt><trkpt lat="39.32905618092513" lon="17.01434762270453"><ele>88.0</ele><time>2026-03-28T16:04:31Z</time></trkpt><trkpt lat="39.32906028131388" lon="17.01444063236455"><ele>88.0</ele><time>2026-03-28T16:04:33Z</time></trkpt><trkpt lat="39.329083218479056" lon="17.01456812632463"><ele>88.0</ele><time>2026-03-28T16:04:35Z</time></trkpt><trkpt lat="39.32910521017021" lon="17.014716488653573"><ele>88.0</ele><time>2026-03-28T16:04:37Z</time></trkpt><trkpt lat="39.32910729976602" lon="17.014848426291124"><ele>88.0</ele><time>2026-03-28T16:04:39Z</time></trkpt><trkpt lat="39.329101416180706" lon="17.01495883082439"><ele>88.0</ele><time>2026-03-28T16:04:41Z</time></trkpt><trkpt lat="39.329100871727874" lon="17.015052628418886"><ele>88.0</ele><time>2026-03-28T16:04:43Z</time></trkpt><trkpt lat="39.329107426089834" lon="17.01514202559021"><ele>88.0</ele><time>2026-03-28T16:04:45Z</time></trkpt><trkpt lat="39.32911812587794" lon="17.015275540613672"><ele>88.0</ele><time>2026-03-28T16:04:47Z</time></trkpt><trkpt lat="39.329140115214784" lon="17.0153987298856"><ele>88.0</ele><time>2026-03-28T16:04:49Z</time></trkpt><trkpt lat="39.32914698726037" lon="17.01551176000035"><ele>86.80000000000001</ele><time>2026-03-28T16:04:51Z</time></trkpt><trkpt lat="39.32916278397472" lon="17.0156067560421"><ele>85.6</ele><time>2026-03-28T16:04:53Z</time></trkpt><trkpt lat="39.32917161031632" lon="17.015725804291225"><ele>84.4</ele><time>2026-03-28T16:04:55Z</time></trkpt><trkpt lat="39.32917921993223" lon="17.015862490154973"><ele>83.19999999999999</ele><time>2026-03-28T16:04:57Z</time></trkpt><trkpt lat="39.32921412705816" lon="17.015988707941474"><ele>82.0</ele><time>2026-03-28T16:04:59Z</time></trkpt><trkpt lat="39.329244153429016" lon="17.01612019735736"><ele>81.8</ele><time>2026-03-28T16:05:01Z</time></trkpt><trkpt lat="39.3292682152109" lon="17.01624145387915"><ele>81.6</ele><time>2026-03-28T16:05:03Z</time></trkpt><trkpt lat="39.32929566929528" lon="17.016362504929575"><ele>81.39999999999999</ele><time>2026-03-28T16:05:05Z</time></trkpt><trkpt lat="39.329360753594806" lon="17.016468539208795"><ele>81.19999999999999</ele><time>2026-03-28T16:05:07Z</time></trkpt><trkpt lat="39.32943532804871" lon="17.016599264430855"><ele>81.0</ele><time>2026-03-28T16:05:09Z</time></trkpt><trkpt lat="39.32947428618705" lon="17.01666849139496"><ele>81.33333333333333</ele><time>2026-03-28T16:05:10Z</time></trkpt><trkpt lat="39.32951724062349" lon="17.016746200987804"><ele>81.66666666666667</ele><time>2026-03-28T16:05:11Z</time></trkpt><trkpt lat="39.329563053969366" lon="17.01682507882129"><ele>82.0</ele><time>2026-03-28T16:05:12Z</time></trkpt><trkpt lat="39.32960800574845" lon="17.01689382782123"><ele>82.33333333333334</ele><time>2026-03-28T16:05:13Z</time></trkpt><trkpt lat="39.32967717659347" lon="17.017012526656863"><ele>82.66666666666667</ele><time>2026-03-28T16:05:15Z</time></trkpt><trkpt lat="39.32973498824997" lon="17.01706894507174"><ele>83.0</ele><time>2026-03-28T16:05:16Z</time></trkpt><trkpt lat="39.3298211108671" lon="17.017141362814023"><ele>82.2</ele><time>2026-03-28T16:05:18Z</time></trkpt><trkpt lat="39.32988956900211" lon="17.01720440708566"><ele>81.4</ele><time>2026-03-28T16:05:19Z</time></trkpt><trkpt lat="39.329960581276914" lon="17.017304523464603"><ele>80.60000000000001</ele><time>2026-03-28T16:05:20Z</time></trkpt><trkpt lat="39.33002392966138" lon="17.01740295393159"><ele>79.80000000000001</ele><time>2026-03-28T16:05:21Z</time></trkpt><trkpt lat="39.330092145131374" lon="17.017498732440917"><ele>79.0</ele><time>2026-03-28T16:05:23Z</time></trkpt><trkpt lat="39.330138563428264" lon="17.017597811538586"><ele>79.0</ele><time>2026-03-28T16:05:25Z</time></trkpt><trkpt lat="39.3301763600323" lon="17.017697865626428"><ele>79.0</ele><time>2026-03-28T16:05:27Z</time></trkpt><trkpt lat="39.330210317402845" lon="17.01782307719121"><ele>79.0</ele><time>2026-03-28T16:05:29Z</time></trkpt><trkpt lat="39.3302263816342" lon="17.017951690490253"><ele>79.0</ele><time>2026-03-28T16:05:31Z</time></trkpt><trkpt lat="39.33027131061696" lon="17.018083681472177"><ele>79.0</ele><time>2026-03-28T16:05:33Z</time></trkpt><trkpt lat="39.33029345134402" lon="17.01821879710521"><ele>78.85714285714286</ele><time>2026-03-28T16:05:35Z</time></trkpt><trkpt lat="39.330299932393174" lon="17.0183595059096"><ele>78.71428571428572</ele><time>2026-03-28T16:05:37Z</time></trkpt><trkpt lat="39.330311757551684" lon="17.018444830458737"><ele>78.57142857142858</ele><time>2026-03-28T16:05:38Z</time></trkpt><trkpt lat="39.33030582715237" lon="17.018531452461716"><ele>78.42857142857143</ele><time>2026-03-28T16:05:39Z</time></trkpt><trkpt lat="39.33030317100713" lon="17.0186223419245"><ele>78.28571428571428</ele><time>2026-03-28T16:05:40Z</time></trkpt><trkpt lat="39.33029237524692" lon="17.018704701469595"><ele>78.14285714285715</ele><time>2026-03-28T16:05:41Z</time></trkpt><trkpt lat="39.3302764904735" lon="17.018785622206018"><ele>78.0</ele><time>2026-03-28T16:05:42Z</time></trkpt><trkpt lat="39.33025591785337" lon="17.01888330166824"><ele>78.0</ele><time>2026-03-28T16:05:44Z</time></trkpt><trkpt lat="39.33022372094388" lon="17.018980020548664"><ele>78.0</ele><time>2026-03-28T16:05:46Z</time></trkpt><trkpt lat="39.330184988609965" lon="17.019081446400435"><ele>78.0</ele><time>2026-03-28T16:05:48Z</time></trkpt><trkpt lat="39.330157944766135" lon="17.019157324706843"><ele>78.0</ele><time>2026-03-28T16:05:49Z</time></trkpt><trkpt lat="39.33011640045241" lon="17.01922669931609"><ele>78.0</ele><time>2026-03-28T16:05:50Z</time></trkpt><trkpt lat="39.330043689336314" lon="17.019319890537933"><ele>78.0</ele><time>2026-03-28T16:05:52Z</time></trkpt><trkpt lat="39.32998027522211" lon="17.019441943796174"><ele>77.16666666666667</ele><time>2026-03-28T16:05:54Z</time></trkpt><trkpt lat="39.32993230847691" lon="17.019537254644593"><ele>76.33333333333333</ele><time>2026-03-28T16:05:55Z</time></trkpt><trkpt lat="39.32988744956897" lon="17.019641125043044"><ele>75.5</ele><time>2026-03-28T16:05:56Z</time></trkpt><trkpt lat="39.32983821066553" lon="17.01974911263842"><ele>74.66666666666666</ele><time>2026-03-28T16:05:57Z</time></trkpt><trkpt lat="39.32979865005125" lon="17.019843921704"><ele>73.83333333333333</ele><time>2026-03-28T16:05:58Z</time></trkpt><trkpt lat="39.32975574503804" lon="17.01993805097728"><ele>73.0</ele><time>2026-03-28T16:05:59Z</time></trkpt><trkpt lat="39.32972404443668" lon="17.0200288187977"><ele>76.2</ele><time>2026-03-28T16:06:00Z</time></trkpt><trkpt lat="39.32970744498099" lon="17.020113960102353"><ele>79.4</ele><time>2026-03-28T16:06:01Z</time></trkpt><trkpt lat="39.32967611220652" lon="17.020259185127895"><ele>82.60000000000001</ele><time>2026-03-28T16:06:03Z</time></trkpt><trkpt lat="39.329642569328094" lon="17.020420171340096"><ele>85.8</ele><time>2026-03-28T16:06:05Z</time></trkpt><trkpt lat="39.329640886001926" lon="17.020550305639098"><ele>89.0</ele><time>2026-03-28T16:06:07Z</time></trkpt><trkpt lat="39.32970704702232" lon="17.020658498514322"><ele>86.16666666666667</ele><time>2026-03-28T16:06:09Z</time></trkpt><trkpt lat="39.329801370927484" lon="17.020752675679997"><ele>83.33333333333334</ele><time>2026-03-28T16:06:11Z</time></trkpt><trkpt lat="39.329864844976626" lon="17.020790896217886"><ele>80.5</ele><time>2026-03-28T16:06:12Z</time></trkpt><trkpt lat="39.329919414726255" lon="17.020852026286715"><ele>77.66666666666667</ele><time>2026-03-28T16:06:13Z</time></trkpt><trkpt lat="39.329964341737856" lon="17.020929396250864"><ele>74.83333333333333</ele><time>2026-03-28T16:06:14Z</time></trkpt><trkpt lat="39.32999195318711" lon="17.02103481645931"><ele>72.0</ele><time>2026-03-28T16:06:15Z</time></trkpt><trkpt lat="39.33002782157481" lon="17.021168655098098"><ele>72.0</ele><time>2026-03-28T16:06:16Z</time></trkpt><trkpt lat="39.330038816685004" lon="17.02130435138453"><ele>72.0</ele><time>2026-03-28T16:06:17Z</time></trkpt><trkpt lat="39.33001560344194" lon="17.021414676582076"><ele>72.0</ele><time>2026-03-28T16:06:18Z</time></trkpt><trkpt lat="39.329994523661426" lon="17.0215408395664"><ele>72.0</ele><time>2026-03-28T16:06:19Z</time></trkpt><trkpt lat="39.32996928539037" lon="17.02168916707271"><ele>72.0</ele><time>2026-03-28T16:06:20Z</time></trkpt><trkpt lat="39.32994055579736" lon="17.02182772962939"><ele>71.6</ele><time>2026-03-28T16:06:21Z</time></trkpt><trkpt lat="39.32991640776079" lon="17.02192586263743"><ele>71.2</ele><time>2026-03-28T16:06:22Z</time></trkpt><trkpt lat="39.32987588069184" lon="17.022072894419225"><ele>70.8</ele><time>2026-03-28T16:06:24Z</time></trkpt><trkpt lat="39.32994755719025" lon="17.022235914537415"><ele>70.4</ele><time>2026-03-28T16:06:26Z</time></trkpt><trkpt lat="39.33000726464994" lon="17.02230577883669"><ele>70.0</ele><time>2026-03-28T16:06:27Z</time></trkpt><trkpt lat="39.330057718237995" lon="17.02244070493031"><ele>71.0</ele><time>2026-03-28T16:06:29Z</time></trkpt><trkpt lat="39.330139931508484" lon="17.022506483125095"><ele>72.0</ele><time>2026-03-28T16:06:30Z</time></trkpt><trkpt lat="39.33022459955037" lon="17.022543858579713"><ele>73.0</ele><time>2026-03-28T16:06:31Z</time></trkpt><trkpt lat="39.33028420941747" lon="17.02258700255465"><ele>74.0</ele><time>2026-03-28T16:06:32Z</time></trkpt><trkpt lat="39.330357811432144" lon="17.022633280131036"><ele>75.0</ele><time>2026-03-28T16:06:33Z</time></trkpt><trkpt lat="39.330449477304256" lon="17.02269435794167"><ele>76.0</ele><time>2026-03-28T16:06:34Z</time></trkpt><trkpt lat="39.33051553758998" lon="17.022754892845143"><ele>75.16666666666666</ele><time>2026-03-28T16:06:35Z</time></trkpt><trkpt lat="39.330577004596286" lon="17.022816890631766"><ele>74.33333333333333</ele><time>2026-03-28T16:06:36Z</time></trkpt><trkpt lat="39.33063291806219" lon="17.02285740254998"><ele>73.5</ele><time>2026-03-28T16:06:37Z</time></trkpt><trkpt lat="39.33073956711294" lon="17.022951238611526"><ele>72.66666666666667</ele><time>2026-03-28T16:06:39Z</time></trkpt><trkpt lat="39.33079673879415" lon="17.02301300006788"><ele>71.83333333333334</ele><time>2026-03-28T16:06:40Z</time></trkpt><trkpt lat="39.3308750101222" lon="17.023070991936226"><ele>71.0</ele><time>2026-03-28T16:06:41Z</time></trkpt><trkpt lat="39.33092138179257" lon="17.023133830774018"><ele>71.0</ele><time>2026-03-28T16:06:42Z</time></trkpt><trkpt lat="39.3310110395452" lon="17.023237727011033"><ele>71.0</ele><time>2026-03-28T16:06:44Z</time></trkpt><trkpt lat="39.33111400633124" lon="17.023330458737867"><ele>71.0</ele><time>2026-03-28T16:06:46Z</time></trkpt><trkpt lat="39.33117352431727" lon="17.023371689519184"><ele>71.0</ele><time>2026-03-28T16:06:47Z</time></trkpt><trkpt lat="39.33124548646092" lon="17.023414515513664"><ele>71.0</ele><time>2026-03-28T16:06:48Z</time></trkpt><trkpt lat="39.33134218179821" lon="17.023483594872683"><ele>72.0</ele><time>2026-03-28T16:06:49Z</time></trkpt><trkpt lat="39.331430270147706" lon="17.023535273660396"><ele>73.0</ele><time>2026-03-28T16:06:50Z</time></trkpt><trkpt lat="39.33149441792053" lon="17.02357134924981"><ele>74.0</ele><time>2026-03-28T16:06:51Z</time></trkpt><trkpt lat="39.33155264661684" lon="17.023611428204966"><ele>75.0</ele><time>2026-03-28T16:06:52Z</time></trkpt><trkpt lat="39.3316165438427" lon="17.023662017775923"><ele>76.0</ele><time>2026-03-28T16:06:53Z</time></trkpt><trkpt lat="39.331681855267696" lon="17.023701927605533"><ele>77.0</ele><time>2026-03-28T16:06:54Z</time></trkpt><trkpt lat="39.33173942936497" lon="17.023740551898353"><ele>78.0</ele><time>2026-03-28T16:06:55Z</time></trkpt><trkpt lat="39.33183332453503" lon="17.023847427583757"><ele>78.0</ele><time>2026-03-28T16:06:57Z</time></trkpt><trkpt lat="39.331906827958825" lon="17.02394323530921"><ele>78.0</ele><time>2026-03-28T16:06:59Z</time></trkpt><trkpt lat="39.33194184729523" lon="17.024041880551952"><ele>78.0</ele><time>2026-03-28T16:07:01Z</time></trkpt><trkpt lat="39.331954871954906" lon="17.024165919870537"><ele>78.0</ele><time>2026-03-28T16:07:03Z</time></trkpt><trkpt lat="39.33193876287525" lon="17.02430694001061"><ele>78.0</ele><time>2026-03-28T16:07:05Z</time></trkpt><trkpt lat="39.3318929053732" lon="17.02438903025245"><ele>76.66666666666667</ele><time>2026-03-28T16:07:06Z</time></trkpt><trkpt lat="39.33181112954122" lon="17.024443014561218"><ele>75.33333333333333</ele><time>2026-03-28T16:07:07Z</time></trkpt><trkpt lat="39.33175627709732" lon="17.024483680400603"><ele>74.0</ele><time>2026-03-28T16:07:08Z</time></trkpt><trkpt lat="39.331702755715824" lon="17.0245451065365"><ele>72.66666666666666</ele><time>2026-03-28T16:07:09Z</time></trkpt><trkpt lat="39.33164491203289" lon="17.02459810266516"><ele>71.33333333333333</ele><time>2026-03-28T16:07:10Z</time></trkpt><trkpt lat="39.33157633663518" lon="17.024652254644266"><ele>70.0</ele><time>2026-03-28T16:07:11Z</time></trkpt><trkpt lat="39.33149445643" lon="17.024690088776477"><ele>70.0</ele><time>2026-03-28T16:07:12Z</time></trkpt><trkpt lat="39.33141751504235" lon="17.024707866905718"><ele>70.0</ele><time>2026-03-28T16:07:13Z</time></trkpt><trkpt lat="39.33134348984829" lon="17.024736744775737"><ele>70.0</ele><time>2026-03-28T16:07:14Z</time></trkpt><trkpt lat="39.331278990930855" lon="17.024763961227915"><ele>70.0</ele><time>2026-03-28T16:07:15Z</time></trkpt><trkpt lat="39.33117519596711" lon="17.024828983513522"><ele>70.0</ele><time>2026-03-28T16:07:17Z</time></trkpt><trkpt lat="39.331096112815395" lon="17.024898947534716"><ele>70.0</ele><time>2026-03-28T16:07:19Z</time></trkpt><trkpt lat="39.33102911817198" lon="17.02494926206944"><ele>68.8</ele><time>2026-03-28T16:07:21Z</time></trkpt><trkpt lat="39.33094300370059" lon="17.025005931518795"><ele>67.6</ele><time>2026-03-28T16:07:23Z</time></trkpt><trkpt lat="39.330885363202476" lon="17.02510500777693"><ele>66.4</ele><time>2026-03-28T16:07:25Z</time></trkpt><trkpt lat="39.33085931592701" lon="17.025260996523375"><ele>65.2</ele><time>2026-03-28T16:07:27Z</time></trkpt><trkpt lat="39.33086482956251" lon="17.02539648713326"><ele>64.0</ele><time>2026-03-28T16:07:29Z</time></trkpt><trkpt lat="39.330886295576036" lon="17.025522544897143"><ele>64.0</ele><time>2026-03-28T16:07:31Z</time></trkpt><trkpt lat="39.33092965002406" lon="17.025605310895116"><ele>64.0</ele><time>2026-03-28T16:07:33Z</time></trkpt><trkpt lat="39.33100334287695" lon="17.025660833463828"><ele>64.0</ele><time>2026-03-28T16:07:35Z</time></trkpt><trkpt lat="39.33109427804712" lon="17.025720665358183"><ele>64.0</ele><time>2026-03-28T16:07:37Z</time></trkpt><trkpt lat="39.33116633840651" lon="17.02576802612365"><ele>64.0</ele><time>2026-03-28T16:07:39Z</time></trkpt><trkpt lat="39.33120407263219" lon="17.02591787245771"><ele>63.400000000000006</ele><time>2026-03-28T16:07:41Z</time></trkpt><trkpt lat="39.331229603158924" lon="17.026013269945317"><ele>62.800000000000004</ele><time>2026-03-28T16:07:42Z</time></trkpt><trkpt lat="39.33124042921359" lon="17.02611970684564"><ele>62.199999999999996</ele><time>2026-03-28T16:07:43Z</time></trkpt><trkpt lat="39.33124272490682" lon="17.026234987506825"><ele>61.599999999999994</ele><time>2026-03-28T16:07:44Z</time></trkpt><trkpt lat="39.3312381900776" lon="17.02636148334684"><ele>61.0</ele><time>2026-03-28T16:07:45Z</time></trkpt><trkpt lat="39.33123879050615" lon="17.026497308293976"><ele>60.99999999999999</ele><time>2026-03-28T16:07:46Z</time></trkpt><trkpt lat="39.331246461942044" lon="17.02660233901656"><ele>61.0</ele><time>2026-03-28T16:07:47Z</time></trkpt><trkpt lat="39.33121002287317" lon="17.026726212960728"><ele>61.0</ele><time>2026-03-28T16:07:49Z</time></trkpt><trkpt lat="39.33118314908813" lon="17.026852844446005"><ele>61.0</ele><time>2026-03-28T16:07:51Z</time></trkpt><trkpt lat="39.33116981350831" lon="17.026942974621043"><ele>60.99999999999999</ele><time>2026-03-28T16:07:53Z</time></trkpt><trkpt lat="39.33115754723253" lon="17.027053866491098"><ele>61.0</ele><time>2026-03-28T16:07:56Z</time></trkpt><trkpt lat="39.331148263117036" lon="17.027155602612442"><ele>60.99999999999999</ele><time>2026-03-28T16:07:59Z</time></trkpt><trkpt lat="39.33114289624611" lon="17.027239407267782"><ele>61.0</ele><time>2026-03-28T16:08:02Z</time></trkpt><trkpt lat="39.331141657431864" lon="17.027386838758208"><ele>61.0</ele><time>2026-03-28T16:08:04Z</time></trkpt><trkpt lat="39.33113438913941" lon="17.027538714872083"><ele>61.0</ele><time>2026-03-28T16:08:06Z</time></trkpt><trkpt lat="39.33113637414426" lon="17.027620087516606"><ele>60.99999999999999</ele><time>2026-03-28T16:08:07Z</time></trkpt><trkpt lat="39.33114482375242" lon="17.027703885151478"><ele>61.0</ele><time>2026-03-28T16:08:08Z</time></trkpt><trkpt lat="39.33117663067429" lon="17.027785177714428"><ele>60.99999999999999</ele><time>2026-03-28T16:08:09Z</time></trkpt><trkpt lat="39.33122560157536" lon="17.027864265578675"><ele>61.0</ele><time>2026-03-28T16:08:10Z</time></trkpt><trkpt lat="39.331269054304805" lon="17.0279328374906"><ele>60.99999999999999</ele><time>2026-03-28T16:08:11Z</time></trkpt><trkpt lat="39.331329800208714" lon="17.027974343762526"><ele>60.99999999999999</ele><time>2026-03-28T16:08:12Z</time></trkpt><trkpt lat="39.33141053615363" lon="17.02799612183557"><ele>61.0</ele><time>2026-03-28T16:08:13Z</time></trkpt><trkpt lat="39.33148480549337" lon="17.02798502864585"><ele>60.99999999999999</ele><time>2026-03-28T16:08:14Z</time></trkpt><trkpt lat="39.331557066328834" lon="17.027989999333624"><ele>60.99999999999999</ele><time>2026-03-28T16:08:15Z</time></trkpt><trkpt lat="39.33162923770083" lon="17.028005106774454"><ele>60.99999999999999</ele><time>2026-03-28T16:08:16Z</time></trkpt><trkpt lat="39.33169507333802" lon="17.028024750546788"><ele>61.0</ele><time>2026-03-28T16:08:17Z</time></trkpt><trkpt lat="39.33176898745917" lon="17.028019220986376"><ele>61.0</ele><time>2026-03-28T16:08:18Z</time></trkpt><trkpt lat="39.331835514817314" lon="17.02806053177015"><ele>61.0</ele><time>2026-03-28T16:08:19Z</time></trkpt><trkpt lat="39.331921005512385" lon="17.028107724404045"><ele>60.99999999999999</ele><time>2026-03-28T16:08:21Z</time></trkpt><trkpt lat="39.33197659271815" lon="17.02817121257019"><ele>61.0</ele><time>2026-03-28T16:08:38Z</time></trkpt><trkpt lat="39.33203655011622" lon="17.02825922719546"><ele>60.49999999999999</ele><time>2026-03-28T16:08:41Z</time></trkpt><trkpt lat="39.33209593237818" lon="17.02835119374113"><ele>60.0</ele><time>2026-03-28T16:08:43Z</time></trkpt><trkpt lat="39.332155760341045" lon="17.028444383603475"><ele>59.5</ele><time>2026-03-28T16:08:45Z</time></trkpt><trkpt lat="39.33222539201643" lon="17.02854766802132"><ele>59.0</ele><time>2026-03-28T16:08:47Z</time></trkpt><trkpt lat="39.33225520418642" lon="17.02862583198754"><ele>58.49999999999999</ele><time>2026-03-28T16:08:48Z</time></trkpt><trkpt lat="39.33226270191802" lon="17.028722648239977"><ele>58.0</ele><time>2026-03-28T16:08:49Z</time></trkpt><trkpt lat="39.33227168571779" lon="17.028827637582992"><ele>58.666666666666664</ele><time>2026-03-28T16:08:50Z</time></trkpt><trkpt lat="39.332268621146724" lon="17.028930751680974"><ele>59.33333333333333</ele><time>2026-03-28T16:08:51Z</time></trkpt><trkpt lat="39.3322552260697" lon="17.029030102840984"><ele>60.0</ele><time>2026-03-28T16:08:52Z</time></trkpt><trkpt lat="39.33225259181919" lon="17.029128593554276"><ele>60.66666666666667</ele><time>2026-03-28T16:08:53Z</time></trkpt><trkpt lat="39.33227588867399" lon="17.029229953786434"><ele>61.333333333333336</ele><time>2026-03-28T16:08:54Z</time></trkpt><trkpt lat="39.332302507792846" lon="17.029338194016365"><ele>62.0</ele><time>2026-03-28T16:08:55Z</time></trkpt><trkpt lat="39.332326627490524" lon="17.02945169068547"><ele>62.00000000000001</ele><time>2026-03-28T16:08:56Z</time></trkpt><trkpt lat="39.33236673614531" lon="17.029556176325613"><ele>62.0</ele><time>2026-03-28T16:08:57Z</time></trkpt><trkpt lat="39.33241284344379" lon="17.02966051416748"><ele>62.0</ele><time>2026-03-28T16:08:58Z</time></trkpt><trkpt lat="39.33245543524093" lon="17.029759208675653"><ele>62.0</ele><time>2026-03-28T16:08:59Z</time></trkpt><trkpt lat="39.332505490172366" lon="17.029831176936018"><ele>62.00000000000001</ele><time>2026-03-28T16:09:00Z</time></trkpt><trkpt lat="39.33255286308448" lon="17.029890060425185"><ele>62.0</ele><time>2026-03-28T16:09:01Z</time></trkpt><trkpt lat="39.33261823660729" lon="17.02996073181101"><ele>62.0</ele><time>2026-03-28T16:09:03Z</time></trkpt><trkpt lat="39.33269258278044" lon="17.029959829374814"><ele>62.0</ele><time>2026-03-28T16:09:07Z</time></trkpt><trkpt lat="39.33278312028442" lon="17.029958107491584"><ele>62.0</ele><time>2026-03-28T16:09:10Z</time></trkpt><trkpt lat="39.33282522478661" lon="17.03004351448701"><ele>62.0</ele><time>2026-03-28T16:09:11Z</time></trkpt><trkpt lat="39.332876111322186" lon="17.030180549455782"><ele>62.0</ele><time>2026-03-28T16:09:12Z</time></trkpt><trkpt lat="39.33294245411007" lon="17.030308797057053"><ele>61.00000000000001</ele><time>2026-03-28T16:09:13Z</time></trkpt><trkpt lat="39.33300553811307" lon="17.03040586799199"><ele>60.0</ele><time>2026-03-28T16:09:14Z</time></trkpt><trkpt lat="39.33305342030668" lon="17.030480757605783"><ele>59.0</ele><time>2026-03-28T16:09:15Z</time></trkpt><trkpt lat="39.3330995739185" lon="17.030542001334545"><ele>58.0</ele><time>2026-03-28T16:09:16Z</time></trkpt><trkpt lat="39.33315581368455" lon="17.030595338247"><ele>57.00000000000001</ele><time>2026-03-28T16:09:17Z</time></trkpt><trkpt lat="39.33322908568263" lon="17.03065964054993"><ele>56.0</ele><time>2026-03-28T16:09:18Z</time></trkpt><trkpt lat="39.333310636381476" lon="17.030739582335176"><ele>55.16666666666667</ele><time>2026-03-28T16:09:19Z</time></trkpt><trkpt lat="39.33339003940187" lon="17.030817195915464"><ele>54.333333333333336</ele><time>2026-03-28T16:09:20Z</time></trkpt><trkpt lat="39.33346326840495" lon="17.03085086120467"><ele>53.5</ele><time>2026-03-28T16:09:21Z</time></trkpt><trkpt lat="39.33352565572128" lon="17.0309051840662"><ele>52.66666666666667</ele><time>2026-03-28T16:09:22Z</time></trkpt><trkpt lat="39.33357870049475" lon="17.03097061353652"><ele>51.833333333333336</ele><time>2026-03-28T16:09:23Z</time></trkpt><trkpt lat="39.33365613491011" lon="17.031017011663952"><ele>51.0</ele><time>2026-03-28T16:09:24Z</time></trkpt><trkpt lat="39.333725120077105" lon="17.03102375042362"><ele>51.0</ele><time>2026-03-28T16:09:25Z</time></trkpt><trkpt lat="39.33379929210404" lon="17.03105653576311"><ele>51.0</ele><time>2026-03-28T16:09:27Z</time></trkpt><trkpt lat="39.33386701890714" lon="17.031078372734687"><ele>51.0</ele><time>2026-03-28T16:09:29Z</time></trkpt><trkpt lat="39.333936287841574" lon="17.03111062122378"><ele>51.0</ele><time>2026-03-28T16:09:31Z</time></trkpt><trkpt lat="39.33401249257153" lon="17.031142434786066"><ele>51.0</ele><time>2026-03-28T16:09:33Z</time></trkpt><trkpt lat="39.3340918853791" lon="17.031178975664076"><ele>51.0</ele><time>2026-03-28T16:09:35Z</time></trkpt><trkpt lat="39.33418192429495" lon="17.03123435046131"><ele>51.0</ele><time>2026-03-28T16:09:37Z</time></trkpt><trkpt lat="39.33425636262627" lon="17.031344247041364"><ele>51.0</ele><time>2026-03-28T16:09:39Z</time></trkpt><trkpt lat="39.334338423266985" lon="17.031449485840753"><ele>51.0</ele><time>2026-03-28T16:09:41Z</time></trkpt><trkpt lat="39.33443797363791" lon="17.031518317368658"><ele>51.0</ele><time>2026-03-28T16:09:43Z</time></trkpt><trkpt lat="39.33450374693189" lon="17.031603948169963"><ele>51.0</ele><time>2026-03-28T16:09:45Z</time></trkpt><trkpt lat="39.334561561269126" lon="17.031702849694216"><ele>51.0</ele><time>2026-03-28T16:09:47Z</time></trkpt><trkpt lat="39.33462150935745" lon="17.031839880064453"><ele>51.0</ele><time>2026-03-28T16:09:49Z</time></trkpt><trkpt lat="39.33469546412575" lon="17.031938308002"><ele>51.0</ele><time>2026-03-28T16:09:51Z</time></trkpt><trkpt lat="39.334748194685176" lon="17.032045549734683"><ele>51.0</ele><time>2026-03-28T16:09:53Z</time></trkpt><trkpt lat="39.334792833428914" lon="17.032150022263437"><ele>51.0</ele><time>2026-03-28T16:09:55Z</time></trkpt><trkpt lat="39.33484131110221" lon="17.032259841785496"><ele>51.0</ele><time>2026-03-28T16:09:57Z</time></trkpt><trkpt lat="39.3348885029298" lon="17.032372737896498"><ele>51.0</ele><time>2026-03-28T16:09:59Z</time></trkpt><trkpt lat="39.334975379333294" lon="17.032488954524094"><ele>51.0</ele><time>2026-03-28T16:10:01Z</time></trkpt><trkpt lat="39.335048258243916" lon="17.032529200788083"><ele>51.0</ele><time>2026-03-28T16:10:02Z</time></trkpt><trkpt lat="39.3351375701844" lon="17.032600066990376"><ele>51.0</ele><time>2026-03-28T16:10:04Z</time></trkpt><trkpt lat="39.33519803342009" lon="17.032668944711727"><ele>51.0</ele><time>2026-03-28T16:10:06Z</time></trkpt><trkpt lat="39.33531153650147" lon="17.032706816286062"><ele>51.0</ele><time>2026-03-28T16:10:08Z</time></trkpt><trkpt lat="39.33537679540487" lon="17.03273077564417"><ele>51.0</ele><time>2026-03-28T16:10:09Z</time></trkpt><trkpt lat="39.335442123887894" lon="17.032761385591762"><ele>51.0</ele><time>2026-03-28T16:10:10Z</time></trkpt><trkpt lat="39.33550177234053" lon="17.032790682952424"><ele>51.0</ele><time>2026-03-28T16:10:11Z</time></trkpt><trkpt lat="39.33555853879228" lon="17.03283215333858"><ele>51.0</ele><time>2026-03-28T16:10:12Z</time></trkpt><trkpt lat="39.33564015894284" lon="17.032903436632534"><ele>51.0</ele><time>2026-03-28T16:10:14Z</time></trkpt><trkpt lat="39.33570833912367" lon="17.032973086674097"><ele>51.0</ele><time>2026-03-28T16:10:25Z</time></trkpt><trkpt lat="39.33582359884512" lon="17.03306892443153"><ele>51.0</ele><time>2026-03-28T16:10:27Z</time></trkpt><trkpt lat="39.33588221511661" lon="17.033144218181366"><ele>51.0</ele><time>2026-03-28T16:10:28Z</time></trkpt><trkpt lat="39.335932052792145" lon="17.033225332645628"><ele>51.0</ele><time>2026-03-28T16:10:29Z</time></trkpt><trkpt lat="39.33599509448981" lon="17.03326425468349"><ele>50.666666666666664</ele><time>2026-03-28T16:10:30Z</time></trkpt><trkpt lat="39.335991725451635" lon="17.03337923696237"><ele>50.33333333333333</ele><time>2026-03-28T16:10:31Z</time></trkpt><trkpt lat="39.335970300468" lon="17.033495864682294"><ele>50.0</ele><time>2026-03-28T16:10:32Z</time></trkpt><trkpt lat="39.335956733602096" lon="17.033602329416798"><ele>49.666666666666664</ele><time>2026-03-28T16:10:34Z</time></trkpt><trkpt lat="39.33592437671521" lon="17.033678269682575"><ele>49.33333333333333</ele><time>2026-03-28T16:10:37Z</time></trkpt><trkpt lat="39.335955393565115" lon="17.03381340061494"><ele>49.0</ele><time>2026-03-28T16:10:40Z</time></trkpt><trkpt lat="39.3358989041273" lon="17.033895438732166"><ele>48.99999999999999</ele><time>2026-03-28T16:10:42Z</time></trkpt><trkpt lat="39.335863751412255" lon="17.033975859327853"><ele>49.0</ele><time>2026-03-28T16:10:44Z</time></trkpt><trkpt lat="39.335853207891006" lon="17.034057772910657"><ele>49.0</ele><time>2026-03-28T16:10:45Z</time></trkpt><trkpt lat="39.335825413962205" lon="17.03418533326371"><ele>49.0</ele><time>2026-03-28T16:10:47Z</time></trkpt><trkpt lat="39.335796770467795" lon="17.03429628338989"><ele>48.99999999999999</ele><time>2026-03-28T16:10:49Z</time></trkpt><trkpt lat="39.33579307301208" lon="17.03443362671478"><ele>49.0</ele><time>2026-03-28T16:10:51Z</time></trkpt><trkpt lat="39.33578530611416" lon="17.03454021668983"><ele>48.75</ele><time>2026-03-28T16:10:52Z</time></trkpt><trkpt lat="39.33580541851559" lon="17.034672095440705"><ele>48.5</ele><time>2026-03-28T16:10:53Z</time></trkpt><trkpt lat="39.3358707730787" lon="17.034824034906006"><ele>48.25</ele><time>2026-03-28T16:10:54Z</time></trkpt><trkpt lat="39.3358955213399" lon="17.035000952933835"><ele>48.0</ele><time>2026-03-28T16:10:55Z</time></trkpt><trkpt lat="39.33589253271611" lon="17.035152635998806"><ele>48.4</ele><time>2026-03-28T16:10:56Z</time></trkpt><trkpt lat="39.33588424949357" lon="17.035310550608514"><ele>48.8</ele><time>2026-03-28T16:10:57Z</time></trkpt><trkpt lat="39.335875572931066" lon="17.03543191426867"><ele>49.2</ele><time>2026-03-28T16:10:58Z</time></trkpt><trkpt lat="39.335863775119954" lon="17.035560838741247"><ele>49.6</ele><time>2026-03-28T16:11:00Z</time></trkpt><trkpt lat="39.335854201493895" lon="17.035653139464227"><ele>50.0</ele><time>2026-03-28T16:11:03Z</time></trkpt><trkpt lat="39.335852944917065" lon="17.0357905341397"><ele>50.00000000000001</ele><time>2026-03-28T16:11:05Z</time></trkpt><trkpt lat="39.33585224569462" lon="17.035873001216522"><ele>50.0</ele><time>2026-03-28T16:11:07Z</time></trkpt><trkpt lat="39.3358425207364" lon="17.03595478643168"><ele>50.0</ele><time>2026-03-28T16:11:09Z</time></trkpt><trkpt lat="39.335840259949215" lon="17.03604473575075"><ele>50.0</ele><time>2026-03-28T16:11:11Z</time></trkpt><trkpt lat="39.33582413718048" lon="17.036181734013386"><ele>50.00000000000001</ele><time>2026-03-28T16:11:13Z</time></trkpt><trkpt lat="39.33581495727522" lon="17.03628725841857"><ele>50.0</ele><time>2026-03-28T16:11:14Z</time></trkpt><trkpt lat="39.33577650774456" lon="17.036412869317076"><ele>50.0</ele><time>2026-03-28T16:11:16Z</time></trkpt><trkpt lat="39.335774416385156" lon="17.036551727548595"><ele>50.0</ele><time>2026-03-28T16:11:18Z</time></trkpt><trkpt lat="39.33576261723014" lon="17.03669939474949"><ele>50.0</ele><time>2026-03-28T16:11:20.001Z</time></trkpt><trkpt lat="39.335739169052" lon="17.036835284722347"><ele>50.0</ele><time>2026-03-28T16:11:22.001Z</time></trkpt><trkpt lat="39.3357388672807" lon="17.036980064642123"><ele>50.0</ele><time>2026-03-28T16:11:24.001Z</time></trkpt><trkpt lat="39.335760869707805" lon="17.037139596617276"><ele>49.66666666666667</ele><time>2026-03-28T16:11:26.001Z</time></trkpt><trkpt lat="39.335774072442035" lon="17.037221064473666"><ele>49.333333333333336</ele><time>2026-03-28T16:11:27.001Z</time></trkpt><trkpt lat="39.335782787743284" lon="17.037302119670333"><ele>49.0</ele><time>2026-03-28T16:11:28.001Z</time></trkpt><trkpt lat="39.335791747091264" lon="17.03745844028224"><ele>48.66666666666667</ele><time>2026-03-28T16:11:30.001Z</time></trkpt><trkpt lat="39.335795921812114" lon="17.037631900802268"><ele>48.333333333333336</ele><time>2026-03-28T16:11:32.001Z</time></trkpt><trkpt lat="39.33580046452699" lon="17.037714381035464"><ele>48.0</ele><time>2026-03-28T16:11:33.001Z</time></trkpt><trkpt lat="39.33580530083668" lon="17.037800796685644"><ele>47.833333333333336</ele><time>2026-03-28T16:11:34.001Z</time></trkpt><trkpt lat="39.33581467820839" lon="17.037883717516177"><ele>47.666666666666664</ele><time>2026-03-28T16:11:35.001Z</time></trkpt><trkpt lat="39.335822645749566" lon="17.03797393542426"><ele>47.5</ele><time>2026-03-28T16:11:36.001Z</time></trkpt><trkpt lat="39.33583619738531" lon="17.038057345317487"><ele>47.33333333333333</ele><time>2026-03-28T16:11:37.001Z</time></trkpt><trkpt lat="39.33586349990137" lon="17.038223274947693"><ele>47.166666666666664</ele><time>2026-03-28T16:11:39.001Z</time></trkpt><trkpt lat="39.3358730649742" lon="17.038310186717396"><ele>47.0</ele><time>2026-03-28T16:11:40.001Z</time></trkpt><trkpt lat="39.335882840065345" lon="17.038475278785363"><ele>46.6</ele><time>2026-03-28T16:11:42.001Z</time></trkpt><trkpt lat="39.335883875453966" lon="17.03863918490959"><ele>46.2</ele><time>2026-03-28T16:11:44.001Z</time></trkpt><trkpt lat="39.33587430899228" lon="17.038726076518763"><ele>45.8</ele><time>2026-03-28T16:11:45.001Z</time></trkpt><trkpt lat="39.33586388479502" lon="17.03881603121224"><ele>45.4</ele><time>2026-03-28T16:11:46.001Z</time></trkpt><trkpt lat="39.33584338257188" lon="17.03893316510314"><ele>45.0</ele><time>2026-03-28T16:11:47.001Z</time></trkpt><trkpt lat="39.33581798632226" lon="17.039089167444953"><ele>45.25</ele><time>2026-03-28T16:11:48.001Z</time></trkpt><trkpt lat="39.33578219048596" lon="17.039260562907778"><ele>45.5</ele><time>2026-03-28T16:11:49.001Z</time></trkpt><trkpt lat="39.335748043851304" lon="17.039448611932833"><ele>45.75</ele><time>2026-03-28T16:11:50.001Z</time></trkpt><trkpt lat="39.33572668926235" lon="17.03965439852722"><ele>46.0</ele><time>2026-03-28T16:11:51.001Z</time></trkpt><trkpt lat="39.33569686424364" lon="17.039853420183423"><ele>45.8</ele><time>2026-03-28T16:11:52.001Z</time></trkpt><trkpt lat="39.33567475419766" lon="17.03999206993988"><ele>45.599999999999994</ele><time>2026-03-28T16:11:53.001Z</time></trkpt><trkpt lat="39.33566173714377" lon="17.040082692021006"><ele>45.4</ele><time>2026-03-28T16:11:54.001Z</time></trkpt><trkpt lat="39.33570382504032" lon="17.04021924746586"><ele>45.2</ele><time>2026-03-28T16:11:56.001Z</time></trkpt><trkpt lat="39.3356609783551" lon="17.040401175360707"><ele>45.0</ele><time>2026-03-28T16:11:59.001Z</time></trkpt><trkpt lat="39.33561787344583" lon="17.040520691238687"><ele>45.0</ele><time>2026-03-28T16:12:00.001Z</time></trkpt><trkpt lat="39.33559605920953" lon="17.04062685003522"><ele>45.0</ele><time>2026-03-28T16:12:01.001Z</time></trkpt><trkpt lat="39.33555460623221" lon="17.040735735871163"><ele>45.0</ele><time>2026-03-28T16:12:02.001Z</time></trkpt><trkpt lat="39.3355178593046" lon="17.04083080886449"><ele>45.0</ele><time>2026-03-28T16:12:03.001Z</time></trkpt><trkpt lat="39.33547989184683" lon="17.040924053017644"><ele>45.0</ele><time>2026-03-28T16:12:04Z</time></trkpt><trkpt lat="39.33546010706699" lon="17.04102321173515"><ele>45.0</ele><time>2026-03-28T16:12:05Z</time></trkpt><trkpt lat="39.335456185151116" lon="17.041121705090813"><ele>45.6</ele><time>2026-03-28T16:12:06Z</time></trkpt><trkpt lat="39.33547934929533" lon="17.041220604047815"><ele>46.2</ele><time>2026-03-28T16:12:07Z</time></trkpt><trkpt lat="39.33554059001194" lon="17.041312269619645"><ele>46.8</ele><time>2026-03-28T16:12:08Z</time></trkpt><trkpt lat="39.33564212759358" lon="17.041372400090637"><ele>47.4</ele><time>2026-03-28T16:12:09Z</time></trkpt><trkpt lat="39.3357623877967" lon="17.041408298047955"><ele>48.0</ele><time>2026-03-28T16:12:10Z</time></trkpt><trkpt lat="39.33589303076992" lon="17.041428179779224"><ele>46.8</ele><time>2026-03-28T16:12:11Z</time></trkpt><trkpt lat="39.33599694459451" lon="17.0414623624133"><ele>45.599999999999994</ele><time>2026-03-28T16:12:12Z</time></trkpt><trkpt lat="39.33608793736215" lon="17.04145793463666"><ele>44.400000000000006</ele><time>2026-03-28T16:12:13Z</time></trkpt><trkpt lat="39.336194038513824" lon="17.04146000721443"><ele>43.2</ele><time>2026-03-28T16:12:14Z</time></trkpt><trkpt lat="39.33630014775205" lon="17.041447463130417"><ele>42.0</ele><time>2026-03-28T16:12:15Z</time></trkpt><trkpt lat="39.33639457086938" lon="17.04143307931667"><ele>42.0</ele><time>2026-03-28T16:12:16Z</time></trkpt><trkpt lat="39.33648221870157" lon="17.041403321504067"><ele>42.0</ele><time>2026-03-28T16:12:17Z</time></trkpt><trkpt lat="39.336555528378284" lon="17.04141180834236"><ele>42.0</ele><time>2026-03-28T16:12:18Z</time></trkpt><trkpt lat="39.33665109391336" lon="17.0414800145758"><ele>42.0</ele><time>2026-03-28T16:12:20Z</time></trkpt><trkpt lat="39.33666697957086" lon="17.041563057074395"><ele>42.0</ele><time>2026-03-28T16:12:22Z</time></trkpt><trkpt lat="39.33670662627741" lon="17.04165705753806"><ele>42.0</ele><time>2026-03-28T16:12:25Z</time></trkpt><trkpt lat="39.33674721033663" lon="17.04176454232564"><ele>42.0</ele><time>2026-03-28T16:12:27Z</time></trkpt><trkpt lat="39.336775359157784" lon="17.04185469814246"><ele>42.0</ele><time>2026-03-28T16:12:28Z</time></trkpt><trkpt lat="39.33679349044447" lon="17.041981691266855"><ele>42.0</ele><time>2026-03-28T16:12:29Z</time></trkpt><trkpt lat="39.33682562609014" lon="17.042119368828683"><ele>42.0</ele><time>2026-03-28T16:12:30Z</time></trkpt><trkpt lat="39.33684784644399" lon="17.042232874799907"><ele>42.0</ele><time>2026-03-28T16:12:31Z</time></trkpt><trkpt lat="39.33685745498972" lon="17.04231970278342"><ele>42.0</ele><time>2026-03-28T16:12:32Z</time></trkpt><trkpt lat="39.33685390943418" lon="17.042413124990503"><ele>41.6</ele><time>2026-03-28T16:12:33Z</time></trkpt><trkpt lat="39.33685443517563" lon="17.042507662162656"><ele>41.2</ele><time>2026-03-28T16:12:34Z</time></trkpt><trkpt lat="39.336853079981466" lon="17.042619359132704"><ele>40.8</ele><time>2026-03-28T16:12:35Z</time></trkpt><trkpt lat="39.336858244282574" lon="17.042722176598563"><ele>40.4</ele><time>2026-03-28T16:12:36Z</time></trkpt><trkpt lat="39.33688398376969" lon="17.042855102264706"><ele>40.0</ele><time>2026-03-28T16:12:38Z</time></trkpt><trkpt lat="39.33692298848866" lon="17.043011258867438"><ele>40.0</ele><time>2026-03-28T16:12:40Z</time></trkpt><trkpt lat="39.33694542322499" lon="17.04309092700688"><ele>40.0</ele><time>2026-03-28T16:12:41Z</time></trkpt><trkpt lat="39.33696759497458" lon="17.043174830128958"><ele>40.0</ele><time>2026-03-28T16:12:42Z</time></trkpt><trkpt lat="39.336989559018" lon="17.043253700747947"><ele>40.0</ele><time>2026-03-28T16:12:43Z</time></trkpt><trkpt lat="39.33700798264571" lon="17.043373273027424"><ele>40.0</ele><time>2026-03-28T16:12:45Z</time></trkpt><trkpt lat="39.336985917943714" lon="17.04349252163859"><ele>40.0</ele><time>2026-03-28T16:12:47Z</time></trkpt><trkpt lat="39.33695058217921" lon="17.04363989279375"><ele>40.333333333333336</ele><time>2026-03-28T16:12:49Z</time></trkpt><trkpt lat="39.33692477975511" lon="17.04376387036791"><ele>40.66666666666667</ele><time>2026-03-28T16:12:51Z</time></trkpt><trkpt lat="39.33690349022599" lon="17.04386294112853"><ele>41.0</ele><time>2026-03-28T16:12:53Z</time></trkpt><trkpt lat="39.33688858997155" lon="17.043982662753216"><ele>41.333333333333336</ele><time>2026-03-28T16:12:56Z</time></trkpt><trkpt lat="39.33688271556836" lon="17.04407320506034"><ele>41.666666666666664</ele><time>2026-03-28T16:12:58Z</time></trkpt><trkpt lat="39.33689166218116" lon="17.044206220136058"><ele>42.0</ele><time>2026-03-28T16:13:00Z</time></trkpt><trkpt lat="39.336899333490194" lon="17.04429043029376"><ele>42.0</ele><time>2026-03-28T16:13:01Z</time></trkpt><trkpt lat="39.336917920443334" lon="17.04441363025456"><ele>42.0</ele><time>2026-03-28T16:13:02Z</time></trkpt><trkpt lat="39.336948086823384" lon="17.04456195004222"><ele>42.0</ele><time>2026-03-28T16:13:03Z</time></trkpt><trkpt lat="39.336983491175594" lon="17.044685571071575"><ele>42.0</ele><time>2026-03-28T16:13:04Z</time></trkpt><trkpt lat="39.33701889283971" lon="17.044816956602613"><ele>42.0</ele><time>2026-03-28T16:13:05Z</time></trkpt><trkpt lat="39.33704064302875" lon="17.044942837201514"><ele>42.0</ele><time>2026-03-28T16:13:06Z</time></trkpt><trkpt lat="39.337059826857754" lon="17.045046083644912"><ele>42.0</ele><time>2026-03-28T16:13:07Z</time></trkpt><trkpt lat="39.33707633950917" lon="17.045133064384192"><ele>42.0</ele><time>2026-03-28T16:13:08Z</time></trkpt><trkpt lat="39.33707379808225" lon="17.04529238367557"><ele>42.0</ele><time>2026-03-28T16:13:10Z</time></trkpt><trkpt lat="39.33707145115836" lon="17.045389033839662"><ele>42.0</ele><time>2026-03-28T16:13:12Z</time></trkpt><trkpt lat="39.33706900579621" lon="17.045543004140082"><ele>42.0</ele><time>2026-03-28T16:13:14Z</time></trkpt><trkpt lat="39.3370779744246" lon="17.045644695159048"><ele>42.0</ele><time>2026-03-28T16:13:15Z</time></trkpt><trkpt lat="39.337093404958225" lon="17.04576525225261"><ele>42.0</ele><time>2026-03-28T16:13:16Z</time></trkpt><trkpt lat="39.33710472074837" lon="17.045884265729196"><ele>42.0</ele><time>2026-03-28T16:13:17Z</time></trkpt><trkpt lat="39.33712896264041" lon="17.046005667183696"><ele>42.0</ele><time>2026-03-28T16:13:18Z</time></trkpt><trkpt lat="39.337151066894386" lon="17.046150435961167"><ele>42.25</ele><time>2026-03-28T16:13:19Z</time></trkpt><trkpt lat="39.33718086010807" lon="17.046306278478507"><ele>42.5</ele><time>2026-03-28T16:13:20Z</time></trkpt><trkpt lat="39.337215373201474" lon="17.046452448922366"><ele>42.75</ele><time>2026-03-28T16:13:21Z</time></trkpt><trkpt lat="39.33724175045482" lon="17.04658397072764"><ele>43.0</ele><time>2026-03-28T16:13:22Z</time></trkpt><trkpt lat="39.33722200382809" lon="17.046724508702233"><ele>43.0</ele><time>2026-03-28T16:13:23Z</time></trkpt><trkpt lat="39.33719615348955" lon="17.04687121991056"><ele>43.0</ele><time>2026-03-28T16:13:24Z</time></trkpt><trkpt lat="39.33718209294562" lon="17.04700468258131"><ele>43.0</ele><time>2026-03-28T16:13:25.001Z</time></trkpt><trkpt lat="39.33717179291636" lon="17.047133686677093"><ele>43.0</ele><time>2026-03-28T16:13:26.001Z</time></trkpt><trkpt lat="39.33715602110025" lon="17.047265651289752"><ele>43.0</ele><time>2026-03-28T16:13:27.001Z</time></trkpt><trkpt lat="39.337147895807284" lon="17.047365672446197"><ele>43.0</ele><time>2026-03-28T16:13:28.001Z</time></trkpt><trkpt lat="39.33709378976382" lon="17.047421924727654"><ele>43.0</ele><time>2026-03-28T16:13:29.001Z</time></trkpt><trkpt lat="39.3370116985916" lon="17.04742503965413"><ele>43.0</ele><time>2026-03-28T16:13:30.001Z</time></trkpt><trkpt lat="39.33693089484139" lon="17.047458842638616"><ele>43.0</ele><time>2026-03-28T16:13:32.001Z</time></trkpt><trkpt lat="39.33685004980459" lon="17.04748155470585"><ele>43.0</ele><time>2026-03-28T16:13:34.001Z</time></trkpt><trkpt lat="39.336855471793605" lon="17.047636099316247"><ele>43.0</ele><time>2026-03-28T16:13:36.001Z</time></trkpt><trkpt lat="39.336826334077294" lon="17.047731344115867"><ele>42.833333333333336</ele><time>2026-03-28T16:13:39.001Z</time></trkpt><trkpt lat="39.336837193044246" lon="17.047845928423172"><ele>42.66666666666667</ele><time>2026-03-28T16:13:41.001Z</time></trkpt><trkpt lat="39.3368465005887" lon="17.047931758053558"><ele>42.5</ele><time>2026-03-28T16:13:42.001Z</time></trkpt><trkpt lat="39.33683842471011" lon="17.04802273545722"><ele>42.333333333333336</ele><time>2026-03-28T16:13:43.001Z</time></trkpt><trkpt lat="39.33682504582092" lon="17.048102443150224"><ele>42.166666666666664</ele><time>2026-03-28T16:13:45.001Z</time></trkpt><trkpt lat="39.33680360859047" lon="17.04820421979423"><ele>42.0</ele><time>2026-03-28T16:13:55Z</time></trkpt><trkpt lat="39.3367967683067" lon="17.048319229080928"><ele>42.0</ele><time>2026-03-28T16:13:57Z</time></trkpt><trkpt lat="39.33680263861474" lon="17.04849648598097"><ele>42.0</ele><time>2026-03-28T16:13:59Z</time></trkpt><trkpt lat="39.33682704279032" lon="17.048627965018408"><ele>42.0</ele><time>2026-03-28T16:14:00Z</time></trkpt><trkpt lat="39.33684329141157" lon="17.04875542336709"><ele>42.0</ele><time>2026-03-28T16:14:01Z</time></trkpt><trkpt lat="39.33686048204022" lon="17.04887215119444"><ele>42.0</ele><time>2026-03-28T16:14:02Z</time></trkpt><trkpt lat="39.336874538330456" lon="17.048999523948943"><ele>41.75</ele><time>2026-03-28T16:14:03Z</time></trkpt><trkpt lat="39.33689325612722" lon="17.04915286067407"><ele>41.5</ele><time>2026-03-28T16:14:04Z</time></trkpt><trkpt lat="39.33691618228228" lon="17.04932545117993"><ele>41.25</ele><time>2026-03-28T16:14:05Z</time></trkpt><trkpt lat="39.33693489509712" lon="17.04949554926714"><ele>41.0</ele><time>2026-03-28T16:14:06Z</time></trkpt><trkpt lat="39.33697259943228" lon="17.049673634903254"><ele>41.0</ele><time>2026-03-28T16:14:07Z</time></trkpt><trkpt lat="39.336999571261416" lon="17.049863094225614"><ele>41.0</ele><time>2026-03-28T16:14:08Z</time></trkpt><trkpt lat="39.33702062615637" lon="17.050036021384166"><ele>41.0</ele><time>2026-03-28T16:14:09Z</time></trkpt><trkpt lat="39.33704150612486" lon="17.050212457446673"><ele>41.0</ele><time>2026-03-28T16:14:10Z</time></trkpt><trkpt lat="39.33706656412062" lon="17.05039045350861"><ele>40.75</ele><time>2026-03-28T16:14:11Z</time></trkpt><trkpt lat="39.33708758527789" lon="17.05054916012841"><ele>40.5</ele><time>2026-03-28T16:14:12Z</time></trkpt><trkpt lat="39.33710655689422" lon="17.05070164105417"><ele>40.25</ele><time>2026-03-28T16:14:13Z</time></trkpt><trkpt lat="39.337129111139255" lon="17.050843924056846"><ele>40.0</ele><time>2026-03-28T16:14:14Z</time></trkpt><trkpt lat="39.33713722992929" lon="17.050987792813785"><ele>40.0</ele><time>2026-03-28T16:14:15Z</time></trkpt><trkpt lat="39.33714108534633" lon="17.051152283487287"><ele>40.0</ele><time>2026-03-28T16:14:16Z</time></trkpt><trkpt lat="39.33714463979053" lon="17.05130852976702"><ele>40.0</ele><time>2026-03-28T16:14:17Z</time></trkpt><trkpt lat="39.33715008760196" lon="17.05145327702771"><ele>40.0</ele><time>2026-03-28T16:14:18Z</time></trkpt><trkpt lat="39.337153239408835" lon="17.051598033714548"><ele>39.8</ele><time>2026-03-28T16:14:19Z</time></trkpt><trkpt lat="39.33715885138687" lon="17.051720587903077"><ele>39.6</ele><time>2026-03-28T16:14:20Z</time></trkpt><trkpt lat="39.337153127242644" lon="17.05185996571881"><ele>39.4</ele><time>2026-03-28T16:14:21Z</time></trkpt><trkpt lat="39.33713579515205" lon="17.052008029578698"><ele>39.2</ele><time>2026-03-28T16:14:22Z</time></trkpt><trkpt lat="39.337113727301634" lon="17.05214175329995"><ele>39.0</ele><time>2026-03-28T16:14:23Z</time></trkpt><trkpt lat="39.33709798358504" lon="17.052275630733796"><ele>39.0</ele><time>2026-03-28T16:14:24Z</time></trkpt><trkpt lat="39.337088884523034" lon="17.05241253465978"><ele>39.0</ele><time>2026-03-28T16:14:25Z</time></trkpt><trkpt lat="39.33707093739975" lon="17.052554080218"><ele>39.0</ele><time>2026-03-28T16:14:26Z</time></trkpt><trkpt lat="39.337046658047" lon="17.052684491716413"><ele>39.0</ele><time>2026-03-28T16:14:27Z</time></trkpt><trkpt lat="39.337013360747875" lon="17.052805739766303"><ele>39.0</ele><time>2026-03-28T16:14:28Z</time></trkpt><trkpt lat="39.336976976794304" lon="17.052904046489324"><ele>38.833333333333336</ele><time>2026-03-28T16:14:29Z</time></trkpt><trkpt lat="39.33694524640028" lon="17.052977925893973"><ele>38.666666666666664</ele><time>2026-03-28T16:14:30Z</time></trkpt><trkpt lat="39.33695175938639" lon="17.053089883359068"><ele>38.5</ele><time>2026-03-28T16:14:32Z</time></trkpt><trkpt lat="39.33705846711701" lon="17.053113273257225"><ele>38.33333333333333</ele><time>2026-03-28T16:14:34Z</time></trkpt><trkpt lat="39.33712019100482" lon="17.053089578208233"><ele>38.166666666666664</ele><time>2026-03-28T16:14:35Z</time></trkpt><trkpt lat="39.337201745460455" lon="17.05299561284442"><ele>38.0</ele><time>2026-03-28T16:14:37Z</time></trkpt><trkpt lat="39.337265718374496" lon="17.052978278255605"><ele>37.83333333333333</ele><time>2026-03-28T16:14:39Z</time></trkpt><trkpt lat="39.337331860168206" lon="17.05298738277834"><ele>37.666666666666664</ele><time>2026-03-28T16:14:41Z</time></trkpt><trkpt lat="39.33740380425181" lon="17.053023687964103"><ele>37.5</ele><time>2026-03-28T16:14:43Z</time></trkpt><trkpt lat="39.337482061337354" lon="17.053075904782578"><ele>37.333333333333336</ele><time>2026-03-28T16:14:45Z</time></trkpt><trkpt lat="39.3375584172423" lon="17.053141329404202"><ele>37.16666666666667</ele><time>2026-03-28T16:14:47Z</time></trkpt><trkpt lat="39.33761426945377" lon="17.05322802500014"><ele>37.0</ele><time>2026-03-28T16:14:50Z</time></trkpt><trkpt lat="39.33766371469112" lon="17.053307702410347"><ele>37.333333333333336</ele><time>2026-03-28T16:14:55Z</time></trkpt><trkpt lat="39.33770200203545" lon="17.05341886902913"><ele>37.66666666666667</ele><time>2026-03-28T16:14:59Z</time></trkpt><trkpt lat="39.337776513004854" lon="17.053496878635833"><ele>38.0</ele><time>2026-03-28T16:15:01Z</time></trkpt><trkpt lat="39.33782439235523" lon="17.05358130987851"><ele>38.333333333333336</ele><time>2026-03-28T16:15:02Z</time></trkpt><trkpt lat="39.33787083705543" lon="17.05367875284994"><ele>38.666666666666664</ele><time>2026-03-28T16:15:03Z</time></trkpt><trkpt lat="39.337920958885206" lon="17.053745939332476"><ele>39.0</ele><time>2026-03-28T16:15:04Z</time></trkpt><trkpt lat="39.33799443893458" lon="17.053814721167946"><ele>39.166666666666664</ele><time>2026-03-28T16:15:05Z</time></trkpt><trkpt lat="39.33806529166385" lon="17.053876391557914"><ele>39.333333333333336</ele><time>2026-03-28T16:15:07Z</time></trkpt><trkpt lat="39.33812032555929" lon="17.053934068335884"><ele>39.5</ele><time>2026-03-28T16:15:22Z</time></trkpt><trkpt lat="39.338138404657705" lon="17.054021015266475"><ele>39.66666666666667</ele><time>2026-03-28T16:15:24Z</time></trkpt><trkpt lat="39.33820116750383" lon="17.054007556556044"><ele>39.833333333333336</ele><time>2026-03-28T16:15:26Z</time></trkpt><trkpt lat="39.33812023535701" lon="17.053955691663774"><ele>40.0</ele><time>2026-03-28T16:15:28Z</time></trkpt><trkpt lat="39.33805304338612" lon="17.053893120263407"><ele>39.833333333333336</ele><time>2026-03-28T16:15:30Z</time></trkpt><trkpt lat="39.33799898131536" lon="17.053802197511338"><ele>39.66666666666667</ele><time>2026-03-28T16:15:32.001Z</time></trkpt><trkpt lat="39.33793816843971" lon="17.053714774349412"><ele>39.5</ele><time>2026-03-28T16:15:34.001Z</time></trkpt><trkpt lat="39.33789280555476" lon="17.053636572299194"><ele>39.333333333333336</ele><time>2026-03-28T16:15:38.001Z</time></trkpt><trkpt lat="39.33784892886654" lon="17.0535741686277"><ele>39.166666666666664</ele><time>2026-03-28T16:15:42.001Z</time></trkpt><trkpt lat="39.33777104442141" lon="17.053517998202636"><ele>39.0</ele><time>2026-03-28T16:15:47.001Z</time></trkpt><trkpt lat="39.337696706161616" lon="17.05348287110529"><ele>39.0</ele><time>2026-03-28T16:15:52Z</time></trkpt><trkpt lat="39.337699282848384" lon="17.053369608921322"><ele>39.0</ele><time>2026-03-28T16:15:55Z</time></trkpt><trkpt lat="39.33772487796283" lon="17.05328143885442"><ele>39.0</ele><time>2026-03-28T16:15:58Z</time></trkpt><trkpt lat="39.337787680265095" lon="17.053223830377213"><ele>39.0</ele><time>2026-03-28T16:16:02Z</time></trkpt><trkpt lat="39.337831230895944" lon="17.053135814573125"><ele>39.0</ele><time>2026-03-28T16:16:06Z</time></trkpt><trkpt lat="39.33783903716463" lon="17.05304039964142"><ele>39.0</ele><time>2026-03-28T16:16:09Z</time></trkpt><trkpt lat="39.33778904236668" lon="17.052966138345468"><ele>39.0</ele><time>2026-03-28T16:16:12Z</time></trkpt><trkpt lat="39.33772812973286" lon="17.052988372369672"><ele>39.0</ele><time>2026-03-28T16:16:14Z</time></trkpt><trkpt lat="39.33768587901951" lon="17.05311490963386"><ele>39.0</ele><time>2026-03-28T16:16:16Z</time></trkpt><trkpt lat="39.3376881195882" lon="17.05319926034059"><ele>39.0</ele><time>2026-03-28T16:16:19Z</time></trkpt><trkpt lat="39.337607949913135" lon="17.05327648012961"><ele>39.0</ele><time>2026-03-28T16:16:22Z</time></trkpt><trkpt lat="39.3375376806257" lon="17.05331289125411"><ele>39.0</ele><time>2026-03-28T16:16:24Z</time></trkpt><trkpt lat="39.33746699713387" lon="17.05333476452045"><ele>39.0</ele><time>2026-03-28T16:16:26Z</time></trkpt><trkpt lat="39.33740832536623" lon="17.05329750908297"><ele>39.0</ele><time>2026-03-28T16:16:28Z</time></trkpt><trkpt lat="39.33743810368537" lon="17.053220935923758"><ele>39.0</ele><time>2026-03-28T16:16:30Z</time></trkpt><trkpt lat="39.33750160591025" lon="17.053215665003677"><ele>39.0</ele><time>2026-03-28T16:16:31Z</time></trkpt><trkpt lat="39.337551148631064" lon="17.053274264476606"><ele>39.0</ele><time>2026-03-28T16:16:33Z</time></trkpt><trkpt lat="39.337621293575275" lon="17.05328263486345"><ele>39.0</ele><time>2026-03-28T16:16:36Z</time></trkpt><trkpt lat="39.337682539530896" lon="17.05323460871116"><ele>39.0</ele><time>2026-03-28T16:16:38Z</time></trkpt><trkpt lat="39.33775255458555" lon="17.053195058355485"><ele>38.666666666666664</ele><time>2026-03-28T16:16:40Z</time></trkpt><trkpt lat="39.33782571861486" lon="17.053144312810467"><ele>38.333333333333336</ele><time>2026-03-28T16:16:43Z</time></trkpt><trkpt lat="39.33785639686782" lon="17.053053749098474"><ele>38.0</ele><time>2026-03-28T16:16:46Z</time></trkpt><trkpt lat="39.33788247377762" lon="17.052948834048113"><ele>37.66666666666667</ele><time>2026-03-28T16:16:52Z</time></trkpt><trkpt lat="39.33797523483513" lon="17.05292536889316"><ele>37.333333333333336</ele><time>2026-03-28T16:16:55Z</time></trkpt><trkpt lat="39.33798258067752" lon="17.053021867300124"><ele>37.0</ele><time>2026-03-28T16:16:58Z</time></trkpt><trkpt lat="39.337952653952314" lon="17.053095130920045"><ele>37.0</ele><time>2026-03-28T16:17:01Z</time></trkpt><trkpt lat="39.33788319535276" lon="17.053112296429916"><ele>37.0</ele><time>2026-03-28T16:17:04Z</time></trkpt><trkpt lat="39.33781415959538" lon="17.05316132672925"><ele>37.0</ele><time>2026-03-28T16:17:07Z</time></trkpt><trkpt lat="39.3377544963512" lon="17.05320128725963"><ele>37.0</ele><time>2026-03-28T16:17:09Z</time></trkpt><trkpt lat="39.33769438405133" lon="17.053249676103672"><ele>37.0</ele><time>2026-03-28T16:17:11Z</time></trkpt><trkpt lat="39.33763715131356" lon="17.053284361497536"><ele>37.0</ele><time>2026-03-28T16:17:13Z</time></trkpt><trkpt lat="39.33755808944985" lon="17.05331607804473"><ele>37.0</ele><time>2026-03-28T16:17:15Z</time></trkpt><trkpt lat="39.33748051101736" lon="17.053307345368975"><ele>37.0</ele><time>2026-03-28T16:17:17Z</time></trkpt><trkpt lat="39.33747032641799" lon="17.05319752560182"><ele>37.0</ele><time>2026-03-28T16:17:20Z</time></trkpt><trkpt lat="39.33757716124703" lon="17.053172593800642"><ele>37.0</ele><time>2026-03-28T16:17:22Z</time></trkpt><trkpt lat="39.33765029474307" lon="17.053219277232564"><ele>37.0</ele><time>2026-03-28T16:17:25Z</time></trkpt><trkpt lat="39.33772852986878" lon="17.053190946591904"><ele>37.0</ele><time>2026-03-28T16:17:28Z</time></trkpt><trkpt lat="39.337814126469176" lon="17.053154469486415"><ele>37.0</ele><time>2026-03-28T16:17:31Z</time></trkpt><trkpt lat="39.33788266435616" lon="17.05308013960346"><ele>37.0</ele><time>2026-03-28T16:17:34Z</time></trkpt><trkpt lat="39.33787008728717" lon="17.052990582830652"><ele>37.0</ele><time>2026-03-28T16:17:37Z</time></trkpt><trkpt lat="39.33778888644697" lon="17.05296951448245"><ele>37.0</ele><time>2026-03-28T16:17:55Z</time></trkpt><trkpt lat="39.33770869597347" lon="17.052990031247326"><ele>37.0</ele><time>2026-03-28T16:17:58Z</time></trkpt><trkpt lat="39.33768418382584" lon="17.053069972817976"><ele>37.0</ele><time>2026-03-28T16:18:01Z</time></trkpt><trkpt lat="39.33768507491015" lon="17.053152441248308"><ele>37.0</ele><time>2026-03-28T16:18:04Z</time></trkpt><trkpt lat="39.33767687500664" lon="17.053241215203386"><ele>37.0</ele><time>2026-03-28T16:18:08Z</time></trkpt><trkpt lat="39.337662912926426" lon="17.05332504647084"><ele>37.333333333333336</ele><time>2026-03-28T16:18:11Z</time></trkpt><trkpt lat="39.337670672766095" lon="17.05340588241708"><ele>37.66666666666667</ele><time>2026-03-28T16:18:13Z</time></trkpt><trkpt lat="39.33772280158307" lon="17.05347699940091"><ele>38.0</ele><time>2026-03-28T16:18:16Z</time></trkpt><trkpt lat="39.33765689281301" lon="17.053558268825086"><ele>38.333333333333336</ele><time>2026-03-28T16:18:19Z</time></trkpt><trkpt lat="39.33758689764969" lon="17.053579225246708"><ele>38.666666666666664</ele><time>2026-03-28T16:18:21Z</time></trkpt><trkpt lat="39.33752022310727" lon="17.0536285642289"><ele>39.0</ele><time>2026-03-28T16:18:23Z</time></trkpt><trkpt lat="39.33743495847741" lon="17.053724028358204"><ele>39.0</ele><time>2026-03-28T16:18:25Z</time></trkpt><trkpt lat="39.33737957623342" lon="17.053811674920972"><ele>39.0</ele><time>2026-03-28T16:18:27Z</time></trkpt><trkpt lat="39.33731987779449" lon="17.053891381526327"><ele>39.0</ele><time>2026-03-28T16:18:29Z</time></trkpt><trkpt lat="39.33724867575433" lon="17.053962066151517"><ele>39.0</ele><time>2026-03-28T16:18:31Z</time></trkpt><trkpt lat="39.33719714970128" lon="17.054065465343644"><ele>39.0</ele><time>2026-03-28T16:18:33Z</time></trkpt><trkpt lat="39.33714946600464" lon="17.054175893521986"><ele>38.8</ele><time>2026-03-28T16:18:35Z</time></trkpt><trkpt lat="39.33708585196097" lon="17.054246962572307"><ele>38.599999999999994</ele><time>2026-03-28T16:18:37Z</time></trkpt><trkpt lat="39.337037074245956" lon="17.05438204562438"><ele>38.4</ele><time>2026-03-28T16:18:40Z</time></trkpt><trkpt lat="39.33703591558322" lon="17.054509504689268"><ele>38.199999999999996</ele><time>2026-03-28T16:18:41Z</time></trkpt><trkpt lat="39.33703907704225" lon="17.054662894064506"><ele>38.0</ele><time>2026-03-28T16:18:42Z</time></trkpt><trkpt lat="39.337024629976675" lon="17.05482146336297"><ele>37.8</ele><time>2026-03-28T16:18:43Z</time></trkpt><trkpt lat="39.33701366613432" lon="17.054956142598474"><ele>37.599999999999994</ele><time>2026-03-28T16:18:44Z</time></trkpt><trkpt lat="39.33702104927558" lon="17.055093122266477"><ele>37.400000000000006</ele><time>2026-03-28T16:18:45Z</time></trkpt><trkpt lat="39.337019067740165" lon="17.055244424295655"><ele>37.2</ele><time>2026-03-28T16:18:46Z</time></trkpt><trkpt lat="39.337021947708905" lon="17.0553983038189"><ele>37.0</ele><time>2026-03-28T16:18:47Z</time></trkpt><trkpt lat="39.33701992091957" lon="17.055531338581172"><ele>37.0</ele><time>2026-03-28T16:18:48Z</time></trkpt><trkpt lat="39.33701744577248" lon="17.055668099154804"><ele>37.0</ele><time>2026-03-28T16:18:49Z</time></trkpt><trkpt lat="39.33701657069139" lon="17.055798224135835"><ele>37.0</ele><time>2026-03-28T16:18:50Z</time></trkpt><trkpt lat="39.337006929708735" lon="17.05589950437881"><ele>37.0</ele><time>2026-03-28T16:18:51Z</time></trkpt><trkpt lat="39.337003036193835" lon="17.056036247664423"><ele>37.0</ele><time>2026-03-28T16:18:53Z</time></trkpt><trkpt lat="39.337085257085455" lon="17.056020144544828"><ele>37.0</ele><time>2026-03-28T16:18:55Z</time></trkpt><trkpt lat="39.33710032114448" lon="17.055938814563326"><ele>37.0</ele><time>2026-03-28T16:18:56Z</time></trkpt><trkpt lat="39.337101739145325" lon="17.05581193826973"><ele>37.0</ele><time>2026-03-28T16:18:57Z</time></trkpt><trkpt lat="39.3370689927533" lon="17.055665769622838"><ele>37.0</ele><time>2026-03-28T16:18:58Z</time></trkpt><trkpt lat="39.33702994383853" lon="17.05550670964983"><ele>37.0</ele><time>2026-03-28T16:18:59Z</time></trkpt><trkpt lat="39.33702491933123" lon="17.05534237242631"><ele>37.0</ele><time>2026-03-28T16:19:00Z</time></trkpt><trkpt lat="39.33703599980605" lon="17.0552275369503"><ele>37.0</ele><time>2026-03-28T16:19:01Z</time></trkpt><trkpt lat="39.337027872253685" lon="17.05512343485562"><ele>37.0</ele><time>2026-03-28T16:19:02Z</time></trkpt><trkpt lat="39.337034067037735" lon="17.054970584841126"><ele>37.0</ele><time>2026-03-28T16:19:03Z</time></trkpt><trkpt lat="39.33703210115977" lon="17.054822978517997"><ele>37.0</ele><time>2026-03-28T16:19:04Z</time></trkpt><trkpt lat="39.33702588604315" lon="17.05468976162945"><ele>37.25</ele><time>2026-03-28T16:19:05Z</time></trkpt><trkpt lat="39.33703888984366" lon="17.0545258311931"><ele>37.5</ele><time>2026-03-28T16:19:06Z</time></trkpt><trkpt lat="39.33705150056637" lon="17.05436644131077"><ele>37.75</ele><time>2026-03-28T16:19:07Z</time></trkpt><trkpt lat="39.33706508862778" lon="17.054208031455612"><ele>38.0</ele><time>2026-03-28T16:19:08Z</time></trkpt><trkpt lat="39.337093871876085" lon="17.054093461649273"><ele>38.14285714285714</ele><time>2026-03-28T16:19:09Z</time></trkpt><trkpt lat="39.33714930527649" lon="17.054041288115975"><ele>38.28571428571429</ele><time>2026-03-28T16:19:10Z</time></trkpt><trkpt lat="39.337220733520915" lon="17.0540528270908"><ele>38.42857142857143</ele><time>2026-03-28T16:19:13Z</time></trkpt><trkpt lat="39.337260907037745" lon="17.053973561793956"><ele>38.57142857142857</ele><time>2026-03-28T16:19:18Z</time></trkpt><trkpt lat="39.33729839448569" lon="17.053871648993123"><ele>38.71428571428571</ele><time>2026-03-28T16:20:11Z</time></trkpt><trkpt lat="39.33731126678914" lon="17.053780811357026"><ele>38.85714285714286</ele><time>2026-03-28T16:20:13Z</time></trkpt><trkpt lat="39.33733339959457" lon="17.053701361055268"><ele>39.0</ele><time>2026-03-28T16:20:15Z</time></trkpt><trkpt lat="39.337356675085765" lon="17.05362265970235"><ele>39.0</ele><time>2026-03-28T16:20:17Z</time></trkpt><trkpt lat="39.33741970611006" lon="17.053560048776955"><ele>39.0</ele><time>2026-03-28T16:20:20Z</time></trkpt><trkpt lat="39.33749446361518" lon="17.0535394155212"><ele>39.0</ele><time>2026-03-28T16:20:23Z</time></trkpt><trkpt lat="39.337556328638875" lon="17.05348634790957"><ele>39.0</ele><time>2026-03-28T16:20:26Z</time></trkpt><trkpt lat="39.33762539942698" lon="17.053478044038375"><ele>39.0</ele><time>2026-03-28T16:20:29Z</time></trkpt><trkpt lat="39.3376913370494" lon="17.053542864282214"><ele>39.0</ele><time>2026-03-28T16:20:32Z</time></trkpt><trkpt lat="39.337762030352025" lon="17.053531851416224"><ele>39.0</ele><time>2026-03-28T16:22:05Z</time></trkpt><trkpt lat="39.33782273771771" lon="17.05356814602499"><ele>39.0</ele><time>2026-03-28T16:22:09Z</time></trkpt><trkpt lat="39.3378693952513" lon="17.05366889341225"><ele>39.0</ele><time>2026-03-28T16:22:12Z</time></trkpt><trkpt lat="39.33792596890275" lon="17.053735462575837"><ele>39.0</ele><time>2026-03-28T16:22:15Z</time></trkpt><trkpt lat="39.3379975021129" lon="17.053742972391237"><ele>39.0</ele><time>2026-03-28T16:28:25Z</time></trkpt><trkpt lat="39.33803961814053" lon="17.05382228899995"><ele>39.0</ele><time>2026-03-28T16:28:28Z</time></trkpt><trkpt lat="39.33810458528414" lon="17.053946696602885"><ele>39.0</ele><time>2026-03-28T16:28:31Z</time></trkpt><trkpt lat="39.33818933114706" lon="17.05402530994067"><ele>39.0</ele><time>2026-03-28T16:28:33Z</time></trkpt><trkpt lat="39.338274231590596" lon="17.054083916281787"><ele>39.0</ele><time>2026-03-28T16:28:35Z</time></trkpt><trkpt lat="39.33835354465308" lon="17.054158015948094"><ele>39.0</ele><time>2026-03-28T16:28:37Z</time></trkpt><trkpt lat="39.33839768390397" lon="17.054236374786854"><ele>39.0</ele><time>2026-03-28T16:28:39Z</time></trkpt><trkpt lat="39.3384299287575" lon="17.054306590607265"><ele>39.0</ele><time>2026-03-28T16:28:41Z</time></trkpt><trkpt lat="39.33847144411108" lon="17.054435737217258"><ele>39.0</ele><time>2026-03-28T16:28:44Z</time></trkpt><trkpt lat="39.3384787825398" lon="17.054535994380945"><ele>39.0</ele><time>2026-03-28T16:28:45Z</time></trkpt><trkpt lat="39.338486384365744" lon="17.05467465598696"><ele>39.0</ele><time>2026-03-28T16:28:46Z</time></trkpt><trkpt lat="39.33851084674818" lon="17.054846467197347"><ele>39.0</ele><time>2026-03-28T16:28:47Z</time></trkpt><trkpt lat="39.33855139829527" lon="17.055037750258336"><ele>39.25</ele><time>2026-03-28T16:28:48Z</time></trkpt><trkpt lat="39.33860184478483" lon="17.055236266566077"><ele>39.5</ele><time>2026-03-28T16:28:49Z</time></trkpt><trkpt lat="39.33864877929374" lon="17.05541528892743"><ele>39.75</ele><time>2026-03-28T16:28:50Z</time></trkpt><trkpt lat="39.33869098795314" lon="17.05557147942119"><ele>40.0</ele><time>2026-03-28T16:28:51Z</time></trkpt><trkpt lat="39.338731140313236" lon="17.055703074842437"><ele>39.66666666666667</ele><time>2026-03-28T16:28:52Z</time></trkpt><trkpt lat="39.33876476522823" lon="17.055821417597535"><ele>39.333333333333336</ele><time>2026-03-28T16:28:53Z</time></trkpt><trkpt lat="39.3387932645775" lon="17.05592527365067"><ele>39.0</ele><time>2026-03-28T16:28:54Z</time></trkpt><trkpt lat="39.33881706813114" lon="17.05601402820181"><ele>38.666666666666664</ele><time>2026-03-28T16:28:55Z</time></trkpt><trkpt lat="39.33883968724732" lon="17.056094404894594"><ele>38.33333333333333</ele><time>2026-03-28T16:28:56Z</time></trkpt><trkpt lat="39.338863326587244" lon="17.056175787084296"><ele>38.0</ele><time>2026-03-28T16:28:57Z</time></trkpt><trkpt lat="39.33888949551719" lon="17.05626296228216"><ele>38.57142857142857</ele><time>2026-03-28T16:28:58Z</time></trkpt><trkpt lat="39.338917970623136" lon="17.056357326112185"><ele>39.142857142857146</ele><time>2026-03-28T16:28:59Z</time></trkpt><trkpt lat="39.33894739826879" lon="17.056454919216158"><ele>39.714285714285715</ele><time>2026-03-28T16:29:00Z</time></trkpt><trkpt lat="39.33897284245377" lon="17.056548500251527"><ele>40.285714285714285</ele><time>2026-03-28T16:29:01Z</time></trkpt><trkpt lat="39.338995051580014" lon="17.056634600357697"><ele>40.85714285714286</ele><time>2026-03-28T16:29:02Z</time></trkpt><trkpt lat="39.33901677943296" lon="17.056721585866345"><ele>41.42857142857143</ele><time>2026-03-28T16:29:03Z</time></trkpt><trkpt lat="39.33903299157924" lon="17.05680978565265"><ele>42.0</ele><time>2026-03-28T16:29:04Z</time></trkpt><trkpt lat="39.33904237757169" lon="17.05689576282062"><ele>42.0</ele><time>2026-03-28T16:29:05Z</time></trkpt><trkpt lat="39.3390448934517" lon="17.056980212318486"><ele>42.0</ele><time>2026-03-28T16:29:06Z</time></trkpt><trkpt lat="39.339036557288786" lon="17.057105120903774"><ele>42.0</ele><time>2026-03-28T16:29:08Z</time></trkpt><trkpt lat="39.339028410384316" lon="17.057221112557702"><ele>42.0</ele><time>2026-03-28T16:29:11Z</time></trkpt><trkpt lat="39.33901705848308" lon="17.057317356429262"><ele>42.0</ele><time>2026-03-28T16:29:13Z</time></trkpt><trkpt lat="39.33900264101596" lon="17.057415856589735"><ele>42.0</ele><time>2026-03-28T16:29:15Z</time></trkpt><trkpt lat="39.3389788678359" lon="17.057495446448748"><ele>42.333333333333336</ele><time>2026-03-28T16:29:17Z</time></trkpt><trkpt lat="39.33897840517401" lon="17.057590805737362"><ele>42.666666666666664</ele><time>2026-03-28T16:29:42Z</time></trkpt><trkpt lat="39.33898242529809" lon="17.057705461968087"><ele>43.0</ele><time>2026-03-28T16:29:44Z</time></trkpt><trkpt lat="39.338981018551486" lon="17.057822350202613"><ele>43.33333333333333</ele><time>2026-03-28T16:29:45Z</time></trkpt><trkpt lat="39.33898077730586" lon="17.05790710549068"><ele>43.666666666666664</ele><time>2026-03-28T16:29:46Z</time></trkpt><trkpt lat="39.338991859096886" lon="17.058048069653083"><ele>44.0</ele><time>2026-03-28T16:29:48Z</time></trkpt><trkpt lat="39.33901818148601" lon="17.05819952763071"><ele>44.0</ele><time>2026-03-28T16:29:50Z</time></trkpt><trkpt lat="39.339039920816404" lon="17.058280625222206"><ele>44.0</ele><time>2026-03-28T16:29:51Z</time></trkpt><trkpt lat="39.339064210128846" lon="17.058363063978238"><ele>44.0</ele><time>2026-03-28T16:29:52Z</time></trkpt><trkpt lat="39.33908960442026" lon="17.058445407902884"><ele>44.0</ele><time>2026-03-28T16:29:53Z</time></trkpt><trkpt lat="39.33911473019687" lon="17.058530544488914"><ele>44.0</ele><time>2026-03-28T16:29:54Z</time></trkpt><trkpt lat="39.33913849158799" lon="17.058607333983407"><ele>44.0</ele><time>2026-03-28T16:29:55Z</time></trkpt><trkpt lat="39.33916255814127" lon="17.058685220770116"><ele>44.0</ele><time>2026-03-28T16:29:56Z</time></trkpt><trkpt lat="39.33918726275558" lon="17.05876632995035"><ele>43.714285714285715</ele><time>2026-03-28T16:29:57Z</time></trkpt><trkpt lat="39.33921300827073" lon="17.058848082428458"><ele>43.42857142857143</ele><time>2026-03-28T16:29:58Z</time></trkpt><trkpt lat="39.33923898045999" lon="17.058930808633598"><ele>43.14285714285714</ele><time>2026-03-28T16:29:59Z</time></trkpt><trkpt lat="39.3392639732773" lon="17.059011131971502"><ele>42.85714285714286</ele><time>2026-03-28T16:30:00Z</time></trkpt><trkpt lat="39.339288991649816" lon="17.059092435416513"><ele>42.57142857142857</ele><time>2026-03-28T16:30:01Z</time></trkpt><trkpt lat="39.339313207963905" lon="17.059175651550714"><ele>42.285714285714285</ele><time>2026-03-28T16:30:02Z</time></trkpt><trkpt lat="39.339337912221616" lon="17.059260278577305"><ele>42.0</ele><time>2026-03-28T16:30:03Z</time></trkpt><trkpt lat="39.33936263366034" lon="17.059345006799806"><ele>41.833333333333336</ele><time>2026-03-28T16:30:04Z</time></trkpt><trkpt lat="39.33939069187887" lon="17.05944154122164"><ele>41.666666666666664</ele><time>2026-03-28T16:30:05Z</time></trkpt><trkpt lat="39.33942841413853" lon="17.059561806686023"><ele>41.5</ele><time>2026-03-28T16:30:06Z</time></trkpt><trkpt lat="39.33946046858685" lon="17.059655565148677"><ele>41.33333333333333</ele><time>2026-03-28T16:30:07Z</time></trkpt><trkpt lat="39.33948883123855" lon="17.05974407910665"><ele>41.166666666666664</ele><time>2026-03-28T16:30:08Z</time></trkpt><trkpt lat="39.33951532724749" lon="17.059828886560496"><ele>41.0</ele><time>2026-03-28T16:30:09Z</time></trkpt><trkpt lat="39.33954060835637" lon="17.059917394481474"><ele>40.33333333333333</ele><time>2026-03-28T16:30:10Z</time></trkpt><trkpt lat="39.33956460631802" lon="17.060008160228897"><ele>39.666666666666664</ele><time>2026-03-28T16:30:11Z</time></trkpt><trkpt lat="39.33958809041313" lon="17.060100929222887"><ele>39.0</ele><time>2026-03-28T16:30:12Z</time></trkpt><trkpt lat="39.339610617096376" lon="17.060195642384542"><ele>38.333333333333336</ele><time>2026-03-28T16:30:13Z</time></trkpt><trkpt lat="39.33963470894769" lon="17.060291240819105"><ele>37.66666666666667</ele><time>2026-03-28T16:30:14Z</time></trkpt><trkpt lat="39.33965726099736" lon="17.060387845347005"><ele>37.0</ele><time>2026-03-28T16:30:15Z</time></trkpt><trkpt lat="39.339677947207186" lon="17.06048550374217"><ele>37.0</ele><time>2026-03-28T16:30:16Z</time></trkpt><trkpt lat="39.33969457924683" lon="17.06058414373186"><ele>37.0</ele><time>2026-03-28T16:30:17Z</time></trkpt><trkpt lat="39.3397075657427" lon="17.06068526326515"><ele>37.0</ele><time>2026-03-28T16:30:18Z</time></trkpt><trkpt lat="39.33971477578505" lon="17.060793315013676"><ele>37.0</ele><time>2026-03-28T16:30:19Z</time></trkpt><trkpt lat="39.33972188951798" lon="17.060909831751776"><ele>37.0</ele><time>2026-03-28T16:30:20Z</time></trkpt><trkpt lat="39.339729592240026" lon="17.061041830468746"><ele>37.0</ele><time>2026-03-28T16:30:21Z</time></trkpt><trkpt lat="39.339738160232805" lon="17.06118746362569"><ele>39.0</ele><time>2026-03-28T16:30:22Z</time></trkpt><trkpt lat="39.33974320985768" lon="17.06132085777703"><ele>41.0</ele><time>2026-03-28T16:30:23Z</time></trkpt><trkpt lat="39.33974943251851" lon="17.061453617249715"><ele>43.0</ele><time>2026-03-28T16:30:24Z</time></trkpt><trkpt lat="39.33975627285381" lon="17.06157754077437"><ele>45.0</ele><time>2026-03-28T16:30:25Z</time></trkpt><trkpt lat="39.33976420031891" lon="17.061696500700037"><ele>47.0</ele><time>2026-03-28T16:30:26Z</time></trkpt><trkpt lat="39.33976918743945" lon="17.06181010187386"><ele>47.33333333333333</ele><time>2026-03-28T16:30:27Z</time></trkpt><trkpt lat="39.3397740259286" lon="17.0619199997043"><ele>47.666666666666664</ele><time>2026-03-28T16:30:28Z</time></trkpt><trkpt lat="39.339780569021336" lon="17.06202852939595"><ele>48.0</ele><time>2026-03-28T16:30:29Z</time></trkpt><trkpt lat="39.33978828458896" lon="17.062138633975604"><ele>48.33333333333333</ele><time>2026-03-28T16:30:30Z</time></trkpt><trkpt lat="39.339797026815994" lon="17.062255780868096"><ele>48.666666666666664</ele><time>2026-03-28T16:30:31Z</time></trkpt><trkpt lat="39.339810834192235" lon="17.062377730358598"><ele>49.0</ele><time>2026-03-28T16:30:32Z</time></trkpt><trkpt lat="39.33983142240941" lon="17.062502293873994"><ele>48.2</ele><time>2026-03-28T16:30:33Z</time></trkpt><trkpt lat="39.33986239822858" lon="17.06262750569079"><ele>47.400000000000006</ele><time>2026-03-28T16:30:34Z</time></trkpt><trkpt lat="39.33989649440145" lon="17.0627490823499"><ele>46.6</ele><time>2026-03-28T16:30:35Z</time></trkpt><trkpt lat="39.33992924139952" lon="17.062864572978448"><ele>45.8</ele><time>2026-03-28T16:30:36Z</time></trkpt><trkpt lat="39.33996513559867" lon="17.0629834137761"><ele>45.0</ele><time>2026-03-28T16:30:37Z</time></trkpt><trkpt lat="39.34000074479792" lon="17.063104463737147"><ele>45.0</ele><time>2026-03-28T16:30:38Z</time></trkpt><trkpt lat="39.340034440686786" lon="17.063224296109023"><ele>45.0</ele><time>2026-03-28T16:30:39Z</time></trkpt><trkpt lat="39.34006852341091" lon="17.06334072600999"><ele>45.0</ele><time>2026-03-28T16:30:40Z</time></trkpt><trkpt lat="39.34010102991099" lon="17.06344869127719"><ele>45.0</ele><time>2026-03-28T16:30:41Z</time></trkpt><trkpt lat="39.340132849824236" lon="17.063551131861338"><ele>45.0</ele><time>2026-03-28T16:30:42Z</time></trkpt><trkpt lat="39.34016521657589" lon="17.063649457046033"><ele>44.0</ele><time>2026-03-28T16:30:43Z</time></trkpt><trkpt lat="39.34019915275624" lon="17.063744607072792"><ele>43.0</ele><time>2026-03-28T16:30:44Z</time></trkpt><trkpt lat="39.340235764795985" lon="17.063836807620806"><ele>42.0</ele><time>2026-03-28T16:30:45Z</time></trkpt><trkpt lat="39.34027319299002" lon="17.063927495991784"><ele>41.0</ele><time>2026-03-28T16:30:46Z</time></trkpt><trkpt lat="39.34031565498842" lon="17.064015011608692"><ele>40.0</ele><time>2026-03-28T16:30:47Z</time></trkpt><trkpt lat="39.34036385469969" lon="17.064105038607828"><ele>39.0</ele><time>2026-03-28T16:30:48Z</time></trkpt><trkpt lat="39.34041627335095" lon="17.064198748148687"><ele>38.666666666666664</ele><time>2026-03-28T16:30:49Z</time></trkpt><trkpt lat="39.34047037748262" lon="17.06429468463481"><ele>38.333333333333336</ele><time>2026-03-28T16:30:50Z</time></trkpt><trkpt lat="39.340526453708094" lon="17.064393632387446"><ele>38.0</ele><time>2026-03-28T16:30:51Z</time></trkpt><trkpt lat="39.34058255166366" lon="17.064489111504912"><ele>37.66666666666667</ele><time>2026-03-28T16:30:52Z</time></trkpt><trkpt lat="39.34063629339607" lon="17.06458095526366"><ele>37.333333333333336</ele><time>2026-03-28T16:30:53Z</time></trkpt><trkpt lat="39.340682625762675" lon="17.064660708607654"><ele>37.0</ele><time>2026-03-28T16:30:54Z</time></trkpt><trkpt lat="39.34072527814303" lon="17.06473496773676"><ele>38.833333333333336</ele><time>2026-03-28T16:30:55Z</time></trkpt><trkpt lat="39.34076753265656" lon="17.064816157254857"><ele>40.66666666666667</ele><time>2026-03-28T16:30:56Z</time></trkpt><trkpt lat="39.34080360122851" lon="17.064902873296745"><ele>42.5</ele><time>2026-03-28T16:30:57Z</time></trkpt><trkpt lat="39.34083381696955" lon="17.064993270883573"><ele>44.333333333333336</ele><time>2026-03-28T16:30:58Z</time></trkpt><trkpt lat="39.34085224195139" lon="17.065094326695743"><ele>46.166666666666664</ele><time>2026-03-28T16:30:59Z</time></trkpt><trkpt lat="39.340864748018944" lon="17.06520317209244"><ele>48.0</ele><time>2026-03-28T16:31:00Z</time></trkpt><trkpt lat="39.34087228679329" lon="17.065322108929173"><ele>48.0</ele><time>2026-03-28T16:31:01Z</time></trkpt><trkpt lat="39.340878670418874" lon="17.065446379544166"><ele>48.0</ele><time>2026-03-28T16:31:02Z</time></trkpt><trkpt lat="39.34088181090323" lon="17.065576925786292"><ele>48.0</ele><time>2026-03-28T16:31:03Z</time></trkpt><trkpt lat="39.34087529966556" lon="17.065704315779275"><ele>48.0</ele><time>2026-03-28T16:31:04Z</time></trkpt><trkpt lat="39.34086281542547" lon="17.065831894906047"><ele>48.0</ele><time>2026-03-28T16:31:05Z</time></trkpt><trkpt lat="39.34084433385219" lon="17.065956388416193"><ele>47.333333333333336</ele><time>2026-03-28T16:31:06Z</time></trkpt><trkpt lat="39.3408257926554" lon="17.06608003671902"><ele>46.666666666666664</ele><time>2026-03-28T16:31:07Z</time></trkpt><trkpt lat="39.34080934855226" lon="17.066198792615033"><ele>46.0</ele><time>2026-03-28T16:31:08Z</time></trkpt><trkpt lat="39.34079901663176" lon="17.06630103540144"><ele>45.33333333333333</ele><time>2026-03-28T16:31:09Z</time></trkpt><trkpt lat="39.34079698135857" lon="17.0663980337867"><ele>44.666666666666664</ele><time>2026-03-28T16:31:10Z</time></trkpt><trkpt lat="39.34080177955368" lon="17.066499768705803"><ele>44.0</ele><time>2026-03-28T16:31:11Z</time></trkpt><trkpt lat="39.34081395082318" lon="17.066605424494462"><ele>43.33333333333333</ele><time>2026-03-28T16:31:12Z</time></trkpt><trkpt lat="39.34083430772701" lon="17.06671227400111"><ele>42.666666666666664</ele><time>2026-03-28T16:31:13Z</time></trkpt><trkpt lat="39.3408586145743" lon="17.06682274193389"><ele>42.0</ele><time>2026-03-28T16:31:14Z</time></trkpt><trkpt lat="39.34088631210876" lon="17.066932887551502"><ele>41.333333333333336</ele><time>2026-03-28T16:31:15Z</time></trkpt><trkpt lat="39.340915513370305" lon="17.067042704778355"><ele>40.66666666666667</ele><time>2026-03-28T16:31:16Z</time></trkpt><trkpt lat="39.34094336588264" lon="17.067153383195325"><ele>40.0</ele><time>2026-03-28T16:31:17Z</time></trkpt><trkpt lat="39.34096844969398" lon="17.067260577481836"><ele>40.0</ele><time>2026-03-28T16:31:18Z</time></trkpt><trkpt lat="39.34099104344844" lon="17.067354396464637"><ele>40.0</ele><time>2026-03-28T16:31:19Z</time></trkpt><trkpt lat="39.341012611833946" lon="17.067442858557854"><ele>40.0</ele><time>2026-03-28T16:31:20Z</time></trkpt><trkpt lat="39.34103536715433" lon="17.067527975706817"><ele>40.0</ele><time>2026-03-28T16:31:21Z</time></trkpt><trkpt lat="39.3410598351849" lon="17.06761256635235"><ele>40.0</ele><time>2026-03-28T16:31:22Z</time></trkpt><trkpt lat="39.34108466120616" lon="17.067696508967593"><ele>40.0</ele><time>2026-03-28T16:31:23Z</time></trkpt><trkpt lat="39.341109220126384" lon="17.067779721222895"><ele>40.0</ele><time>2026-03-28T16:31:24Z</time></trkpt><trkpt lat="39.341136523648764" lon="17.067860921139626"><ele>39.857142857142854</ele><time>2026-03-28T16:31:25Z</time></trkpt><trkpt lat="39.34116733938744" lon="17.067939336259155"><ele>39.714285714285715</ele><time>2026-03-28T16:31:26Z</time></trkpt><trkpt lat="39.34120480364837" lon="17.068013697491853"><ele>39.57142857142857</ele><time>2026-03-28T16:31:27Z</time></trkpt><trkpt lat="39.341249585391125" lon="17.068080169190626"><ele>39.42857142857143</ele><time>2026-03-28T16:31:28Z</time></trkpt><trkpt lat="39.3413005252075" lon="17.068137683787544"><ele>39.285714285714285</ele><time>2026-03-28T16:31:29Z</time></trkpt><trkpt lat="39.341359743656795" lon="17.068181507381638"><ele>39.142857142857146</ele><time>2026-03-28T16:31:30Z</time></trkpt><trkpt lat="39.34142546157979" lon="17.06821203481624"><ele>39.0</ele><time>2026-03-28T16:31:31Z</time></trkpt><trkpt lat="39.341495650917444" lon="17.06823015307935"><ele>38.8</ele><time>2026-03-28T16:31:32Z</time></trkpt><trkpt lat="39.34156871539009" lon="17.06824216382265"><ele>38.599999999999994</ele><time>2026-03-28T16:31:33Z</time></trkpt><trkpt lat="39.34165258519819" lon="17.068251410901283"><ele>38.4</ele><time>2026-03-28T16:31:34Z</time></trkpt><trkpt lat="39.34176603710844" lon="17.068261261452975"><ele>38.199999999999996</ele><time>2026-03-28T16:31:35Z</time></trkpt><trkpt lat="39.341903208773736" lon="17.068278052334886"><ele>38.0</ele><time>2026-03-28T16:31:36Z</time></trkpt><trkpt lat="39.34205871263566" lon="17.068314595314924"><ele>39.75</ele><time>2026-03-28T16:31:37Z</time></trkpt><trkpt lat="39.342216492189955" lon="17.06839096602688"><ele>41.5</ele><time>2026-03-28T16:31:38Z</time></trkpt><trkpt lat="39.34233863222388" lon="17.06851912164309"><ele>43.25</ele><time>2026-03-28T16:31:39Z</time></trkpt><trkpt lat="39.3424463707579" lon="17.068597149810685"><ele>45.0</ele><time>2026-03-28T16:31:40Z</time></trkpt><trkpt lat="39.34253666097415" lon="17.068687703934877"><ele>45.0</ele><time>2026-03-28T16:31:41Z</time></trkpt><trkpt lat="39.34262041404273" lon="17.068773447917902"><ele>45.0</ele><time>2026-03-28T16:31:42Z</time></trkpt><trkpt lat="39.34270020437367" lon="17.068862680110097"><ele>45.0</ele><time>2026-03-28T16:31:43Z</time></trkpt><trkpt lat="39.342771680281565" lon="17.068957305386913"><ele>45.0</ele><time>2026-03-28T16:31:44Z</time></trkpt><trkpt lat="39.342840671530176" lon="17.069061716958277"><ele>45.0</ele><time>2026-03-28T16:31:45Z</time></trkpt><trkpt lat="39.34290964292662" lon="17.06916985228296"><ele>44.8</ele><time>2026-03-28T16:31:46Z</time></trkpt><trkpt lat="39.34298145322631" lon="17.06927713412749"><ele>44.6</ele><time>2026-03-28T16:31:47Z</time></trkpt><trkpt lat="39.34305046092797" lon="17.069385439296276"><ele>44.400000000000006</ele><time>2026-03-28T16:31:48Z</time></trkpt><trkpt lat="39.34312271397088" lon="17.069488261147903"><ele>44.2</ele><time>2026-03-28T16:31:49Z</time></trkpt><trkpt lat="39.3431994899416" lon="17.069586840136385"><ele>44.0</ele><time>2026-03-28T16:31:50Z</time></trkpt><trkpt lat="39.343281988752466" lon="17.069681281734784"><ele>44.0</ele><time>2026-03-28T16:31:51Z</time></trkpt><trkpt lat="39.343366688878724" lon="17.06977289343516"><ele>44.0</ele><time>2026-03-28T16:31:52Z</time></trkpt><trkpt lat="39.343453921433614" lon="17.069862640914124"><ele>44.0</ele><time>2026-03-28T16:31:53Z</time></trkpt><trkpt lat="39.343541482400774" lon="17.06995310224436"><ele>44.0</ele><time>2026-03-28T16:31:54Z</time></trkpt><trkpt lat="39.3436299518447" lon="17.07004371699398"><ele>44.0</ele><time>2026-03-28T16:31:55Z</time></trkpt><trkpt lat="39.343719743435514" lon="17.070133383012987"><ele>44.0</ele><time>2026-03-28T16:31:56Z</time></trkpt><trkpt lat="39.343809895638074" lon="17.070222381630067"><ele>44.0</ele><time>2026-03-28T16:31:57Z</time></trkpt><trkpt lat="39.34389886385091" lon="17.070314773508887"><ele>44.0</ele><time>2026-03-28T16:31:58Z</time></trkpt><trkpt lat="39.343985961266476" lon="17.070404957105048"><ele>44.0</ele><time>2026-03-28T16:31:59Z</time></trkpt><trkpt lat="39.344064039583635" lon="17.070486046129236"><ele>44.0</ele><time>2026-03-28T16:32:00Z</time></trkpt><trkpt lat="39.344140593634684" lon="17.070571351148537"><ele>44.0</ele><time>2026-03-28T16:32:01Z</time></trkpt><trkpt lat="39.34421073912845" lon="17.07064597734614"><ele>44.0</ele><time>2026-03-28T16:32:02Z</time></trkpt><trkpt lat="39.34428336034458" lon="17.07071073820573"><ele>44.0</ele><time>2026-03-28T16:32:03Z</time></trkpt><trkpt lat="39.34436610393012" lon="17.070772039562616"><ele>44.0</ele><time>2026-03-28T16:32:04Z</time></trkpt><trkpt lat="39.344454199829826" lon="17.07082989485677"><ele>44.0</ele><time>2026-03-28T16:32:05Z</time></trkpt><trkpt lat="39.344547848464615" lon="17.07087790920552"><ele>42.83333333333333</ele><time>2026-03-28T16:32:06Z</time></trkpt><trkpt lat="39.344643411304524" lon="17.070910217296557"><ele>41.666666666666664</ele><time>2026-03-28T16:32:07Z</time></trkpt><trkpt lat="39.34473162256939" lon="17.070933906445784"><ele>40.5</ele><time>2026-03-28T16:32:08Z</time></trkpt><trkpt lat="39.34481557185986" lon="17.07095035697914"><ele>39.333333333333336</ele><time>2026-03-28T16:32:09Z</time></trkpt><trkpt lat="39.344898291097806" lon="17.070966995146435"><ele>38.16666666666667</ele><time>2026-03-28T16:32:10Z</time></trkpt><trkpt lat="39.344978513853114" lon="17.070981959935462"><ele>37.0</ele><time>2026-03-28T16:32:11Z</time></trkpt><trkpt lat="39.345059882559624" lon="17.070995071380764"><ele>37.0</ele><time>2026-03-28T16:32:12Z</time></trkpt><trkpt lat="39.34513813916471" lon="17.071007490892924"><ele>37.0</ele><time>2026-03-28T16:32:13Z</time></trkpt><trkpt lat="39.34520467396171" lon="17.071019647068454"><ele>37.0</ele><time>2026-03-28T16:32:14Z</time></trkpt><trkpt lat="39.345327198856886" lon="17.071049003440702"><ele>37.0</ele><time>2026-03-28T16:32:16Z</time></trkpt><trkpt lat="39.34538841364675" lon="17.071097399280664"><ele>37.0</ele><time>2026-03-28T16:32:17Z</time></trkpt><trkpt lat="39.34544519540543" lon="17.07117198722656"><ele>37.0</ele><time>2026-03-28T16:32:18Z</time></trkpt><trkpt lat="39.34548487223965" lon="17.071274225700336"><ele>37.0</ele><time>2026-03-28T16:32:19Z</time></trkpt><trkpt lat="39.345510037996526" lon="17.071390695224363"><ele>37.0</ele><time>2026-03-28T16:32:20Z</time></trkpt><trkpt lat="39.34552898358963" lon="17.071509394911242"><ele>37.0</ele><time>2026-03-28T16:32:21Z</time></trkpt><trkpt lat="39.345546485858456" lon="17.071624092182844"><ele>37.0</ele><time>2026-03-28T16:32:22Z</time></trkpt><trkpt lat="39.34556297913097" lon="17.0717319907973"><ele>37.0</ele><time>2026-03-28T16:32:23Z</time></trkpt><trkpt lat="39.34557833237039" lon="17.0718370036748"><ele>37.0</ele><time>2026-03-28T16:32:24Z</time></trkpt><trkpt lat="39.34559168950534" lon="17.071933968025704"><ele>35.6</ele><time>2026-03-28T16:32:25Z</time></trkpt><trkpt lat="39.34560342210203" lon="17.07202346840507"><ele>34.2</ele><time>2026-03-28T16:32:26Z</time></trkpt><trkpt lat="39.345614162832824" lon="17.072106559744398"><ele>32.8</ele><time>2026-03-28T16:32:27Z</time></trkpt><trkpt lat="39.345633542132646" lon="17.072252507625556"><ele>31.4</ele><time>2026-03-28T16:32:29Z</time></trkpt><trkpt lat="39.345656878978005" lon="17.072391823986223"><ele>30.0</ele><time>2026-03-28T16:32:31Z</time></trkpt><trkpt lat="39.34567971566974" lon="17.07253964378581"><ele>29.833333333333332</ele><time>2026-03-28T16:32:33Z</time></trkpt><trkpt lat="39.34569742729889" lon="17.072662321708027"><ele>29.666666666666664</ele><time>2026-03-28T16:32:35Z</time></trkpt><trkpt lat="39.34572053714852" lon="17.07281152493378"><ele>29.5</ele><time>2026-03-28T16:32:37Z</time></trkpt><trkpt lat="39.345735468807476" lon="17.072901537195044"><ele>29.333333333333332</ele><time>2026-03-28T16:32:38Z</time></trkpt><trkpt lat="39.34574990351261" lon="17.07299200487313"><ele>29.166666666666664</ele><time>2026-03-28T16:32:39Z</time></trkpt><trkpt lat="39.345763875235036" lon="17.073081322958135"><ele>29.0</ele><time>2026-03-28T16:32:40Z</time></trkpt><trkpt lat="39.34577745672238" lon="17.07316924603801"><ele>29.000000000000004</ele><time>2026-03-28T16:32:41Z</time></trkpt><trkpt lat="39.345790212368414" lon="17.07325613584128"><ele>29.0</ele><time>2026-03-28T16:32:42Z</time></trkpt><trkpt lat="39.345803598430756" lon="17.073342515627935"><ele>29.000000000000004</ele><time>2026-03-28T16:32:43Z</time></trkpt><trkpt lat="39.345817467950404" lon="17.073428516182876"><ele>29.000000000000004</ele><time>2026-03-28T16:32:44Z</time></trkpt><trkpt lat="39.345832237349875" lon="17.073515072243204"><ele>29.0</ele><time>2026-03-28T16:32:45Z</time></trkpt><trkpt lat="39.345846441480504" lon="17.07360229985424"><ele>29.000000000000004</ele><time>2026-03-28T16:32:46Z</time></trkpt><trkpt lat="39.34585931847175" lon="17.07368921777714"><ele>29.000000000000004</ele><time>2026-03-28T16:32:47Z</time></trkpt><trkpt lat="39.34587211992782" lon="17.073776681679494"><ele>28.71428571428572</ele><time>2026-03-28T16:32:48Z</time></trkpt><trkpt lat="39.34588610645391" lon="17.073863938994812"><ele>28.42857142857143</ele><time>2026-03-28T16:32:49Z</time></trkpt><trkpt lat="39.3459006696613" lon="17.07395087424578"><ele>28.142857142857146</ele><time>2026-03-28T16:32:50Z</time></trkpt><trkpt lat="39.34591494228622" lon="17.07403776569894"><ele>27.85714285714286</ele><time>2026-03-28T16:32:51Z</time></trkpt><trkpt lat="39.34592979057873" lon="17.074131227441974"><ele>27.57142857142857</ele><time>2026-03-28T16:32:52Z</time></trkpt><trkpt lat="39.34594528364001" lon="17.074230486577136"><ele>27.285714285714285</ele><time>2026-03-28T16:32:53Z</time></trkpt><trkpt lat="39.3459607137594" lon="17.074335535084764"><ele>27.0</ele><time>2026-03-28T16:32:54Z</time></trkpt><trkpt lat="39.34597586150345" lon="17.07444461997496"><ele>27.0</ele><time>2026-03-28T16:32:55Z</time></trkpt><trkpt lat="39.34599365496127" lon="17.074563819845064"><ele>27.000000000000004</ele><time>2026-03-28T16:32:56Z</time></trkpt><trkpt lat="39.34601441538856" lon="17.07468968472037"><ele>27.000000000000004</ele><time>2026-03-28T16:32:57Z</time></trkpt><trkpt lat="39.346036182410934" lon="17.0748151545252"><ele>27.0</ele><time>2026-03-28T16:32:58Z</time></trkpt><trkpt lat="39.346058576270565" lon="17.074939067278162"><ele>27.0</ele><time>2026-03-28T16:32:59Z</time></trkpt><trkpt lat="39.34607760683472" lon="17.07506314542696"><ele>27.0</ele><time>2026-03-28T16:33:00Z</time></trkpt><trkpt lat="39.346094884235086" lon="17.075179049765318"><ele>27.0</ele><time>2026-03-28T16:33:01Z</time></trkpt><trkpt lat="39.34610970647859" lon="17.07528396906805"><ele>27.0</ele><time>2026-03-28T16:33:02Z</time></trkpt><trkpt lat="39.346125094180174" lon="17.07539166040304"><ele>27.0</ele><time>2026-03-28T16:33:03Z</time></trkpt><trkpt lat="39.34614494885926" lon="17.075499052614642"><ele>27.0</ele><time>2026-03-28T16:33:04Z</time></trkpt><trkpt lat="39.34616785910253" lon="17.07560286624467"><ele>27.0</ele><time>2026-03-28T16:33:05Z</time></trkpt><trkpt lat="39.346194265838335" lon="17.075704366641222"><ele>26.833333333333332</ele><time>2026-03-28T16:33:06Z</time></trkpt><trkpt lat="39.34622395555611" lon="17.075803147771975"><ele>26.666666666666664</ele><time>2026-03-28T16:33:07Z</time></trkpt><trkpt lat="39.34625597802669" lon="17.075900255083052"><ele>26.5</ele><time>2026-03-28T16:33:08Z</time></trkpt><trkpt lat="39.34629242519821" lon="17.075996248248924"><ele>26.333333333333332</ele><time>2026-03-28T16:33:09Z</time></trkpt><trkpt lat="39.346330718130474" lon="17.07609271457262"><ele>26.166666666666664</ele><time>2026-03-28T16:33:10Z</time></trkpt><trkpt lat="39.34636699168545" lon="17.076184003245842"><ele>26.0</ele><time>2026-03-28T16:33:11Z</time></trkpt><trkpt lat="39.34640495763719" lon="17.076272174002305"><ele>25.999999999999996</ele><time>2026-03-28T16:33:12Z</time></trkpt><trkpt lat="39.34644485826322" lon="17.07635958231237"><ele>26.0</ele><time>2026-03-28T16:33:13Z</time></trkpt><trkpt lat="39.34648460361395" lon="17.076448271255767"><ele>26.0</ele><time>2026-03-28T16:33:14Z</time></trkpt><trkpt lat="39.346526960126496" lon="17.07653880673365"><ele>26.0</ele><time>2026-03-28T16:33:15Z</time></trkpt><trkpt lat="39.346572569545756" lon="17.076628795594765"><ele>25.999999999999996</ele><time>2026-03-28T16:33:16Z</time></trkpt><trkpt lat="39.34661938700599" lon="17.076721466780867"><ele>26.0</ele><time>2026-03-28T16:33:17Z</time></trkpt><trkpt lat="39.34666933663819" lon="17.076812187000236"><ele>26.4</ele><time>2026-03-28T16:33:18Z</time></trkpt><trkpt lat="39.346720519048986" lon="17.076904252493698"><ele>26.8</ele><time>2026-03-28T16:33:19Z</time></trkpt><trkpt lat="39.34677728708472" lon="17.077003722274696"><ele>27.199999999999996</ele><time>2026-03-28T16:33:20Z</time></trkpt><trkpt lat="39.34684464544057" lon="17.077127365291865"><ele>27.599999999999998</ele><time>2026-03-28T16:33:21Z</time></trkpt><trkpt lat="39.346913538079036" lon="17.077263954868766"><ele>28.0</ele><time>2026-03-28T16:33:22Z</time></trkpt><trkpt lat="39.34697649086975" lon="17.077416479263714"><ele>28.0</ele><time>2026-03-28T16:33:23Z</time></trkpt><trkpt lat="39.347015139188066" lon="17.077561596197043"><ele>27.999999999999996</ele><time>2026-03-28T16:33:24Z</time></trkpt><trkpt lat="39.34703049421619" lon="17.077699205643047"><ele>27.999999999999996</ele><time>2026-03-28T16:33:25Z</time></trkpt><trkpt lat="39.34702155971967" lon="17.077842388325024"><ele>28.0</ele><time>2026-03-28T16:33:26Z</time></trkpt><trkpt lat="39.3470001396133" lon="17.077976745380923"><ele>28.0</ele><time>2026-03-28T16:33:27Z</time></trkpt><trkpt lat="39.34698508166215" lon="17.078097805581326"><ele>28.0</ele><time>2026-03-28T16:33:28Z</time></trkpt><trkpt lat="39.34697673492218" lon="17.07822133485122"><ele>27.999999999999996</ele><time>2026-03-28T16:33:29Z</time></trkpt><trkpt lat="39.34697292264328" lon="17.078348429361707"><ele>27.999999999999996</ele><time>2026-03-28T16:33:30Z</time></trkpt><trkpt lat="39.34697047790959" lon="17.07848030884307"><ele>28.0</ele><time>2026-03-28T16:33:31Z</time></trkpt><trkpt lat="39.346969451175745" lon="17.07860197907143"><ele>28.0</ele><time>2026-03-28T16:33:32Z</time></trkpt><trkpt lat="39.346966339071066" lon="17.07871451622299"><ele>28.0</ele><time>2026-03-28T16:33:33Z</time></trkpt><trkpt lat="39.34696117026616" lon="17.078829504618998"><ele>27.999999999999996</ele><time>2026-03-28T16:33:34Z</time></trkpt><trkpt lat="39.346951496268446" lon="17.078945868481128"><ele>27.999999999999996</ele><time>2026-03-28T16:33:35Z</time></trkpt><trkpt lat="39.346938687591695" lon="17.079065582800922"><ele>28.0</ele><time>2026-03-28T16:33:36Z</time></trkpt><trkpt lat="39.34692624050393" lon="17.07918876744778"><ele>28.0</ele><time>2026-03-28T16:33:37Z</time></trkpt><trkpt lat="39.34691103339072" lon="17.079310075118126"><ele>27.799999999999997</ele><time>2026-03-28T16:33:38Z</time></trkpt><trkpt lat="39.346897717237745" lon="17.079430151960153"><ele>27.599999999999998</ele><time>2026-03-28T16:33:39Z</time></trkpt><trkpt lat="39.34688470987677" lon="17.079549223355517"><ele>27.400000000000002</ele><time>2026-03-28T16:33:40Z</time></trkpt><trkpt lat="39.346870152940774" lon="17.07966497187218"><ele>27.200000000000003</ele><time>2026-03-28T16:33:41Z</time></trkpt><trkpt lat="39.34685367524373" lon="17.07978591558012"><ele>27.0</ele><time>2026-03-28T16:33:42Z</time></trkpt><trkpt lat="39.346840100591834" lon="17.079914043760596"><ele>27.0</ele><time>2026-03-28T16:33:43Z</time></trkpt><trkpt lat="39.346826082688715" lon="17.080047257079144"><ele>27.000000000000004</ele><time>2026-03-28T16:33:44Z</time></trkpt><trkpt lat="39.346814191665615" lon="17.080185473688996"><ele>27.000000000000004</ele><time>2026-03-28T16:33:45Z</time></trkpt><trkpt lat="39.346810332358736" lon="17.080326618706028"><ele>27.0</ele><time>2026-03-28T16:33:46Z</time></trkpt><trkpt lat="39.3468185410914" lon="17.08046977297007"><ele>27.0</ele><time>2026-03-28T16:33:47Z</time></trkpt><trkpt lat="39.3468406006295" lon="17.08061336448895"><ele>27.0</ele><time>2026-03-28T16:33:48Z</time></trkpt><trkpt lat="39.34688030003765" lon="17.080751375613097"><ele>27.0</ele><time>2026-03-28T16:33:49Z</time></trkpt><trkpt lat="39.34693289264378" lon="17.080884678692783"><ele>27.0</ele><time>2026-03-28T16:33:50Z</time></trkpt><trkpt lat="39.34699511076182" lon="17.081010126635594"><ele>27.0</ele><time>2026-03-28T16:33:51Z</time></trkpt><trkpt lat="39.34706509735585" lon="17.081127248414973"><ele>27.0</ele><time>2026-03-28T16:33:52Z</time></trkpt><trkpt lat="39.34713421467185" lon="17.081242455420856"><ele>27.000000000000004</ele><time>2026-03-28T16:33:53Z</time></trkpt><trkpt lat="39.34720340483393" lon="17.081353042203286"><ele>27.000000000000004</ele><time>2026-03-28T16:33:54Z</time></trkpt><trkpt lat="39.34727267499596" lon="17.081461352882307"><ele>27.0</ele><time>2026-03-28T16:33:55Z</time></trkpt><trkpt lat="39.34734021328814" lon="17.08156811234977"><ele>27.0</ele><time>2026-03-28T16:33:56Z</time></trkpt><trkpt lat="39.347407787480414" lon="17.081675884603495"><ele>27.0</ele><time>2026-03-28T16:33:57Z</time></trkpt><trkpt lat="39.347475634560034" lon="17.081785410953717"><ele>27.000000000000004</ele><time>2026-03-28T16:33:58Z</time></trkpt><trkpt lat="39.34754428148896" lon="17.08189717044266"><ele>27.000000000000004</ele><time>2026-03-28T16:33:59Z</time></trkpt><trkpt lat="39.34761553086892" lon="17.082007600799784"><ele>27.0</ele><time>2026-03-28T16:34:00Z</time></trkpt><trkpt lat="39.3476864583976" lon="17.082118121643465"><ele>27.0</ele><time>2026-03-28T16:34:01Z</time></trkpt><trkpt lat="39.347757512898504" lon="17.082229099178548"><ele>27.0</ele><time>2026-03-28T16:34:02Z</time></trkpt><trkpt lat="39.34783016996222" lon="17.082342448437647"><ele>27.0</ele><time>2026-03-28T16:34:03Z</time></trkpt><trkpt lat="39.34790427788488" lon="17.082459548021472"><ele>27.0</ele><time>2026-03-28T16:34:04Z</time></trkpt><trkpt lat="39.34797941898164" lon="17.08257690238992"><ele>27.0</ele><time>2026-03-28T16:34:05Z</time></trkpt><trkpt lat="39.34805397074403" lon="17.082695343991762"><ele>26.25</ele><time>2026-03-28T16:34:06Z</time></trkpt><trkpt lat="39.348128233511765" lon="17.08281457954591"><ele>25.5</ele><time>2026-03-28T16:34:07Z</time></trkpt><trkpt lat="39.34820254142453" lon="17.082932748886236"><ele>24.75</ele><time>2026-03-28T16:34:08Z</time></trkpt><trkpt lat="39.34827733811371" lon="17.083050770366658"><ele>24.0</ele><time>2026-03-28T16:34:09Z</time></trkpt><trkpt lat="39.34835222447706" lon="17.08316957752058"><ele>23.0</ele><time>2026-03-28T16:34:10Z</time></trkpt><trkpt lat="39.34842672043221" lon="17.08328689310883"><ele>22.0</ele><time>2026-03-28T16:34:11Z</time></trkpt><trkpt lat="39.3485016963666" lon="17.083404062792113"><ele>21.0</ele><time>2026-03-28T16:34:12Z</time></trkpt><trkpt lat="39.348577823705135" lon="17.083521243513093"><ele>20.0</ele><time>2026-03-28T16:34:13Z</time></trkpt><trkpt lat="39.34865378880874" lon="17.08363966332309"><ele>20.0</ele><time>2026-03-28T16:34:14Z</time></trkpt><trkpt lat="39.34872800013963" lon="17.083760868043537"><ele>20.0</ele><time>2026-03-28T16:34:15Z</time></trkpt><trkpt lat="39.34880346804034" lon="17.08388102049466"><ele>20.0</ele><time>2026-03-28T16:34:16Z</time></trkpt><trkpt lat="39.34887929185366" lon="17.084001951982835"><ele>20.0</ele><time>2026-03-28T16:34:17Z</time></trkpt><trkpt lat="39.348955050924936" lon="17.084122787671152"><ele>20.5</ele><time>2026-03-28T16:34:18Z</time></trkpt><trkpt lat="39.34903042427727" lon="17.084244754504603"><ele>21.0</ele><time>2026-03-28T16:34:19Z</time></trkpt><trkpt lat="39.34910609422914" lon="17.08436708135214"><ele>21.5</ele><time>2026-03-28T16:34:20Z</time></trkpt><trkpt lat="39.34918211058132" lon="17.08449069962165"><ele>22.0</ele><time>2026-03-28T16:34:21Z</time></trkpt><trkpt lat="39.34925968853832" lon="17.0846152963448"><ele>22.0</ele><time>2026-03-28T16:34:22Z</time></trkpt><trkpt lat="39.3493377084754" lon="17.08474455491542"><ele>22.0</ele><time>2026-03-28T16:34:23Z</time></trkpt><trkpt lat="39.34941745355745" lon="17.084875728273758"><ele>22.0</ele><time>2026-03-28T16:34:24Z</time></trkpt><trkpt lat="39.34949338191204" lon="17.0850140099826"><ele>22.0</ele><time>2026-03-28T16:34:25Z</time></trkpt><trkpt lat="39.34956581131032" lon="17.085158743962094"><ele>20.666666666666664</ele><time>2026-03-28T16:34:26Z</time></trkpt><trkpt lat="39.34962952274139" lon="17.08531517798584"><ele>19.333333333333332</ele><time>2026-03-28T16:34:27Z</time></trkpt><trkpt lat="39.34968970724385" lon="17.085500710811516"><ele>18.0</ele><time>2026-03-28T16:34:28Z</time></trkpt><trkpt lat="39.34974403310286" lon="17.085711125218367"><ele>18.333333333333332</ele><time>2026-03-28T16:34:29Z</time></trkpt><trkpt lat="39.3497997270295" lon="17.085939426592738"><ele>18.666666666666664</ele><time>2026-03-28T16:34:30Z</time></trkpt><trkpt lat="39.349861031875434" lon="17.08618036142468"><ele>19.0</ele><time>2026-03-28T16:34:31Z</time></trkpt><trkpt lat="39.3499275823991" lon="17.086433126787995"><ele>19.0</ele><time>2026-03-28T16:34:32Z</time></trkpt><trkpt lat="39.349998514014565" lon="17.086695729326824"><ele>19.0</ele><time>2026-03-28T16:34:33Z</time></trkpt><trkpt lat="39.35008322227084" lon="17.086961759109165"><ele>19.0</ele><time>2026-03-28T16:34:34Z</time></trkpt><trkpt lat="39.35018315912387" lon="17.08722927296108"><ele>19.0</ele><time>2026-03-28T16:34:35Z</time></trkpt><trkpt lat="39.35028761030301" lon="17.08750142732243"><ele>19.0</ele><time>2026-03-28T16:34:36Z</time></trkpt><trkpt lat="39.35039653851821" lon="17.087776769568613"><ele>19.0</ele><time>2026-03-28T16:34:37Z</time></trkpt><trkpt lat="39.3505071532678" lon="17.08805843806302"><ele>19.0</ele><time>2026-03-28T16:34:38Z</time></trkpt><trkpt lat="39.35062111686583" lon="17.08834313694782"><ele>18.5</ele><time>2026-03-28T16:34:39Z</time></trkpt><trkpt lat="39.350733557711614" lon="17.08863169013991"><ele>18.0</ele><time>2026-03-28T16:34:40Z</time></trkpt><trkpt lat="39.35084817958804" lon="17.08892185497439"><ele>17.5</ele><time>2026-03-28T16:34:41Z</time></trkpt><trkpt lat="39.35096520975895" lon="17.08921027517882"><ele>17.0</ele><time>2026-03-28T16:34:42Z</time></trkpt><trkpt lat="39.3510799108392" lon="17.089499146438946"><ele>17.0</ele><time>2026-03-28T16:34:43Z</time></trkpt><trkpt lat="39.35119850395697" lon="17.08978549518512"><ele>17.0</ele><time>2026-03-28T16:34:44Z</time></trkpt><trkpt lat="39.351298277962286" lon="17.090081532589025"><ele>19.0</ele><time>2026-03-28T16:34:45Z</time></trkpt><trkpt lat="39.35141437656224" lon="17.090366530515997"><ele>21.0</ele><time>2026-03-28T16:34:46Z</time></trkpt><trkpt lat="39.35154430769765" lon="17.090643716337226"><ele>20.0</ele><time>2026-03-28T16:34:47Z</time></trkpt><trkpt lat="39.35165921559834" lon="17.09093119214814"><ele>19.0</ele><time>2026-03-28T16:34:48Z</time></trkpt><trkpt lat="39.35177495406947" lon="17.091218017608245"><ele>19.0</ele><time>2026-03-28T16:34:49Z</time></trkpt><trkpt lat="39.351893322199736" lon="17.09150646593365"><ele>19.0</ele><time>2026-03-28T16:34:50Z</time></trkpt><trkpt lat="39.35201122653176" lon="17.091793191006545"><ele>19.5</ele><time>2026-03-28T16:34:51Z</time></trkpt><trkpt lat="39.35212895503911" lon="17.092077465418676"><ele>20.0</ele><time>2026-03-28T16:34:52Z</time></trkpt><trkpt lat="39.35224487438981" lon="17.0923631801408"><ele>18.5</ele><time>2026-03-28T16:34:53Z</time></trkpt><trkpt lat="39.35236340163197" lon="17.09264868152173"><ele>17.0</ele><time>2026-03-28T16:34:54Z</time></trkpt><trkpt lat="39.35248301269696" lon="17.092933912621397"><ele>17.0</ele><time>2026-03-28T16:34:55Z</time></trkpt><trkpt lat="39.35260190114431" lon="17.093219912528188"><ele>17.0</ele><time>2026-03-28T16:34:56Z</time></trkpt><trkpt lat="39.352715002909825" lon="17.09349840650907"><ele>16.333333333333336</ele><time>2026-03-28T16:34:57Z</time></trkpt><trkpt lat="39.35282056837943" lon="17.093753958830952"><ele>15.666666666666668</ele><time>2026-03-28T16:34:58Z</time></trkpt><trkpt lat="39.352919233996424" lon="17.093994469895634"><ele>15.0</ele><time>2026-03-28T16:34:59Z</time></trkpt><trkpt lat="39.35301616784205" lon="17.09423090611442"><ele>15.0</ele><time>2026-03-28T16:35:00Z</time></trkpt><trkpt lat="39.353108885677656" lon="17.094454300429614"><ele>15.0</ele><time>2026-03-28T16:35:01Z</time></trkpt><trkpt lat="39.353200430417814" lon="17.094666792218533"><ele>15.0</ele><time>2026-03-28T16:35:02Z</time></trkpt><trkpt lat="39.35331552759115" lon="17.094866845056256"><ele>15.0</ele><time>2026-03-28T16:35:03Z</time></trkpt><trkpt lat="39.35344863942018" lon="17.095057960327296"><ele>15.0</ele><time>2026-03-28T16:35:04Z</time></trkpt><trkpt lat="39.35361527593376" lon="17.095212407715355"><ele>15.0</ele><time>2026-03-28T16:35:05Z</time></trkpt><trkpt lat="39.35380087737595" lon="17.095348980215512"><ele>15.0</ele><time>2026-03-28T16:35:06Z</time></trkpt><trkpt lat="39.35399178279717" lon="17.09548482340494"><ele>15.0</ele><time>2026-03-28T16:35:07Z</time></trkpt><trkpt lat="39.35418699592451" lon="17.095627626621464"><ele>15.0</ele><time>2026-03-28T16:35:08Z</time></trkpt><trkpt lat="39.354379117923614" lon="17.095766661112673"><ele>15.0</ele><time>2026-03-28T16:35:09Z</time></trkpt><trkpt lat="39.354555067932" lon="17.09590036319428"><ele>15.0</ele><time>2026-03-28T16:35:10Z</time></trkpt><trkpt lat="39.35472942383925" lon="17.09603161612469"><ele>15.0</ele><time>2026-03-28T16:35:11Z</time></trkpt><trkpt lat="39.35490046361347" lon="17.096153964168597"><ele>16.333333333333332</ele><time>2026-03-28T16:35:12Z</time></trkpt><trkpt lat="39.355060328035826" lon="17.09627232444743"><ele>17.666666666666664</ele><time>2026-03-28T16:35:13Z</time></trkpt><trkpt lat="39.355198363776175" lon="17.09637586893397"><ele>19.0</ele><time>2026-03-28T16:35:14Z</time></trkpt><trkpt lat="39.3553114906892" lon="17.096459549195746"><ele>19.0</ele><time>2026-03-28T16:35:15Z</time></trkpt><trkpt lat="39.35542139968832" lon="17.096545827854115"><ele>19.0</ele><time>2026-03-28T16:35:16Z</time></trkpt><trkpt lat="39.355529073947594" lon="17.09662798277241"><ele>19.0</ele><time>2026-03-28T16:35:17Z</time></trkpt><trkpt lat="39.35562958961556" lon="17.096705266319457"><ele>19.0</ele><time>2026-03-28T16:35:18Z</time></trkpt><trkpt lat="39.35573316860824" lon="17.096794330317756"><ele>20.0</ele><time>2026-03-28T16:35:19Z</time></trkpt><trkpt lat="39.355837424735064" lon="17.096892631589203"><ele>21.0</ele><time>2026-03-28T16:35:20Z</time></trkpt><trkpt lat="39.35594120553594" lon="17.09699684984129"><ele>22.0</ele><time>2026-03-28T16:35:21Z</time></trkpt><trkpt lat="39.35603783117359" lon="17.09710116346944"><ele>23.0</ele><time>2026-03-28T16:35:22Z</time></trkpt><trkpt lat="39.356138287527365" lon="17.097213816984457"><ele>23.0</ele><time>2026-03-28T16:35:23Z</time></trkpt><trkpt lat="39.35623393698685" lon="17.097327109594822"><ele>23.0</ele><time>2026-03-28T16:35:24Z</time></trkpt><trkpt lat="39.356333898461095" lon="17.097447170266925"><ele>23.0</ele><time>2026-03-28T16:35:25Z</time></trkpt><trkpt lat="39.356434146572674" lon="17.09756660121596"><ele>23.0</ele><time>2026-03-28T16:35:26Z</time></trkpt><trkpt lat="39.356528239016185" lon="17.09768007758476"><ele>23.4</ele><time>2026-03-28T16:35:27Z</time></trkpt><trkpt lat="39.356619143866745" lon="17.097782792236302"><ele>23.799999999999997</ele><time>2026-03-28T16:35:28Z</time></trkpt><trkpt lat="39.35669727545629" lon="17.097874451947618"><ele>24.2</ele><time>2026-03-28T16:35:29Z</time></trkpt><trkpt lat="39.356768265566735" lon="17.097960388562797"><ele>24.6</ele><time>2026-03-28T16:35:30Z</time></trkpt><trkpt lat="39.356842094375516" lon="17.09804649314925"><ele>25.0</ele><time>2026-03-28T16:35:31Z</time></trkpt><trkpt lat="39.356915473800896" lon="17.098134206913567"><ele>25.0</ele><time>2026-03-28T16:35:32Z</time></trkpt><trkpt lat="39.35699086301252" lon="17.09822086130688"><ele>25.0</ele><time>2026-03-28T16:35:33Z</time></trkpt><trkpt lat="39.3570635435881" lon="17.098309908515496"><ele>25.0</ele><time>2026-03-28T16:35:34Z</time></trkpt><trkpt lat="39.35712857429911" lon="17.0984090712305"><ele>25.0</ele><time>2026-03-28T16:35:35Z</time></trkpt><trkpt lat="39.35717800186377" lon="17.098519148105513"><ele>25.0</ele><time>2026-03-28T16:35:36Z</time></trkpt><trkpt lat="39.3572218199642" lon="17.098629790175504"><ele>25.75</ele><time>2026-03-28T16:35:37Z</time></trkpt><trkpt lat="39.35725272233765" lon="17.0987560923146"><ele>26.5</ele><time>2026-03-28T16:35:38Z</time></trkpt><trkpt lat="39.3572664153967" lon="17.098894614093904"><ele>27.25</ele><time>2026-03-28T16:35:39Z</time></trkpt><trkpt lat="39.3572773105426" lon="17.0990553227542"><ele>28.0</ele><time>2026-03-28T16:35:40Z</time></trkpt><trkpt lat="39.357290388108076" lon="17.099249646925042"><ele>28.0</ele><time>2026-03-28T16:35:41Z</time></trkpt><trkpt lat="39.35730443635429" lon="17.09946549957764"><ele>28.0</ele><time>2026-03-28T16:35:42Z</time></trkpt><trkpt lat="39.35733631761721" lon="17.09969677411534"><ele>28.0</ele><time>2026-03-28T16:35:43Z</time></trkpt><trkpt lat="39.35736298030563" lon="17.099927236465646"><ele>27.0</ele><time>2026-03-28T16:35:44Z</time></trkpt><trkpt lat="39.357405886725054" lon="17.100130209892185"><ele>26.0</ele><time>2026-03-28T16:35:45Z</time></trkpt><trkpt lat="39.357446350722086" lon="17.100299017814287"><ele>25.0</ele><time>2026-03-28T16:35:46Z</time></trkpt><trkpt lat="39.35748358634919" lon="17.10045308913648"><ele>24.0</ele><time>2026-03-28T16:35:47Z</time></trkpt><trkpt lat="39.35751578376685" lon="17.1006007061005"><ele>23.25</ele><time>2026-03-28T16:35:48Z</time></trkpt><trkpt lat="39.35754598379903" lon="17.100752695075485"><ele>22.5</ele><time>2026-03-28T16:35:49Z</time></trkpt><trkpt lat="39.35757414953138" lon="17.10090904451057"><ele>21.75</ele><time>2026-03-28T16:35:50Z</time></trkpt><trkpt lat="39.357601976994665" lon="17.101076212348655"><ele>21.0</ele><time>2026-03-28T16:35:51Z</time></trkpt><trkpt lat="39.3576274452994" lon="17.101246113447665"><ele>21.0</ele><time>2026-03-28T16:35:52Z</time></trkpt><trkpt lat="39.357649876069" lon="17.10140204817375"><ele>21.0</ele><time>2026-03-28T16:35:53Z</time></trkpt><trkpt lat="39.35767134228257" lon="17.101551277648884"><ele>21.0</ele><time>2026-03-28T16:35:54Z</time></trkpt><trkpt lat="39.35769218180699" lon="17.101698881706458"><ele>21.0</ele><time>2026-03-28T16:35:55Z</time></trkpt><trkpt lat="39.35771250838759" lon="17.101845293454804"><ele>21.0</ele><time>2026-03-28T16:35:56Z</time></trkpt><trkpt lat="39.35773333188985" lon="17.101989010656553"><ele>21.0</ele><time>2026-03-28T16:35:57Z</time></trkpt><trkpt lat="39.35775372826689" lon="17.1021249075069"><ele>21.0</ele><time>2026-03-28T16:35:58Z</time></trkpt><trkpt lat="39.357774342083324" lon="17.102262253000546"><ele>21.0</ele><time>2026-03-28T16:35:59Z</time></trkpt><trkpt lat="39.357792563332524" lon="17.102395423017548"><ele>21.0</ele><time>2026-03-28T16:36:00Z</time></trkpt><trkpt lat="39.35782600081901" lon="17.102527268319378"><ele>21.0</ele><time>2026-03-28T16:36:01Z</time></trkpt><trkpt lat="39.357842023630575" lon="17.10266560299886"><ele>21.0</ele><time>2026-03-28T16:36:02Z</time></trkpt><trkpt lat="39.35785930114488" lon="17.10280241563408"><ele>21.0</ele><time>2026-03-28T16:36:03Z</time></trkpt><trkpt lat="39.35787640588686" lon="17.10293991635996"><ele>21.0</ele><time>2026-03-28T16:36:04Z</time></trkpt><trkpt lat="39.357896001818936" lon="17.103080492958963"><ele>21.0</ele><time>2026-03-28T16:36:05Z</time></trkpt><trkpt lat="39.357915732594655" lon="17.10323424296463"><ele>21.5</ele><time>2026-03-28T16:36:06Z</time></trkpt><trkpt lat="39.35793285692064" lon="17.103393946627847"><ele>22.0</ele><time>2026-03-28T16:36:07Z</time></trkpt><trkpt lat="39.35794613165711" lon="17.103559378570846"><ele>22.5</ele><time>2026-03-28T16:36:08Z</time></trkpt><trkpt lat="39.35795671764107" lon="17.10373044326429"><ele>23.0</ele><time>2026-03-28T16:36:09Z</time></trkpt><trkpt lat="39.357966073627374" lon="17.103905229758944"><ele>23.0</ele><time>2026-03-28T16:36:10Z</time></trkpt><trkpt lat="39.35797313259503" lon="17.10407516604149"><ele>23.0</ele><time>2026-03-28T16:36:11Z</time></trkpt><trkpt lat="39.357981125245125" lon="17.104244192195516"><ele>23.0</ele><time>2026-03-28T16:36:12Z</time></trkpt><trkpt lat="39.35799035973214" lon="17.104417857875237"><ele>23.0</ele><time>2026-03-28T16:36:13Z</time></trkpt><trkpt lat="39.35800357458928" lon="17.104592769270923"><ele>22.75</ele><time>2026-03-28T16:36:14Z</time></trkpt><trkpt lat="39.35801634805527" lon="17.104755332329308"><ele>22.5</ele><time>2026-03-28T16:36:15Z</time></trkpt><trkpt lat="39.35803061566001" lon="17.104910083747335"><ele>22.25</ele><time>2026-03-28T16:36:16Z</time></trkpt><trkpt lat="39.35804383891528" lon="17.105061768086003"><ele>22.0</ele><time>2026-03-28T16:36:17Z</time></trkpt><trkpt lat="39.35805713453705" lon="17.105200306476018"><ele>22.200000000000003</ele><time>2026-03-28T16:36:18Z</time></trkpt><trkpt lat="39.358069727120856" lon="17.105341117133975"><ele>22.4</ele><time>2026-03-28T16:36:19Z</time></trkpt><trkpt lat="39.35808375208242" lon="17.105479256654473"><ele>22.6</ele><time>2026-03-28T16:36:20Z</time></trkpt><trkpt lat="39.35809930949705" lon="17.105617289253427"><ele>22.799999999999997</ele><time>2026-03-28T16:36:21Z</time></trkpt><trkpt lat="39.358114276536924" lon="17.10575858850599"><ele>23.0</ele><time>2026-03-28T16:36:22Z</time></trkpt><trkpt lat="39.35813281443701" lon="17.105900746207045"><ele>23.0</ele><time>2026-03-28T16:36:23Z</time></trkpt><trkpt lat="39.358154346962436" lon="17.106047666259887"><ele>23.0</ele><time>2026-03-28T16:36:24Z</time></trkpt><trkpt lat="39.35818274479394" lon="17.10619871626622"><ele>23.0</ele><time>2026-03-28T16:36:25Z</time></trkpt><trkpt lat="39.358221843631156" lon="17.106351880822434"><ele>23.0</ele><time>2026-03-28T16:36:26Z</time></trkpt><trkpt lat="39.35827288947856" lon="17.106503529986455"><ele>23.0</ele><time>2026-03-28T16:36:27Z</time></trkpt><trkpt lat="39.358332850773856" lon="17.106657662565855"><ele>23.0</ele><time>2026-03-28T16:36:28Z</time></trkpt><trkpt lat="39.3583932036383" lon="17.1068132441101"><ele>23.0</ele><time>2026-03-28T16:36:29Z</time></trkpt><trkpt lat="39.358451500860184" lon="17.106975143511207"><ele>23.0</ele><time>2026-03-28T16:36:30Z</time></trkpt><trkpt lat="39.358507726773304" lon="17.10713204966872"><ele>23.0</ele><time>2026-03-28T16:36:31Z</time></trkpt><trkpt lat="39.35856226254188" lon="17.107294085317932"><ele>23.0</ele><time>2026-03-28T16:36:32Z</time></trkpt><trkpt lat="39.35860986853358" lon="17.107457007694514"><ele>23.0</ele><time>2026-03-28T16:36:33Z</time></trkpt><trkpt lat="39.35865611614837" lon="17.107613325635608"><ele>23.0</ele><time>2026-03-28T16:36:34Z</time></trkpt><trkpt lat="39.35868220483403" lon="17.107762100384704"><ele>23.25</ele><time>2026-03-28T16:36:35Z</time></trkpt><trkpt lat="39.35872486384849" lon="17.107909642184623"><ele>23.5</ele><time>2026-03-28T16:36:36Z</time></trkpt><trkpt lat="39.35878851078002" lon="17.108043245678328"><ele>23.75</ele><time>2026-03-28T16:36:37Z</time></trkpt><trkpt lat="39.35883691643278" lon="17.108185598924063"><ele>24.0</ele><time>2026-03-28T16:36:38Z</time></trkpt><trkpt lat="39.35888542165175" lon="17.108325774715922"><ele>24.0</ele><time>2026-03-28T16:36:39Z</time></trkpt><trkpt lat="39.35893543800075" lon="17.108470617326528"><ele>24.0</ele><time>2026-03-28T16:36:40Z</time></trkpt><trkpt lat="39.358985947063395" lon="17.108611481935114"><ele>24.0</ele><time>2026-03-28T16:36:41Z</time></trkpt><trkpt lat="39.359030728298684" lon="17.108736414005257"><ele>24.0</ele><time>2026-03-28T16:36:42Z</time></trkpt><trkpt lat="39.359071245515196" lon="17.108849754816653"><ele>24.0</ele><time>2026-03-28T16:36:43Z</time></trkpt><trkpt lat="39.359105683408295" lon="17.10894968198837"><ele>24.0</ele><time>2026-03-28T16:36:44Z</time></trkpt><trkpt lat="39.359133738719606" lon="17.109040385030717"><ele>24.0</ele><time>2026-03-28T16:36:45Z</time></trkpt><trkpt lat="39.359157658858926" lon="17.109128973363564"><ele>24.0</ele><time>2026-03-28T16:36:46Z</time></trkpt><trkpt lat="39.35917815105003" lon="17.1092161215922"><ele>24.0</ele><time>2026-03-28T16:36:47Z</time></trkpt><trkpt lat="39.359203226180256" lon="17.10936783652454"><ele>24.0</ele><time>2026-03-28T16:36:49Z</time></trkpt><trkpt lat="39.359211385290614" lon="17.109450308800096"><ele>24.0</ele><time>2026-03-28T16:36:50Z</time></trkpt><trkpt lat="39.35922756789842" lon="17.109597725197073"><ele>23.4</ele><time>2026-03-28T16:36:52Z</time></trkpt><trkpt lat="39.35926356649885" lon="17.10974632258702"><ele>22.799999999999997</ele><time>2026-03-28T16:36:54Z</time></trkpt><trkpt lat="39.3592982861788" lon="17.109875767290216"><ele>22.200000000000003</ele><time>2026-03-28T16:36:55Z</time></trkpt><trkpt lat="39.35933463348584" lon="17.110021591709003"><ele>21.6</ele><time>2026-03-28T16:36:56Z</time></trkpt><trkpt lat="39.35936233816733" lon="17.11014516936362"><ele>21.0</ele><time>2026-03-28T16:36:57Z</time></trkpt><trkpt lat="39.35938474174146" lon="17.110259182884437"><ele>21.0</ele><time>2026-03-28T16:36:58Z</time></trkpt><trkpt lat="39.359400973934214" lon="17.11036860481011"><ele>21.0</ele><time>2026-03-28T16:36:59Z</time></trkpt><trkpt lat="39.35941270180082" lon="17.11048582431421"><ele>21.0</ele><time>2026-03-28T16:37:00Z</time></trkpt><trkpt lat="39.35941813579253" lon="17.110587671153443"><ele>21.0</ele><time>2026-03-28T16:37:01Z</time></trkpt><trkpt lat="39.35941719960245" lon="17.110674104502035"><ele>21.0</ele><time>2026-03-28T16:37:02Z</time></trkpt><trkpt lat="39.359407832316045" lon="17.110801055897724"><ele>21.0</ele><time>2026-03-28T16:37:04Z</time></trkpt><trkpt lat="39.35939177111863" lon="17.11090291495207"><ele>21.0</ele><time>2026-03-28T16:37:06Z</time></trkpt><trkpt lat="39.359380919973525" lon="17.110985544499545"><ele>21.0</ele><time>2026-03-28T16:37:16Z</time></trkpt><trkpt lat="39.359559861276196" lon="17.110984998104435"><ele>21.0</ele><time>2026-03-28T16:37:23Z</time></trkpt><trkpt lat="39.359623251477586" lon="17.111087704768273"><ele>21.0</ele><time>2026-03-28T16:37:25Z</time></trkpt><trkpt lat="39.35967647516921" lon="17.111163030624084"><ele>21.0</ele><time>2026-03-28T16:37:28Z</time></trkpt><trkpt lat="39.359717380600365" lon="17.111268912915065"><ele>21.0</ele><time>2026-03-28T16:37:30Z</time></trkpt><trkpt lat="39.35970280910297" lon="17.11139507161605"><ele>21.0</ele><time>2026-03-28T16:37:32Z</time></trkpt><trkpt lat="39.359648832329974" lon="17.11152396278432"><ele>21.0</ele><time>2026-03-28T16:37:34Z</time></trkpt><trkpt lat="39.359627392455856" lon="17.11160746598223"><ele>21.0</ele><time>2026-03-28T16:37:35Z</time></trkpt><trkpt lat="39.359609669036224" lon="17.11169329410674"><ele>21.0</ele><time>2026-03-28T16:37:36Z</time></trkpt><trkpt lat="39.35959048532338" lon="17.111776240970247"><ele>21.0</ele><time>2026-03-28T16:37:37Z</time></trkpt><trkpt lat="39.359541234201394" lon="17.111853612408826"><ele>20.25</ele><time>2026-03-28T16:37:39Z</time></trkpt><trkpt lat="39.35973152197072" lon="17.11196935610313"><ele>19.5</ele><time>2026-03-28T16:37:41Z</time></trkpt><trkpt lat="39.35983977613144" lon="17.112000735576398"><ele>18.75</ele><time>2026-03-28T16:37:42Z</time></trkpt><trkpt lat="39.359924619543555" lon="17.112026197124546"><ele>18.0</ele><time>2026-03-28T16:37:43Z</time></trkpt><trkpt lat="39.36000706152974" lon="17.11205494176846"><ele>18.0</ele><time>2026-03-28T16:37:44Z</time></trkpt><trkpt lat="39.360108211766196" lon="17.112089642165284"><ele>18.0</ele><time>2026-03-28T16:37:45Z</time></trkpt><trkpt lat="39.36020641898485" lon="17.112126177495647"><ele>18.0</ele><time>2026-03-28T16:37:46Z</time></trkpt><trkpt lat="39.360300161335694" lon="17.112161665696306"><ele>18.0</ele><time>2026-03-28T16:37:47Z</time></trkpt><trkpt lat="39.3603953060419" lon="17.112196335989733"><ele>18.0</ele><time>2026-03-28T16:37:48Z</time></trkpt><trkpt lat="39.360491513333024" lon="17.11223054566057"><ele>19.0</ele><time>2026-03-28T16:37:49Z</time></trkpt><trkpt lat="39.36058527997565" lon="17.11226314427652"><ele>20.0</ele><time>2026-03-28T16:37:50Z</time></trkpt><trkpt lat="39.360677683057844" lon="17.11229385879701"><ele>21.0</ele><time>2026-03-28T16:37:51Z</time></trkpt><trkpt lat="39.36076922440305" lon="17.112322823786975"><ele>22.0</ele><time>2026-03-28T16:37:52Z</time></trkpt><trkpt lat="39.36086163378775" lon="17.11235674401795"><ele>23.0</ele><time>2026-03-28T16:37:53Z</time></trkpt><trkpt lat="39.36095460808852" lon="17.112388197871965"><ele>22.4</ele><time>2026-03-28T16:37:54Z</time></trkpt><trkpt lat="39.36104950715" lon="17.11241968778447"><ele>21.799999999999997</ele><time>2026-03-28T16:37:55Z</time></trkpt><trkpt lat="39.36114467678372" lon="17.1124498775168"><ele>21.2</ele><time>2026-03-28T16:37:56Z</time></trkpt><trkpt lat="39.36124198063689" lon="17.112482422592628"><ele>20.6</ele><time>2026-03-28T16:37:57Z</time></trkpt><trkpt lat="39.36134112252593" lon="17.112515438860726"><ele>20.0</ele><time>2026-03-28T16:37:58Z</time></trkpt><trkpt lat="39.3614409030329" lon="17.1125477790772"><ele>19.8</ele><time>2026-03-28T16:37:59Z</time></trkpt><trkpt lat="39.36154153986744" lon="17.11257944885845"><ele>19.6</ele><time>2026-03-28T16:38:00Z</time></trkpt><trkpt lat="39.361639761079786" lon="17.112612974518015"><ele>19.4</ele><time>2026-03-28T16:38:01Z</time></trkpt><trkpt lat="39.36173981279775" lon="17.1126468112992"><ele>19.2</ele><time>2026-03-28T16:38:02Z</time></trkpt><trkpt lat="39.36184045681229" lon="17.112682343028595"><ele>19.0</ele><time>2026-03-28T16:38:03Z</time></trkpt><trkpt lat="39.361949730126504" lon="17.11272050904904"><ele>19.0</ele><time>2026-03-28T16:38:04Z</time></trkpt><trkpt lat="39.36208087350222" lon="17.112765655572204"><ele>19.0</ele><time>2026-03-28T16:38:05Z</time></trkpt><trkpt lat="39.36222928845458" lon="17.112818887262936"><ele>19.0</ele><time>2026-03-28T16:38:06Z</time></trkpt><trkpt lat="39.36235846584043" lon="17.11286039888166"><ele>19.0</ele><time>2026-03-28T16:38:07Z</time></trkpt><trkpt lat="39.3624750333499" lon="17.112900406012244"><ele>19.4</ele><time>2026-03-28T16:38:08Z</time></trkpt><trkpt lat="39.362587192691265" lon="17.1129393468459"><ele>19.799999999999997</ele><time>2026-03-28T16:38:09Z</time></trkpt><trkpt lat="39.36269767358441" lon="17.112977552563333"><ele>20.200000000000003</ele><time>2026-03-28T16:38:10Z</time></trkpt><trkpt lat="39.36279543948288" lon="17.113012685428135"><ele>20.6</ele><time>2026-03-28T16:38:11Z</time></trkpt><trkpt lat="39.36288727499279" lon="17.113044607973087"><ele>21.0</ele><time>2026-03-28T16:38:12Z</time></trkpt><trkpt lat="39.36296802655084" lon="17.113073632297272"><ele>21.5</ele><time>2026-03-28T16:38:13Z</time></trkpt><trkpt lat="39.36303667796477" lon="17.113090347712305"><ele>22.0</ele><time>2026-03-28T16:38:14Z</time></trkpt><trkpt lat="39.363101098955674" lon="17.113090314732474"><ele>22.5</ele><time>2026-03-28T16:38:15Z</time></trkpt><trkpt lat="39.36316792448616" lon="17.113095402287517"><ele>23.0</ele><time>2026-03-28T16:38:16Z</time></trkpt><trkpt lat="39.363241766434534" lon="17.113123703063916"><ele>23.5</ele><time>2026-03-28T16:38:17Z</time></trkpt><trkpt lat="39.36332152884998" lon="17.113162547275305"><ele>24.0</ele><time>2026-03-28T16:38:18Z</time></trkpt><trkpt lat="39.36341016652541" lon="17.113207291535"><ele>23.799999999999997</ele><time>2026-03-28T16:38:19Z</time></trkpt><trkpt lat="39.3635030715363" lon="17.11325031444108"><ele>23.599999999999998</ele><time>2026-03-28T16:38:20Z</time></trkpt><trkpt lat="39.36360349249428" lon="17.113286948870982"><ele>23.4</ele><time>2026-03-28T16:38:21Z</time></trkpt><trkpt lat="39.36371202472368" lon="17.113321698954337"><ele>23.2</ele><time>2026-03-28T16:38:22Z</time></trkpt><trkpt lat="39.363826983313814" lon="17.11335590186615"><ele>23.0</ele><time>2026-03-28T16:38:23Z</time></trkpt><trkpt lat="39.36394614783477" lon="17.113392441989124"><ele>23.0</ele><time>2026-03-28T16:38:24Z</time></trkpt><trkpt lat="39.36406684504857" lon="17.113429538071344"><ele>23.0</ele><time>2026-03-28T16:38:25Z</time></trkpt><trkpt lat="39.36418779731798" lon="17.11346881083675"><ele>23.0</ele><time>2026-03-28T16:38:26Z</time></trkpt><trkpt lat="39.36429766822471" lon="17.11350235165947"><ele>23.0</ele><time>2026-03-28T16:38:27Z</time></trkpt><trkpt lat="39.364405868909564" lon="17.11353627212653"><ele>23.0</ele><time>2026-03-28T16:38:28Z</time></trkpt><trkpt lat="39.36451463197929" lon="17.113574524110142"><ele>23.0</ele><time>2026-03-28T16:38:29Z</time></trkpt><trkpt lat="39.36462641396051" lon="17.113623160937436"><ele>23.0</ele><time>2026-03-28T16:38:30Z</time></trkpt><trkpt lat="39.3647389013793" lon="17.11368311774297"><ele>23.0</ele><time>2026-03-28T16:38:31Z</time></trkpt><trkpt lat="39.36485316529082" lon="17.113748374642526"><ele>24.0</ele><time>2026-03-28T16:38:32Z</time></trkpt><trkpt lat="39.364969025682335" lon="17.113817216193805"><ele>25.0</ele><time>2026-03-28T16:38:33Z</time></trkpt><trkpt lat="39.36508828155782" lon="17.11388589423929"><ele>26.0</ele><time>2026-03-28T16:38:34Z</time></trkpt><trkpt lat="39.36521151342994" lon="17.113954264943267"><ele>27.0</ele><time>2026-03-28T16:38:35Z</time></trkpt><trkpt lat="39.36533226215085" lon="17.114020590884536"><ele>26.0</ele><time>2026-03-28T16:38:36Z</time></trkpt><trkpt lat="39.36545206104125" lon="17.114084901763004"><ele>25.0</ele><time>2026-03-28T16:38:37Z</time></trkpt><trkpt lat="39.365570217052436" lon="17.11414381809718"><ele>24.0</ele><time>2026-03-28T16:38:38Z</time></trkpt><trkpt lat="39.36568826976851" lon="17.11419918454988"><ele>23.0</ele><time>2026-03-28T16:38:39Z</time></trkpt><trkpt lat="39.365809889370794" lon="17.114249788178235"><ele>23.0</ele><time>2026-03-28T16:38:40Z</time></trkpt><trkpt lat="39.36593177006348" lon="17.114313119706893"><ele>23.0</ele><time>2026-03-28T16:38:41Z</time></trkpt><trkpt lat="39.36604960443531" lon="17.114367139039903"><ele>23.0</ele><time>2026-03-28T16:38:42Z</time></trkpt><trkpt lat="39.366163894270485" lon="17.11442311599942"><ele>23.0</ele><time>2026-03-28T16:38:43Z</time></trkpt><trkpt lat="39.36627762057039" lon="17.114476898513253"><ele>22.75</ele><time>2026-03-28T16:38:44Z</time></trkpt><trkpt lat="39.36639619272655" lon="17.114531464705824"><ele>22.5</ele><time>2026-03-28T16:38:45Z</time></trkpt><trkpt lat="39.36651564638556" lon="17.11458361067842"><ele>22.25</ele><time>2026-03-28T16:38:46Z</time></trkpt><trkpt lat="39.366631269082305" lon="17.1146351740026"><ele>22.0</ele><time>2026-03-28T16:38:47Z</time></trkpt><trkpt lat="39.366741536854455" lon="17.114683828341914"><ele>22.0</ele><time>2026-03-28T16:38:48Z</time></trkpt><trkpt lat="39.36684141226112" lon="17.11473046597762"><ele>22.0</ele><time>2026-03-28T16:38:49Z</time></trkpt><trkpt lat="39.366922465035536" lon="17.114766788740262"><ele>22.0</ele><time>2026-03-28T16:38:50Z</time></trkpt><trkpt lat="39.367007342958864" lon="17.114801635046494"><ele>22.0</ele><time>2026-03-28T16:38:51Z</time></trkpt><trkpt lat="39.36708637819749" lon="17.114836439538767"><ele>22.0</ele><time>2026-03-28T16:38:52Z</time></trkpt><trkpt lat="39.367163988996545" lon="17.114870928495424"><ele>22.0</ele><time>2026-03-28T16:38:53Z</time></trkpt><trkpt lat="39.36723225678572" lon="17.114900581731114"><ele>22.0</ele><time>2026-03-28T16:38:54Z</time></trkpt><trkpt lat="39.36729224898466" lon="17.114926226941453"><ele>22.0</ele><time>2026-03-28T16:38:55Z</time></trkpt><trkpt lat="39.36737146701449" lon="17.11496902753456"><ele>22.0</ele><time>2026-03-28T16:38:57Z</time></trkpt><trkpt lat="39.36743515228915" lon="17.115024575903075"><ele>22.0</ele><time>2026-03-28T16:39:20Z</time></trkpt><trkpt lat="39.36744537656704" lon="17.115119538601412"><ele>22.0</ele><time>2026-03-28T16:39:28Z</time></trkpt><trkpt lat="39.367382924303215" lon="17.115178612348547"><ele>22.0</ele><time>2026-03-28T16:39:30Z</time></trkpt><trkpt lat="39.367304596250236" lon="17.115261333402294"><ele>22.0</ele><time>2026-03-28T16:39:32Z</time></trkpt><trkpt lat="39.36723488872853" lon="17.11535214342622"><ele>22.0</ele><time>2026-03-28T16:39:34Z</time></trkpt><trkpt lat="39.36718967127646" lon="17.115417552867065"><ele>22.0</ele><time>2026-03-28T16:39:36Z</time></trkpt><trkpt lat="39.36713991643697" lon="17.115477047001384"><ele>22.0</ele><time>2026-03-28T16:39:38Z</time></trkpt><trkpt lat="39.36706250465001" lon="17.115575899987594"><ele>22.0</ele><time>2026-03-28T16:39:40Z</time></trkpt><trkpt lat="39.36698751257113" lon="17.115664193458088"><ele>22.0</ele><time>2026-03-28T16:39:41Z</time></trkpt><trkpt lat="39.366895378727115" lon="17.115779537001234"><ele>20.8</ele><time>2026-03-28T16:39:42Z</time></trkpt><trkpt lat="39.36680579758029" lon="17.115916262736757"><ele>19.6</ele><time>2026-03-28T16:39:43Z</time></trkpt><trkpt lat="39.366743820418556" lon="17.11602505746419"><ele>18.400000000000002</ele><time>2026-03-28T16:39:44Z</time></trkpt><trkpt lat="39.366701228489255" lon="17.11612692999642"><ele>17.200000000000003</ele><time>2026-03-28T16:39:45Z</time></trkpt><trkpt lat="39.36666445413573" lon="17.116219556884158"><ele>16.0</ele><time>2026-03-28T16:39:46Z</time></trkpt><trkpt lat="39.366639815763484" lon="17.116309100755785"><ele>15.999999999999998</ele><time>2026-03-28T16:39:47Z</time></trkpt><trkpt lat="39.36662384666272" lon="17.116388932305224"><ele>16.0</ele><time>2026-03-28T16:39:48Z</time></trkpt><trkpt lat="39.36660800629598" lon="17.116537014381805"><ele>16.0</ele><time>2026-03-28T16:39:50Z</time></trkpt><trkpt lat="39.36665159259966" lon="17.11661914893387"><ele>16.0</ele><time>2026-03-28T16:39:51Z</time></trkpt><trkpt lat="39.36667711538796" lon="17.11669449644768"><ele>15.999999999999998</ele><time>2026-03-28T16:39:52Z</time></trkpt><trkpt lat="39.36670731342697" lon="17.116773993882603"><ele>16.0</ele><time>2026-03-28T16:39:53Z</time></trkpt><trkpt lat="39.36673464934649" lon="17.11685870362703"><ele>15.666666666666666</ele><time>2026-03-28T16:39:54Z</time></trkpt><trkpt lat="39.366768738857616" lon="17.116958508568153"><ele>15.333333333333332</ele><time>2026-03-28T16:39:55Z</time></trkpt><trkpt lat="39.36680283361992" lon="17.117061712717334"><ele>15.0</ele><time>2026-03-28T16:39:56Z</time></trkpt><trkpt lat="39.36683708764242" lon="17.117168820955502"><ele>14.666666666666668</ele><time>2026-03-28T16:39:57Z</time></trkpt><trkpt lat="39.36686887376833" lon="17.117276195480486"><ele>14.333333333333334</ele><time>2026-03-28T16:39:58Z</time></trkpt><trkpt lat="39.36689285423189" lon="17.11738323625398"><ele>14.0</ele><time>2026-03-28T16:39:59Z</time></trkpt><trkpt lat="39.36691244066758" lon="17.117487343234597"><ele>13.799999999999999</ele><time>2026-03-28T16:40:00Z</time></trkpt><trkpt lat="39.36693248681846" lon="17.117596455475315"><ele>13.599999999999998</ele><time>2026-03-28T16:40:01Z</time></trkpt><trkpt lat="39.366953197957784" lon="17.117711625055552"><ele>13.4</ele><time>2026-03-28T16:40:02Z</time></trkpt><trkpt lat="39.366971550795256" lon="17.117829780876157"><ele>13.2</ele><time>2026-03-28T16:40:03Z</time></trkpt><trkpt lat="39.366991456417914" lon="17.117951704693688"><ele>13.0</ele><time>2026-03-28T16:40:04Z</time></trkpt><trkpt lat="39.36700922771389" lon="17.118073085636247"><ele>13.0</ele><time>2026-03-28T16:40:05Z</time></trkpt><trkpt lat="39.36702555773186" lon="17.118191529601237"><ele>13.0</ele><time>2026-03-28T16:40:06Z</time></trkpt><trkpt lat="39.36704231659541" lon="17.11830931393436"><ele>13.0</ele><time>2026-03-28T16:40:07Z</time></trkpt><trkpt lat="39.367060660443165" lon="17.11843475577258"><ele>13.0</ele><time>2026-03-28T16:40:08Z</time></trkpt><trkpt lat="39.36707689276108" lon="17.1185527191762"><ele>13.0</ele><time>2026-03-28T16:40:09Z</time></trkpt><trkpt lat="39.36709614327003" lon="17.118669088082214"><ele>12.999999999999998</ele><time>2026-03-28T16:40:10Z</time></trkpt><trkpt lat="39.36711259781039" lon="17.118785983701482"><ele>13.0</ele><time>2026-03-28T16:40:11Z</time></trkpt><trkpt lat="39.36713112022683" lon="17.118901618833696"><ele>13.0</ele><time>2026-03-28T16:40:12Z</time></trkpt><trkpt lat="39.36714874628667" lon="17.119014384014022"><ele>13.0</ele><time>2026-03-28T16:40:13Z</time></trkpt><trkpt lat="39.36716626308304" lon="17.119126742237572"><ele>12.999999999999998</ele><time>2026-03-28T16:40:14Z</time></trkpt><trkpt lat="39.3671838687076" lon="17.119239247806263"><ele>13.0</ele><time>2026-03-28T16:40:15Z</time></trkpt><trkpt lat="39.36719830447751" lon="17.119351067005976"><ele>12.999999999999998</ele><time>2026-03-28T16:40:16Z</time></trkpt><trkpt lat="39.367214628828954" lon="17.11946694411589"><ele>13.0</ele><time>2026-03-28T16:40:17Z</time></trkpt><trkpt lat="39.36723137636627" lon="17.119581461610274"><ele>13.0</ele><time>2026-03-28T16:40:18Z</time></trkpt><trkpt lat="39.36724830093155" lon="17.119690826915985"><ele>13.0</ele><time>2026-03-28T16:40:19Z</time></trkpt><trkpt lat="39.36726548837377" lon="17.119803071554454"><ele>12.999999999999998</ele><time>2026-03-28T16:40:20Z</time></trkpt><trkpt lat="39.367279668407015" lon="17.119912167807623"><ele>13.0</ele><time>2026-03-28T16:40:21Z</time></trkpt><trkpt lat="39.367293582820814" lon="17.120025803650705"><ele>12.499999999999998</ele><time>2026-03-28T16:40:22Z</time></trkpt><trkpt lat="39.36731327977" lon="17.120163951541926"><ele>12.0</ele><time>2026-03-28T16:40:23Z</time></trkpt><trkpt lat="39.36732487714562" lon="17.120270517260327"><ele>11.5</ele><time>2026-03-28T16:40:24Z</time></trkpt><trkpt lat="39.36733739418024" lon="17.12036533736975"><ele>11.0</ele><time>2026-03-28T16:40:25Z</time></trkpt><trkpt lat="39.367351112220916" lon="17.120462038746357"><ele>10.5</ele><time>2026-03-28T16:40:26Z</time></trkpt><trkpt lat="39.36736537451977" lon="17.120557630886463"><ele>10.0</ele><time>2026-03-28T16:40:27Z</time></trkpt><trkpt lat="39.36737964518116" lon="17.12064709298784"><ele>9.666666666666668</ele><time>2026-03-28T16:40:28Z</time></trkpt><trkpt lat="39.36739501458187" lon="17.120733641147755"><ele>9.333333333333334</ele><time>2026-03-28T16:40:29Z</time></trkpt><trkpt lat="39.36741627813201" lon="17.120878407975603"><ele>9.0</ele><time>2026-03-28T16:40:31Z</time></trkpt><trkpt lat="39.36743629347264" lon="17.120996917104222"><ele>8.666666666666666</ele><time>2026-03-28T16:40:33Z</time></trkpt><trkpt lat="39.367451536608755" lon="17.12109463255266"><ele>8.333333333333332</ele><time>2026-03-28T16:40:35Z</time></trkpt><trkpt lat="39.36746787296479" lon="17.121209055470867"><ele>8.0</ele><time>2026-03-28T16:40:37Z</time></trkpt><trkpt lat="39.367483177228515" lon="17.121334851557823"><ele>7.999999999999999</ele><time>2026-03-28T16:40:39Z</time></trkpt><trkpt lat="39.36749863930651" lon="17.12144839958058"><ele>8.0</ele><time>2026-03-28T16:40:41Z</time></trkpt><trkpt lat="39.36751695967614" lon="17.121572393538443"><ele>8.0</ele><time>2026-03-28T16:40:43Z</time></trkpt><trkpt lat="39.367537997450384" lon="17.121698937243888"><ele>8.0</ele><time>2026-03-28T16:40:45Z</time></trkpt><trkpt lat="39.36755478056205" lon="17.121804787227823"><ele>7.999999999999999</ele><time>2026-03-28T16:40:47Z</time></trkpt><trkpt lat="39.36756908862207" lon="17.121891245898077"><ele>8.0</ele><time>2026-03-28T16:40:49Z</time></trkpt><trkpt lat="39.36758435194574" lon="17.121985652998834"><ele>8.166666666666666</ele><time>2026-03-28T16:40:52Z</time></trkpt><trkpt lat="39.36758447283567" lon="17.122082811665962"><ele>8.333333333333332</ele><time>2026-03-28T16:40:55Z</time></trkpt><trkpt lat="39.36761340824146" lon="17.122165732408444"><ele>8.5</ele><time>2026-03-28T16:40:58Z</time></trkpt><trkpt lat="39.36762489736201" lon="17.122256870913485"><ele>8.666666666666666</ele><time>2026-03-28T16:41:00Z</time></trkpt><trkpt lat="39.36763879802099" lon="17.122354489505295"><ele>8.833333333333334</ele><time>2026-03-28T16:41:02Z</time></trkpt><trkpt lat="39.36764275478032" lon="17.122484282942214"><ele>9.0</ele><time>2026-03-28T16:41:04Z</time></trkpt><trkpt lat="39.367661353648934" lon="17.122616903464085"><ele>9.2</ele><time>2026-03-28T16:41:06Z</time></trkpt><trkpt lat="39.367680063083036" lon="17.122749626890467"><ele>9.4</ele><time>2026-03-28T16:41:08Z</time></trkpt><trkpt lat="39.36769934058369" lon="17.122885830931217"><ele>9.6</ele><time>2026-03-28T16:41:10Z</time></trkpt><trkpt lat="39.36771897402151" lon="17.123027631699077"><ele>9.8</ele><time>2026-03-28T16:41:12Z</time></trkpt><trkpt lat="39.36773973639545" lon="17.123177065528473"><ele>10.0</ele><time>2026-03-28T16:41:14Z</time></trkpt><trkpt lat="39.36776123100557" lon="17.123331769516394"><ele>10.0</ele><time>2026-03-28T16:41:16Z</time></trkpt><trkpt lat="39.36778285223562" lon="17.12348738482875"><ele>10.0</ele><time>2026-03-28T16:41:18Z</time></trkpt><trkpt lat="39.3678047293218" lon="17.123640755422823"><ele>10.0</ele><time>2026-03-28T16:41:20Z</time></trkpt><trkpt lat="39.3678345938233" lon="17.1237616966835"><ele>10.0</ele><time>2026-03-28T16:41:22Z</time></trkpt><trkpt lat="39.36783410839355" lon="17.123860450641974"><ele>10.0</ele><time>2026-03-28T16:41:24Z</time></trkpt><trkpt lat="39.36783452561331" lon="17.123967404548907"><ele>9.6</ele><time>2026-03-28T16:41:26Z</time></trkpt><trkpt lat="39.36786205446364" lon="17.124099744901514"><ele>9.2</ele><time>2026-03-28T16:41:28Z</time></trkpt><trkpt lat="39.367900418086776" lon="17.124229409055523"><ele>8.8</ele><time>2026-03-28T16:41:30Z</time></trkpt><trkpt lat="39.367907024646584" lon="17.124372618800653"><ele>8.4</ele><time>2026-03-28T16:41:32Z</time></trkpt><trkpt lat="39.36792607677317" lon="17.12450559684268"><ele>8.0</ele><time>2026-03-28T16:41:34Z</time></trkpt><trkpt lat="39.36794643455168" lon="17.12465081564021"><ele>7.999999999999999</ele><time>2026-03-28T16:41:36Z</time></trkpt><trkpt lat="39.367968248571835" lon="17.124806963471602"><ele>8.0</ele><time>2026-03-28T16:41:38Z</time></trkpt><trkpt lat="39.36798005321651" lon="17.124891462727177"><ele>8.0</ele><time>2026-03-28T16:41:39Z</time></trkpt><trkpt lat="39.36799254940649" lon="17.124980912263887"><ele>8.0</ele><time>2026-03-28T16:41:40Z</time></trkpt><trkpt lat="39.36800428922274" lon="17.12506494744231"><ele>7.999999999999999</ele><time>2026-03-28T16:41:41Z</time></trkpt><trkpt lat="39.36801684819349" lon="17.125154845795613"><ele>8.0</ele><time>2026-03-28T16:41:42Z</time></trkpt><trkpt lat="39.36802969057137" lon="17.125246769972836"><ele>8.333333333333332</ele><time>2026-03-28T16:41:43Z</time></trkpt><trkpt lat="39.368042985040766" lon="17.125338322836164"><ele>8.666666666666666</ele><time>2026-03-28T16:41:44Z</time></trkpt><trkpt lat="39.3680654324823" lon="17.1254998202014"><ele>9.0</ele><time>2026-03-28T16:41:46Z</time></trkpt><trkpt lat="39.3680764430803" lon="17.125580324776625"><ele>9.333333333333334</ele><time>2026-03-28T16:41:47Z</time></trkpt><trkpt lat="39.368087457552676" lon="17.125660855941813"><ele>9.666666666666668</ele><time>2026-03-28T16:41:48Z</time></trkpt><trkpt lat="39.36809948858954" lon="17.12574368586011"><ele>10.0</ele><time>2026-03-28T16:41:49Z</time></trkpt><trkpt lat="39.368111353422684" lon="17.125827819103147"><ele>10.0</ele><time>2026-03-28T16:41:50Z</time></trkpt><trkpt lat="39.36812312084458" lon="17.125910860438996"><ele>10.0</ele><time>2026-03-28T16:41:51Z</time></trkpt><trkpt lat="39.368134264229155" lon="17.12599189631065"><ele>10.0</ele><time>2026-03-28T16:41:52Z</time></trkpt><trkpt lat="39.36814540497859" lon="17.12607211747038"><ele>10.0</ele><time>2026-03-28T16:41:53Z</time></trkpt><trkpt lat="39.36815710002448" lon="17.126154222888054"><ele>10.0</ele><time>2026-03-28T16:41:54Z</time></trkpt><trkpt lat="39.368168670877665" lon="17.126235747538534"><ele>10.0</ele><time>2026-03-28T16:41:55Z</time></trkpt><trkpt lat="39.36818018279764" lon="17.126316856844593"><ele>10.0</ele><time>2026-03-28T16:41:56Z</time></trkpt><trkpt lat="39.3681917713294" lon="17.12639850356476"><ele>10.0</ele><time>2026-03-28T16:41:57Z</time></trkpt><trkpt lat="39.368202958740554" lon="17.126480278825124"><ele>9.875</ele><time>2026-03-28T16:41:58Z</time></trkpt><trkpt lat="39.36821441177184" lon="17.126562657920605"><ele>9.75</ele><time>2026-03-28T16:41:59Z</time></trkpt><trkpt lat="39.36822581502399" lon="17.12664467615511"><ele>9.625</ele><time>2026-03-28T16:42:00Z</time></trkpt><trkpt lat="39.36823740904897" lon="17.12672578043839"><ele>9.5</ele><time>2026-03-28T16:42:01Z</time></trkpt><trkpt lat="39.36824894567462" lon="17.12680752021184"><ele>9.375</ele><time>2026-03-28T16:42:02Z</time></trkpt><trkpt lat="39.368260398752426" lon="17.12688845119689"><ele>9.25</ele><time>2026-03-28T16:42:03Z</time></trkpt><trkpt lat="39.3682715554421" lon="17.126969092422716"><ele>9.125</ele><time>2026-03-28T16:42:04Z</time></trkpt><trkpt lat="39.36828348791742" lon="17.127050461655802"><ele>9.0</ele><time>2026-03-28T16:42:05Z</time></trkpt><trkpt lat="39.36829435721806" lon="17.12713069308607"><ele>9.0</ele><time>2026-03-28T16:42:06Z</time></trkpt><trkpt lat="39.368305584723736" lon="17.1272121744984"><ele>9.0</ele><time>2026-03-28T16:42:07Z</time></trkpt><trkpt lat="39.36831666519569" lon="17.127292588344396"><ele>9.0</ele><time>2026-03-28T16:42:08Z</time></trkpt><trkpt lat="39.368337025799434" lon="17.127435476113497"><ele>9.0</ele><time>2026-03-28T16:42:10Z</time></trkpt><trkpt lat="39.368354776020304" lon="17.127560432542612"><ele>9.0</ele><time>2026-03-28T16:42:12Z</time></trkpt><trkpt lat="39.36836871395338" lon="17.127660857612586"><ele>9.0</ele><time>2026-03-28T16:42:14Z</time></trkpt><trkpt lat="39.368382041521286" lon="17.127755278588626"><ele>9.000000000000002</ele><time>2026-03-28T16:42:16Z</time></trkpt><trkpt lat="39.36839349039221" lon="17.127836139628485"><ele>9.0</ele><time>2026-03-28T16:42:18Z</time></trkpt><trkpt lat="39.368405715520154" lon="17.127922480107568"><ele>9.0</ele><time>2026-03-28T16:42:20Z</time></trkpt><trkpt lat="39.3684326738969" lon="17.1279965879659"><ele>9.0</ele><time>2026-03-28T16:42:22Z</time></trkpt><trkpt lat="39.368442678589226" lon="17.128087851719815"><ele>9.0</ele><time>2026-03-28T16:42:24Z</time></trkpt><trkpt lat="39.3684562220178" lon="17.128190699078786"><ele>9.000000000000002</ele><time>2026-03-28T16:42:26Z</time></trkpt><trkpt lat="39.368468602244" lon="17.128293754982902"><ele>9.0</ele><time>2026-03-28T16:42:28Z</time></trkpt><trkpt lat="39.36849003111582" lon="17.128408729476067"><ele>8.8</ele><time>2026-03-28T16:42:30Z</time></trkpt><trkpt lat="39.368491688894686" lon="17.128542363490197"><ele>8.600000000000001</ele><time>2026-03-28T16:42:32Z</time></trkpt><trkpt lat="39.36850822849424" lon="17.128662852975406"><ele>8.4</ele><time>2026-03-28T16:42:34Z</time></trkpt><trkpt lat="39.36852751808665" lon="17.128802140367917"><ele>8.200000000000001</ele><time>2026-03-28T16:42:36Z</time></trkpt><trkpt lat="39.36856244897844" lon="17.128943599850338"><ele>8.0</ele><time>2026-03-28T16:42:38Z</time></trkpt><trkpt lat="39.36858118013081" lon="17.129084778053816"><ele>8.0</ele><time>2026-03-28T16:42:40Z</time></trkpt><trkpt lat="39.36860036498274" lon="17.12922634860344"><ele>8.0</ele><time>2026-03-28T16:42:42Z</time></trkpt><trkpt lat="39.36862174294167" lon="17.12937278734285"><ele>8.0</ele><time>2026-03-28T16:42:44Z</time></trkpt><trkpt lat="39.368638853217384" lon="17.129517508968917"><ele>8.0</ele><time>2026-03-28T16:42:46Z</time></trkpt><trkpt lat="39.368660811360044" lon="17.129671935868597"><ele>8.0</ele><time>2026-03-28T16:42:48Z</time></trkpt><trkpt lat="39.36868168117018" lon="17.12981812920064"><ele>8.0</ele><time>2026-03-28T16:42:50Z</time></trkpt><trkpt lat="39.36870427258133" lon="17.129970374793224"><ele>8.0</ele><time>2026-03-28T16:42:52Z</time></trkpt><trkpt lat="39.368719439403115" lon="17.130062390300054"><ele>8.0</ele><time>2026-03-28T16:42:53Z</time></trkpt><trkpt lat="39.36873617654642" lon="17.13016907821448"><ele>8.0</ele><time>2026-03-28T16:42:54Z</time></trkpt><trkpt lat="39.368750209326436" lon="17.130262481158688"><ele>7.666666666666666</ele><time>2026-03-28T16:42:55Z</time></trkpt><trkpt lat="39.36876864147184" lon="17.130368494370074"><ele>7.333333333333333</ele><time>2026-03-28T16:42:56Z</time></trkpt><trkpt lat="39.368783002123095" lon="17.130490186808913"><ele>7.0</ele><time>2026-03-28T16:42:57Z</time></trkpt><trkpt lat="39.36879521200602" lon="17.130589381361577"><ele>6.666666666666666</ele><time>2026-03-28T16:42:58Z</time></trkpt><trkpt lat="39.36880826883732" lon="17.130683306368645"><ele>6.333333333333333</ele><time>2026-03-28T16:42:59Z</time></trkpt><trkpt lat="39.368820059472185" lon="17.130775440644765"><ele>6.0</ele><time>2026-03-28T16:43:00Z</time></trkpt><trkpt lat="39.36883265871524" lon="17.13085900462205"><ele>6.0</ele><time>2026-03-28T16:43:01Z</time></trkpt><trkpt lat="39.368851041104236" lon="17.13098818073409"><ele>6.0</ele><time>2026-03-28T16:43:03Z</time></trkpt><trkpt lat="39.36886977307405" lon="17.13112319359586"><ele>6.0</ele><time>2026-03-28T16:43:05Z</time></trkpt><trkpt lat="39.36889011549767" lon="17.131269981118457"><ele>6.0</ele><time>2026-03-28T16:43:07Z</time></trkpt><trkpt lat="39.36891185961507" lon="17.131427422467848"><ele>6.0</ele><time>2026-03-28T16:43:09Z</time></trkpt><trkpt lat="39.3689398086358" lon="17.131584306981818"><ele>6.0</ele><time>2026-03-28T16:43:11Z</time></trkpt><trkpt lat="39.36895993047006" lon="17.131705737020187"><ele>6.0</ele><time>2026-03-28T16:43:12Z</time></trkpt><trkpt lat="39.368973753557086" lon="17.131794912047877"><ele>6.0</ele><time>2026-03-28T16:43:13Z</time></trkpt><trkpt lat="39.36899217565718" lon="17.131919726909647"><ele>6.0</ele><time>2026-03-28T16:43:15Z</time></trkpt><trkpt lat="39.36900517312771" lon="17.132010446157697"><ele>6.0</ele><time>2026-03-28T16:43:17Z</time></trkpt><trkpt lat="39.36901471804076" lon="17.13209125274192"><ele>6.0</ele><time>2026-03-28T16:43:19Z</time></trkpt><trkpt lat="39.36902506199636" lon="17.13219936174915"><ele>6.0</ele><time>2026-03-28T16:43:22Z</time></trkpt><trkpt lat="39.36903341276287" lon="17.132324724600345"><ele>6.0</ele><time>2026-03-28T16:43:25Z</time></trkpt><trkpt lat="39.369039060339816" lon="17.132411850677144"><ele>6.0</ele><time>2026-03-28T16:43:27Z</time></trkpt><trkpt lat="39.369040170288294" lon="17.132526525283506"><ele>6.0</ele><time>2026-03-28T16:43:30Z</time></trkpt><trkpt lat="39.36907025371069" lon="17.132626136493123"><ele>6.0</ele><time>2026-03-28T16:43:33Z</time></trkpt><trkpt lat="39.36909806097539" lon="17.132701387522193"><ele>6.0</ele><time>2026-03-28T16:45:12Z</time></trkpt><trkpt lat="39.36922450118075" lon="17.132698728589126"><ele>5.833333333333333</ele><time>2026-03-28T16:45:14Z</time></trkpt><trkpt lat="39.36930893051617" lon="17.13272880313833"><ele>5.666666666666667</ele><time>2026-03-28T16:45:17Z</time></trkpt><trkpt lat="39.36933574549749" lon="17.132854795578073"><ele>5.5</ele><time>2026-03-28T16:45:19Z</time></trkpt><trkpt lat="39.369330793109576" lon="17.132952377006493"><ele>5.333333333333334</ele><time>2026-03-28T16:45:20Z</time></trkpt><trkpt lat="39.369313495155346" lon="17.133052362208264"><ele>5.166666666666667</ele><time>2026-03-28T16:45:22Z</time></trkpt><trkpt lat="39.36929551905199" lon="17.133143724533642"><ele>5.0</ele><time>2026-03-28T16:45:26Z</time></trkpt><trkpt lat="39.36929020977761" lon="17.13324116431472"><ele>5.75</ele><time>2026-03-28T16:45:33Z</time></trkpt><trkpt lat="39.369101104509085" lon="17.133199372421817"><ele>6.5</ele><time>2026-03-28T16:45:34Z</time></trkpt><trkpt lat="39.36900227080933" lon="17.133149138073183"><ele>7.25</ele><time>2026-03-28T16:45:35Z</time></trkpt><trkpt lat="39.368885236292996" lon="17.133126375065924"><ele>8.0</ele><time>2026-03-28T16:45:36Z</time></trkpt><trkpt lat="39.3688071620947" lon="17.133127256345936"><ele>8.0</ele><time>2026-03-28T16:45:37Z</time></trkpt><trkpt lat="39.36871090112841" lon="17.133106565110257"><ele>8.0</ele><time>2026-03-28T16:45:39Z</time></trkpt><trkpt lat="39.36863927286884" lon="17.133095478646023"><ele>8.0</ele><time>2026-03-28T16:45:41Z</time></trkpt><trkpt lat="39.368558431241546" lon="17.133084618748516"><ele>8.0</ele><time>2026-03-28T16:45:43Z</time></trkpt><trkpt lat="39.36846063348693" lon="17.133076117877252"><ele>8.0</ele><time>2026-03-28T16:45:45Z</time></trkpt><trkpt lat="39.368359771852994" lon="17.13306285944915"><ele>8.0</ele><time>2026-03-28T16:45:47Z</time></trkpt><trkpt lat="39.36824108549845" lon="17.133052782377344"><ele>8.0</ele><time>2026-03-28T16:45:49Z</time></trkpt><trkpt lat="39.36817384944848" lon="17.133052667622522"><ele>8.0</ele><time>2026-03-28T16:45:50Z</time></trkpt><trkpt lat="39.36810539089979" lon="17.13305117435077"><ele>8.0</ele><time>2026-03-28T16:45:51Z</time></trkpt><trkpt lat="39.36799627145846" lon="17.13304323379373"><ele>8.0</ele><time>2026-03-28T16:45:53Z</time></trkpt><trkpt lat="39.367899033666475" lon="17.133042165506414"><ele>8.0</ele><time>2026-03-28T16:45:55Z</time></trkpt><trkpt lat="39.36777359480807" lon="17.13303459905788"><ele>8.0</ele><time>2026-03-28T16:45:57Z</time></trkpt><trkpt lat="39.36770379954109" lon="17.133030314107877"><ele>8.0</ele><time>2026-03-28T16:45:58Z</time></trkpt><trkpt lat="39.36762608374668" lon="17.13302828569155"><ele>8.0</ele><time>2026-03-28T16:45:59Z</time></trkpt><trkpt lat="39.36755109571429" lon="17.133026209871655"><ele>8.0</ele><time>2026-03-28T16:46:00Z</time></trkpt><trkpt lat="39.36743158078535" lon="17.133030369024752"><ele>8.0</ele><time>2026-03-28T16:46:02Z</time></trkpt><trkpt lat="39.36733182623911" lon="17.13302519590197"><ele>8.0</ele><time>2026-03-28T16:46:04Z</time></trkpt><trkpt lat="39.36724313694538" lon="17.133020953142072"><ele>8.0</ele><time>2026-03-28T16:46:06Z</time></trkpt><trkpt lat="39.367151992701004" lon="17.13301824139232"><ele>8.0</ele><time>2026-03-28T16:46:07Z</time></trkpt><trkpt lat="39.36708580181572" lon="17.133019173049295"><ele>8.0</ele><time>2026-03-28T16:46:08Z</time></trkpt><trkpt lat="39.36697690477411" lon="17.133014414209033"><ele>8.0</ele><time>2026-03-28T16:46:10Z</time></trkpt><trkpt lat="39.366866287540795" lon="17.133007131183913"><ele>8.0</ele><time>2026-03-28T16:46:12Z</time></trkpt><trkpt lat="39.36677701441538" lon="17.133004811284774"><ele>8.0</ele><time>2026-03-28T16:46:14Z</time></trkpt><trkpt lat="39.3666754843463" lon="17.13300258712192"><ele>8.0</ele><time>2026-03-28T16:46:16Z</time></trkpt><trkpt lat="39.3665642841463" lon="17.133001632365843"><ele>8.0</ele><time>2026-03-28T16:46:18Z</time></trkpt><trkpt lat="39.3664522765568" lon="17.133049972755067"><ele>7.4</ele><time>2026-03-28T16:46:20Z</time></trkpt><trkpt lat="39.36634995160838" lon="17.133039866465886"><ele>6.800000000000001</ele><time>2026-03-28T16:46:22Z</time></trkpt><trkpt lat="39.36624367010815" lon="17.133078316060754"><ele>6.2</ele><time>2026-03-28T16:46:24Z</time></trkpt><trkpt lat="39.36617275106108" lon="17.1330001890112"><ele>5.6</ele><time>2026-03-28T16:46:25Z</time></trkpt><trkpt lat="39.36610053773033" lon="17.13300104899589"><ele>5.0</ele><time>2026-03-28T16:46:26Z</time></trkpt><trkpt lat="39.366027188086285" lon="17.132998274011474"><ele>5.0</ele><time>2026-03-28T16:46:27Z</time></trkpt><trkpt lat="39.36590785028755" lon="17.132978721025285"><ele>5.0</ele><time>2026-03-28T16:46:29Z</time></trkpt><trkpt lat="39.36584169855023" lon="17.1329693594592"><ele>5.0</ele><time>2026-03-28T16:46:30Z</time></trkpt><trkpt lat="39.36575774251815" lon="17.13295857484784"><ele>5.0</ele><time>2026-03-28T16:46:31Z</time></trkpt><trkpt lat="39.365640089706574" lon="17.132945157868736"><ele>5.0</ele><time>2026-03-28T16:46:32Z</time></trkpt><trkpt lat="39.36553161476023" lon="17.13295515920904"><ele>5.0</ele><time>2026-03-28T16:46:33Z</time></trkpt><trkpt lat="39.36544676129588" lon="17.13294702911019"><ele>5.0</ele><time>2026-03-28T16:46:34Z</time></trkpt><trkpt lat="39.36538300257199" lon="17.132940920141536"><ele>5.0</ele><time>2026-03-28T16:46:35Z</time></trkpt><trkpt lat="39.36526145573095" lon="17.13292927425271"><ele>5.0</ele><time>2026-03-28T16:46:37Z</time></trkpt><trkpt lat="39.365148931840146" lon="17.13290047795638"><ele>5.0</ele><time>2026-03-28T16:46:39Z</time></trkpt><trkpt lat="39.36507814483899" lon="17.13289758874639"><ele>5.0</ele><time>2026-03-28T16:46:40Z</time></trkpt><trkpt lat="39.36501257393202" lon="17.132893248639725"><ele>5.0</ele><time>2026-03-28T16:46:41Z</time></trkpt><trkpt lat="39.36494770644997" lon="17.13288560355037"><ele>5.0</ele><time>2026-03-28T16:46:42Z</time></trkpt><trkpt lat="39.36488299176439" lon="17.132877784049498"><ele>5.0</ele><time>2026-03-28T16:46:43Z</time></trkpt><trkpt lat="39.364818035449034" lon="17.132872928018788"><ele>5.0</ele><time>2026-03-28T16:46:44Z</time></trkpt><trkpt lat="39.36475483658832" lon="17.1328660988399"><ele>5.0</ele><time>2026-03-28T16:46:45Z</time></trkpt><trkpt lat="39.36464840459645" lon="17.132854940913056"><ele>5.0</ele><time>2026-03-28T16:46:47Z</time></trkpt><trkpt lat="39.36453131827443" lon="17.13284298202132"><ele>4.8</ele><time>2026-03-28T16:46:49Z</time></trkpt><trkpt lat="39.364414539974625" lon="17.132826125797575"><ele>4.6</ele><time>2026-03-28T16:46:51Z</time></trkpt><trkpt lat="39.36434397983172" lon="17.132814199287232"><ele>4.4</ele><time>2026-03-28T16:46:52Z</time></trkpt><trkpt lat="39.364234590399555" lon="17.1328020276162"><ele>4.2</ele><time>2026-03-28T16:46:54Z</time></trkpt><trkpt lat="39.36412982347198" lon="17.13278702884691"><ele>4.0</ele><time>2026-03-28T16:46:56Z</time></trkpt><trkpt lat="39.36402436667521" lon="17.132766833117042"><ele>4.0</ele><time>2026-03-28T16:46:58Z</time></trkpt><trkpt lat="39.36392418095291" lon="17.13276635745099"><ele>4.0</ele><time>2026-03-28T16:47:00Z</time></trkpt><trkpt lat="39.36385752677103" lon="17.132638280346153"><ele>4.0</ele><time>2026-03-28T16:47:02Z</time></trkpt><trkpt lat="39.36384149748761" lon="17.132557553398758"><ele>4.0</ele><time>2026-03-28T16:47:03Z</time></trkpt><trkpt lat="39.36380559727943" lon="17.132428195777642"><ele>4.0</ele><time>2026-03-28T16:47:05Z</time></trkpt><trkpt lat="39.36377658985769" lon="17.132321074818417"><ele>4.333333333333333</ele><time>2026-03-28T16:47:07Z</time></trkpt><trkpt lat="39.36373247818912" lon="17.13220729936612"><ele>4.666666666666666</ele><time>2026-03-28T16:47:09Z</time></trkpt><trkpt lat="39.36369331373516" lon="17.13210631703055"><ele>5.0</ele><time>2026-03-28T16:47:11Z</time></trkpt><trkpt lat="39.36365994650714" lon="17.13200004523783"><ele>5.333333333333333</ele><time>2026-03-28T16:47:13Z</time></trkpt><trkpt lat="39.363594486561446" lon="17.13190938569775"><ele>5.666666666666667</ele><time>2026-03-28T16:47:15Z</time></trkpt><trkpt lat="39.36354485751883" lon="17.131854355895932"><ele>6.0</ele><time>2026-03-28T16:47:16Z</time></trkpt><trkpt lat="39.3634456399406" lon="17.131904949827646"><ele>6.0</ele><time>2026-03-28T16:47:17Z</time></trkpt><trkpt lat="39.363364717212306" lon="17.131938192699742"><ele>6.0</ele><time>2026-03-28T16:47:18Z</time></trkpt><trkpt lat="39.36327777006531" lon="17.13195729854426"><ele>6.0</ele><time>2026-03-28T16:47:19Z</time></trkpt><trkpt lat="39.36319914357782" lon="17.131971731665274"><ele>6.0</ele><time>2026-03-28T16:47:20Z</time></trkpt><trkpt lat="39.36312296935422" lon="17.131980684170177"><ele>6.0</ele><time>2026-03-28T16:47:21Z</time></trkpt><trkpt lat="39.36304905288999" lon="17.131986974025203"><ele>6.0</ele><time>2026-03-28T16:47:22Z</time></trkpt><trkpt lat="39.36292372072113" lon="17.131982647992768"><ele>5.666666666666667</ele><time>2026-03-28T16:47:24Z</time></trkpt><trkpt lat="39.36286107846768" lon="17.13196986754246"><ele>5.333333333333333</ele><time>2026-03-28T16:47:25Z</time></trkpt><trkpt lat="39.36272516571101" lon="17.131943709385578"><ele>5.0</ele><time>2026-03-28T16:47:27Z</time></trkpt><trkpt lat="39.362644115786246" lon="17.131927293571295"><ele>4.666666666666666</ele><time>2026-03-28T16:47:28Z</time></trkpt><trkpt lat="39.362565317334735" lon="17.131911880715347"><ele>4.333333333333333</ele><time>2026-03-28T16:47:29Z</time></trkpt><trkpt lat="39.36249186770642" lon="17.131898585265407"><ele>4.0</ele><time>2026-03-28T16:47:30Z</time></trkpt><trkpt lat="39.36242168404444" lon="17.131880070773217"><ele>3.9999999999999996</ele><time>2026-03-28T16:47:31Z</time></trkpt><trkpt lat="39.36235298787983" lon="17.131860848342335"><ele>4.0</ele><time>2026-03-28T16:47:32Z</time></trkpt><trkpt lat="39.362280394817915" lon="17.131844544897408"><ele>4.0</ele><time>2026-03-28T16:47:33Z</time></trkpt><trkpt lat="39.36220800591235" lon="17.131830599943505"><ele>4.0</ele><time>2026-03-28T16:47:34Z</time></trkpt><trkpt lat="39.36214031474526" lon="17.13181265483674"><ele>3.9999999999999996</ele><time>2026-03-28T16:47:35Z</time></trkpt><trkpt lat="39.36205015909086" lon="17.131790609992457"><ele>4.0</ele><time>2026-03-28T16:47:36Z</time></trkpt><trkpt lat="39.36196049080706" lon="17.131772221285473"><ele>4.4</ele><time>2026-03-28T16:47:37Z</time></trkpt><trkpt lat="39.36189089327797" lon="17.131755126606265"><ele>4.800000000000001</ele><time>2026-03-28T16:47:38Z</time></trkpt><trkpt lat="39.36176837561515" lon="17.131723340614574"><ele>5.199999999999999</ele><time>2026-03-28T16:47:40Z</time></trkpt><trkpt lat="39.36170080848376" lon="17.131730527869202"><ele>5.6</ele><time>2026-03-28T16:47:41Z</time></trkpt><trkpt lat="39.36158361843454" lon="17.131705911149588"><ele>6.0</ele><time>2026-03-28T16:47:43Z</time></trkpt><trkpt lat="39.36146422105061" lon="17.13168016662206"><ele>5.6</ele><time>2026-03-28T16:47:45Z</time></trkpt><trkpt lat="39.36134971663014" lon="17.131655477867714"><ele>5.199999999999999</ele><time>2026-03-28T16:47:47Z</time></trkpt><trkpt lat="39.361260785796674" lon="17.13163736403731"><ele>4.800000000000001</ele><time>2026-03-28T16:47:49Z</time></trkpt><trkpt lat="39.361141073786946" lon="17.131615119517903"><ele>4.4</ele><time>2026-03-28T16:47:51Z</time></trkpt><trkpt lat="39.36107314577898" lon="17.13160297119703"><ele>4.0</ele><time>2026-03-28T16:47:52Z</time></trkpt><trkpt lat="39.36096430057651" lon="17.131562985693964"><ele>4.0</ele><time>2026-03-28T16:47:54Z</time></trkpt><trkpt lat="39.36085695875201" lon="17.131566339220985"><ele>4.0</ele><time>2026-03-28T16:47:56Z</time></trkpt><trkpt lat="39.360746432389355" lon="17.13154957281407"><ele>5.0</ele><time>2026-03-28T16:47:58Z</time></trkpt><trkpt lat="39.36063788419306" lon="17.131536113440415"><ele>5.0</ele><time>2026-03-28T16:48:00Z</time></trkpt><trkpt lat="39.36056257386484" lon="17.13154378787133"><ele>5.0</ele><time>2026-03-28T16:48:02Z</time></trkpt></trkseg></trk></gpx>